<?xml version="1.0" encoding="UTF-8" standalone="no" ?>
<gpx xmlns="http://www.topografix.com/GPX/1/1" xmlns:xsi="http://www.w3.org/2001/XMLSchema-instance" xsi:schemaLocation="http://www.topografix.com/GPX/1/1 http://www.topografix.com/GPX/1/1/gpx.xsd" version="1.1" creator="VisuGPX - https://www.visugpx.com">
  <metadata>
    <name>suite voyage</name>
  </metadata>
  <trk>
    <name><![CDATA[T19]]></name>
    <trkseg>
      <trkpt lat="50.99238" lon="2.01103">
        <ele>4.2</ele>
        <time>2020-06-23T08:49:24Z</time>
      </trkpt>
      <trkpt lat="50.99244" lon="2.01077">
        <ele>4.4</ele>
        <time>2020-06-23T08:49:25Z</time>
      </trkpt>
      <trkpt lat="50.99249" lon="2.01076">
        <ele>4.4</ele>
        <time>2020-06-23T08:49:26Z</time>
      </trkpt>
      <trkpt lat="50.99252" lon="2.01081">
        <ele>4.5</ele>
        <time>2020-06-23T08:49:27Z</time>
      </trkpt>
      <trkpt lat="50.99255" lon="2.0108">
        <ele>4.5</ele>
        <time>2020-06-23T08:49:29Z</time>
      </trkpt>
      <trkpt lat="50.99262" lon="2.01079">
        <ele>4.6</ele>
        <time>2020-06-23T08:51:06Z</time>
      </trkpt>
      <trkpt lat="50.99263" lon="2.01077">
        <ele>4.6</ele>
        <time>2020-06-23T08:51:07Z</time>
      </trkpt>
      <trkpt lat="50.99263" lon="2.01078">
        <ele>4.6</ele>
        <time>2020-06-23T08:51:08Z</time>
      </trkpt>
      <trkpt lat="50.99263" lon="2.01077">
        <ele>4.7</ele>
        <time>2020-06-23T08:51:09Z</time>
      </trkpt>
      <trkpt lat="50.99264" lon="2.01076">
        <ele>4.7</ele>
        <time>2020-06-23T08:51:10Z</time>
      </trkpt>
      <trkpt lat="50.99264" lon="2.01076">
        <ele>4.7</ele>
        <time>2020-06-23T08:51:11Z</time>
      </trkpt>
      <trkpt lat="50.99264" lon="2.01075">
        <ele>4.7</ele>
        <time>2020-06-23T08:51:12Z</time>
      </trkpt>
      <trkpt lat="50.99264" lon="2.01073">
        <ele>4.7</ele>
        <time>2020-06-23T08:51:13Z</time>
      </trkpt>
      <trkpt lat="50.99265" lon="2.01072">
        <ele>4.7</ele>
        <time>2020-06-23T08:51:14Z</time>
      </trkpt>
      <trkpt lat="50.99265" lon="2.0107">
        <ele>4.7</ele>
        <time>2020-06-23T08:51:15Z</time>
      </trkpt>
      <trkpt lat="50.99264" lon="2.01069">
        <ele>4.7</ele>
        <time>2020-06-23T08:51:16Z</time>
      </trkpt>
      <trkpt lat="50.99265" lon="2.01067">
        <ele>4.7</ele>
        <time>2020-06-23T08:51:17Z</time>
      </trkpt>
      <trkpt lat="50.99264" lon="2.01066">
        <ele>4.7</ele>
        <time>2020-06-23T08:51:18Z</time>
      </trkpt>
      <trkpt lat="50.99264" lon="2.01064">
        <ele>4.7</ele>
        <time>2020-06-23T08:51:19Z</time>
      </trkpt>
      <trkpt lat="50.99264" lon="2.01063">
        <ele>4.7</ele>
        <time>2020-06-23T08:51:20Z</time>
      </trkpt>
      <trkpt lat="50.99265" lon="2.01062">
        <ele>4.7</ele>
        <time>2020-06-23T08:51:21Z</time>
      </trkpt>
      <trkpt lat="50.99265" lon="2.01061">
        <ele>4.7</ele>
        <time>2020-06-23T08:51:22Z</time>
      </trkpt>
      <trkpt lat="50.99265" lon="2.01059">
        <ele>4.7</ele>
        <time>2020-06-23T08:51:23Z</time>
      </trkpt>
      <trkpt lat="50.99265" lon="2.01058">
        <ele>4.7</ele>
        <time>2020-06-23T08:51:24Z</time>
      </trkpt>
      <trkpt lat="50.99266" lon="2.01056">
        <ele>4.7</ele>
        <time>2020-06-23T08:51:25Z</time>
      </trkpt>
      <trkpt lat="50.99266" lon="2.01054">
        <ele>4.7</ele>
        <time>2020-06-23T08:51:26Z</time>
      </trkpt>
      <trkpt lat="50.99266" lon="2.01053">
        <ele>4.6</ele>
        <time>2020-06-23T08:51:27Z</time>
      </trkpt>
      <trkpt lat="50.99267" lon="2.01052">
        <ele>4.6</ele>
        <time>2020-06-23T08:51:28Z</time>
      </trkpt>
      <trkpt lat="50.99267" lon="2.0105">
        <ele>4.6</ele>
        <time>2020-06-23T08:51:29Z</time>
      </trkpt>
      <trkpt lat="50.99267" lon="2.01049">
        <ele>4.6</ele>
        <time>2020-06-23T08:51:30Z</time>
      </trkpt>
      <trkpt lat="50.99267" lon="2.01048">
        <ele>4.6</ele>
        <time>2020-06-23T08:51:31Z</time>
      </trkpt>
      <trkpt lat="50.99268" lon="2.01046">
        <ele>4.6</ele>
        <time>2020-06-23T08:51:32Z</time>
      </trkpt>
      <trkpt lat="50.99268" lon="2.01045">
        <ele>4.6</ele>
        <time>2020-06-23T08:51:33Z</time>
      </trkpt>
      <trkpt lat="50.99267" lon="2.01044">
        <ele>4.6</ele>
        <time>2020-06-23T08:51:34Z</time>
      </trkpt>
      <trkpt lat="50.99267" lon="2.01043">
        <ele>4.6</ele>
        <time>2020-06-23T08:51:35Z</time>
      </trkpt>
      <trkpt lat="50.99267" lon="2.01041">
        <ele>4.6</ele>
        <time>2020-06-23T08:51:36Z</time>
      </trkpt>
      <trkpt lat="50.99267" lon="2.0104">
        <ele>4.6</ele>
        <time>2020-06-23T08:51:37Z</time>
      </trkpt>
      <trkpt lat="50.99266" lon="2.01039">
        <ele>4.6</ele>
        <time>2020-06-23T08:51:38Z</time>
      </trkpt>
      <trkpt lat="50.99265" lon="2.01037">
        <ele>4.6</ele>
        <time>2020-06-23T08:51:39Z</time>
      </trkpt>
      <trkpt lat="50.99265" lon="2.01037">
        <ele>4.6</ele>
        <time>2020-06-23T08:51:40Z</time>
      </trkpt>
      <trkpt lat="50.99264" lon="2.01037">
        <ele>4.5</ele>
        <time>2020-06-23T08:51:41Z</time>
      </trkpt>
      <trkpt lat="50.99263" lon="2.01036">
        <ele>4.5</ele>
        <time>2020-06-23T08:51:42Z</time>
      </trkpt>
      <trkpt lat="50.99261" lon="2.01036">
        <ele>4.5</ele>
        <time>2020-06-23T08:51:43Z</time>
      </trkpt>
      <trkpt lat="50.9926" lon="2.01036">
        <ele>4.5</ele>
        <time>2020-06-23T08:51:44Z</time>
      </trkpt>
      <trkpt lat="50.99259" lon="2.01035">
        <ele>4.5</ele>
        <time>2020-06-23T08:51:45Z</time>
      </trkpt>
      <trkpt lat="50.99258" lon="2.01034">
        <ele>4.5</ele>
        <time>2020-06-23T08:51:46Z</time>
      </trkpt>
      <trkpt lat="50.99257" lon="2.01034">
        <ele>4.5</ele>
        <time>2020-06-23T08:51:47Z</time>
      </trkpt>
      <trkpt lat="50.99256" lon="2.01034">
        <ele>4.5</ele>
        <time>2020-06-23T08:51:48Z</time>
      </trkpt>
      <trkpt lat="50.99254" lon="2.01034">
        <ele>4.5</ele>
        <time>2020-06-23T08:51:49Z</time>
      </trkpt>
      <trkpt lat="50.99253" lon="2.01033">
        <ele>4.5</ele>
        <time>2020-06-23T08:51:50Z</time>
      </trkpt>
      <trkpt lat="50.99252" lon="2.01033">
        <ele>4.4</ele>
        <time>2020-06-23T08:51:51Z</time>
      </trkpt>
      <trkpt lat="50.99251" lon="2.01033">
        <ele>4.4</ele>
        <time>2020-06-23T08:51:52Z</time>
      </trkpt>
      <trkpt lat="50.99249" lon="2.01032">
        <ele>4.4</ele>
        <time>2020-06-23T08:51:53Z</time>
      </trkpt>
      <trkpt lat="50.99248" lon="2.01031">
        <ele>4.4</ele>
        <time>2020-06-23T08:51:54Z</time>
      </trkpt>
      <trkpt lat="50.99247" lon="2.01031">
        <ele>4.4</ele>
        <time>2020-06-23T08:51:55Z</time>
      </trkpt>
      <trkpt lat="50.99247" lon="2.01031">
        <ele>4.4</ele>
        <time>2020-06-23T08:51:56Z</time>
      </trkpt>
      <trkpt lat="50.99245" lon="2.01031">
        <ele>4.4</ele>
        <time>2020-06-23T08:51:57Z</time>
      </trkpt>
      <trkpt lat="50.99245" lon="2.0103">
        <ele>4.4</ele>
        <time>2020-06-23T08:51:58Z</time>
      </trkpt>
      <trkpt lat="50.99244" lon="2.0103">
        <ele>4.4</ele>
        <time>2020-06-23T08:51:59Z</time>
      </trkpt>
      <trkpt lat="50.99243" lon="2.0103">
        <ele>4.4</ele>
        <time>2020-06-23T08:52:00Z</time>
      </trkpt>
      <trkpt lat="50.99241" lon="2.0103">
        <ele>4.4</ele>
        <time>2020-06-23T08:52:01Z</time>
      </trkpt>
      <trkpt lat="50.9924" lon="2.0103">
        <ele>4.3</ele>
        <time>2020-06-23T08:52:02Z</time>
      </trkpt>
      <trkpt lat="50.99238" lon="2.0103">
        <ele>4.3</ele>
        <time>2020-06-23T08:52:03Z</time>
      </trkpt>
      <trkpt lat="50.99237" lon="2.0103">
        <ele>4.3</ele>
        <time>2020-06-23T08:52:04Z</time>
      </trkpt>
      <trkpt lat="50.99236" lon="2.0103">
        <ele>4.3</ele>
        <time>2020-06-23T08:52:05Z</time>
      </trkpt>
      <trkpt lat="50.99236" lon="2.01029">
        <ele>4.3</ele>
        <time>2020-06-23T08:52:06Z</time>
      </trkpt>
      <trkpt lat="50.99234" lon="2.01029">
        <ele>4.3</ele>
        <time>2020-06-23T08:52:07Z</time>
      </trkpt>
      <trkpt lat="50.99233" lon="2.0103">
        <ele>4.3</ele>
        <time>2020-06-23T08:52:08Z</time>
      </trkpt>
      <trkpt lat="50.99232" lon="2.0103">
        <ele>4.3</ele>
        <time>2020-06-23T08:52:09Z</time>
      </trkpt>
      <trkpt lat="50.99231" lon="2.0103">
        <ele>4.3</ele>
        <time>2020-06-23T08:52:10Z</time>
      </trkpt>
      <trkpt lat="50.99231" lon="2.01031">
        <ele>4.3</ele>
        <time>2020-06-23T08:52:11Z</time>
      </trkpt>
      <trkpt lat="50.99231" lon="2.01031">
        <ele>4.3</ele>
        <time>2020-06-23T08:52:12Z</time>
      </trkpt>
      <trkpt lat="50.99231" lon="2.01032">
        <ele>4.3</ele>
        <time>2020-06-23T08:52:13Z</time>
      </trkpt>
      <trkpt lat="50.99231" lon="2.01032">
        <ele>4.3</ele>
        <time>2020-06-23T08:52:14Z</time>
      </trkpt>
      <trkpt lat="50.99231" lon="2.01032">
        <ele>4.3</ele>
        <time>2020-06-23T08:52:15Z</time>
      </trkpt>
      <trkpt lat="50.99231" lon="2.01032">
        <ele>4.3</ele>
        <time>2020-06-23T08:52:16Z</time>
      </trkpt>
      <trkpt lat="50.9923" lon="2.01032">
        <ele>4.3</ele>
        <time>2020-06-23T08:52:17Z</time>
      </trkpt>
      <trkpt lat="50.99229" lon="2.01032">
        <ele>4.2</ele>
        <time>2020-06-23T08:52:18Z</time>
      </trkpt>
      <trkpt lat="50.99227" lon="2.01032">
        <ele>4.2</ele>
        <time>2020-06-23T08:52:19Z</time>
      </trkpt>
      <trkpt lat="50.99225" lon="2.01033">
        <ele>4.2</ele>
        <time>2020-06-23T08:52:20Z</time>
      </trkpt>
      <trkpt lat="50.99224" lon="2.01034">
        <ele>4.2</ele>
        <time>2020-06-23T08:52:21Z</time>
      </trkpt>
      <trkpt lat="50.99224" lon="2.01034">
        <ele>4.2</ele>
        <time>2020-06-23T08:52:22Z</time>
      </trkpt>
      <trkpt lat="50.99223" lon="2.01034">
        <ele>4.2</ele>
        <time>2020-06-23T08:52:23Z</time>
      </trkpt>
      <trkpt lat="50.99223" lon="2.01034">
        <ele>4.2</ele>
        <time>2020-06-23T08:52:24Z</time>
      </trkpt>
      <trkpt lat="50.99223" lon="2.01034">
        <ele>4.2</ele>
        <time>2020-06-23T08:52:25Z</time>
      </trkpt>
      <trkpt lat="50.99222" lon="2.01033">
        <ele>4.2</ele>
        <time>2020-06-23T08:52:26Z</time>
      </trkpt>
      <trkpt lat="50.9922" lon="2.01034">
        <ele>4.2</ele>
        <time>2020-06-23T08:52:27Z</time>
      </trkpt>
      <trkpt lat="50.99219" lon="2.01036">
        <ele>4.2</ele>
        <time>2020-06-23T08:52:28Z</time>
      </trkpt>
      <trkpt lat="50.99219" lon="2.01037">
        <ele>4.2</ele>
        <time>2020-06-23T08:52:29Z</time>
      </trkpt>
      <trkpt lat="50.99219" lon="2.01038">
        <ele>4.2</ele>
        <time>2020-06-23T08:52:30Z</time>
      </trkpt>
      <trkpt lat="50.99219" lon="2.01038">
        <ele>4.2</ele>
        <time>2020-06-23T08:52:31Z</time>
      </trkpt>
      <trkpt lat="50.9922" lon="2.0104">
        <ele>4.2</ele>
        <time>2020-06-23T08:52:32Z</time>
      </trkpt>
      <trkpt lat="50.9922" lon="2.0104">
        <ele>4.2</ele>
        <time>2020-06-23T08:52:33Z</time>
      </trkpt>
      <trkpt lat="50.9922" lon="2.0104">
        <ele>4.2</ele>
        <time>2020-06-23T08:52:34Z</time>
      </trkpt>
      <trkpt lat="50.9922" lon="2.0104">
        <ele>4.2</ele>
        <time>2020-06-23T08:52:35Z</time>
      </trkpt>
      <trkpt lat="50.9922" lon="2.01043">
        <ele>4.2</ele>
        <time>2020-06-23T08:52:36Z</time>
      </trkpt>
      <trkpt lat="50.99221" lon="2.01045">
        <ele>4.2</ele>
        <time>2020-06-23T08:52:37Z</time>
      </trkpt>
      <trkpt lat="50.99221" lon="2.01048">
        <ele>4.2</ele>
        <time>2020-06-23T08:52:38Z</time>
      </trkpt>
      <trkpt lat="50.99221" lon="2.0105">
        <ele>4.2</ele>
        <time>2020-06-23T08:52:39Z</time>
      </trkpt>
      <trkpt lat="50.99221" lon="2.01053">
        <ele>4.2</ele>
        <time>2020-06-23T08:52:40Z</time>
      </trkpt>
      <trkpt lat="50.99221" lon="2.01055">
        <ele>4.2</ele>
        <time>2020-06-23T08:54:33Z</time>
      </trkpt>
      <trkpt lat="50.99221" lon="2.01058">
        <ele>4.2</ele>
        <time>2020-06-23T08:54:34Z</time>
      </trkpt>
      <trkpt lat="50.99222" lon="2.01062">
        <ele>4.2</ele>
        <time>2020-06-23T08:54:35Z</time>
      </trkpt>
      <trkpt lat="50.99222" lon="2.01067">
        <ele>4.2</ele>
        <time>2020-06-23T08:54:36Z</time>
      </trkpt>
      <trkpt lat="50.99223" lon="2.01071">
        <ele>4.2</ele>
        <time>2020-06-23T08:54:37Z</time>
      </trkpt>
      <trkpt lat="50.99223" lon="2.01075">
        <ele>4.2</ele>
        <time>2020-06-23T08:54:38Z</time>
      </trkpt>
      <trkpt lat="50.99224" lon="2.01081">
        <ele>4.2</ele>
        <time>2020-06-23T08:54:39Z</time>
      </trkpt>
      <trkpt lat="50.99225" lon="2.01086">
        <ele>4.2</ele>
        <time>2020-06-23T08:54:40Z</time>
      </trkpt>
      <trkpt lat="50.99227" lon="2.01091">
        <ele>4.2</ele>
        <time>2020-06-23T08:54:41Z</time>
      </trkpt>
      <trkpt lat="50.99227" lon="2.01097">
        <ele>4.2</ele>
        <time>2020-06-23T08:54:42Z</time>
      </trkpt>
      <trkpt lat="50.99228" lon="2.01102">
        <ele>4.2</ele>
        <time>2020-06-23T08:54:43Z</time>
      </trkpt>
      <trkpt lat="50.99228" lon="2.01108">
        <ele>4.2</ele>
        <time>2020-06-23T08:54:44Z</time>
      </trkpt>
      <trkpt lat="50.99228" lon="2.01114">
        <ele>4.2</ele>
        <time>2020-06-23T08:54:45Z</time>
      </trkpt>
      <trkpt lat="50.99229" lon="2.0112">
        <ele>4.2</ele>
        <time>2020-06-23T08:54:46Z</time>
      </trkpt>
      <trkpt lat="50.9923" lon="2.01127">
        <ele>4.2</ele>
        <time>2020-06-23T08:54:47Z</time>
      </trkpt>
      <trkpt lat="50.99231" lon="2.01134">
        <ele>4.2</ele>
        <time>2020-06-23T08:54:48Z</time>
      </trkpt>
      <trkpt lat="50.99232" lon="2.01142">
        <ele>4.2</ele>
        <time>2020-06-23T08:54:49Z</time>
      </trkpt>
      <trkpt lat="50.99233" lon="2.01149">
        <ele>4.1</ele>
        <time>2020-06-23T08:54:50Z</time>
      </trkpt>
      <trkpt lat="50.99234" lon="2.01156">
        <ele>4.1</ele>
        <time>2020-06-23T08:54:51Z</time>
      </trkpt>
      <trkpt lat="50.99235" lon="2.01163">
        <ele>4.1</ele>
        <time>2020-06-23T08:54:52Z</time>
      </trkpt>
      <trkpt lat="50.99236" lon="2.0117">
        <ele>4.2</ele>
        <time>2020-06-23T08:54:53Z</time>
      </trkpt>
      <trkpt lat="50.99238" lon="2.01177">
        <ele>4.2</ele>
        <time>2020-06-23T08:54:54Z</time>
      </trkpt>
      <trkpt lat="50.99239" lon="2.01185">
        <ele>4.2</ele>
        <time>2020-06-23T08:54:55Z</time>
      </trkpt>
      <trkpt lat="50.9924" lon="2.01192">
        <ele>4.2</ele>
        <time>2020-06-23T08:54:56Z</time>
      </trkpt>
      <trkpt lat="50.99241" lon="2.012">
        <ele>4.2</ele>
        <time>2020-06-23T08:54:57Z</time>
      </trkpt>
      <trkpt lat="50.99242" lon="2.01207">
        <ele>4.3</ele>
        <time>2020-06-23T08:54:58Z</time>
      </trkpt>
      <trkpt lat="50.99243" lon="2.01214">
        <ele>4.3</ele>
        <time>2020-06-23T08:54:59Z</time>
      </trkpt>
      <trkpt lat="50.99244" lon="2.01221">
        <ele>4.3</ele>
        <time>2020-06-23T08:55:00Z</time>
      </trkpt>
      <trkpt lat="50.99245" lon="2.01228">
        <ele>4.3</ele>
        <time>2020-06-23T08:55:01Z</time>
      </trkpt>
      <trkpt lat="50.99246" lon="2.01236">
        <ele>4.3</ele>
        <time>2020-06-23T08:55:02Z</time>
      </trkpt>
      <trkpt lat="50.99246" lon="2.01243">
        <ele>4.3</ele>
        <time>2020-06-23T08:55:03Z</time>
      </trkpt>
      <trkpt lat="50.99247" lon="2.01251">
        <ele>4.3</ele>
        <time>2020-06-23T08:55:04Z</time>
      </trkpt>
      <trkpt lat="50.99248" lon="2.01259">
        <ele>4.3</ele>
        <time>2020-06-23T08:55:05Z</time>
      </trkpt>
      <trkpt lat="50.99249" lon="2.01267">
        <ele>4.3</ele>
        <time>2020-06-23T08:55:06Z</time>
      </trkpt>
      <trkpt lat="50.99249" lon="2.01275">
        <ele>4.2</ele>
        <time>2020-06-23T08:55:07Z</time>
      </trkpt>
      <trkpt lat="50.9925" lon="2.01283">
        <ele>4.2</ele>
        <time>2020-06-23T08:55:08Z</time>
      </trkpt>
      <trkpt lat="50.99251" lon="2.01292">
        <ele>4.2</ele>
        <time>2020-06-23T08:55:09Z</time>
      </trkpt>
      <trkpt lat="50.99251" lon="2.013">
        <ele>4.2</ele>
        <time>2020-06-23T08:55:10Z</time>
      </trkpt>
      <trkpt lat="50.99252" lon="2.01307">
        <ele>4.2</ele>
        <time>2020-06-23T08:55:11Z</time>
      </trkpt>
      <trkpt lat="50.99252" lon="2.01314">
        <ele>4.2</ele>
        <time>2020-06-23T08:55:12Z</time>
      </trkpt>
      <trkpt lat="50.99252" lon="2.01322">
        <ele>4.2</ele>
        <time>2020-06-23T08:55:13Z</time>
      </trkpt>
      <trkpt lat="50.99253" lon="2.0133">
        <ele>4.2</ele>
        <time>2020-06-23T08:55:14Z</time>
      </trkpt>
      <trkpt lat="50.99252" lon="2.01338">
        <ele>4.2</ele>
        <time>2020-06-23T08:55:15Z</time>
      </trkpt>
      <trkpt lat="50.99253" lon="2.01346">
        <ele>4.1</ele>
        <time>2020-06-23T08:55:16Z</time>
      </trkpt>
      <trkpt lat="50.99254" lon="2.01354">
        <ele>4.1</ele>
        <time>2020-06-23T08:55:17Z</time>
      </trkpt>
      <trkpt lat="50.99255" lon="2.01362">
        <ele>4.1</ele>
        <time>2020-06-23T08:55:18Z</time>
      </trkpt>
      <trkpt lat="50.99255" lon="2.01371">
        <ele>4.1</ele>
        <time>2020-06-23T08:55:19Z</time>
      </trkpt>
      <trkpt lat="50.99256" lon="2.01379">
        <ele>4</ele>
        <time>2020-06-23T08:55:20Z</time>
      </trkpt>
      <trkpt lat="50.99256" lon="2.01388">
        <ele>4</ele>
        <time>2020-06-23T08:55:21Z</time>
      </trkpt>
      <trkpt lat="50.99257" lon="2.01396">
        <ele>4</ele>
        <time>2020-06-23T08:55:22Z</time>
      </trkpt>
      <trkpt lat="50.99258" lon="2.01404">
        <ele>4</ele>
        <time>2020-06-23T08:55:23Z</time>
      </trkpt>
      <trkpt lat="50.99258" lon="2.01412">
        <ele>4</ele>
        <time>2020-06-23T08:55:24Z</time>
      </trkpt>
      <trkpt lat="50.99259" lon="2.0142">
        <ele>4.1</ele>
        <time>2020-06-23T08:55:25Z</time>
      </trkpt>
      <trkpt lat="50.9926" lon="2.01429">
        <ele>4.1</ele>
        <time>2020-06-23T08:55:26Z</time>
      </trkpt>
      <trkpt lat="50.9926" lon="2.01437">
        <ele>4.1</ele>
        <time>2020-06-23T08:55:27Z</time>
      </trkpt>
      <trkpt lat="50.9926" lon="2.01445">
        <ele>4.1</ele>
        <time>2020-06-23T08:55:28Z</time>
      </trkpt>
      <trkpt lat="50.99259" lon="2.01454">
        <ele>4</ele>
        <time>2020-06-23T08:55:29Z</time>
      </trkpt>
      <trkpt lat="50.99259" lon="2.01462">
        <ele>4</ele>
        <time>2020-06-23T08:55:30Z</time>
      </trkpt>
      <trkpt lat="50.99259" lon="2.0147">
        <ele>4</ele>
        <time>2020-06-23T08:55:31Z</time>
      </trkpt>
      <trkpt lat="50.99259" lon="2.01479">
        <ele>3.9</ele>
        <time>2020-06-23T08:55:32Z</time>
      </trkpt>
      <trkpt lat="50.99259" lon="2.01487">
        <ele>3.9</ele>
        <time>2020-06-23T08:55:33Z</time>
      </trkpt>
      <trkpt lat="50.99259" lon="2.01495">
        <ele>3.9</ele>
        <time>2020-06-23T08:55:34Z</time>
      </trkpt>
      <trkpt lat="50.99259" lon="2.01504">
        <ele>3.9</ele>
        <time>2020-06-23T08:55:35Z</time>
      </trkpt>
      <trkpt lat="50.9926" lon="2.01512">
        <ele>3.9</ele>
        <time>2020-06-23T08:55:36Z</time>
      </trkpt>
      <trkpt lat="50.99259" lon="2.01522">
        <ele>3.9</ele>
        <time>2020-06-23T08:55:37Z</time>
      </trkpt>
      <trkpt lat="50.9926" lon="2.01529">
        <ele>3.9</ele>
        <time>2020-06-23T08:55:38Z</time>
      </trkpt>
      <trkpt lat="50.9926" lon="2.01537">
        <ele>3.9</ele>
        <time>2020-06-23T08:55:39Z</time>
      </trkpt>
      <trkpt lat="50.9926" lon="2.01545">
        <ele>3.9</ele>
        <time>2020-06-23T08:55:40Z</time>
      </trkpt>
      <trkpt lat="50.9926" lon="2.01553">
        <ele>3.9</ele>
        <time>2020-06-23T08:55:41Z</time>
      </trkpt>
      <trkpt lat="50.9926" lon="2.01562">
        <ele>3.8</ele>
        <time>2020-06-23T08:55:42Z</time>
      </trkpt>
      <trkpt lat="50.99261" lon="2.01569">
        <ele>3.8</ele>
        <time>2020-06-23T08:55:43Z</time>
      </trkpt>
      <trkpt lat="50.99261" lon="2.01577">
        <ele>3.8</ele>
        <time>2020-06-23T08:55:44Z</time>
      </trkpt>
      <trkpt lat="50.99261" lon="2.01584">
        <ele>3.8</ele>
        <time>2020-06-23T08:55:45Z</time>
      </trkpt>
      <trkpt lat="50.99262" lon="2.01591">
        <ele>3.7</ele>
        <time>2020-06-23T08:55:46Z</time>
      </trkpt>
      <trkpt lat="50.99262" lon="2.01599">
        <ele>3.7</ele>
        <time>2020-06-23T08:55:47Z</time>
      </trkpt>
      <trkpt lat="50.99262" lon="2.01606">
        <ele>3.7</ele>
        <time>2020-06-23T08:55:48Z</time>
      </trkpt>
      <trkpt lat="50.99263" lon="2.01614">
        <ele>3.7</ele>
        <time>2020-06-23T08:55:49Z</time>
      </trkpt>
      <trkpt lat="50.99263" lon="2.01622">
        <ele>3.7</ele>
        <time>2020-06-23T08:55:50Z</time>
      </trkpt>
      <trkpt lat="50.99264" lon="2.01631">
        <ele>3.7</ele>
        <time>2020-06-23T08:55:51Z</time>
      </trkpt>
      <trkpt lat="50.99264" lon="2.01639">
        <ele>3.7</ele>
        <time>2020-06-23T08:55:52Z</time>
      </trkpt>
      <trkpt lat="50.99264" lon="2.01647">
        <ele>3.7</ele>
        <time>2020-06-23T08:55:53Z</time>
      </trkpt>
      <trkpt lat="50.99264" lon="2.01655">
        <ele>3.7</ele>
        <time>2020-06-23T08:55:54Z</time>
      </trkpt>
      <trkpt lat="50.99265" lon="2.01663">
        <ele>3.7</ele>
        <time>2020-06-23T08:55:55Z</time>
      </trkpt>
      <trkpt lat="50.99265" lon="2.01671">
        <ele>3.7</ele>
        <time>2020-06-23T08:55:56Z</time>
      </trkpt>
      <trkpt lat="50.99266" lon="2.01679">
        <ele>3.7</ele>
        <time>2020-06-23T08:55:57Z</time>
      </trkpt>
      <trkpt lat="50.99268" lon="2.01687">
        <ele>3.7</ele>
        <time>2020-06-23T08:55:58Z</time>
      </trkpt>
      <trkpt lat="50.99269" lon="2.01694">
        <ele>3.6</ele>
        <time>2020-06-23T08:55:59Z</time>
      </trkpt>
      <trkpt lat="50.99269" lon="2.01701">
        <ele>3.6</ele>
        <time>2020-06-23T08:56:00Z</time>
      </trkpt>
      <trkpt lat="50.99269" lon="2.01707">
        <ele>3.6</ele>
        <time>2020-06-23T08:56:01Z</time>
      </trkpt>
      <trkpt lat="50.99269" lon="2.01714">
        <ele>3.7</ele>
        <time>2020-06-23T08:56:02Z</time>
      </trkpt>
      <trkpt lat="50.9927" lon="2.01721">
        <ele>3.7</ele>
        <time>2020-06-23T08:56:03Z</time>
      </trkpt>
      <trkpt lat="50.99271" lon="2.01728">
        <ele>3.7</ele>
        <time>2020-06-23T08:56:04Z</time>
      </trkpt>
      <trkpt lat="50.99271" lon="2.01735">
        <ele>3.7</ele>
        <time>2020-06-23T08:56:05Z</time>
      </trkpt>
      <trkpt lat="50.99271" lon="2.01743">
        <ele>3.8</ele>
        <time>2020-06-23T08:56:06Z</time>
      </trkpt>
      <trkpt lat="50.99271" lon="2.0175">
        <ele>3.8</ele>
        <time>2020-06-23T08:56:07Z</time>
      </trkpt>
      <trkpt lat="50.99272" lon="2.01758">
        <ele>3.8</ele>
        <time>2020-06-23T08:56:08Z</time>
      </trkpt>
      <trkpt lat="50.99272" lon="2.01765">
        <ele>3.7</ele>
        <time>2020-06-23T08:56:09Z</time>
      </trkpt>
      <trkpt lat="50.99273" lon="2.01772">
        <ele>3.7</ele>
        <time>2020-06-23T08:56:10Z</time>
      </trkpt>
      <trkpt lat="50.99274" lon="2.01779">
        <ele>3.6</ele>
        <time>2020-06-23T08:56:11Z</time>
      </trkpt>
      <trkpt lat="50.99275" lon="2.01787">
        <ele>3.6</ele>
        <time>2020-06-23T08:56:12Z</time>
      </trkpt>
      <trkpt lat="50.99275" lon="2.01794">
        <ele>3.6</ele>
        <time>2020-06-23T08:56:13Z</time>
      </trkpt>
      <trkpt lat="50.99275" lon="2.01802">
        <ele>3.6</ele>
        <time>2020-06-23T08:56:14Z</time>
      </trkpt>
      <trkpt lat="50.99276" lon="2.01811">
        <ele>3.6</ele>
        <time>2020-06-23T08:56:15Z</time>
      </trkpt>
      <trkpt lat="50.99277" lon="2.01818">
        <ele>3.7</ele>
        <time>2020-06-23T08:56:16Z</time>
      </trkpt>
      <trkpt lat="50.99277" lon="2.01821">
        <ele>3.7</ele>
        <time>2020-06-23T08:56:17Z</time>
      </trkpt>
      <trkpt lat="50.99277" lon="2.01828">
        <ele>3.7</ele>
        <time>2020-06-23T08:56:18Z</time>
      </trkpt>
      <trkpt lat="50.99277" lon="2.01835">
        <ele>3.7</ele>
        <time>2020-06-23T08:56:19Z</time>
      </trkpt>
      <trkpt lat="50.99277" lon="2.01843">
        <ele>3.7</ele>
        <time>2020-06-23T08:56:20Z</time>
      </trkpt>
      <trkpt lat="50.99278" lon="2.01851">
        <ele>3.7</ele>
        <time>2020-06-23T08:56:21Z</time>
      </trkpt>
      <trkpt lat="50.99278" lon="2.01859">
        <ele>3.7</ele>
        <time>2020-06-23T08:56:22Z</time>
      </trkpt>
      <trkpt lat="50.99278" lon="2.01867">
        <ele>3.6</ele>
        <time>2020-06-23T08:56:23Z</time>
      </trkpt>
      <trkpt lat="50.99277" lon="2.01875">
        <ele>3.6</ele>
        <time>2020-06-23T08:56:24Z</time>
      </trkpt>
      <trkpt lat="50.99277" lon="2.01883">
        <ele>3.6</ele>
        <time>2020-06-23T08:56:25Z</time>
      </trkpt>
      <trkpt lat="50.99276" lon="2.01892">
        <ele>3.6</ele>
        <time>2020-06-23T08:56:26Z</time>
      </trkpt>
      <trkpt lat="50.99275" lon="2.019">
        <ele>3.6</ele>
        <time>2020-06-23T08:56:27Z</time>
      </trkpt>
      <trkpt lat="50.99275" lon="2.01909">
        <ele>3.6</ele>
        <time>2020-06-23T08:56:28Z</time>
      </trkpt>
      <trkpt lat="50.99274" lon="2.01917">
        <ele>3.6</ele>
        <time>2020-06-23T08:56:29Z</time>
      </trkpt>
      <trkpt lat="50.99275" lon="2.01926">
        <ele>3.6</ele>
        <time>2020-06-23T08:56:30Z</time>
      </trkpt>
      <trkpt lat="50.99275" lon="2.01935">
        <ele>3.6</ele>
        <time>2020-06-23T08:56:31Z</time>
      </trkpt>
      <trkpt lat="50.99274" lon="2.01943">
        <ele>3.6</ele>
        <time>2020-06-23T08:56:32Z</time>
      </trkpt>
      <trkpt lat="50.99274" lon="2.0195">
        <ele>3.7</ele>
        <time>2020-06-23T08:56:33Z</time>
      </trkpt>
      <trkpt lat="50.99274" lon="2.01959">
        <ele>3.7</ele>
        <time>2020-06-23T08:56:34Z</time>
      </trkpt>
      <trkpt lat="50.99273" lon="2.01966">
        <ele>3.7</ele>
        <time>2020-06-23T08:56:35Z</time>
      </trkpt>
      <trkpt lat="50.99273" lon="2.01974">
        <ele>3.7</ele>
        <time>2020-06-23T08:56:36Z</time>
      </trkpt>
      <trkpt lat="50.99274" lon="2.01983">
        <ele>3.7</ele>
        <time>2020-06-23T08:56:37Z</time>
      </trkpt>
      <trkpt lat="50.99274" lon="2.01991">
        <ele>3.7</ele>
        <time>2020-06-23T08:56:38Z</time>
      </trkpt>
      <trkpt lat="50.99274" lon="2.02">
        <ele>3.6</ele>
        <time>2020-06-23T08:56:39Z</time>
      </trkpt>
      <trkpt lat="50.99273" lon="2.02009">
        <ele>3.6</ele>
        <time>2020-06-23T08:56:40Z</time>
      </trkpt>
      <trkpt lat="50.99273" lon="2.02017">
        <ele>3.5</ele>
        <time>2020-06-23T08:56:41Z</time>
      </trkpt>
      <trkpt lat="50.99272" lon="2.02025">
        <ele>3.5</ele>
        <time>2020-06-23T08:56:42Z</time>
      </trkpt>
      <trkpt lat="50.99272" lon="2.02034">
        <ele>3.4</ele>
        <time>2020-06-23T08:56:43Z</time>
      </trkpt>
      <trkpt lat="50.99271" lon="2.02041">
        <ele>3.4</ele>
        <time>2020-06-23T08:56:44Z</time>
      </trkpt>
      <trkpt lat="50.9927" lon="2.0205">
        <ele>3.3</ele>
        <time>2020-06-23T08:56:45Z</time>
      </trkpt>
      <trkpt lat="50.99268" lon="2.02058">
        <ele>3.3</ele>
        <time>2020-06-23T08:56:46Z</time>
      </trkpt>
      <trkpt lat="50.99267" lon="2.02066">
        <ele>3.3</ele>
        <time>2020-06-23T08:56:47Z</time>
      </trkpt>
      <trkpt lat="50.99266" lon="2.02075">
        <ele>3.3</ele>
        <time>2020-06-23T08:56:48Z</time>
      </trkpt>
      <trkpt lat="50.99264" lon="2.02083">
        <ele>3.3</ele>
        <time>2020-06-23T08:56:49Z</time>
      </trkpt>
      <trkpt lat="50.99263" lon="2.02091">
        <ele>3.3</ele>
        <time>2020-06-23T08:56:50Z</time>
      </trkpt>
      <trkpt lat="50.99261" lon="2.02099">
        <ele>3.3</ele>
        <time>2020-06-23T08:56:51Z</time>
      </trkpt>
      <trkpt lat="50.9926" lon="2.02107">
        <ele>3.3</ele>
        <time>2020-06-23T08:56:52Z</time>
      </trkpt>
      <trkpt lat="50.99259" lon="2.02114">
        <ele>3.2</ele>
        <time>2020-06-23T08:56:53Z</time>
      </trkpt>
      <trkpt lat="50.99258" lon="2.02121">
        <ele>3.2</ele>
        <time>2020-06-23T08:56:54Z</time>
      </trkpt>
      <trkpt lat="50.99257" lon="2.02128">
        <ele>3.2</ele>
        <time>2020-06-23T08:56:55Z</time>
      </trkpt>
      <trkpt lat="50.99255" lon="2.02135">
        <ele>3.3</ele>
        <time>2020-06-23T08:56:56Z</time>
      </trkpt>
      <trkpt lat="50.99253" lon="2.02142">
        <ele>3.3</ele>
        <time>2020-06-23T08:56:57Z</time>
      </trkpt>
      <trkpt lat="50.99251" lon="2.02149">
        <ele>3.3</ele>
        <time>2020-06-23T08:56:58Z</time>
      </trkpt>
      <trkpt lat="50.99248" lon="2.02156">
        <ele>3.2</ele>
        <time>2020-06-23T08:56:59Z</time>
      </trkpt>
      <trkpt lat="50.99245" lon="2.02162">
        <ele>3.2</ele>
        <time>2020-06-23T08:57:00Z</time>
      </trkpt>
      <trkpt lat="50.99242" lon="2.02168">
        <ele>3.2</ele>
        <time>2020-06-23T08:57:01Z</time>
      </trkpt>
      <trkpt lat="50.99238" lon="2.02173">
        <ele>3.1</ele>
        <time>2020-06-23T08:57:02Z</time>
      </trkpt>
      <trkpt lat="50.99235" lon="2.02179">
        <ele>3.1</ele>
        <time>2020-06-23T08:57:03Z</time>
      </trkpt>
      <trkpt lat="50.99232" lon="2.02186">
        <ele>3</ele>
        <time>2020-06-23T08:57:04Z</time>
      </trkpt>
      <trkpt lat="50.99229" lon="2.02192">
        <ele>3</ele>
        <time>2020-06-23T08:57:05Z</time>
      </trkpt>
      <trkpt lat="50.99224" lon="2.02196">
        <ele>3</ele>
        <time>2020-06-23T08:57:06Z</time>
      </trkpt>
      <trkpt lat="50.9922" lon="2.02199">
        <ele>3</ele>
        <time>2020-06-23T08:57:07Z</time>
      </trkpt>
      <trkpt lat="50.99215" lon="2.02202">
        <ele>3</ele>
        <time>2020-06-23T08:57:08Z</time>
      </trkpt>
      <trkpt lat="50.99209" lon="2.02203">
        <ele>2.9</ele>
        <time>2020-06-23T08:57:09Z</time>
      </trkpt>
      <trkpt lat="50.99203" lon="2.02204">
        <ele>2.9</ele>
        <time>2020-06-23T08:57:10Z</time>
      </trkpt>
      <trkpt lat="50.99198" lon="2.02205">
        <ele>2.8</ele>
        <time>2020-06-23T08:57:11Z</time>
      </trkpt>
      <trkpt lat="50.99193" lon="2.02206">
        <ele>2.8</ele>
        <time>2020-06-23T08:57:12Z</time>
      </trkpt>
      <trkpt lat="50.99188" lon="2.02208">
        <ele>2.8</ele>
        <time>2020-06-23T08:57:13Z</time>
      </trkpt>
      <trkpt lat="50.99183" lon="2.02209">
        <ele>2.8</ele>
        <time>2020-06-23T08:57:14Z</time>
      </trkpt>
      <trkpt lat="50.99178" lon="2.02211">
        <ele>2.8</ele>
        <time>2020-06-23T08:57:15Z</time>
      </trkpt>
      <trkpt lat="50.99174" lon="2.02213">
        <ele>2.8</ele>
        <time>2020-06-23T08:57:16Z</time>
      </trkpt>
      <trkpt lat="50.99169" lon="2.02213">
        <ele>2.8</ele>
        <time>2020-06-23T08:57:17Z</time>
      </trkpt>
      <trkpt lat="50.99166" lon="2.02214">
        <ele>2.8</ele>
        <time>2020-06-23T08:57:18Z</time>
      </trkpt>
      <trkpt lat="50.99162" lon="2.02214">
        <ele>2.8</ele>
        <time>2020-06-23T08:57:19Z</time>
      </trkpt>
      <trkpt lat="50.99158" lon="2.02214">
        <ele>2.8</ele>
        <time>2020-06-23T08:57:20Z</time>
      </trkpt>
      <trkpt lat="50.99153" lon="2.02213">
        <ele>2.8</ele>
        <time>2020-06-23T08:57:21Z</time>
      </trkpt>
      <trkpt lat="50.99147" lon="2.02212">
        <ele>2.8</ele>
        <time>2020-06-23T08:57:22Z</time>
      </trkpt>
      <trkpt lat="50.99143" lon="2.0221">
        <ele>2.8</ele>
        <time>2020-06-23T08:57:23Z</time>
      </trkpt>
      <trkpt lat="50.99138" lon="2.02209">
        <ele>2.8</ele>
        <time>2020-06-23T08:57:24Z</time>
      </trkpt>
      <trkpt lat="50.99134" lon="2.02207">
        <ele>2.8</ele>
        <time>2020-06-23T08:57:25Z</time>
      </trkpt>
      <trkpt lat="50.9913" lon="2.02205">
        <ele>2.8</ele>
        <time>2020-06-23T08:57:26Z</time>
      </trkpt>
      <trkpt lat="50.99125" lon="2.02202">
        <ele>2.7</ele>
        <time>2020-06-23T08:57:27Z</time>
      </trkpt>
      <trkpt lat="50.9912" lon="2.022">
        <ele>2.7</ele>
        <time>2020-06-23T08:57:28Z</time>
      </trkpt>
      <trkpt lat="50.99116" lon="2.02197">
        <ele>2.7</ele>
        <time>2020-06-23T08:57:29Z</time>
      </trkpt>
      <trkpt lat="50.99111" lon="2.02194">
        <ele>2.7</ele>
        <time>2020-06-23T08:57:30Z</time>
      </trkpt>
      <trkpt lat="50.99106" lon="2.02192">
        <ele>2.8</ele>
        <time>2020-06-23T08:57:31Z</time>
      </trkpt>
      <trkpt lat="50.99102" lon="2.0219">
        <ele>2.8</ele>
        <time>2020-06-23T08:57:32Z</time>
      </trkpt>
      <trkpt lat="50.99097" lon="2.02187">
        <ele>2.8</ele>
        <time>2020-06-23T08:57:33Z</time>
      </trkpt>
      <trkpt lat="50.99092" lon="2.02185">
        <ele>2.8</ele>
        <time>2020-06-23T08:57:34Z</time>
      </trkpt>
      <trkpt lat="50.99087" lon="2.02184">
        <ele>2.8</ele>
        <time>2020-06-23T08:57:35Z</time>
      </trkpt>
      <trkpt lat="50.99083" lon="2.02183">
        <ele>2.8</ele>
        <time>2020-06-23T08:57:36Z</time>
      </trkpt>
      <trkpt lat="50.99078" lon="2.02182">
        <ele>2.8</ele>
        <time>2020-06-23T08:57:37Z</time>
      </trkpt>
      <trkpt lat="50.99073" lon="2.02183">
        <ele>2.8</ele>
        <time>2020-06-23T08:57:38Z</time>
      </trkpt>
      <trkpt lat="50.99068" lon="2.02184">
        <ele>2.8</ele>
        <time>2020-06-23T08:57:39Z</time>
      </trkpt>
      <trkpt lat="50.99062" lon="2.02185">
        <ele>2.8</ele>
        <time>2020-06-23T08:57:40Z</time>
      </trkpt>
      <trkpt lat="50.99056" lon="2.02185">
        <ele>2.8</ele>
        <time>2020-06-23T08:57:41Z</time>
      </trkpt>
      <trkpt lat="50.99051" lon="2.02186">
        <ele>2.7</ele>
        <time>2020-06-23T08:57:42Z</time>
      </trkpt>
      <trkpt lat="50.99046" lon="2.02188">
        <ele>2.7</ele>
        <time>2020-06-23T08:57:43Z</time>
      </trkpt>
      <trkpt lat="50.99041" lon="2.02189">
        <ele>2.7</ele>
        <time>2020-06-23T08:57:44Z</time>
      </trkpt>
      <trkpt lat="50.99037" lon="2.0219">
        <ele>2.7</ele>
        <time>2020-06-23T08:57:45Z</time>
      </trkpt>
      <trkpt lat="50.99032" lon="2.0219">
        <ele>2.7</ele>
        <time>2020-06-23T08:57:46Z</time>
      </trkpt>
      <trkpt lat="50.99028" lon="2.02192">
        <ele>2.7</ele>
        <time>2020-06-23T08:57:47Z</time>
      </trkpt>
      <trkpt lat="50.99023" lon="2.02193">
        <ele>2.7</ele>
        <time>2020-06-23T08:57:48Z</time>
      </trkpt>
      <trkpt lat="50.99018" lon="2.02193">
        <ele>2.6</ele>
        <time>2020-06-23T08:57:49Z</time>
      </trkpt>
      <trkpt lat="50.99013" lon="2.02195">
        <ele>2.6</ele>
        <time>2020-06-23T08:57:50Z</time>
      </trkpt>
      <trkpt lat="50.99008" lon="2.02196">
        <ele>2.6</ele>
        <time>2020-06-23T08:57:51Z</time>
      </trkpt>
      <trkpt lat="50.99002" lon="2.02198">
        <ele>2.6</ele>
        <time>2020-06-23T08:57:52Z</time>
      </trkpt>
      <trkpt lat="50.98997" lon="2.02199">
        <ele>2.6</ele>
        <time>2020-06-23T08:57:53Z</time>
      </trkpt>
      <trkpt lat="50.98992" lon="2.022">
        <ele>2.6</ele>
        <time>2020-06-23T08:57:54Z</time>
      </trkpt>
      <trkpt lat="50.98988" lon="2.02201">
        <ele>2.5</ele>
        <time>2020-06-23T08:57:55Z</time>
      </trkpt>
      <trkpt lat="50.98983" lon="2.02201">
        <ele>2.5</ele>
        <time>2020-06-23T08:57:56Z</time>
      </trkpt>
      <trkpt lat="50.98978" lon="2.02202">
        <ele>2.5</ele>
        <time>2020-06-23T08:57:57Z</time>
      </trkpt>
      <trkpt lat="50.98972" lon="2.02203">
        <ele>2.5</ele>
        <time>2020-06-23T08:57:58Z</time>
      </trkpt>
      <trkpt lat="50.98967" lon="2.02203">
        <ele>2.5</ele>
        <time>2020-06-23T08:57:59Z</time>
      </trkpt>
      <trkpt lat="50.98961" lon="2.02204">
        <ele>2.4</ele>
        <time>2020-06-23T08:58:00Z</time>
      </trkpt>
      <trkpt lat="50.98956" lon="2.02205">
        <ele>2.4</ele>
        <time>2020-06-23T08:58:01Z</time>
      </trkpt>
      <trkpt lat="50.9895" lon="2.02207">
        <ele>2.4</ele>
        <time>2020-06-23T08:58:02Z</time>
      </trkpt>
      <trkpt lat="50.98944" lon="2.02208">
        <ele>2.3</ele>
        <time>2020-06-23T08:58:03Z</time>
      </trkpt>
      <trkpt lat="50.98939" lon="2.02209">
        <ele>2.3</ele>
        <time>2020-06-23T08:58:04Z</time>
      </trkpt>
      <trkpt lat="50.98934" lon="2.0221">
        <ele>2.3</ele>
        <time>2020-06-23T08:58:05Z</time>
      </trkpt>
      <trkpt lat="50.98929" lon="2.02211">
        <ele>2.3</ele>
        <time>2020-06-23T08:58:06Z</time>
      </trkpt>
      <trkpt lat="50.98924" lon="2.02213">
        <ele>2.3</ele>
        <time>2020-06-23T08:58:07Z</time>
      </trkpt>
      <trkpt lat="50.98919" lon="2.02214">
        <ele>2.2</ele>
        <time>2020-06-23T08:58:08Z</time>
      </trkpt>
      <trkpt lat="50.98913" lon="2.02215">
        <ele>2.2</ele>
        <time>2020-06-23T08:58:09Z</time>
      </trkpt>
      <trkpt lat="50.98907" lon="2.02217">
        <ele>2.2</ele>
        <time>2020-06-23T08:58:10Z</time>
      </trkpt>
      <trkpt lat="50.98901" lon="2.02218">
        <ele>2.2</ele>
        <time>2020-06-23T08:58:11Z</time>
      </trkpt>
      <trkpt lat="50.98895" lon="2.02219">
        <ele>2.1</ele>
        <time>2020-06-23T08:58:12Z</time>
      </trkpt>
      <trkpt lat="50.9889" lon="2.0222">
        <ele>2.1</ele>
        <time>2020-06-23T08:58:13Z</time>
      </trkpt>
      <trkpt lat="50.98885" lon="2.02221">
        <ele>2.1</ele>
        <time>2020-06-23T08:58:14Z</time>
      </trkpt>
      <trkpt lat="50.98881" lon="2.02223">
        <ele>2.1</ele>
        <time>2020-06-23T08:58:15Z</time>
      </trkpt>
      <trkpt lat="50.98877" lon="2.02225">
        <ele>2.1</ele>
        <time>2020-06-23T08:58:16Z</time>
      </trkpt>
      <trkpt lat="50.98872" lon="2.02226">
        <ele>2.1</ele>
        <time>2020-06-23T08:58:17Z</time>
      </trkpt>
      <trkpt lat="50.98866" lon="2.02227">
        <ele>2.1</ele>
        <time>2020-06-23T08:58:18Z</time>
      </trkpt>
      <trkpt lat="50.9886" lon="2.02227">
        <ele>2.1</ele>
        <time>2020-06-23T08:58:19Z</time>
      </trkpt>
      <trkpt lat="50.98855" lon="2.02229">
        <ele>2.1</ele>
        <time>2020-06-23T08:58:20Z</time>
      </trkpt>
      <trkpt lat="50.98849" lon="2.02229">
        <ele>2</ele>
        <time>2020-06-23T08:58:21Z</time>
      </trkpt>
      <trkpt lat="50.98845" lon="2.0223">
        <ele>2</ele>
        <time>2020-06-23T08:58:22Z</time>
      </trkpt>
      <trkpt lat="50.9884" lon="2.02231">
        <ele>2</ele>
        <time>2020-06-23T08:58:23Z</time>
      </trkpt>
      <trkpt lat="50.98835" lon="2.02232">
        <ele>2</ele>
        <time>2020-06-23T08:58:24Z</time>
      </trkpt>
      <trkpt lat="50.9883" lon="2.02233">
        <ele>2.1</ele>
        <time>2020-06-23T08:58:25Z</time>
      </trkpt>
      <trkpt lat="50.98824" lon="2.02234">
        <ele>2.1</ele>
        <time>2020-06-23T08:58:26Z</time>
      </trkpt>
      <trkpt lat="50.98819" lon="2.02236">
        <ele>2.1</ele>
        <time>2020-06-23T08:58:27Z</time>
      </trkpt>
      <trkpt lat="50.98814" lon="2.02237">
        <ele>2.1</ele>
        <time>2020-06-23T08:58:28Z</time>
      </trkpt>
      <trkpt lat="50.98809" lon="2.02238">
        <ele>2.2</ele>
        <time>2020-06-23T08:58:29Z</time>
      </trkpt>
      <trkpt lat="50.98804" lon="2.02239">
        <ele>2.2</ele>
        <time>2020-06-23T08:58:30Z</time>
      </trkpt>
      <trkpt lat="50.98798" lon="2.0224">
        <ele>2.2</ele>
        <time>2020-06-23T08:58:31Z</time>
      </trkpt>
      <trkpt lat="50.98793" lon="2.02241">
        <ele>2.2</ele>
        <time>2020-06-23T08:58:32Z</time>
      </trkpt>
      <trkpt lat="50.98788" lon="2.02243">
        <ele>2.2</ele>
        <time>2020-06-23T08:58:33Z</time>
      </trkpt>
      <trkpt lat="50.98783" lon="2.02244">
        <ele>2.2</ele>
        <time>2020-06-23T08:58:34Z</time>
      </trkpt>
      <trkpt lat="50.98778" lon="2.02245">
        <ele>2.3</ele>
        <time>2020-06-23T08:58:35Z</time>
      </trkpt>
      <trkpt lat="50.98773" lon="2.02246">
        <ele>2.3</ele>
        <time>2020-06-23T08:58:36Z</time>
      </trkpt>
      <trkpt lat="50.98767" lon="2.02248">
        <ele>2.3</ele>
        <time>2020-06-23T08:58:37Z</time>
      </trkpt>
      <trkpt lat="50.98763" lon="2.02249">
        <ele>2.4</ele>
        <time>2020-06-23T08:58:38Z</time>
      </trkpt>
      <trkpt lat="50.98758" lon="2.02251">
        <ele>2.4</ele>
        <time>2020-06-23T08:58:39Z</time>
      </trkpt>
      <trkpt lat="50.98753" lon="2.02252">
        <ele>2.5</ele>
        <time>2020-06-23T08:58:40Z</time>
      </trkpt>
      <trkpt lat="50.98748" lon="2.02252">
        <ele>2.5</ele>
        <time>2020-06-23T08:58:41Z</time>
      </trkpt>
      <trkpt lat="50.98743" lon="2.02253">
        <ele>2.5</ele>
        <time>2020-06-23T08:58:42Z</time>
      </trkpt>
      <trkpt lat="50.98739" lon="2.02255">
        <ele>2.6</ele>
        <time>2020-06-23T08:58:43Z</time>
      </trkpt>
      <trkpt lat="50.98735" lon="2.02256">
        <ele>2.6</ele>
        <time>2020-06-23T08:58:44Z</time>
      </trkpt>
      <trkpt lat="50.98732" lon="2.02258">
        <ele>2.6</ele>
        <time>2020-06-23T08:58:45Z</time>
      </trkpt>
      <trkpt lat="50.98729" lon="2.02258">
        <ele>2.6</ele>
        <time>2020-06-23T08:58:46Z</time>
      </trkpt>
      <trkpt lat="50.98725" lon="2.02259">
        <ele>2.7</ele>
        <time>2020-06-23T08:58:47Z</time>
      </trkpt>
      <trkpt lat="50.98721" lon="2.0226">
        <ele>2.7</ele>
        <time>2020-06-23T08:58:48Z</time>
      </trkpt>
      <trkpt lat="50.98717" lon="2.0226">
        <ele>2.8</ele>
        <time>2020-06-23T08:58:49Z</time>
      </trkpt>
      <trkpt lat="50.98712" lon="2.0226">
        <ele>2.8</ele>
        <time>2020-06-23T08:58:50Z</time>
      </trkpt>
      <trkpt lat="50.98708" lon="2.0226">
        <ele>2.9</ele>
        <time>2020-06-23T08:58:51Z</time>
      </trkpt>
      <trkpt lat="50.98704" lon="2.0226">
        <ele>2.9</ele>
        <time>2020-06-23T08:58:52Z</time>
      </trkpt>
      <trkpt lat="50.98701" lon="2.02262">
        <ele>3</ele>
        <time>2020-06-23T08:58:53Z</time>
      </trkpt>
      <trkpt lat="50.98697" lon="2.02263">
        <ele>3</ele>
        <time>2020-06-23T08:58:54Z</time>
      </trkpt>
      <trkpt lat="50.98693" lon="2.02264">
        <ele>3.1</ele>
        <time>2020-06-23T08:58:55Z</time>
      </trkpt>
      <trkpt lat="50.9869" lon="2.02265">
        <ele>3</ele>
        <time>2020-06-23T08:58:56Z</time>
      </trkpt>
      <trkpt lat="50.98688" lon="2.0227">
        <ele>2.9</ele>
        <time>2020-06-23T08:58:57Z</time>
      </trkpt>
      <trkpt lat="50.98687" lon="2.02273">
        <ele>2.9</ele>
        <time>2020-06-23T08:58:58Z</time>
      </trkpt>
      <trkpt lat="50.98686" lon="2.02279">
        <ele>2.8</ele>
        <time>2020-06-23T08:58:59Z</time>
      </trkpt>
      <trkpt lat="50.98686" lon="2.02284">
        <ele>2.7</ele>
        <time>2020-06-23T08:59:00Z</time>
      </trkpt>
      <trkpt lat="50.98686" lon="2.02289">
        <ele>2.7</ele>
        <time>2020-06-23T08:59:01Z</time>
      </trkpt>
      <trkpt lat="50.98686" lon="2.02295">
        <ele>2.6</ele>
        <time>2020-06-23T08:59:02Z</time>
      </trkpt>
      <trkpt lat="50.98685" lon="2.023">
        <ele>2.6</ele>
        <time>2020-06-23T08:59:03Z</time>
      </trkpt>
      <trkpt lat="50.98684" lon="2.02306">
        <ele>2.5</ele>
        <time>2020-06-23T08:59:04Z</time>
      </trkpt>
      <trkpt lat="50.98683" lon="2.02313">
        <ele>2.5</ele>
        <time>2020-06-23T08:59:05Z</time>
      </trkpt>
      <trkpt lat="50.9868" lon="2.02319">
        <ele>2.5</ele>
        <time>2020-06-23T08:59:06Z</time>
      </trkpt>
      <trkpt lat="50.98678" lon="2.02326">
        <ele>2.5</ele>
        <time>2020-06-23T08:59:07Z</time>
      </trkpt>
      <trkpt lat="50.98677" lon="2.02334">
        <ele>2.5</ele>
        <time>2020-06-23T08:59:08Z</time>
      </trkpt>
      <trkpt lat="50.98676" lon="2.02342">
        <ele>2.5</ele>
        <time>2020-06-23T08:59:09Z</time>
      </trkpt>
      <trkpt lat="50.98675" lon="2.0235">
        <ele>2.5</ele>
        <time>2020-06-23T08:59:10Z</time>
      </trkpt>
      <trkpt lat="50.98674" lon="2.02358">
        <ele>2.5</ele>
        <time>2020-06-23T08:59:11Z</time>
      </trkpt>
      <trkpt lat="50.98673" lon="2.02367">
        <ele>2.5</ele>
        <time>2020-06-23T08:59:12Z</time>
      </trkpt>
      <trkpt lat="50.98673" lon="2.02375">
        <ele>2.5</ele>
        <time>2020-06-23T08:59:13Z</time>
      </trkpt>
      <trkpt lat="50.9867" lon="2.02384">
        <ele>2.5</ele>
        <time>2020-06-23T08:59:14Z</time>
      </trkpt>
      <trkpt lat="50.9867" lon="2.02394">
        <ele>2.6</ele>
        <time>2020-06-23T08:59:15Z</time>
      </trkpt>
      <trkpt lat="50.98669" lon="2.02401">
        <ele>2.6</ele>
        <time>2020-06-23T08:59:16Z</time>
      </trkpt>
      <trkpt lat="50.98669" lon="2.02409">
        <ele>2.6</ele>
        <time>2020-06-23T08:59:17Z</time>
      </trkpt>
      <trkpt lat="50.98669" lon="2.02417">
        <ele>2.6</ele>
        <time>2020-06-23T08:59:18Z</time>
      </trkpt>
      <trkpt lat="50.98668" lon="2.02425">
        <ele>2.6</ele>
        <time>2020-06-23T08:59:19Z</time>
      </trkpt>
      <trkpt lat="50.98668" lon="2.02433">
        <ele>2.6</ele>
        <time>2020-06-23T08:59:20Z</time>
      </trkpt>
      <trkpt lat="50.98667" lon="2.02442">
        <ele>2.6</ele>
        <time>2020-06-23T08:59:21Z</time>
      </trkpt>
      <trkpt lat="50.98666" lon="2.0245">
        <ele>2.6</ele>
        <time>2020-06-23T08:59:22Z</time>
      </trkpt>
      <trkpt lat="50.98666" lon="2.02459">
        <ele>2.6</ele>
        <time>2020-06-23T08:59:23Z</time>
      </trkpt>
      <trkpt lat="50.98665" lon="2.02467">
        <ele>2.5</ele>
        <time>2020-06-23T08:59:24Z</time>
      </trkpt>
      <trkpt lat="50.98664" lon="2.02476">
        <ele>2.5</ele>
        <time>2020-06-23T08:59:25Z</time>
      </trkpt>
      <trkpt lat="50.98663" lon="2.02484">
        <ele>2.5</ele>
        <time>2020-06-23T08:59:26Z</time>
      </trkpt>
      <trkpt lat="50.98663" lon="2.02494">
        <ele>2.5</ele>
        <time>2020-06-23T08:59:27Z</time>
      </trkpt>
      <trkpt lat="50.98661" lon="2.02502">
        <ele>2.5</ele>
        <time>2020-06-23T08:59:28Z</time>
      </trkpt>
      <trkpt lat="50.9866" lon="2.0251">
        <ele>2.5</ele>
        <time>2020-06-23T08:59:29Z</time>
      </trkpt>
      <trkpt lat="50.98659" lon="2.02519">
        <ele>2.5</ele>
        <time>2020-06-23T08:59:30Z</time>
      </trkpt>
      <trkpt lat="50.98658" lon="2.02527">
        <ele>2.5</ele>
        <time>2020-06-23T08:59:31Z</time>
      </trkpt>
      <trkpt lat="50.98657" lon="2.02534">
        <ele>2.5</ele>
        <time>2020-06-23T08:59:32Z</time>
      </trkpt>
      <trkpt lat="50.98655" lon="2.02542">
        <ele>2.5</ele>
        <time>2020-06-23T08:59:33Z</time>
      </trkpt>
      <trkpt lat="50.98654" lon="2.0255">
        <ele>2.5</ele>
        <time>2020-06-23T08:59:34Z</time>
      </trkpt>
      <trkpt lat="50.98652" lon="2.02558">
        <ele>2.5</ele>
        <time>2020-06-23T08:59:35Z</time>
      </trkpt>
      <trkpt lat="50.98652" lon="2.02566">
        <ele>2.6</ele>
        <time>2020-06-23T08:59:36Z</time>
      </trkpt>
      <trkpt lat="50.98651" lon="2.02575">
        <ele>2.6</ele>
        <time>2020-06-23T08:59:37Z</time>
      </trkpt>
      <trkpt lat="50.9865" lon="2.02583">
        <ele>2.6</ele>
        <time>2020-06-23T08:59:38Z</time>
      </trkpt>
      <trkpt lat="50.9865" lon="2.0259">
        <ele>2.6</ele>
        <time>2020-06-23T08:59:39Z</time>
      </trkpt>
      <trkpt lat="50.98649" lon="2.02598">
        <ele>2.7</ele>
        <time>2020-06-23T08:59:40Z</time>
      </trkpt>
      <trkpt lat="50.98648" lon="2.02605">
        <ele>2.7</ele>
        <time>2020-06-23T08:59:41Z</time>
      </trkpt>
      <trkpt lat="50.98647" lon="2.02614">
        <ele>2.7</ele>
        <time>2020-06-23T08:59:42Z</time>
      </trkpt>
      <trkpt lat="50.98646" lon="2.02622">
        <ele>2.7</ele>
        <time>2020-06-23T08:59:43Z</time>
      </trkpt>
      <trkpt lat="50.98645" lon="2.02631">
        <ele>2.8</ele>
        <time>2020-06-23T08:59:44Z</time>
      </trkpt>
      <trkpt lat="50.98644" lon="2.02641">
        <ele>2.9</ele>
        <time>2020-06-23T08:59:45Z</time>
      </trkpt>
      <trkpt lat="50.98644" lon="2.0265">
        <ele>2.9</ele>
        <time>2020-06-23T08:59:46Z</time>
      </trkpt>
      <trkpt lat="50.98643" lon="2.02658">
        <ele>3</ele>
        <time>2020-06-23T08:59:47Z</time>
      </trkpt>
      <trkpt lat="50.98642" lon="2.02667">
        <ele>3.1</ele>
        <time>2020-06-23T08:59:48Z</time>
      </trkpt>
      <trkpt lat="50.98642" lon="2.02674">
        <ele>3.2</ele>
        <time>2020-06-23T08:59:49Z</time>
      </trkpt>
      <trkpt lat="50.98643" lon="2.02682">
        <ele>3.2</ele>
        <time>2020-06-23T08:59:50Z</time>
      </trkpt>
      <trkpt lat="50.98644" lon="2.0269">
        <ele>3.2</ele>
        <time>2020-06-23T08:59:51Z</time>
      </trkpt>
      <trkpt lat="50.98645" lon="2.02698">
        <ele>3.2</ele>
        <time>2020-06-23T08:59:52Z</time>
      </trkpt>
      <trkpt lat="50.98646" lon="2.02707">
        <ele>3.2</ele>
        <time>2020-06-23T08:59:53Z</time>
      </trkpt>
      <trkpt lat="50.98647" lon="2.02715">
        <ele>3.2</ele>
        <time>2020-06-23T08:59:54Z</time>
      </trkpt>
      <trkpt lat="50.98648" lon="2.02724">
        <ele>3.2</ele>
        <time>2020-06-23T08:59:55Z</time>
      </trkpt>
      <trkpt lat="50.98648" lon="2.02732">
        <ele>3.2</ele>
        <time>2020-06-23T08:59:56Z</time>
      </trkpt>
      <trkpt lat="50.98648" lon="2.02741">
        <ele>3.3</ele>
        <time>2020-06-23T08:59:57Z</time>
      </trkpt>
      <trkpt lat="50.98649" lon="2.0275">
        <ele>3.3</ele>
        <time>2020-06-23T08:59:58Z</time>
      </trkpt>
      <trkpt lat="50.98649" lon="2.0276">
        <ele>3.3</ele>
        <time>2020-06-23T08:59:59Z</time>
      </trkpt>
      <trkpt lat="50.9865" lon="2.02769">
        <ele>3.3</ele>
        <time>2020-06-23T09:00:00Z</time>
      </trkpt>
      <trkpt lat="50.98652" lon="2.02778">
        <ele>3.3</ele>
        <time>2020-06-23T09:00:01Z</time>
      </trkpt>
      <trkpt lat="50.98653" lon="2.02787">
        <ele>3.4</ele>
        <time>2020-06-23T09:00:02Z</time>
      </trkpt>
      <trkpt lat="50.98654" lon="2.02797">
        <ele>3.4</ele>
        <time>2020-06-23T09:00:03Z</time>
      </trkpt>
      <trkpt lat="50.98655" lon="2.02806">
        <ele>3.5</ele>
        <time>2020-06-23T09:00:04Z</time>
      </trkpt>
      <trkpt lat="50.98655" lon="2.02815">
        <ele>3.5</ele>
        <time>2020-06-23T09:00:05Z</time>
      </trkpt>
      <trkpt lat="50.98656" lon="2.02825">
        <ele>3.5</ele>
        <time>2020-06-23T09:00:06Z</time>
      </trkpt>
      <trkpt lat="50.98657" lon="2.02834">
        <ele>3.6</ele>
        <time>2020-06-23T09:00:07Z</time>
      </trkpt>
      <trkpt lat="50.98657" lon="2.02843">
        <ele>3.6</ele>
        <time>2020-06-23T09:00:08Z</time>
      </trkpt>
      <trkpt lat="50.98658" lon="2.02851">
        <ele>3.6</ele>
        <time>2020-06-23T09:00:09Z</time>
      </trkpt>
      <trkpt lat="50.98659" lon="2.0286">
        <ele>3.6</ele>
        <time>2020-06-23T09:00:10Z</time>
      </trkpt>
      <trkpt lat="50.98659" lon="2.02869">
        <ele>3.6</ele>
        <time>2020-06-23T09:00:11Z</time>
      </trkpt>
      <trkpt lat="50.9866" lon="2.02877">
        <ele>3.6</ele>
        <time>2020-06-23T09:00:12Z</time>
      </trkpt>
      <trkpt lat="50.9866" lon="2.02886">
        <ele>3.7</ele>
        <time>2020-06-23T09:00:13Z</time>
      </trkpt>
      <trkpt lat="50.98661" lon="2.02895">
        <ele>3.7</ele>
        <time>2020-06-23T09:00:14Z</time>
      </trkpt>
      <trkpt lat="50.98661" lon="2.02904">
        <ele>3.7</ele>
        <time>2020-06-23T09:00:15Z</time>
      </trkpt>
      <trkpt lat="50.98662" lon="2.02912">
        <ele>3.7</ele>
        <time>2020-06-23T09:00:16Z</time>
      </trkpt>
      <trkpt lat="50.98663" lon="2.02921">
        <ele>3.7</ele>
        <time>2020-06-23T09:00:17Z</time>
      </trkpt>
      <trkpt lat="50.98663" lon="2.0293">
        <ele>3.7</ele>
        <time>2020-06-23T09:00:18Z</time>
      </trkpt>
      <trkpt lat="50.98664" lon="2.02938">
        <ele>3.7</ele>
        <time>2020-06-23T09:00:19Z</time>
      </trkpt>
      <trkpt lat="50.98665" lon="2.02947">
        <ele>3.7</ele>
        <time>2020-06-23T09:00:20Z</time>
      </trkpt>
      <trkpt lat="50.98666" lon="2.02956">
        <ele>3.7</ele>
        <time>2020-06-23T09:00:21Z</time>
      </trkpt>
      <trkpt lat="50.98667" lon="2.02964">
        <ele>3.7</ele>
        <time>2020-06-23T09:00:22Z</time>
      </trkpt>
      <trkpt lat="50.98668" lon="2.02974">
        <ele>3.7</ele>
        <time>2020-06-23T09:00:23Z</time>
      </trkpt>
      <trkpt lat="50.98668" lon="2.02983">
        <ele>3.7</ele>
        <time>2020-06-23T09:00:24Z</time>
      </trkpt>
      <trkpt lat="50.98668" lon="2.02993">
        <ele>3.7</ele>
        <time>2020-06-23T09:00:25Z</time>
      </trkpt>
      <trkpt lat="50.98668" lon="2.03003">
        <ele>3.7</ele>
        <time>2020-06-23T09:00:26Z</time>
      </trkpt>
      <trkpt lat="50.98669" lon="2.03012">
        <ele>3.7</ele>
        <time>2020-06-23T09:00:27Z</time>
      </trkpt>
      <trkpt lat="50.98669" lon="2.03022">
        <ele>3.7</ele>
        <time>2020-06-23T09:00:28Z</time>
      </trkpt>
      <trkpt lat="50.9867" lon="2.03031">
        <ele>3.6</ele>
        <time>2020-06-23T09:00:29Z</time>
      </trkpt>
      <trkpt lat="50.9867" lon="2.0304">
        <ele>3.6</ele>
        <time>2020-06-23T09:00:30Z</time>
      </trkpt>
      <trkpt lat="50.98671" lon="2.0305">
        <ele>3.6</ele>
        <time>2020-06-23T09:00:31Z</time>
      </trkpt>
      <trkpt lat="50.98673" lon="2.0306">
        <ele>3.6</ele>
        <time>2020-06-23T09:00:32Z</time>
      </trkpt>
      <trkpt lat="50.98674" lon="2.03069">
        <ele>3.5</ele>
        <time>2020-06-23T09:00:33Z</time>
      </trkpt>
      <trkpt lat="50.98676" lon="2.03079">
        <ele>3.5</ele>
        <time>2020-06-23T09:00:34Z</time>
      </trkpt>
      <trkpt lat="50.98677" lon="2.03087">
        <ele>3.5</ele>
        <time>2020-06-23T09:00:35Z</time>
      </trkpt>
      <trkpt lat="50.98679" lon="2.03096">
        <ele>3.5</ele>
        <time>2020-06-23T09:00:36Z</time>
      </trkpt>
      <trkpt lat="50.98681" lon="2.03106">
        <ele>3.5</ele>
        <time>2020-06-23T09:00:37Z</time>
      </trkpt>
      <trkpt lat="50.98682" lon="2.03116">
        <ele>3.4</ele>
        <time>2020-06-23T09:00:38Z</time>
      </trkpt>
      <trkpt lat="50.98684" lon="2.03126">
        <ele>3.4</ele>
        <time>2020-06-23T09:00:39Z</time>
      </trkpt>
      <trkpt lat="50.98686" lon="2.03136">
        <ele>3.3</ele>
        <time>2020-06-23T09:00:40Z</time>
      </trkpt>
      <trkpt lat="50.98688" lon="2.03145">
        <ele>3.3</ele>
        <time>2020-06-23T09:00:41Z</time>
      </trkpt>
      <trkpt lat="50.9869" lon="2.03154">
        <ele>3.3</ele>
        <time>2020-06-23T09:00:42Z</time>
      </trkpt>
      <trkpt lat="50.98691" lon="2.03163">
        <ele>3.2</ele>
        <time>2020-06-23T09:00:43Z</time>
      </trkpt>
      <trkpt lat="50.98692" lon="2.03171">
        <ele>3.2</ele>
        <time>2020-06-23T09:00:44Z</time>
      </trkpt>
      <trkpt lat="50.98694" lon="2.03179">
        <ele>3.2</ele>
        <time>2020-06-23T09:00:45Z</time>
      </trkpt>
      <trkpt lat="50.98696" lon="2.03189">
        <ele>3.1</ele>
        <time>2020-06-23T09:00:46Z</time>
      </trkpt>
      <trkpt lat="50.98698" lon="2.03197">
        <ele>3.1</ele>
        <time>2020-06-23T09:00:47Z</time>
      </trkpt>
      <trkpt lat="50.987" lon="2.03207">
        <ele>3.1</ele>
        <time>2020-06-23T09:00:48Z</time>
      </trkpt>
      <trkpt lat="50.98701" lon="2.03215">
        <ele>3</ele>
        <time>2020-06-23T09:00:49Z</time>
      </trkpt>
      <trkpt lat="50.98703" lon="2.03224">
        <ele>3</ele>
        <time>2020-06-23T09:00:50Z</time>
      </trkpt>
      <trkpt lat="50.98706" lon="2.03234">
        <ele>3</ele>
        <time>2020-06-23T09:00:51Z</time>
      </trkpt>
      <trkpt lat="50.98707" lon="2.03243">
        <ele>2.9</ele>
        <time>2020-06-23T09:00:52Z</time>
      </trkpt>
      <trkpt lat="50.98709" lon="2.03252">
        <ele>2.9</ele>
        <time>2020-06-23T09:00:53Z</time>
      </trkpt>
      <trkpt lat="50.9871" lon="2.03262">
        <ele>2.9</ele>
        <time>2020-06-23T09:00:54Z</time>
      </trkpt>
      <trkpt lat="50.98712" lon="2.03271">
        <ele>2.9</ele>
        <time>2020-06-23T09:00:55Z</time>
      </trkpt>
      <trkpt lat="50.98714" lon="2.03281">
        <ele>2.9</ele>
        <time>2020-06-23T09:00:56Z</time>
      </trkpt>
      <trkpt lat="50.98716" lon="2.03289">
        <ele>2.9</ele>
        <time>2020-06-23T09:00:57Z</time>
      </trkpt>
      <trkpt lat="50.98718" lon="2.03298">
        <ele>2.9</ele>
        <time>2020-06-23T09:00:58Z</time>
      </trkpt>
      <trkpt lat="50.9872" lon="2.03306">
        <ele>2.9</ele>
        <time>2020-06-23T09:00:59Z</time>
      </trkpt>
      <trkpt lat="50.98722" lon="2.03315">
        <ele>2.9</ele>
        <time>2020-06-23T09:01:00Z</time>
      </trkpt>
      <trkpt lat="50.98724" lon="2.03324">
        <ele>2.9</ele>
        <time>2020-06-23T09:01:01Z</time>
      </trkpt>
      <trkpt lat="50.98726" lon="2.03334">
        <ele>2.9</ele>
        <time>2020-06-23T09:01:02Z</time>
      </trkpt>
      <trkpt lat="50.98727" lon="2.03344">
        <ele>2.9</ele>
        <time>2020-06-23T09:01:03Z</time>
      </trkpt>
      <trkpt lat="50.98729" lon="2.03353">
        <ele>2.9</ele>
        <time>2020-06-23T09:01:04Z</time>
      </trkpt>
      <trkpt lat="50.9873" lon="2.03363">
        <ele>2.9</ele>
        <time>2020-06-23T09:01:05Z</time>
      </trkpt>
      <trkpt lat="50.9873" lon="2.03371">
        <ele>2.9</ele>
        <time>2020-06-23T09:01:06Z</time>
      </trkpt>
      <trkpt lat="50.98731" lon="2.03381">
        <ele>3</ele>
        <time>2020-06-23T09:01:07Z</time>
      </trkpt>
      <trkpt lat="50.98731" lon="2.0339">
        <ele>3</ele>
        <time>2020-06-23T09:01:08Z</time>
      </trkpt>
      <trkpt lat="50.98732" lon="2.03399">
        <ele>3</ele>
        <time>2020-06-23T09:01:09Z</time>
      </trkpt>
      <trkpt lat="50.98732" lon="2.03409">
        <ele>3</ele>
        <time>2020-06-23T09:01:10Z</time>
      </trkpt>
      <trkpt lat="50.98733" lon="2.03419">
        <ele>3</ele>
        <time>2020-06-23T09:01:11Z</time>
      </trkpt>
      <trkpt lat="50.98732" lon="2.03429">
        <ele>3</ele>
        <time>2020-06-23T09:01:12Z</time>
      </trkpt>
      <trkpt lat="50.98732" lon="2.03439">
        <ele>3</ele>
        <time>2020-06-23T09:01:13Z</time>
      </trkpt>
      <trkpt lat="50.98732" lon="2.03449">
        <ele>3</ele>
        <time>2020-06-23T09:01:14Z</time>
      </trkpt>
      <trkpt lat="50.98732" lon="2.03459">
        <ele>3.1</ele>
        <time>2020-06-23T09:01:15Z</time>
      </trkpt>
      <trkpt lat="50.98732" lon="2.03468">
        <ele>3.1</ele>
        <time>2020-06-23T09:01:16Z</time>
      </trkpt>
      <trkpt lat="50.98733" lon="2.03477">
        <ele>3.2</ele>
        <time>2020-06-23T09:01:17Z</time>
      </trkpt>
      <trkpt lat="50.98734" lon="2.03486">
        <ele>3.2</ele>
        <time>2020-06-23T09:01:18Z</time>
      </trkpt>
      <trkpt lat="50.98733" lon="2.03495">
        <ele>3.4</ele>
        <time>2020-06-23T09:01:19Z</time>
      </trkpt>
      <trkpt lat="50.98733" lon="2.03504">
        <ele>3.2</ele>
        <time>2020-06-23T09:01:20Z</time>
      </trkpt>
      <trkpt lat="50.98734" lon="2.03514">
        <ele>3.1</ele>
        <time>2020-06-23T09:01:21Z</time>
      </trkpt>
      <trkpt lat="50.98734" lon="2.03524">
        <ele>3</ele>
        <time>2020-06-23T09:01:22Z</time>
      </trkpt>
      <trkpt lat="50.98733" lon="2.03534">
        <ele>3</ele>
        <time>2020-06-23T09:01:23Z</time>
      </trkpt>
      <trkpt lat="50.98733" lon="2.03543">
        <ele>2.9</ele>
        <time>2020-06-23T09:01:24Z</time>
      </trkpt>
      <trkpt lat="50.98733" lon="2.03553">
        <ele>2.9</ele>
        <time>2020-06-23T09:01:25Z</time>
      </trkpt>
      <trkpt lat="50.98733" lon="2.03561">
        <ele>2.9</ele>
        <time>2020-06-23T09:01:26Z</time>
      </trkpt>
      <trkpt lat="50.98733" lon="2.0357">
        <ele>2.9</ele>
        <time>2020-06-23T09:01:27Z</time>
      </trkpt>
      <trkpt lat="50.98733" lon="2.0358">
        <ele>2.9</ele>
        <time>2020-06-23T09:01:28Z</time>
      </trkpt>
      <trkpt lat="50.98733" lon="2.0359">
        <ele>2.9</ele>
        <time>2020-06-23T09:01:29Z</time>
      </trkpt>
      <trkpt lat="50.98732" lon="2.03598">
        <ele>3</ele>
        <time>2020-06-23T09:01:30Z</time>
      </trkpt>
      <trkpt lat="50.98732" lon="2.03606">
        <ele>3</ele>
        <time>2020-06-23T09:01:31Z</time>
      </trkpt>
      <trkpt lat="50.98732" lon="2.03614">
        <ele>3</ele>
        <time>2020-06-23T09:01:32Z</time>
      </trkpt>
      <trkpt lat="50.98732" lon="2.03621">
        <ele>3</ele>
        <time>2020-06-23T09:01:33Z</time>
      </trkpt>
      <trkpt lat="50.98732" lon="2.03631">
        <ele>3</ele>
        <time>2020-06-23T09:01:34Z</time>
      </trkpt>
      <trkpt lat="50.98731" lon="2.03638">
        <ele>3</ele>
        <time>2020-06-23T09:01:35Z</time>
      </trkpt>
      <trkpt lat="50.98732" lon="2.03646">
        <ele>3.1</ele>
        <time>2020-06-23T09:01:36Z</time>
      </trkpt>
      <trkpt lat="50.98732" lon="2.03653">
        <ele>3.1</ele>
        <time>2020-06-23T09:01:37Z</time>
      </trkpt>
      <trkpt lat="50.98733" lon="2.0366">
        <ele>3.1</ele>
        <time>2020-06-23T09:01:38Z</time>
      </trkpt>
      <trkpt lat="50.98733" lon="2.03668">
        <ele>3.1</ele>
        <time>2020-06-23T09:01:39Z</time>
      </trkpt>
      <trkpt lat="50.98733" lon="2.03677">
        <ele>3.1</ele>
        <time>2020-06-23T09:01:40Z</time>
      </trkpt>
      <trkpt lat="50.98734" lon="2.03685">
        <ele>3.1</ele>
        <time>2020-06-23T09:01:41Z</time>
      </trkpt>
      <trkpt lat="50.98734" lon="2.03694">
        <ele>3.2</ele>
        <time>2020-06-23T09:01:42Z</time>
      </trkpt>
      <trkpt lat="50.98734" lon="2.03702">
        <ele>3.2</ele>
        <time>2020-06-23T09:01:43Z</time>
      </trkpt>
      <trkpt lat="50.98734" lon="2.0371">
        <ele>3.2</ele>
        <time>2020-06-23T09:01:44Z</time>
      </trkpt>
      <trkpt lat="50.98734" lon="2.03716">
        <ele>3.2</ele>
        <time>2020-06-23T09:01:45Z</time>
      </trkpt>
      <trkpt lat="50.98735" lon="2.03724">
        <ele>3.2</ele>
        <time>2020-06-23T09:01:46Z</time>
      </trkpt>
      <trkpt lat="50.98736" lon="2.03731">
        <ele>3</ele>
        <time>2020-06-23T09:01:47Z</time>
      </trkpt>
      <trkpt lat="50.98737" lon="2.03739">
        <ele>2.9</ele>
        <time>2020-06-23T09:01:48Z</time>
      </trkpt>
      <trkpt lat="50.98738" lon="2.03746">
        <ele>2.8</ele>
        <time>2020-06-23T09:01:49Z</time>
      </trkpt>
      <trkpt lat="50.98738" lon="2.0376">
        <ele>2.7</ele>
        <time>2020-06-23T09:01:50Z</time>
      </trkpt>
      <trkpt lat="50.9874" lon="2.0377">
        <ele>2.7</ele>
        <time>2020-06-23T09:01:51Z</time>
      </trkpt>
      <trkpt lat="50.98741" lon="2.03779">
        <ele>2.6</ele>
        <time>2020-06-23T09:01:52Z</time>
      </trkpt>
      <trkpt lat="50.98743" lon="2.0379">
        <ele>2.6</ele>
        <time>2020-06-23T09:01:53Z</time>
      </trkpt>
      <trkpt lat="50.98743" lon="2.038">
        <ele>2.6</ele>
        <time>2020-06-23T09:01:54Z</time>
      </trkpt>
      <trkpt lat="50.98744" lon="2.0381">
        <ele>2.6</ele>
        <time>2020-06-23T09:01:55Z</time>
      </trkpt>
      <trkpt lat="50.98746" lon="2.03821">
        <ele>2.5</ele>
        <time>2020-06-23T09:01:56Z</time>
      </trkpt>
      <trkpt lat="50.98747" lon="2.0383">
        <ele>2.5</ele>
        <time>2020-06-23T09:01:57Z</time>
      </trkpt>
      <trkpt lat="50.98749" lon="2.03838">
        <ele>2.5</ele>
        <time>2020-06-23T09:01:58Z</time>
      </trkpt>
      <trkpt lat="50.9875" lon="2.03847">
        <ele>2.5</ele>
        <time>2020-06-23T09:01:59Z</time>
      </trkpt>
      <trkpt lat="50.9875" lon="2.03853">
        <ele>2.5</ele>
        <time>2020-06-23T09:02:00Z</time>
      </trkpt>
      <trkpt lat="50.98752" lon="2.03861">
        <ele>2.5</ele>
        <time>2020-06-23T09:02:01Z</time>
      </trkpt>
      <trkpt lat="50.98752" lon="2.0387">
        <ele>2.5</ele>
        <time>2020-06-23T09:02:02Z</time>
      </trkpt>
      <trkpt lat="50.98753" lon="2.03879">
        <ele>2.5</ele>
        <time>2020-06-23T09:02:03Z</time>
      </trkpt>
      <trkpt lat="50.98753" lon="2.03887">
        <ele>2.6</ele>
        <time>2020-06-23T09:02:04Z</time>
      </trkpt>
      <trkpt lat="50.98753" lon="2.03896">
        <ele>2.7</ele>
        <time>2020-06-23T09:02:05Z</time>
      </trkpt>
      <trkpt lat="50.98753" lon="2.03904">
        <ele>2.8</ele>
        <time>2020-06-23T09:02:06Z</time>
      </trkpt>
      <trkpt lat="50.98753" lon="2.03913">
        <ele>2.8</ele>
        <time>2020-06-23T09:02:07Z</time>
      </trkpt>
      <trkpt lat="50.98752" lon="2.03921">
        <ele>2.7</ele>
        <time>2020-06-23T09:02:08Z</time>
      </trkpt>
      <trkpt lat="50.9875" lon="2.03931">
        <ele>2.7</ele>
        <time>2020-06-23T09:02:09Z</time>
      </trkpt>
      <trkpt lat="50.98748" lon="2.03939">
        <ele>2.7</ele>
        <time>2020-06-23T09:02:10Z</time>
      </trkpt>
      <trkpt lat="50.98746" lon="2.03947">
        <ele>2.7</ele>
        <time>2020-06-23T09:02:11Z</time>
      </trkpt>
      <trkpt lat="50.98745" lon="2.03953">
        <ele>2.7</ele>
        <time>2020-06-23T09:02:12Z</time>
      </trkpt>
      <trkpt lat="50.98743" lon="2.0396">
        <ele>2.7</ele>
        <time>2020-06-23T09:02:13Z</time>
      </trkpt>
      <trkpt lat="50.9874" lon="2.03968">
        <ele>2.7</ele>
        <time>2020-06-23T09:02:14Z</time>
      </trkpt>
      <trkpt lat="50.98739" lon="2.03975">
        <ele>2.8</ele>
        <time>2020-06-23T09:02:15Z</time>
      </trkpt>
      <trkpt lat="50.98739" lon="2.03984">
        <ele>2.8</ele>
        <time>2020-06-23T09:02:16Z</time>
      </trkpt>
      <trkpt lat="50.98738" lon="2.03992">
        <ele>2.8</ele>
        <time>2020-06-23T09:02:17Z</time>
      </trkpt>
      <trkpt lat="50.98738" lon="2.04001">
        <ele>2.8</ele>
        <time>2020-06-23T09:02:18Z</time>
      </trkpt>
      <trkpt lat="50.98738" lon="2.04009">
        <ele>2.8</ele>
        <time>2020-06-23T09:02:19Z</time>
      </trkpt>
      <trkpt lat="50.98738" lon="2.04017">
        <ele>2.9</ele>
        <time>2020-06-23T09:02:20Z</time>
      </trkpt>
      <trkpt lat="50.98737" lon="2.04024">
        <ele>2.9</ele>
        <time>2020-06-23T09:02:21Z</time>
      </trkpt>
      <trkpt lat="50.98737" lon="2.04032">
        <ele>2.9</ele>
        <time>2020-06-23T09:02:22Z</time>
      </trkpt>
      <trkpt lat="50.98737" lon="2.0404">
        <ele>2.9</ele>
        <time>2020-06-23T09:02:23Z</time>
      </trkpt>
      <trkpt lat="50.98738" lon="2.04049">
        <ele>2.9</ele>
        <time>2020-06-23T09:02:24Z</time>
      </trkpt>
      <trkpt lat="50.98738" lon="2.04056">
        <ele>2.9</ele>
        <time>2020-06-23T09:02:25Z</time>
      </trkpt>
      <trkpt lat="50.98738" lon="2.04064">
        <ele>2.9</ele>
        <time>2020-06-23T09:02:26Z</time>
      </trkpt>
      <trkpt lat="50.98737" lon="2.04072">
        <ele>2.9</ele>
        <time>2020-06-23T09:02:27Z</time>
      </trkpt>
      <trkpt lat="50.98737" lon="2.04079">
        <ele>2.9</ele>
        <time>2020-06-23T09:02:28Z</time>
      </trkpt>
      <trkpt lat="50.98738" lon="2.04087">
        <ele>2.9</ele>
        <time>2020-06-23T09:02:29Z</time>
      </trkpt>
      <trkpt lat="50.98737" lon="2.04095">
        <ele>2.9</ele>
        <time>2020-06-23T09:02:30Z</time>
      </trkpt>
      <trkpt lat="50.98737" lon="2.04105">
        <ele>2.9</ele>
        <time>2020-06-23T09:02:31Z</time>
      </trkpt>
      <trkpt lat="50.98737" lon="2.04114">
        <ele>2.9</ele>
        <time>2020-06-23T09:02:32Z</time>
      </trkpt>
      <trkpt lat="50.98736" lon="2.04124">
        <ele>2.9</ele>
        <time>2020-06-23T09:02:33Z</time>
      </trkpt>
      <trkpt lat="50.98737" lon="2.04133">
        <ele>3</ele>
        <time>2020-06-23T09:02:34Z</time>
      </trkpt>
      <trkpt lat="50.98738" lon="2.04143">
        <ele>3</ele>
        <time>2020-06-23T09:02:35Z</time>
      </trkpt>
      <trkpt lat="50.98738" lon="2.04153">
        <ele>3.1</ele>
        <time>2020-06-23T09:02:36Z</time>
      </trkpt>
      <trkpt lat="50.98737" lon="2.04162">
        <ele>3.1</ele>
        <time>2020-06-23T09:02:37Z</time>
      </trkpt>
      <trkpt lat="50.98737" lon="2.04171">
        <ele>3.1</ele>
        <time>2020-06-23T09:02:38Z</time>
      </trkpt>
      <trkpt lat="50.98737" lon="2.04183">
        <ele>3.1</ele>
        <time>2020-06-23T09:02:39Z</time>
      </trkpt>
      <trkpt lat="50.98737" lon="2.04193">
        <ele>3.1</ele>
        <time>2020-06-23T09:02:40Z</time>
      </trkpt>
      <trkpt lat="50.98736" lon="2.04203">
        <ele>3.1</ele>
        <time>2020-06-23T09:02:41Z</time>
      </trkpt>
      <trkpt lat="50.98736" lon="2.04212">
        <ele>3.2</ele>
        <time>2020-06-23T09:02:42Z</time>
      </trkpt>
      <trkpt lat="50.98736" lon="2.0422">
        <ele>3.2</ele>
        <time>2020-06-23T09:02:43Z</time>
      </trkpt>
      <trkpt lat="50.98737" lon="2.04229">
        <ele>3.2</ele>
        <time>2020-06-23T09:02:44Z</time>
      </trkpt>
      <trkpt lat="50.98737" lon="2.04236">
        <ele>3.2</ele>
        <time>2020-06-23T09:02:45Z</time>
      </trkpt>
      <trkpt lat="50.98737" lon="2.04244">
        <ele>3.2</ele>
        <time>2020-06-23T09:02:46Z</time>
      </trkpt>
      <trkpt lat="50.98736" lon="2.04252">
        <ele>3.2</ele>
        <time>2020-06-23T09:02:47Z</time>
      </trkpt>
      <trkpt lat="50.98737" lon="2.04263">
        <ele>3.2</ele>
        <time>2020-06-23T09:02:48Z</time>
      </trkpt>
      <trkpt lat="50.98736" lon="2.04271">
        <ele>3.2</ele>
        <time>2020-06-23T09:02:49Z</time>
      </trkpt>
      <trkpt lat="50.98736" lon="2.04279">
        <ele>3.2</ele>
        <time>2020-06-23T09:02:50Z</time>
      </trkpt>
      <trkpt lat="50.98735" lon="2.04286">
        <ele>3.3</ele>
        <time>2020-06-23T09:02:51Z</time>
      </trkpt>
      <trkpt lat="50.98735" lon="2.04294">
        <ele>3.3</ele>
        <time>2020-06-23T09:02:52Z</time>
      </trkpt>
      <trkpt lat="50.98734" lon="2.04301">
        <ele>3.3</ele>
        <time>2020-06-23T09:02:53Z</time>
      </trkpt>
      <trkpt lat="50.98734" lon="2.0431">
        <ele>3.3</ele>
        <time>2020-06-23T09:02:54Z</time>
      </trkpt>
      <trkpt lat="50.98734" lon="2.04319">
        <ele>3.3</ele>
        <time>2020-06-23T09:02:55Z</time>
      </trkpt>
      <trkpt lat="50.98735" lon="2.0433">
        <ele>3.3</ele>
        <time>2020-06-23T09:02:56Z</time>
      </trkpt>
      <trkpt lat="50.98735" lon="2.04341">
        <ele>3.3</ele>
        <time>2020-06-23T09:02:57Z</time>
      </trkpt>
      <trkpt lat="50.98735" lon="2.0435">
        <ele>3.2</ele>
        <time>2020-06-23T09:02:58Z</time>
      </trkpt>
      <trkpt lat="50.98735" lon="2.04359">
        <ele>3.2</ele>
        <time>2020-06-23T09:02:59Z</time>
      </trkpt>
      <trkpt lat="50.98736" lon="2.04369">
        <ele>3.2</ele>
        <time>2020-06-23T09:03:00Z</time>
      </trkpt>
      <trkpt lat="50.98736" lon="2.0438">
        <ele>3.3</ele>
        <time>2020-06-23T09:03:01Z</time>
      </trkpt>
      <trkpt lat="50.98736" lon="2.04391">
        <ele>3.3</ele>
        <time>2020-06-23T09:03:02Z</time>
      </trkpt>
      <trkpt lat="50.98735" lon="2.04401">
        <ele>3.3</ele>
        <time>2020-06-23T09:03:03Z</time>
      </trkpt>
      <trkpt lat="50.98735" lon="2.04412">
        <ele>3.2</ele>
        <time>2020-06-23T09:03:04Z</time>
      </trkpt>
      <trkpt lat="50.98735" lon="2.04422">
        <ele>3.2</ele>
        <time>2020-06-23T09:03:05Z</time>
      </trkpt>
      <trkpt lat="50.98734" lon="2.04432">
        <ele>3.2</ele>
        <time>2020-06-23T09:03:06Z</time>
      </trkpt>
      <trkpt lat="50.98734" lon="2.04445">
        <ele>3.2</ele>
        <time>2020-06-23T09:03:07Z</time>
      </trkpt>
      <trkpt lat="50.98734" lon="2.04458">
        <ele>3.2</ele>
        <time>2020-06-23T09:03:08Z</time>
      </trkpt>
      <trkpt lat="50.98734" lon="2.04469">
        <ele>3.2</ele>
        <time>2020-06-23T09:03:09Z</time>
      </trkpt>
      <trkpt lat="50.98734" lon="2.0448">
        <ele>3.2</ele>
        <time>2020-06-23T09:03:10Z</time>
      </trkpt>
      <trkpt lat="50.98734" lon="2.04491">
        <ele>3.2</ele>
        <time>2020-06-23T09:03:11Z</time>
      </trkpt>
      <trkpt lat="50.98734" lon="2.045">
        <ele>3.2</ele>
        <time>2020-06-23T09:03:12Z</time>
      </trkpt>
      <trkpt lat="50.98734" lon="2.04509">
        <ele>3.2</ele>
        <time>2020-06-23T09:03:13Z</time>
      </trkpt>
      <trkpt lat="50.98734" lon="2.04517">
        <ele>3.2</ele>
        <time>2020-06-23T09:03:14Z</time>
      </trkpt>
      <trkpt lat="50.98734" lon="2.04525">
        <ele>3.3</ele>
        <time>2020-06-23T09:03:15Z</time>
      </trkpt>
      <trkpt lat="50.98735" lon="2.04535">
        <ele>3.3</ele>
        <time>2020-06-23T09:03:16Z</time>
      </trkpt>
      <trkpt lat="50.98735" lon="2.04543">
        <ele>3.3</ele>
        <time>2020-06-23T09:03:17Z</time>
      </trkpt>
      <trkpt lat="50.98735" lon="2.04553">
        <ele>3.3</ele>
        <time>2020-06-23T09:03:18Z</time>
      </trkpt>
      <trkpt lat="50.98734" lon="2.0456">
        <ele>3.3</ele>
        <time>2020-06-23T09:03:19Z</time>
      </trkpt>
      <trkpt lat="50.98733" lon="2.04569">
        <ele>3.2</ele>
        <time>2020-06-23T09:03:20Z</time>
      </trkpt>
      <trkpt lat="50.98733" lon="2.04579">
        <ele>3.2</ele>
        <time>2020-06-23T09:03:21Z</time>
      </trkpt>
      <trkpt lat="50.98733" lon="2.04587">
        <ele>3.2</ele>
        <time>2020-06-23T09:03:22Z</time>
      </trkpt>
      <trkpt lat="50.98733" lon="2.04597">
        <ele>3.2</ele>
        <time>2020-06-23T09:03:23Z</time>
      </trkpt>
      <trkpt lat="50.98733" lon="2.04605">
        <ele>3.2</ele>
        <time>2020-06-23T09:03:24Z</time>
      </trkpt>
      <trkpt lat="50.98733" lon="2.0461">
        <ele>3.2</ele>
        <time>2020-06-23T09:03:25Z</time>
      </trkpt>
      <trkpt lat="50.98733" lon="2.04616">
        <ele>3.2</ele>
        <time>2020-06-23T09:03:26Z</time>
      </trkpt>
      <trkpt lat="50.98733" lon="2.04625">
        <ele>3.2</ele>
        <time>2020-06-23T09:03:27Z</time>
      </trkpt>
      <trkpt lat="50.98733" lon="2.04633">
        <ele>3.2</ele>
        <time>2020-06-23T09:03:28Z</time>
      </trkpt>
      <trkpt lat="50.98733" lon="2.04643">
        <ele>3.2</ele>
        <time>2020-06-23T09:03:29Z</time>
      </trkpt>
      <trkpt lat="50.98732" lon="2.04653">
        <ele>3.2</ele>
        <time>2020-06-23T09:03:30Z</time>
      </trkpt>
      <trkpt lat="50.98731" lon="2.04662">
        <ele>3.2</ele>
        <time>2020-06-23T09:03:31Z</time>
      </trkpt>
      <trkpt lat="50.9873" lon="2.04671">
        <ele>3.2</ele>
        <time>2020-06-23T09:03:32Z</time>
      </trkpt>
      <trkpt lat="50.98729" lon="2.04679">
        <ele>3.2</ele>
        <time>2020-06-23T09:03:33Z</time>
      </trkpt>
      <trkpt lat="50.98729" lon="2.04687">
        <ele>3.2</ele>
        <time>2020-06-23T09:03:34Z</time>
      </trkpt>
      <trkpt lat="50.98728" lon="2.04696">
        <ele>3.2</ele>
        <time>2020-06-23T09:03:35Z</time>
      </trkpt>
      <trkpt lat="50.98729" lon="2.04706">
        <ele>3.2</ele>
        <time>2020-06-23T09:03:36Z</time>
      </trkpt>
      <trkpt lat="50.98728" lon="2.04715">
        <ele>3.3</ele>
        <time>2020-06-23T09:03:37Z</time>
      </trkpt>
      <trkpt lat="50.98728" lon="2.04727">
        <ele>3.3</ele>
        <time>2020-06-23T09:03:38Z</time>
      </trkpt>
      <trkpt lat="50.98728" lon="2.04738">
        <ele>3.3</ele>
        <time>2020-06-23T09:03:39Z</time>
      </trkpt>
      <trkpt lat="50.98728" lon="2.04747">
        <ele>3.3</ele>
        <time>2020-06-23T09:03:40Z</time>
      </trkpt>
      <trkpt lat="50.98728" lon="2.04757">
        <ele>3.3</ele>
        <time>2020-06-23T09:03:41Z</time>
      </trkpt>
      <trkpt lat="50.98729" lon="2.04767">
        <ele>3.3</ele>
        <time>2020-06-23T09:03:42Z</time>
      </trkpt>
      <trkpt lat="50.98729" lon="2.04775">
        <ele>3.3</ele>
        <time>2020-06-23T09:03:43Z</time>
      </trkpt>
      <trkpt lat="50.9873" lon="2.04786">
        <ele>3.3</ele>
        <time>2020-06-23T09:03:44Z</time>
      </trkpt>
      <trkpt lat="50.98729" lon="2.04794">
        <ele>3.2</ele>
        <time>2020-06-23T09:03:45Z</time>
      </trkpt>
      <trkpt lat="50.98729" lon="2.04805">
        <ele>3.2</ele>
        <time>2020-06-23T09:03:46Z</time>
      </trkpt>
      <trkpt lat="50.98729" lon="2.04816">
        <ele>3.1</ele>
        <time>2020-06-23T09:03:47Z</time>
      </trkpt>
      <trkpt lat="50.98729" lon="2.04827">
        <ele>3</ele>
        <time>2020-06-23T09:03:48Z</time>
      </trkpt>
      <trkpt lat="50.98728" lon="2.04837">
        <ele>3</ele>
        <time>2020-06-23T09:03:49Z</time>
      </trkpt>
      <trkpt lat="50.98728" lon="2.04847">
        <ele>2.9</ele>
        <time>2020-06-23T09:03:50Z</time>
      </trkpt>
      <trkpt lat="50.98727" lon="2.04857">
        <ele>2.9</ele>
        <time>2020-06-23T09:03:51Z</time>
      </trkpt>
      <trkpt lat="50.98727" lon="2.04867">
        <ele>2.9</ele>
        <time>2020-06-23T09:03:52Z</time>
      </trkpt>
      <trkpt lat="50.98728" lon="2.04875">
        <ele>2.9</ele>
        <time>2020-06-23T09:03:53Z</time>
      </trkpt>
      <trkpt lat="50.98728" lon="2.04886">
        <ele>2.9</ele>
        <time>2020-06-23T09:03:54Z</time>
      </trkpt>
      <trkpt lat="50.98728" lon="2.04894">
        <ele>2.9</ele>
        <time>2020-06-23T09:03:55Z</time>
      </trkpt>
      <trkpt lat="50.98728" lon="2.04902">
        <ele>2.9</ele>
        <time>2020-06-23T09:03:56Z</time>
      </trkpt>
      <trkpt lat="50.98728" lon="2.0491">
        <ele>2.9</ele>
        <time>2020-06-23T09:03:57Z</time>
      </trkpt>
      <trkpt lat="50.98728" lon="2.04919">
        <ele>2.9</ele>
        <time>2020-06-23T09:03:58Z</time>
      </trkpt>
      <trkpt lat="50.98728" lon="2.0493">
        <ele>2.9</ele>
        <time>2020-06-23T09:03:59Z</time>
      </trkpt>
      <trkpt lat="50.98728" lon="2.0494">
        <ele>2.9</ele>
        <time>2020-06-23T09:04:00Z</time>
      </trkpt>
      <trkpt lat="50.98728" lon="2.04951">
        <ele>2.9</ele>
        <time>2020-06-23T09:04:01Z</time>
      </trkpt>
      <trkpt lat="50.98728" lon="2.04962">
        <ele>2.9</ele>
        <time>2020-06-23T09:04:02Z</time>
      </trkpt>
      <trkpt lat="50.98728" lon="2.04971">
        <ele>2.9</ele>
        <time>2020-06-23T09:04:03Z</time>
      </trkpt>
      <trkpt lat="50.98727" lon="2.04982">
        <ele>2.9</ele>
        <time>2020-06-23T09:04:04Z</time>
      </trkpt>
      <trkpt lat="50.98727" lon="2.04991">
        <ele>2.8</ele>
        <time>2020-06-23T09:04:05Z</time>
      </trkpt>
      <trkpt lat="50.98727" lon="2.05003">
        <ele>2.8</ele>
        <time>2020-06-23T09:04:06Z</time>
      </trkpt>
      <trkpt lat="50.98727" lon="2.05014">
        <ele>2.8</ele>
        <time>2020-06-23T09:04:07Z</time>
      </trkpt>
      <trkpt lat="50.98727" lon="2.05025">
        <ele>2.8</ele>
        <time>2020-06-23T09:04:08Z</time>
      </trkpt>
      <trkpt lat="50.98727" lon="2.05036">
        <ele>2.9</ele>
        <time>2020-06-23T09:04:09Z</time>
      </trkpt>
      <trkpt lat="50.98727" lon="2.05046">
        <ele>2.9</ele>
        <time>2020-06-23T09:04:10Z</time>
      </trkpt>
      <trkpt lat="50.98727" lon="2.05056">
        <ele>2.9</ele>
        <time>2020-06-23T09:04:11Z</time>
      </trkpt>
      <trkpt lat="50.98726" lon="2.05067">
        <ele>2.9</ele>
        <time>2020-06-23T09:04:12Z</time>
      </trkpt>
      <trkpt lat="50.98725" lon="2.05079">
        <ele>2.9</ele>
        <time>2020-06-23T09:04:13Z</time>
      </trkpt>
      <trkpt lat="50.98725" lon="2.0509">
        <ele>2.9</ele>
        <time>2020-06-23T09:04:14Z</time>
      </trkpt>
      <trkpt lat="50.98724" lon="2.05101">
        <ele>2.9</ele>
        <time>2020-06-23T09:04:15Z</time>
      </trkpt>
      <trkpt lat="50.98723" lon="2.05111">
        <ele>2.9</ele>
        <time>2020-06-23T09:04:16Z</time>
      </trkpt>
      <trkpt lat="50.98723" lon="2.05122">
        <ele>2.8</ele>
        <time>2020-06-23T09:04:17Z</time>
      </trkpt>
      <trkpt lat="50.98722" lon="2.05134">
        <ele>2.8</ele>
        <time>2020-06-23T09:04:18Z</time>
      </trkpt>
      <trkpt lat="50.98722" lon="2.05145">
        <ele>2.8</ele>
        <time>2020-06-23T09:04:19Z</time>
      </trkpt>
      <trkpt lat="50.98721" lon="2.05156">
        <ele>2.8</ele>
        <time>2020-06-23T09:04:20Z</time>
      </trkpt>
      <trkpt lat="50.9872" lon="2.05166">
        <ele>2.8</ele>
        <time>2020-06-23T09:04:21Z</time>
      </trkpt>
      <trkpt lat="50.9872" lon="2.05175">
        <ele>2.9</ele>
        <time>2020-06-23T09:04:22Z</time>
      </trkpt>
      <trkpt lat="50.98721" lon="2.05184">
        <ele>2.9</ele>
        <time>2020-06-23T09:04:23Z</time>
      </trkpt>
      <trkpt lat="50.9872" lon="2.05194">
        <ele>2.9</ele>
        <time>2020-06-23T09:04:24Z</time>
      </trkpt>
      <trkpt lat="50.98719" lon="2.05204">
        <ele>2.9</ele>
        <time>2020-06-23T09:04:25Z</time>
      </trkpt>
      <trkpt lat="50.98719" lon="2.05214">
        <ele>2.9</ele>
        <time>2020-06-23T09:04:26Z</time>
      </trkpt>
      <trkpt lat="50.98718" lon="2.05224">
        <ele>2.9</ele>
        <time>2020-06-23T09:04:27Z</time>
      </trkpt>
      <trkpt lat="50.98718" lon="2.05234">
        <ele>2.9</ele>
        <time>2020-06-23T09:04:28Z</time>
      </trkpt>
      <trkpt lat="50.98719" lon="2.05247">
        <ele>2.8</ele>
        <time>2020-06-23T09:04:29Z</time>
      </trkpt>
      <trkpt lat="50.98719" lon="2.05258">
        <ele>2.8</ele>
        <time>2020-06-23T09:04:30Z</time>
      </trkpt>
      <trkpt lat="50.98719" lon="2.05268">
        <ele>2.8</ele>
        <time>2020-06-23T09:04:31Z</time>
      </trkpt>
      <trkpt lat="50.98719" lon="2.0528">
        <ele>2.8</ele>
        <time>2020-06-23T09:04:32Z</time>
      </trkpt>
      <trkpt lat="50.98718" lon="2.0529">
        <ele>2.7</ele>
        <time>2020-06-23T09:04:33Z</time>
      </trkpt>
      <trkpt lat="50.98717" lon="2.05299">
        <ele>2.7</ele>
        <time>2020-06-23T09:04:34Z</time>
      </trkpt>
      <trkpt lat="50.98717" lon="2.0531">
        <ele>2.7</ele>
        <time>2020-06-23T09:04:35Z</time>
      </trkpt>
      <trkpt lat="50.98716" lon="2.05321">
        <ele>2.7</ele>
        <time>2020-06-23T09:04:36Z</time>
      </trkpt>
      <trkpt lat="50.98716" lon="2.05331">
        <ele>2.7</ele>
        <time>2020-06-23T09:04:37Z</time>
      </trkpt>
      <trkpt lat="50.98716" lon="2.05341">
        <ele>2.7</ele>
        <time>2020-06-23T09:04:38Z</time>
      </trkpt>
      <trkpt lat="50.98715" lon="2.05352">
        <ele>2.7</ele>
        <time>2020-06-23T09:04:39Z</time>
      </trkpt>
      <trkpt lat="50.98715" lon="2.05363">
        <ele>2.7</ele>
        <time>2020-06-23T09:04:40Z</time>
      </trkpt>
      <trkpt lat="50.98714" lon="2.05373">
        <ele>2.6</ele>
        <time>2020-06-23T09:04:41Z</time>
      </trkpt>
      <trkpt lat="50.98714" lon="2.05383">
        <ele>2.6</ele>
        <time>2020-06-23T09:04:42Z</time>
      </trkpt>
      <trkpt lat="50.98714" lon="2.05394">
        <ele>2.6</ele>
        <time>2020-06-23T09:04:43Z</time>
      </trkpt>
      <trkpt lat="50.98714" lon="2.05405">
        <ele>2.6</ele>
        <time>2020-06-23T09:04:44Z</time>
      </trkpt>
      <trkpt lat="50.98714" lon="2.05416">
        <ele>2.6</ele>
        <time>2020-06-23T09:04:45Z</time>
      </trkpt>
      <trkpt lat="50.98714" lon="2.05427">
        <ele>2.6</ele>
        <time>2020-06-23T09:04:46Z</time>
      </trkpt>
      <trkpt lat="50.98714" lon="2.05438">
        <ele>2.6</ele>
        <time>2020-06-23T09:04:47Z</time>
      </trkpt>
      <trkpt lat="50.98714" lon="2.05448">
        <ele>2.6</ele>
        <time>2020-06-23T09:04:48Z</time>
      </trkpt>
      <trkpt lat="50.98714" lon="2.0546">
        <ele>2.6</ele>
        <time>2020-06-23T09:04:49Z</time>
      </trkpt>
      <trkpt lat="50.98714" lon="2.05469">
        <ele>2.6</ele>
        <time>2020-06-23T09:04:50Z</time>
      </trkpt>
      <trkpt lat="50.98714" lon="2.05477">
        <ele>2.6</ele>
        <time>2020-06-23T09:04:51Z</time>
      </trkpt>
      <trkpt lat="50.98713" lon="2.05488">
        <ele>2.6</ele>
        <time>2020-06-23T09:04:52Z</time>
      </trkpt>
      <trkpt lat="50.98713" lon="2.05499">
        <ele>2.6</ele>
        <time>2020-06-23T09:04:53Z</time>
      </trkpt>
      <trkpt lat="50.98713" lon="2.05509">
        <ele>2.6</ele>
        <time>2020-06-23T09:04:54Z</time>
      </trkpt>
      <trkpt lat="50.98713" lon="2.0552">
        <ele>2.6</ele>
        <time>2020-06-23T09:04:55Z</time>
      </trkpt>
      <trkpt lat="50.98712" lon="2.0553">
        <ele>2.6</ele>
        <time>2020-06-23T09:04:56Z</time>
      </trkpt>
      <trkpt lat="50.98712" lon="2.05542">
        <ele>2.6</ele>
        <time>2020-06-23T09:04:57Z</time>
      </trkpt>
      <trkpt lat="50.98712" lon="2.05552">
        <ele>2.6</ele>
        <time>2020-06-23T09:04:58Z</time>
      </trkpt>
      <trkpt lat="50.98712" lon="2.05563">
        <ele>2.6</ele>
        <time>2020-06-23T09:04:59Z</time>
      </trkpt>
      <trkpt lat="50.98712" lon="2.0557">
        <ele>2.6</ele>
        <time>2020-06-23T09:05:00Z</time>
      </trkpt>
      <trkpt lat="50.98711" lon="2.05578">
        <ele>2.5</ele>
        <time>2020-06-23T09:05:01Z</time>
      </trkpt>
      <trkpt lat="50.9871" lon="2.0559">
        <ele>2.5</ele>
        <time>2020-06-23T09:05:02Z</time>
      </trkpt>
      <trkpt lat="50.9871" lon="2.05599">
        <ele>2.5</ele>
        <time>2020-06-23T09:05:03Z</time>
      </trkpt>
      <trkpt lat="50.98709" lon="2.0561">
        <ele>2.5</ele>
        <time>2020-06-23T09:05:04Z</time>
      </trkpt>
      <trkpt lat="50.98708" lon="2.05623">
        <ele>2.5</ele>
        <time>2020-06-23T09:05:05Z</time>
      </trkpt>
      <trkpt lat="50.98707" lon="2.05631">
        <ele>2.6</ele>
        <time>2020-06-23T09:05:06Z</time>
      </trkpt>
      <trkpt lat="50.98707" lon="2.05641">
        <ele>2.6</ele>
        <time>2020-06-23T09:05:07Z</time>
      </trkpt>
      <trkpt lat="50.98705" lon="2.05652">
        <ele>2.6</ele>
        <time>2020-06-23T09:05:08Z</time>
      </trkpt>
      <trkpt lat="50.98704" lon="2.05663">
        <ele>2.6</ele>
        <time>2020-06-23T09:05:09Z</time>
      </trkpt>
      <trkpt lat="50.98703" lon="2.05674">
        <ele>2.6</ele>
        <time>2020-06-23T09:05:10Z</time>
      </trkpt>
      <trkpt lat="50.98702" lon="2.05684">
        <ele>2.7</ele>
        <time>2020-06-23T09:05:11Z</time>
      </trkpt>
      <trkpt lat="50.98701" lon="2.05694">
        <ele>2.7</ele>
        <time>2020-06-23T09:05:12Z</time>
      </trkpt>
      <trkpt lat="50.987" lon="2.05704">
        <ele>2.7</ele>
        <time>2020-06-23T09:05:13Z</time>
      </trkpt>
      <trkpt lat="50.98699" lon="2.05713">
        <ele>2.8</ele>
        <time>2020-06-23T09:05:14Z</time>
      </trkpt>
      <trkpt lat="50.98698" lon="2.05724">
        <ele>2.9</ele>
        <time>2020-06-23T09:05:15Z</time>
      </trkpt>
      <trkpt lat="50.98696" lon="2.05734">
        <ele>2.7</ele>
        <time>2020-06-23T09:05:16Z</time>
      </trkpt>
      <trkpt lat="50.98695" lon="2.05744">
        <ele>2.6</ele>
        <time>2020-06-23T09:05:17Z</time>
      </trkpt>
      <trkpt lat="50.98694" lon="2.05753">
        <ele>2.5</ele>
        <time>2020-06-23T09:05:18Z</time>
      </trkpt>
      <trkpt lat="50.98693" lon="2.05764">
        <ele>2.5</ele>
        <time>2020-06-23T09:05:19Z</time>
      </trkpt>
      <trkpt lat="50.98692" lon="2.05773">
        <ele>2.5</ele>
        <time>2020-06-23T09:05:20Z</time>
      </trkpt>
      <trkpt lat="50.98691" lon="2.05783">
        <ele>2.5</ele>
        <time>2020-06-23T09:05:21Z</time>
      </trkpt>
      <trkpt lat="50.9869" lon="2.05792">
        <ele>2.5</ele>
        <time>2020-06-23T09:05:22Z</time>
      </trkpt>
      <trkpt lat="50.9869" lon="2.05802">
        <ele>2.6</ele>
        <time>2020-06-23T09:05:23Z</time>
      </trkpt>
      <trkpt lat="50.9869" lon="2.05813">
        <ele>2.6</ele>
        <time>2020-06-23T09:05:24Z</time>
      </trkpt>
      <trkpt lat="50.9869" lon="2.05825">
        <ele>2.6</ele>
        <time>2020-06-23T09:05:25Z</time>
      </trkpt>
      <trkpt lat="50.9869" lon="2.05833">
        <ele>2.7</ele>
        <time>2020-06-23T09:05:26Z</time>
      </trkpt>
      <trkpt lat="50.98689" lon="2.05844">
        <ele>2.7</ele>
        <time>2020-06-23T09:05:27Z</time>
      </trkpt>
      <trkpt lat="50.98689" lon="2.05855">
        <ele>2.7</ele>
        <time>2020-06-23T09:05:28Z</time>
      </trkpt>
      <trkpt lat="50.98688" lon="2.05867">
        <ele>2.7</ele>
        <time>2020-06-23T09:05:29Z</time>
      </trkpt>
      <trkpt lat="50.98688" lon="2.05876">
        <ele>2.7</ele>
        <time>2020-06-23T09:05:30Z</time>
      </trkpt>
      <trkpt lat="50.98688" lon="2.05885">
        <ele>2.7</ele>
        <time>2020-06-23T09:05:31Z</time>
      </trkpt>
      <trkpt lat="50.98688" lon="2.05896">
        <ele>2.8</ele>
        <time>2020-06-23T09:05:32Z</time>
      </trkpt>
      <trkpt lat="50.98688" lon="2.05907">
        <ele>2.8</ele>
        <time>2020-06-23T09:05:33Z</time>
      </trkpt>
      <trkpt lat="50.98689" lon="2.05918">
        <ele>2.8</ele>
        <time>2020-06-23T09:05:34Z</time>
      </trkpt>
      <trkpt lat="50.98689" lon="2.05929">
        <ele>2.8</ele>
        <time>2020-06-23T09:05:35Z</time>
      </trkpt>
      <trkpt lat="50.98689" lon="2.05939">
        <ele>2.8</ele>
        <time>2020-06-23T09:05:36Z</time>
      </trkpt>
      <trkpt lat="50.98689" lon="2.0595">
        <ele>2.8</ele>
        <time>2020-06-23T09:05:37Z</time>
      </trkpt>
      <trkpt lat="50.9869" lon="2.05959">
        <ele>2.8</ele>
        <time>2020-06-23T09:05:38Z</time>
      </trkpt>
      <trkpt lat="50.9869" lon="2.05969">
        <ele>2.8</ele>
        <time>2020-06-23T09:05:39Z</time>
      </trkpt>
      <trkpt lat="50.9869" lon="2.05979">
        <ele>2.8</ele>
        <time>2020-06-23T09:05:40Z</time>
      </trkpt>
      <trkpt lat="50.98691" lon="2.0599">
        <ele>2.8</ele>
        <time>2020-06-23T09:05:41Z</time>
      </trkpt>
      <trkpt lat="50.98691" lon="2.06">
        <ele>2.9</ele>
        <time>2020-06-23T09:05:42Z</time>
      </trkpt>
      <trkpt lat="50.98691" lon="2.0601">
        <ele>2.9</ele>
        <time>2020-06-23T09:05:43Z</time>
      </trkpt>
      <trkpt lat="50.98691" lon="2.06021">
        <ele>2.9</ele>
        <time>2020-06-23T09:05:44Z</time>
      </trkpt>
      <trkpt lat="50.9869" lon="2.06032">
        <ele>2.9</ele>
        <time>2020-06-23T09:05:45Z</time>
      </trkpt>
      <trkpt lat="50.9869" lon="2.06042">
        <ele>2.9</ele>
        <time>2020-06-23T09:05:46Z</time>
      </trkpt>
      <trkpt lat="50.9869" lon="2.06051">
        <ele>2.9</ele>
        <time>2020-06-23T09:05:47Z</time>
      </trkpt>
      <trkpt lat="50.9869" lon="2.06062">
        <ele>2.9</ele>
        <time>2020-06-23T09:05:48Z</time>
      </trkpt>
      <trkpt lat="50.98689" lon="2.06073">
        <ele>3</ele>
        <time>2020-06-23T09:05:49Z</time>
      </trkpt>
      <trkpt lat="50.9869" lon="2.06084">
        <ele>3</ele>
        <time>2020-06-23T09:05:50Z</time>
      </trkpt>
      <trkpt lat="50.9869" lon="2.06095">
        <ele>3</ele>
        <time>2020-06-23T09:05:51Z</time>
      </trkpt>
      <trkpt lat="50.98689" lon="2.06105">
        <ele>3</ele>
        <time>2020-06-23T09:05:52Z</time>
      </trkpt>
      <trkpt lat="50.9869" lon="2.06116">
        <ele>3</ele>
        <time>2020-06-23T09:05:53Z</time>
      </trkpt>
      <trkpt lat="50.9869" lon="2.06126">
        <ele>3</ele>
        <time>2020-06-23T09:05:54Z</time>
      </trkpt>
      <trkpt lat="50.9869" lon="2.06137">
        <ele>3</ele>
        <time>2020-06-23T09:05:55Z</time>
      </trkpt>
      <trkpt lat="50.98689" lon="2.06147">
        <ele>3</ele>
        <time>2020-06-23T09:05:56Z</time>
      </trkpt>
      <trkpt lat="50.98688" lon="2.06157">
        <ele>3</ele>
        <time>2020-06-23T09:05:57Z</time>
      </trkpt>
      <trkpt lat="50.98688" lon="2.06168">
        <ele>3.1</ele>
        <time>2020-06-23T09:05:58Z</time>
      </trkpt>
      <trkpt lat="50.98688" lon="2.06179">
        <ele>3.1</ele>
        <time>2020-06-23T09:05:59Z</time>
      </trkpt>
      <trkpt lat="50.98689" lon="2.0619">
        <ele>3.1</ele>
        <time>2020-06-23T09:06:00Z</time>
      </trkpt>
      <trkpt lat="50.9869" lon="2.06201">
        <ele>3.1</ele>
        <time>2020-06-23T09:06:01Z</time>
      </trkpt>
      <trkpt lat="50.98691" lon="2.06212">
        <ele>3.2</ele>
        <time>2020-06-23T09:06:02Z</time>
      </trkpt>
      <trkpt lat="50.98692" lon="2.06222">
        <ele>3.2</ele>
        <time>2020-06-23T09:06:03Z</time>
      </trkpt>
      <trkpt lat="50.98693" lon="2.06233">
        <ele>3.2</ele>
        <time>2020-06-23T09:06:04Z</time>
      </trkpt>
      <trkpt lat="50.98694" lon="2.06244">
        <ele>3.2</ele>
        <time>2020-06-23T09:06:05Z</time>
      </trkpt>
      <trkpt lat="50.98695" lon="2.06256">
        <ele>3.1</ele>
        <time>2020-06-23T09:06:06Z</time>
      </trkpt>
      <trkpt lat="50.98696" lon="2.06267">
        <ele>3.1</ele>
        <time>2020-06-23T09:06:07Z</time>
      </trkpt>
      <trkpt lat="50.98697" lon="2.06277">
        <ele>3.1</ele>
        <time>2020-06-23T09:06:08Z</time>
      </trkpt>
      <trkpt lat="50.98699" lon="2.06288">
        <ele>3</ele>
        <time>2020-06-23T09:06:09Z</time>
      </trkpt>
      <trkpt lat="50.987" lon="2.06299">
        <ele>3</ele>
        <time>2020-06-23T09:06:10Z</time>
      </trkpt>
      <trkpt lat="50.98701" lon="2.0631">
        <ele>2.9</ele>
        <time>2020-06-23T09:06:11Z</time>
      </trkpt>
      <trkpt lat="50.98702" lon="2.06321">
        <ele>2.9</ele>
        <time>2020-06-23T09:06:12Z</time>
      </trkpt>
      <trkpt lat="50.98703" lon="2.06331">
        <ele>2.9</ele>
        <time>2020-06-23T09:06:13Z</time>
      </trkpt>
      <trkpt lat="50.98703" lon="2.06342">
        <ele>2.9</ele>
        <time>2020-06-23T09:06:14Z</time>
      </trkpt>
      <trkpt lat="50.98704" lon="2.06353">
        <ele>2.9</ele>
        <time>2020-06-23T09:06:15Z</time>
      </trkpt>
      <trkpt lat="50.98704" lon="2.06364">
        <ele>2.8</ele>
        <time>2020-06-23T09:06:16Z</time>
      </trkpt>
      <trkpt lat="50.98704" lon="2.06374">
        <ele>2.8</ele>
        <time>2020-06-23T09:06:17Z</time>
      </trkpt>
      <trkpt lat="50.98703" lon="2.06386">
        <ele>2.8</ele>
        <time>2020-06-23T09:06:18Z</time>
      </trkpt>
      <trkpt lat="50.98702" lon="2.06397">
        <ele>2.8</ele>
        <time>2020-06-23T09:06:19Z</time>
      </trkpt>
      <trkpt lat="50.987" lon="2.06408">
        <ele>2.7</ele>
        <time>2020-06-23T09:06:20Z</time>
      </trkpt>
      <trkpt lat="50.98699" lon="2.06418">
        <ele>2.7</ele>
        <time>2020-06-23T09:06:21Z</time>
      </trkpt>
      <trkpt lat="50.98698" lon="2.06429">
        <ele>2.7</ele>
        <time>2020-06-23T09:06:22Z</time>
      </trkpt>
      <trkpt lat="50.98697" lon="2.0644">
        <ele>2.7</ele>
        <time>2020-06-23T09:06:23Z</time>
      </trkpt>
      <trkpt lat="50.98697" lon="2.0645">
        <ele>2.7</ele>
        <time>2020-06-23T09:06:24Z</time>
      </trkpt>
      <trkpt lat="50.98697" lon="2.06461">
        <ele>2.6</ele>
        <time>2020-06-23T09:06:25Z</time>
      </trkpt>
      <trkpt lat="50.98695" lon="2.06471">
        <ele>2.6</ele>
        <time>2020-06-23T09:06:26Z</time>
      </trkpt>
      <trkpt lat="50.98694" lon="2.06481">
        <ele>2.6</ele>
        <time>2020-06-23T09:06:27Z</time>
      </trkpt>
      <trkpt lat="50.98693" lon="2.06492">
        <ele>2.5</ele>
        <time>2020-06-23T09:06:28Z</time>
      </trkpt>
      <trkpt lat="50.98692" lon="2.06501">
        <ele>2.5</ele>
        <time>2020-06-23T09:06:29Z</time>
      </trkpt>
      <trkpt lat="50.98691" lon="2.06511">
        <ele>2.4</ele>
        <time>2020-06-23T09:06:30Z</time>
      </trkpt>
      <trkpt lat="50.98691" lon="2.06521">
        <ele>2.4</ele>
        <time>2020-06-23T09:06:31Z</time>
      </trkpt>
      <trkpt lat="50.98691" lon="2.06531">
        <ele>2.3</ele>
        <time>2020-06-23T09:06:32Z</time>
      </trkpt>
      <trkpt lat="50.98691" lon="2.0654">
        <ele>2.2</ele>
        <time>2020-06-23T09:06:33Z</time>
      </trkpt>
      <trkpt lat="50.98691" lon="2.06549">
        <ele>2.2</ele>
        <time>2020-06-23T09:06:34Z</time>
      </trkpt>
      <trkpt lat="50.98692" lon="2.06559">
        <ele>2.2</ele>
        <time>2020-06-23T09:06:35Z</time>
      </trkpt>
      <trkpt lat="50.98693" lon="2.06569">
        <ele>2.2</ele>
        <time>2020-06-23T09:06:36Z</time>
      </trkpt>
      <trkpt lat="50.98693" lon="2.06579">
        <ele>2.1</ele>
        <time>2020-06-23T09:06:37Z</time>
      </trkpt>
      <trkpt lat="50.98693" lon="2.0659">
        <ele>2.1</ele>
        <time>2020-06-23T09:06:38Z</time>
      </trkpt>
      <trkpt lat="50.98693" lon="2.066">
        <ele>2.1</ele>
        <time>2020-06-23T09:06:39Z</time>
      </trkpt>
      <trkpt lat="50.98694" lon="2.0661">
        <ele>2.1</ele>
        <time>2020-06-23T09:06:40Z</time>
      </trkpt>
      <trkpt lat="50.98694" lon="2.0662">
        <ele>2.1</ele>
        <time>2020-06-23T09:06:41Z</time>
      </trkpt>
      <trkpt lat="50.98695" lon="2.0663">
        <ele>2.1</ele>
        <time>2020-06-23T09:06:42Z</time>
      </trkpt>
      <trkpt lat="50.98696" lon="2.0664">
        <ele>2.1</ele>
        <time>2020-06-23T09:06:43Z</time>
      </trkpt>
      <trkpt lat="50.98698" lon="2.0665">
        <ele>2.1</ele>
        <time>2020-06-23T09:06:44Z</time>
      </trkpt>
      <trkpt lat="50.98698" lon="2.06659">
        <ele>2.1</ele>
        <time>2020-06-23T09:06:45Z</time>
      </trkpt>
      <trkpt lat="50.98699" lon="2.06669">
        <ele>2.1</ele>
        <time>2020-06-23T09:06:46Z</time>
      </trkpt>
      <trkpt lat="50.987" lon="2.06679">
        <ele>2.1</ele>
        <time>2020-06-23T09:06:47Z</time>
      </trkpt>
      <trkpt lat="50.987" lon="2.06689">
        <ele>2.1</ele>
        <time>2020-06-23T09:06:48Z</time>
      </trkpt>
      <trkpt lat="50.987" lon="2.06699">
        <ele>2.2</ele>
        <time>2020-06-23T09:06:49Z</time>
      </trkpt>
      <trkpt lat="50.98701" lon="2.06709">
        <ele>2.2</ele>
        <time>2020-06-23T09:06:50Z</time>
      </trkpt>
      <trkpt lat="50.98702" lon="2.06719">
        <ele>2.2</ele>
        <time>2020-06-23T09:06:51Z</time>
      </trkpt>
      <trkpt lat="50.98704" lon="2.06729">
        <ele>2.1</ele>
        <time>2020-06-23T09:06:52Z</time>
      </trkpt>
      <trkpt lat="50.98705" lon="2.06739">
        <ele>2.1</ele>
        <time>2020-06-23T09:06:53Z</time>
      </trkpt>
      <trkpt lat="50.98706" lon="2.0675">
        <ele>2.1</ele>
        <time>2020-06-23T09:06:54Z</time>
      </trkpt>
      <trkpt lat="50.98708" lon="2.06761">
        <ele>2.1</ele>
        <time>2020-06-23T09:06:55Z</time>
      </trkpt>
      <trkpt lat="50.98709" lon="2.06772">
        <ele>2.1</ele>
        <time>2020-06-23T09:06:56Z</time>
      </trkpt>
      <trkpt lat="50.98709" lon="2.06783">
        <ele>2</ele>
        <time>2020-06-23T09:06:57Z</time>
      </trkpt>
      <trkpt lat="50.9871" lon="2.06794">
        <ele>2</ele>
        <time>2020-06-23T09:06:58Z</time>
      </trkpt>
      <trkpt lat="50.9871" lon="2.06804">
        <ele>2</ele>
        <time>2020-06-23T09:06:59Z</time>
      </trkpt>
      <trkpt lat="50.98711" lon="2.06815">
        <ele>2</ele>
        <time>2020-06-23T09:07:00Z</time>
      </trkpt>
      <trkpt lat="50.98711" lon="2.06826">
        <ele>2</ele>
        <time>2020-06-23T09:07:01Z</time>
      </trkpt>
      <trkpt lat="50.98712" lon="2.06837">
        <ele>2</ele>
        <time>2020-06-23T09:07:02Z</time>
      </trkpt>
      <trkpt lat="50.98712" lon="2.06848">
        <ele>2</ele>
        <time>2020-06-23T09:07:03Z</time>
      </trkpt>
      <trkpt lat="50.98712" lon="2.06858">
        <ele>2</ele>
        <time>2020-06-23T09:07:04Z</time>
      </trkpt>
      <trkpt lat="50.98713" lon="2.06869">
        <ele>2</ele>
        <time>2020-06-23T09:07:05Z</time>
      </trkpt>
      <trkpt lat="50.98713" lon="2.0688">
        <ele>2</ele>
        <time>2020-06-23T09:07:06Z</time>
      </trkpt>
      <trkpt lat="50.98714" lon="2.06891">
        <ele>2</ele>
        <time>2020-06-23T09:07:07Z</time>
      </trkpt>
      <trkpt lat="50.98715" lon="2.06903">
        <ele>2</ele>
        <time>2020-06-23T09:07:08Z</time>
      </trkpt>
      <trkpt lat="50.98716" lon="2.06913">
        <ele>2</ele>
        <time>2020-06-23T09:07:09Z</time>
      </trkpt>
      <trkpt lat="50.98717" lon="2.06924">
        <ele>2</ele>
        <time>2020-06-23T09:07:10Z</time>
      </trkpt>
      <trkpt lat="50.98717" lon="2.06935">
        <ele>2</ele>
        <time>2020-06-23T09:07:11Z</time>
      </trkpt>
      <trkpt lat="50.98718" lon="2.06946">
        <ele>2</ele>
        <time>2020-06-23T09:07:12Z</time>
      </trkpt>
      <trkpt lat="50.98718" lon="2.06958">
        <ele>2</ele>
        <time>2020-06-23T09:07:13Z</time>
      </trkpt>
      <trkpt lat="50.98719" lon="2.06969">
        <ele>2</ele>
        <time>2020-06-23T09:07:14Z</time>
      </trkpt>
      <trkpt lat="50.9872" lon="2.0698">
        <ele>2</ele>
        <time>2020-06-23T09:07:15Z</time>
      </trkpt>
      <trkpt lat="50.98721" lon="2.06991">
        <ele>2</ele>
        <time>2020-06-23T09:07:16Z</time>
      </trkpt>
      <trkpt lat="50.98721" lon="2.07002">
        <ele>2</ele>
        <time>2020-06-23T09:07:17Z</time>
      </trkpt>
      <trkpt lat="50.98722" lon="2.07013">
        <ele>2</ele>
        <time>2020-06-23T09:07:18Z</time>
      </trkpt>
      <trkpt lat="50.98722" lon="2.07024">
        <ele>2</ele>
        <time>2020-06-23T09:07:19Z</time>
      </trkpt>
      <trkpt lat="50.98723" lon="2.07035">
        <ele>1.9</ele>
        <time>2020-06-23T09:07:20Z</time>
      </trkpt>
      <trkpt lat="50.98723" lon="2.07046">
        <ele>1.9</ele>
        <time>2020-06-23T09:07:21Z</time>
      </trkpt>
      <trkpt lat="50.98724" lon="2.07057">
        <ele>1.9</ele>
        <time>2020-06-23T09:07:22Z</time>
      </trkpt>
      <trkpt lat="50.98725" lon="2.07068">
        <ele>1.9</ele>
        <time>2020-06-23T09:07:23Z</time>
      </trkpt>
      <trkpt lat="50.98726" lon="2.07078">
        <ele>1.9</ele>
        <time>2020-06-23T09:07:24Z</time>
      </trkpt>
      <trkpt lat="50.98727" lon="2.07089">
        <ele>1.9</ele>
        <time>2020-06-23T09:07:25Z</time>
      </trkpt>
      <trkpt lat="50.98727" lon="2.071">
        <ele>1.9</ele>
        <time>2020-06-23T09:07:26Z</time>
      </trkpt>
      <trkpt lat="50.98728" lon="2.0711">
        <ele>1.9</ele>
        <time>2020-06-23T09:07:27Z</time>
      </trkpt>
      <trkpt lat="50.98729" lon="2.07121">
        <ele>1.9</ele>
        <time>2020-06-23T09:07:28Z</time>
      </trkpt>
      <trkpt lat="50.9873" lon="2.07132">
        <ele>1.9</ele>
        <time>2020-06-23T09:07:29Z</time>
      </trkpt>
      <trkpt lat="50.9873" lon="2.07143">
        <ele>1.9</ele>
        <time>2020-06-23T09:07:30Z</time>
      </trkpt>
      <trkpt lat="50.98731" lon="2.07154">
        <ele>1.9</ele>
        <time>2020-06-23T09:07:31Z</time>
      </trkpt>
      <trkpt lat="50.98733" lon="2.07164">
        <ele>1.9</ele>
        <time>2020-06-23T09:07:32Z</time>
      </trkpt>
      <trkpt lat="50.98734" lon="2.07175">
        <ele>1.9</ele>
        <time>2020-06-23T09:07:33Z</time>
      </trkpt>
      <trkpt lat="50.98735" lon="2.07186">
        <ele>2</ele>
        <time>2020-06-23T09:07:34Z</time>
      </trkpt>
      <trkpt lat="50.98737" lon="2.07196">
        <ele>2</ele>
        <time>2020-06-23T09:07:35Z</time>
      </trkpt>
      <trkpt lat="50.98739" lon="2.07207">
        <ele>2.1</ele>
        <time>2020-06-23T09:07:36Z</time>
      </trkpt>
      <trkpt lat="50.98741" lon="2.07217">
        <ele>2.1</ele>
        <time>2020-06-23T09:07:37Z</time>
      </trkpt>
      <trkpt lat="50.98743" lon="2.07228">
        <ele>2.1</ele>
        <time>2020-06-23T09:07:38Z</time>
      </trkpt>
      <trkpt lat="50.98744" lon="2.07238">
        <ele>2.1</ele>
        <time>2020-06-23T09:07:39Z</time>
      </trkpt>
      <trkpt lat="50.98746" lon="2.07249">
        <ele>2.1</ele>
        <time>2020-06-23T09:07:40Z</time>
      </trkpt>
      <trkpt lat="50.98748" lon="2.0726">
        <ele>2.1</ele>
        <time>2020-06-23T09:07:41Z</time>
      </trkpt>
      <trkpt lat="50.9875" lon="2.0727">
        <ele>2.1</ele>
        <time>2020-06-23T09:07:42Z</time>
      </trkpt>
      <trkpt lat="50.98751" lon="2.07281">
        <ele>2.1</ele>
        <time>2020-06-23T09:07:43Z</time>
      </trkpt>
      <trkpt lat="50.98753" lon="2.07292">
        <ele>2.1</ele>
        <time>2020-06-23T09:07:44Z</time>
      </trkpt>
      <trkpt lat="50.98754" lon="2.07302">
        <ele>2.1</ele>
        <time>2020-06-23T09:07:45Z</time>
      </trkpt>
      <trkpt lat="50.98756" lon="2.07312">
        <ele>2.1</ele>
        <time>2020-06-23T09:07:46Z</time>
      </trkpt>
      <trkpt lat="50.98757" lon="2.07322">
        <ele>2.1</ele>
        <time>2020-06-23T09:07:47Z</time>
      </trkpt>
      <trkpt lat="50.98759" lon="2.07333">
        <ele>2</ele>
        <time>2020-06-23T09:07:48Z</time>
      </trkpt>
      <trkpt lat="50.9876" lon="2.07343">
        <ele>2</ele>
        <time>2020-06-23T09:07:49Z</time>
      </trkpt>
      <trkpt lat="50.98762" lon="2.07354">
        <ele>1.9</ele>
        <time>2020-06-23T09:07:50Z</time>
      </trkpt>
      <trkpt lat="50.98763" lon="2.07364">
        <ele>1.9</ele>
        <time>2020-06-23T09:07:51Z</time>
      </trkpt>
      <trkpt lat="50.98765" lon="2.07375">
        <ele>1.8</ele>
        <time>2020-06-23T09:07:52Z</time>
      </trkpt>
      <trkpt lat="50.98766" lon="2.07385">
        <ele>1.8</ele>
        <time>2020-06-23T09:07:53Z</time>
      </trkpt>
      <trkpt lat="50.98768" lon="2.07396">
        <ele>1.8</ele>
        <time>2020-06-23T09:07:54Z</time>
      </trkpt>
      <trkpt lat="50.9877" lon="2.07406">
        <ele>1.8</ele>
        <time>2020-06-23T09:07:55Z</time>
      </trkpt>
      <trkpt lat="50.98773" lon="2.07416">
        <ele>1.9</ele>
        <time>2020-06-23T09:07:56Z</time>
      </trkpt>
      <trkpt lat="50.98774" lon="2.07426">
        <ele>1.9</ele>
        <time>2020-06-23T09:07:57Z</time>
      </trkpt>
      <trkpt lat="50.98776" lon="2.07437">
        <ele>2</ele>
        <time>2020-06-23T09:07:58Z</time>
      </trkpt>
      <trkpt lat="50.98777" lon="2.07448">
        <ele>2.1</ele>
        <time>2020-06-23T09:07:59Z</time>
      </trkpt>
      <trkpt lat="50.98779" lon="2.07459">
        <ele>2.1</ele>
        <time>2020-06-23T09:08:00Z</time>
      </trkpt>
      <trkpt lat="50.9878" lon="2.07469">
        <ele>2.2</ele>
        <time>2020-06-23T09:08:01Z</time>
      </trkpt>
      <trkpt lat="50.98782" lon="2.07479">
        <ele>2.2</ele>
        <time>2020-06-23T09:08:02Z</time>
      </trkpt>
      <trkpt lat="50.98784" lon="2.07489">
        <ele>2.2</ele>
        <time>2020-06-23T09:08:03Z</time>
      </trkpt>
      <trkpt lat="50.98786" lon="2.07499">
        <ele>2.2</ele>
        <time>2020-06-23T09:08:04Z</time>
      </trkpt>
      <trkpt lat="50.98788" lon="2.07509">
        <ele>2.2</ele>
        <time>2020-06-23T09:08:05Z</time>
      </trkpt>
      <trkpt lat="50.9879" lon="2.07519">
        <ele>2.2</ele>
        <time>2020-06-23T09:08:06Z</time>
      </trkpt>
      <trkpt lat="50.98792" lon="2.07529">
        <ele>2.2</ele>
        <time>2020-06-23T09:08:07Z</time>
      </trkpt>
      <trkpt lat="50.98793" lon="2.0754">
        <ele>2.2</ele>
        <time>2020-06-23T09:08:08Z</time>
      </trkpt>
      <trkpt lat="50.98794" lon="2.0755">
        <ele>2.2</ele>
        <time>2020-06-23T09:08:09Z</time>
      </trkpt>
      <trkpt lat="50.98796" lon="2.0756">
        <ele>2.2</ele>
        <time>2020-06-23T09:08:10Z</time>
      </trkpt>
      <trkpt lat="50.98798" lon="2.0757">
        <ele>2.2</ele>
        <time>2020-06-23T09:08:11Z</time>
      </trkpt>
      <trkpt lat="50.98799" lon="2.07581">
        <ele>2.2</ele>
        <time>2020-06-23T09:08:12Z</time>
      </trkpt>
      <trkpt lat="50.988" lon="2.07591">
        <ele>2.2</ele>
        <time>2020-06-23T09:08:13Z</time>
      </trkpt>
      <trkpt lat="50.98802" lon="2.07601">
        <ele>2.2</ele>
        <time>2020-06-23T09:08:14Z</time>
      </trkpt>
      <trkpt lat="50.98803" lon="2.07612">
        <ele>2.2</ele>
        <time>2020-06-23T09:08:15Z</time>
      </trkpt>
      <trkpt lat="50.98803" lon="2.07623">
        <ele>2.2</ele>
        <time>2020-06-23T09:08:16Z</time>
      </trkpt>
      <trkpt lat="50.98805" lon="2.07632">
        <ele>2.2</ele>
        <time>2020-06-23T09:08:17Z</time>
      </trkpt>
      <trkpt lat="50.98806" lon="2.07643">
        <ele>2.1</ele>
        <time>2020-06-23T09:08:18Z</time>
      </trkpt>
      <trkpt lat="50.98808" lon="2.07653">
        <ele>2.1</ele>
        <time>2020-06-23T09:08:19Z</time>
      </trkpt>
      <trkpt lat="50.98809" lon="2.07664">
        <ele>2</ele>
        <time>2020-06-23T09:08:20Z</time>
      </trkpt>
      <trkpt lat="50.9881" lon="2.07674">
        <ele>2</ele>
        <time>2020-06-23T09:08:21Z</time>
      </trkpt>
      <trkpt lat="50.98811" lon="2.07685">
        <ele>2</ele>
        <time>2020-06-23T09:08:22Z</time>
      </trkpt>
      <trkpt lat="50.98813" lon="2.07695">
        <ele>2</ele>
        <time>2020-06-23T09:08:23Z</time>
      </trkpt>
      <trkpt lat="50.98815" lon="2.07705">
        <ele>2.1</ele>
        <time>2020-06-23T09:08:24Z</time>
      </trkpt>
      <trkpt lat="50.98817" lon="2.07715">
        <ele>2.1</ele>
        <time>2020-06-23T09:08:25Z</time>
      </trkpt>
      <trkpt lat="50.98818" lon="2.07725">
        <ele>2.1</ele>
        <time>2020-06-23T09:08:26Z</time>
      </trkpt>
      <trkpt lat="50.9882" lon="2.07735">
        <ele>2.1</ele>
        <time>2020-06-23T09:08:27Z</time>
      </trkpt>
      <trkpt lat="50.98821" lon="2.07745">
        <ele>2.1</ele>
        <time>2020-06-23T09:08:28Z</time>
      </trkpt>
      <trkpt lat="50.98822" lon="2.07755">
        <ele>2.1</ele>
        <time>2020-06-23T09:08:29Z</time>
      </trkpt>
      <trkpt lat="50.98822" lon="2.07765">
        <ele>2.1</ele>
        <time>2020-06-23T09:08:30Z</time>
      </trkpt>
      <trkpt lat="50.98823" lon="2.07774">
        <ele>2.2</ele>
        <time>2020-06-23T09:08:31Z</time>
      </trkpt>
      <trkpt lat="50.98822" lon="2.07784">
        <ele>2.2</ele>
        <time>2020-06-23T09:08:32Z</time>
      </trkpt>
      <trkpt lat="50.98822" lon="2.07794">
        <ele>2.2</ele>
        <time>2020-06-23T09:08:33Z</time>
      </trkpt>
      <trkpt lat="50.98821" lon="2.07804">
        <ele>2.2</ele>
        <time>2020-06-23T09:08:34Z</time>
      </trkpt>
      <trkpt lat="50.9882" lon="2.07814">
        <ele>2.2</ele>
        <time>2020-06-23T09:08:35Z</time>
      </trkpt>
      <trkpt lat="50.98819" lon="2.07824">
        <ele>2.3</ele>
        <time>2020-06-23T09:08:36Z</time>
      </trkpt>
      <trkpt lat="50.98817" lon="2.07835">
        <ele>2.3</ele>
        <time>2020-06-23T09:08:37Z</time>
      </trkpt>
      <trkpt lat="50.98817" lon="2.07845">
        <ele>2.4</ele>
        <time>2020-06-23T09:08:38Z</time>
      </trkpt>
      <trkpt lat="50.98816" lon="2.07855">
        <ele>2.4</ele>
        <time>2020-06-23T09:08:39Z</time>
      </trkpt>
      <trkpt lat="50.98816" lon="2.07864">
        <ele>2.5</ele>
        <time>2020-06-23T09:08:40Z</time>
      </trkpt>
      <trkpt lat="50.98815" lon="2.07874">
        <ele>2.5</ele>
        <time>2020-06-23T09:08:41Z</time>
      </trkpt>
      <trkpt lat="50.98813" lon="2.07885">
        <ele>2.5</ele>
        <time>2020-06-23T09:08:42Z</time>
      </trkpt>
      <trkpt lat="50.9881" lon="2.07895">
        <ele>2.5</ele>
        <time>2020-06-23T09:08:43Z</time>
      </trkpt>
      <trkpt lat="50.98807" lon="2.07906">
        <ele>2.5</ele>
        <time>2020-06-23T09:08:44Z</time>
      </trkpt>
      <trkpt lat="50.98806" lon="2.07917">
        <ele>2.5</ele>
        <time>2020-06-23T09:08:45Z</time>
      </trkpt>
      <trkpt lat="50.98806" lon="2.07929">
        <ele>2.5</ele>
        <time>2020-06-23T09:08:46Z</time>
      </trkpt>
      <trkpt lat="50.98805" lon="2.07941">
        <ele>2.5</ele>
        <time>2020-06-23T09:08:47Z</time>
      </trkpt>
      <trkpt lat="50.98806" lon="2.07954">
        <ele>2.5</ele>
        <time>2020-06-23T09:08:48Z</time>
      </trkpt>
      <trkpt lat="50.98805" lon="2.07965">
        <ele>2.5</ele>
        <time>2020-06-23T09:08:49Z</time>
      </trkpt>
      <trkpt lat="50.98806" lon="2.07976">
        <ele>2.5</ele>
        <time>2020-06-23T09:08:50Z</time>
      </trkpt>
      <trkpt lat="50.98808" lon="2.07987">
        <ele>2.5</ele>
        <time>2020-06-23T09:08:51Z</time>
      </trkpt>
      <trkpt lat="50.98809" lon="2.07999">
        <ele>2.5</ele>
        <time>2020-06-23T09:08:52Z</time>
      </trkpt>
      <trkpt lat="50.9881" lon="2.08009">
        <ele>2.5</ele>
        <time>2020-06-23T09:08:53Z</time>
      </trkpt>
      <trkpt lat="50.98812" lon="2.08019">
        <ele>2.5</ele>
        <time>2020-06-23T09:08:54Z</time>
      </trkpt>
      <trkpt lat="50.98813" lon="2.08029">
        <ele>2.6</ele>
        <time>2020-06-23T09:08:55Z</time>
      </trkpt>
      <trkpt lat="50.98814" lon="2.0804">
        <ele>2.6</ele>
        <time>2020-06-23T09:08:56Z</time>
      </trkpt>
      <trkpt lat="50.98816" lon="2.0805">
        <ele>2.6</ele>
        <time>2020-06-23T09:08:57Z</time>
      </trkpt>
      <trkpt lat="50.98817" lon="2.08061">
        <ele>2.6</ele>
        <time>2020-06-23T09:08:58Z</time>
      </trkpt>
      <trkpt lat="50.98819" lon="2.08071">
        <ele>2.6</ele>
        <time>2020-06-23T09:08:59Z</time>
      </trkpt>
      <trkpt lat="50.98821" lon="2.08081">
        <ele>2.6</ele>
        <time>2020-06-23T09:09:00Z</time>
      </trkpt>
      <trkpt lat="50.98822" lon="2.08092">
        <ele>2.6</ele>
        <time>2020-06-23T09:09:01Z</time>
      </trkpt>
      <trkpt lat="50.98823" lon="2.08103">
        <ele>2.7</ele>
        <time>2020-06-23T09:09:02Z</time>
      </trkpt>
      <trkpt lat="50.98824" lon="2.08113">
        <ele>2.7</ele>
        <time>2020-06-23T09:09:03Z</time>
      </trkpt>
      <trkpt lat="50.98825" lon="2.08124">
        <ele>2.7</ele>
        <time>2020-06-23T09:09:04Z</time>
      </trkpt>
      <trkpt lat="50.98826" lon="2.08135">
        <ele>2.6</ele>
        <time>2020-06-23T09:09:05Z</time>
      </trkpt>
      <trkpt lat="50.98827" lon="2.08145">
        <ele>2.6</ele>
        <time>2020-06-23T09:09:06Z</time>
      </trkpt>
      <trkpt lat="50.98828" lon="2.08155">
        <ele>2.6</ele>
        <time>2020-06-23T09:09:07Z</time>
      </trkpt>
      <trkpt lat="50.98829" lon="2.08166">
        <ele>2.6</ele>
        <time>2020-06-23T09:09:08Z</time>
      </trkpt>
      <trkpt lat="50.9883" lon="2.08177">
        <ele>2.6</ele>
        <time>2020-06-23T09:09:09Z</time>
      </trkpt>
      <trkpt lat="50.98831" lon="2.08187">
        <ele>2.6</ele>
        <time>2020-06-23T09:09:10Z</time>
      </trkpt>
      <trkpt lat="50.98833" lon="2.08198">
        <ele>2.5</ele>
        <time>2020-06-23T09:09:11Z</time>
      </trkpt>
      <trkpt lat="50.98834" lon="2.08208">
        <ele>2.5</ele>
        <time>2020-06-23T09:09:12Z</time>
      </trkpt>
      <trkpt lat="50.98836" lon="2.08219">
        <ele>2.4</ele>
        <time>2020-06-23T09:09:13Z</time>
      </trkpt>
      <trkpt lat="50.98836" lon="2.0823">
        <ele>2.4</ele>
        <time>2020-06-23T09:09:14Z</time>
      </trkpt>
      <trkpt lat="50.98837" lon="2.0824">
        <ele>2.4</ele>
        <time>2020-06-23T09:09:15Z</time>
      </trkpt>
      <trkpt lat="50.98838" lon="2.08251">
        <ele>2.4</ele>
        <time>2020-06-23T09:09:16Z</time>
      </trkpt>
      <trkpt lat="50.9884" lon="2.08262">
        <ele>2.4</ele>
        <time>2020-06-23T09:09:17Z</time>
      </trkpt>
      <trkpt lat="50.98841" lon="2.08272">
        <ele>2.4</ele>
        <time>2020-06-23T09:09:18Z</time>
      </trkpt>
      <trkpt lat="50.98842" lon="2.08283">
        <ele>2.3</ele>
        <time>2020-06-23T09:09:19Z</time>
      </trkpt>
      <trkpt lat="50.98844" lon="2.08293">
        <ele>2.3</ele>
        <time>2020-06-23T09:09:20Z</time>
      </trkpt>
      <trkpt lat="50.98845" lon="2.08304">
        <ele>2.3</ele>
        <time>2020-06-23T09:09:21Z</time>
      </trkpt>
      <trkpt lat="50.98845" lon="2.08315">
        <ele>2.4</ele>
        <time>2020-06-23T09:09:22Z</time>
      </trkpt>
      <trkpt lat="50.98845" lon="2.08326">
        <ele>2.4</ele>
        <time>2020-06-23T09:09:23Z</time>
      </trkpt>
      <trkpt lat="50.98847" lon="2.08336">
        <ele>2.4</ele>
        <time>2020-06-23T09:09:24Z</time>
      </trkpt>
      <trkpt lat="50.98847" lon="2.08346">
        <ele>2.4</ele>
        <time>2020-06-23T09:09:25Z</time>
      </trkpt>
      <trkpt lat="50.98848" lon="2.08357">
        <ele>2.4</ele>
        <time>2020-06-23T09:09:26Z</time>
      </trkpt>
      <trkpt lat="50.98849" lon="2.08368">
        <ele>2.4</ele>
        <time>2020-06-23T09:09:27Z</time>
      </trkpt>
      <trkpt lat="50.9885" lon="2.08378">
        <ele>2.5</ele>
        <time>2020-06-23T09:09:28Z</time>
      </trkpt>
      <trkpt lat="50.98851" lon="2.08389">
        <ele>2.5</ele>
        <time>2020-06-23T09:09:29Z</time>
      </trkpt>
      <trkpt lat="50.98853" lon="2.08399">
        <ele>2.5</ele>
        <time>2020-06-23T09:09:30Z</time>
      </trkpt>
      <trkpt lat="50.98855" lon="2.0841">
        <ele>2.5</ele>
        <time>2020-06-23T09:09:31Z</time>
      </trkpt>
      <trkpt lat="50.98856" lon="2.08421">
        <ele>2.4</ele>
        <time>2020-06-23T09:09:32Z</time>
      </trkpt>
      <trkpt lat="50.98858" lon="2.08431">
        <ele>2.4</ele>
        <time>2020-06-23T09:09:33Z</time>
      </trkpt>
      <trkpt lat="50.9886" lon="2.0844">
        <ele>2.4</ele>
        <time>2020-06-23T09:09:34Z</time>
      </trkpt>
      <trkpt lat="50.98861" lon="2.08451">
        <ele>2.5</ele>
        <time>2020-06-23T09:09:35Z</time>
      </trkpt>
      <trkpt lat="50.98863" lon="2.08461">
        <ele>2.5</ele>
        <time>2020-06-23T09:09:36Z</time>
      </trkpt>
      <trkpt lat="50.98865" lon="2.08471">
        <ele>2.5</ele>
        <time>2020-06-23T09:09:37Z</time>
      </trkpt>
      <trkpt lat="50.98867" lon="2.08481">
        <ele>2.5</ele>
        <time>2020-06-23T09:09:38Z</time>
      </trkpt>
      <trkpt lat="50.98869" lon="2.08492">
        <ele>2.4</ele>
        <time>2020-06-23T09:09:39Z</time>
      </trkpt>
      <trkpt lat="50.98871" lon="2.08501">
        <ele>2.4</ele>
        <time>2020-06-23T09:09:40Z</time>
      </trkpt>
      <trkpt lat="50.98873" lon="2.08511">
        <ele>2.3</ele>
        <time>2020-06-23T09:09:41Z</time>
      </trkpt>
      <trkpt lat="50.98875" lon="2.08521">
        <ele>2.2</ele>
        <time>2020-06-23T09:09:42Z</time>
      </trkpt>
      <trkpt lat="50.98877" lon="2.08531">
        <ele>2.2</ele>
        <time>2020-06-23T09:09:43Z</time>
      </trkpt>
      <trkpt lat="50.98879" lon="2.0854">
        <ele>2.1</ele>
        <time>2020-06-23T09:09:44Z</time>
      </trkpt>
      <trkpt lat="50.98881" lon="2.0855">
        <ele>2.1</ele>
        <time>2020-06-23T09:09:45Z</time>
      </trkpt>
      <trkpt lat="50.98882" lon="2.08559">
        <ele>2</ele>
        <time>2020-06-23T09:09:46Z</time>
      </trkpt>
      <trkpt lat="50.98884" lon="2.08568">
        <ele>2</ele>
        <time>2020-06-23T09:09:47Z</time>
      </trkpt>
      <trkpt lat="50.98887" lon="2.08577">
        <ele>2</ele>
        <time>2020-06-23T09:09:48Z</time>
      </trkpt>
      <trkpt lat="50.98889" lon="2.08585">
        <ele>2</ele>
        <time>2020-06-23T09:09:49Z</time>
      </trkpt>
      <trkpt lat="50.98891" lon="2.08594">
        <ele>2</ele>
        <time>2020-06-23T09:09:50Z</time>
      </trkpt>
      <trkpt lat="50.98892" lon="2.08602">
        <ele>2</ele>
        <time>2020-06-23T09:09:51Z</time>
      </trkpt>
      <trkpt lat="50.98894" lon="2.08611">
        <ele>2</ele>
        <time>2020-06-23T09:09:52Z</time>
      </trkpt>
      <trkpt lat="50.98896" lon="2.0862">
        <ele>2</ele>
        <time>2020-06-23T09:09:53Z</time>
      </trkpt>
      <trkpt lat="50.98898" lon="2.08629">
        <ele>2</ele>
        <time>2020-06-23T09:09:54Z</time>
      </trkpt>
      <trkpt lat="50.98901" lon="2.08638">
        <ele>2</ele>
        <time>2020-06-23T09:09:55Z</time>
      </trkpt>
      <trkpt lat="50.98903" lon="2.08648">
        <ele>2.1</ele>
        <time>2020-06-23T09:09:56Z</time>
      </trkpt>
      <trkpt lat="50.98905" lon="2.08658">
        <ele>2.1</ele>
        <time>2020-06-23T09:09:57Z</time>
      </trkpt>
      <trkpt lat="50.98907" lon="2.08668">
        <ele>2</ele>
        <time>2020-06-23T09:09:58Z</time>
      </trkpt>
      <trkpt lat="50.98911" lon="2.08678">
        <ele>2</ele>
        <time>2020-06-23T09:09:59Z</time>
      </trkpt>
      <trkpt lat="50.98914" lon="2.08688">
        <ele>2</ele>
        <time>2020-06-23T09:10:00Z</time>
      </trkpt>
      <trkpt lat="50.98917" lon="2.08698">
        <ele>2</ele>
        <time>2020-06-23T09:10:01Z</time>
      </trkpt>
      <trkpt lat="50.98919" lon="2.08709">
        <ele>1.9</ele>
        <time>2020-06-23T09:10:02Z</time>
      </trkpt>
      <trkpt lat="50.98921" lon="2.08719">
        <ele>1.9</ele>
        <time>2020-06-23T09:10:03Z</time>
      </trkpt>
      <trkpt lat="50.98924" lon="2.0873">
        <ele>1.8</ele>
        <time>2020-06-23T09:10:04Z</time>
      </trkpt>
      <trkpt lat="50.98926" lon="2.08741">
        <ele>1.7</ele>
        <time>2020-06-23T09:10:05Z</time>
      </trkpt>
      <trkpt lat="50.98929" lon="2.08752">
        <ele>1.7</ele>
        <time>2020-06-23T09:10:06Z</time>
      </trkpt>
      <trkpt lat="50.98932" lon="2.08763">
        <ele>1.6</ele>
        <time>2020-06-23T09:10:07Z</time>
      </trkpt>
      <trkpt lat="50.98935" lon="2.08774">
        <ele>1.6</ele>
        <time>2020-06-23T09:10:08Z</time>
      </trkpt>
      <trkpt lat="50.98938" lon="2.08785">
        <ele>1.6</ele>
        <time>2020-06-23T09:10:09Z</time>
      </trkpt>
      <trkpt lat="50.98941" lon="2.08796">
        <ele>1.6</ele>
        <time>2020-06-23T09:10:10Z</time>
      </trkpt>
      <trkpt lat="50.98944" lon="2.08806">
        <ele>1.6</ele>
        <time>2020-06-23T09:10:11Z</time>
      </trkpt>
      <trkpt lat="50.98947" lon="2.08815">
        <ele>1.6</ele>
        <time>2020-06-23T09:10:12Z</time>
      </trkpt>
      <trkpt lat="50.9895" lon="2.08825">
        <ele>1.6</ele>
        <time>2020-06-23T09:10:13Z</time>
      </trkpt>
      <trkpt lat="50.98954" lon="2.08834">
        <ele>1.7</ele>
        <time>2020-06-23T09:10:14Z</time>
      </trkpt>
      <trkpt lat="50.98957" lon="2.08843">
        <ele>1.7</ele>
        <time>2020-06-23T09:10:15Z</time>
      </trkpt>
      <trkpt lat="50.9896" lon="2.08852">
        <ele>1.7</ele>
        <time>2020-06-23T09:10:16Z</time>
      </trkpt>
      <trkpt lat="50.98962" lon="2.08862">
        <ele>1.8</ele>
        <time>2020-06-23T09:10:17Z</time>
      </trkpt>
      <trkpt lat="50.98965" lon="2.08872">
        <ele>1.8</ele>
        <time>2020-06-23T09:10:18Z</time>
      </trkpt>
      <trkpt lat="50.98967" lon="2.08882">
        <ele>1.9</ele>
        <time>2020-06-23T09:10:19Z</time>
      </trkpt>
      <trkpt lat="50.98969" lon="2.08891">
        <ele>1.9</ele>
        <time>2020-06-23T09:10:20Z</time>
      </trkpt>
      <trkpt lat="50.98972" lon="2.089">
        <ele>1.8</ele>
        <time>2020-06-23T09:10:21Z</time>
      </trkpt>
      <trkpt lat="50.98975" lon="2.0891">
        <ele>1.8</ele>
        <time>2020-06-23T09:10:22Z</time>
      </trkpt>
      <trkpt lat="50.98977" lon="2.08921">
        <ele>1.8</ele>
        <time>2020-06-23T09:10:23Z</time>
      </trkpt>
      <trkpt lat="50.9898" lon="2.0893">
        <ele>1.8</ele>
        <time>2020-06-23T09:10:24Z</time>
      </trkpt>
      <trkpt lat="50.98982" lon="2.08939">
        <ele>1.8</ele>
        <time>2020-06-23T09:10:25Z</time>
      </trkpt>
      <trkpt lat="50.98984" lon="2.08949">
        <ele>1.8</ele>
        <time>2020-06-23T09:10:26Z</time>
      </trkpt>
      <trkpt lat="50.98987" lon="2.08959">
        <ele>1.8</ele>
        <time>2020-06-23T09:10:27Z</time>
      </trkpt>
      <trkpt lat="50.98989" lon="2.08969">
        <ele>1.8</ele>
        <time>2020-06-23T09:10:28Z</time>
      </trkpt>
      <trkpt lat="50.98992" lon="2.08979">
        <ele>1.8</ele>
        <time>2020-06-23T09:10:29Z</time>
      </trkpt>
      <trkpt lat="50.98994" lon="2.08989">
        <ele>1.9</ele>
        <time>2020-06-23T09:10:30Z</time>
      </trkpt>
      <trkpt lat="50.98995" lon="2.09">
        <ele>1.9</ele>
        <time>2020-06-23T09:10:31Z</time>
      </trkpt>
      <trkpt lat="50.98997" lon="2.0901">
        <ele>1.9</ele>
        <time>2020-06-23T09:10:32Z</time>
      </trkpt>
      <trkpt lat="50.98999" lon="2.0902">
        <ele>2</ele>
        <time>2020-06-23T09:10:33Z</time>
      </trkpt>
      <trkpt lat="50.99001" lon="2.09031">
        <ele>2</ele>
        <time>2020-06-23T09:10:34Z</time>
      </trkpt>
      <trkpt lat="50.99003" lon="2.09041">
        <ele>2</ele>
        <time>2020-06-23T09:10:35Z</time>
      </trkpt>
      <trkpt lat="50.99005" lon="2.09051">
        <ele>2</ele>
        <time>2020-06-23T09:10:36Z</time>
      </trkpt>
      <trkpt lat="50.99006" lon="2.09061">
        <ele>2</ele>
        <time>2020-06-23T09:10:37Z</time>
      </trkpt>
      <trkpt lat="50.99008" lon="2.09071">
        <ele>2</ele>
        <time>2020-06-23T09:10:38Z</time>
      </trkpt>
      <trkpt lat="50.99009" lon="2.09081">
        <ele>2</ele>
        <time>2020-06-23T09:10:39Z</time>
      </trkpt>
      <trkpt lat="50.9901" lon="2.09091">
        <ele>2</ele>
        <time>2020-06-23T09:10:40Z</time>
      </trkpt>
      <trkpt lat="50.99012" lon="2.09101">
        <ele>2</ele>
        <time>2020-06-23T09:10:41Z</time>
      </trkpt>
      <trkpt lat="50.99013" lon="2.09111">
        <ele>2</ele>
        <time>2020-06-23T09:10:42Z</time>
      </trkpt>
      <trkpt lat="50.99015" lon="2.09121">
        <ele>2</ele>
        <time>2020-06-23T09:10:43Z</time>
      </trkpt>
      <trkpt lat="50.99016" lon="2.09132">
        <ele>2</ele>
        <time>2020-06-23T09:10:44Z</time>
      </trkpt>
      <trkpt lat="50.99017" lon="2.09142">
        <ele>2</ele>
        <time>2020-06-23T09:10:45Z</time>
      </trkpt>
      <trkpt lat="50.99019" lon="2.09152">
        <ele>2</ele>
        <time>2020-06-23T09:10:46Z</time>
      </trkpt>
      <trkpt lat="50.99021" lon="2.09162">
        <ele>2</ele>
        <time>2020-06-23T09:10:47Z</time>
      </trkpt>
      <trkpt lat="50.99023" lon="2.09174">
        <ele>2.1</ele>
        <time>2020-06-23T09:10:48Z</time>
      </trkpt>
      <trkpt lat="50.99025" lon="2.09183">
        <ele>2.1</ele>
        <time>2020-06-23T09:10:49Z</time>
      </trkpt>
      <trkpt lat="50.99027" lon="2.09193">
        <ele>2.1</ele>
        <time>2020-06-23T09:10:50Z</time>
      </trkpt>
      <trkpt lat="50.99029" lon="2.09203">
        <ele>2.1</ele>
        <time>2020-06-23T09:10:51Z</time>
      </trkpt>
      <trkpt lat="50.99031" lon="2.09215">
        <ele>2.1</ele>
        <time>2020-06-23T09:10:52Z</time>
      </trkpt>
      <trkpt lat="50.99033" lon="2.09225">
        <ele>2.1</ele>
        <time>2020-06-23T09:10:53Z</time>
      </trkpt>
      <trkpt lat="50.99034" lon="2.09235">
        <ele>2.1</ele>
        <time>2020-06-23T09:10:54Z</time>
      </trkpt>
      <trkpt lat="50.99037" lon="2.09247">
        <ele>2.1</ele>
        <time>2020-06-23T09:10:55Z</time>
      </trkpt>
      <trkpt lat="50.99038" lon="2.09257">
        <ele>2.1</ele>
        <time>2020-06-23T09:10:56Z</time>
      </trkpt>
      <trkpt lat="50.9904" lon="2.09267">
        <ele>2.1</ele>
        <time>2020-06-23T09:10:57Z</time>
      </trkpt>
      <trkpt lat="50.99042" lon="2.09279">
        <ele>2.1</ele>
        <time>2020-06-23T09:10:58Z</time>
      </trkpt>
      <trkpt lat="50.99044" lon="2.09291">
        <ele>2</ele>
        <time>2020-06-23T09:10:59Z</time>
      </trkpt>
      <trkpt lat="50.99045" lon="2.09301">
        <ele>2</ele>
        <time>2020-06-23T09:11:00Z</time>
      </trkpt>
      <trkpt lat="50.99046" lon="2.09311">
        <ele>1.9</ele>
        <time>2020-06-23T09:11:01Z</time>
      </trkpt>
      <trkpt lat="50.99048" lon="2.0932">
        <ele>1.9</ele>
        <time>2020-06-23T09:11:02Z</time>
      </trkpt>
      <trkpt lat="50.9905" lon="2.09331">
        <ele>1.9</ele>
        <time>2020-06-23T09:11:03Z</time>
      </trkpt>
      <trkpt lat="50.99052" lon="2.09341">
        <ele>2</ele>
        <time>2020-06-23T09:11:04Z</time>
      </trkpt>
      <trkpt lat="50.99054" lon="2.09351">
        <ele>2.1</ele>
        <time>2020-06-23T09:11:05Z</time>
      </trkpt>
      <trkpt lat="50.99056" lon="2.09361">
        <ele>2.1</ele>
        <time>2020-06-23T09:11:06Z</time>
      </trkpt>
      <trkpt lat="50.99058" lon="2.09372">
        <ele>2.1</ele>
        <time>2020-06-23T09:11:07Z</time>
      </trkpt>
      <trkpt lat="50.99059" lon="2.09381">
        <ele>2.1</ele>
        <time>2020-06-23T09:11:08Z</time>
      </trkpt>
      <trkpt lat="50.9906" lon="2.09391">
        <ele>2.1</ele>
        <time>2020-06-23T09:11:09Z</time>
      </trkpt>
      <trkpt lat="50.99062" lon="2.09401">
        <ele>2.1</ele>
        <time>2020-06-23T09:11:10Z</time>
      </trkpt>
      <trkpt lat="50.99064" lon="2.09411">
        <ele>2.1</ele>
        <time>2020-06-23T09:11:11Z</time>
      </trkpt>
      <trkpt lat="50.99066" lon="2.09423">
        <ele>2.1</ele>
        <time>2020-06-23T09:11:12Z</time>
      </trkpt>
      <trkpt lat="50.99068" lon="2.09433">
        <ele>2.1</ele>
        <time>2020-06-23T09:11:13Z</time>
      </trkpt>
      <trkpt lat="50.99069" lon="2.09443">
        <ele>2.1</ele>
        <time>2020-06-23T09:11:14Z</time>
      </trkpt>
      <trkpt lat="50.99069" lon="2.09452">
        <ele>2.1</ele>
        <time>2020-06-23T09:11:15Z</time>
      </trkpt>
      <trkpt lat="50.99071" lon="2.09461">
        <ele>2.1</ele>
        <time>2020-06-23T09:11:16Z</time>
      </trkpt>
      <trkpt lat="50.99071" lon="2.0947">
        <ele>2.1</ele>
        <time>2020-06-23T09:11:17Z</time>
      </trkpt>
      <trkpt lat="50.99073" lon="2.0948">
        <ele>2.1</ele>
        <time>2020-06-23T09:11:18Z</time>
      </trkpt>
      <trkpt lat="50.99075" lon="2.09491">
        <ele>2</ele>
        <time>2020-06-23T09:11:19Z</time>
      </trkpt>
      <trkpt lat="50.99077" lon="2.09502">
        <ele>2</ele>
        <time>2020-06-23T09:11:20Z</time>
      </trkpt>
      <trkpt lat="50.99079" lon="2.09514">
        <ele>2</ele>
        <time>2020-06-23T09:11:21Z</time>
      </trkpt>
      <trkpt lat="50.99081" lon="2.09525">
        <ele>2</ele>
        <time>2020-06-23T09:11:22Z</time>
      </trkpt>
      <trkpt lat="50.99083" lon="2.09537">
        <ele>2</ele>
        <time>2020-06-23T09:11:23Z</time>
      </trkpt>
      <trkpt lat="50.99084" lon="2.09547">
        <ele>2</ele>
        <time>2020-06-23T09:11:24Z</time>
      </trkpt>
      <trkpt lat="50.99086" lon="2.09558">
        <ele>2.1</ele>
        <time>2020-06-23T09:11:25Z</time>
      </trkpt>
      <trkpt lat="50.99088" lon="2.09568">
        <ele>2.1</ele>
        <time>2020-06-23T09:11:26Z</time>
      </trkpt>
      <trkpt lat="50.99089" lon="2.09578">
        <ele>2.1</ele>
        <time>2020-06-23T09:11:27Z</time>
      </trkpt>
      <trkpt lat="50.99091" lon="2.09588">
        <ele>2</ele>
        <time>2020-06-23T09:11:28Z</time>
      </trkpt>
      <trkpt lat="50.99093" lon="2.09598">
        <ele>2</ele>
        <time>2020-06-23T09:11:29Z</time>
      </trkpt>
      <trkpt lat="50.99094" lon="2.09608">
        <ele>2</ele>
        <time>2020-06-23T09:11:30Z</time>
      </trkpt>
      <trkpt lat="50.99095" lon="2.09617">
        <ele>2</ele>
        <time>2020-06-23T09:11:31Z</time>
      </trkpt>
      <trkpt lat="50.99097" lon="2.09628">
        <ele>2</ele>
        <time>2020-06-23T09:11:32Z</time>
      </trkpt>
      <trkpt lat="50.99099" lon="2.09639">
        <ele>2.1</ele>
        <time>2020-06-23T09:11:33Z</time>
      </trkpt>
      <trkpt lat="50.991" lon="2.09649">
        <ele>2</ele>
        <time>2020-06-23T09:11:34Z</time>
      </trkpt>
      <trkpt lat="50.991" lon="2.0966">
        <ele>2</ele>
        <time>2020-06-23T09:11:35Z</time>
      </trkpt>
      <trkpt lat="50.99101" lon="2.0967">
        <ele>2</ele>
        <time>2020-06-23T09:11:36Z</time>
      </trkpt>
      <trkpt lat="50.99101" lon="2.09681">
        <ele>2</ele>
        <time>2020-06-23T09:11:37Z</time>
      </trkpt>
      <trkpt lat="50.99101" lon="2.09691">
        <ele>2.1</ele>
        <time>2020-06-23T09:11:38Z</time>
      </trkpt>
      <trkpt lat="50.99101" lon="2.09701">
        <ele>2.1</ele>
        <time>2020-06-23T09:11:39Z</time>
      </trkpt>
      <trkpt lat="50.99101" lon="2.09712">
        <ele>2.1</ele>
        <time>2020-06-23T09:11:40Z</time>
      </trkpt>
      <trkpt lat="50.99102" lon="2.09722">
        <ele>2.1</ele>
        <time>2020-06-23T09:11:41Z</time>
      </trkpt>
      <trkpt lat="50.99102" lon="2.09732">
        <ele>2.1</ele>
        <time>2020-06-23T09:11:42Z</time>
      </trkpt>
      <trkpt lat="50.99101" lon="2.09742">
        <ele>2.1</ele>
        <time>2020-06-23T09:11:43Z</time>
      </trkpt>
      <trkpt lat="50.99101" lon="2.09752">
        <ele>2.1</ele>
        <time>2020-06-23T09:11:44Z</time>
      </trkpt>
      <trkpt lat="50.99101" lon="2.09762">
        <ele>2.2</ele>
        <time>2020-06-23T09:11:45Z</time>
      </trkpt>
      <trkpt lat="50.991" lon="2.09773">
        <ele>2.2</ele>
        <time>2020-06-23T09:11:46Z</time>
      </trkpt>
      <trkpt lat="50.99099" lon="2.09783">
        <ele>2.3</ele>
        <time>2020-06-23T09:11:47Z</time>
      </trkpt>
      <trkpt lat="50.99098" lon="2.09792">
        <ele>2.4</ele>
        <time>2020-06-23T09:11:48Z</time>
      </trkpt>
      <trkpt lat="50.99097" lon="2.09802">
        <ele>2.4</ele>
        <time>2020-06-23T09:11:49Z</time>
      </trkpt>
      <trkpt lat="50.99096" lon="2.09812">
        <ele>2.4</ele>
        <time>2020-06-23T09:11:50Z</time>
      </trkpt>
      <trkpt lat="50.99095" lon="2.09823">
        <ele>2.5</ele>
        <time>2020-06-23T09:11:51Z</time>
      </trkpt>
      <trkpt lat="50.99093" lon="2.09833">
        <ele>2.5</ele>
        <time>2020-06-23T09:11:52Z</time>
      </trkpt>
      <trkpt lat="50.99092" lon="2.09843">
        <ele>2.5</ele>
        <time>2020-06-23T09:11:53Z</time>
      </trkpt>
      <trkpt lat="50.99091" lon="2.09853">
        <ele>2.4</ele>
        <time>2020-06-23T09:11:54Z</time>
      </trkpt>
      <trkpt lat="50.99089" lon="2.09863">
        <ele>2.4</ele>
        <time>2020-06-23T09:11:55Z</time>
      </trkpt>
      <trkpt lat="50.99088" lon="2.09872">
        <ele>2.4</ele>
        <time>2020-06-23T09:11:56Z</time>
      </trkpt>
      <trkpt lat="50.99086" lon="2.09882">
        <ele>2.5</ele>
        <time>2020-06-23T09:11:57Z</time>
      </trkpt>
      <trkpt lat="50.99084" lon="2.09893">
        <ele>2.5</ele>
        <time>2020-06-23T09:11:58Z</time>
      </trkpt>
      <trkpt lat="50.99082" lon="2.09904">
        <ele>2.5</ele>
        <time>2020-06-23T09:11:59Z</time>
      </trkpt>
      <trkpt lat="50.99079" lon="2.09915">
        <ele>2.5</ele>
        <time>2020-06-23T09:12:00Z</time>
      </trkpt>
      <trkpt lat="50.99077" lon="2.09925">
        <ele>2.5</ele>
        <time>2020-06-23T09:12:01Z</time>
      </trkpt>
      <trkpt lat="50.99075" lon="2.09932">
        <ele>2.5</ele>
        <time>2020-06-23T09:12:02Z</time>
      </trkpt>
      <trkpt lat="50.99073" lon="2.09941">
        <ele>2.5</ele>
        <time>2020-06-23T09:12:03Z</time>
      </trkpt>
      <trkpt lat="50.9907" lon="2.0995">
        <ele>2.5</ele>
        <time>2020-06-23T09:12:04Z</time>
      </trkpt>
      <trkpt lat="50.99068" lon="2.09959">
        <ele>2.5</ele>
        <time>2020-06-23T09:12:05Z</time>
      </trkpt>
      <trkpt lat="50.99066" lon="2.09967">
        <ele>2.5</ele>
        <time>2020-06-23T09:12:06Z</time>
      </trkpt>
      <trkpt lat="50.99064" lon="2.09976">
        <ele>2.5</ele>
        <time>2020-06-23T09:12:07Z</time>
      </trkpt>
      <trkpt lat="50.99063" lon="2.09984">
        <ele>2.5</ele>
        <time>2020-06-23T09:12:08Z</time>
      </trkpt>
      <trkpt lat="50.99061" lon="2.09993">
        <ele>2.5</ele>
        <time>2020-06-23T09:12:09Z</time>
      </trkpt>
      <trkpt lat="50.99059" lon="2.10003">
        <ele>2.5</ele>
        <time>2020-06-23T09:12:10Z</time>
      </trkpt>
      <trkpt lat="50.99056" lon="2.10013">
        <ele>2.5</ele>
        <time>2020-06-23T09:12:11Z</time>
      </trkpt>
      <trkpt lat="50.99054" lon="2.10022">
        <ele>2.5</ele>
        <time>2020-06-23T09:12:12Z</time>
      </trkpt>
      <trkpt lat="50.99052" lon="2.10033">
        <ele>2.5</ele>
        <time>2020-06-23T09:12:13Z</time>
      </trkpt>
      <trkpt lat="50.99049" lon="2.10043">
        <ele>2.5</ele>
        <time>2020-06-23T09:12:14Z</time>
      </trkpt>
      <trkpt lat="50.99047" lon="2.10053">
        <ele>2.5</ele>
        <time>2020-06-23T09:12:15Z</time>
      </trkpt>
      <trkpt lat="50.99043" lon="2.10063">
        <ele>2.5</ele>
        <time>2020-06-23T09:12:16Z</time>
      </trkpt>
      <trkpt lat="50.99041" lon="2.10073">
        <ele>2.5</ele>
        <time>2020-06-23T09:12:17Z</time>
      </trkpt>
      <trkpt lat="50.99038" lon="2.10083">
        <ele>2.6</ele>
        <time>2020-06-23T09:12:18Z</time>
      </trkpt>
      <trkpt lat="50.99035" lon="2.10094">
        <ele>2.6</ele>
        <time>2020-06-23T09:12:19Z</time>
      </trkpt>
      <trkpt lat="50.99031" lon="2.10103">
        <ele>2.6</ele>
        <time>2020-06-23T09:12:20Z</time>
      </trkpt>
      <trkpt lat="50.99028" lon="2.10112">
        <ele>2.6</ele>
        <time>2020-06-23T09:12:21Z</time>
      </trkpt>
      <trkpt lat="50.99025" lon="2.10122">
        <ele>2.6</ele>
        <time>2020-06-23T09:12:22Z</time>
      </trkpt>
      <trkpt lat="50.99021" lon="2.10132">
        <ele>2.6</ele>
        <time>2020-06-23T09:12:23Z</time>
      </trkpt>
      <trkpt lat="50.99017" lon="2.10141">
        <ele>2.6</ele>
        <time>2020-06-23T09:12:24Z</time>
      </trkpt>
      <trkpt lat="50.99013" lon="2.1015">
        <ele>2.6</ele>
        <time>2020-06-23T09:12:25Z</time>
      </trkpt>
      <trkpt lat="50.99009" lon="2.10159">
        <ele>2.6</ele>
        <time>2020-06-23T09:12:26Z</time>
      </trkpt>
      <trkpt lat="50.99005" lon="2.10168">
        <ele>2.6</ele>
        <time>2020-06-23T09:12:27Z</time>
      </trkpt>
      <trkpt lat="50.99002" lon="2.10177">
        <ele>2.6</ele>
        <time>2020-06-23T09:12:28Z</time>
      </trkpt>
      <trkpt lat="50.98999" lon="2.10186">
        <ele>2.6</ele>
        <time>2020-06-23T09:12:29Z</time>
      </trkpt>
      <trkpt lat="50.98995" lon="2.10195">
        <ele>2.6</ele>
        <time>2020-06-23T09:12:30Z</time>
      </trkpt>
      <trkpt lat="50.98993" lon="2.10205">
        <ele>2.6</ele>
        <time>2020-06-23T09:12:31Z</time>
      </trkpt>
      <trkpt lat="50.9899" lon="2.10215">
        <ele>2.6</ele>
        <time>2020-06-23T09:12:32Z</time>
      </trkpt>
      <trkpt lat="50.98988" lon="2.10224">
        <ele>2.6</ele>
        <time>2020-06-23T09:12:33Z</time>
      </trkpt>
      <trkpt lat="50.98986" lon="2.10234">
        <ele>2.6</ele>
        <time>2020-06-23T09:12:34Z</time>
      </trkpt>
      <trkpt lat="50.98984" lon="2.10244">
        <ele>2.5</ele>
        <time>2020-06-23T09:12:35Z</time>
      </trkpt>
      <trkpt lat="50.98981" lon="2.10254">
        <ele>2.5</ele>
        <time>2020-06-23T09:12:36Z</time>
      </trkpt>
      <trkpt lat="50.9898" lon="2.10264">
        <ele>2.5</ele>
        <time>2020-06-23T09:12:37Z</time>
      </trkpt>
      <trkpt lat="50.98979" lon="2.10275">
        <ele>2.5</ele>
        <time>2020-06-23T09:12:38Z</time>
      </trkpt>
      <trkpt lat="50.98978" lon="2.10285">
        <ele>2.5</ele>
        <time>2020-06-23T09:12:39Z</time>
      </trkpt>
      <trkpt lat="50.98976" lon="2.10296">
        <ele>2.5</ele>
        <time>2020-06-23T09:12:40Z</time>
      </trkpt>
      <trkpt lat="50.98974" lon="2.10306">
        <ele>2.5</ele>
        <time>2020-06-23T09:12:41Z</time>
      </trkpt>
      <trkpt lat="50.98972" lon="2.10316">
        <ele>2.4</ele>
        <time>2020-06-23T09:12:42Z</time>
      </trkpt>
      <trkpt lat="50.9897" lon="2.10327">
        <ele>2.5</ele>
        <time>2020-06-23T09:12:43Z</time>
      </trkpt>
      <trkpt lat="50.98969" lon="2.10337">
        <ele>2.5</ele>
        <time>2020-06-23T09:12:44Z</time>
      </trkpt>
      <trkpt lat="50.98967" lon="2.10348">
        <ele>2.5</ele>
        <time>2020-06-23T09:12:45Z</time>
      </trkpt>
      <trkpt lat="50.98966" lon="2.10358">
        <ele>2.5</ele>
        <time>2020-06-23T09:12:46Z</time>
      </trkpt>
      <trkpt lat="50.98964" lon="2.10369">
        <ele>2.5</ele>
        <time>2020-06-23T09:12:47Z</time>
      </trkpt>
      <trkpt lat="50.98963" lon="2.10379">
        <ele>2.5</ele>
        <time>2020-06-23T09:12:48Z</time>
      </trkpt>
      <trkpt lat="50.98962" lon="2.10389">
        <ele>2.5</ele>
        <time>2020-06-23T09:12:49Z</time>
      </trkpt>
      <trkpt lat="50.98961" lon="2.104">
        <ele>2.5</ele>
        <time>2020-06-23T09:12:50Z</time>
      </trkpt>
      <trkpt lat="50.9896" lon="2.1041">
        <ele>2.5</ele>
        <time>2020-06-23T09:12:51Z</time>
      </trkpt>
      <trkpt lat="50.98959" lon="2.1042">
        <ele>2.5</ele>
        <time>2020-06-23T09:12:52Z</time>
      </trkpt>
      <trkpt lat="50.98957" lon="2.10431">
        <ele>2.5</ele>
        <time>2020-06-23T09:12:53Z</time>
      </trkpt>
      <trkpt lat="50.98956" lon="2.10441">
        <ele>2.5</ele>
        <time>2020-06-23T09:12:54Z</time>
      </trkpt>
      <trkpt lat="50.98955" lon="2.10452">
        <ele>2.4</ele>
        <time>2020-06-23T09:12:55Z</time>
      </trkpt>
      <trkpt lat="50.98953" lon="2.10462">
        <ele>2.4</ele>
        <time>2020-06-23T09:12:56Z</time>
      </trkpt>
      <trkpt lat="50.98951" lon="2.10472">
        <ele>2.4</ele>
        <time>2020-06-23T09:12:57Z</time>
      </trkpt>
      <trkpt lat="50.98949" lon="2.10483">
        <ele>2.4</ele>
        <time>2020-06-23T09:12:58Z</time>
      </trkpt>
      <trkpt lat="50.98948" lon="2.10493">
        <ele>2.4</ele>
        <time>2020-06-23T09:12:59Z</time>
      </trkpt>
      <trkpt lat="50.98946" lon="2.10504">
        <ele>2.4</ele>
        <time>2020-06-23T09:13:00Z</time>
      </trkpt>
      <trkpt lat="50.98945" lon="2.10514">
        <ele>2.4</ele>
        <time>2020-06-23T09:13:01Z</time>
      </trkpt>
      <trkpt lat="50.98943" lon="2.10525">
        <ele>2.4</ele>
        <time>2020-06-23T09:13:02Z</time>
      </trkpt>
      <trkpt lat="50.98941" lon="2.10535">
        <ele>2.4</ele>
        <time>2020-06-23T09:13:03Z</time>
      </trkpt>
      <trkpt lat="50.98939" lon="2.10545">
        <ele>2.4</ele>
        <time>2020-06-23T09:13:04Z</time>
      </trkpt>
      <trkpt lat="50.98938" lon="2.10555">
        <ele>2.4</ele>
        <time>2020-06-23T09:13:05Z</time>
      </trkpt>
      <trkpt lat="50.98936" lon="2.10565">
        <ele>2.4</ele>
        <time>2020-06-23T09:13:06Z</time>
      </trkpt>
      <trkpt lat="50.98934" lon="2.10574">
        <ele>2.4</ele>
        <time>2020-06-23T09:13:07Z</time>
      </trkpt>
      <trkpt lat="50.98931" lon="2.10583">
        <ele>2.5</ele>
        <time>2020-06-23T09:13:08Z</time>
      </trkpt>
      <trkpt lat="50.98929" lon="2.10593">
        <ele>2.5</ele>
        <time>2020-06-23T09:13:09Z</time>
      </trkpt>
      <trkpt lat="50.98928" lon="2.10603">
        <ele>2.5</ele>
        <time>2020-06-23T09:13:10Z</time>
      </trkpt>
      <trkpt lat="50.98925" lon="2.10614">
        <ele>2.6</ele>
        <time>2020-06-23T09:13:11Z</time>
      </trkpt>
      <trkpt lat="50.98924" lon="2.10624">
        <ele>2.6</ele>
        <time>2020-06-23T09:13:12Z</time>
      </trkpt>
      <trkpt lat="50.98923" lon="2.10634">
        <ele>2.6</ele>
        <time>2020-06-23T09:13:13Z</time>
      </trkpt>
      <trkpt lat="50.98921" lon="2.10644">
        <ele>2.6</ele>
        <time>2020-06-23T09:13:14Z</time>
      </trkpt>
      <trkpt lat="50.98919" lon="2.10654">
        <ele>2.6</ele>
        <time>2020-06-23T09:13:15Z</time>
      </trkpt>
      <trkpt lat="50.98917" lon="2.10665">
        <ele>2.5</ele>
        <time>2020-06-23T09:13:16Z</time>
      </trkpt>
      <trkpt lat="50.98915" lon="2.10675">
        <ele>2.5</ele>
        <time>2020-06-23T09:13:17Z</time>
      </trkpt>
      <trkpt lat="50.98913" lon="2.10685">
        <ele>2.5</ele>
        <time>2020-06-23T09:13:18Z</time>
      </trkpt>
      <trkpt lat="50.98911" lon="2.10694">
        <ele>2.5</ele>
        <time>2020-06-23T09:13:19Z</time>
      </trkpt>
      <trkpt lat="50.9891" lon="2.10704">
        <ele>2.5</ele>
        <time>2020-06-23T09:13:20Z</time>
      </trkpt>
      <trkpt lat="50.98907" lon="2.10713">
        <ele>2.4</ele>
        <time>2020-06-23T09:13:21Z</time>
      </trkpt>
      <trkpt lat="50.98905" lon="2.10723">
        <ele>2.4</ele>
        <time>2020-06-23T09:13:22Z</time>
      </trkpt>
      <trkpt lat="50.98902" lon="2.10733">
        <ele>2.4</ele>
        <time>2020-06-23T09:13:23Z</time>
      </trkpt>
      <trkpt lat="50.989" lon="2.10743">
        <ele>2.5</ele>
        <time>2020-06-23T09:13:24Z</time>
      </trkpt>
      <trkpt lat="50.98898" lon="2.10754">
        <ele>2.5</ele>
        <time>2020-06-23T09:13:25Z</time>
      </trkpt>
      <trkpt lat="50.98896" lon="2.10764">
        <ele>2.4</ele>
        <time>2020-06-23T09:13:26Z</time>
      </trkpt>
      <trkpt lat="50.98895" lon="2.10775">
        <ele>2.4</ele>
        <time>2020-06-23T09:13:27Z</time>
      </trkpt>
      <trkpt lat="50.98893" lon="2.10786">
        <ele>2.3</ele>
        <time>2020-06-23T09:13:28Z</time>
      </trkpt>
      <trkpt lat="50.98892" lon="2.10797">
        <ele>2.3</ele>
        <time>2020-06-23T09:13:29Z</time>
      </trkpt>
      <trkpt lat="50.98891" lon="2.10807">
        <ele>2.3</ele>
        <time>2020-06-23T09:13:30Z</time>
      </trkpt>
      <trkpt lat="50.98889" lon="2.10818">
        <ele>2.2</ele>
        <time>2020-06-23T09:13:31Z</time>
      </trkpt>
      <trkpt lat="50.98886" lon="2.10828">
        <ele>2.2</ele>
        <time>2020-06-23T09:13:32Z</time>
      </trkpt>
      <trkpt lat="50.98885" lon="2.10838">
        <ele>2.2</ele>
        <time>2020-06-23T09:13:33Z</time>
      </trkpt>
      <trkpt lat="50.98883" lon="2.10848">
        <ele>2.2</ele>
        <time>2020-06-23T09:13:34Z</time>
      </trkpt>
      <trkpt lat="50.98881" lon="2.10857">
        <ele>2.2</ele>
        <time>2020-06-23T09:13:35Z</time>
      </trkpt>
      <trkpt lat="50.98879" lon="2.10867">
        <ele>2.2</ele>
        <time>2020-06-23T09:13:36Z</time>
      </trkpt>
      <trkpt lat="50.98877" lon="2.10877">
        <ele>2.2</ele>
        <time>2020-06-23T09:13:37Z</time>
      </trkpt>
      <trkpt lat="50.98874" lon="2.10887">
        <ele>2.3</ele>
        <time>2020-06-23T09:13:38Z</time>
      </trkpt>
      <trkpt lat="50.98872" lon="2.10896">
        <ele>2.3</ele>
        <time>2020-06-23T09:13:39Z</time>
      </trkpt>
      <trkpt lat="50.9887" lon="2.10906">
        <ele>2.3</ele>
        <time>2020-06-23T09:13:40Z</time>
      </trkpt>
      <trkpt lat="50.98868" lon="2.10916">
        <ele>2.3</ele>
        <time>2020-06-23T09:13:41Z</time>
      </trkpt>
      <trkpt lat="50.98866" lon="2.10926">
        <ele>2.4</ele>
        <time>2020-06-23T09:13:42Z</time>
      </trkpt>
      <trkpt lat="50.98864" lon="2.10936">
        <ele>2.4</ele>
        <time>2020-06-23T09:13:43Z</time>
      </trkpt>
      <trkpt lat="50.98862" lon="2.10945">
        <ele>2.5</ele>
        <time>2020-06-23T09:13:44Z</time>
      </trkpt>
      <trkpt lat="50.9886" lon="2.10954">
        <ele>2.6</ele>
        <time>2020-06-23T09:13:45Z</time>
      </trkpt>
      <trkpt lat="50.98858" lon="2.10964">
        <ele>2.6</ele>
        <time>2020-06-23T09:13:46Z</time>
      </trkpt>
      <trkpt lat="50.98856" lon="2.10973">
        <ele>2.7</ele>
        <time>2020-06-23T09:13:47Z</time>
      </trkpt>
      <trkpt lat="50.98855" lon="2.10982">
        <ele>2.7</ele>
        <time>2020-06-23T09:13:48Z</time>
      </trkpt>
      <trkpt lat="50.98854" lon="2.10991">
        <ele>2.8</ele>
        <time>2020-06-23T09:13:49Z</time>
      </trkpt>
      <trkpt lat="50.98852" lon="2.10999">
        <ele>2.8</ele>
        <time>2020-06-23T09:13:50Z</time>
      </trkpt>
      <trkpt lat="50.9885" lon="2.11007">
        <ele>2.8</ele>
        <time>2020-06-23T09:13:51Z</time>
      </trkpt>
      <trkpt lat="50.98849" lon="2.11014">
        <ele>2.9</ele>
        <time>2020-06-23T09:13:52Z</time>
      </trkpt>
      <trkpt lat="50.98848" lon="2.11022">
        <ele>2.9</ele>
        <time>2020-06-23T09:13:53Z</time>
      </trkpt>
      <trkpt lat="50.98846" lon="2.11029">
        <ele>3</ele>
        <time>2020-06-23T09:13:54Z</time>
      </trkpt>
      <trkpt lat="50.98845" lon="2.11036">
        <ele>3.1</ele>
        <time>2020-06-23T09:13:55Z</time>
      </trkpt>
      <trkpt lat="50.98843" lon="2.11042">
        <ele>3.1</ele>
        <time>2020-06-23T09:13:56Z</time>
      </trkpt>
      <trkpt lat="50.98842" lon="2.11048">
        <ele>3.2</ele>
        <time>2020-06-23T09:13:57Z</time>
      </trkpt>
      <trkpt lat="50.9884" lon="2.11052">
        <ele>3.3</ele>
        <time>2020-06-23T09:13:58Z</time>
      </trkpt>
      <trkpt lat="50.98839" lon="2.11057">
        <ele>3.5</ele>
        <time>2020-06-23T09:13:59Z</time>
      </trkpt>
      <trkpt lat="50.98839" lon="2.11059">
        <ele>3.5</ele>
        <time>2020-06-23T09:14:00Z</time>
      </trkpt>
      <trkpt lat="50.98838" lon="2.11061">
        <ele>3.5</ele>
        <time>2020-06-23T09:14:01Z</time>
      </trkpt>
      <trkpt lat="50.98839" lon="2.11063">
        <ele>3.5</ele>
        <time>2020-06-23T09:14:02Z</time>
      </trkpt>
      <trkpt lat="50.98839" lon="2.11064">
        <ele>3.5</ele>
        <time>2020-06-23T09:14:03Z</time>
      </trkpt>
      <trkpt lat="50.98836" lon="2.11067">
        <ele>3.5</ele>
        <time>2020-06-23T09:14:04Z</time>
      </trkpt>
      <trkpt lat="50.98836" lon="2.11068">
        <ele>3.5</ele>
        <time>2020-06-23T09:14:05Z</time>
      </trkpt>
      <trkpt lat="50.98835" lon="2.11073">
        <ele>3.5</ele>
        <time>2020-06-23T09:14:06Z</time>
      </trkpt>
      <trkpt lat="50.98835" lon="2.11075">
        <ele>3.4</ele>
        <time>2020-06-23T09:14:07Z</time>
      </trkpt>
      <trkpt lat="50.98834" lon="2.1108">
        <ele>3.4</ele>
        <time>2020-06-23T09:14:08Z</time>
      </trkpt>
      <trkpt lat="50.98834" lon="2.11087">
        <ele>3.3</ele>
        <time>2020-06-23T09:14:09Z</time>
      </trkpt>
      <trkpt lat="50.98835" lon="2.11094">
        <ele>3.2</ele>
        <time>2020-06-23T09:14:10Z</time>
      </trkpt>
      <trkpt lat="50.98836" lon="2.11102">
        <ele>3.1</ele>
        <time>2020-06-23T09:14:11Z</time>
      </trkpt>
      <trkpt lat="50.98837" lon="2.1111">
        <ele>2.9</ele>
        <time>2020-06-23T09:14:12Z</time>
      </trkpt>
      <trkpt lat="50.98839" lon="2.11117">
        <ele>2.8</ele>
        <time>2020-06-23T09:14:13Z</time>
      </trkpt>
      <trkpt lat="50.9884" lon="2.11124">
        <ele>2.7</ele>
        <time>2020-06-23T09:14:14Z</time>
      </trkpt>
      <trkpt lat="50.98841" lon="2.11131">
        <ele>2.6</ele>
        <time>2020-06-23T09:14:15Z</time>
      </trkpt>
      <trkpt lat="50.98845" lon="2.11137">
        <ele>2.5</ele>
        <time>2020-06-23T09:14:16Z</time>
      </trkpt>
      <trkpt lat="50.98848" lon="2.11143">
        <ele>2.4</ele>
        <time>2020-06-23T09:14:17Z</time>
      </trkpt>
      <trkpt lat="50.98851" lon="2.11149">
        <ele>2.4</ele>
        <time>2020-06-23T09:14:18Z</time>
      </trkpt>
      <trkpt lat="50.98853" lon="2.11156">
        <ele>2.3</ele>
        <time>2020-06-23T09:14:19Z</time>
      </trkpt>
      <trkpt lat="50.98855" lon="2.11162">
        <ele>2.3</ele>
        <time>2020-06-23T09:14:20Z</time>
      </trkpt>
      <trkpt lat="50.98858" lon="2.11169">
        <ele>2.3</ele>
        <time>2020-06-23T09:14:21Z</time>
      </trkpt>
      <trkpt lat="50.9886" lon="2.11175">
        <ele>2.3</ele>
        <time>2020-06-23T09:14:22Z</time>
      </trkpt>
      <trkpt lat="50.98863" lon="2.11181">
        <ele>2.3</ele>
        <time>2020-06-23T09:14:23Z</time>
      </trkpt>
      <trkpt lat="50.98866" lon="2.11187">
        <ele>2.3</ele>
        <time>2020-06-23T09:14:24Z</time>
      </trkpt>
      <trkpt lat="50.98868" lon="2.11193">
        <ele>2.2</ele>
        <time>2020-06-23T09:14:25Z</time>
      </trkpt>
      <trkpt lat="50.98871" lon="2.11198">
        <ele>2.2</ele>
        <time>2020-06-23T09:14:26Z</time>
      </trkpt>
      <trkpt lat="50.98874" lon="2.11202">
        <ele>2.2</ele>
        <time>2020-06-23T09:14:27Z</time>
      </trkpt>
      <trkpt lat="50.98877" lon="2.11207">
        <ele>2.2</ele>
        <time>2020-06-23T09:14:28Z</time>
      </trkpt>
      <trkpt lat="50.9888" lon="2.11211">
        <ele>2.2</ele>
        <time>2020-06-23T09:14:29Z</time>
      </trkpt>
      <trkpt lat="50.98882" lon="2.11216">
        <ele>2.2</ele>
        <time>2020-06-23T09:14:30Z</time>
      </trkpt>
      <trkpt lat="50.98884" lon="2.11221">
        <ele>2.2</ele>
        <time>2020-06-23T09:14:31Z</time>
      </trkpt>
      <trkpt lat="50.98886" lon="2.11226">
        <ele>2.3</ele>
        <time>2020-06-23T09:14:32Z</time>
      </trkpt>
      <trkpt lat="50.98889" lon="2.1123">
        <ele>2.3</ele>
        <time>2020-06-23T09:14:33Z</time>
      </trkpt>
      <trkpt lat="50.98891" lon="2.11235">
        <ele>2.4</ele>
        <time>2020-06-23T09:14:34Z</time>
      </trkpt>
      <trkpt lat="50.98893" lon="2.1124">
        <ele>2.4</ele>
        <time>2020-06-23T09:14:35Z</time>
      </trkpt>
      <trkpt lat="50.98895" lon="2.11244">
        <ele>2.5</ele>
        <time>2020-06-23T09:14:36Z</time>
      </trkpt>
      <trkpt lat="50.98897" lon="2.11248">
        <ele>2.5</ele>
        <time>2020-06-23T09:14:37Z</time>
      </trkpt>
      <trkpt lat="50.989" lon="2.11253">
        <ele>2.6</ele>
        <time>2020-06-23T09:14:38Z</time>
      </trkpt>
      <trkpt lat="50.98902" lon="2.11259">
        <ele>2.6</ele>
        <time>2020-06-23T09:14:39Z</time>
      </trkpt>
      <trkpt lat="50.98904" lon="2.11264">
        <ele>2.7</ele>
        <time>2020-06-23T09:14:40Z</time>
      </trkpt>
      <trkpt lat="50.98906" lon="2.11269">
        <ele>2.7</ele>
        <time>2020-06-23T09:14:41Z</time>
      </trkpt>
      <trkpt lat="50.98909" lon="2.11273">
        <ele>2.8</ele>
        <time>2020-06-23T09:14:42Z</time>
      </trkpt>
      <trkpt lat="50.98912" lon="2.11278">
        <ele>2.8</ele>
        <time>2020-06-23T09:14:43Z</time>
      </trkpt>
      <trkpt lat="50.98915" lon="2.1128">
        <ele>2.9</ele>
        <time>2020-06-23T09:14:44Z</time>
      </trkpt>
      <trkpt lat="50.98918" lon="2.11281">
        <ele>2.9</ele>
        <time>2020-06-23T09:14:45Z</time>
      </trkpt>
      <trkpt lat="50.98921" lon="2.11282">
        <ele>2.9</ele>
        <time>2020-06-23T09:14:46Z</time>
      </trkpt>
      <trkpt lat="50.98925" lon="2.1128">
        <ele>2.9</ele>
        <time>2020-06-23T09:14:47Z</time>
      </trkpt>
      <trkpt lat="50.98928" lon="2.1128">
        <ele>2.9</ele>
        <time>2020-06-23T09:14:48Z</time>
      </trkpt>
      <trkpt lat="50.98932" lon="2.11278">
        <ele>2.9</ele>
        <time>2020-06-23T09:14:49Z</time>
      </trkpt>
      <trkpt lat="50.98935" lon="2.11277">
        <ele>2.9</ele>
        <time>2020-06-23T09:14:50Z</time>
      </trkpt>
      <trkpt lat="50.98938" lon="2.11274">
        <ele>2.8</ele>
        <time>2020-06-23T09:14:51Z</time>
      </trkpt>
      <trkpt lat="50.98939" lon="2.11274">
        <ele>2.8</ele>
        <time>2020-06-23T09:14:52Z</time>
      </trkpt>
      <trkpt lat="50.9894" lon="2.11273">
        <ele>2.8</ele>
        <time>2020-06-23T09:14:53Z</time>
      </trkpt>
      <trkpt lat="50.9894" lon="2.11271">
        <ele>2.8</ele>
        <time>2020-06-23T09:14:54Z</time>
      </trkpt>
      <trkpt lat="50.98941" lon="2.11269">
        <ele>2.8</ele>
        <time>2020-06-23T09:14:55Z</time>
      </trkpt>
      <trkpt lat="50.98941" lon="2.11262">
        <ele>2.9</ele>
        <time>2020-06-23T09:14:56Z</time>
      </trkpt>
      <trkpt lat="50.98941" lon="2.1126">
        <ele>2.9</ele>
        <time>2020-06-23T09:14:57Z</time>
      </trkpt>
      <trkpt lat="50.9894" lon="2.11254">
        <ele>2.9</ele>
        <time>2020-06-23T09:14:58Z</time>
      </trkpt>
      <trkpt lat="50.98939" lon="2.11248">
        <ele>2.9</ele>
        <time>2020-06-23T09:14:59Z</time>
      </trkpt>
      <trkpt lat="50.98938" lon="2.11243">
        <ele>2.9</ele>
        <time>2020-06-23T09:15:00Z</time>
      </trkpt>
      <trkpt lat="50.98937" lon="2.11238">
        <ele>2.9</ele>
        <time>2020-06-23T09:15:01Z</time>
      </trkpt>
      <trkpt lat="50.98934" lon="2.11233">
        <ele>2.9</ele>
        <time>2020-06-23T09:15:02Z</time>
      </trkpt>
      <trkpt lat="50.98934" lon="2.11232">
        <ele>2.9</ele>
        <time>2020-06-23T09:15:03Z</time>
      </trkpt>
      <trkpt lat="50.98932" lon="2.11227">
        <ele>2.9</ele>
        <time>2020-06-23T09:15:04Z</time>
      </trkpt>
      <trkpt lat="50.98931" lon="2.11225">
        <ele>2.9</ele>
        <time>2020-06-23T09:15:05Z</time>
      </trkpt>
      <trkpt lat="50.98929" lon="2.11222">
        <ele>2.9</ele>
        <time>2020-06-23T09:15:06Z</time>
      </trkpt>
      <trkpt lat="50.98928" lon="2.11222">
        <ele>2.9</ele>
        <time>2020-06-23T09:15:07Z</time>
      </trkpt>
      <trkpt lat="50.98927" lon="2.1122">
        <ele>2.9</ele>
        <time>2020-06-23T09:15:08Z</time>
      </trkpt>
      <trkpt lat="50.98926" lon="2.11217">
        <ele>2.9</ele>
        <time>2020-06-23T09:15:09Z</time>
      </trkpt>
      <trkpt lat="50.98925" lon="2.11213">
        <ele>2.9</ele>
        <time>2020-06-23T09:15:10Z</time>
      </trkpt>
      <trkpt lat="50.98925" lon="2.11211">
        <ele>2.9</ele>
        <time>2020-06-23T09:15:11Z</time>
      </trkpt>
      <trkpt lat="50.98923" lon="2.11206">
        <ele>2.9</ele>
        <time>2020-06-23T09:15:12Z</time>
      </trkpt>
      <trkpt lat="50.98922" lon="2.11204">
        <ele>2.9</ele>
        <time>2020-06-23T09:15:13Z</time>
      </trkpt>
      <trkpt lat="50.98921" lon="2.11198">
        <ele>2.8</ele>
        <time>2020-06-23T09:15:14Z</time>
      </trkpt>
      <trkpt lat="50.9892" lon="2.11196">
        <ele>2.8</ele>
        <time>2020-06-23T09:15:15Z</time>
      </trkpt>
      <trkpt lat="50.9892" lon="2.11192">
        <ele>2.8</ele>
        <time>2020-06-23T09:15:16Z</time>
      </trkpt>
      <trkpt lat="50.98919" lon="2.11187">
        <ele>2.8</ele>
        <time>2020-06-23T09:15:17Z</time>
      </trkpt>
      <trkpt lat="50.98919" lon="2.11185">
        <ele>2.8</ele>
        <time>2020-06-23T09:15:18Z</time>
      </trkpt>
      <trkpt lat="50.98918" lon="2.1118">
        <ele>2.7</ele>
        <time>2020-06-23T09:15:19Z</time>
      </trkpt>
      <trkpt lat="50.98918" lon="2.11178">
        <ele>2.7</ele>
        <time>2020-06-23T09:15:20Z</time>
      </trkpt>
      <trkpt lat="50.98917" lon="2.11172">
        <ele>2.7</ele>
        <time>2020-06-23T09:15:21Z</time>
      </trkpt>
      <trkpt lat="50.98917" lon="2.1117">
        <ele>2.6</ele>
        <time>2020-06-23T09:15:22Z</time>
      </trkpt>
      <trkpt lat="50.98917" lon="2.11165">
        <ele>2.6</ele>
        <time>2020-06-23T09:15:23Z</time>
      </trkpt>
      <trkpt lat="50.98916" lon="2.11163">
        <ele>2.5</ele>
        <time>2020-06-23T09:15:24Z</time>
      </trkpt>
      <trkpt lat="50.98914" lon="2.11158">
        <ele>2.5</ele>
        <time>2020-06-23T09:15:25Z</time>
      </trkpt>
      <trkpt lat="50.98914" lon="2.11156">
        <ele>2.5</ele>
        <time>2020-06-23T09:15:26Z</time>
      </trkpt>
      <trkpt lat="50.98913" lon="2.11152">
        <ele>2.4</ele>
        <time>2020-06-23T09:15:27Z</time>
      </trkpt>
      <trkpt lat="50.98913" lon="2.1115">
        <ele>2.4</ele>
        <time>2020-06-23T09:15:28Z</time>
      </trkpt>
      <trkpt lat="50.98913" lon="2.11145">
        <ele>2.4</ele>
        <time>2020-06-23T09:15:29Z</time>
      </trkpt>
      <trkpt lat="50.98913" lon="2.11143">
        <ele>2.4</ele>
        <time>2020-06-23T09:15:30Z</time>
      </trkpt>
      <trkpt lat="50.98913" lon="2.11138">
        <ele>2.2</ele>
        <time>2020-06-23T09:15:31Z</time>
      </trkpt>
      <trkpt lat="50.98912" lon="2.11133">
        <ele>2.1</ele>
        <time>2020-06-23T09:15:32Z</time>
      </trkpt>
      <trkpt lat="50.98912" lon="2.11131">
        <ele>2.1</ele>
        <time>2020-06-23T09:15:33Z</time>
      </trkpt>
      <trkpt lat="50.98911" lon="2.11128">
        <ele>2.1</ele>
        <time>2020-06-23T09:15:34Z</time>
      </trkpt>
      <trkpt lat="50.98911" lon="2.11126">
        <ele>2.1</ele>
        <time>2020-06-23T09:15:35Z</time>
      </trkpt>
      <trkpt lat="50.98911" lon="2.11125">
        <ele>2.1</ele>
        <time>2020-06-23T09:15:36Z</time>
      </trkpt>
      <trkpt lat="50.98911" lon="2.11122">
        <ele>2</ele>
        <time>2020-06-23T09:15:37Z</time>
      </trkpt>
      <trkpt lat="50.9891" lon="2.1112">
        <ele>1.9</ele>
        <time>2020-06-23T09:15:38Z</time>
      </trkpt>
      <trkpt lat="50.9891" lon="2.11117">
        <ele>1.9</ele>
        <time>2020-06-23T09:15:39Z</time>
      </trkpt>
      <trkpt lat="50.98911" lon="2.11116">
        <ele>1.9</ele>
        <time>2020-06-23T09:15:40Z</time>
      </trkpt>
      <trkpt lat="50.98911" lon="2.11114">
        <ele>1.9</ele>
        <time>2020-06-23T09:15:41Z</time>
      </trkpt>
      <trkpt lat="50.98913" lon="2.11112">
        <ele>1.8</ele>
        <time>2020-06-23T09:15:42Z</time>
      </trkpt>
      <trkpt lat="50.98914" lon="2.11111">
        <ele>1.8</ele>
        <time>2020-06-23T09:15:43Z</time>
      </trkpt>
      <trkpt lat="50.98916" lon="2.1111">
        <ele>1.8</ele>
        <time>2020-06-23T09:15:44Z</time>
      </trkpt>
      <trkpt lat="50.98916" lon="2.1111">
        <ele>1.8</ele>
        <time>2020-06-23T09:15:45Z</time>
      </trkpt>
      <trkpt lat="50.98917" lon="2.11109">
        <ele>1.8</ele>
        <time>2020-06-23T09:15:46Z</time>
      </trkpt>
      <trkpt lat="50.98917" lon="2.11109">
        <ele>1.8</ele>
        <time>2020-06-23T09:15:47Z</time>
      </trkpt>
      <trkpt lat="50.98917" lon="2.11108">
        <ele>1.8</ele>
        <time>2020-06-23T09:15:48Z</time>
      </trkpt>
      <trkpt lat="50.98917" lon="2.11107">
        <ele>1.8</ele>
        <time>2020-06-23T09:15:49Z</time>
      </trkpt>
      <trkpt lat="50.98916" lon="2.11107">
        <ele>1.8</ele>
        <time>2020-06-23T09:15:50Z</time>
      </trkpt>
      <trkpt lat="50.98918" lon="2.11107">
        <ele>1.8</ele>
        <time>2020-06-23T09:15:51Z</time>
      </trkpt>
      <trkpt lat="50.98919" lon="2.11106">
        <ele>1.8</ele>
        <time>2020-06-23T09:15:52Z</time>
      </trkpt>
      <trkpt lat="50.98919" lon="2.11106">
        <ele>1.8</ele>
        <time>2020-06-23T09:15:53Z</time>
      </trkpt>
      <trkpt lat="50.98918" lon="2.11106">
        <ele>1.8</ele>
        <time>2020-06-23T09:15:54Z</time>
      </trkpt>
      <trkpt lat="50.98919" lon="2.11106">
        <ele>1.8</ele>
        <time>2020-06-23T09:15:55Z</time>
      </trkpt>
      <trkpt lat="50.98918" lon="2.11106">
        <ele>1.8</ele>
        <time>2020-06-23T09:15:56Z</time>
      </trkpt>
      <trkpt lat="50.98918" lon="2.11105">
        <ele>1.8</ele>
        <time>2020-06-23T09:15:57Z</time>
      </trkpt>
      <trkpt lat="50.98918" lon="2.11105">
        <ele>1.8</ele>
        <time>2020-06-23T09:15:58Z</time>
      </trkpt>
      <trkpt lat="50.98918" lon="2.11106">
        <ele>1.8</ele>
        <time>2020-06-23T09:15:59Z</time>
      </trkpt>
      <trkpt lat="50.98918" lon="2.11106">
        <ele>1.8</ele>
        <time>2020-06-23T09:16:00Z</time>
      </trkpt>
      <trkpt lat="50.98918" lon="2.11101">
        <ele>1.7</ele>
        <time>2020-06-23T09:16:09Z</time>
      </trkpt>
      <trkpt lat="50.98917" lon="2.11099">
        <ele>1.7</ele>
        <time>2020-06-23T09:16:10Z</time>
      </trkpt>
      <trkpt lat="50.98917" lon="2.11098">
        <ele>1.7</ele>
        <time>2020-06-23T09:16:11Z</time>
      </trkpt>
      <trkpt lat="50.98917" lon="2.11098">
        <ele>1.7</ele>
        <time>2020-06-23T09:16:12Z</time>
      </trkpt>
      <trkpt lat="50.98915" lon="2.11097">
        <ele>1.7</ele>
        <time>2020-06-23T09:16:13Z</time>
      </trkpt>
      <trkpt lat="50.98914" lon="2.11097">
        <ele>1.7</ele>
        <time>2020-06-23T09:16:14Z</time>
      </trkpt>
      <trkpt lat="50.98913" lon="2.11096">
        <ele>1.7</ele>
        <time>2020-06-23T09:16:15Z</time>
      </trkpt>
      <trkpt lat="50.98912" lon="2.11095">
        <ele>1.7</ele>
        <time>2020-06-23T09:16:16Z</time>
      </trkpt>
      <trkpt lat="50.98911" lon="2.11095">
        <ele>1.7</ele>
        <time>2020-06-23T09:16:17Z</time>
      </trkpt>
      <trkpt lat="50.9891" lon="2.11094">
        <ele>1.7</ele>
        <time>2020-06-23T09:16:18Z</time>
      </trkpt>
      <trkpt lat="50.98909" lon="2.11094">
        <ele>1.7</ele>
        <time>2020-06-23T09:16:19Z</time>
      </trkpt>
      <trkpt lat="50.98907" lon="2.11093">
        <ele>1.7</ele>
        <time>2020-06-23T09:16:20Z</time>
      </trkpt>
      <trkpt lat="50.98906" lon="2.11092">
        <ele>1.7</ele>
        <time>2020-06-23T09:16:21Z</time>
      </trkpt>
      <trkpt lat="50.98905" lon="2.11092">
        <ele>1.7</ele>
        <time>2020-06-23T09:29:10Z</time>
      </trkpt>
      <trkpt lat="50.98904" lon="2.11091">
        <ele>1.7</ele>
        <time>2020-06-23T09:29:11Z</time>
      </trkpt>
      <trkpt lat="50.98903" lon="2.11091">
        <ele>1.7</ele>
        <time>2020-06-23T09:29:12Z</time>
      </trkpt>
      <trkpt lat="50.98903" lon="2.11096">
        <ele>1.6</ele>
        <time>2020-06-23T09:29:13Z</time>
      </trkpt>
      <trkpt lat="50.98903" lon="2.11097">
        <ele>1.6</ele>
        <time>2020-06-23T09:29:14Z</time>
      </trkpt>
      <trkpt lat="50.98904" lon="2.11103">
        <ele>1.7</ele>
        <time>2020-06-23T09:29:15Z</time>
      </trkpt>
      <trkpt lat="50.98904" lon="2.11105">
        <ele>1.7</ele>
        <time>2020-06-23T09:29:16Z</time>
      </trkpt>
      <trkpt lat="50.98905" lon="2.11109">
        <ele>1.8</ele>
        <time>2020-06-23T09:29:17Z</time>
      </trkpt>
      <trkpt lat="50.98907" lon="2.11114">
        <ele>1.9</ele>
        <time>2020-06-23T09:29:18Z</time>
      </trkpt>
      <trkpt lat="50.98907" lon="2.1112">
        <ele>1.9</ele>
        <time>2020-06-23T09:29:19Z</time>
      </trkpt>
      <trkpt lat="50.98907" lon="2.11125">
        <ele>2</ele>
        <time>2020-06-23T09:29:20Z</time>
      </trkpt>
      <trkpt lat="50.98908" lon="2.1113">
        <ele>2.1</ele>
        <time>2020-06-23T09:29:21Z</time>
      </trkpt>
      <trkpt lat="50.98909" lon="2.11135">
        <ele>2.1</ele>
        <time>2020-06-23T09:29:22Z</time>
      </trkpt>
      <trkpt lat="50.98909" lon="2.11141">
        <ele>2.2</ele>
        <time>2020-06-23T09:29:23Z</time>
      </trkpt>
      <trkpt lat="50.9891" lon="2.11146">
        <ele>2.4</ele>
        <time>2020-06-23T09:29:24Z</time>
      </trkpt>
      <trkpt lat="50.98909" lon="2.11151">
        <ele>2.4</ele>
        <time>2020-06-23T09:29:25Z</time>
      </trkpt>
      <trkpt lat="50.9891" lon="2.11157">
        <ele>2.5</ele>
        <time>2020-06-23T09:29:26Z</time>
      </trkpt>
      <trkpt lat="50.98909" lon="2.11162">
        <ele>2.5</ele>
        <time>2020-06-23T09:29:27Z</time>
      </trkpt>
      <trkpt lat="50.98909" lon="2.11167">
        <ele>2.6</ele>
        <time>2020-06-23T09:29:28Z</time>
      </trkpt>
      <trkpt lat="50.98908" lon="2.11172">
        <ele>2.6</ele>
        <time>2020-06-23T09:29:29Z</time>
      </trkpt>
      <trkpt lat="50.98907" lon="2.11178">
        <ele>2.7</ele>
        <time>2020-06-23T09:29:30Z</time>
      </trkpt>
      <trkpt lat="50.98906" lon="2.11183">
        <ele>2.7</ele>
        <time>2020-06-23T09:29:31Z</time>
      </trkpt>
      <trkpt lat="50.98907" lon="2.11189">
        <ele>2.8</ele>
        <time>2020-06-23T09:29:32Z</time>
      </trkpt>
      <trkpt lat="50.98907" lon="2.11194">
        <ele>2.8</ele>
        <time>2020-06-23T09:29:33Z</time>
      </trkpt>
      <trkpt lat="50.98907" lon="2.11199">
        <ele>2.8</ele>
        <time>2020-06-23T09:29:34Z</time>
      </trkpt>
      <trkpt lat="50.98908" lon="2.11205">
        <ele>2.9</ele>
        <time>2020-06-23T09:29:35Z</time>
      </trkpt>
      <trkpt lat="50.98909" lon="2.1121">
        <ele>2.9</ele>
        <time>2020-06-23T09:29:36Z</time>
      </trkpt>
      <trkpt lat="50.98911" lon="2.11214">
        <ele>2.9</ele>
        <time>2020-06-23T09:29:37Z</time>
      </trkpt>
      <trkpt lat="50.98913" lon="2.11217">
        <ele>2.9</ele>
        <time>2020-06-23T09:29:38Z</time>
      </trkpt>
      <trkpt lat="50.98915" lon="2.1122">
        <ele>2.9</ele>
        <time>2020-06-23T09:29:39Z</time>
      </trkpt>
      <trkpt lat="50.98917" lon="2.11224">
        <ele>2.9</ele>
        <time>2020-06-23T09:29:40Z</time>
      </trkpt>
      <trkpt lat="50.98919" lon="2.11229">
        <ele>2.9</ele>
        <time>2020-06-23T09:29:41Z</time>
      </trkpt>
      <trkpt lat="50.98921" lon="2.11234">
        <ele>2.9</ele>
        <time>2020-06-23T09:29:42Z</time>
      </trkpt>
      <trkpt lat="50.98922" lon="2.11239">
        <ele>2.9</ele>
        <time>2020-06-23T09:29:43Z</time>
      </trkpt>
      <trkpt lat="50.98923" lon="2.11243">
        <ele>2.9</ele>
        <time>2020-06-23T09:29:44Z</time>
      </trkpt>
      <trkpt lat="50.98925" lon="2.11248">
        <ele>2.9</ele>
        <time>2020-06-23T09:29:45Z</time>
      </trkpt>
      <trkpt lat="50.98927" lon="2.11253">
        <ele>2.9</ele>
        <time>2020-06-23T09:29:46Z</time>
      </trkpt>
      <trkpt lat="50.98928" lon="2.11257">
        <ele>2.9</ele>
        <time>2020-06-23T09:29:47Z</time>
      </trkpt>
      <trkpt lat="50.9893" lon="2.1126">
        <ele>2.9</ele>
        <time>2020-06-23T09:29:48Z</time>
      </trkpt>
      <trkpt lat="50.98932" lon="2.11263">
        <ele>2.9</ele>
        <time>2020-06-23T09:29:49Z</time>
      </trkpt>
      <trkpt lat="50.98934" lon="2.11267">
        <ele>2.9</ele>
        <time>2020-06-23T09:29:50Z</time>
      </trkpt>
      <trkpt lat="50.98935" lon="2.11268">
        <ele>2.9</ele>
        <time>2020-06-23T09:29:51Z</time>
      </trkpt>
      <trkpt lat="50.98938" lon="2.11269">
        <ele>2.9</ele>
        <time>2020-06-23T09:29:52Z</time>
      </trkpt>
      <trkpt lat="50.98939" lon="2.1127">
        <ele>2.9</ele>
        <time>2020-06-23T09:29:53Z</time>
      </trkpt>
      <trkpt lat="50.98942" lon="2.11272">
        <ele>2.9</ele>
        <time>2020-06-23T09:29:54Z</time>
      </trkpt>
      <trkpt lat="50.98943" lon="2.11273">
        <ele>2.8</ele>
        <time>2020-06-23T09:29:55Z</time>
      </trkpt>
      <trkpt lat="50.98945" lon="2.11274">
        <ele>2.8</ele>
        <time>2020-06-23T09:29:56Z</time>
      </trkpt>
      <trkpt lat="50.98946" lon="2.11275">
        <ele>2.8</ele>
        <time>2020-06-23T09:29:57Z</time>
      </trkpt>
      <trkpt lat="50.98947" lon="2.11276">
        <ele>2.8</ele>
        <time>2020-06-23T09:29:58Z</time>
      </trkpt>
      <trkpt lat="50.98947" lon="2.11276">
        <ele>2.8</ele>
        <time>2020-06-23T09:29:59Z</time>
      </trkpt>
      <trkpt lat="50.98947" lon="2.11277">
        <ele>2.8</ele>
        <time>2020-06-23T09:30:00Z</time>
      </trkpt>
      <trkpt lat="50.98947" lon="2.11278">
        <ele>2.8</ele>
        <time>2020-06-23T09:30:01Z</time>
      </trkpt>
      <trkpt lat="50.98948" lon="2.11277">
        <ele>2.8</ele>
        <time>2020-06-23T09:30:02Z</time>
      </trkpt>
      <trkpt lat="50.98948" lon="2.11277">
        <ele>2.8</ele>
        <time>2020-06-23T09:30:03Z</time>
      </trkpt>
      <trkpt lat="50.98948" lon="2.11278">
        <ele>2.8</ele>
        <time>2020-06-23T09:30:04Z</time>
      </trkpt>
      <trkpt lat="50.98947" lon="2.11279">
        <ele>2.8</ele>
        <time>2020-06-23T09:30:05Z</time>
      </trkpt>
      <trkpt lat="50.98947" lon="2.1128">
        <ele>2.8</ele>
        <time>2020-06-23T09:30:06Z</time>
      </trkpt>
      <trkpt lat="50.98946" lon="2.1128">
        <ele>2.8</ele>
        <time>2020-06-23T09:30:07Z</time>
      </trkpt>
      <trkpt lat="50.98944" lon="2.1128">
        <ele>2.8</ele>
        <time>2020-06-23T09:30:08Z</time>
      </trkpt>
      <trkpt lat="50.98943" lon="2.11282">
        <ele>2.8</ele>
        <time>2020-06-23T09:30:09Z</time>
      </trkpt>
      <trkpt lat="50.98943" lon="2.11283">
        <ele>2.8</ele>
        <time>2020-06-23T09:30:10Z</time>
      </trkpt>
      <trkpt lat="50.98943" lon="2.11285">
        <ele>2.8</ele>
        <time>2020-06-23T09:30:11Z</time>
      </trkpt>
      <trkpt lat="50.98943" lon="2.11286">
        <ele>2.8</ele>
        <time>2020-06-23T09:30:12Z</time>
      </trkpt>
      <trkpt lat="50.98942" lon="2.11288">
        <ele>2.8</ele>
        <time>2020-06-23T09:30:13Z</time>
      </trkpt>
      <trkpt lat="50.98942" lon="2.11289">
        <ele>2.8</ele>
        <time>2020-06-23T09:30:14Z</time>
      </trkpt>
      <trkpt lat="50.98941" lon="2.1129">
        <ele>2.8</ele>
        <time>2020-06-23T09:30:15Z</time>
      </trkpt>
      <trkpt lat="50.98941" lon="2.1129">
        <ele>2.8</ele>
        <time>2020-06-23T09:30:16Z</time>
      </trkpt>
      <trkpt lat="50.98941" lon="2.1129">
        <ele>2.8</ele>
        <time>2020-06-23T09:30:17Z</time>
      </trkpt>
      <trkpt lat="50.98941" lon="2.11291">
        <ele>2.8</ele>
        <time>2020-06-23T09:30:18Z</time>
      </trkpt>
      <trkpt lat="50.98942" lon="2.11292">
        <ele>2.8</ele>
        <time>2020-06-23T09:30:19Z</time>
      </trkpt>
      <trkpt lat="50.98941" lon="2.11291">
        <ele>2.8</ele>
        <time>2020-06-23T09:30:20Z</time>
      </trkpt>
      <trkpt lat="50.98941" lon="2.1129">
        <ele>2.8</ele>
        <time>2020-06-23T09:30:21Z</time>
      </trkpt>
      <trkpt lat="50.98941" lon="2.11289">
        <ele>2.8</ele>
        <time>2020-06-23T09:30:22Z</time>
      </trkpt>
      <trkpt lat="50.9894" lon="2.11287">
        <ele>2.8</ele>
        <time>2020-06-23T09:30:23Z</time>
      </trkpt>
      <trkpt lat="50.9894" lon="2.11287">
        <ele>2.8</ele>
        <time>2020-06-23T09:30:24Z</time>
      </trkpt>
      <trkpt lat="50.9894" lon="2.11286">
        <ele>2.8</ele>
        <time>2020-06-23T09:30:25Z</time>
      </trkpt>
      <trkpt lat="50.98941" lon="2.11291">
        <ele>2.8</ele>
        <time>2020-06-23T09:30:26Z</time>
      </trkpt>
      <trkpt lat="50.98943" lon="2.11298">
        <ele>2.8</ele>
        <time>2020-06-23T09:58:23Z</time>
      </trkpt>
      <trkpt lat="50.98945" lon="2.11304">
        <ele>2.8</ele>
        <time>2020-06-23T09:58:24Z</time>
      </trkpt>
      <trkpt lat="50.98947" lon="2.11311">
        <ele>2.8</ele>
        <time>2020-06-23T09:58:25Z</time>
      </trkpt>
      <trkpt lat="50.9895" lon="2.11317">
        <ele>2.8</ele>
        <time>2020-06-23T09:58:26Z</time>
      </trkpt>
      <trkpt lat="50.9895" lon="2.11315">
        <ele>2.8</ele>
        <time>2020-06-23T09:58:27Z</time>
      </trkpt>
      <trkpt lat="50.98951" lon="2.11314">
        <ele>2.8</ele>
        <time>2020-06-23T09:58:28Z</time>
      </trkpt>
      <trkpt lat="50.98951" lon="2.11313">
        <ele>2.8</ele>
        <time>2020-06-23T09:58:29Z</time>
      </trkpt>
      <trkpt lat="50.98951" lon="2.11312">
        <ele>2.8</ele>
        <time>2020-06-23T09:58:30Z</time>
      </trkpt>
      <trkpt lat="50.98952" lon="2.11309">
        <ele>2.8</ele>
        <time>2020-06-23T09:58:31Z</time>
      </trkpt>
      <trkpt lat="50.98951" lon="2.11307">
        <ele>2.8</ele>
        <time>2020-06-23T09:58:32Z</time>
      </trkpt>
      <trkpt lat="50.98949" lon="2.11304">
        <ele>2.9</ele>
        <time>2020-06-23T09:58:33Z</time>
      </trkpt>
      <trkpt lat="50.98946" lon="2.11304">
        <ele>2.9</ele>
        <time>2020-06-23T09:58:34Z</time>
      </trkpt>
      <trkpt lat="50.98943" lon="2.11303">
        <ele>2.9</ele>
        <time>2020-06-23T09:58:35Z</time>
      </trkpt>
      <trkpt lat="50.9894" lon="2.11302">
        <ele>2.9</ele>
        <time>2020-06-23T09:58:36Z</time>
      </trkpt>
      <trkpt lat="50.98936" lon="2.11301">
        <ele>2.9</ele>
        <time>2020-06-23T09:58:37Z</time>
      </trkpt>
      <trkpt lat="50.98933" lon="2.11302">
        <ele>2.9</ele>
        <time>2020-06-23T09:58:38Z</time>
      </trkpt>
      <trkpt lat="50.9893" lon="2.11302">
        <ele>2.9</ele>
        <time>2020-06-23T09:58:39Z</time>
      </trkpt>
      <trkpt lat="50.98927" lon="2.113">
        <ele>2.9</ele>
        <time>2020-06-23T09:58:40Z</time>
      </trkpt>
      <trkpt lat="50.98924" lon="2.11299">
        <ele>2.9</ele>
        <time>2020-06-23T09:58:41Z</time>
      </trkpt>
      <trkpt lat="50.98922" lon="2.11294">
        <ele>2.9</ele>
        <time>2020-06-23T09:58:42Z</time>
      </trkpt>
      <trkpt lat="50.98918" lon="2.11291">
        <ele>2.9</ele>
        <time>2020-06-23T09:58:43Z</time>
      </trkpt>
      <trkpt lat="50.98916" lon="2.11284">
        <ele>2.9</ele>
        <time>2020-06-23T09:58:44Z</time>
      </trkpt>
      <trkpt lat="50.98914" lon="2.11278">
        <ele>2.8</ele>
        <time>2020-06-23T09:58:45Z</time>
      </trkpt>
      <trkpt lat="50.98912" lon="2.1127">
        <ele>2.8</ele>
        <time>2020-06-23T09:58:46Z</time>
      </trkpt>
      <trkpt lat="50.9891" lon="2.11259">
        <ele>2.7</ele>
        <time>2020-06-23T09:58:47Z</time>
      </trkpt>
      <trkpt lat="50.98907" lon="2.11249">
        <ele>2.6</ele>
        <time>2020-06-23T09:58:48Z</time>
      </trkpt>
      <trkpt lat="50.98904" lon="2.11241">
        <ele>2.5</ele>
        <time>2020-06-23T09:58:49Z</time>
      </trkpt>
      <trkpt lat="50.989" lon="2.11232">
        <ele>2.4</ele>
        <time>2020-06-23T09:58:50Z</time>
      </trkpt>
      <trkpt lat="50.98895" lon="2.1122">
        <ele>2.3</ele>
        <time>2020-06-23T09:58:51Z</time>
      </trkpt>
      <trkpt lat="50.98891" lon="2.11211">
        <ele>2.2</ele>
        <time>2020-06-23T09:58:52Z</time>
      </trkpt>
      <trkpt lat="50.98887" lon="2.11203">
        <ele>2.2</ele>
        <time>2020-06-23T09:58:53Z</time>
      </trkpt>
      <trkpt lat="50.98883" lon="2.11196">
        <ele>2.2</ele>
        <time>2020-06-23T09:58:54Z</time>
      </trkpt>
      <trkpt lat="50.98879" lon="2.11187">
        <ele>2.2</ele>
        <time>2020-06-23T09:58:55Z</time>
      </trkpt>
      <trkpt lat="50.98876" lon="2.1118">
        <ele>2.3</ele>
        <time>2020-06-23T09:58:56Z</time>
      </trkpt>
      <trkpt lat="50.98872" lon="2.11172">
        <ele>2.3</ele>
        <time>2020-06-23T09:58:57Z</time>
      </trkpt>
      <trkpt lat="50.98868" lon="2.11163">
        <ele>2.3</ele>
        <time>2020-06-23T09:58:58Z</time>
      </trkpt>
      <trkpt lat="50.98864" lon="2.11154">
        <ele>2.3</ele>
        <time>2020-06-23T09:58:59Z</time>
      </trkpt>
      <trkpt lat="50.9886" lon="2.11146">
        <ele>2.4</ele>
        <time>2020-06-23T09:59:00Z</time>
      </trkpt>
      <trkpt lat="50.98857" lon="2.1114">
        <ele>2.4</ele>
        <time>2020-06-23T09:59:01Z</time>
      </trkpt>
      <trkpt lat="50.98854" lon="2.11134">
        <ele>2.5</ele>
        <time>2020-06-23T09:59:02Z</time>
      </trkpt>
      <trkpt lat="50.98852" lon="2.11129">
        <ele>2.6</ele>
        <time>2020-06-23T09:59:03Z</time>
      </trkpt>
      <trkpt lat="50.9885" lon="2.11123">
        <ele>2.7</ele>
        <time>2020-06-23T09:59:04Z</time>
      </trkpt>
      <trkpt lat="50.98847" lon="2.11116">
        <ele>2.8</ele>
        <time>2020-06-23T09:59:05Z</time>
      </trkpt>
      <trkpt lat="50.98845" lon="2.11111">
        <ele>2.9</ele>
        <time>2020-06-23T09:59:06Z</time>
      </trkpt>
      <trkpt lat="50.98844" lon="2.11106">
        <ele>3</ele>
        <time>2020-06-23T09:59:07Z</time>
      </trkpt>
      <trkpt lat="50.98843" lon="2.11103">
        <ele>3.1</ele>
        <time>2020-06-23T09:59:08Z</time>
      </trkpt>
      <trkpt lat="50.98843" lon="2.11102">
        <ele>3.1</ele>
        <time>2020-06-23T09:59:09Z</time>
      </trkpt>
      <trkpt lat="50.98843" lon="2.11101">
        <ele>3.1</ele>
        <time>2020-06-23T09:59:10Z</time>
      </trkpt>
      <trkpt lat="50.98843" lon="2.111">
        <ele>3.1</ele>
        <time>2020-06-23T09:59:11Z</time>
      </trkpt>
      <trkpt lat="50.98843" lon="2.11097">
        <ele>3.2</ele>
        <time>2020-06-23T09:59:12Z</time>
      </trkpt>
      <trkpt lat="50.98843" lon="2.11094">
        <ele>3.2</ele>
        <time>2020-06-23T09:59:13Z</time>
      </trkpt>
      <trkpt lat="50.98843" lon="2.1109">
        <ele>3.3</ele>
        <time>2020-06-23T09:59:14Z</time>
      </trkpt>
      <trkpt lat="50.98843" lon="2.11088">
        <ele>3.3</ele>
        <time>2020-06-23T09:59:15Z</time>
      </trkpt>
      <trkpt lat="50.98844" lon="2.11086">
        <ele>3.4</ele>
        <time>2020-06-23T09:59:16Z</time>
      </trkpt>
      <trkpt lat="50.98844" lon="2.11084">
        <ele>3.4</ele>
        <time>2020-06-23T09:59:17Z</time>
      </trkpt>
      <trkpt lat="50.98845" lon="2.11083">
        <ele>3.4</ele>
        <time>2020-06-23T09:59:18Z</time>
      </trkpt>
      <trkpt lat="50.98845" lon="2.11081">
        <ele>3.4</ele>
        <time>2020-06-23T09:59:19Z</time>
      </trkpt>
      <trkpt lat="50.98845" lon="2.1108">
        <ele>3.4</ele>
        <time>2020-06-23T09:59:20Z</time>
      </trkpt>
      <trkpt lat="50.98845" lon="2.11079">
        <ele>3.4</ele>
        <time>2020-06-23T09:59:21Z</time>
      </trkpt>
      <trkpt lat="50.98845" lon="2.11076">
        <ele>3.5</ele>
        <time>2020-06-23T09:59:22Z</time>
      </trkpt>
      <trkpt lat="50.98845" lon="2.11075">
        <ele>3.5</ele>
        <time>2020-06-23T09:59:23Z</time>
      </trkpt>
      <trkpt lat="50.98845" lon="2.11074">
        <ele>3.5</ele>
        <time>2020-06-23T09:59:24Z</time>
      </trkpt>
      <trkpt lat="50.98845" lon="2.11073">
        <ele>3.4</ele>
        <time>2020-06-23T09:59:25Z</time>
      </trkpt>
      <trkpt lat="50.98845" lon="2.11071">
        <ele>3.4</ele>
        <time>2020-06-23T09:59:26Z</time>
      </trkpt>
      <trkpt lat="50.98843" lon="2.11069">
        <ele>3.4</ele>
        <time>2020-06-23T09:59:27Z</time>
      </trkpt>
      <trkpt lat="50.98841" lon="2.11067">
        <ele>3.4</ele>
        <time>2020-06-23T09:59:28Z</time>
      </trkpt>
      <trkpt lat="50.98836" lon="2.11067">
        <ele>3.3</ele>
        <time>2020-06-23T09:59:29Z</time>
      </trkpt>
      <trkpt lat="50.98831" lon="2.11067">
        <ele>3.2</ele>
        <time>2020-06-23T09:59:30Z</time>
      </trkpt>
      <trkpt lat="50.98825" lon="2.11067">
        <ele>3.1</ele>
        <time>2020-06-23T09:59:31Z</time>
      </trkpt>
      <trkpt lat="50.9882" lon="2.11068">
        <ele>3.1</ele>
        <time>2020-06-23T09:59:32Z</time>
      </trkpt>
      <trkpt lat="50.98815" lon="2.11068">
        <ele>3.1</ele>
        <time>2020-06-23T09:59:33Z</time>
      </trkpt>
      <trkpt lat="50.98812" lon="2.11068">
        <ele>3</ele>
        <time>2020-06-23T09:59:34Z</time>
      </trkpt>
      <trkpt lat="50.98807" lon="2.11069">
        <ele>3</ele>
        <time>2020-06-23T09:59:35Z</time>
      </trkpt>
      <trkpt lat="50.98802" lon="2.1107">
        <ele>3</ele>
        <time>2020-06-23T09:59:36Z</time>
      </trkpt>
      <trkpt lat="50.98799" lon="2.11071">
        <ele>3.1</ele>
        <time>2020-06-23T09:59:37Z</time>
      </trkpt>
      <trkpt lat="50.98795" lon="2.11073">
        <ele>3.1</ele>
        <time>2020-06-23T09:59:38Z</time>
      </trkpt>
      <trkpt lat="50.98791" lon="2.11074">
        <ele>3.1</ele>
        <time>2020-06-23T09:59:39Z</time>
      </trkpt>
      <trkpt lat="50.98787" lon="2.11075">
        <ele>3.1</ele>
        <time>2020-06-23T09:59:40Z</time>
      </trkpt>
      <trkpt lat="50.98783" lon="2.11075">
        <ele>3.2</ele>
        <time>2020-06-23T09:59:41Z</time>
      </trkpt>
      <trkpt lat="50.98779" lon="2.11076">
        <ele>3.2</ele>
        <time>2020-06-23T09:59:42Z</time>
      </trkpt>
      <trkpt lat="50.98775" lon="2.11076">
        <ele>3.3</ele>
        <time>2020-06-23T09:59:43Z</time>
      </trkpt>
      <trkpt lat="50.98771" lon="2.11076">
        <ele>3.4</ele>
        <time>2020-06-23T09:59:44Z</time>
      </trkpt>
      <trkpt lat="50.98767" lon="2.11076">
        <ele>3.4</ele>
        <time>2020-06-23T09:59:45Z</time>
      </trkpt>
      <trkpt lat="50.98762" lon="2.11074">
        <ele>3.5</ele>
        <time>2020-06-23T09:59:46Z</time>
      </trkpt>
      <trkpt lat="50.98756" lon="2.11072">
        <ele>3.5</ele>
        <time>2020-06-23T09:59:47Z</time>
      </trkpt>
      <trkpt lat="50.9875" lon="2.11071">
        <ele>3.5</ele>
        <time>2020-06-23T09:59:48Z</time>
      </trkpt>
      <trkpt lat="50.98745" lon="2.11071">
        <ele>3.6</ele>
        <time>2020-06-23T09:59:49Z</time>
      </trkpt>
      <trkpt lat="50.98741" lon="2.11072">
        <ele>3.6</ele>
        <time>2020-06-23T09:59:50Z</time>
      </trkpt>
      <trkpt lat="50.98738" lon="2.11077">
        <ele>3.6</ele>
        <time>2020-06-23T09:59:51Z</time>
      </trkpt>
      <trkpt lat="50.98738" lon="2.11086">
        <ele>3.6</ele>
        <time>2020-06-23T09:59:52Z</time>
      </trkpt>
      <trkpt lat="50.98738" lon="2.11094">
        <ele>3.8</ele>
        <time>2020-06-23T09:59:53Z</time>
      </trkpt>
      <trkpt lat="50.98738" lon="2.11102">
        <ele>3.8</ele>
        <time>2020-06-23T09:59:54Z</time>
      </trkpt>
      <trkpt lat="50.98739" lon="2.11111">
        <ele>3.7</ele>
        <time>2020-06-23T09:59:55Z</time>
      </trkpt>
      <trkpt lat="50.9874" lon="2.11121">
        <ele>3.7</ele>
        <time>2020-06-23T09:59:56Z</time>
      </trkpt>
      <trkpt lat="50.98739" lon="2.11129">
        <ele>3.6</ele>
        <time>2020-06-23T09:59:57Z</time>
      </trkpt>
      <trkpt lat="50.98739" lon="2.11138">
        <ele>3.6</ele>
        <time>2020-06-23T09:59:58Z</time>
      </trkpt>
      <trkpt lat="50.98737" lon="2.11146">
        <ele>3.5</ele>
        <time>2020-06-23T09:59:59Z</time>
      </trkpt>
      <trkpt lat="50.98735" lon="2.11155">
        <ele>3.5</ele>
        <time>2020-06-23T10:00:00Z</time>
      </trkpt>
      <trkpt lat="50.98732" lon="2.11163">
        <ele>3.5</ele>
        <time>2020-06-23T10:00:01Z</time>
      </trkpt>
      <trkpt lat="50.98731" lon="2.11172">
        <ele>3.4</ele>
        <time>2020-06-23T10:00:02Z</time>
      </trkpt>
      <trkpt lat="50.98729" lon="2.11181">
        <ele>3.4</ele>
        <time>2020-06-23T10:00:03Z</time>
      </trkpt>
      <trkpt lat="50.98727" lon="2.1119">
        <ele>3.4</ele>
        <time>2020-06-23T10:00:04Z</time>
      </trkpt>
      <trkpt lat="50.98725" lon="2.11199">
        <ele>3.5</ele>
        <time>2020-06-23T10:00:05Z</time>
      </trkpt>
      <trkpt lat="50.98722" lon="2.11208">
        <ele>3.5</ele>
        <time>2020-06-23T10:00:06Z</time>
      </trkpt>
      <trkpt lat="50.98719" lon="2.11216">
        <ele>3.5</ele>
        <time>2020-06-23T10:00:07Z</time>
      </trkpt>
      <trkpt lat="50.98716" lon="2.11226">
        <ele>3.5</ele>
        <time>2020-06-23T10:00:08Z</time>
      </trkpt>
      <trkpt lat="50.98713" lon="2.11235">
        <ele>3.5</ele>
        <time>2020-06-23T10:00:09Z</time>
      </trkpt>
      <trkpt lat="50.9871" lon="2.11245">
        <ele>3.6</ele>
        <time>2020-06-23T10:00:10Z</time>
      </trkpt>
      <trkpt lat="50.98707" lon="2.11254">
        <ele>3.6</ele>
        <time>2020-06-23T10:00:11Z</time>
      </trkpt>
      <trkpt lat="50.98704" lon="2.11263">
        <ele>3.6</ele>
        <time>2020-06-23T10:00:12Z</time>
      </trkpt>
      <trkpt lat="50.98701" lon="2.11272">
        <ele>3.6</ele>
        <time>2020-06-23T10:00:13Z</time>
      </trkpt>
      <trkpt lat="50.98698" lon="2.1128">
        <ele>3.6</ele>
        <time>2020-06-23T10:00:14Z</time>
      </trkpt>
      <trkpt lat="50.98696" lon="2.11289">
        <ele>3.6</ele>
        <time>2020-06-23T10:00:15Z</time>
      </trkpt>
      <trkpt lat="50.98693" lon="2.11297">
        <ele>3.6</ele>
        <time>2020-06-23T10:00:16Z</time>
      </trkpt>
      <trkpt lat="50.9869" lon="2.11306">
        <ele>3.7</ele>
        <time>2020-06-23T10:00:17Z</time>
      </trkpt>
      <trkpt lat="50.98687" lon="2.11315">
        <ele>3.7</ele>
        <time>2020-06-23T10:00:18Z</time>
      </trkpt>
      <trkpt lat="50.98684" lon="2.11324">
        <ele>3.6</ele>
        <time>2020-06-23T10:00:19Z</time>
      </trkpt>
      <trkpt lat="50.98681" lon="2.11333">
        <ele>3.6</ele>
        <time>2020-06-23T10:00:20Z</time>
      </trkpt>
      <trkpt lat="50.98678" lon="2.11342">
        <ele>3.5</ele>
        <time>2020-06-23T10:00:21Z</time>
      </trkpt>
      <trkpt lat="50.98675" lon="2.11351">
        <ele>3.5</ele>
        <time>2020-06-23T10:00:22Z</time>
      </trkpt>
      <trkpt lat="50.98671" lon="2.11362">
        <ele>3.5</ele>
        <time>2020-06-23T10:00:23Z</time>
      </trkpt>
      <trkpt lat="50.98669" lon="2.11371">
        <ele>3.5</ele>
        <time>2020-06-23T10:00:24Z</time>
      </trkpt>
      <trkpt lat="50.98666" lon="2.11379">
        <ele>3.5</ele>
        <time>2020-06-23T10:00:25Z</time>
      </trkpt>
      <trkpt lat="50.98663" lon="2.11388">
        <ele>3.6</ele>
        <time>2020-06-23T10:00:26Z</time>
      </trkpt>
      <trkpt lat="50.9866" lon="2.11397">
        <ele>3.6</ele>
        <time>2020-06-23T10:00:27Z</time>
      </trkpt>
      <trkpt lat="50.98657" lon="2.11405">
        <ele>3.6</ele>
        <time>2020-06-23T10:00:28Z</time>
      </trkpt>
      <trkpt lat="50.98654" lon="2.11415">
        <ele>3.6</ele>
        <time>2020-06-23T10:00:29Z</time>
      </trkpt>
      <trkpt lat="50.98651" lon="2.11425">
        <ele>3.6</ele>
        <time>2020-06-23T10:00:30Z</time>
      </trkpt>
      <trkpt lat="50.98646" lon="2.11436">
        <ele>3.7</ele>
        <time>2020-06-23T10:00:31Z</time>
      </trkpt>
      <trkpt lat="50.98643" lon="2.11445">
        <ele>3.7</ele>
        <time>2020-06-23T10:00:32Z</time>
      </trkpt>
      <trkpt lat="50.9864" lon="2.11455">
        <ele>3.7</ele>
        <time>2020-06-23T10:00:33Z</time>
      </trkpt>
      <trkpt lat="50.98637" lon="2.11464">
        <ele>3.7</ele>
        <time>2020-06-23T10:00:34Z</time>
      </trkpt>
      <trkpt lat="50.98635" lon="2.11473">
        <ele>3.7</ele>
        <time>2020-06-23T10:00:35Z</time>
      </trkpt>
      <trkpt lat="50.98632" lon="2.11483">
        <ele>3.6</ele>
        <time>2020-06-23T10:00:36Z</time>
      </trkpt>
      <trkpt lat="50.98629" lon="2.11492">
        <ele>3.6</ele>
        <time>2020-06-23T10:00:37Z</time>
      </trkpt>
      <trkpt lat="50.98626" lon="2.11502">
        <ele>3.5</ele>
        <time>2020-06-23T10:00:38Z</time>
      </trkpt>
      <trkpt lat="50.98623" lon="2.1151">
        <ele>3.5</ele>
        <time>2020-06-23T10:00:39Z</time>
      </trkpt>
      <trkpt lat="50.9862" lon="2.1152">
        <ele>3.5</ele>
        <time>2020-06-23T10:00:40Z</time>
      </trkpt>
      <trkpt lat="50.98618" lon="2.11529">
        <ele>3.6</ele>
        <time>2020-06-23T10:00:41Z</time>
      </trkpt>
      <trkpt lat="50.98617" lon="2.11538">
        <ele>3.6</ele>
        <time>2020-06-23T10:00:42Z</time>
      </trkpt>
      <trkpt lat="50.98615" lon="2.11548">
        <ele>3.6</ele>
        <time>2020-06-23T10:00:43Z</time>
      </trkpt>
      <trkpt lat="50.98614" lon="2.11556">
        <ele>3.6</ele>
        <time>2020-06-23T10:00:44Z</time>
      </trkpt>
      <trkpt lat="50.98613" lon="2.11565">
        <ele>3.6</ele>
        <time>2020-06-23T10:00:45Z</time>
      </trkpt>
      <trkpt lat="50.98612" lon="2.11574">
        <ele>3.6</ele>
        <time>2020-06-23T10:00:46Z</time>
      </trkpt>
      <trkpt lat="50.98611" lon="2.11584">
        <ele>3.6</ele>
        <time>2020-06-23T10:00:47Z</time>
      </trkpt>
      <trkpt lat="50.98609" lon="2.11592">
        <ele>3.5</ele>
        <time>2020-06-23T10:00:48Z</time>
      </trkpt>
      <trkpt lat="50.98608" lon="2.11601">
        <ele>3.5</ele>
        <time>2020-06-23T10:00:49Z</time>
      </trkpt>
      <trkpt lat="50.98606" lon="2.11609">
        <ele>3.5</ele>
        <time>2020-06-23T10:00:50Z</time>
      </trkpt>
      <trkpt lat="50.98605" lon="2.11617">
        <ele>3.4</ele>
        <time>2020-06-23T10:00:51Z</time>
      </trkpt>
      <trkpt lat="50.98604" lon="2.11627">
        <ele>3.4</ele>
        <time>2020-06-23T10:00:52Z</time>
      </trkpt>
      <trkpt lat="50.98602" lon="2.11635">
        <ele>3.4</ele>
        <time>2020-06-23T10:00:53Z</time>
      </trkpt>
      <trkpt lat="50.98601" lon="2.11643">
        <ele>3.4</ele>
        <time>2020-06-23T10:00:54Z</time>
      </trkpt>
      <trkpt lat="50.986" lon="2.11652">
        <ele>3.4</ele>
        <time>2020-06-23T10:00:55Z</time>
      </trkpt>
      <trkpt lat="50.98599" lon="2.11662">
        <ele>3.4</ele>
        <time>2020-06-23T10:00:56Z</time>
      </trkpt>
      <trkpt lat="50.98597" lon="2.11673">
        <ele>3.4</ele>
        <time>2020-06-23T10:00:57Z</time>
      </trkpt>
      <trkpt lat="50.98596" lon="2.11683">
        <ele>3.5</ele>
        <time>2020-06-23T10:00:58Z</time>
      </trkpt>
      <trkpt lat="50.98595" lon="2.11694">
        <ele>3.5</ele>
        <time>2020-06-23T10:00:59Z</time>
      </trkpt>
      <trkpt lat="50.98594" lon="2.11704">
        <ele>3.5</ele>
        <time>2020-06-23T10:01:00Z</time>
      </trkpt>
      <trkpt lat="50.98594" lon="2.11713">
        <ele>3.5</ele>
        <time>2020-06-23T10:01:01Z</time>
      </trkpt>
      <trkpt lat="50.98593" lon="2.11723">
        <ele>3.6</ele>
        <time>2020-06-23T10:01:02Z</time>
      </trkpt>
      <trkpt lat="50.98593" lon="2.11732">
        <ele>3.6</ele>
        <time>2020-06-23T10:01:03Z</time>
      </trkpt>
      <trkpt lat="50.98592" lon="2.11742">
        <ele>3.6</ele>
        <time>2020-06-23T10:01:04Z</time>
      </trkpt>
      <trkpt lat="50.98591" lon="2.11751">
        <ele>3.6</ele>
        <time>2020-06-23T10:01:05Z</time>
      </trkpt>
      <trkpt lat="50.9859" lon="2.1176">
        <ele>3.7</ele>
        <time>2020-06-23T10:01:06Z</time>
      </trkpt>
      <trkpt lat="50.98588" lon="2.11769">
        <ele>3.8</ele>
        <time>2020-06-23T10:01:07Z</time>
      </trkpt>
      <trkpt lat="50.98586" lon="2.11778">
        <ele>3.8</ele>
        <time>2020-06-23T10:01:08Z</time>
      </trkpt>
      <trkpt lat="50.98584" lon="2.11786">
        <ele>3.9</ele>
        <time>2020-06-23T10:01:09Z</time>
      </trkpt>
      <trkpt lat="50.9858" lon="2.11794">
        <ele>3.9</ele>
        <time>2020-06-23T10:01:10Z</time>
      </trkpt>
      <trkpt lat="50.98575" lon="2.11799">
        <ele>4</ele>
        <time>2020-06-23T10:01:11Z</time>
      </trkpt>
      <trkpt lat="50.98569" lon="2.11802">
        <ele>4</ele>
        <time>2020-06-23T10:01:12Z</time>
      </trkpt>
      <trkpt lat="50.98562" lon="2.11801">
        <ele>3.9</ele>
        <time>2020-06-23T10:01:13Z</time>
      </trkpt>
      <trkpt lat="50.98555" lon="2.11799">
        <ele>3.8</ele>
        <time>2020-06-23T10:01:14Z</time>
      </trkpt>
      <trkpt lat="50.98549" lon="2.11796">
        <ele>3.7</ele>
        <time>2020-06-23T10:01:15Z</time>
      </trkpt>
      <trkpt lat="50.98544" lon="2.11791">
        <ele>3.6</ele>
        <time>2020-06-23T10:01:16Z</time>
      </trkpt>
      <trkpt lat="50.98538" lon="2.11785">
        <ele>3.6</ele>
        <time>2020-06-23T10:01:17Z</time>
      </trkpt>
      <trkpt lat="50.98532" lon="2.11781">
        <ele>3.6</ele>
        <time>2020-06-23T10:01:18Z</time>
      </trkpt>
      <trkpt lat="50.98527" lon="2.11777">
        <ele>3.6</ele>
        <time>2020-06-23T10:01:19Z</time>
      </trkpt>
      <trkpt lat="50.98521" lon="2.11773">
        <ele>3.6</ele>
        <time>2020-06-23T10:01:20Z</time>
      </trkpt>
      <trkpt lat="50.98516" lon="2.11769">
        <ele>3.6</ele>
        <time>2020-06-23T10:01:21Z</time>
      </trkpt>
      <trkpt lat="50.9851" lon="2.11764">
        <ele>3.7</ele>
        <time>2020-06-23T10:01:22Z</time>
      </trkpt>
      <trkpt lat="50.98504" lon="2.11759">
        <ele>3.7</ele>
        <time>2020-06-23T10:01:23Z</time>
      </trkpt>
      <trkpt lat="50.98498" lon="2.11755">
        <ele>3.7</ele>
        <time>2020-06-23T10:01:24Z</time>
      </trkpt>
      <trkpt lat="50.98493" lon="2.11751">
        <ele>3.7</ele>
        <time>2020-06-23T10:01:25Z</time>
      </trkpt>
      <trkpt lat="50.98487" lon="2.11747">
        <ele>3.7</ele>
        <time>2020-06-23T10:01:26Z</time>
      </trkpt>
      <trkpt lat="50.98481" lon="2.11743">
        <ele>3.7</ele>
        <time>2020-06-23T10:01:27Z</time>
      </trkpt>
      <trkpt lat="50.98476" lon="2.11739">
        <ele>3.7</ele>
        <time>2020-06-23T10:01:28Z</time>
      </trkpt>
      <trkpt lat="50.9847" lon="2.11736">
        <ele>3.7</ele>
        <time>2020-06-23T10:01:29Z</time>
      </trkpt>
      <trkpt lat="50.98465" lon="2.11734">
        <ele>3.7</ele>
        <time>2020-06-23T10:01:30Z</time>
      </trkpt>
      <trkpt lat="50.98459" lon="2.11729">
        <ele>3.7</ele>
        <time>2020-06-23T10:01:31Z</time>
      </trkpt>
      <trkpt lat="50.98454" lon="2.11725">
        <ele>3.8</ele>
        <time>2020-06-23T10:01:32Z</time>
      </trkpt>
      <trkpt lat="50.98448" lon="2.11721">
        <ele>3.8</ele>
        <time>2020-06-23T10:01:33Z</time>
      </trkpt>
      <trkpt lat="50.98443" lon="2.11718">
        <ele>3.9</ele>
        <time>2020-06-23T10:01:34Z</time>
      </trkpt>
      <trkpt lat="50.98437" lon="2.11715">
        <ele>3.9</ele>
        <time>2020-06-23T10:01:35Z</time>
      </trkpt>
      <trkpt lat="50.98431" lon="2.11711">
        <ele>4</ele>
        <time>2020-06-23T10:01:36Z</time>
      </trkpt>
      <trkpt lat="50.98425" lon="2.11707">
        <ele>4.1</ele>
        <time>2020-06-23T10:01:37Z</time>
      </trkpt>
      <trkpt lat="50.98418" lon="2.11702">
        <ele>4.1</ele>
        <time>2020-06-23T10:01:38Z</time>
      </trkpt>
      <trkpt lat="50.98413" lon="2.11698">
        <ele>4.1</ele>
        <time>2020-06-23T10:01:39Z</time>
      </trkpt>
      <trkpt lat="50.98407" lon="2.11694">
        <ele>4</ele>
        <time>2020-06-23T10:01:40Z</time>
      </trkpt>
      <trkpt lat="50.98401" lon="2.1169">
        <ele>4</ele>
        <time>2020-06-23T10:01:41Z</time>
      </trkpt>
      <trkpt lat="50.98396" lon="2.11687">
        <ele>4</ele>
        <time>2020-06-23T10:01:42Z</time>
      </trkpt>
      <trkpt lat="50.98391" lon="2.11683">
        <ele>4</ele>
        <time>2020-06-23T10:01:43Z</time>
      </trkpt>
      <trkpt lat="50.98385" lon="2.11679">
        <ele>4</ele>
        <time>2020-06-23T10:01:44Z</time>
      </trkpt>
      <trkpt lat="50.98379" lon="2.11675">
        <ele>4</ele>
        <time>2020-06-23T10:01:45Z</time>
      </trkpt>
      <trkpt lat="50.98373" lon="2.11673">
        <ele>3.9</ele>
        <time>2020-06-23T10:01:46Z</time>
      </trkpt>
      <trkpt lat="50.98366" lon="2.11672">
        <ele>3.9</ele>
        <time>2020-06-23T10:01:47Z</time>
      </trkpt>
      <trkpt lat="50.9836" lon="2.11673">
        <ele>3.9</ele>
        <time>2020-06-23T10:01:48Z</time>
      </trkpt>
      <trkpt lat="50.98353" lon="2.11675">
        <ele>3.8</ele>
        <time>2020-06-23T10:01:49Z</time>
      </trkpt>
      <trkpt lat="50.98347" lon="2.11678">
        <ele>3.8</ele>
        <time>2020-06-23T10:01:50Z</time>
      </trkpt>
      <trkpt lat="50.98341" lon="2.11681">
        <ele>3.7</ele>
        <time>2020-06-23T10:01:51Z</time>
      </trkpt>
      <trkpt lat="50.98335" lon="2.11685">
        <ele>3.7</ele>
        <time>2020-06-23T10:01:52Z</time>
      </trkpt>
      <trkpt lat="50.9833" lon="2.1169">
        <ele>3.7</ele>
        <time>2020-06-23T10:01:53Z</time>
      </trkpt>
      <trkpt lat="50.98326" lon="2.11697">
        <ele>3.7</ele>
        <time>2020-06-23T10:01:54Z</time>
      </trkpt>
      <trkpt lat="50.98321" lon="2.11705">
        <ele>3.7</ele>
        <time>2020-06-23T10:01:55Z</time>
      </trkpt>
      <trkpt lat="50.98317" lon="2.11713">
        <ele>3.7</ele>
        <time>2020-06-23T10:01:56Z</time>
      </trkpt>
      <trkpt lat="50.98314" lon="2.11721">
        <ele>3.7</ele>
        <time>2020-06-23T10:01:57Z</time>
      </trkpt>
      <trkpt lat="50.98311" lon="2.1173">
        <ele>3.7</ele>
        <time>2020-06-23T10:01:58Z</time>
      </trkpt>
      <trkpt lat="50.98308" lon="2.1174">
        <ele>3.8</ele>
        <time>2020-06-23T10:01:59Z</time>
      </trkpt>
      <trkpt lat="50.98307" lon="2.1175">
        <ele>3.7</ele>
        <time>2020-06-23T10:02:00Z</time>
      </trkpt>
      <trkpt lat="50.98305" lon="2.1176">
        <ele>3.7</ele>
        <time>2020-06-23T10:02:01Z</time>
      </trkpt>
      <trkpt lat="50.98302" lon="2.11771">
        <ele>3.6</ele>
        <time>2020-06-23T10:02:02Z</time>
      </trkpt>
      <trkpt lat="50.983" lon="2.1178">
        <ele>3.6</ele>
        <time>2020-06-23T10:02:03Z</time>
      </trkpt>
      <trkpt lat="50.98299" lon="2.1179">
        <ele>3.6</ele>
        <time>2020-06-23T10:02:04Z</time>
      </trkpt>
      <trkpt lat="50.98297" lon="2.11799">
        <ele>3.6</ele>
        <time>2020-06-23T10:02:05Z</time>
      </trkpt>
      <trkpt lat="50.98296" lon="2.11809">
        <ele>3.6</ele>
        <time>2020-06-23T10:02:06Z</time>
      </trkpt>
      <trkpt lat="50.98293" lon="2.11818">
        <ele>3.6</ele>
        <time>2020-06-23T10:02:07Z</time>
      </trkpt>
      <trkpt lat="50.98291" lon="2.11826">
        <ele>3.6</ele>
        <time>2020-06-23T10:02:08Z</time>
      </trkpt>
      <trkpt lat="50.98289" lon="2.11834">
        <ele>3.6</ele>
        <time>2020-06-23T10:02:09Z</time>
      </trkpt>
      <trkpt lat="50.98288" lon="2.11842">
        <ele>3.6</ele>
        <time>2020-06-23T10:02:10Z</time>
      </trkpt>
      <trkpt lat="50.98286" lon="2.1185">
        <ele>3.6</ele>
        <time>2020-06-23T10:02:11Z</time>
      </trkpt>
      <trkpt lat="50.98284" lon="2.11859">
        <ele>3.6</ele>
        <time>2020-06-23T10:02:12Z</time>
      </trkpt>
      <trkpt lat="50.98282" lon="2.11868">
        <ele>3.6</ele>
        <time>2020-06-23T10:02:13Z</time>
      </trkpt>
      <trkpt lat="50.9828" lon="2.11877">
        <ele>3.7</ele>
        <time>2020-06-23T10:02:14Z</time>
      </trkpt>
      <trkpt lat="50.98278" lon="2.11887">
        <ele>3.7</ele>
        <time>2020-06-23T10:02:15Z</time>
      </trkpt>
      <trkpt lat="50.98276" lon="2.11897">
        <ele>3.7</ele>
        <time>2020-06-23T10:02:16Z</time>
      </trkpt>
      <trkpt lat="50.98273" lon="2.11907">
        <ele>3.8</ele>
        <time>2020-06-23T10:02:17Z</time>
      </trkpt>
      <trkpt lat="50.9827" lon="2.11918">
        <ele>3.8</ele>
        <time>2020-06-23T10:02:18Z</time>
      </trkpt>
      <trkpt lat="50.98268" lon="2.11928">
        <ele>3.8</ele>
        <time>2020-06-23T10:02:19Z</time>
      </trkpt>
      <trkpt lat="50.98265" lon="2.11938">
        <ele>3.8</ele>
        <time>2020-06-23T10:02:20Z</time>
      </trkpt>
      <trkpt lat="50.98263" lon="2.11947">
        <ele>3.8</ele>
        <time>2020-06-23T10:02:21Z</time>
      </trkpt>
      <trkpt lat="50.98261" lon="2.11956">
        <ele>3.8</ele>
        <time>2020-06-23T10:02:22Z</time>
      </trkpt>
      <trkpt lat="50.9826" lon="2.11962">
        <ele>3.8</ele>
        <time>2020-06-23T10:02:23Z</time>
      </trkpt>
      <trkpt lat="50.98258" lon="2.1197">
        <ele>3.8</ele>
        <time>2020-06-23T10:02:24Z</time>
      </trkpt>
      <trkpt lat="50.98257" lon="2.11978">
        <ele>3.9</ele>
        <time>2020-06-23T10:02:25Z</time>
      </trkpt>
      <trkpt lat="50.98254" lon="2.11986">
        <ele>3.9</ele>
        <time>2020-06-23T10:02:26Z</time>
      </trkpt>
      <trkpt lat="50.98251" lon="2.11993">
        <ele>4</ele>
        <time>2020-06-23T10:02:27Z</time>
      </trkpt>
      <trkpt lat="50.98248" lon="2.12">
        <ele>4</ele>
        <time>2020-06-23T10:02:28Z</time>
      </trkpt>
      <trkpt lat="50.98245" lon="2.12007">
        <ele>4.1</ele>
        <time>2020-06-23T10:02:29Z</time>
      </trkpt>
      <trkpt lat="50.98242" lon="2.12014">
        <ele>4.2</ele>
        <time>2020-06-23T10:02:30Z</time>
      </trkpt>
      <trkpt lat="50.9824" lon="2.1202">
        <ele>4.3</ele>
        <time>2020-06-23T10:02:31Z</time>
      </trkpt>
      <trkpt lat="50.9824" lon="2.12029">
        <ele>4.4</ele>
        <time>2020-06-23T10:02:32Z</time>
      </trkpt>
      <trkpt lat="50.9824" lon="2.12039">
        <ele>4.6</ele>
        <time>2020-06-23T10:02:33Z</time>
      </trkpt>
      <trkpt lat="50.98242" lon="2.12048">
        <ele>4.7</ele>
        <time>2020-06-23T10:02:34Z</time>
      </trkpt>
      <trkpt lat="50.98245" lon="2.12056">
        <ele>4.7</ele>
        <time>2020-06-23T10:02:35Z</time>
      </trkpt>
      <trkpt lat="50.98248" lon="2.12063">
        <ele>4.8</ele>
        <time>2020-06-23T10:02:36Z</time>
      </trkpt>
      <trkpt lat="50.98252" lon="2.12068">
        <ele>4.8</ele>
        <time>2020-06-23T10:02:37Z</time>
      </trkpt>
      <trkpt lat="50.98255" lon="2.12073">
        <ele>5</ele>
        <time>2020-06-23T10:02:38Z</time>
      </trkpt>
      <trkpt lat="50.98258" lon="2.12079">
        <ele>5.1</ele>
        <time>2020-06-23T10:02:39Z</time>
      </trkpt>
      <trkpt lat="50.98262" lon="2.12086">
        <ele>5.1</ele>
        <time>2020-06-23T10:02:40Z</time>
      </trkpt>
      <trkpt lat="50.98266" lon="2.12093">
        <ele>5.2</ele>
        <time>2020-06-23T10:02:41Z</time>
      </trkpt>
      <trkpt lat="50.9827" lon="2.121">
        <ele>5.1</ele>
        <time>2020-06-23T10:02:42Z</time>
      </trkpt>
      <trkpt lat="50.98274" lon="2.12106">
        <ele>5.1</ele>
        <time>2020-06-23T10:02:43Z</time>
      </trkpt>
      <trkpt lat="50.98277" lon="2.12113">
        <ele>5</ele>
        <time>2020-06-23T10:02:44Z</time>
      </trkpt>
      <trkpt lat="50.9828" lon="2.12119">
        <ele>5</ele>
        <time>2020-06-23T10:02:45Z</time>
      </trkpt>
      <trkpt lat="50.98284" lon="2.12127">
        <ele>4.9</ele>
        <time>2020-06-23T10:02:46Z</time>
      </trkpt>
      <trkpt lat="50.98288" lon="2.12136">
        <ele>4.8</ele>
        <time>2020-06-23T10:02:47Z</time>
      </trkpt>
      <trkpt lat="50.98292" lon="2.12144">
        <ele>4.8</ele>
        <time>2020-06-23T10:02:48Z</time>
      </trkpt>
      <trkpt lat="50.98297" lon="2.12154">
        <ele>4.7</ele>
        <time>2020-06-23T10:02:49Z</time>
      </trkpt>
      <trkpt lat="50.98302" lon="2.12162">
        <ele>4.7</ele>
        <time>2020-06-23T10:02:50Z</time>
      </trkpt>
      <trkpt lat="50.98307" lon="2.12171">
        <ele>4.6</ele>
        <time>2020-06-23T10:02:51Z</time>
      </trkpt>
      <trkpt lat="50.98311" lon="2.12179">
        <ele>4.6</ele>
        <time>2020-06-23T10:02:52Z</time>
      </trkpt>
      <trkpt lat="50.98317" lon="2.12188">
        <ele>4.6</ele>
        <time>2020-06-23T10:02:53Z</time>
      </trkpt>
      <trkpt lat="50.98322" lon="2.12196">
        <ele>4.6</ele>
        <time>2020-06-23T10:02:54Z</time>
      </trkpt>
      <trkpt lat="50.98326" lon="2.12205">
        <ele>4.6</ele>
        <time>2020-06-23T10:02:55Z</time>
      </trkpt>
      <trkpt lat="50.9833" lon="2.12212">
        <ele>4.7</ele>
        <time>2020-06-23T10:02:56Z</time>
      </trkpt>
      <trkpt lat="50.98334" lon="2.1222">
        <ele>4.7</ele>
        <time>2020-06-23T10:02:57Z</time>
      </trkpt>
      <trkpt lat="50.98338" lon="2.12228">
        <ele>4.7</ele>
        <time>2020-06-23T10:02:58Z</time>
      </trkpt>
      <trkpt lat="50.98341" lon="2.12236">
        <ele>4.7</ele>
        <time>2020-06-23T10:02:59Z</time>
      </trkpt>
      <trkpt lat="50.98344" lon="2.12245">
        <ele>4.7</ele>
        <time>2020-06-23T10:03:00Z</time>
      </trkpt>
      <trkpt lat="50.98347" lon="2.12253">
        <ele>4.7</ele>
        <time>2020-06-23T10:03:01Z</time>
      </trkpt>
      <trkpt lat="50.9835" lon="2.12263">
        <ele>4.7</ele>
        <time>2020-06-23T10:03:02Z</time>
      </trkpt>
      <trkpt lat="50.98353" lon="2.12271">
        <ele>4.6</ele>
        <time>2020-06-23T10:03:03Z</time>
      </trkpt>
      <trkpt lat="50.98357" lon="2.12279">
        <ele>4.5</ele>
        <time>2020-06-23T10:03:04Z</time>
      </trkpt>
      <trkpt lat="50.98361" lon="2.12286">
        <ele>4.5</ele>
        <time>2020-06-23T10:03:05Z</time>
      </trkpt>
      <trkpt lat="50.98364" lon="2.12293">
        <ele>4.4</ele>
        <time>2020-06-23T10:03:06Z</time>
      </trkpt>
      <trkpt lat="50.98368" lon="2.12301">
        <ele>4.3</ele>
        <time>2020-06-23T10:03:07Z</time>
      </trkpt>
      <trkpt lat="50.98371" lon="2.1231">
        <ele>4.3</ele>
        <time>2020-06-23T10:03:08Z</time>
      </trkpt>
      <trkpt lat="50.98374" lon="2.12318">
        <ele>4.2</ele>
        <time>2020-06-23T10:03:09Z</time>
      </trkpt>
      <trkpt lat="50.98377" lon="2.12326">
        <ele>4.2</ele>
        <time>2020-06-23T10:03:10Z</time>
      </trkpt>
      <trkpt lat="50.98381" lon="2.12334">
        <ele>4.2</ele>
        <time>2020-06-23T10:03:11Z</time>
      </trkpt>
      <trkpt lat="50.98384" lon="2.12342">
        <ele>4.2</ele>
        <time>2020-06-23T10:03:12Z</time>
      </trkpt>
      <trkpt lat="50.98388" lon="2.12351">
        <ele>4.3</ele>
        <time>2020-06-23T10:03:13Z</time>
      </trkpt>
      <trkpt lat="50.98392" lon="2.1236">
        <ele>4.3</ele>
        <time>2020-06-23T10:03:14Z</time>
      </trkpt>
      <trkpt lat="50.98397" lon="2.12368">
        <ele>4.3</ele>
        <time>2020-06-23T10:03:15Z</time>
      </trkpt>
      <trkpt lat="50.98401" lon="2.12377">
        <ele>4.3</ele>
        <time>2020-06-23T10:03:16Z</time>
      </trkpt>
      <trkpt lat="50.98405" lon="2.12386">
        <ele>4.3</ele>
        <time>2020-06-23T10:03:17Z</time>
      </trkpt>
      <trkpt lat="50.98408" lon="2.12394">
        <ele>4.4</ele>
        <time>2020-06-23T10:03:18Z</time>
      </trkpt>
      <trkpt lat="50.98412" lon="2.12402">
        <ele>4.5</ele>
        <time>2020-06-23T10:03:19Z</time>
      </trkpt>
      <trkpt lat="50.98415" lon="2.1241">
        <ele>4.6</ele>
        <time>2020-06-23T10:03:20Z</time>
      </trkpt>
      <trkpt lat="50.98419" lon="2.12418">
        <ele>4.7</ele>
        <time>2020-06-23T10:03:21Z</time>
      </trkpt>
      <trkpt lat="50.98423" lon="2.12426">
        <ele>4.7</ele>
        <time>2020-06-23T10:03:22Z</time>
      </trkpt>
      <trkpt lat="50.98427" lon="2.12434">
        <ele>4.6</ele>
        <time>2020-06-23T10:03:23Z</time>
      </trkpt>
      <trkpt lat="50.9843" lon="2.12443">
        <ele>4.6</ele>
        <time>2020-06-23T10:03:24Z</time>
      </trkpt>
      <trkpt lat="50.98433" lon="2.1245">
        <ele>4.5</ele>
        <time>2020-06-23T10:03:25Z</time>
      </trkpt>
      <trkpt lat="50.98437" lon="2.12458">
        <ele>4.5</ele>
        <time>2020-06-23T10:03:26Z</time>
      </trkpt>
      <trkpt lat="50.9844" lon="2.12465">
        <ele>4.4</ele>
        <time>2020-06-23T10:03:27Z</time>
      </trkpt>
      <trkpt lat="50.98443" lon="2.12473">
        <ele>4.4</ele>
        <time>2020-06-23T10:03:28Z</time>
      </trkpt>
      <trkpt lat="50.98447" lon="2.12481">
        <ele>4.4</ele>
        <time>2020-06-23T10:03:29Z</time>
      </trkpt>
      <trkpt lat="50.98451" lon="2.1249">
        <ele>4.4</ele>
        <time>2020-06-23T10:03:30Z</time>
      </trkpt>
      <trkpt lat="50.98455" lon="2.12499">
        <ele>4.3</ele>
        <time>2020-06-23T10:03:31Z</time>
      </trkpt>
      <trkpt lat="50.98458" lon="2.12506">
        <ele>4.3</ele>
        <time>2020-06-23T10:03:32Z</time>
      </trkpt>
      <trkpt lat="50.98463" lon="2.12514">
        <ele>4.3</ele>
        <time>2020-06-23T10:03:33Z</time>
      </trkpt>
      <trkpt lat="50.98467" lon="2.1252">
        <ele>4.3</ele>
        <time>2020-06-23T10:03:34Z</time>
      </trkpt>
      <trkpt lat="50.98471" lon="2.12527">
        <ele>4.3</ele>
        <time>2020-06-23T10:03:35Z</time>
      </trkpt>
      <trkpt lat="50.98476" lon="2.12534">
        <ele>4.3</ele>
        <time>2020-06-23T10:03:36Z</time>
      </trkpt>
      <trkpt lat="50.9848" lon="2.1254">
        <ele>4.3</ele>
        <time>2020-06-23T10:03:37Z</time>
      </trkpt>
      <trkpt lat="50.98485" lon="2.12548">
        <ele>4.2</ele>
        <time>2020-06-23T10:03:38Z</time>
      </trkpt>
      <trkpt lat="50.98489" lon="2.12554">
        <ele>4.2</ele>
        <time>2020-06-23T10:03:39Z</time>
      </trkpt>
      <trkpt lat="50.98494" lon="2.1256">
        <ele>4.1</ele>
        <time>2020-06-23T10:03:40Z</time>
      </trkpt>
      <trkpt lat="50.98498" lon="2.12565">
        <ele>4.1</ele>
        <time>2020-06-23T10:03:41Z</time>
      </trkpt>
      <trkpt lat="50.98499" lon="2.12567">
        <ele>4</ele>
        <time>2020-06-23T10:03:42Z</time>
      </trkpt>
      <trkpt lat="50.98505" lon="2.12573">
        <ele>4</ele>
        <time>2020-06-23T10:03:43Z</time>
      </trkpt>
      <trkpt lat="50.98508" lon="2.12578">
        <ele>4</ele>
        <time>2020-06-23T10:03:44Z</time>
      </trkpt>
      <trkpt lat="50.98513" lon="2.12584">
        <ele>3.9</ele>
        <time>2020-06-23T10:03:45Z</time>
      </trkpt>
      <trkpt lat="50.98519" lon="2.12587">
        <ele>4</ele>
        <time>2020-06-23T10:03:46Z</time>
      </trkpt>
      <trkpt lat="50.98523" lon="2.12591">
        <ele>4</ele>
        <time>2020-06-23T10:03:47Z</time>
      </trkpt>
      <trkpt lat="50.98527" lon="2.12594">
        <ele>4.1</ele>
        <time>2020-06-23T10:03:48Z</time>
      </trkpt>
      <trkpt lat="50.98528" lon="2.12601">
        <ele>4.1</ele>
        <time>2020-06-23T10:03:49Z</time>
      </trkpt>
      <trkpt lat="50.98528" lon="2.12605">
        <ele>4.1</ele>
        <time>2020-06-23T10:03:50Z</time>
      </trkpt>
      <trkpt lat="50.98529" lon="2.12613">
        <ele>4.1</ele>
        <time>2020-06-23T10:03:51Z</time>
      </trkpt>
      <trkpt lat="50.9853" lon="2.12622">
        <ele>4.1</ele>
        <time>2020-06-23T10:03:52Z</time>
      </trkpt>
      <trkpt lat="50.98531" lon="2.12633">
        <ele>4.1</ele>
        <time>2020-06-23T10:03:53Z</time>
      </trkpt>
      <trkpt lat="50.98531" lon="2.1264">
        <ele>4.2</ele>
        <time>2020-06-23T10:03:54Z</time>
      </trkpt>
      <trkpt lat="50.98531" lon="2.1265">
        <ele>4.2</ele>
        <time>2020-06-23T10:03:55Z</time>
      </trkpt>
      <trkpt lat="50.98531" lon="2.12657">
        <ele>4.3</ele>
        <time>2020-06-23T10:03:56Z</time>
      </trkpt>
      <trkpt lat="50.9853" lon="2.12668">
        <ele>4.4</ele>
        <time>2020-06-23T10:03:57Z</time>
      </trkpt>
      <trkpt lat="50.98531" lon="2.12677">
        <ele>4.5</ele>
        <time>2020-06-23T10:03:58Z</time>
      </trkpt>
      <trkpt lat="50.98531" lon="2.12687">
        <ele>4.6</ele>
        <time>2020-06-23T10:03:59Z</time>
      </trkpt>
      <trkpt lat="50.98532" lon="2.12693">
        <ele>4.6</ele>
        <time>2020-06-23T10:04:00Z</time>
      </trkpt>
      <trkpt lat="50.98531" lon="2.12701">
        <ele>4.7</ele>
        <time>2020-06-23T10:04:01Z</time>
      </trkpt>
      <trkpt lat="50.98531" lon="2.12708">
        <ele>4.8</ele>
        <time>2020-06-23T10:04:02Z</time>
      </trkpt>
      <trkpt lat="50.9853" lon="2.12713">
        <ele>4.8</ele>
        <time>2020-06-23T10:04:03Z</time>
      </trkpt>
      <trkpt lat="50.98531" lon="2.12722">
        <ele>4.9</ele>
        <time>2020-06-23T10:04:04Z</time>
      </trkpt>
      <trkpt lat="50.98532" lon="2.12731">
        <ele>5</ele>
        <time>2020-06-23T10:04:05Z</time>
      </trkpt>
      <trkpt lat="50.98532" lon="2.1274">
        <ele>5</ele>
        <time>2020-06-23T10:04:06Z</time>
      </trkpt>
      <trkpt lat="50.98531" lon="2.12751">
        <ele>5</ele>
        <time>2020-06-23T10:04:07Z</time>
      </trkpt>
      <trkpt lat="50.9853" lon="2.1276">
        <ele>5</ele>
        <time>2020-06-23T10:04:08Z</time>
      </trkpt>
      <trkpt lat="50.98529" lon="2.12767">
        <ele>5</ele>
        <time>2020-06-23T10:04:09Z</time>
      </trkpt>
      <trkpt lat="50.98529" lon="2.12775">
        <ele>5</ele>
        <time>2020-06-23T10:04:10Z</time>
      </trkpt>
      <trkpt lat="50.98529" lon="2.12783">
        <ele>5</ele>
        <time>2020-06-23T10:04:11Z</time>
      </trkpt>
      <trkpt lat="50.98528" lon="2.12792">
        <ele>5</ele>
        <time>2020-06-23T10:04:12Z</time>
      </trkpt>
      <trkpt lat="50.98528" lon="2.12798">
        <ele>4.9</ele>
        <time>2020-06-23T10:04:13Z</time>
      </trkpt>
      <trkpt lat="50.98527" lon="2.12806">
        <ele>4.9</ele>
        <time>2020-06-23T10:04:14Z</time>
      </trkpt>
      <trkpt lat="50.98526" lon="2.1281">
        <ele>4.9</ele>
        <time>2020-06-23T10:04:15Z</time>
      </trkpt>
      <trkpt lat="50.98526" lon="2.12819">
        <ele>4.8</ele>
        <time>2020-06-23T10:04:16Z</time>
      </trkpt>
      <trkpt lat="50.98527" lon="2.12826">
        <ele>4.8</ele>
        <time>2020-06-23T10:04:17Z</time>
      </trkpt>
      <trkpt lat="50.98525" lon="2.12833">
        <ele>4.8</ele>
        <time>2020-06-23T10:04:18Z</time>
      </trkpt>
      <trkpt lat="50.98524" lon="2.12842">
        <ele>4.8</ele>
        <time>2020-06-23T10:04:19Z</time>
      </trkpt>
      <trkpt lat="50.98522" lon="2.12849">
        <ele>4.8</ele>
        <time>2020-06-23T10:04:20Z</time>
      </trkpt>
      <trkpt lat="50.98521" lon="2.12854">
        <ele>4.8</ele>
        <time>2020-06-23T10:04:21Z</time>
      </trkpt>
      <trkpt lat="50.9852" lon="2.12859">
        <ele>4.8</ele>
        <time>2020-06-23T10:04:22Z</time>
      </trkpt>
      <trkpt lat="50.98519" lon="2.12865">
        <ele>4.9</ele>
        <time>2020-06-23T10:04:23Z</time>
      </trkpt>
      <trkpt lat="50.98518" lon="2.12872">
        <ele>4.9</ele>
        <time>2020-06-23T10:04:24Z</time>
      </trkpt>
      <trkpt lat="50.98518" lon="2.12879">
        <ele>5</ele>
        <time>2020-06-23T10:04:25Z</time>
      </trkpt>
      <trkpt lat="50.98519" lon="2.12886">
        <ele>5.1</ele>
        <time>2020-06-23T10:04:26Z</time>
      </trkpt>
      <trkpt lat="50.98519" lon="2.12892">
        <ele>5.1</ele>
        <time>2020-06-23T10:04:27Z</time>
      </trkpt>
      <trkpt lat="50.98519" lon="2.12899">
        <ele>5.2</ele>
        <time>2020-06-23T10:04:28Z</time>
      </trkpt>
      <trkpt lat="50.9852" lon="2.12911">
        <ele>5.1</ele>
        <time>2020-06-23T10:04:29Z</time>
      </trkpt>
      <trkpt lat="50.98521" lon="2.12921">
        <ele>5.1</ele>
        <time>2020-06-23T10:04:30Z</time>
      </trkpt>
      <trkpt lat="50.98521" lon="2.12933">
        <ele>5</ele>
        <time>2020-06-23T10:04:31Z</time>
      </trkpt>
      <trkpt lat="50.9852" lon="2.12942">
        <ele>5</ele>
        <time>2020-06-23T10:04:32Z</time>
      </trkpt>
      <trkpt lat="50.9852" lon="2.12953">
        <ele>4.9</ele>
        <time>2020-06-23T10:04:33Z</time>
      </trkpt>
      <trkpt lat="50.9852" lon="2.12963">
        <ele>4.9</ele>
        <time>2020-06-23T10:04:34Z</time>
      </trkpt>
      <trkpt lat="50.9852" lon="2.12971">
        <ele>4.9</ele>
        <time>2020-06-23T10:04:35Z</time>
      </trkpt>
      <trkpt lat="50.9852" lon="2.12982">
        <ele>4.9</ele>
        <time>2020-06-23T10:04:36Z</time>
      </trkpt>
      <trkpt lat="50.9852" lon="2.12994">
        <ele>5</ele>
        <time>2020-06-23T10:04:37Z</time>
      </trkpt>
      <trkpt lat="50.98521" lon="2.13001">
        <ele>5.1</ele>
        <time>2020-06-23T10:04:38Z</time>
      </trkpt>
      <trkpt lat="50.98521" lon="2.13008">
        <ele>5.1</ele>
        <time>2020-06-23T10:04:39Z</time>
      </trkpt>
      <trkpt lat="50.98521" lon="2.13014">
        <ele>5.2</ele>
        <time>2020-06-23T10:04:40Z</time>
      </trkpt>
      <trkpt lat="50.98522" lon="2.1302">
        <ele>5.2</ele>
        <time>2020-06-23T10:04:41Z</time>
      </trkpt>
      <trkpt lat="50.98525" lon="2.13025">
        <ele>5.1</ele>
        <time>2020-06-23T10:04:42Z</time>
      </trkpt>
      <trkpt lat="50.9853" lon="2.13026">
        <ele>4.9</ele>
        <time>2020-06-23T10:04:43Z</time>
      </trkpt>
      <trkpt lat="50.98535" lon="2.13027">
        <ele>4.8</ele>
        <time>2020-06-23T10:04:44Z</time>
      </trkpt>
      <trkpt lat="50.98541" lon="2.13027">
        <ele>4.7</ele>
        <time>2020-06-23T10:04:45Z</time>
      </trkpt>
      <trkpt lat="50.98546" lon="2.13027">
        <ele>4.5</ele>
        <time>2020-06-23T10:04:46Z</time>
      </trkpt>
      <trkpt lat="50.98551" lon="2.13027">
        <ele>4.4</ele>
        <time>2020-06-23T10:04:47Z</time>
      </trkpt>
      <trkpt lat="50.98557" lon="2.13029">
        <ele>4.3</ele>
        <time>2020-06-23T10:04:48Z</time>
      </trkpt>
      <trkpt lat="50.98561" lon="2.13031">
        <ele>4.2</ele>
        <time>2020-06-23T10:04:49Z</time>
      </trkpt>
      <trkpt lat="50.98566" lon="2.13032">
        <ele>4.1</ele>
        <time>2020-06-23T10:04:50Z</time>
      </trkpt>
      <trkpt lat="50.98572" lon="2.13033">
        <ele>4</ele>
        <time>2020-06-23T10:04:51Z</time>
      </trkpt>
      <trkpt lat="50.98577" lon="2.13033">
        <ele>4</ele>
        <time>2020-06-23T10:04:52Z</time>
      </trkpt>
      <trkpt lat="50.98581" lon="2.13033">
        <ele>3.9</ele>
        <time>2020-06-23T10:04:53Z</time>
      </trkpt>
      <trkpt lat="50.98586" lon="2.13033">
        <ele>3.9</ele>
        <time>2020-06-23T10:04:54Z</time>
      </trkpt>
      <trkpt lat="50.98591" lon="2.13033">
        <ele>3.9</ele>
        <time>2020-06-23T10:04:55Z</time>
      </trkpt>
      <trkpt lat="50.98596" lon="2.13033">
        <ele>3.9</ele>
        <time>2020-06-23T10:04:56Z</time>
      </trkpt>
      <trkpt lat="50.98602" lon="2.13033">
        <ele>3.9</ele>
        <time>2020-06-23T10:04:57Z</time>
      </trkpt>
      <trkpt lat="50.98606" lon="2.13034">
        <ele>3.9</ele>
        <time>2020-06-23T10:04:58Z</time>
      </trkpt>
      <trkpt lat="50.9861" lon="2.13031">
        <ele>3.9</ele>
        <time>2020-06-23T10:04:59Z</time>
      </trkpt>
      <trkpt lat="50.98611" lon="2.13031">
        <ele>3.8</ele>
        <time>2020-06-23T10:05:00Z</time>
      </trkpt>
      <trkpt lat="50.98616" lon="2.13031">
        <ele>3.8</ele>
        <time>2020-06-23T10:05:01Z</time>
      </trkpt>
      <trkpt lat="50.9862" lon="2.13032">
        <ele>3.8</ele>
        <time>2020-06-23T10:05:02Z</time>
      </trkpt>
      <trkpt lat="50.98624" lon="2.13033">
        <ele>3.8</ele>
        <time>2020-06-23T10:05:03Z</time>
      </trkpt>
      <trkpt lat="50.9863" lon="2.13034">
        <ele>3.9</ele>
        <time>2020-06-23T10:05:04Z</time>
      </trkpt>
      <trkpt lat="50.98635" lon="2.13035">
        <ele>3.9</ele>
        <time>2020-06-23T10:05:05Z</time>
      </trkpt>
      <trkpt lat="50.98641" lon="2.13036">
        <ele>3.9</ele>
        <time>2020-06-23T10:05:06Z</time>
      </trkpt>
      <trkpt lat="50.98647" lon="2.13037">
        <ele>3.9</ele>
        <time>2020-06-23T10:05:07Z</time>
      </trkpt>
      <trkpt lat="50.98653" lon="2.13038">
        <ele>3.9</ele>
        <time>2020-06-23T10:05:08Z</time>
      </trkpt>
      <trkpt lat="50.98658" lon="2.13038">
        <ele>3.9</ele>
        <time>2020-06-23T10:05:09Z</time>
      </trkpt>
      <trkpt lat="50.98663" lon="2.13038">
        <ele>3.9</ele>
        <time>2020-06-23T10:05:10Z</time>
      </trkpt>
      <trkpt lat="50.98668" lon="2.13038">
        <ele>4</ele>
        <time>2020-06-23T10:05:11Z</time>
      </trkpt>
      <trkpt lat="50.98673" lon="2.13039">
        <ele>4</ele>
        <time>2020-06-23T10:05:12Z</time>
      </trkpt>
      <trkpt lat="50.98679" lon="2.13039">
        <ele>4</ele>
        <time>2020-06-23T10:05:13Z</time>
      </trkpt>
      <trkpt lat="50.98683" lon="2.13038">
        <ele>4</ele>
        <time>2020-06-23T10:05:14Z</time>
      </trkpt>
      <trkpt lat="50.98688" lon="2.13038">
        <ele>4</ele>
        <time>2020-06-23T10:05:15Z</time>
      </trkpt>
      <trkpt lat="50.98693" lon="2.13038">
        <ele>4</ele>
        <time>2020-06-23T10:05:16Z</time>
      </trkpt>
      <trkpt lat="50.98697" lon="2.13037">
        <ele>4</ele>
        <time>2020-06-23T10:05:17Z</time>
      </trkpt>
      <trkpt lat="50.98702" lon="2.13036">
        <ele>3.9</ele>
        <time>2020-06-23T10:05:18Z</time>
      </trkpt>
      <trkpt lat="50.98707" lon="2.13035">
        <ele>3.9</ele>
        <time>2020-06-23T10:05:19Z</time>
      </trkpt>
      <trkpt lat="50.98712" lon="2.13034">
        <ele>3.9</ele>
        <time>2020-06-23T10:05:20Z</time>
      </trkpt>
      <trkpt lat="50.98717" lon="2.13033">
        <ele>3.8</ele>
        <time>2020-06-23T10:05:21Z</time>
      </trkpt>
      <trkpt lat="50.98721" lon="2.13032">
        <ele>3.8</ele>
        <time>2020-06-23T10:05:22Z</time>
      </trkpt>
      <trkpt lat="50.98725" lon="2.13031">
        <ele>3.8</ele>
        <time>2020-06-23T10:05:23Z</time>
      </trkpt>
      <trkpt lat="50.98731" lon="2.13029">
        <ele>3.8</ele>
        <time>2020-06-23T10:05:24Z</time>
      </trkpt>
      <trkpt lat="50.98736" lon="2.13028">
        <ele>3.9</ele>
        <time>2020-06-23T10:05:25Z</time>
      </trkpt>
      <trkpt lat="50.98742" lon="2.13026">
        <ele>3.8</ele>
        <time>2020-06-23T10:05:26Z</time>
      </trkpt>
      <trkpt lat="50.98747" lon="2.13023">
        <ele>3.8</ele>
        <time>2020-06-23T10:05:27Z</time>
      </trkpt>
      <trkpt lat="50.98751" lon="2.13022">
        <ele>3.8</ele>
        <time>2020-06-23T10:05:28Z</time>
      </trkpt>
      <trkpt lat="50.98756" lon="2.13019">
        <ele>3.8</ele>
        <time>2020-06-23T10:05:29Z</time>
      </trkpt>
      <trkpt lat="50.9876" lon="2.13017">
        <ele>3.8</ele>
        <time>2020-06-23T10:05:30Z</time>
      </trkpt>
      <trkpt lat="50.98765" lon="2.13015">
        <ele>3.8</ele>
        <time>2020-06-23T10:05:31Z</time>
      </trkpt>
      <trkpt lat="50.9877" lon="2.13013">
        <ele>3.8</ele>
        <time>2020-06-23T10:05:32Z</time>
      </trkpt>
      <trkpt lat="50.98776" lon="2.1301">
        <ele>3.8</ele>
        <time>2020-06-23T10:05:33Z</time>
      </trkpt>
      <trkpt lat="50.9878" lon="2.13008">
        <ele>3.8</ele>
        <time>2020-06-23T10:05:34Z</time>
      </trkpt>
      <trkpt lat="50.98784" lon="2.13006">
        <ele>3.9</ele>
        <time>2020-06-23T10:05:35Z</time>
      </trkpt>
      <trkpt lat="50.98789" lon="2.13004">
        <ele>3.9</ele>
        <time>2020-06-23T10:05:36Z</time>
      </trkpt>
      <trkpt lat="50.98793" lon="2.13002">
        <ele>3.9</ele>
        <time>2020-06-23T10:05:37Z</time>
      </trkpt>
      <trkpt lat="50.98798" lon="2.13">
        <ele>4</ele>
        <time>2020-06-23T10:05:38Z</time>
      </trkpt>
      <trkpt lat="50.98802" lon="2.12998">
        <ele>4.1</ele>
        <time>2020-06-23T10:05:39Z</time>
      </trkpt>
      <trkpt lat="50.98806" lon="2.12999">
        <ele>4.3</ele>
        <time>2020-06-23T10:05:40Z</time>
      </trkpt>
      <trkpt lat="50.9881" lon="2.13001">
        <ele>4.3</ele>
        <time>2020-06-23T10:05:41Z</time>
      </trkpt>
      <trkpt lat="50.98812" lon="2.13004">
        <ele>4.3</ele>
        <time>2020-06-23T10:05:42Z</time>
      </trkpt>
      <trkpt lat="50.98814" lon="2.1301">
        <ele>4.3</ele>
        <time>2020-06-23T10:05:43Z</time>
      </trkpt>
      <trkpt lat="50.98817" lon="2.13016">
        <ele>4.3</ele>
        <time>2020-06-23T10:05:44Z</time>
      </trkpt>
      <trkpt lat="50.9882" lon="2.13022">
        <ele>4.3</ele>
        <time>2020-06-23T10:05:45Z</time>
      </trkpt>
      <trkpt lat="50.98822" lon="2.13027">
        <ele>4.4</ele>
        <time>2020-06-23T10:05:46Z</time>
      </trkpt>
      <trkpt lat="50.98825" lon="2.13032">
        <ele>4.3</ele>
        <time>2020-06-23T10:05:47Z</time>
      </trkpt>
      <trkpt lat="50.98829" lon="2.13037">
        <ele>4.3</ele>
        <time>2020-06-23T10:05:48Z</time>
      </trkpt>
      <trkpt lat="50.98832" lon="2.13043">
        <ele>4.2</ele>
        <time>2020-06-23T10:05:49Z</time>
      </trkpt>
      <trkpt lat="50.98834" lon="2.13048">
        <ele>4.2</ele>
        <time>2020-06-23T10:05:50Z</time>
      </trkpt>
      <trkpt lat="50.98837" lon="2.13053">
        <ele>4.2</ele>
        <time>2020-06-23T10:05:51Z</time>
      </trkpt>
      <trkpt lat="50.9884" lon="2.13059">
        <ele>4.1</ele>
        <time>2020-06-23T10:05:52Z</time>
      </trkpt>
      <trkpt lat="50.98845" lon="2.13065">
        <ele>4.1</ele>
        <time>2020-06-23T10:05:53Z</time>
      </trkpt>
      <trkpt lat="50.98848" lon="2.13072">
        <ele>4</ele>
        <time>2020-06-23T10:05:54Z</time>
      </trkpt>
      <trkpt lat="50.98852" lon="2.13078">
        <ele>4</ele>
        <time>2020-06-23T10:05:55Z</time>
      </trkpt>
      <trkpt lat="50.98855" lon="2.13084">
        <ele>4</ele>
        <time>2020-06-23T10:05:56Z</time>
      </trkpt>
      <trkpt lat="50.98857" lon="2.1309">
        <ele>3.9</ele>
        <time>2020-06-23T10:05:57Z</time>
      </trkpt>
      <trkpt lat="50.9886" lon="2.131">
        <ele>3.9</ele>
        <time>2020-06-23T10:05:58Z</time>
      </trkpt>
      <trkpt lat="50.98862" lon="2.13109">
        <ele>3.9</ele>
        <time>2020-06-23T10:05:59Z</time>
      </trkpt>
      <trkpt lat="50.98864" lon="2.13115">
        <ele>3.8</ele>
        <time>2020-06-23T10:06:00Z</time>
      </trkpt>
      <trkpt lat="50.98866" lon="2.13122">
        <ele>3.8</ele>
        <time>2020-06-23T10:06:01Z</time>
      </trkpt>
      <trkpt lat="50.98868" lon="2.1313">
        <ele>3.8</ele>
        <time>2020-06-23T10:06:02Z</time>
      </trkpt>
      <trkpt lat="50.9887" lon="2.13137">
        <ele>3.8</ele>
        <time>2020-06-23T10:06:03Z</time>
      </trkpt>
      <trkpt lat="50.98872" lon="2.13145">
        <ele>3.8</ele>
        <time>2020-06-23T10:06:04Z</time>
      </trkpt>
      <trkpt lat="50.98874" lon="2.13152">
        <ele>3.8</ele>
        <time>2020-06-23T10:06:05Z</time>
      </trkpt>
      <trkpt lat="50.98876" lon="2.13159">
        <ele>3.8</ele>
        <time>2020-06-23T10:06:06Z</time>
      </trkpt>
      <trkpt lat="50.98878" lon="2.13166">
        <ele>3.8</ele>
        <time>2020-06-23T10:06:07Z</time>
      </trkpt>
      <trkpt lat="50.9888" lon="2.13174">
        <ele>3.8</ele>
        <time>2020-06-23T10:06:08Z</time>
      </trkpt>
      <trkpt lat="50.98882" lon="2.13183">
        <ele>3.8</ele>
        <time>2020-06-23T10:06:09Z</time>
      </trkpt>
      <trkpt lat="50.98883" lon="2.13192">
        <ele>3.9</ele>
        <time>2020-06-23T10:06:10Z</time>
      </trkpt>
      <trkpt lat="50.98885" lon="2.13201">
        <ele>3.9</ele>
        <time>2020-06-23T10:06:11Z</time>
      </trkpt>
      <trkpt lat="50.98887" lon="2.13209">
        <ele>4</ele>
        <time>2020-06-23T10:06:12Z</time>
      </trkpt>
      <trkpt lat="50.98889" lon="2.13218">
        <ele>4</ele>
        <time>2020-06-23T10:06:13Z</time>
      </trkpt>
      <trkpt lat="50.98891" lon="2.13225">
        <ele>4.1</ele>
        <time>2020-06-23T10:06:14Z</time>
      </trkpt>
      <trkpt lat="50.98893" lon="2.13232">
        <ele>4.1</ele>
        <time>2020-06-23T10:06:15Z</time>
      </trkpt>
      <trkpt lat="50.98896" lon="2.13241">
        <ele>4.2</ele>
        <time>2020-06-23T10:06:16Z</time>
      </trkpt>
      <trkpt lat="50.98898" lon="2.13249">
        <ele>4.2</ele>
        <time>2020-06-23T10:06:17Z</time>
      </trkpt>
      <trkpt lat="50.989" lon="2.13256">
        <ele>4.2</ele>
        <time>2020-06-23T10:06:18Z</time>
      </trkpt>
      <trkpt lat="50.98903" lon="2.13266">
        <ele>4.1</ele>
        <time>2020-06-23T10:06:19Z</time>
      </trkpt>
      <trkpt lat="50.98905" lon="2.13274">
        <ele>4</ele>
        <time>2020-06-23T10:06:20Z</time>
      </trkpt>
      <trkpt lat="50.98907" lon="2.13283">
        <ele>4</ele>
        <time>2020-06-23T10:06:21Z</time>
      </trkpt>
      <trkpt lat="50.9891" lon="2.13291">
        <ele>4</ele>
        <time>2020-06-23T10:06:22Z</time>
      </trkpt>
      <trkpt lat="50.98913" lon="2.133">
        <ele>3.9</ele>
        <time>2020-06-23T10:06:23Z</time>
      </trkpt>
      <trkpt lat="50.98916" lon="2.13308">
        <ele>3.9</ele>
        <time>2020-06-23T10:06:24Z</time>
      </trkpt>
      <trkpt lat="50.98919" lon="2.13316">
        <ele>3.9</ele>
        <time>2020-06-23T10:06:25Z</time>
      </trkpt>
      <trkpt lat="50.98922" lon="2.13324">
        <ele>3.8</ele>
        <time>2020-06-23T10:06:26Z</time>
      </trkpt>
      <trkpt lat="50.98925" lon="2.1333">
        <ele>3.8</ele>
        <time>2020-06-23T10:06:27Z</time>
      </trkpt>
      <trkpt lat="50.98928" lon="2.13335">
        <ele>3.8</ele>
        <time>2020-06-23T10:06:28Z</time>
      </trkpt>
      <trkpt lat="50.9893" lon="2.13341">
        <ele>3.8</ele>
        <time>2020-06-23T10:06:29Z</time>
      </trkpt>
      <trkpt lat="50.98933" lon="2.13346">
        <ele>3.7</ele>
        <time>2020-06-23T10:06:30Z</time>
      </trkpt>
      <trkpt lat="50.98936" lon="2.1335">
        <ele>3.7</ele>
        <time>2020-06-23T10:06:31Z</time>
      </trkpt>
      <trkpt lat="50.98939" lon="2.13356">
        <ele>3.7</ele>
        <time>2020-06-23T10:06:32Z</time>
      </trkpt>
      <trkpt lat="50.98941" lon="2.13362">
        <ele>3.7</ele>
        <time>2020-06-23T10:06:33Z</time>
      </trkpt>
      <trkpt lat="50.98942" lon="2.13367">
        <ele>3.6</ele>
        <time>2020-06-23T10:06:34Z</time>
      </trkpt>
      <trkpt lat="50.98944" lon="2.13373">
        <ele>3.6</ele>
        <time>2020-06-23T10:06:35Z</time>
      </trkpt>
      <trkpt lat="50.98948" lon="2.13383">
        <ele>3.7</ele>
        <time>2020-06-23T10:06:36Z</time>
      </trkpt>
      <trkpt lat="50.98952" lon="2.1339">
        <ele>3.8</ele>
        <time>2020-06-23T10:06:37Z</time>
      </trkpt>
      <trkpt lat="50.98957" lon="2.13395">
        <ele>3.7</ele>
        <time>2020-06-23T10:06:38Z</time>
      </trkpt>
      <trkpt lat="50.98961" lon="2.13399">
        <ele>3.5</ele>
        <time>2020-06-23T10:06:39Z</time>
      </trkpt>
      <trkpt lat="50.98964" lon="2.13405">
        <ele>3.4</ele>
        <time>2020-06-23T10:06:40Z</time>
      </trkpt>
      <trkpt lat="50.98967" lon="2.13411">
        <ele>3.2</ele>
        <time>2020-06-23T10:06:41Z</time>
      </trkpt>
      <trkpt lat="50.9897" lon="2.13417">
        <ele>3.1</ele>
        <time>2020-06-23T10:06:42Z</time>
      </trkpt>
      <trkpt lat="50.98974" lon="2.13423">
        <ele>2.9</ele>
        <time>2020-06-23T10:06:43Z</time>
      </trkpt>
      <trkpt lat="50.98978" lon="2.13431">
        <ele>2.9</ele>
        <time>2020-06-23T10:06:44Z</time>
      </trkpt>
      <trkpt lat="50.98982" lon="2.13439">
        <ele>2.9</ele>
        <time>2020-06-23T10:06:45Z</time>
      </trkpt>
      <trkpt lat="50.98986" lon="2.13447">
        <ele>2.9</ele>
        <time>2020-06-23T10:06:46Z</time>
      </trkpt>
      <trkpt lat="50.9899" lon="2.13453">
        <ele>2.8</ele>
        <time>2020-06-23T10:06:47Z</time>
      </trkpt>
      <trkpt lat="50.98995" lon="2.1346">
        <ele>2.8</ele>
        <time>2020-06-23T10:06:48Z</time>
      </trkpt>
      <trkpt lat="50.98998" lon="2.13466">
        <ele>2.7</ele>
        <time>2020-06-23T10:06:49Z</time>
      </trkpt>
      <trkpt lat="50.99001" lon="2.13471">
        <ele>2.6</ele>
        <time>2020-06-23T10:06:50Z</time>
      </trkpt>
      <trkpt lat="50.99005" lon="2.13477">
        <ele>2.6</ele>
        <time>2020-06-23T10:06:51Z</time>
      </trkpt>
      <trkpt lat="50.99008" lon="2.13482">
        <ele>2.5</ele>
        <time>2020-06-23T10:06:52Z</time>
      </trkpt>
      <trkpt lat="50.99011" lon="2.1349">
        <ele>2.5</ele>
        <time>2020-06-23T10:06:53Z</time>
      </trkpt>
      <trkpt lat="50.99015" lon="2.13498">
        <ele>2.4</ele>
        <time>2020-06-23T10:06:54Z</time>
      </trkpt>
      <trkpt lat="50.99019" lon="2.13506">
        <ele>2.4</ele>
        <time>2020-06-23T10:06:55Z</time>
      </trkpt>
      <trkpt lat="50.99022" lon="2.13514">
        <ele>2.3</ele>
        <time>2020-06-23T10:06:56Z</time>
      </trkpt>
      <trkpt lat="50.99027" lon="2.13522">
        <ele>2.3</ele>
        <time>2020-06-23T10:06:57Z</time>
      </trkpt>
      <trkpt lat="50.9903" lon="2.1353">
        <ele>2.3</ele>
        <time>2020-06-23T10:06:58Z</time>
      </trkpt>
      <trkpt lat="50.99035" lon="2.13537">
        <ele>2.3</ele>
        <time>2020-06-23T10:06:59Z</time>
      </trkpt>
      <trkpt lat="50.99039" lon="2.13545">
        <ele>2.3</ele>
        <time>2020-06-23T10:07:00Z</time>
      </trkpt>
      <trkpt lat="50.99043" lon="2.13553">
        <ele>2.3</ele>
        <time>2020-06-23T10:07:01Z</time>
      </trkpt>
      <trkpt lat="50.99047" lon="2.13562">
        <ele>2.3</ele>
        <time>2020-06-23T10:07:02Z</time>
      </trkpt>
      <trkpt lat="50.99052" lon="2.1357">
        <ele>2.3</ele>
        <time>2020-06-23T10:07:03Z</time>
      </trkpt>
      <trkpt lat="50.99056" lon="2.13578">
        <ele>2.2</ele>
        <time>2020-06-23T10:07:04Z</time>
      </trkpt>
      <trkpt lat="50.99059" lon="2.13584">
        <ele>2.2</ele>
        <time>2020-06-23T10:07:05Z</time>
      </trkpt>
      <trkpt lat="50.99063" lon="2.13591">
        <ele>2.2</ele>
        <time>2020-06-23T10:07:06Z</time>
      </trkpt>
      <trkpt lat="50.99067" lon="2.13599">
        <ele>2.2</ele>
        <time>2020-06-23T10:07:07Z</time>
      </trkpt>
      <trkpt lat="50.99071" lon="2.13606">
        <ele>2.2</ele>
        <time>2020-06-23T10:07:08Z</time>
      </trkpt>
      <trkpt lat="50.99075" lon="2.13613">
        <ele>2.2</ele>
        <time>2020-06-23T10:07:09Z</time>
      </trkpt>
      <trkpt lat="50.99078" lon="2.1362">
        <ele>2.2</ele>
        <time>2020-06-23T10:07:10Z</time>
      </trkpt>
      <trkpt lat="50.99082" lon="2.13626">
        <ele>2.2</ele>
        <time>2020-06-23T10:07:11Z</time>
      </trkpt>
      <trkpt lat="50.99086" lon="2.13633">
        <ele>2.2</ele>
        <time>2020-06-23T10:07:12Z</time>
      </trkpt>
      <trkpt lat="50.9909" lon="2.13641">
        <ele>2.2</ele>
        <time>2020-06-23T10:07:13Z</time>
      </trkpt>
      <trkpt lat="50.99094" lon="2.13649">
        <ele>2.2</ele>
        <time>2020-06-23T10:07:14Z</time>
      </trkpt>
      <trkpt lat="50.99097" lon="2.13656">
        <ele>2.2</ele>
        <time>2020-06-23T10:07:15Z</time>
      </trkpt>
      <trkpt lat="50.991" lon="2.13663">
        <ele>2.2</ele>
        <time>2020-06-23T10:07:16Z</time>
      </trkpt>
      <trkpt lat="50.99104" lon="2.1367">
        <ele>2.3</ele>
        <time>2020-06-23T10:07:17Z</time>
      </trkpt>
      <trkpt lat="50.99107" lon="2.13676">
        <ele>2.3</ele>
        <time>2020-06-23T10:07:18Z</time>
      </trkpt>
      <trkpt lat="50.9911" lon="2.13683">
        <ele>2.3</ele>
        <time>2020-06-23T10:07:19Z</time>
      </trkpt>
      <trkpt lat="50.99113" lon="2.13689">
        <ele>2.4</ele>
        <time>2020-06-23T10:07:20Z</time>
      </trkpt>
      <trkpt lat="50.99117" lon="2.13696">
        <ele>2.4</ele>
        <time>2020-06-23T10:07:21Z</time>
      </trkpt>
      <trkpt lat="50.99121" lon="2.13703">
        <ele>2.4</ele>
        <time>2020-06-23T10:07:22Z</time>
      </trkpt>
      <trkpt lat="50.99125" lon="2.13711">
        <ele>2.4</ele>
        <time>2020-06-23T10:07:23Z</time>
      </trkpt>
      <trkpt lat="50.99129" lon="2.13718">
        <ele>2.4</ele>
        <time>2020-06-23T10:07:24Z</time>
      </trkpt>
      <trkpt lat="50.99133" lon="2.13726">
        <ele>2.4</ele>
        <time>2020-06-23T10:07:25Z</time>
      </trkpt>
      <trkpt lat="50.99138" lon="2.13735">
        <ele>2.4</ele>
        <time>2020-06-23T10:07:26Z</time>
      </trkpt>
      <trkpt lat="50.99142" lon="2.13743">
        <ele>2.4</ele>
        <time>2020-06-23T10:07:27Z</time>
      </trkpt>
      <trkpt lat="50.99146" lon="2.13749">
        <ele>2.5</ele>
        <time>2020-06-23T10:07:28Z</time>
      </trkpt>
      <trkpt lat="50.9915" lon="2.13756">
        <ele>2.5</ele>
        <time>2020-06-23T10:07:29Z</time>
      </trkpt>
      <trkpt lat="50.99154" lon="2.13763">
        <ele>2.6</ele>
        <time>2020-06-23T10:07:30Z</time>
      </trkpt>
      <trkpt lat="50.99158" lon="2.1377">
        <ele>2.6</ele>
        <time>2020-06-23T10:07:31Z</time>
      </trkpt>
      <trkpt lat="50.99162" lon="2.13777">
        <ele>2.6</ele>
        <time>2020-06-23T10:07:32Z</time>
      </trkpt>
      <trkpt lat="50.99166" lon="2.13784">
        <ele>2.6</ele>
        <time>2020-06-23T10:07:33Z</time>
      </trkpt>
      <trkpt lat="50.9917" lon="2.13791">
        <ele>2.6</ele>
        <time>2020-06-23T10:07:34Z</time>
      </trkpt>
      <trkpt lat="50.99174" lon="2.13799">
        <ele>2.6</ele>
        <time>2020-06-23T10:07:35Z</time>
      </trkpt>
      <trkpt lat="50.99178" lon="2.13806">
        <ele>2.7</ele>
        <time>2020-06-23T10:07:36Z</time>
      </trkpt>
      <trkpt lat="50.99181" lon="2.13812">
        <ele>2.7</ele>
        <time>2020-06-23T10:07:37Z</time>
      </trkpt>
      <trkpt lat="50.99185" lon="2.1382">
        <ele>2.7</ele>
        <time>2020-06-23T10:07:38Z</time>
      </trkpt>
      <trkpt lat="50.9919" lon="2.13828">
        <ele>2.7</ele>
        <time>2020-06-23T10:07:39Z</time>
      </trkpt>
      <trkpt lat="50.99194" lon="2.13834">
        <ele>2.7</ele>
        <time>2020-06-23T10:07:40Z</time>
      </trkpt>
      <trkpt lat="50.99197" lon="2.13839">
        <ele>2.8</ele>
        <time>2020-06-23T10:07:41Z</time>
      </trkpt>
      <trkpt lat="50.992" lon="2.13844">
        <ele>2.8</ele>
        <time>2020-06-23T10:07:42Z</time>
      </trkpt>
      <trkpt lat="50.99203" lon="2.13848">
        <ele>2.8</ele>
        <time>2020-06-23T10:07:43Z</time>
      </trkpt>
      <trkpt lat="50.99205" lon="2.13852">
        <ele>2.9</ele>
        <time>2020-06-23T10:07:44Z</time>
      </trkpt>
      <trkpt lat="50.99206" lon="2.13856">
        <ele>2.9</ele>
        <time>2020-06-23T10:07:45Z</time>
      </trkpt>
      <trkpt lat="50.99208" lon="2.1386">
        <ele>2.9</ele>
        <time>2020-06-23T10:07:46Z</time>
      </trkpt>
      <trkpt lat="50.99208" lon="2.13862">
        <ele>2.9</ele>
        <time>2020-06-23T10:07:47Z</time>
      </trkpt>
      <trkpt lat="50.99209" lon="2.13864">
        <ele>2.9</ele>
        <time>2020-06-23T10:07:48Z</time>
      </trkpt>
      <trkpt lat="50.99211" lon="2.13866">
        <ele>2.9</ele>
        <time>2020-06-23T10:07:49Z</time>
      </trkpt>
      <trkpt lat="50.99213" lon="2.13872">
        <ele>2.9</ele>
        <time>2020-06-23T10:07:50Z</time>
      </trkpt>
      <trkpt lat="50.99216" lon="2.13878">
        <ele>2.9</ele>
        <time>2020-06-23T10:07:51Z</time>
      </trkpt>
      <trkpt lat="50.99218" lon="2.13882">
        <ele>2.9</ele>
        <time>2020-06-23T10:07:52Z</time>
      </trkpt>
      <trkpt lat="50.99221" lon="2.13885">
        <ele>2.9</ele>
        <time>2020-06-23T10:07:53Z</time>
      </trkpt>
      <trkpt lat="50.99223" lon="2.1389">
        <ele>2.9</ele>
        <time>2020-06-23T10:07:54Z</time>
      </trkpt>
      <trkpt lat="50.99227" lon="2.13896">
        <ele>2.9</ele>
        <time>2020-06-23T10:07:55Z</time>
      </trkpt>
      <trkpt lat="50.99229" lon="2.13902">
        <ele>2.9</ele>
        <time>2020-06-23T10:07:56Z</time>
      </trkpt>
      <trkpt lat="50.99232" lon="2.13907">
        <ele>2.9</ele>
        <time>2020-06-23T10:07:57Z</time>
      </trkpt>
      <trkpt lat="50.99235" lon="2.13912">
        <ele>2.8</ele>
        <time>2020-06-23T10:07:58Z</time>
      </trkpt>
      <trkpt lat="50.99239" lon="2.13919">
        <ele>2.8</ele>
        <time>2020-06-23T10:07:59Z</time>
      </trkpt>
      <trkpt lat="50.99243" lon="2.13924">
        <ele>2.8</ele>
        <time>2020-06-23T10:08:00Z</time>
      </trkpt>
      <trkpt lat="50.99246" lon="2.1393">
        <ele>2.8</ele>
        <time>2020-06-23T10:08:01Z</time>
      </trkpt>
      <trkpt lat="50.99249" lon="2.13936">
        <ele>2.8</ele>
        <time>2020-06-23T10:08:02Z</time>
      </trkpt>
      <trkpt lat="50.99253" lon="2.13941">
        <ele>2.8</ele>
        <time>2020-06-23T10:08:03Z</time>
      </trkpt>
      <trkpt lat="50.99256" lon="2.13946">
        <ele>2.7</ele>
        <time>2020-06-23T10:08:04Z</time>
      </trkpt>
      <trkpt lat="50.9926" lon="2.13955">
        <ele>2.7</ele>
        <time>2020-06-23T10:08:05Z</time>
      </trkpt>
      <trkpt lat="50.99263" lon="2.13961">
        <ele>2.7</ele>
        <time>2020-06-23T10:08:06Z</time>
      </trkpt>
      <trkpt lat="50.99267" lon="2.13966">
        <ele>2.7</ele>
        <time>2020-06-23T10:08:07Z</time>
      </trkpt>
      <trkpt lat="50.99271" lon="2.13972">
        <ele>2.6</ele>
        <time>2020-06-23T10:08:08Z</time>
      </trkpt>
      <trkpt lat="50.99275" lon="2.13976">
        <ele>2.6</ele>
        <time>2020-06-23T10:08:09Z</time>
      </trkpt>
      <trkpt lat="50.99279" lon="2.13981">
        <ele>2.6</ele>
        <time>2020-06-23T10:08:10Z</time>
      </trkpt>
      <trkpt lat="50.99283" lon="2.13985">
        <ele>2.6</ele>
        <time>2020-06-23T10:08:11Z</time>
      </trkpt>
      <trkpt lat="50.99287" lon="2.1399">
        <ele>2.6</ele>
        <time>2020-06-23T10:08:12Z</time>
      </trkpt>
      <trkpt lat="50.99291" lon="2.13995">
        <ele>2.7</ele>
        <time>2020-06-23T10:08:13Z</time>
      </trkpt>
      <trkpt lat="50.99295" lon="2.13999">
        <ele>2.7</ele>
        <time>2020-06-23T10:08:14Z</time>
      </trkpt>
      <trkpt lat="50.99299" lon="2.14006">
        <ele>2.7</ele>
        <time>2020-06-23T10:08:15Z</time>
      </trkpt>
      <trkpt lat="50.99304" lon="2.14012">
        <ele>2.7</ele>
        <time>2020-06-23T10:08:16Z</time>
      </trkpt>
      <trkpt lat="50.99309" lon="2.14019">
        <ele>2.7</ele>
        <time>2020-06-23T10:08:17Z</time>
      </trkpt>
      <trkpt lat="50.99313" lon="2.14022">
        <ele>2.7</ele>
        <time>2020-06-23T10:08:18Z</time>
      </trkpt>
      <trkpt lat="50.99316" lon="2.14027">
        <ele>2.7</ele>
        <time>2020-06-23T10:08:19Z</time>
      </trkpt>
      <trkpt lat="50.9932" lon="2.14032">
        <ele>2.7</ele>
        <time>2020-06-23T10:08:20Z</time>
      </trkpt>
      <trkpt lat="50.99324" lon="2.14037">
        <ele>2.7</ele>
        <time>2020-06-23T10:08:21Z</time>
      </trkpt>
      <trkpt lat="50.99328" lon="2.14043">
        <ele>2.7</ele>
        <time>2020-06-23T10:08:22Z</time>
      </trkpt>
      <trkpt lat="50.99333" lon="2.14049">
        <ele>2.8</ele>
        <time>2020-06-23T10:08:23Z</time>
      </trkpt>
      <trkpt lat="50.99337" lon="2.14053">
        <ele>2.8</ele>
        <time>2020-06-23T10:08:24Z</time>
      </trkpt>
      <trkpt lat="50.99342" lon="2.1406">
        <ele>2.8</ele>
        <time>2020-06-23T10:08:25Z</time>
      </trkpt>
      <trkpt lat="50.99345" lon="2.14065">
        <ele>2.8</ele>
        <time>2020-06-23T10:08:26Z</time>
      </trkpt>
      <trkpt lat="50.99348" lon="2.14071">
        <ele>2.8</ele>
        <time>2020-06-23T10:08:27Z</time>
      </trkpt>
      <trkpt lat="50.99349" lon="2.14073">
        <ele>2.8</ele>
        <time>2020-06-23T10:08:28Z</time>
      </trkpt>
      <trkpt lat="50.99354" lon="2.14079">
        <ele>2.8</ele>
        <time>2020-06-23T10:08:29Z</time>
      </trkpt>
      <trkpt lat="50.99357" lon="2.14084">
        <ele>2.8</ele>
        <time>2020-06-23T10:08:30Z</time>
      </trkpt>
      <trkpt lat="50.99362" lon="2.14088">
        <ele>2.8</ele>
        <time>2020-06-23T10:08:31Z</time>
      </trkpt>
      <trkpt lat="50.99367" lon="2.14094">
        <ele>2.8</ele>
        <time>2020-06-23T10:08:32Z</time>
      </trkpt>
      <trkpt lat="50.99371" lon="2.14101">
        <ele>2.8</ele>
        <time>2020-06-23T10:08:33Z</time>
      </trkpt>
      <trkpt lat="50.99376" lon="2.14108">
        <ele>2.7</ele>
        <time>2020-06-23T10:08:34Z</time>
      </trkpt>
      <trkpt lat="50.9938" lon="2.14114">
        <ele>2.7</ele>
        <time>2020-06-23T10:08:35Z</time>
      </trkpt>
      <trkpt lat="50.99384" lon="2.14119">
        <ele>2.7</ele>
        <time>2020-06-23T10:08:36Z</time>
      </trkpt>
      <trkpt lat="50.99387" lon="2.14124">
        <ele>2.6</ele>
        <time>2020-06-23T10:08:37Z</time>
      </trkpt>
      <trkpt lat="50.9939" lon="2.14131">
        <ele>2.6</ele>
        <time>2020-06-23T10:08:38Z</time>
      </trkpt>
      <trkpt lat="50.99393" lon="2.14136">
        <ele>2.6</ele>
        <time>2020-06-23T10:08:39Z</time>
      </trkpt>
      <trkpt lat="50.99397" lon="2.1414">
        <ele>2.6</ele>
        <time>2020-06-23T10:08:40Z</time>
      </trkpt>
      <trkpt lat="50.99399" lon="2.14144">
        <ele>2.5</ele>
        <time>2020-06-23T10:08:41Z</time>
      </trkpt>
      <trkpt lat="50.99403" lon="2.14148">
        <ele>2.5</ele>
        <time>2020-06-23T10:08:42Z</time>
      </trkpt>
      <trkpt lat="50.99406" lon="2.14154">
        <ele>2.5</ele>
        <time>2020-06-23T10:08:43Z</time>
      </trkpt>
      <trkpt lat="50.9941" lon="2.14159">
        <ele>2.5</ele>
        <time>2020-06-23T10:08:44Z</time>
      </trkpt>
      <trkpt lat="50.99413" lon="2.14163">
        <ele>2.5</ele>
        <time>2020-06-23T10:08:45Z</time>
      </trkpt>
      <trkpt lat="50.99417" lon="2.14167">
        <ele>2.5</ele>
        <time>2020-06-23T10:08:46Z</time>
      </trkpt>
      <trkpt lat="50.99421" lon="2.14174">
        <ele>2.4</ele>
        <time>2020-06-23T10:08:47Z</time>
      </trkpt>
      <trkpt lat="50.99426" lon="2.14183">
        <ele>2.4</ele>
        <time>2020-06-23T10:08:48Z</time>
      </trkpt>
      <trkpt lat="50.9943" lon="2.1419">
        <ele>2.5</ele>
        <time>2020-06-23T10:08:49Z</time>
      </trkpt>
      <trkpt lat="50.99434" lon="2.14197">
        <ele>2.4</ele>
        <time>2020-06-23T10:08:50Z</time>
      </trkpt>
      <trkpt lat="50.99438" lon="2.14204">
        <ele>2.4</ele>
        <time>2020-06-23T10:08:51Z</time>
      </trkpt>
      <trkpt lat="50.9944" lon="2.1421">
        <ele>2.4</ele>
        <time>2020-06-23T10:08:52Z</time>
      </trkpt>
      <trkpt lat="50.99444" lon="2.14219">
        <ele>2.4</ele>
        <time>2020-06-23T10:08:53Z</time>
      </trkpt>
      <trkpt lat="50.99447" lon="2.14224">
        <ele>2.4</ele>
        <time>2020-06-23T10:08:54Z</time>
      </trkpt>
      <trkpt lat="50.99451" lon="2.1423">
        <ele>2.4</ele>
        <time>2020-06-23T10:08:55Z</time>
      </trkpt>
      <trkpt lat="50.99453" lon="2.14236">
        <ele>2.4</ele>
        <time>2020-06-23T10:08:56Z</time>
      </trkpt>
      <trkpt lat="50.99457" lon="2.14243">
        <ele>2.4</ele>
        <time>2020-06-23T10:08:57Z</time>
      </trkpt>
      <trkpt lat="50.99459" lon="2.14249">
        <ele>2.4</ele>
        <time>2020-06-23T10:08:58Z</time>
      </trkpt>
      <trkpt lat="50.99462" lon="2.14254">
        <ele>2.4</ele>
        <time>2020-06-23T10:08:59Z</time>
      </trkpt>
      <trkpt lat="50.99466" lon="2.14261">
        <ele>2.3</ele>
        <time>2020-06-23T10:09:00Z</time>
      </trkpt>
      <trkpt lat="50.99469" lon="2.14267">
        <ele>2.3</ele>
        <time>2020-06-23T10:09:01Z</time>
      </trkpt>
      <trkpt lat="50.99473" lon="2.14274">
        <ele>2.3</ele>
        <time>2020-06-23T10:09:02Z</time>
      </trkpt>
      <trkpt lat="50.99476" lon="2.1428">
        <ele>2.3</ele>
        <time>2020-06-23T10:09:03Z</time>
      </trkpt>
      <trkpt lat="50.9948" lon="2.14286">
        <ele>2.3</ele>
        <time>2020-06-23T10:09:04Z</time>
      </trkpt>
      <trkpt lat="50.99485" lon="2.14293">
        <ele>2.3</ele>
        <time>2020-06-23T10:09:05Z</time>
      </trkpt>
      <trkpt lat="50.99488" lon="2.143">
        <ele>2.3</ele>
        <time>2020-06-23T10:09:06Z</time>
      </trkpt>
      <trkpt lat="50.99492" lon="2.14307">
        <ele>2.4</ele>
        <time>2020-06-23T10:09:07Z</time>
      </trkpt>
      <trkpt lat="50.99495" lon="2.14313">
        <ele>2.4</ele>
        <time>2020-06-23T10:09:08Z</time>
      </trkpt>
      <trkpt lat="50.99498" lon="2.14319">
        <ele>2.4</ele>
        <time>2020-06-23T10:09:09Z</time>
      </trkpt>
      <trkpt lat="50.99501" lon="2.14325">
        <ele>2.4</ele>
        <time>2020-06-23T10:09:10Z</time>
      </trkpt>
      <trkpt lat="50.99505" lon="2.14332">
        <ele>2.5</ele>
        <time>2020-06-23T10:09:11Z</time>
      </trkpt>
      <trkpt lat="50.99508" lon="2.14339">
        <ele>2.5</ele>
        <time>2020-06-23T10:09:12Z</time>
      </trkpt>
      <trkpt lat="50.99512" lon="2.14346">
        <ele>2.5</ele>
        <time>2020-06-23T10:09:13Z</time>
      </trkpt>
      <trkpt lat="50.99517" lon="2.14354">
        <ele>2.6</ele>
        <time>2020-06-23T10:09:14Z</time>
      </trkpt>
      <trkpt lat="50.99519" lon="2.14359">
        <ele>2.6</ele>
        <time>2020-06-23T10:09:15Z</time>
      </trkpt>
      <trkpt lat="50.99522" lon="2.14364">
        <ele>2.6</ele>
        <time>2020-06-23T10:09:16Z</time>
      </trkpt>
      <trkpt lat="50.99526" lon="2.14371">
        <ele>2.6</ele>
        <time>2020-06-23T10:09:17Z</time>
      </trkpt>
      <trkpt lat="50.9953" lon="2.14378">
        <ele>2.6</ele>
        <time>2020-06-23T10:09:18Z</time>
      </trkpt>
      <trkpt lat="50.99533" lon="2.14386">
        <ele>2.6</ele>
        <time>2020-06-23T10:09:19Z</time>
      </trkpt>
      <trkpt lat="50.99538" lon="2.14394">
        <ele>2.6</ele>
        <time>2020-06-23T10:09:20Z</time>
      </trkpt>
      <trkpt lat="50.99543" lon="2.14402">
        <ele>2.6</ele>
        <time>2020-06-23T10:09:21Z</time>
      </trkpt>
      <trkpt lat="50.99547" lon="2.14409">
        <ele>2.6</ele>
        <time>2020-06-23T10:09:22Z</time>
      </trkpt>
      <trkpt lat="50.99551" lon="2.14417">
        <ele>2.6</ele>
        <time>2020-06-23T10:09:23Z</time>
      </trkpt>
      <trkpt lat="50.99555" lon="2.14423">
        <ele>2.6</ele>
        <time>2020-06-23T10:09:24Z</time>
      </trkpt>
      <trkpt lat="50.99558" lon="2.1443">
        <ele>2.5</ele>
        <time>2020-06-23T10:09:25Z</time>
      </trkpt>
      <trkpt lat="50.99563" lon="2.14437">
        <ele>2.5</ele>
        <time>2020-06-23T10:09:26Z</time>
      </trkpt>
      <trkpt lat="50.99566" lon="2.14444">
        <ele>2.5</ele>
        <time>2020-06-23T10:09:27Z</time>
      </trkpt>
      <trkpt lat="50.9957" lon="2.1445">
        <ele>2.5</ele>
        <time>2020-06-23T10:09:28Z</time>
      </trkpt>
      <trkpt lat="50.99574" lon="2.14456">
        <ele>2.5</ele>
        <time>2020-06-23T10:09:29Z</time>
      </trkpt>
      <trkpt lat="50.99578" lon="2.14463">
        <ele>2.4</ele>
        <time>2020-06-23T10:09:30Z</time>
      </trkpt>
      <trkpt lat="50.99582" lon="2.1447">
        <ele>2.4</ele>
        <time>2020-06-23T10:09:31Z</time>
      </trkpt>
      <trkpt lat="50.99586" lon="2.14477">
        <ele>2.4</ele>
        <time>2020-06-23T10:09:32Z</time>
      </trkpt>
      <trkpt lat="50.9959" lon="2.14483">
        <ele>2.4</ele>
        <time>2020-06-23T10:09:33Z</time>
      </trkpt>
      <trkpt lat="50.99593" lon="2.14491">
        <ele>2.3</ele>
        <time>2020-06-23T10:09:34Z</time>
      </trkpt>
      <trkpt lat="50.99596" lon="2.14497">
        <ele>2.3</ele>
        <time>2020-06-23T10:09:35Z</time>
      </trkpt>
      <trkpt lat="50.996" lon="2.14503">
        <ele>2.3</ele>
        <time>2020-06-23T10:09:36Z</time>
      </trkpt>
      <trkpt lat="50.99603" lon="2.14509">
        <ele>2.3</ele>
        <time>2020-06-23T10:09:37Z</time>
      </trkpt>
      <trkpt lat="50.99606" lon="2.14515">
        <ele>2.3</ele>
        <time>2020-06-23T10:09:38Z</time>
      </trkpt>
      <trkpt lat="50.99609" lon="2.14522">
        <ele>2.3</ele>
        <time>2020-06-23T10:09:39Z</time>
      </trkpt>
      <trkpt lat="50.99611" lon="2.14529">
        <ele>2.3</ele>
        <time>2020-06-23T10:09:40Z</time>
      </trkpt>
      <trkpt lat="50.99613" lon="2.14536">
        <ele>2.3</ele>
        <time>2020-06-23T10:09:41Z</time>
      </trkpt>
      <trkpt lat="50.99615" lon="2.14543">
        <ele>2.2</ele>
        <time>2020-06-23T10:09:42Z</time>
      </trkpt>
      <trkpt lat="50.99617" lon="2.14551">
        <ele>2.2</ele>
        <time>2020-06-23T10:09:43Z</time>
      </trkpt>
      <trkpt lat="50.99617" lon="2.14557">
        <ele>2.1</ele>
        <time>2020-06-23T10:09:44Z</time>
      </trkpt>
      <trkpt lat="50.99618" lon="2.14562">
        <ele>2.1</ele>
        <time>2020-06-23T10:09:45Z</time>
      </trkpt>
      <trkpt lat="50.99618" lon="2.14565">
        <ele>2.1</ele>
        <time>2020-06-23T10:09:46Z</time>
      </trkpt>
      <trkpt lat="50.99618" lon="2.14566">
        <ele>2.1</ele>
        <time>2020-06-23T10:09:47Z</time>
      </trkpt>
      <trkpt lat="50.99617" lon="2.1457">
        <ele>2.1</ele>
        <time>2020-06-23T10:09:48Z</time>
      </trkpt>
      <trkpt lat="50.99617" lon="2.14573">
        <ele>2.1</ele>
        <time>2020-06-23T10:09:49Z</time>
      </trkpt>
      <trkpt lat="50.99617" lon="2.14579">
        <ele>2.1</ele>
        <time>2020-06-23T10:09:50Z</time>
      </trkpt>
      <trkpt lat="50.99616" lon="2.14585">
        <ele>2.1</ele>
        <time>2020-06-23T10:09:51Z</time>
      </trkpt>
      <trkpt lat="50.99617" lon="2.14589">
        <ele>2</ele>
        <time>2020-06-23T10:09:52Z</time>
      </trkpt>
      <trkpt lat="50.99618" lon="2.14595">
        <ele>2</ele>
        <time>2020-06-23T10:09:53Z</time>
      </trkpt>
      <trkpt lat="50.99619" lon="2.14602">
        <ele>2</ele>
        <time>2020-06-23T10:09:54Z</time>
      </trkpt>
      <trkpt lat="50.99619" lon="2.1461">
        <ele>1.9</ele>
        <time>2020-06-23T10:09:55Z</time>
      </trkpt>
      <trkpt lat="50.99619" lon="2.14619">
        <ele>1.9</ele>
        <time>2020-06-23T10:09:56Z</time>
      </trkpt>
      <trkpt lat="50.99619" lon="2.14627">
        <ele>1.9</ele>
        <time>2020-06-23T10:09:57Z</time>
      </trkpt>
      <trkpt lat="50.99619" lon="2.14637">
        <ele>1.9</ele>
        <time>2020-06-23T10:09:58Z</time>
      </trkpt>
      <trkpt lat="50.99619" lon="2.14647">
        <ele>1.9</ele>
        <time>2020-06-23T10:09:59Z</time>
      </trkpt>
      <trkpt lat="50.99619" lon="2.14656">
        <ele>1.8</ele>
        <time>2020-06-23T10:10:00Z</time>
      </trkpt>
      <trkpt lat="50.99618" lon="2.14665">
        <ele>1.8</ele>
        <time>2020-06-23T10:10:01Z</time>
      </trkpt>
      <trkpt lat="50.99618" lon="2.14673">
        <ele>1.8</ele>
        <time>2020-06-23T10:10:02Z</time>
      </trkpt>
      <trkpt lat="50.99618" lon="2.14682">
        <ele>1.8</ele>
        <time>2020-06-23T10:10:03Z</time>
      </trkpt>
      <trkpt lat="50.99618" lon="2.14688">
        <ele>1.8</ele>
        <time>2020-06-23T10:10:04Z</time>
      </trkpt>
      <trkpt lat="50.99617" lon="2.14696">
        <ele>1.8</ele>
        <time>2020-06-23T10:10:05Z</time>
      </trkpt>
      <trkpt lat="50.99618" lon="2.14705">
        <ele>1.8</ele>
        <time>2020-06-23T10:10:06Z</time>
      </trkpt>
      <trkpt lat="50.99618" lon="2.14712">
        <ele>1.9</ele>
        <time>2020-06-23T10:10:07Z</time>
      </trkpt>
      <trkpt lat="50.99617" lon="2.14718">
        <ele>1.9</ele>
        <time>2020-06-23T10:10:08Z</time>
      </trkpt>
      <trkpt lat="50.99617" lon="2.14724">
        <ele>2</ele>
        <time>2020-06-23T10:10:09Z</time>
      </trkpt>
      <trkpt lat="50.99617" lon="2.14726">
        <ele>2</ele>
        <time>2020-06-23T10:10:10Z</time>
      </trkpt>
      <trkpt lat="50.99616" lon="2.14729">
        <ele>2</ele>
        <time>2020-06-23T10:10:11Z</time>
      </trkpt>
      <trkpt lat="50.99614" lon="2.14731">
        <ele>2.1</ele>
        <time>2020-06-23T10:10:12Z</time>
      </trkpt>
      <trkpt lat="50.99613" lon="2.14733">
        <ele>2.1</ele>
        <time>2020-06-23T10:10:13Z</time>
      </trkpt>
      <trkpt lat="50.99613" lon="2.14734">
        <ele>2.1</ele>
        <time>2020-06-23T10:10:14Z</time>
      </trkpt>
      <trkpt lat="50.99613" lon="2.14735">
        <ele>2.1</ele>
        <time>2020-06-23T10:10:15Z</time>
      </trkpt>
      <trkpt lat="50.99612" lon="2.14737">
        <ele>2.1</ele>
        <time>2020-06-23T10:10:16Z</time>
      </trkpt>
      <trkpt lat="50.99612" lon="2.14742">
        <ele>2.2</ele>
        <time>2020-06-23T10:10:17Z</time>
      </trkpt>
      <trkpt lat="50.99612" lon="2.14747">
        <ele>2.3</ele>
        <time>2020-06-23T10:10:18Z</time>
      </trkpt>
      <trkpt lat="50.99611" lon="2.14753">
        <ele>2.2</ele>
        <time>2020-06-23T10:10:19Z</time>
      </trkpt>
      <trkpt lat="50.99611" lon="2.14759">
        <ele>2.1</ele>
        <time>2020-06-23T10:10:20Z</time>
      </trkpt>
      <trkpt lat="50.9961" lon="2.14763">
        <ele>2.1</ele>
        <time>2020-06-23T10:10:21Z</time>
      </trkpt>
      <trkpt lat="50.99609" lon="2.14769">
        <ele>2.1</ele>
        <time>2020-06-23T10:10:22Z</time>
      </trkpt>
      <trkpt lat="50.99609" lon="2.14771">
        <ele>2</ele>
        <time>2020-06-23T10:10:23Z</time>
      </trkpt>
      <trkpt lat="50.9961" lon="2.14777">
        <ele>2</ele>
        <time>2020-06-23T10:10:24Z</time>
      </trkpt>
      <trkpt lat="50.9961" lon="2.14783">
        <ele>2</ele>
        <time>2020-06-23T10:10:25Z</time>
      </trkpt>
      <trkpt lat="50.99611" lon="2.14792">
        <ele>1.9</ele>
        <time>2020-06-23T10:10:26Z</time>
      </trkpt>
      <trkpt lat="50.99611" lon="2.14801">
        <ele>1.9</ele>
        <time>2020-06-23T10:10:27Z</time>
      </trkpt>
      <trkpt lat="50.99612" lon="2.1481">
        <ele>1.8</ele>
        <time>2020-06-23T10:10:28Z</time>
      </trkpt>
      <trkpt lat="50.99612" lon="2.14819">
        <ele>1.8</ele>
        <time>2020-06-23T10:10:29Z</time>
      </trkpt>
      <trkpt lat="50.99612" lon="2.14828">
        <ele>1.8</ele>
        <time>2020-06-23T10:10:30Z</time>
      </trkpt>
      <trkpt lat="50.99613" lon="2.14837">
        <ele>1.8</ele>
        <time>2020-06-23T10:10:31Z</time>
      </trkpt>
      <trkpt lat="50.99612" lon="2.14846">
        <ele>1.8</ele>
        <time>2020-06-23T10:10:32Z</time>
      </trkpt>
      <trkpt lat="50.99612" lon="2.14855">
        <ele>1.8</ele>
        <time>2020-06-23T10:10:33Z</time>
      </trkpt>
      <trkpt lat="50.99612" lon="2.14864">
        <ele>1.8</ele>
        <time>2020-06-23T10:10:34Z</time>
      </trkpt>
      <trkpt lat="50.99613" lon="2.14874">
        <ele>1.8</ele>
        <time>2020-06-23T10:10:35Z</time>
      </trkpt>
      <trkpt lat="50.99613" lon="2.14884">
        <ele>1.8</ele>
        <time>2020-06-23T10:10:36Z</time>
      </trkpt>
      <trkpt lat="50.99613" lon="2.14894">
        <ele>1.9</ele>
        <time>2020-06-23T10:10:37Z</time>
      </trkpt>
      <trkpt lat="50.99612" lon="2.14903">
        <ele>1.9</ele>
        <time>2020-06-23T10:10:38Z</time>
      </trkpt>
      <trkpt lat="50.99612" lon="2.14913">
        <ele>1.9</ele>
        <time>2020-06-23T10:10:39Z</time>
      </trkpt>
      <trkpt lat="50.99612" lon="2.1492">
        <ele>1.9</ele>
        <time>2020-06-23T10:10:40Z</time>
      </trkpt>
      <trkpt lat="50.99611" lon="2.14929">
        <ele>1.9</ele>
        <time>2020-06-23T10:10:41Z</time>
      </trkpt>
      <trkpt lat="50.99611" lon="2.14938">
        <ele>1.9</ele>
        <time>2020-06-23T10:10:42Z</time>
      </trkpt>
      <trkpt lat="50.99612" lon="2.14948">
        <ele>2</ele>
        <time>2020-06-23T10:10:43Z</time>
      </trkpt>
      <trkpt lat="50.99612" lon="2.14956">
        <ele>2</ele>
        <time>2020-06-23T10:10:44Z</time>
      </trkpt>
      <trkpt lat="50.99613" lon="2.14965">
        <ele>2</ele>
        <time>2020-06-23T10:10:45Z</time>
      </trkpt>
      <trkpt lat="50.99613" lon="2.14974">
        <ele>2.1</ele>
        <time>2020-06-23T10:10:46Z</time>
      </trkpt>
      <trkpt lat="50.99613" lon="2.14983">
        <ele>2.1</ele>
        <time>2020-06-23T10:10:47Z</time>
      </trkpt>
      <trkpt lat="50.99614" lon="2.14994">
        <ele>2.2</ele>
        <time>2020-06-23T10:10:48Z</time>
      </trkpt>
      <trkpt lat="50.99614" lon="2.15002">
        <ele>2.1</ele>
        <time>2020-06-23T10:10:49Z</time>
      </trkpt>
      <trkpt lat="50.99614" lon="2.15011">
        <ele>1.9</ele>
        <time>2020-06-23T10:10:50Z</time>
      </trkpt>
      <trkpt lat="50.99614" lon="2.1502">
        <ele>1.9</ele>
        <time>2020-06-23T10:10:51Z</time>
      </trkpt>
      <trkpt lat="50.99614" lon="2.15028">
        <ele>1.8</ele>
        <time>2020-06-23T10:10:52Z</time>
      </trkpt>
      <trkpt lat="50.99613" lon="2.15036">
        <ele>1.7</ele>
        <time>2020-06-23T10:10:53Z</time>
      </trkpt>
      <trkpt lat="50.99612" lon="2.15045">
        <ele>1.7</ele>
        <time>2020-06-23T10:10:54Z</time>
      </trkpt>
      <trkpt lat="50.99612" lon="2.15057">
        <ele>1.7</ele>
        <time>2020-06-23T10:10:55Z</time>
      </trkpt>
      <trkpt lat="50.99612" lon="2.15067">
        <ele>1.6</ele>
        <time>2020-06-23T10:10:56Z</time>
      </trkpt>
      <trkpt lat="50.99612" lon="2.15078">
        <ele>1.6</ele>
        <time>2020-06-23T10:10:57Z</time>
      </trkpt>
      <trkpt lat="50.99613" lon="2.15089">
        <ele>1.6</ele>
        <time>2020-06-23T10:10:58Z</time>
      </trkpt>
      <trkpt lat="50.99613" lon="2.15099">
        <ele>1.6</ele>
        <time>2020-06-23T10:10:59Z</time>
      </trkpt>
      <trkpt lat="50.99612" lon="2.15108">
        <ele>1.6</ele>
        <time>2020-06-23T10:11:00Z</time>
      </trkpt>
      <trkpt lat="50.99612" lon="2.15117">
        <ele>1.7</ele>
        <time>2020-06-23T10:11:01Z</time>
      </trkpt>
      <trkpt lat="50.99612" lon="2.15126">
        <ele>1.7</ele>
        <time>2020-06-23T10:11:02Z</time>
      </trkpt>
      <trkpt lat="50.99612" lon="2.15135">
        <ele>1.7</ele>
        <time>2020-06-23T10:11:03Z</time>
      </trkpt>
      <trkpt lat="50.99612" lon="2.15144">
        <ele>1.8</ele>
        <time>2020-06-23T10:11:04Z</time>
      </trkpt>
      <trkpt lat="50.99612" lon="2.15153">
        <ele>1.8</ele>
        <time>2020-06-23T10:11:05Z</time>
      </trkpt>
      <trkpt lat="50.99612" lon="2.15162">
        <ele>1.9</ele>
        <time>2020-06-23T10:11:06Z</time>
      </trkpt>
      <trkpt lat="50.99612" lon="2.15171">
        <ele>2</ele>
        <time>2020-06-23T10:11:07Z</time>
      </trkpt>
      <trkpt lat="50.99612" lon="2.1518">
        <ele>2.2</ele>
        <time>2020-06-23T10:11:08Z</time>
      </trkpt>
      <trkpt lat="50.99611" lon="2.15186">
        <ele>2.3</ele>
        <time>2020-06-23T10:11:09Z</time>
      </trkpt>
      <trkpt lat="50.99611" lon="2.15193">
        <ele>2.5</ele>
        <time>2020-06-23T10:11:10Z</time>
      </trkpt>
      <trkpt lat="50.99611" lon="2.152">
        <ele>2.5</ele>
        <time>2020-06-23T10:11:11Z</time>
      </trkpt>
      <trkpt lat="50.9961" lon="2.15206">
        <ele>2.5</ele>
        <time>2020-06-23T10:11:12Z</time>
      </trkpt>
      <trkpt lat="50.9961" lon="2.15211">
        <ele>2.4</ele>
        <time>2020-06-23T10:11:13Z</time>
      </trkpt>
      <trkpt lat="50.9961" lon="2.15219">
        <ele>2.4</ele>
        <time>2020-06-23T10:11:14Z</time>
      </trkpt>
      <trkpt lat="50.9961" lon="2.15225">
        <ele>2.4</ele>
        <time>2020-06-23T10:11:15Z</time>
      </trkpt>
      <trkpt lat="50.99609" lon="2.15232">
        <ele>2.4</ele>
        <time>2020-06-23T10:11:16Z</time>
      </trkpt>
      <trkpt lat="50.99609" lon="2.1524">
        <ele>2.4</ele>
        <time>2020-06-23T10:11:17Z</time>
      </trkpt>
      <trkpt lat="50.99608" lon="2.15248">
        <ele>2.4</ele>
        <time>2020-06-23T10:11:18Z</time>
      </trkpt>
      <trkpt lat="50.99609" lon="2.15257">
        <ele>2.4</ele>
        <time>2020-06-23T10:11:19Z</time>
      </trkpt>
      <trkpt lat="50.99609" lon="2.15265">
        <ele>2.5</ele>
        <time>2020-06-23T10:11:20Z</time>
      </trkpt>
      <trkpt lat="50.99609" lon="2.15274">
        <ele>2.5</ele>
        <time>2020-06-23T10:11:21Z</time>
      </trkpt>
      <trkpt lat="50.99609" lon="2.15282">
        <ele>2.5</ele>
        <time>2020-06-23T10:11:22Z</time>
      </trkpt>
      <trkpt lat="50.99609" lon="2.1529">
        <ele>2.5</ele>
        <time>2020-06-23T10:11:23Z</time>
      </trkpt>
      <trkpt lat="50.99608" lon="2.15297">
        <ele>2.6</ele>
        <time>2020-06-23T10:11:24Z</time>
      </trkpt>
      <trkpt lat="50.99608" lon="2.15304">
        <ele>2.6</ele>
        <time>2020-06-23T10:11:25Z</time>
      </trkpt>
      <trkpt lat="50.99608" lon="2.15311">
        <ele>2.6</ele>
        <time>2020-06-23T10:11:26Z</time>
      </trkpt>
      <trkpt lat="50.99608" lon="2.15318">
        <ele>2.6</ele>
        <time>2020-06-23T10:11:27Z</time>
      </trkpt>
      <trkpt lat="50.99607" lon="2.15323">
        <ele>2.6</ele>
        <time>2020-06-23T10:11:28Z</time>
      </trkpt>
      <trkpt lat="50.99605" lon="2.15328">
        <ele>2.6</ele>
        <time>2020-06-23T10:11:29Z</time>
      </trkpt>
      <trkpt lat="50.99601" lon="2.15329">
        <ele>2.6</ele>
        <time>2020-06-23T10:11:30Z</time>
      </trkpt>
      <trkpt lat="50.99595" lon="2.15327">
        <ele>2.6</ele>
        <time>2020-06-23T10:11:31Z</time>
      </trkpt>
      <trkpt lat="50.9959" lon="2.15327">
        <ele>2.6</ele>
        <time>2020-06-23T10:11:32Z</time>
      </trkpt>
      <trkpt lat="50.99586" lon="2.15329">
        <ele>2.6</ele>
        <time>2020-06-23T10:11:33Z</time>
      </trkpt>
      <trkpt lat="50.99582" lon="2.15331">
        <ele>2.6</ele>
        <time>2020-06-23T10:11:34Z</time>
      </trkpt>
      <trkpt lat="50.99579" lon="2.15334">
        <ele>2.6</ele>
        <time>2020-06-23T10:11:35Z</time>
      </trkpt>
      <trkpt lat="50.99576" lon="2.15337">
        <ele>2.6</ele>
        <time>2020-06-23T10:11:36Z</time>
      </trkpt>
      <trkpt lat="50.99576" lon="2.15343">
        <ele>2.6</ele>
        <time>2020-06-23T10:11:37Z</time>
      </trkpt>
      <trkpt lat="50.99576" lon="2.15346">
        <ele>2.6</ele>
        <time>2020-06-23T10:11:38Z</time>
      </trkpt>
      <trkpt lat="50.99579" lon="2.15352">
        <ele>2.6</ele>
        <time>2020-06-23T10:11:39Z</time>
      </trkpt>
      <trkpt lat="50.99582" lon="2.15358">
        <ele>2.6</ele>
        <time>2020-06-23T10:11:40Z</time>
      </trkpt>
      <trkpt lat="50.99584" lon="2.15363">
        <ele>2.7</ele>
        <time>2020-06-23T10:11:41Z</time>
      </trkpt>
      <trkpt lat="50.99585" lon="2.15369">
        <ele>2.7</ele>
        <time>2020-06-23T10:11:42Z</time>
      </trkpt>
      <trkpt lat="50.99587" lon="2.15375">
        <ele>2.8</ele>
        <time>2020-06-23T10:11:43Z</time>
      </trkpt>
      <trkpt lat="50.99587" lon="2.1538">
        <ele>2.9</ele>
        <time>2020-06-23T10:11:44Z</time>
      </trkpt>
      <trkpt lat="50.99586" lon="2.15387">
        <ele>3.1</ele>
        <time>2020-06-23T10:11:45Z</time>
      </trkpt>
      <trkpt lat="50.99586" lon="2.15395">
        <ele>2.9</ele>
        <time>2020-06-23T10:11:46Z</time>
      </trkpt>
      <trkpt lat="50.99586" lon="2.15402">
        <ele>2.8</ele>
        <time>2020-06-23T10:11:47Z</time>
      </trkpt>
      <trkpt lat="50.99586" lon="2.15406">
        <ele>2.7</ele>
        <time>2020-06-23T10:11:48Z</time>
      </trkpt>
      <trkpt lat="50.99587" lon="2.15412">
        <ele>2.6</ele>
        <time>2020-06-23T10:11:49Z</time>
      </trkpt>
      <trkpt lat="50.9959" lon="2.15418">
        <ele>2.5</ele>
        <time>2020-06-23T10:11:50Z</time>
      </trkpt>
      <trkpt lat="50.99593" lon="2.15426">
        <ele>2.4</ele>
        <time>2020-06-23T10:11:51Z</time>
      </trkpt>
      <trkpt lat="50.99597" lon="2.15435">
        <ele>2.4</ele>
        <time>2020-06-23T10:11:52Z</time>
      </trkpt>
      <trkpt lat="50.99599" lon="2.15444">
        <ele>2.4</ele>
        <time>2020-06-23T10:11:53Z</time>
      </trkpt>
      <trkpt lat="50.99601" lon="2.15454">
        <ele>2.4</ele>
        <time>2020-06-23T10:11:54Z</time>
      </trkpt>
      <trkpt lat="50.99602" lon="2.15463">
        <ele>2.3</ele>
        <time>2020-06-23T10:11:55Z</time>
      </trkpt>
      <trkpt lat="50.99602" lon="2.15474">
        <ele>2.2</ele>
        <time>2020-06-23T10:11:56Z</time>
      </trkpt>
      <trkpt lat="50.99603" lon="2.15483">
        <ele>2.1</ele>
        <time>2020-06-23T10:11:57Z</time>
      </trkpt>
      <trkpt lat="50.99603" lon="2.15496">
        <ele>2</ele>
        <time>2020-06-23T10:11:58Z</time>
      </trkpt>
      <trkpt lat="50.99603" lon="2.15505">
        <ele>1.9</ele>
        <time>2020-06-23T10:11:59Z</time>
      </trkpt>
      <trkpt lat="50.99604" lon="2.15516">
        <ele>1.8</ele>
        <time>2020-06-23T10:12:00Z</time>
      </trkpt>
      <trkpt lat="50.99603" lon="2.15525">
        <ele>1.8</ele>
        <time>2020-06-23T10:12:01Z</time>
      </trkpt>
      <trkpt lat="50.99603" lon="2.15535">
        <ele>1.6</ele>
        <time>2020-06-23T10:12:02Z</time>
      </trkpt>
      <trkpt lat="50.99603" lon="2.15545">
        <ele>1.6</ele>
        <time>2020-06-23T10:12:03Z</time>
      </trkpt>
      <trkpt lat="50.99602" lon="2.15556">
        <ele>1.5</ele>
        <time>2020-06-23T10:12:04Z</time>
      </trkpt>
      <trkpt lat="50.99602" lon="2.15565">
        <ele>1.5</ele>
        <time>2020-06-23T10:12:05Z</time>
      </trkpt>
      <trkpt lat="50.99602" lon="2.15575">
        <ele>1.6</ele>
        <time>2020-06-23T10:12:06Z</time>
      </trkpt>
      <trkpt lat="50.99601" lon="2.15585">
        <ele>1.7</ele>
        <time>2020-06-23T10:12:07Z</time>
      </trkpt>
      <trkpt lat="50.99601" lon="2.15595">
        <ele>1.8</ele>
        <time>2020-06-23T10:12:08Z</time>
      </trkpt>
      <trkpt lat="50.99602" lon="2.15606">
        <ele>1.8</ele>
        <time>2020-06-23T10:12:09Z</time>
      </trkpt>
      <trkpt lat="50.99602" lon="2.15615">
        <ele>1.8</ele>
        <time>2020-06-23T10:12:10Z</time>
      </trkpt>
      <trkpt lat="50.99602" lon="2.15624">
        <ele>1.7</ele>
        <time>2020-06-23T10:12:11Z</time>
      </trkpt>
      <trkpt lat="50.99602" lon="2.15632">
        <ele>1.6</ele>
        <time>2020-06-23T10:12:12Z</time>
      </trkpt>
      <trkpt lat="50.99602" lon="2.15642">
        <ele>1.5</ele>
        <time>2020-06-23T10:12:13Z</time>
      </trkpt>
      <trkpt lat="50.99602" lon="2.15652">
        <ele>1.5</ele>
        <time>2020-06-23T10:12:14Z</time>
      </trkpt>
      <trkpt lat="50.99603" lon="2.15661">
        <ele>1.4</ele>
        <time>2020-06-23T10:12:15Z</time>
      </trkpt>
      <trkpt lat="50.99603" lon="2.15672">
        <ele>1.4</ele>
        <time>2020-06-23T10:12:16Z</time>
      </trkpt>
      <trkpt lat="50.99603" lon="2.15683">
        <ele>1.3</ele>
        <time>2020-06-23T10:12:17Z</time>
      </trkpt>
      <trkpt lat="50.99603" lon="2.15694">
        <ele>1.3</ele>
        <time>2020-06-23T10:12:18Z</time>
      </trkpt>
      <trkpt lat="50.99602" lon="2.15705">
        <ele>1.2</ele>
        <time>2020-06-23T10:12:19Z</time>
      </trkpt>
      <trkpt lat="50.99602" lon="2.15715">
        <ele>1.2</ele>
        <time>2020-06-23T10:12:20Z</time>
      </trkpt>
      <trkpt lat="50.99602" lon="2.15725">
        <ele>1.3</ele>
        <time>2020-06-23T10:12:21Z</time>
      </trkpt>
      <trkpt lat="50.99602" lon="2.15735">
        <ele>1.4</ele>
        <time>2020-06-23T10:12:22Z</time>
      </trkpt>
      <trkpt lat="50.99602" lon="2.15745">
        <ele>1.5</ele>
        <time>2020-06-23T10:12:23Z</time>
      </trkpt>
      <trkpt lat="50.99602" lon="2.15755">
        <ele>1.5</ele>
        <time>2020-06-23T10:12:24Z</time>
      </trkpt>
      <trkpt lat="50.99603" lon="2.15765">
        <ele>1.4</ele>
        <time>2020-06-23T10:12:25Z</time>
      </trkpt>
      <trkpt lat="50.99603" lon="2.15774">
        <ele>1.3</ele>
        <time>2020-06-23T10:12:26Z</time>
      </trkpt>
      <trkpt lat="50.99603" lon="2.15784">
        <ele>1.3</ele>
        <time>2020-06-23T10:12:27Z</time>
      </trkpt>
      <trkpt lat="50.99603" lon="2.15794">
        <ele>1.3</ele>
        <time>2020-06-23T10:12:28Z</time>
      </trkpt>
      <trkpt lat="50.99603" lon="2.15805">
        <ele>1.3</ele>
        <time>2020-06-23T10:12:29Z</time>
      </trkpt>
      <trkpt lat="50.99603" lon="2.15815">
        <ele>1.2</ele>
        <time>2020-06-23T10:12:30Z</time>
      </trkpt>
      <trkpt lat="50.99603" lon="2.15826">
        <ele>1.1</ele>
        <time>2020-06-23T10:12:31Z</time>
      </trkpt>
      <trkpt lat="50.99603" lon="2.15837">
        <ele>1.1</ele>
        <time>2020-06-23T10:12:32Z</time>
      </trkpt>
      <trkpt lat="50.99603" lon="2.15848">
        <ele>1.1</ele>
        <time>2020-06-23T10:12:33Z</time>
      </trkpt>
      <trkpt lat="50.99603" lon="2.15859">
        <ele>1.2</ele>
        <time>2020-06-23T10:12:34Z</time>
      </trkpt>
      <trkpt lat="50.99604" lon="2.1587">
        <ele>1.3</ele>
        <time>2020-06-23T10:12:35Z</time>
      </trkpt>
      <trkpt lat="50.99604" lon="2.15881">
        <ele>1.3</ele>
        <time>2020-06-23T10:12:36Z</time>
      </trkpt>
      <trkpt lat="50.99603" lon="2.15892">
        <ele>1.3</ele>
        <time>2020-06-23T10:12:37Z</time>
      </trkpt>
      <trkpt lat="50.99603" lon="2.15903">
        <ele>1.3</ele>
        <time>2020-06-23T10:12:38Z</time>
      </trkpt>
      <trkpt lat="50.99603" lon="2.15914">
        <ele>1.3</ele>
        <time>2020-06-23T10:12:39Z</time>
      </trkpt>
      <trkpt lat="50.99603" lon="2.15924">
        <ele>1.2</ele>
        <time>2020-06-23T10:12:40Z</time>
      </trkpt>
      <trkpt lat="50.99603" lon="2.15935">
        <ele>1.2</ele>
        <time>2020-06-23T10:12:41Z</time>
      </trkpt>
      <trkpt lat="50.99604" lon="2.15946">
        <ele>1.1</ele>
        <time>2020-06-23T10:12:42Z</time>
      </trkpt>
      <trkpt lat="50.99604" lon="2.15956">
        <ele>1.1</ele>
        <time>2020-06-23T10:12:43Z</time>
      </trkpt>
      <trkpt lat="50.99603" lon="2.15967">
        <ele>1.2</ele>
        <time>2020-06-23T10:12:44Z</time>
      </trkpt>
      <trkpt lat="50.99603" lon="2.15977">
        <ele>1.3</ele>
        <time>2020-06-23T10:12:45Z</time>
      </trkpt>
      <trkpt lat="50.99603" lon="2.15988">
        <ele>1.4</ele>
        <time>2020-06-23T10:12:46Z</time>
      </trkpt>
      <trkpt lat="50.99603" lon="2.15999">
        <ele>1.4</ele>
        <time>2020-06-23T10:12:47Z</time>
      </trkpt>
      <trkpt lat="50.99603" lon="2.16009">
        <ele>1.5</ele>
        <time>2020-06-23T10:12:48Z</time>
      </trkpt>
      <trkpt lat="50.99603" lon="2.16019">
        <ele>1.5</ele>
        <time>2020-06-23T10:12:49Z</time>
      </trkpt>
      <trkpt lat="50.99602" lon="2.16029">
        <ele>1.5</ele>
        <time>2020-06-23T10:12:50Z</time>
      </trkpt>
      <trkpt lat="50.99601" lon="2.16039">
        <ele>1.5</ele>
        <time>2020-06-23T10:12:51Z</time>
      </trkpt>
      <trkpt lat="50.99601" lon="2.16049">
        <ele>1.4</ele>
        <time>2020-06-23T10:12:52Z</time>
      </trkpt>
      <trkpt lat="50.99601" lon="2.16059">
        <ele>1.4</ele>
        <time>2020-06-23T10:12:53Z</time>
      </trkpt>
      <trkpt lat="50.99601" lon="2.1607">
        <ele>1.3</ele>
        <time>2020-06-23T10:12:54Z</time>
      </trkpt>
      <trkpt lat="50.99601" lon="2.1608">
        <ele>1.3</ele>
        <time>2020-06-23T10:12:55Z</time>
      </trkpt>
      <trkpt lat="50.99601" lon="2.1609">
        <ele>1.4</ele>
        <time>2020-06-23T10:12:56Z</time>
      </trkpt>
      <trkpt lat="50.99601" lon="2.161">
        <ele>1.4</ele>
        <time>2020-06-23T10:12:57Z</time>
      </trkpt>
      <trkpt lat="50.99601" lon="2.16109">
        <ele>1.5</ele>
        <time>2020-06-23T10:12:58Z</time>
      </trkpt>
      <trkpt lat="50.99601" lon="2.16119">
        <ele>1.6</ele>
        <time>2020-06-23T10:12:59Z</time>
      </trkpt>
      <trkpt lat="50.99601" lon="2.16129">
        <ele>1.6</ele>
        <time>2020-06-23T10:13:00Z</time>
      </trkpt>
      <trkpt lat="50.996" lon="2.16138">
        <ele>1.6</ele>
        <time>2020-06-23T10:13:01Z</time>
      </trkpt>
      <trkpt lat="50.996" lon="2.16148">
        <ele>1.7</ele>
        <time>2020-06-23T10:13:02Z</time>
      </trkpt>
      <trkpt lat="50.996" lon="2.16158">
        <ele>1.8</ele>
        <time>2020-06-23T10:13:03Z</time>
      </trkpt>
      <trkpt lat="50.996" lon="2.16167">
        <ele>2</ele>
        <time>2020-06-23T10:13:04Z</time>
      </trkpt>
      <trkpt lat="50.996" lon="2.16175">
        <ele>2.1</ele>
        <time>2020-06-23T10:13:05Z</time>
      </trkpt>
      <trkpt lat="50.99599" lon="2.16181">
        <ele>2.2</ele>
        <time>2020-06-23T10:13:06Z</time>
      </trkpt>
      <trkpt lat="50.99598" lon="2.16187">
        <ele>2.3</ele>
        <time>2020-06-23T10:13:07Z</time>
      </trkpt>
      <trkpt lat="50.99597" lon="2.16193">
        <ele>2.3</ele>
        <time>2020-06-23T10:13:08Z</time>
      </trkpt>
      <trkpt lat="50.99598" lon="2.162">
        <ele>2.3</ele>
        <time>2020-06-23T10:13:09Z</time>
      </trkpt>
      <trkpt lat="50.99598" lon="2.16207">
        <ele>2.3</ele>
        <time>2020-06-23T10:13:10Z</time>
      </trkpt>
      <trkpt lat="50.99599" lon="2.16214">
        <ele>2.2</ele>
        <time>2020-06-23T10:13:11Z</time>
      </trkpt>
      <trkpt lat="50.99598" lon="2.16223">
        <ele>2.1</ele>
        <time>2020-06-23T10:13:12Z</time>
      </trkpt>
      <trkpt lat="50.99598" lon="2.16231">
        <ele>2</ele>
        <time>2020-06-23T10:13:13Z</time>
      </trkpt>
      <trkpt lat="50.99597" lon="2.1624">
        <ele>1.9</ele>
        <time>2020-06-23T10:13:14Z</time>
      </trkpt>
      <trkpt lat="50.99598" lon="2.16249">
        <ele>1.8</ele>
        <time>2020-06-23T10:13:15Z</time>
      </trkpt>
      <trkpt lat="50.99598" lon="2.16258">
        <ele>1.7</ele>
        <time>2020-06-23T10:13:16Z</time>
      </trkpt>
      <trkpt lat="50.99598" lon="2.16267">
        <ele>1.7</ele>
        <time>2020-06-23T10:13:17Z</time>
      </trkpt>
      <trkpt lat="50.99598" lon="2.16276">
        <ele>1.6</ele>
        <time>2020-06-23T10:13:18Z</time>
      </trkpt>
      <trkpt lat="50.99598" lon="2.16285">
        <ele>1.6</ele>
        <time>2020-06-23T10:13:19Z</time>
      </trkpt>
      <trkpt lat="50.99599" lon="2.16295">
        <ele>1.7</ele>
        <time>2020-06-23T10:13:20Z</time>
      </trkpt>
      <trkpt lat="50.99599" lon="2.16304">
        <ele>1.7</ele>
        <time>2020-06-23T10:13:21Z</time>
      </trkpt>
      <trkpt lat="50.99599" lon="2.16313">
        <ele>1.7</ele>
        <time>2020-06-23T10:13:22Z</time>
      </trkpt>
      <trkpt lat="50.996" lon="2.16324">
        <ele>1.8</ele>
        <time>2020-06-23T10:13:23Z</time>
      </trkpt>
      <trkpt lat="50.99599" lon="2.16333">
        <ele>1.8</ele>
        <time>2020-06-23T10:13:24Z</time>
      </trkpt>
      <trkpt lat="50.99599" lon="2.16343">
        <ele>1.9</ele>
        <time>2020-06-23T10:13:25Z</time>
      </trkpt>
      <trkpt lat="50.99599" lon="2.16353">
        <ele>2</ele>
        <time>2020-06-23T10:13:26Z</time>
      </trkpt>
      <trkpt lat="50.99599" lon="2.16363">
        <ele>2.2</ele>
        <time>2020-06-23T10:13:27Z</time>
      </trkpt>
      <trkpt lat="50.99599" lon="2.16373">
        <ele>2.4</ele>
        <time>2020-06-23T10:13:28Z</time>
      </trkpt>
      <trkpt lat="50.99599" lon="2.16383">
        <ele>2.5</ele>
        <time>2020-06-23T10:13:29Z</time>
      </trkpt>
      <trkpt lat="50.99599" lon="2.16392">
        <ele>2.6</ele>
        <time>2020-06-23T10:13:30Z</time>
      </trkpt>
      <trkpt lat="50.996" lon="2.16402">
        <ele>2.7</ele>
        <time>2020-06-23T10:13:31Z</time>
      </trkpt>
      <trkpt lat="50.996" lon="2.16411">
        <ele>2.8</ele>
        <time>2020-06-23T10:13:32Z</time>
      </trkpt>
      <trkpt lat="50.996" lon="2.1642">
        <ele>2.9</ele>
        <time>2020-06-23T10:13:33Z</time>
      </trkpt>
      <trkpt lat="50.996" lon="2.1643">
        <ele>3.1</ele>
        <time>2020-06-23T10:13:34Z</time>
      </trkpt>
      <trkpt lat="50.996" lon="2.1644">
        <ele>3.3</ele>
        <time>2020-06-23T10:13:35Z</time>
      </trkpt>
      <trkpt lat="50.99599" lon="2.16449">
        <ele>3.5</ele>
        <time>2020-06-23T10:13:36Z</time>
      </trkpt>
      <trkpt lat="50.99599" lon="2.16458">
        <ele>4</ele>
        <time>2020-06-23T10:13:37Z</time>
      </trkpt>
      <trkpt lat="50.99598" lon="2.16466">
        <ele>4.2</ele>
        <time>2020-06-23T10:13:38Z</time>
      </trkpt>
      <trkpt lat="50.99598" lon="2.16475">
        <ele>4.5</ele>
        <time>2020-06-23T10:13:39Z</time>
      </trkpt>
      <trkpt lat="50.99597" lon="2.16484">
        <ele>4.7</ele>
        <time>2020-06-23T10:13:40Z</time>
      </trkpt>
      <trkpt lat="50.99597" lon="2.16493">
        <ele>5</ele>
        <time>2020-06-23T10:13:41Z</time>
      </trkpt>
      <trkpt lat="50.99597" lon="2.16503">
        <ele>5.3</ele>
        <time>2020-06-23T10:13:42Z</time>
      </trkpt>
      <trkpt lat="50.99597" lon="2.16514">
        <ele>5.6</ele>
        <time>2020-06-23T10:13:43Z</time>
      </trkpt>
      <trkpt lat="50.99596" lon="2.16522">
        <ele>5.8</ele>
        <time>2020-06-23T10:13:44Z</time>
      </trkpt>
      <trkpt lat="50.99596" lon="2.16532">
        <ele>6.1</ele>
        <time>2020-06-23T10:13:45Z</time>
      </trkpt>
      <trkpt lat="50.99596" lon="2.16541">
        <ele>6.4</ele>
        <time>2020-06-23T10:13:46Z</time>
      </trkpt>
      <trkpt lat="50.99596" lon="2.16549">
        <ele>6.6</ele>
        <time>2020-06-23T10:13:47Z</time>
      </trkpt>
      <trkpt lat="50.99596" lon="2.16558">
        <ele>6.9</ele>
        <time>2020-06-23T10:13:48Z</time>
      </trkpt>
      <trkpt lat="50.99596" lon="2.16568">
        <ele>7.1</ele>
        <time>2020-06-23T10:13:49Z</time>
      </trkpt>
      <trkpt lat="50.99595" lon="2.16577">
        <ele>7.3</ele>
        <time>2020-06-23T10:13:50Z</time>
      </trkpt>
      <trkpt lat="50.99595" lon="2.16585">
        <ele>7.5</ele>
        <time>2020-06-23T10:13:51Z</time>
      </trkpt>
      <trkpt lat="50.99595" lon="2.16594">
        <ele>7.6</ele>
        <time>2020-06-23T10:13:52Z</time>
      </trkpt>
      <trkpt lat="50.99595" lon="2.16602">
        <ele>7.8</ele>
        <time>2020-06-23T10:13:53Z</time>
      </trkpt>
      <trkpt lat="50.99594" lon="2.16611">
        <ele>7.9</ele>
        <time>2020-06-23T10:13:54Z</time>
      </trkpt>
      <trkpt lat="50.99595" lon="2.16621">
        <ele>8.1</ele>
        <time>2020-06-23T10:13:55Z</time>
      </trkpt>
      <trkpt lat="50.99595" lon="2.16631">
        <ele>8.2</ele>
        <time>2020-06-23T10:13:56Z</time>
      </trkpt>
      <trkpt lat="50.99595" lon="2.1664">
        <ele>8.3</ele>
        <time>2020-06-23T10:13:57Z</time>
      </trkpt>
      <trkpt lat="50.99595" lon="2.1665">
        <ele>8.4</ele>
        <time>2020-06-23T10:13:58Z</time>
      </trkpt>
      <trkpt lat="50.99595" lon="2.16659">
        <ele>8.5</ele>
        <time>2020-06-23T10:13:59Z</time>
      </trkpt>
      <trkpt lat="50.99596" lon="2.16668">
        <ele>8.5</ele>
        <time>2020-06-23T10:14:00Z</time>
      </trkpt>
      <trkpt lat="50.99595" lon="2.16678">
        <ele>8.6</ele>
        <time>2020-06-23T10:14:01Z</time>
      </trkpt>
      <trkpt lat="50.99595" lon="2.16687">
        <ele>8.6</ele>
        <time>2020-06-23T10:14:02Z</time>
      </trkpt>
      <trkpt lat="50.99595" lon="2.16697">
        <ele>8.6</ele>
        <time>2020-06-23T10:14:03Z</time>
      </trkpt>
      <trkpt lat="50.99595" lon="2.16706">
        <ele>8.6</ele>
        <time>2020-06-23T10:14:04Z</time>
      </trkpt>
      <trkpt lat="50.99595" lon="2.16715">
        <ele>8.6</ele>
        <time>2020-06-23T10:14:05Z</time>
      </trkpt>
      <trkpt lat="50.99595" lon="2.16722">
        <ele>8.5</ele>
        <time>2020-06-23T10:14:06Z</time>
      </trkpt>
      <trkpt lat="50.99595" lon="2.1673">
        <ele>8.5</ele>
        <time>2020-06-23T10:14:07Z</time>
      </trkpt>
      <trkpt lat="50.99595" lon="2.16739">
        <ele>8.5</ele>
        <time>2020-06-23T10:14:08Z</time>
      </trkpt>
      <trkpt lat="50.99595" lon="2.1675">
        <ele>8.4</ele>
        <time>2020-06-23T10:14:09Z</time>
      </trkpt>
      <trkpt lat="50.99595" lon="2.1676">
        <ele>8.3</ele>
        <time>2020-06-23T10:14:10Z</time>
      </trkpt>
      <trkpt lat="50.99595" lon="2.16769">
        <ele>8.2</ele>
        <time>2020-06-23T10:14:11Z</time>
      </trkpt>
      <trkpt lat="50.99595" lon="2.16779">
        <ele>8</ele>
        <time>2020-06-23T10:14:12Z</time>
      </trkpt>
      <trkpt lat="50.99595" lon="2.16787">
        <ele>7.9</ele>
        <time>2020-06-23T10:14:13Z</time>
      </trkpt>
      <trkpt lat="50.99594" lon="2.16796">
        <ele>7.7</ele>
        <time>2020-06-23T10:14:14Z</time>
      </trkpt>
      <trkpt lat="50.99594" lon="2.16806">
        <ele>7.6</ele>
        <time>2020-06-23T10:14:15Z</time>
      </trkpt>
      <trkpt lat="50.99594" lon="2.16815">
        <ele>7.4</ele>
        <time>2020-06-23T10:14:16Z</time>
      </trkpt>
      <trkpt lat="50.99594" lon="2.16825">
        <ele>7.2</ele>
        <time>2020-06-23T10:14:17Z</time>
      </trkpt>
      <trkpt lat="50.99594" lon="2.16834">
        <ele>7</ele>
        <time>2020-06-23T10:14:18Z</time>
      </trkpt>
      <trkpt lat="50.99593" lon="2.16844">
        <ele>6.7</ele>
        <time>2020-06-23T10:14:19Z</time>
      </trkpt>
      <trkpt lat="50.99593" lon="2.16854">
        <ele>6.5</ele>
        <time>2020-06-23T10:14:20Z</time>
      </trkpt>
      <trkpt lat="50.99593" lon="2.16864">
        <ele>6.2</ele>
        <time>2020-06-23T10:14:21Z</time>
      </trkpt>
      <trkpt lat="50.99593" lon="2.16875">
        <ele>5.9</ele>
        <time>2020-06-23T10:14:22Z</time>
      </trkpt>
      <trkpt lat="50.99593" lon="2.16887">
        <ele>5.5</ele>
        <time>2020-06-23T10:14:23Z</time>
      </trkpt>
      <trkpt lat="50.99593" lon="2.16898">
        <ele>5.2</ele>
        <time>2020-06-23T10:14:24Z</time>
      </trkpt>
      <trkpt lat="50.99593" lon="2.1691">
        <ele>4.9</ele>
        <time>2020-06-23T10:14:25Z</time>
      </trkpt>
      <trkpt lat="50.99593" lon="2.16922">
        <ele>4.4</ele>
        <time>2020-06-23T10:14:26Z</time>
      </trkpt>
      <trkpt lat="50.99593" lon="2.16934">
        <ele>4.2</ele>
        <time>2020-06-23T10:14:27Z</time>
      </trkpt>
      <trkpt lat="50.99593" lon="2.16946">
        <ele>3.9</ele>
        <time>2020-06-23T10:14:28Z</time>
      </trkpt>
      <trkpt lat="50.99592" lon="2.16959">
        <ele>3.7</ele>
        <time>2020-06-23T10:14:29Z</time>
      </trkpt>
      <trkpt lat="50.99592" lon="2.16972">
        <ele>3.4</ele>
        <time>2020-06-23T10:14:30Z</time>
      </trkpt>
      <trkpt lat="50.99591" lon="2.16984">
        <ele>3.2</ele>
        <time>2020-06-23T10:14:31Z</time>
      </trkpt>
      <trkpt lat="50.99591" lon="2.16996">
        <ele>2.9</ele>
        <time>2020-06-23T10:14:32Z</time>
      </trkpt>
      <trkpt lat="50.99591" lon="2.17008">
        <ele>2.7</ele>
        <time>2020-06-23T10:14:33Z</time>
      </trkpt>
      <trkpt lat="50.99591" lon="2.1702">
        <ele>2.5</ele>
        <time>2020-06-23T10:14:34Z</time>
      </trkpt>
      <trkpt lat="50.99591" lon="2.17033">
        <ele>2.3</ele>
        <time>2020-06-23T10:14:35Z</time>
      </trkpt>
      <trkpt lat="50.99591" lon="2.17045">
        <ele>2.1</ele>
        <time>2020-06-23T10:14:36Z</time>
      </trkpt>
      <trkpt lat="50.99591" lon="2.17057">
        <ele>2</ele>
        <time>2020-06-23T10:14:37Z</time>
      </trkpt>
      <trkpt lat="50.9959" lon="2.17068">
        <ele>1.8</ele>
        <time>2020-06-23T10:14:38Z</time>
      </trkpt>
      <trkpt lat="50.9959" lon="2.1708">
        <ele>1.7</ele>
        <time>2020-06-23T10:14:39Z</time>
      </trkpt>
      <trkpt lat="50.9959" lon="2.17092">
        <ele>1.6</ele>
        <time>2020-06-23T10:14:40Z</time>
      </trkpt>
      <trkpt lat="50.99589" lon="2.17103">
        <ele>1.6</ele>
        <time>2020-06-23T10:14:41Z</time>
      </trkpt>
      <trkpt lat="50.99589" lon="2.17114">
        <ele>1.5</ele>
        <time>2020-06-23T10:14:42Z</time>
      </trkpt>
      <trkpt lat="50.99588" lon="2.17125">
        <ele>1.5</ele>
        <time>2020-06-23T10:14:43Z</time>
      </trkpt>
      <trkpt lat="50.99588" lon="2.17136">
        <ele>1.5</ele>
        <time>2020-06-23T10:14:44Z</time>
      </trkpt>
      <trkpt lat="50.99588" lon="2.17147">
        <ele>1.3</ele>
        <time>2020-06-23T10:14:45Z</time>
      </trkpt>
      <trkpt lat="50.99588" lon="2.17158">
        <ele>1.2</ele>
        <time>2020-06-23T10:14:46Z</time>
      </trkpt>
      <trkpt lat="50.99588" lon="2.17168">
        <ele>1.2</ele>
        <time>2020-06-23T10:14:47Z</time>
      </trkpt>
      <trkpt lat="50.99588" lon="2.17179">
        <ele>1.1</ele>
        <time>2020-06-23T10:14:48Z</time>
      </trkpt>
      <trkpt lat="50.99588" lon="2.1719">
        <ele>1.1</ele>
        <time>2020-06-23T10:14:49Z</time>
      </trkpt>
      <trkpt lat="50.99588" lon="2.172">
        <ele>1.1</ele>
        <time>2020-06-23T10:14:50Z</time>
      </trkpt>
      <trkpt lat="50.99589" lon="2.17211">
        <ele>1.1</ele>
        <time>2020-06-23T10:14:51Z</time>
      </trkpt>
      <trkpt lat="50.99589" lon="2.17221">
        <ele>1.1</ele>
        <time>2020-06-23T10:14:52Z</time>
      </trkpt>
      <trkpt lat="50.99589" lon="2.17232">
        <ele>1.1</ele>
        <time>2020-06-23T10:14:53Z</time>
      </trkpt>
      <trkpt lat="50.99589" lon="2.17243">
        <ele>1.1</ele>
        <time>2020-06-23T10:14:54Z</time>
      </trkpt>
      <trkpt lat="50.99589" lon="2.17254">
        <ele>1.2</ele>
        <time>2020-06-23T10:14:55Z</time>
      </trkpt>
      <trkpt lat="50.99588" lon="2.17264">
        <ele>1.2</ele>
        <time>2020-06-23T10:14:56Z</time>
      </trkpt>
      <trkpt lat="50.99588" lon="2.17275">
        <ele>1.3</ele>
        <time>2020-06-23T10:14:57Z</time>
      </trkpt>
      <trkpt lat="50.99588" lon="2.17286">
        <ele>1.3</ele>
        <time>2020-06-23T10:14:58Z</time>
      </trkpt>
      <trkpt lat="50.99588" lon="2.17296">
        <ele>1.3</ele>
        <time>2020-06-23T10:14:59Z</time>
      </trkpt>
      <trkpt lat="50.99588" lon="2.17307">
        <ele>1.3</ele>
        <time>2020-06-23T10:15:00Z</time>
      </trkpt>
      <trkpt lat="50.99588" lon="2.17318">
        <ele>1.3</ele>
        <time>2020-06-23T10:15:01Z</time>
      </trkpt>
      <trkpt lat="50.99588" lon="2.17328">
        <ele>1.3</ele>
        <time>2020-06-23T10:15:02Z</time>
      </trkpt>
      <trkpt lat="50.99588" lon="2.17339">
        <ele>1.3</ele>
        <time>2020-06-23T10:15:03Z</time>
      </trkpt>
      <trkpt lat="50.99588" lon="2.1735">
        <ele>1.3</ele>
        <time>2020-06-23T10:15:04Z</time>
      </trkpt>
      <trkpt lat="50.99588" lon="2.1736">
        <ele>1.3</ele>
        <time>2020-06-23T10:15:05Z</time>
      </trkpt>
      <trkpt lat="50.99587" lon="2.17371">
        <ele>1.3</ele>
        <time>2020-06-23T10:15:06Z</time>
      </trkpt>
      <trkpt lat="50.99587" lon="2.17381">
        <ele>1.4</ele>
        <time>2020-06-23T10:15:07Z</time>
      </trkpt>
      <trkpt lat="50.99587" lon="2.17392">
        <ele>1.7</ele>
        <time>2020-06-23T10:15:08Z</time>
      </trkpt>
      <trkpt lat="50.99587" lon="2.17402">
        <ele>1.7</ele>
        <time>2020-06-23T10:15:09Z</time>
      </trkpt>
      <trkpt lat="50.99587" lon="2.17413">
        <ele>1.7</ele>
        <time>2020-06-23T10:15:10Z</time>
      </trkpt>
      <trkpt lat="50.99587" lon="2.17424">
        <ele>1.7</ele>
        <time>2020-06-23T10:15:11Z</time>
      </trkpt>
      <trkpt lat="50.99587" lon="2.17435">
        <ele>1.7</ele>
        <time>2020-06-23T10:15:12Z</time>
      </trkpt>
      <trkpt lat="50.99587" lon="2.17445">
        <ele>1.7</ele>
        <time>2020-06-23T10:15:13Z</time>
      </trkpt>
      <trkpt lat="50.99587" lon="2.17457">
        <ele>1.7</ele>
        <time>2020-06-23T10:15:14Z</time>
      </trkpt>
      <trkpt lat="50.99586" lon="2.17467">
        <ele>1.7</ele>
        <time>2020-06-23T10:15:15Z</time>
      </trkpt>
      <trkpt lat="50.99586" lon="2.17478">
        <ele>1.7</ele>
        <time>2020-06-23T10:15:16Z</time>
      </trkpt>
      <trkpt lat="50.99586" lon="2.17488">
        <ele>1.7</ele>
        <time>2020-06-23T10:15:17Z</time>
      </trkpt>
      <trkpt lat="50.99586" lon="2.17499">
        <ele>1.8</ele>
        <time>2020-06-23T10:15:18Z</time>
      </trkpt>
      <trkpt lat="50.99586" lon="2.1751">
        <ele>1.7</ele>
        <time>2020-06-23T10:15:19Z</time>
      </trkpt>
      <trkpt lat="50.99586" lon="2.1752">
        <ele>1.7</ele>
        <time>2020-06-23T10:15:20Z</time>
      </trkpt>
      <trkpt lat="50.99585" lon="2.17531">
        <ele>1.7</ele>
        <time>2020-06-23T10:15:21Z</time>
      </trkpt>
      <trkpt lat="50.99585" lon="2.17541">
        <ele>1.7</ele>
        <time>2020-06-23T10:15:22Z</time>
      </trkpt>
      <trkpt lat="50.99585" lon="2.17551">
        <ele>1.6</ele>
        <time>2020-06-23T10:15:23Z</time>
      </trkpt>
      <trkpt lat="50.99584" lon="2.17562">
        <ele>1.6</ele>
        <time>2020-06-23T10:15:24Z</time>
      </trkpt>
      <trkpt lat="50.99585" lon="2.17572">
        <ele>1.6</ele>
        <time>2020-06-23T10:15:25Z</time>
      </trkpt>
      <trkpt lat="50.99584" lon="2.17583">
        <ele>1.6</ele>
        <time>2020-06-23T10:15:26Z</time>
      </trkpt>
      <trkpt lat="50.99584" lon="2.17593">
        <ele>1.6</ele>
        <time>2020-06-23T10:15:27Z</time>
      </trkpt>
      <trkpt lat="50.99584" lon="2.17604">
        <ele>1.6</ele>
        <time>2020-06-23T10:15:28Z</time>
      </trkpt>
      <trkpt lat="50.99585" lon="2.17614">
        <ele>1.6</ele>
        <time>2020-06-23T10:15:29Z</time>
      </trkpt>
      <trkpt lat="50.99585" lon="2.17624">
        <ele>1.6</ele>
        <time>2020-06-23T10:15:30Z</time>
      </trkpt>
      <trkpt lat="50.99584" lon="2.17634">
        <ele>1.6</ele>
        <time>2020-06-23T10:15:31Z</time>
      </trkpt>
      <trkpt lat="50.99584" lon="2.17645">
        <ele>1.6</ele>
        <time>2020-06-23T10:15:32Z</time>
      </trkpt>
      <trkpt lat="50.99584" lon="2.17655">
        <ele>1.6</ele>
        <time>2020-06-23T10:15:33Z</time>
      </trkpt>
      <trkpt lat="50.99584" lon="2.17665">
        <ele>1.6</ele>
        <time>2020-06-23T10:15:34Z</time>
      </trkpt>
      <trkpt lat="50.99584" lon="2.17676">
        <ele>1.6</ele>
        <time>2020-06-23T10:15:35Z</time>
      </trkpt>
      <trkpt lat="50.99584" lon="2.17686">
        <ele>1.6</ele>
        <time>2020-06-23T10:15:36Z</time>
      </trkpt>
      <trkpt lat="50.99584" lon="2.17697">
        <ele>1.6</ele>
        <time>2020-06-23T10:15:37Z</time>
      </trkpt>
      <trkpt lat="50.99584" lon="2.17707">
        <ele>1.6</ele>
        <time>2020-06-23T10:15:38Z</time>
      </trkpt>
      <trkpt lat="50.99584" lon="2.17718">
        <ele>1.7</ele>
        <time>2020-06-23T10:15:39Z</time>
      </trkpt>
      <trkpt lat="50.99584" lon="2.17729">
        <ele>1.7</ele>
        <time>2020-06-23T10:15:40Z</time>
      </trkpt>
      <trkpt lat="50.99584" lon="2.17739">
        <ele>1.7</ele>
        <time>2020-06-23T10:15:41Z</time>
      </trkpt>
      <trkpt lat="50.99583" lon="2.1775">
        <ele>1.7</ele>
        <time>2020-06-23T10:15:42Z</time>
      </trkpt>
      <trkpt lat="50.99583" lon="2.17761">
        <ele>1.8</ele>
        <time>2020-06-23T10:15:43Z</time>
      </trkpt>
      <trkpt lat="50.99583" lon="2.17772">
        <ele>1.8</ele>
        <time>2020-06-23T10:15:44Z</time>
      </trkpt>
      <trkpt lat="50.99583" lon="2.17783">
        <ele>1.8</ele>
        <time>2020-06-23T10:15:45Z</time>
      </trkpt>
      <trkpt lat="50.99582" lon="2.17794">
        <ele>1.9</ele>
        <time>2020-06-23T10:15:46Z</time>
      </trkpt>
      <trkpt lat="50.99582" lon="2.17805">
        <ele>1.8</ele>
        <time>2020-06-23T10:15:47Z</time>
      </trkpt>
      <trkpt lat="50.99582" lon="2.17816">
        <ele>1.8</ele>
        <time>2020-06-23T10:15:48Z</time>
      </trkpt>
      <trkpt lat="50.99582" lon="2.17827">
        <ele>1.7</ele>
        <time>2020-06-23T10:15:49Z</time>
      </trkpt>
      <trkpt lat="50.99582" lon="2.17838">
        <ele>1.7</ele>
        <time>2020-06-23T10:15:50Z</time>
      </trkpt>
      <trkpt lat="50.99582" lon="2.17849">
        <ele>1.7</ele>
        <time>2020-06-23T10:15:51Z</time>
      </trkpt>
      <trkpt lat="50.99582" lon="2.1786">
        <ele>1.7</ele>
        <time>2020-06-23T10:15:52Z</time>
      </trkpt>
      <trkpt lat="50.99582" lon="2.17871">
        <ele>1.7</ele>
        <time>2020-06-23T10:15:53Z</time>
      </trkpt>
      <trkpt lat="50.99582" lon="2.17882">
        <ele>1.7</ele>
        <time>2020-06-23T10:15:54Z</time>
      </trkpt>
      <trkpt lat="50.99581" lon="2.17892">
        <ele>1.7</ele>
        <time>2020-06-23T10:15:55Z</time>
      </trkpt>
      <trkpt lat="50.99582" lon="2.17903">
        <ele>1.7</ele>
        <time>2020-06-23T10:15:56Z</time>
      </trkpt>
      <trkpt lat="50.99581" lon="2.17913">
        <ele>1.7</ele>
        <time>2020-06-23T10:15:57Z</time>
      </trkpt>
      <trkpt lat="50.99581" lon="2.17923">
        <ele>1.7</ele>
        <time>2020-06-23T10:15:58Z</time>
      </trkpt>
      <trkpt lat="50.99581" lon="2.17934">
        <ele>1.7</ele>
        <time>2020-06-23T10:15:59Z</time>
      </trkpt>
      <trkpt lat="50.9958" lon="2.17944">
        <ele>1.7</ele>
        <time>2020-06-23T10:16:00Z</time>
      </trkpt>
      <trkpt lat="50.99579" lon="2.17955">
        <ele>1.7</ele>
        <time>2020-06-23T10:16:01Z</time>
      </trkpt>
      <trkpt lat="50.9958" lon="2.17965">
        <ele>1.7</ele>
        <time>2020-06-23T10:16:02Z</time>
      </trkpt>
      <trkpt lat="50.99579" lon="2.17976">
        <ele>1.7</ele>
        <time>2020-06-23T10:16:03Z</time>
      </trkpt>
      <trkpt lat="50.99579" lon="2.17987">
        <ele>1.7</ele>
        <time>2020-06-23T10:16:04Z</time>
      </trkpt>
      <trkpt lat="50.99579" lon="2.17998">
        <ele>1.7</ele>
        <time>2020-06-23T10:16:05Z</time>
      </trkpt>
      <trkpt lat="50.99579" lon="2.18009">
        <ele>1.7</ele>
        <time>2020-06-23T10:16:06Z</time>
      </trkpt>
      <trkpt lat="50.99578" lon="2.1802">
        <ele>1.7</ele>
        <time>2020-06-23T10:16:07Z</time>
      </trkpt>
      <trkpt lat="50.99578" lon="2.1803">
        <ele>1.7</ele>
        <time>2020-06-23T10:16:08Z</time>
      </trkpt>
      <trkpt lat="50.99578" lon="2.18041">
        <ele>1.7</ele>
        <time>2020-06-23T10:16:09Z</time>
      </trkpt>
      <trkpt lat="50.99578" lon="2.18052">
        <ele>1.7</ele>
        <time>2020-06-23T10:16:10Z</time>
      </trkpt>
      <trkpt lat="50.99578" lon="2.18063">
        <ele>1.7</ele>
        <time>2020-06-23T10:16:11Z</time>
      </trkpt>
      <trkpt lat="50.99577" lon="2.18073">
        <ele>1.7</ele>
        <time>2020-06-23T10:16:12Z</time>
      </trkpt>
      <trkpt lat="50.99578" lon="2.18084">
        <ele>1.7</ele>
        <time>2020-06-23T10:16:13Z</time>
      </trkpt>
      <trkpt lat="50.99578" lon="2.18095">
        <ele>1.7</ele>
        <time>2020-06-23T10:16:14Z</time>
      </trkpt>
      <trkpt lat="50.99578" lon="2.18105">
        <ele>1.7</ele>
        <time>2020-06-23T10:16:15Z</time>
      </trkpt>
      <trkpt lat="50.99578" lon="2.18116">
        <ele>1.7</ele>
        <time>2020-06-23T10:16:16Z</time>
      </trkpt>
      <trkpt lat="50.99578" lon="2.18126">
        <ele>1.7</ele>
        <time>2020-06-23T10:16:17Z</time>
      </trkpt>
      <trkpt lat="50.99578" lon="2.18137">
        <ele>1.7</ele>
        <time>2020-06-23T10:16:18Z</time>
      </trkpt>
      <trkpt lat="50.99578" lon="2.18147">
        <ele>1.7</ele>
        <time>2020-06-23T10:16:19Z</time>
      </trkpt>
      <trkpt lat="50.99578" lon="2.18158">
        <ele>1.7</ele>
        <time>2020-06-23T10:16:20Z</time>
      </trkpt>
      <trkpt lat="50.99578" lon="2.18168">
        <ele>1.7</ele>
        <time>2020-06-23T10:16:21Z</time>
      </trkpt>
      <trkpt lat="50.99578" lon="2.18179">
        <ele>1.6</ele>
        <time>2020-06-23T10:16:22Z</time>
      </trkpt>
      <trkpt lat="50.99578" lon="2.1819">
        <ele>1.6</ele>
        <time>2020-06-23T10:16:23Z</time>
      </trkpt>
      <trkpt lat="50.99579" lon="2.18201">
        <ele>1.6</ele>
        <time>2020-06-23T10:16:24Z</time>
      </trkpt>
      <trkpt lat="50.99579" lon="2.18211">
        <ele>1.6</ele>
        <time>2020-06-23T10:16:25Z</time>
      </trkpt>
      <trkpt lat="50.99579" lon="2.18222">
        <ele>1.6</ele>
        <time>2020-06-23T10:16:26Z</time>
      </trkpt>
      <trkpt lat="50.99579" lon="2.18233">
        <ele>1.6</ele>
        <time>2020-06-23T10:16:27Z</time>
      </trkpt>
      <trkpt lat="50.99579" lon="2.18244">
        <ele>1.6</ele>
        <time>2020-06-23T10:16:28Z</time>
      </trkpt>
      <trkpt lat="50.99579" lon="2.18254">
        <ele>1.6</ele>
        <time>2020-06-23T10:16:29Z</time>
      </trkpt>
      <trkpt lat="50.99579" lon="2.18265">
        <ele>1.6</ele>
        <time>2020-06-23T10:16:30Z</time>
      </trkpt>
      <trkpt lat="50.99578" lon="2.18276">
        <ele>1.6</ele>
        <time>2020-06-23T10:16:31Z</time>
      </trkpt>
      <trkpt lat="50.99578" lon="2.18286">
        <ele>1.6</ele>
        <time>2020-06-23T10:16:32Z</time>
      </trkpt>
      <trkpt lat="50.99577" lon="2.18297">
        <ele>1.6</ele>
        <time>2020-06-23T10:16:33Z</time>
      </trkpt>
      <trkpt lat="50.99577" lon="2.18308">
        <ele>1.6</ele>
        <time>2020-06-23T10:16:34Z</time>
      </trkpt>
      <trkpt lat="50.99577" lon="2.18318">
        <ele>1.6</ele>
        <time>2020-06-23T10:16:35Z</time>
      </trkpt>
      <trkpt lat="50.99577" lon="2.18329">
        <ele>1.5</ele>
        <time>2020-06-23T10:16:36Z</time>
      </trkpt>
      <trkpt lat="50.99577" lon="2.1834">
        <ele>1.5</ele>
        <time>2020-06-23T10:16:37Z</time>
      </trkpt>
      <trkpt lat="50.99577" lon="2.1835">
        <ele>1.5</ele>
        <time>2020-06-23T10:16:38Z</time>
      </trkpt>
      <trkpt lat="50.99577" lon="2.18361">
        <ele>1.5</ele>
        <time>2020-06-23T10:16:39Z</time>
      </trkpt>
      <trkpt lat="50.99577" lon="2.18372">
        <ele>1.5</ele>
        <time>2020-06-23T10:16:40Z</time>
      </trkpt>
      <trkpt lat="50.99577" lon="2.18384">
        <ele>1.5</ele>
        <time>2020-06-23T10:16:41Z</time>
      </trkpt>
      <trkpt lat="50.99577" lon="2.18395">
        <ele>1.6</ele>
        <time>2020-06-23T10:16:42Z</time>
      </trkpt>
      <trkpt lat="50.99577" lon="2.18406">
        <ele>1.6</ele>
        <time>2020-06-23T10:16:43Z</time>
      </trkpt>
      <trkpt lat="50.99577" lon="2.18417">
        <ele>1.5</ele>
        <time>2020-06-23T10:16:44Z</time>
      </trkpt>
      <trkpt lat="50.99577" lon="2.18428">
        <ele>1.5</ele>
        <time>2020-06-23T10:16:45Z</time>
      </trkpt>
      <trkpt lat="50.99577" lon="2.18439">
        <ele>1.5</ele>
        <time>2020-06-23T10:16:46Z</time>
      </trkpt>
      <trkpt lat="50.99576" lon="2.1845">
        <ele>1.5</ele>
        <time>2020-06-23T10:16:47Z</time>
      </trkpt>
      <trkpt lat="50.99576" lon="2.18462">
        <ele>1.5</ele>
        <time>2020-06-23T10:16:48Z</time>
      </trkpt>
      <trkpt lat="50.99576" lon="2.18473">
        <ele>1.6</ele>
        <time>2020-06-23T10:16:49Z</time>
      </trkpt>
      <trkpt lat="50.99576" lon="2.18484">
        <ele>1.6</ele>
        <time>2020-06-23T10:16:50Z</time>
      </trkpt>
      <trkpt lat="50.99576" lon="2.18495">
        <ele>1.6</ele>
        <time>2020-06-23T10:16:51Z</time>
      </trkpt>
      <trkpt lat="50.99576" lon="2.18506">
        <ele>1.6</ele>
        <time>2020-06-23T10:16:52Z</time>
      </trkpt>
      <trkpt lat="50.99576" lon="2.18517">
        <ele>1.6</ele>
        <time>2020-06-23T10:16:53Z</time>
      </trkpt>
      <trkpt lat="50.99576" lon="2.18528">
        <ele>1.6</ele>
        <time>2020-06-23T10:16:54Z</time>
      </trkpt>
      <trkpt lat="50.99575" lon="2.18539">
        <ele>1.6</ele>
        <time>2020-06-23T10:16:55Z</time>
      </trkpt>
      <trkpt lat="50.99575" lon="2.18551">
        <ele>1.6</ele>
        <time>2020-06-23T10:16:56Z</time>
      </trkpt>
      <trkpt lat="50.99575" lon="2.18562">
        <ele>1.6</ele>
        <time>2020-06-23T10:16:57Z</time>
      </trkpt>
      <trkpt lat="50.99575" lon="2.18573">
        <ele>1.6</ele>
        <time>2020-06-23T10:16:58Z</time>
      </trkpt>
      <trkpt lat="50.99574" lon="2.18584">
        <ele>1.7</ele>
        <time>2020-06-23T10:16:59Z</time>
      </trkpt>
      <trkpt lat="50.99574" lon="2.18595">
        <ele>1.7</ele>
        <time>2020-06-23T10:17:00Z</time>
      </trkpt>
      <trkpt lat="50.99573" lon="2.18606">
        <ele>1.7</ele>
        <time>2020-06-23T10:17:01Z</time>
      </trkpt>
      <trkpt lat="50.99573" lon="2.18618">
        <ele>1.7</ele>
        <time>2020-06-23T10:17:02Z</time>
      </trkpt>
      <trkpt lat="50.99573" lon="2.18629">
        <ele>1.7</ele>
        <time>2020-06-23T10:17:03Z</time>
      </trkpt>
      <trkpt lat="50.99573" lon="2.1864">
        <ele>1.7</ele>
        <time>2020-06-23T10:17:04Z</time>
      </trkpt>
      <trkpt lat="50.99573" lon="2.1865">
        <ele>1.7</ele>
        <time>2020-06-23T10:17:05Z</time>
      </trkpt>
      <trkpt lat="50.99573" lon="2.18661">
        <ele>1.7</ele>
        <time>2020-06-23T10:17:06Z</time>
      </trkpt>
      <trkpt lat="50.99573" lon="2.18672">
        <ele>1.7</ele>
        <time>2020-06-23T10:17:07Z</time>
      </trkpt>
      <trkpt lat="50.99572" lon="2.18682">
        <ele>1.7</ele>
        <time>2020-06-23T10:17:08Z</time>
      </trkpt>
      <trkpt lat="50.99572" lon="2.18693">
        <ele>1.7</ele>
        <time>2020-06-23T10:17:09Z</time>
      </trkpt>
      <trkpt lat="50.99572" lon="2.18704">
        <ele>1.8</ele>
        <time>2020-06-23T10:17:10Z</time>
      </trkpt>
      <trkpt lat="50.99572" lon="2.18714">
        <ele>1.8</ele>
        <time>2020-06-23T10:17:11Z</time>
      </trkpt>
      <trkpt lat="50.99571" lon="2.18725">
        <ele>1.8</ele>
        <time>2020-06-23T10:17:12Z</time>
      </trkpt>
      <trkpt lat="50.99571" lon="2.18735">
        <ele>1.8</ele>
        <time>2020-06-23T10:17:13Z</time>
      </trkpt>
      <trkpt lat="50.99571" lon="2.18745">
        <ele>1.8</ele>
        <time>2020-06-23T10:17:14Z</time>
      </trkpt>
      <trkpt lat="50.99571" lon="2.18756">
        <ele>1.8</ele>
        <time>2020-06-23T10:17:15Z</time>
      </trkpt>
      <trkpt lat="50.99571" lon="2.18767">
        <ele>1.8</ele>
        <time>2020-06-23T10:17:16Z</time>
      </trkpt>
      <trkpt lat="50.99571" lon="2.18778">
        <ele>1.8</ele>
        <time>2020-06-23T10:17:17Z</time>
      </trkpt>
      <trkpt lat="50.99572" lon="2.18789">
        <ele>1.9</ele>
        <time>2020-06-23T10:17:18Z</time>
      </trkpt>
      <trkpt lat="50.99572" lon="2.188">
        <ele>1.9</ele>
        <time>2020-06-23T10:17:19Z</time>
      </trkpt>
      <trkpt lat="50.99571" lon="2.18811">
        <ele>1.9</ele>
        <time>2020-06-23T10:17:20Z</time>
      </trkpt>
      <trkpt lat="50.99571" lon="2.18822">
        <ele>1.9</ele>
        <time>2020-06-23T10:17:21Z</time>
      </trkpt>
      <trkpt lat="50.99571" lon="2.18833">
        <ele>1.9</ele>
        <time>2020-06-23T10:17:22Z</time>
      </trkpt>
      <trkpt lat="50.99571" lon="2.18844">
        <ele>1.9</ele>
        <time>2020-06-23T10:17:23Z</time>
      </trkpt>
      <trkpt lat="50.99571" lon="2.18855">
        <ele>1.9</ele>
        <time>2020-06-23T10:17:24Z</time>
      </trkpt>
      <trkpt lat="50.99571" lon="2.18866">
        <ele>1.9</ele>
        <time>2020-06-23T10:17:25Z</time>
      </trkpt>
      <trkpt lat="50.99571" lon="2.18877">
        <ele>1.9</ele>
        <time>2020-06-23T10:17:26Z</time>
      </trkpt>
      <trkpt lat="50.9957" lon="2.18888">
        <ele>1.9</ele>
        <time>2020-06-23T10:17:27Z</time>
      </trkpt>
      <trkpt lat="50.9957" lon="2.18899">
        <ele>1.9</ele>
        <time>2020-06-23T10:17:28Z</time>
      </trkpt>
      <trkpt lat="50.9957" lon="2.1891">
        <ele>1.9</ele>
        <time>2020-06-23T10:17:29Z</time>
      </trkpt>
      <trkpt lat="50.9957" lon="2.18921">
        <ele>1.8</ele>
        <time>2020-06-23T10:17:30Z</time>
      </trkpt>
      <trkpt lat="50.9957" lon="2.18932">
        <ele>1.8</ele>
        <time>2020-06-23T10:17:31Z</time>
      </trkpt>
      <trkpt lat="50.9957" lon="2.18943">
        <ele>1.8</ele>
        <time>2020-06-23T10:17:32Z</time>
      </trkpt>
      <trkpt lat="50.9957" lon="2.18954">
        <ele>1.9</ele>
        <time>2020-06-23T10:17:33Z</time>
      </trkpt>
      <trkpt lat="50.9957" lon="2.18965">
        <ele>1.9</ele>
        <time>2020-06-23T10:17:34Z</time>
      </trkpt>
      <trkpt lat="50.9957" lon="2.18976">
        <ele>1.9</ele>
        <time>2020-06-23T10:17:35Z</time>
      </trkpt>
      <trkpt lat="50.9957" lon="2.18987">
        <ele>1.9</ele>
        <time>2020-06-23T10:17:36Z</time>
      </trkpt>
      <trkpt lat="50.99569" lon="2.18998">
        <ele>1.9</ele>
        <time>2020-06-23T10:17:37Z</time>
      </trkpt>
      <trkpt lat="50.99569" lon="2.19009">
        <ele>1.9</ele>
        <time>2020-06-23T10:17:38Z</time>
      </trkpt>
      <trkpt lat="50.99569" lon="2.1902">
        <ele>1.9</ele>
        <time>2020-06-23T10:17:39Z</time>
      </trkpt>
      <trkpt lat="50.99568" lon="2.19031">
        <ele>1.9</ele>
        <time>2020-06-23T10:17:40Z</time>
      </trkpt>
      <trkpt lat="50.99568" lon="2.19042">
        <ele>1.9</ele>
        <time>2020-06-23T10:17:41Z</time>
      </trkpt>
      <trkpt lat="50.99568" lon="2.19053">
        <ele>1.9</ele>
        <time>2020-06-23T10:17:42Z</time>
      </trkpt>
      <trkpt lat="50.99568" lon="2.19065">
        <ele>2</ele>
        <time>2020-06-23T10:17:43Z</time>
      </trkpt>
      <trkpt lat="50.99568" lon="2.19076">
        <ele>2.1</ele>
        <time>2020-06-23T10:17:44Z</time>
      </trkpt>
      <trkpt lat="50.99568" lon="2.19088">
        <ele>2.2</ele>
        <time>2020-06-23T10:17:45Z</time>
      </trkpt>
      <trkpt lat="50.99569" lon="2.19099">
        <ele>2.2</ele>
        <time>2020-06-23T10:17:46Z</time>
      </trkpt>
      <trkpt lat="50.99568" lon="2.1911">
        <ele>2.1</ele>
        <time>2020-06-23T10:17:47Z</time>
      </trkpt>
      <trkpt lat="50.99569" lon="2.19122">
        <ele>2</ele>
        <time>2020-06-23T10:17:48Z</time>
      </trkpt>
      <trkpt lat="50.99569" lon="2.19133">
        <ele>2</ele>
        <time>2020-06-23T10:17:49Z</time>
      </trkpt>
      <trkpt lat="50.99568" lon="2.19144">
        <ele>2</ele>
        <time>2020-06-23T10:17:50Z</time>
      </trkpt>
      <trkpt lat="50.99568" lon="2.19156">
        <ele>2</ele>
        <time>2020-06-23T10:17:51Z</time>
      </trkpt>
      <trkpt lat="50.99568" lon="2.19168">
        <ele>1.9</ele>
        <time>2020-06-23T10:17:52Z</time>
      </trkpt>
      <trkpt lat="50.99568" lon="2.19179">
        <ele>1.9</ele>
        <time>2020-06-23T10:17:53Z</time>
      </trkpt>
      <trkpt lat="50.99568" lon="2.19191">
        <ele>2</ele>
        <time>2020-06-23T10:17:54Z</time>
      </trkpt>
      <trkpt lat="50.99569" lon="2.19203">
        <ele>2</ele>
        <time>2020-06-23T10:17:55Z</time>
      </trkpt>
      <trkpt lat="50.99569" lon="2.19214">
        <ele>2.1</ele>
        <time>2020-06-23T10:17:56Z</time>
      </trkpt>
      <trkpt lat="50.99568" lon="2.19226">
        <ele>2.2</ele>
        <time>2020-06-23T10:17:57Z</time>
      </trkpt>
      <trkpt lat="50.99568" lon="2.19238">
        <ele>2.2</ele>
        <time>2020-06-23T10:17:58Z</time>
      </trkpt>
      <trkpt lat="50.99568" lon="2.1925">
        <ele>2.1</ele>
        <time>2020-06-23T10:17:59Z</time>
      </trkpt>
      <trkpt lat="50.99568" lon="2.19261">
        <ele>2</ele>
        <time>2020-06-23T10:18:00Z</time>
      </trkpt>
      <trkpt lat="50.99568" lon="2.19273">
        <ele>1.9</ele>
        <time>2020-06-23T10:18:01Z</time>
      </trkpt>
      <trkpt lat="50.99567" lon="2.19284">
        <ele>1.9</ele>
        <time>2020-06-23T10:18:02Z</time>
      </trkpt>
      <trkpt lat="50.99567" lon="2.19296">
        <ele>1.8</ele>
        <time>2020-06-23T10:18:03Z</time>
      </trkpt>
      <trkpt lat="50.99567" lon="2.19307">
        <ele>1.8</ele>
        <time>2020-06-23T10:18:04Z</time>
      </trkpt>
      <trkpt lat="50.99567" lon="2.19318">
        <ele>1.7</ele>
        <time>2020-06-23T10:18:05Z</time>
      </trkpt>
      <trkpt lat="50.99567" lon="2.19329">
        <ele>1.7</ele>
        <time>2020-06-23T10:18:06Z</time>
      </trkpt>
      <trkpt lat="50.99567" lon="2.1934">
        <ele>1.7</ele>
        <time>2020-06-23T10:18:07Z</time>
      </trkpt>
      <trkpt lat="50.99566" lon="2.19351">
        <ele>1.7</ele>
        <time>2020-06-23T10:18:08Z</time>
      </trkpt>
      <trkpt lat="50.99566" lon="2.19362">
        <ele>1.7</ele>
        <time>2020-06-23T10:18:09Z</time>
      </trkpt>
      <trkpt lat="50.99567" lon="2.19373">
        <ele>1.7</ele>
        <time>2020-06-23T10:18:10Z</time>
      </trkpt>
      <trkpt lat="50.99567" lon="2.19384">
        <ele>1.7</ele>
        <time>2020-06-23T10:18:11Z</time>
      </trkpt>
      <trkpt lat="50.99567" lon="2.19394">
        <ele>1.7</ele>
        <time>2020-06-23T10:18:12Z</time>
      </trkpt>
      <trkpt lat="50.99566" lon="2.19405">
        <ele>1.8</ele>
        <time>2020-06-23T10:18:13Z</time>
      </trkpt>
      <trkpt lat="50.99566" lon="2.19416">
        <ele>1.9</ele>
        <time>2020-06-23T10:18:14Z</time>
      </trkpt>
      <trkpt lat="50.99566" lon="2.19427">
        <ele>2.1</ele>
        <time>2020-06-23T10:18:15Z</time>
      </trkpt>
      <trkpt lat="50.99566" lon="2.19438">
        <ele>2.2</ele>
        <time>2020-06-23T10:18:16Z</time>
      </trkpt>
      <trkpt lat="50.99566" lon="2.19448">
        <ele>2.3</ele>
        <time>2020-06-23T10:18:17Z</time>
      </trkpt>
      <trkpt lat="50.99566" lon="2.19459">
        <ele>2.3</ele>
        <time>2020-06-23T10:18:18Z</time>
      </trkpt>
      <trkpt lat="50.99565" lon="2.1947">
        <ele>2.3</ele>
        <time>2020-06-23T10:18:19Z</time>
      </trkpt>
      <trkpt lat="50.99565" lon="2.1948">
        <ele>2.4</ele>
        <time>2020-06-23T10:18:20Z</time>
      </trkpt>
      <trkpt lat="50.99565" lon="2.19491">
        <ele>2.4</ele>
        <time>2020-06-23T10:18:21Z</time>
      </trkpt>
      <trkpt lat="50.99565" lon="2.19501">
        <ele>2.4</ele>
        <time>2020-06-23T10:18:22Z</time>
      </trkpt>
      <trkpt lat="50.99565" lon="2.19512">
        <ele>2.4</ele>
        <time>2020-06-23T10:18:23Z</time>
      </trkpt>
      <trkpt lat="50.99565" lon="2.19522">
        <ele>2.4</ele>
        <time>2020-06-23T10:18:24Z</time>
      </trkpt>
      <trkpt lat="50.99565" lon="2.19533">
        <ele>2.5</ele>
        <time>2020-06-23T10:18:25Z</time>
      </trkpt>
      <trkpt lat="50.99564" lon="2.19544">
        <ele>2.5</ele>
        <time>2020-06-23T10:18:26Z</time>
      </trkpt>
      <trkpt lat="50.99564" lon="2.19554">
        <ele>2.5</ele>
        <time>2020-06-23T10:18:27Z</time>
      </trkpt>
      <trkpt lat="50.99564" lon="2.19565">
        <ele>2.5</ele>
        <time>2020-06-23T10:18:28Z</time>
      </trkpt>
      <trkpt lat="50.99564" lon="2.19576">
        <ele>2.6</ele>
        <time>2020-06-23T10:18:29Z</time>
      </trkpt>
      <trkpt lat="50.99564" lon="2.19587">
        <ele>2.6</ele>
        <time>2020-06-23T10:18:30Z</time>
      </trkpt>
      <trkpt lat="50.99564" lon="2.19598">
        <ele>2.6</ele>
        <time>2020-06-23T10:18:31Z</time>
      </trkpt>
      <trkpt lat="50.99563" lon="2.19608">
        <ele>2.6</ele>
        <time>2020-06-23T10:18:32Z</time>
      </trkpt>
      <trkpt lat="50.99562" lon="2.19619">
        <ele>2.6</ele>
        <time>2020-06-23T10:18:33Z</time>
      </trkpt>
      <trkpt lat="50.99562" lon="2.1963">
        <ele>2.7</ele>
        <time>2020-06-23T10:18:34Z</time>
      </trkpt>
      <trkpt lat="50.99561" lon="2.19641">
        <ele>2.7</ele>
        <time>2020-06-23T10:18:35Z</time>
      </trkpt>
      <trkpt lat="50.9956" lon="2.19652">
        <ele>2.7</ele>
        <time>2020-06-23T10:18:36Z</time>
      </trkpt>
      <trkpt lat="50.99559" lon="2.19662">
        <ele>2.8</ele>
        <time>2020-06-23T10:18:37Z</time>
      </trkpt>
      <trkpt lat="50.99557" lon="2.19673">
        <ele>2.7</ele>
        <time>2020-06-23T10:18:38Z</time>
      </trkpt>
      <trkpt lat="50.99556" lon="2.19684">
        <ele>2.5</ele>
        <time>2020-06-23T10:18:39Z</time>
      </trkpt>
      <trkpt lat="50.99555" lon="2.19695">
        <ele>2.1</ele>
        <time>2020-06-23T10:18:40Z</time>
      </trkpt>
      <trkpt lat="50.99552" lon="2.19705">
        <ele>1.9</ele>
        <time>2020-06-23T10:18:41Z</time>
      </trkpt>
      <trkpt lat="50.9955" lon="2.19715">
        <ele>1.8</ele>
        <time>2020-06-23T10:18:42Z</time>
      </trkpt>
      <trkpt lat="50.99547" lon="2.19725">
        <ele>1.8</ele>
        <time>2020-06-23T10:18:43Z</time>
      </trkpt>
      <trkpt lat="50.99544" lon="2.19734">
        <ele>1.9</ele>
        <time>2020-06-23T10:18:44Z</time>
      </trkpt>
      <trkpt lat="50.99542" lon="2.19744">
        <ele>2</ele>
        <time>2020-06-23T10:18:45Z</time>
      </trkpt>
      <trkpt lat="50.99539" lon="2.19753">
        <ele>2.1</ele>
        <time>2020-06-23T10:18:46Z</time>
      </trkpt>
      <trkpt lat="50.99536" lon="2.19763">
        <ele>2.2</ele>
        <time>2020-06-23T10:18:47Z</time>
      </trkpt>
      <trkpt lat="50.99533" lon="2.19773">
        <ele>2.3</ele>
        <time>2020-06-23T10:18:48Z</time>
      </trkpt>
      <trkpt lat="50.99531" lon="2.19782">
        <ele>2.4</ele>
        <time>2020-06-23T10:18:49Z</time>
      </trkpt>
      <trkpt lat="50.99528" lon="2.19791">
        <ele>2.5</ele>
        <time>2020-06-23T10:18:50Z</time>
      </trkpt>
      <trkpt lat="50.99525" lon="2.19801">
        <ele>2.6</ele>
        <time>2020-06-23T10:18:51Z</time>
      </trkpt>
      <trkpt lat="50.99523" lon="2.19811">
        <ele>2.7</ele>
        <time>2020-06-23T10:18:52Z</time>
      </trkpt>
      <trkpt lat="50.99522" lon="2.19821">
        <ele>2.8</ele>
        <time>2020-06-23T10:18:53Z</time>
      </trkpt>
      <trkpt lat="50.9952" lon="2.19831">
        <ele>2.9</ele>
        <time>2020-06-23T10:18:54Z</time>
      </trkpt>
      <trkpt lat="50.99518" lon="2.19841">
        <ele>3</ele>
        <time>2020-06-23T10:18:55Z</time>
      </trkpt>
      <trkpt lat="50.99518" lon="2.19851">
        <ele>3.1</ele>
        <time>2020-06-23T10:18:56Z</time>
      </trkpt>
      <trkpt lat="50.99516" lon="2.19861">
        <ele>3.2</ele>
        <time>2020-06-23T10:18:57Z</time>
      </trkpt>
      <trkpt lat="50.99515" lon="2.19871">
        <ele>3.2</ele>
        <time>2020-06-23T10:18:58Z</time>
      </trkpt>
      <trkpt lat="50.99515" lon="2.19881">
        <ele>3</ele>
        <time>2020-06-23T10:18:59Z</time>
      </trkpt>
      <trkpt lat="50.99514" lon="2.19891">
        <ele>3</ele>
        <time>2020-06-23T10:19:00Z</time>
      </trkpt>
      <trkpt lat="50.99514" lon="2.19901">
        <ele>3</ele>
        <time>2020-06-23T10:19:01Z</time>
      </trkpt>
      <trkpt lat="50.99513" lon="2.19911">
        <ele>3</ele>
        <time>2020-06-23T10:19:02Z</time>
      </trkpt>
      <trkpt lat="50.99513" lon="2.1992">
        <ele>3</ele>
        <time>2020-06-23T10:19:03Z</time>
      </trkpt>
      <trkpt lat="50.99514" lon="2.19931">
        <ele>3</ele>
        <time>2020-06-23T10:19:04Z</time>
      </trkpt>
      <trkpt lat="50.99514" lon="2.19941">
        <ele>3</ele>
        <time>2020-06-23T10:19:05Z</time>
      </trkpt>
      <trkpt lat="50.99514" lon="2.19951">
        <ele>3</ele>
        <time>2020-06-23T10:19:06Z</time>
      </trkpt>
      <trkpt lat="50.99515" lon="2.19962">
        <ele>3</ele>
        <time>2020-06-23T10:19:07Z</time>
      </trkpt>
      <trkpt lat="50.99516" lon="2.19972">
        <ele>2.9</ele>
        <time>2020-06-23T10:19:08Z</time>
      </trkpt>
      <trkpt lat="50.99516" lon="2.19983">
        <ele>2.9</ele>
        <time>2020-06-23T10:19:09Z</time>
      </trkpt>
      <trkpt lat="50.99517" lon="2.19993">
        <ele>2.9</ele>
        <time>2020-06-23T10:19:10Z</time>
      </trkpt>
      <trkpt lat="50.99517" lon="2.20002">
        <ele>2.9</ele>
        <time>2020-06-23T10:19:11Z</time>
      </trkpt>
      <trkpt lat="50.99517" lon="2.20011">
        <ele>2.9</ele>
        <time>2020-06-23T10:19:12Z</time>
      </trkpt>
      <trkpt lat="50.99516" lon="2.2002">
        <ele>3</ele>
        <time>2020-06-23T10:19:13Z</time>
      </trkpt>
      <trkpt lat="50.99516" lon="2.20029">
        <ele>3</ele>
        <time>2020-06-23T10:19:14Z</time>
      </trkpt>
      <trkpt lat="50.99515" lon="2.20039">
        <ele>3</ele>
        <time>2020-06-23T10:19:15Z</time>
      </trkpt>
      <trkpt lat="50.99512" lon="2.20049">
        <ele>2.9</ele>
        <time>2020-06-23T10:19:16Z</time>
      </trkpt>
      <trkpt lat="50.99507" lon="2.20055">
        <ele>3</ele>
        <time>2020-06-23T10:19:17Z</time>
      </trkpt>
      <trkpt lat="50.99502" lon="2.20062">
        <ele>3</ele>
        <time>2020-06-23T10:19:18Z</time>
      </trkpt>
      <trkpt lat="50.99496" lon="2.20067">
        <ele>3</ele>
        <time>2020-06-23T10:19:19Z</time>
      </trkpt>
      <trkpt lat="50.99492" lon="2.20072">
        <ele>3</ele>
        <time>2020-06-23T10:19:20Z</time>
      </trkpt>
      <trkpt lat="50.99488" lon="2.20079">
        <ele>3.1</ele>
        <time>2020-06-23T10:19:21Z</time>
      </trkpt>
      <trkpt lat="50.99484" lon="2.20088">
        <ele>3.2</ele>
        <time>2020-06-23T10:19:22Z</time>
      </trkpt>
      <trkpt lat="50.99482" lon="2.20097">
        <ele>3.2</ele>
        <time>2020-06-23T10:19:23Z</time>
      </trkpt>
      <trkpt lat="50.99481" lon="2.20106">
        <ele>3.7</ele>
        <time>2020-06-23T10:19:24Z</time>
      </trkpt>
      <trkpt lat="50.9948" lon="2.20116">
        <ele>3.5</ele>
        <time>2020-06-23T10:19:25Z</time>
      </trkpt>
      <trkpt lat="50.99481" lon="2.20128">
        <ele>3.4</ele>
        <time>2020-06-23T10:19:26Z</time>
      </trkpt>
      <trkpt lat="50.99482" lon="2.20139">
        <ele>3.2</ele>
        <time>2020-06-23T10:19:27Z</time>
      </trkpt>
      <trkpt lat="50.99484" lon="2.20149">
        <ele>3.1</ele>
        <time>2020-06-23T10:19:28Z</time>
      </trkpt>
      <trkpt lat="50.99487" lon="2.20158">
        <ele>3</ele>
        <time>2020-06-23T10:19:29Z</time>
      </trkpt>
      <trkpt lat="50.99489" lon="2.20166">
        <ele>2.9</ele>
        <time>2020-06-23T10:19:30Z</time>
      </trkpt>
      <trkpt lat="50.99494" lon="2.20175">
        <ele>2.8</ele>
        <time>2020-06-23T10:19:31Z</time>
      </trkpt>
      <trkpt lat="50.99498" lon="2.20181">
        <ele>2.8</ele>
        <time>2020-06-23T10:19:32Z</time>
      </trkpt>
      <trkpt lat="50.99502" lon="2.20187">
        <ele>2.8</ele>
        <time>2020-06-23T10:19:33Z</time>
      </trkpt>
      <trkpt lat="50.99507" lon="2.20192">
        <ele>2.7</ele>
        <time>2020-06-23T10:19:34Z</time>
      </trkpt>
      <trkpt lat="50.99512" lon="2.20196">
        <ele>2.7</ele>
        <time>2020-06-23T10:19:35Z</time>
      </trkpt>
      <trkpt lat="50.99518" lon="2.20201">
        <ele>2.7</ele>
        <time>2020-06-23T10:19:36Z</time>
      </trkpt>
      <trkpt lat="50.99523" lon="2.20205">
        <ele>2.6</ele>
        <time>2020-06-23T10:19:37Z</time>
      </trkpt>
      <trkpt lat="50.99529" lon="2.20212">
        <ele>2.6</ele>
        <time>2020-06-23T10:19:38Z</time>
      </trkpt>
      <trkpt lat="50.99533" lon="2.20218">
        <ele>2.6</ele>
        <time>2020-06-23T10:19:39Z</time>
      </trkpt>
      <trkpt lat="50.99536" lon="2.20228">
        <ele>2.6</ele>
        <time>2020-06-23T10:19:40Z</time>
      </trkpt>
      <trkpt lat="50.99537" lon="2.20236">
        <ele>2.6</ele>
        <time>2020-06-23T10:19:41Z</time>
      </trkpt>
      <trkpt lat="50.99539" lon="2.20247">
        <ele>2.6</ele>
        <time>2020-06-23T10:19:42Z</time>
      </trkpt>
      <trkpt lat="50.9954" lon="2.20258">
        <ele>2.5</ele>
        <time>2020-06-23T10:19:43Z</time>
      </trkpt>
      <trkpt lat="50.99542" lon="2.2027">
        <ele>2.5</ele>
        <time>2020-06-23T10:19:44Z</time>
      </trkpt>
      <trkpt lat="50.99543" lon="2.20281">
        <ele>2.4</ele>
        <time>2020-06-23T10:19:45Z</time>
      </trkpt>
      <trkpt lat="50.99544" lon="2.20292">
        <ele>2.4</ele>
        <time>2020-06-23T10:19:46Z</time>
      </trkpt>
      <trkpt lat="50.99545" lon="2.20303">
        <ele>2.3</ele>
        <time>2020-06-23T10:19:47Z</time>
      </trkpt>
      <trkpt lat="50.99546" lon="2.20314">
        <ele>2.3</ele>
        <time>2020-06-23T10:19:48Z</time>
      </trkpt>
      <trkpt lat="50.99547" lon="2.20323">
        <ele>2.2</ele>
        <time>2020-06-23T10:19:49Z</time>
      </trkpt>
      <trkpt lat="50.99548" lon="2.20333">
        <ele>2.2</ele>
        <time>2020-06-23T10:19:50Z</time>
      </trkpt>
      <trkpt lat="50.99548" lon="2.20343">
        <ele>2.2</ele>
        <time>2020-06-23T10:19:51Z</time>
      </trkpt>
      <trkpt lat="50.99549" lon="2.20353">
        <ele>2.2</ele>
        <time>2020-06-23T10:19:52Z</time>
      </trkpt>
      <trkpt lat="50.9955" lon="2.20362">
        <ele>2.2</ele>
        <time>2020-06-23T10:19:53Z</time>
      </trkpt>
      <trkpt lat="50.99551" lon="2.20372">
        <ele>2.2</ele>
        <time>2020-06-23T10:19:54Z</time>
      </trkpt>
      <trkpt lat="50.9955" lon="2.20381">
        <ele>2.2</ele>
        <time>2020-06-23T10:19:55Z</time>
      </trkpt>
      <trkpt lat="50.99548" lon="2.2039">
        <ele>2.3</ele>
        <time>2020-06-23T10:19:56Z</time>
      </trkpt>
      <trkpt lat="50.99546" lon="2.20398">
        <ele>2.3</ele>
        <time>2020-06-23T10:19:57Z</time>
      </trkpt>
      <trkpt lat="50.99546" lon="2.20408">
        <ele>2.3</ele>
        <time>2020-06-23T10:19:58Z</time>
      </trkpt>
      <trkpt lat="50.99548" lon="2.20415">
        <ele>2.4</ele>
        <time>2020-06-23T10:19:59Z</time>
      </trkpt>
      <trkpt lat="50.99551" lon="2.2042">
        <ele>2.3</ele>
        <time>2020-06-23T10:20:00Z</time>
      </trkpt>
      <trkpt lat="50.99553" lon="2.20426">
        <ele>2.3</ele>
        <time>2020-06-23T10:20:01Z</time>
      </trkpt>
      <trkpt lat="50.99553" lon="2.20434">
        <ele>2.2</ele>
        <time>2020-06-23T10:20:02Z</time>
      </trkpt>
      <trkpt lat="50.99553" lon="2.20444">
        <ele>2.2</ele>
        <time>2020-06-23T10:20:03Z</time>
      </trkpt>
      <trkpt lat="50.99553" lon="2.20453">
        <ele>2.2</ele>
        <time>2020-06-23T10:20:04Z</time>
      </trkpt>
      <trkpt lat="50.99553" lon="2.20462">
        <ele>2.1</ele>
        <time>2020-06-23T10:20:05Z</time>
      </trkpt>
      <trkpt lat="50.99553" lon="2.2047">
        <ele>2.1</ele>
        <time>2020-06-23T10:20:06Z</time>
      </trkpt>
      <trkpt lat="50.99553" lon="2.2048">
        <ele>2.1</ele>
        <time>2020-06-23T10:20:07Z</time>
      </trkpt>
      <trkpt lat="50.99552" lon="2.2049">
        <ele>2.1</ele>
        <time>2020-06-23T10:20:08Z</time>
      </trkpt>
      <trkpt lat="50.99552" lon="2.205">
        <ele>2.1</ele>
        <time>2020-06-23T10:20:09Z</time>
      </trkpt>
      <trkpt lat="50.99552" lon="2.20509">
        <ele>2.1</ele>
        <time>2020-06-23T10:20:10Z</time>
      </trkpt>
      <trkpt lat="50.99552" lon="2.20522">
        <ele>2.1</ele>
        <time>2020-06-23T10:20:11Z</time>
      </trkpt>
      <trkpt lat="50.99552" lon="2.20531">
        <ele>2.1</ele>
        <time>2020-06-23T10:20:12Z</time>
      </trkpt>
      <trkpt lat="50.99552" lon="2.2054">
        <ele>2.1</ele>
        <time>2020-06-23T10:20:13Z</time>
      </trkpt>
      <trkpt lat="50.99552" lon="2.2055">
        <ele>2.1</ele>
        <time>2020-06-23T10:20:14Z</time>
      </trkpt>
      <trkpt lat="50.99552" lon="2.2056">
        <ele>2.2</ele>
        <time>2020-06-23T10:20:15Z</time>
      </trkpt>
      <trkpt lat="50.99552" lon="2.20571">
        <ele>2.2</ele>
        <time>2020-06-23T10:20:16Z</time>
      </trkpt>
      <trkpt lat="50.99552" lon="2.20582">
        <ele>2.2</ele>
        <time>2020-06-23T10:20:17Z</time>
      </trkpt>
      <trkpt lat="50.99552" lon="2.20592">
        <ele>2.2</ele>
        <time>2020-06-23T10:20:18Z</time>
      </trkpt>
      <trkpt lat="50.99551" lon="2.20604">
        <ele>2.2</ele>
        <time>2020-06-23T10:20:19Z</time>
      </trkpt>
      <trkpt lat="50.99551" lon="2.20614">
        <ele>2.2</ele>
        <time>2020-06-23T10:20:20Z</time>
      </trkpt>
      <trkpt lat="50.99551" lon="2.20625">
        <ele>2.2</ele>
        <time>2020-06-23T10:20:21Z</time>
      </trkpt>
      <trkpt lat="50.99551" lon="2.20635">
        <ele>2.2</ele>
        <time>2020-06-23T10:20:22Z</time>
      </trkpt>
      <trkpt lat="50.99551" lon="2.20647">
        <ele>2.2</ele>
        <time>2020-06-23T10:20:23Z</time>
      </trkpt>
      <trkpt lat="50.9955" lon="2.20657">
        <ele>2.1</ele>
        <time>2020-06-23T10:20:24Z</time>
      </trkpt>
      <trkpt lat="50.9955" lon="2.20667">
        <ele>2.1</ele>
        <time>2020-06-23T10:20:25Z</time>
      </trkpt>
      <trkpt lat="50.9955" lon="2.20679">
        <ele>2.1</ele>
        <time>2020-06-23T10:20:26Z</time>
      </trkpt>
      <trkpt lat="50.99551" lon="2.2069">
        <ele>2.1</ele>
        <time>2020-06-23T10:20:27Z</time>
      </trkpt>
      <trkpt lat="50.9955" lon="2.20701">
        <ele>2.1</ele>
        <time>2020-06-23T10:20:28Z</time>
      </trkpt>
      <trkpt lat="50.9955" lon="2.20712">
        <ele>2</ele>
        <time>2020-06-23T10:20:29Z</time>
      </trkpt>
      <trkpt lat="50.9955" lon="2.20724">
        <ele>2.1</ele>
        <time>2020-06-23T10:20:30Z</time>
      </trkpt>
      <trkpt lat="50.9955" lon="2.20735">
        <ele>2.1</ele>
        <time>2020-06-23T10:20:31Z</time>
      </trkpt>
      <trkpt lat="50.9955" lon="2.20746">
        <ele>2.1</ele>
        <time>2020-06-23T10:20:32Z</time>
      </trkpt>
      <trkpt lat="50.9955" lon="2.20759">
        <ele>2.1</ele>
        <time>2020-06-23T10:20:33Z</time>
      </trkpt>
      <trkpt lat="50.99549" lon="2.20769">
        <ele>2.1</ele>
        <time>2020-06-23T10:20:34Z</time>
      </trkpt>
      <trkpt lat="50.99549" lon="2.2078">
        <ele>2.2</ele>
        <time>2020-06-23T10:20:35Z</time>
      </trkpt>
      <trkpt lat="50.9955" lon="2.20789">
        <ele>2.2</ele>
        <time>2020-06-23T10:20:36Z</time>
      </trkpt>
      <trkpt lat="50.99549" lon="2.20799">
        <ele>2.2</ele>
        <time>2020-06-23T10:20:37Z</time>
      </trkpt>
      <trkpt lat="50.99549" lon="2.20809">
        <ele>2.2</ele>
        <time>2020-06-23T10:20:38Z</time>
      </trkpt>
      <trkpt lat="50.99549" lon="2.20818">
        <ele>2.2</ele>
        <time>2020-06-23T10:20:39Z</time>
      </trkpt>
      <trkpt lat="50.99549" lon="2.20827">
        <ele>2.1</ele>
        <time>2020-06-23T10:20:40Z</time>
      </trkpt>
      <trkpt lat="50.99549" lon="2.20837">
        <ele>2.1</ele>
        <time>2020-06-23T10:20:41Z</time>
      </trkpt>
      <trkpt lat="50.99549" lon="2.20847">
        <ele>2.2</ele>
        <time>2020-06-23T10:20:42Z</time>
      </trkpt>
      <trkpt lat="50.99548" lon="2.20856">
        <ele>2.2</ele>
        <time>2020-06-23T10:20:43Z</time>
      </trkpt>
      <trkpt lat="50.99547" lon="2.20866">
        <ele>2.1</ele>
        <time>2020-06-23T10:20:44Z</time>
      </trkpt>
      <trkpt lat="50.99547" lon="2.20876">
        <ele>2.1</ele>
        <time>2020-06-23T10:20:45Z</time>
      </trkpt>
      <trkpt lat="50.99547" lon="2.20886">
        <ele>2.1</ele>
        <time>2020-06-23T10:20:46Z</time>
      </trkpt>
      <trkpt lat="50.99546" lon="2.20895">
        <ele>2</ele>
        <time>2020-06-23T10:20:47Z</time>
      </trkpt>
      <trkpt lat="50.99545" lon="2.20905">
        <ele>2</ele>
        <time>2020-06-23T10:20:48Z</time>
      </trkpt>
      <trkpt lat="50.99543" lon="2.20915">
        <ele>2</ele>
        <time>2020-06-23T10:20:49Z</time>
      </trkpt>
      <trkpt lat="50.99541" lon="2.20925">
        <ele>2</ele>
        <time>2020-06-23T10:20:50Z</time>
      </trkpt>
      <trkpt lat="50.99539" lon="2.20934">
        <ele>2</ele>
        <time>2020-06-23T10:20:51Z</time>
      </trkpt>
      <trkpt lat="50.99537" lon="2.20944">
        <ele>2.1</ele>
        <time>2020-06-23T10:20:52Z</time>
      </trkpt>
      <trkpt lat="50.99535" lon="2.20953">
        <ele>2.1</ele>
        <time>2020-06-23T10:20:53Z</time>
      </trkpt>
      <trkpt lat="50.99534" lon="2.20963">
        <ele>2.1</ele>
        <time>2020-06-23T10:20:54Z</time>
      </trkpt>
      <trkpt lat="50.99533" lon="2.20973">
        <ele>2.1</ele>
        <time>2020-06-23T10:20:55Z</time>
      </trkpt>
      <trkpt lat="50.99531" lon="2.20982">
        <ele>2.1</ele>
        <time>2020-06-23T10:20:56Z</time>
      </trkpt>
      <trkpt lat="50.99528" lon="2.20991">
        <ele>2.1</ele>
        <time>2020-06-23T10:20:57Z</time>
      </trkpt>
      <trkpt lat="50.99528" lon="2.21001">
        <ele>2.1</ele>
        <time>2020-06-23T10:20:58Z</time>
      </trkpt>
      <trkpt lat="50.99526" lon="2.21011">
        <ele>2.2</ele>
        <time>2020-06-23T10:20:59Z</time>
      </trkpt>
      <trkpt lat="50.99525" lon="2.21021">
        <ele>2.2</ele>
        <time>2020-06-23T10:21:00Z</time>
      </trkpt>
      <trkpt lat="50.99524" lon="2.21031">
        <ele>2.2</ele>
        <time>2020-06-23T10:21:01Z</time>
      </trkpt>
      <trkpt lat="50.99522" lon="2.2104">
        <ele>2.3</ele>
        <time>2020-06-23T10:21:02Z</time>
      </trkpt>
      <trkpt lat="50.99521" lon="2.2105">
        <ele>2.4</ele>
        <time>2020-06-23T10:21:03Z</time>
      </trkpt>
      <trkpt lat="50.9952" lon="2.21058">
        <ele>2.4</ele>
        <time>2020-06-23T10:21:04Z</time>
      </trkpt>
      <trkpt lat="50.99518" lon="2.21067">
        <ele>2.5</ele>
        <time>2020-06-23T10:21:05Z</time>
      </trkpt>
      <trkpt lat="50.99517" lon="2.21075">
        <ele>2.5</ele>
        <time>2020-06-23T10:21:06Z</time>
      </trkpt>
      <trkpt lat="50.99515" lon="2.21083">
        <ele>2.5</ele>
        <time>2020-06-23T10:21:07Z</time>
      </trkpt>
      <trkpt lat="50.99514" lon="2.21092">
        <ele>2.4</ele>
        <time>2020-06-23T10:21:08Z</time>
      </trkpt>
      <trkpt lat="50.99513" lon="2.21101">
        <ele>2.3</ele>
        <time>2020-06-23T10:21:09Z</time>
      </trkpt>
      <trkpt lat="50.99512" lon="2.2111">
        <ele>2.3</ele>
        <time>2020-06-23T10:21:10Z</time>
      </trkpt>
      <trkpt lat="50.99511" lon="2.21118">
        <ele>2.2</ele>
        <time>2020-06-23T10:21:11Z</time>
      </trkpt>
      <trkpt lat="50.9951" lon="2.21128">
        <ele>2.2</ele>
        <time>2020-06-23T10:21:12Z</time>
      </trkpt>
      <trkpt lat="50.99508" lon="2.21137">
        <ele>2.2</ele>
        <time>2020-06-23T10:21:13Z</time>
      </trkpt>
      <trkpt lat="50.99507" lon="2.21147">
        <ele>2.2</ele>
        <time>2020-06-23T10:21:14Z</time>
      </trkpt>
      <trkpt lat="50.99506" lon="2.21157">
        <ele>2.2</ele>
        <time>2020-06-23T10:21:15Z</time>
      </trkpt>
      <trkpt lat="50.99504" lon="2.21167">
        <ele>2.2</ele>
        <time>2020-06-23T10:21:16Z</time>
      </trkpt>
      <trkpt lat="50.99502" lon="2.21176">
        <ele>2.2</ele>
        <time>2020-06-23T10:21:17Z</time>
      </trkpt>
      <trkpt lat="50.99501" lon="2.21186">
        <ele>2.3</ele>
        <time>2020-06-23T10:21:18Z</time>
      </trkpt>
      <trkpt lat="50.99498" lon="2.21196">
        <ele>2.3</ele>
        <time>2020-06-23T10:21:19Z</time>
      </trkpt>
      <trkpt lat="50.99496" lon="2.21207">
        <ele>2.4</ele>
        <time>2020-06-23T10:21:20Z</time>
      </trkpt>
      <trkpt lat="50.99495" lon="2.21217">
        <ele>2.4</ele>
        <time>2020-06-23T10:21:21Z</time>
      </trkpt>
      <trkpt lat="50.99493" lon="2.21228">
        <ele>2.4</ele>
        <time>2020-06-23T10:21:22Z</time>
      </trkpt>
      <trkpt lat="50.99491" lon="2.21238">
        <ele>2.3</ele>
        <time>2020-06-23T10:21:23Z</time>
      </trkpt>
      <trkpt lat="50.99489" lon="2.21248">
        <ele>2.3</ele>
        <time>2020-06-23T10:21:24Z</time>
      </trkpt>
      <trkpt lat="50.99487" lon="2.21258">
        <ele>2.3</ele>
        <time>2020-06-23T10:21:25Z</time>
      </trkpt>
      <trkpt lat="50.99485" lon="2.21268">
        <ele>2.3</ele>
        <time>2020-06-23T10:21:26Z</time>
      </trkpt>
      <trkpt lat="50.99484" lon="2.21278">
        <ele>2.3</ele>
        <time>2020-06-23T10:21:27Z</time>
      </trkpt>
      <trkpt lat="50.99482" lon="2.21289">
        <ele>2.3</ele>
        <time>2020-06-23T10:21:28Z</time>
      </trkpt>
      <trkpt lat="50.9948" lon="2.21299">
        <ele>2.3</ele>
        <time>2020-06-23T10:21:29Z</time>
      </trkpt>
      <trkpt lat="50.99478" lon="2.21309">
        <ele>2.3</ele>
        <time>2020-06-23T10:21:30Z</time>
      </trkpt>
      <trkpt lat="50.99477" lon="2.21319">
        <ele>2.4</ele>
        <time>2020-06-23T10:21:31Z</time>
      </trkpt>
      <trkpt lat="50.99476" lon="2.21329">
        <ele>2.5</ele>
        <time>2020-06-23T10:21:32Z</time>
      </trkpt>
      <trkpt lat="50.99475" lon="2.21339">
        <ele>2.5</ele>
        <time>2020-06-23T10:21:33Z</time>
      </trkpt>
      <trkpt lat="50.99474" lon="2.21349">
        <ele>2.5</ele>
        <time>2020-06-23T10:21:34Z</time>
      </trkpt>
      <trkpt lat="50.99472" lon="2.21358">
        <ele>2.4</ele>
        <time>2020-06-23T10:21:35Z</time>
      </trkpt>
      <trkpt lat="50.99472" lon="2.21369">
        <ele>2.4</ele>
        <time>2020-06-23T10:21:36Z</time>
      </trkpt>
      <trkpt lat="50.9947" lon="2.21379">
        <ele>2.4</ele>
        <time>2020-06-23T10:21:37Z</time>
      </trkpt>
      <trkpt lat="50.99468" lon="2.21389">
        <ele>2.4</ele>
        <time>2020-06-23T10:21:38Z</time>
      </trkpt>
      <trkpt lat="50.99466" lon="2.21399">
        <ele>2.4</ele>
        <time>2020-06-23T10:21:39Z</time>
      </trkpt>
      <trkpt lat="50.99464" lon="2.21409">
        <ele>2.4</ele>
        <time>2020-06-23T10:21:40Z</time>
      </trkpt>
      <trkpt lat="50.99463" lon="2.21419">
        <ele>2.4</ele>
        <time>2020-06-23T10:21:41Z</time>
      </trkpt>
      <trkpt lat="50.99462" lon="2.21429">
        <ele>2.3</ele>
        <time>2020-06-23T10:21:42Z</time>
      </trkpt>
      <trkpt lat="50.9946" lon="2.21439">
        <ele>2.3</ele>
        <time>2020-06-23T10:21:43Z</time>
      </trkpt>
      <trkpt lat="50.99458" lon="2.21449">
        <ele>2.3</ele>
        <time>2020-06-23T10:21:44Z</time>
      </trkpt>
      <trkpt lat="50.99456" lon="2.21459">
        <ele>2.4</ele>
        <time>2020-06-23T10:21:45Z</time>
      </trkpt>
      <trkpt lat="50.99455" lon="2.21469">
        <ele>2.4</ele>
        <time>2020-06-23T10:21:46Z</time>
      </trkpt>
      <trkpt lat="50.99453" lon="2.21479">
        <ele>2.4</ele>
        <time>2020-06-23T10:21:47Z</time>
      </trkpt>
      <trkpt lat="50.99451" lon="2.2149">
        <ele>2.4</ele>
        <time>2020-06-23T10:21:48Z</time>
      </trkpt>
      <trkpt lat="50.9945" lon="2.215">
        <ele>2.4</ele>
        <time>2020-06-23T10:21:49Z</time>
      </trkpt>
      <trkpt lat="50.99448" lon="2.21511">
        <ele>2.4</ele>
        <time>2020-06-23T10:21:50Z</time>
      </trkpt>
      <trkpt lat="50.99447" lon="2.21521">
        <ele>2.4</ele>
        <time>2020-06-23T10:21:51Z</time>
      </trkpt>
      <trkpt lat="50.99445" lon="2.21532">
        <ele>2.4</ele>
        <time>2020-06-23T10:21:52Z</time>
      </trkpt>
      <trkpt lat="50.99443" lon="2.21542">
        <ele>2.4</ele>
        <time>2020-06-23T10:21:53Z</time>
      </trkpt>
      <trkpt lat="50.99441" lon="2.21552">
        <ele>2.4</ele>
        <time>2020-06-23T10:21:54Z</time>
      </trkpt>
      <trkpt lat="50.9944" lon="2.21562">
        <ele>2.4</ele>
        <time>2020-06-23T10:21:55Z</time>
      </trkpt>
      <trkpt lat="50.99438" lon="2.21572">
        <ele>2.3</ele>
        <time>2020-06-23T10:21:56Z</time>
      </trkpt>
      <trkpt lat="50.99436" lon="2.21583">
        <ele>2.3</ele>
        <time>2020-06-23T10:21:57Z</time>
      </trkpt>
      <trkpt lat="50.99435" lon="2.21593">
        <ele>2.2</ele>
        <time>2020-06-23T10:21:58Z</time>
      </trkpt>
      <trkpt lat="50.99433" lon="2.21604">
        <ele>2.2</ele>
        <time>2020-06-23T10:21:59Z</time>
      </trkpt>
      <trkpt lat="50.99431" lon="2.21615">
        <ele>2.2</ele>
        <time>2020-06-23T10:22:00Z</time>
      </trkpt>
      <trkpt lat="50.9943" lon="2.21625">
        <ele>2.1</ele>
        <time>2020-06-23T10:22:01Z</time>
      </trkpt>
      <trkpt lat="50.99428" lon="2.21636">
        <ele>2.1</ele>
        <time>2020-06-23T10:22:02Z</time>
      </trkpt>
      <trkpt lat="50.99427" lon="2.21647">
        <ele>2.1</ele>
        <time>2020-06-23T10:22:03Z</time>
      </trkpt>
      <trkpt lat="50.99426" lon="2.21657">
        <ele>2.1</ele>
        <time>2020-06-23T10:22:04Z</time>
      </trkpt>
      <trkpt lat="50.99424" lon="2.21668">
        <ele>2.1</ele>
        <time>2020-06-23T10:22:05Z</time>
      </trkpt>
      <trkpt lat="50.99422" lon="2.21677">
        <ele>2.1</ele>
        <time>2020-06-23T10:22:06Z</time>
      </trkpt>
      <trkpt lat="50.9942" lon="2.21687">
        <ele>2.1</ele>
        <time>2020-06-23T10:22:07Z</time>
      </trkpt>
      <trkpt lat="50.99419" lon="2.21698">
        <ele>2.1</ele>
        <time>2020-06-23T10:22:08Z</time>
      </trkpt>
      <trkpt lat="50.99418" lon="2.21707">
        <ele>2.1</ele>
        <time>2020-06-23T10:22:09Z</time>
      </trkpt>
      <trkpt lat="50.99417" lon="2.21716">
        <ele>2.1</ele>
        <time>2020-06-23T10:22:10Z</time>
      </trkpt>
      <trkpt lat="50.99416" lon="2.21726">
        <ele>2.2</ele>
        <time>2020-06-23T10:22:11Z</time>
      </trkpt>
      <trkpt lat="50.99414" lon="2.21736">
        <ele>2.2</ele>
        <time>2020-06-23T10:22:12Z</time>
      </trkpt>
      <trkpt lat="50.99412" lon="2.21746">
        <ele>2.5</ele>
        <time>2020-06-23T10:22:13Z</time>
      </trkpt>
      <trkpt lat="50.9941" lon="2.21756">
        <ele>2.4</ele>
        <time>2020-06-23T10:22:14Z</time>
      </trkpt>
      <trkpt lat="50.99408" lon="2.21765">
        <ele>2.4</ele>
        <time>2020-06-23T10:22:15Z</time>
      </trkpt>
      <trkpt lat="50.99406" lon="2.21774">
        <ele>2.4</ele>
        <time>2020-06-23T10:22:16Z</time>
      </trkpt>
      <trkpt lat="50.99405" lon="2.21785">
        <ele>2.3</ele>
        <time>2020-06-23T10:22:17Z</time>
      </trkpt>
      <trkpt lat="50.99403" lon="2.21795">
        <ele>2.3</ele>
        <time>2020-06-23T10:22:18Z</time>
      </trkpt>
      <trkpt lat="50.99401" lon="2.21805">
        <ele>2.3</ele>
        <time>2020-06-23T10:22:19Z</time>
      </trkpt>
      <trkpt lat="50.99399" lon="2.21816">
        <ele>2.3</ele>
        <time>2020-06-23T10:22:20Z</time>
      </trkpt>
      <trkpt lat="50.99398" lon="2.21826">
        <ele>2.4</ele>
        <time>2020-06-23T10:22:21Z</time>
      </trkpt>
      <trkpt lat="50.99396" lon="2.21835">
        <ele>2.4</ele>
        <time>2020-06-23T10:22:22Z</time>
      </trkpt>
      <trkpt lat="50.99395" lon="2.21845">
        <ele>2.4</ele>
        <time>2020-06-23T10:22:23Z</time>
      </trkpt>
      <trkpt lat="50.99395" lon="2.21855">
        <ele>2.4</ele>
        <time>2020-06-23T10:22:24Z</time>
      </trkpt>
      <trkpt lat="50.99391" lon="2.21863">
        <ele>2.4</ele>
        <time>2020-06-23T10:22:25Z</time>
      </trkpt>
      <trkpt lat="50.9939" lon="2.21871">
        <ele>2.4</ele>
        <time>2020-06-23T10:22:26Z</time>
      </trkpt>
      <trkpt lat="50.99389" lon="2.21878">
        <ele>2.4</ele>
        <time>2020-06-23T10:22:27Z</time>
      </trkpt>
      <trkpt lat="50.99387" lon="2.21885">
        <ele>2.4</ele>
        <time>2020-06-23T10:22:28Z</time>
      </trkpt>
      <trkpt lat="50.99385" lon="2.21891">
        <ele>2.5</ele>
        <time>2020-06-23T10:22:29Z</time>
      </trkpt>
      <trkpt lat="50.99383" lon="2.21899">
        <ele>2.6</ele>
        <time>2020-06-23T10:22:30Z</time>
      </trkpt>
      <trkpt lat="50.9938" lon="2.21906">
        <ele>2.7</ele>
        <time>2020-06-23T10:22:31Z</time>
      </trkpt>
      <trkpt lat="50.99378" lon="2.21913">
        <ele>2.9</ele>
        <time>2020-06-23T10:22:32Z</time>
      </trkpt>
      <trkpt lat="50.99377" lon="2.21921">
        <ele>2.9</ele>
        <time>2020-06-23T10:22:33Z</time>
      </trkpt>
      <trkpt lat="50.99373" lon="2.21926">
        <ele>2.8</ele>
        <time>2020-06-23T10:22:34Z</time>
      </trkpt>
      <trkpt lat="50.99369" lon="2.21931">
        <ele>2.8</ele>
        <time>2020-06-23T10:22:35Z</time>
      </trkpt>
      <trkpt lat="50.99365" lon="2.21932">
        <ele>2.8</ele>
        <time>2020-06-23T10:22:36Z</time>
      </trkpt>
      <trkpt lat="50.99361" lon="2.21934">
        <ele>2.8</ele>
        <time>2020-06-23T10:22:37Z</time>
      </trkpt>
      <trkpt lat="50.99357" lon="2.21936">
        <ele>2.7</ele>
        <time>2020-06-23T10:22:38Z</time>
      </trkpt>
      <trkpt lat="50.99353" lon="2.21939">
        <ele>2.7</ele>
        <time>2020-06-23T10:22:39Z</time>
      </trkpt>
      <trkpt lat="50.99348" lon="2.21939">
        <ele>2.7</ele>
        <time>2020-06-23T10:22:40Z</time>
      </trkpt>
      <trkpt lat="50.99344" lon="2.2194">
        <ele>2.7</ele>
        <time>2020-06-23T10:22:41Z</time>
      </trkpt>
      <trkpt lat="50.9934" lon="2.21943">
        <ele>2.7</ele>
        <time>2020-06-23T10:22:42Z</time>
      </trkpt>
      <trkpt lat="50.99337" lon="2.21945">
        <ele>2.7</ele>
        <time>2020-06-23T10:22:43Z</time>
      </trkpt>
      <trkpt lat="50.99334" lon="2.21949">
        <ele>2.7</ele>
        <time>2020-06-23T10:22:44Z</time>
      </trkpt>
      <trkpt lat="50.99334" lon="2.21951">
        <ele>2.7</ele>
        <time>2020-06-23T10:22:45Z</time>
      </trkpt>
      <trkpt lat="50.99334" lon="2.21953">
        <ele>2.7</ele>
        <time>2020-06-23T10:22:46Z</time>
      </trkpt>
      <trkpt lat="50.99335" lon="2.21954">
        <ele>2.7</ele>
        <time>2020-06-23T10:22:47Z</time>
      </trkpt>
      <trkpt lat="50.99337" lon="2.21954">
        <ele>2.7</ele>
        <time>2020-06-23T10:22:48Z</time>
      </trkpt>
      <trkpt lat="50.9934" lon="2.21957">
        <ele>2.7</ele>
        <time>2020-06-23T10:22:49Z</time>
      </trkpt>
      <trkpt lat="50.99341" lon="2.21957">
        <ele>2.7</ele>
        <time>2020-06-23T10:22:50Z</time>
      </trkpt>
      <trkpt lat="50.99344" lon="2.21962">
        <ele>2.7</ele>
        <time>2020-06-23T10:22:51Z</time>
      </trkpt>
      <trkpt lat="50.99345" lon="2.21963">
        <ele>2.7</ele>
        <time>2020-06-23T10:22:52Z</time>
      </trkpt>
      <trkpt lat="50.99347" lon="2.21965">
        <ele>2.7</ele>
        <time>2020-06-23T10:22:53Z</time>
      </trkpt>
      <trkpt lat="50.99348" lon="2.21965">
        <ele>2.7</ele>
        <time>2020-06-23T10:22:54Z</time>
      </trkpt>
      <trkpt lat="50.99349" lon="2.21964">
        <ele>2.7</ele>
        <time>2020-06-23T10:22:55Z</time>
      </trkpt>
      <trkpt lat="50.9935" lon="2.21964">
        <ele>2.7</ele>
        <time>2020-06-23T10:22:56Z</time>
      </trkpt>
      <trkpt lat="50.9935" lon="2.21964">
        <ele>2.7</ele>
        <time>2020-06-23T10:22:57Z</time>
      </trkpt>
      <trkpt lat="50.99351" lon="2.21963">
        <ele>2.7</ele>
        <time>2020-06-23T10:22:58Z</time>
      </trkpt>
      <trkpt lat="50.99351" lon="2.21961">
        <ele>2.7</ele>
        <time>2020-06-23T10:22:59Z</time>
      </trkpt>
      <trkpt lat="50.99351" lon="2.21957">
        <ele>2.7</ele>
        <time>2020-06-23T10:23:00Z</time>
      </trkpt>
      <trkpt lat="50.99352" lon="2.21951">
        <ele>2.7</ele>
        <time>2020-06-23T10:23:01Z</time>
      </trkpt>
      <trkpt lat="50.99354" lon="2.21945">
        <ele>2.7</ele>
        <time>2020-06-23T10:23:02Z</time>
      </trkpt>
      <trkpt lat="50.99357" lon="2.21942">
        <ele>2.7</ele>
        <time>2020-06-23T10:23:03Z</time>
      </trkpt>
      <trkpt lat="50.99361" lon="2.2194">
        <ele>2.8</ele>
        <time>2020-06-23T10:23:04Z</time>
      </trkpt>
      <trkpt lat="50.99365" lon="2.21937">
        <ele>2.8</ele>
        <time>2020-06-23T10:23:05Z</time>
      </trkpt>
      <trkpt lat="50.99369" lon="2.21934">
        <ele>2.8</ele>
        <time>2020-06-23T10:23:06Z</time>
      </trkpt>
      <trkpt lat="50.99372" lon="2.21929">
        <ele>2.9</ele>
        <time>2020-06-23T10:23:07Z</time>
      </trkpt>
      <trkpt lat="50.99375" lon="2.21926">
        <ele>2.9</ele>
        <time>2020-06-23T10:23:08Z</time>
      </trkpt>
      <trkpt lat="50.99377" lon="2.21923">
        <ele>3</ele>
        <time>2020-06-23T10:23:09Z</time>
      </trkpt>
      <trkpt lat="50.9938" lon="2.2192">
        <ele>3.2</ele>
        <time>2020-06-23T10:23:10Z</time>
      </trkpt>
      <trkpt lat="50.99384" lon="2.2192">
        <ele>3.1</ele>
        <time>2020-06-23T10:23:11Z</time>
      </trkpt>
      <trkpt lat="50.99386" lon="2.21925">
        <ele>3.1</ele>
        <time>2020-06-23T10:23:12Z</time>
      </trkpt>
      <trkpt lat="50.99388" lon="2.21932">
        <ele>3</ele>
        <time>2020-06-23T10:23:13Z</time>
      </trkpt>
      <trkpt lat="50.99391" lon="2.21938">
        <ele>3</ele>
        <time>2020-06-23T10:23:14Z</time>
      </trkpt>
      <trkpt lat="50.99393" lon="2.21945">
        <ele>2.9</ele>
        <time>2020-06-23T10:23:15Z</time>
      </trkpt>
      <trkpt lat="50.99395" lon="2.21952">
        <ele>2.8</ele>
        <time>2020-06-23T10:23:16Z</time>
      </trkpt>
      <trkpt lat="50.99397" lon="2.21958">
        <ele>2.8</ele>
        <time>2020-06-23T10:23:17Z</time>
      </trkpt>
      <trkpt lat="50.99401" lon="2.21963">
        <ele>2.8</ele>
        <time>2020-06-23T10:23:18Z</time>
      </trkpt>
      <trkpt lat="50.99404" lon="2.21968">
        <ele>2.8</ele>
        <time>2020-06-23T10:23:19Z</time>
      </trkpt>
      <trkpt lat="50.99407" lon="2.21975">
        <ele>2.8</ele>
        <time>2020-06-23T10:23:20Z</time>
      </trkpt>
      <trkpt lat="50.9941" lon="2.21981">
        <ele>2.8</ele>
        <time>2020-06-23T10:23:21Z</time>
      </trkpt>
      <trkpt lat="50.99413" lon="2.21987">
        <ele>2.8</ele>
        <time>2020-06-23T10:23:22Z</time>
      </trkpt>
      <trkpt lat="50.99415" lon="2.21994">
        <ele>2.9</ele>
        <time>2020-06-23T10:23:23Z</time>
      </trkpt>
      <trkpt lat="50.99419" lon="2.21999">
        <ele>2.9</ele>
        <time>2020-06-23T10:23:24Z</time>
      </trkpt>
      <trkpt lat="50.99422" lon="2.22006">
        <ele>2.9</ele>
        <time>2020-06-23T10:23:25Z</time>
      </trkpt>
      <trkpt lat="50.99424" lon="2.22014">
        <ele>2.9</ele>
        <time>2020-06-23T10:23:26Z</time>
      </trkpt>
      <trkpt lat="50.99427" lon="2.22021">
        <ele>3</ele>
        <time>2020-06-23T10:23:27Z</time>
      </trkpt>
      <trkpt lat="50.9943" lon="2.22028">
        <ele>3</ele>
        <time>2020-06-23T10:23:28Z</time>
      </trkpt>
      <trkpt lat="50.99434" lon="2.22034">
        <ele>3.1</ele>
        <time>2020-06-23T10:23:29Z</time>
      </trkpt>
      <trkpt lat="50.99438" lon="2.22038">
        <ele>3.1</ele>
        <time>2020-06-23T10:23:30Z</time>
      </trkpt>
      <trkpt lat="50.99441" lon="2.22044">
        <ele>3.2</ele>
        <time>2020-06-23T10:23:31Z</time>
      </trkpt>
      <trkpt lat="50.99445" lon="2.2205">
        <ele>3.2</ele>
        <time>2020-06-23T10:23:32Z</time>
      </trkpt>
      <trkpt lat="50.99448" lon="2.22057">
        <ele>3.3</ele>
        <time>2020-06-23T10:23:33Z</time>
      </trkpt>
      <trkpt lat="50.99451" lon="2.22063">
        <ele>3.3</ele>
        <time>2020-06-23T10:23:34Z</time>
      </trkpt>
      <trkpt lat="50.99455" lon="2.2207">
        <ele>3.4</ele>
        <time>2020-06-23T10:23:35Z</time>
      </trkpt>
      <trkpt lat="50.99459" lon="2.22076">
        <ele>3.4</ele>
        <time>2020-06-23T10:23:36Z</time>
      </trkpt>
      <trkpt lat="50.99463" lon="2.22082">
        <ele>3.4</ele>
        <time>2020-06-23T10:23:37Z</time>
      </trkpt>
      <trkpt lat="50.99466" lon="2.22087">
        <ele>3.5</ele>
        <time>2020-06-23T10:23:38Z</time>
      </trkpt>
      <trkpt lat="50.9947" lon="2.22094">
        <ele>3.5</ele>
        <time>2020-06-23T10:23:39Z</time>
      </trkpt>
      <trkpt lat="50.99474" lon="2.22101">
        <ele>3.5</ele>
        <time>2020-06-23T10:23:40Z</time>
      </trkpt>
      <trkpt lat="50.99477" lon="2.22108">
        <ele>3.5</ele>
        <time>2020-06-23T10:23:41Z</time>
      </trkpt>
      <trkpt lat="50.99481" lon="2.22115">
        <ele>3.5</ele>
        <time>2020-06-23T10:23:42Z</time>
      </trkpt>
      <trkpt lat="50.99485" lon="2.22122">
        <ele>3.5</ele>
        <time>2020-06-23T10:23:43Z</time>
      </trkpt>
      <trkpt lat="50.9949" lon="2.22126">
        <ele>3.5</ele>
        <time>2020-06-23T10:23:44Z</time>
      </trkpt>
      <trkpt lat="50.99493" lon="2.22134">
        <ele>3.5</ele>
        <time>2020-06-23T10:23:45Z</time>
      </trkpt>
      <trkpt lat="50.99496" lon="2.22141">
        <ele>3.5</ele>
        <time>2020-06-23T10:23:46Z</time>
      </trkpt>
      <trkpt lat="50.995" lon="2.22148">
        <ele>3.5</ele>
        <time>2020-06-23T10:23:47Z</time>
      </trkpt>
      <trkpt lat="50.99505" lon="2.22155">
        <ele>3.5</ele>
        <time>2020-06-23T10:23:48Z</time>
      </trkpt>
      <trkpt lat="50.99508" lon="2.22164">
        <ele>3.5</ele>
        <time>2020-06-23T10:23:49Z</time>
      </trkpt>
      <trkpt lat="50.99511" lon="2.22173">
        <ele>3.4</ele>
        <time>2020-06-23T10:23:50Z</time>
      </trkpt>
      <trkpt lat="50.99518" lon="2.22176">
        <ele>3.4</ele>
        <time>2020-06-23T10:23:51Z</time>
      </trkpt>
      <trkpt lat="50.99522" lon="2.22184">
        <ele>3.4</ele>
        <time>2020-06-23T10:23:52Z</time>
      </trkpt>
      <trkpt lat="50.99526" lon="2.22191">
        <ele>3.3</ele>
        <time>2020-06-23T10:23:53Z</time>
      </trkpt>
      <trkpt lat="50.99531" lon="2.22199">
        <ele>3.3</ele>
        <time>2020-06-23T10:23:54Z</time>
      </trkpt>
      <trkpt lat="50.99535" lon="2.22207">
        <ele>3.2</ele>
        <time>2020-06-23T10:23:55Z</time>
      </trkpt>
      <trkpt lat="50.99539" lon="2.22214">
        <ele>3.2</ele>
        <time>2020-06-23T10:23:56Z</time>
      </trkpt>
      <trkpt lat="50.99544" lon="2.22221">
        <ele>3.1</ele>
        <time>2020-06-23T10:23:57Z</time>
      </trkpt>
      <trkpt lat="50.9955" lon="2.22227">
        <ele>3</ele>
        <time>2020-06-23T10:23:58Z</time>
      </trkpt>
      <trkpt lat="50.99555" lon="2.22234">
        <ele>2.9</ele>
        <time>2020-06-23T10:23:59Z</time>
      </trkpt>
      <trkpt lat="50.9956" lon="2.2224">
        <ele>2.9</ele>
        <time>2020-06-23T10:24:00Z</time>
      </trkpt>
      <trkpt lat="50.99565" lon="2.22247">
        <ele>2.8</ele>
        <time>2020-06-23T10:24:01Z</time>
      </trkpt>
      <trkpt lat="50.99571" lon="2.22255">
        <ele>2.8</ele>
        <time>2020-06-23T10:24:02Z</time>
      </trkpt>
      <trkpt lat="50.99575" lon="2.22263">
        <ele>2.8</ele>
        <time>2020-06-23T10:24:03Z</time>
      </trkpt>
      <trkpt lat="50.9958" lon="2.22271">
        <ele>2.8</ele>
        <time>2020-06-23T10:24:04Z</time>
      </trkpt>
      <trkpt lat="50.99583" lon="2.22281">
        <ele>2.7</ele>
        <time>2020-06-23T10:24:05Z</time>
      </trkpt>
      <trkpt lat="50.99586" lon="2.2229">
        <ele>2.7</ele>
        <time>2020-06-23T10:24:06Z</time>
      </trkpt>
      <trkpt lat="50.99588" lon="2.223">
        <ele>2.6</ele>
        <time>2020-06-23T10:24:07Z</time>
      </trkpt>
      <trkpt lat="50.99591" lon="2.2231">
        <ele>2.6</ele>
        <time>2020-06-23T10:24:08Z</time>
      </trkpt>
      <trkpt lat="50.99594" lon="2.22321">
        <ele>2.6</ele>
        <time>2020-06-23T10:24:09Z</time>
      </trkpt>
      <trkpt lat="50.99596" lon="2.22332">
        <ele>2.6</ele>
        <time>2020-06-23T10:24:10Z</time>
      </trkpt>
      <trkpt lat="50.99598" lon="2.22342">
        <ele>2.6</ele>
        <time>2020-06-23T10:24:11Z</time>
      </trkpt>
      <trkpt lat="50.996" lon="2.22352">
        <ele>2.6</ele>
        <time>2020-06-23T10:24:12Z</time>
      </trkpt>
      <trkpt lat="50.99602" lon="2.22362">
        <ele>2.6</ele>
        <time>2020-06-23T10:24:13Z</time>
      </trkpt>
      <trkpt lat="50.99604" lon="2.22371">
        <ele>2.6</ele>
        <time>2020-06-23T10:24:14Z</time>
      </trkpt>
      <trkpt lat="50.99607" lon="2.22381">
        <ele>2.6</ele>
        <time>2020-06-23T10:24:15Z</time>
      </trkpt>
      <trkpt lat="50.99611" lon="2.22392">
        <ele>2.6</ele>
        <time>2020-06-23T10:24:16Z</time>
      </trkpt>
      <trkpt lat="50.99614" lon="2.22403">
        <ele>2.6</ele>
        <time>2020-06-23T10:24:17Z</time>
      </trkpt>
      <trkpt lat="50.99618" lon="2.22414">
        <ele>2.6</ele>
        <time>2020-06-23T10:24:18Z</time>
      </trkpt>
      <trkpt lat="50.99622" lon="2.22425">
        <ele>2.7</ele>
        <time>2020-06-23T10:24:19Z</time>
      </trkpt>
      <trkpt lat="50.99624" lon="2.22437">
        <ele>2.7</ele>
        <time>2020-06-23T10:24:20Z</time>
      </trkpt>
      <trkpt lat="50.99627" lon="2.22448">
        <ele>2.7</ele>
        <time>2020-06-23T10:24:21Z</time>
      </trkpt>
      <trkpt lat="50.9963" lon="2.22459">
        <ele>2.7</ele>
        <time>2020-06-23T10:24:22Z</time>
      </trkpt>
      <trkpt lat="50.99631" lon="2.22469">
        <ele>2.6</ele>
        <time>2020-06-23T10:24:23Z</time>
      </trkpt>
      <trkpt lat="50.99634" lon="2.2248">
        <ele>2.6</ele>
        <time>2020-06-23T10:24:24Z</time>
      </trkpt>
      <trkpt lat="50.99636" lon="2.22492">
        <ele>2.5</ele>
        <time>2020-06-23T10:24:25Z</time>
      </trkpt>
      <trkpt lat="50.99638" lon="2.22502">
        <ele>2.5</ele>
        <time>2020-06-23T10:24:26Z</time>
      </trkpt>
      <trkpt lat="50.9964" lon="2.22512">
        <ele>2.6</ele>
        <time>2020-06-23T10:24:27Z</time>
      </trkpt>
      <trkpt lat="50.99642" lon="2.22523">
        <ele>2.6</ele>
        <time>2020-06-23T10:24:28Z</time>
      </trkpt>
      <trkpt lat="50.99644" lon="2.22534">
        <ele>2.6</ele>
        <time>2020-06-23T10:24:29Z</time>
      </trkpt>
      <trkpt lat="50.99646" lon="2.22544">
        <ele>2.6</ele>
        <time>2020-06-23T10:24:30Z</time>
      </trkpt>
      <trkpt lat="50.99648" lon="2.22555">
        <ele>2.7</ele>
        <time>2020-06-23T10:24:31Z</time>
      </trkpt>
      <trkpt lat="50.9965" lon="2.22566">
        <ele>2.7</ele>
        <time>2020-06-23T10:24:32Z</time>
      </trkpt>
      <trkpt lat="50.99652" lon="2.22577">
        <ele>2.7</ele>
        <time>2020-06-23T10:24:33Z</time>
      </trkpt>
      <trkpt lat="50.99654" lon="2.22588">
        <ele>2.8</ele>
        <time>2020-06-23T10:24:34Z</time>
      </trkpt>
      <trkpt lat="50.99656" lon="2.22598">
        <ele>2.8</ele>
        <time>2020-06-23T10:24:35Z</time>
      </trkpt>
      <trkpt lat="50.99658" lon="2.22608">
        <ele>2.9</ele>
        <time>2020-06-23T10:24:36Z</time>
      </trkpt>
      <trkpt lat="50.9966" lon="2.22618">
        <ele>2.9</ele>
        <time>2020-06-23T10:24:37Z</time>
      </trkpt>
      <trkpt lat="50.99661" lon="2.22628">
        <ele>2.9</ele>
        <time>2020-06-23T10:24:38Z</time>
      </trkpt>
      <trkpt lat="50.99664" lon="2.22638">
        <ele>2.8</ele>
        <time>2020-06-23T10:24:39Z</time>
      </trkpt>
      <trkpt lat="50.99667" lon="2.22648">
        <ele>2.8</ele>
        <time>2020-06-23T10:24:40Z</time>
      </trkpt>
      <trkpt lat="50.99671" lon="2.22658">
        <ele>2.7</ele>
        <time>2020-06-23T10:24:41Z</time>
      </trkpt>
      <trkpt lat="50.99674" lon="2.22668">
        <ele>2.7</ele>
        <time>2020-06-23T10:24:42Z</time>
      </trkpt>
      <trkpt lat="50.99676" lon="2.22678">
        <ele>2.7</ele>
        <time>2020-06-23T10:24:43Z</time>
      </trkpt>
      <trkpt lat="50.99679" lon="2.22688">
        <ele>2.7</ele>
        <time>2020-06-23T10:24:44Z</time>
      </trkpt>
      <trkpt lat="50.9968" lon="2.22699">
        <ele>2.7</ele>
        <time>2020-06-23T10:24:45Z</time>
      </trkpt>
      <trkpt lat="50.99682" lon="2.22709">
        <ele>2.7</ele>
        <time>2020-06-23T10:24:46Z</time>
      </trkpt>
      <trkpt lat="50.99685" lon="2.22719">
        <ele>2.6</ele>
        <time>2020-06-23T10:24:47Z</time>
      </trkpt>
      <trkpt lat="50.99687" lon="2.22729">
        <ele>2.6</ele>
        <time>2020-06-23T10:24:48Z</time>
      </trkpt>
      <trkpt lat="50.99689" lon="2.22741">
        <ele>2.6</ele>
        <time>2020-06-23T10:24:49Z</time>
      </trkpt>
      <trkpt lat="50.99692" lon="2.22754">
        <ele>2.6</ele>
        <time>2020-06-23T10:24:50Z</time>
      </trkpt>
      <trkpt lat="50.99694" lon="2.22765">
        <ele>2.5</ele>
        <time>2020-06-23T10:24:51Z</time>
      </trkpt>
      <trkpt lat="50.99697" lon="2.22774">
        <ele>2.5</ele>
        <time>2020-06-23T10:24:52Z</time>
      </trkpt>
      <trkpt lat="50.99698" lon="2.22784">
        <ele>2.5</ele>
        <time>2020-06-23T10:24:53Z</time>
      </trkpt>
      <trkpt lat="50.99701" lon="2.22794">
        <ele>2.5</ele>
        <time>2020-06-23T10:24:54Z</time>
      </trkpt>
      <trkpt lat="50.99702" lon="2.22804">
        <ele>2.4</ele>
        <time>2020-06-23T10:24:55Z</time>
      </trkpt>
      <trkpt lat="50.99704" lon="2.22814">
        <ele>2.4</ele>
        <time>2020-06-23T10:24:56Z</time>
      </trkpt>
      <trkpt lat="50.99706" lon="2.22826">
        <ele>2.4</ele>
        <time>2020-06-23T10:24:57Z</time>
      </trkpt>
      <trkpt lat="50.99708" lon="2.22838">
        <ele>2.3</ele>
        <time>2020-06-23T10:24:58Z</time>
      </trkpt>
      <trkpt lat="50.99711" lon="2.22848">
        <ele>2.3</ele>
        <time>2020-06-23T10:24:59Z</time>
      </trkpt>
      <trkpt lat="50.99713" lon="2.22859">
        <ele>2.3</ele>
        <time>2020-06-23T10:25:00Z</time>
      </trkpt>
      <trkpt lat="50.99715" lon="2.22869">
        <ele>2.3</ele>
        <time>2020-06-23T10:25:01Z</time>
      </trkpt>
      <trkpt lat="50.99717" lon="2.22879">
        <ele>2.3</ele>
        <time>2020-06-23T10:25:02Z</time>
      </trkpt>
      <trkpt lat="50.99719" lon="2.22888">
        <ele>2.3</ele>
        <time>2020-06-23T10:25:03Z</time>
      </trkpt>
      <trkpt lat="50.9972" lon="2.22898">
        <ele>2.4</ele>
        <time>2020-06-23T10:25:04Z</time>
      </trkpt>
      <trkpt lat="50.99722" lon="2.22908">
        <ele>2.3</ele>
        <time>2020-06-23T10:25:05Z</time>
      </trkpt>
      <trkpt lat="50.99724" lon="2.22917">
        <ele>2.3</ele>
        <time>2020-06-23T10:25:06Z</time>
      </trkpt>
      <trkpt lat="50.99726" lon="2.22927">
        <ele>2.3</ele>
        <time>2020-06-23T10:25:07Z</time>
      </trkpt>
      <trkpt lat="50.99728" lon="2.22938">
        <ele>2.2</ele>
        <time>2020-06-23T10:25:08Z</time>
      </trkpt>
      <trkpt lat="50.99731" lon="2.22948">
        <ele>2.3</ele>
        <time>2020-06-23T10:25:09Z</time>
      </trkpt>
      <trkpt lat="50.99733" lon="2.22959">
        <ele>2.3</ele>
        <time>2020-06-23T10:25:10Z</time>
      </trkpt>
      <trkpt lat="50.99735" lon="2.22969">
        <ele>2.2</ele>
        <time>2020-06-23T10:25:11Z</time>
      </trkpt>
      <trkpt lat="50.99737" lon="2.22979">
        <ele>2.2</ele>
        <time>2020-06-23T10:25:12Z</time>
      </trkpt>
      <trkpt lat="50.9974" lon="2.2299">
        <ele>2.2</ele>
        <time>2020-06-23T10:25:13Z</time>
      </trkpt>
      <trkpt lat="50.99743" lon="2.23">
        <ele>2.2</ele>
        <time>2020-06-23T10:25:14Z</time>
      </trkpt>
      <trkpt lat="50.99745" lon="2.23011">
        <ele>2.2</ele>
        <time>2020-06-23T10:25:15Z</time>
      </trkpt>
      <trkpt lat="50.99748" lon="2.23022">
        <ele>2.2</ele>
        <time>2020-06-23T10:25:16Z</time>
      </trkpt>
      <trkpt lat="50.9975" lon="2.23031">
        <ele>2.2</ele>
        <time>2020-06-23T10:25:17Z</time>
      </trkpt>
      <trkpt lat="50.99752" lon="2.23043">
        <ele>2.2</ele>
        <time>2020-06-23T10:25:18Z</time>
      </trkpt>
      <trkpt lat="50.99754" lon="2.23054">
        <ele>2.2</ele>
        <time>2020-06-23T10:25:19Z</time>
      </trkpt>
      <trkpt lat="50.99756" lon="2.23065">
        <ele>2.2</ele>
        <time>2020-06-23T10:25:20Z</time>
      </trkpt>
      <trkpt lat="50.99758" lon="2.23075">
        <ele>2.2</ele>
        <time>2020-06-23T10:25:21Z</time>
      </trkpt>
      <trkpt lat="50.99761" lon="2.23084">
        <ele>2.1</ele>
        <time>2020-06-23T10:25:22Z</time>
      </trkpt>
      <trkpt lat="50.99763" lon="2.23094">
        <ele>2.1</ele>
        <time>2020-06-23T10:25:23Z</time>
      </trkpt>
      <trkpt lat="50.99765" lon="2.23105">
        <ele>2.1</ele>
        <time>2020-06-23T10:25:24Z</time>
      </trkpt>
      <trkpt lat="50.99766" lon="2.23115">
        <ele>2</ele>
        <time>2020-06-23T10:25:25Z</time>
      </trkpt>
      <trkpt lat="50.99767" lon="2.23125">
        <ele>2</ele>
        <time>2020-06-23T10:25:26Z</time>
      </trkpt>
      <trkpt lat="50.99769" lon="2.23135">
        <ele>2</ele>
        <time>2020-06-23T10:25:27Z</time>
      </trkpt>
      <trkpt lat="50.99771" lon="2.23144">
        <ele>2</ele>
        <time>2020-06-23T10:25:28Z</time>
      </trkpt>
      <trkpt lat="50.99773" lon="2.23153">
        <ele>1.9</ele>
        <time>2020-06-23T10:25:29Z</time>
      </trkpt>
      <trkpt lat="50.99776" lon="2.23163">
        <ele>1.9</ele>
        <time>2020-06-23T10:25:30Z</time>
      </trkpt>
      <trkpt lat="50.99777" lon="2.23173">
        <ele>1.9</ele>
        <time>2020-06-23T10:25:31Z</time>
      </trkpt>
      <trkpt lat="50.99779" lon="2.23182">
        <ele>1.9</ele>
        <time>2020-06-23T10:25:32Z</time>
      </trkpt>
      <trkpt lat="50.99781" lon="2.23192">
        <ele>1.8</ele>
        <time>2020-06-23T10:25:33Z</time>
      </trkpt>
      <trkpt lat="50.99784" lon="2.23202">
        <ele>1.8</ele>
        <time>2020-06-23T10:25:34Z</time>
      </trkpt>
      <trkpt lat="50.99786" lon="2.23211">
        <ele>1.8</ele>
        <time>2020-06-23T10:25:35Z</time>
      </trkpt>
      <trkpt lat="50.99789" lon="2.23221">
        <ele>1.8</ele>
        <time>2020-06-23T10:25:36Z</time>
      </trkpt>
      <trkpt lat="50.99791" lon="2.23232">
        <ele>1.8</ele>
        <time>2020-06-23T10:25:37Z</time>
      </trkpt>
      <trkpt lat="50.99793" lon="2.23243">
        <ele>1.8</ele>
        <time>2020-06-23T10:25:38Z</time>
      </trkpt>
      <trkpt lat="50.99795" lon="2.23252">
        <ele>1.9</ele>
        <time>2020-06-23T10:25:39Z</time>
      </trkpt>
      <trkpt lat="50.99797" lon="2.23263">
        <ele>2</ele>
        <time>2020-06-23T10:25:40Z</time>
      </trkpt>
      <trkpt lat="50.99799" lon="2.23272">
        <ele>2</ele>
        <time>2020-06-23T10:25:41Z</time>
      </trkpt>
      <trkpt lat="50.998" lon="2.23283">
        <ele>2.2</ele>
        <time>2020-06-23T10:25:42Z</time>
      </trkpt>
      <trkpt lat="50.99803" lon="2.23293">
        <ele>2.1</ele>
        <time>2020-06-23T10:25:43Z</time>
      </trkpt>
      <trkpt lat="50.99805" lon="2.23303">
        <ele>2</ele>
        <time>2020-06-23T10:25:44Z</time>
      </trkpt>
      <trkpt lat="50.99806" lon="2.23313">
        <ele>2</ele>
        <time>2020-06-23T10:25:45Z</time>
      </trkpt>
      <trkpt lat="50.99808" lon="2.23324">
        <ele>2</ele>
        <time>2020-06-23T10:25:46Z</time>
      </trkpt>
      <trkpt lat="50.9981" lon="2.23332">
        <ele>2</ele>
        <time>2020-06-23T10:25:47Z</time>
      </trkpt>
      <trkpt lat="50.99812" lon="2.23342">
        <ele>1.9</ele>
        <time>2020-06-23T10:25:48Z</time>
      </trkpt>
      <trkpt lat="50.99815" lon="2.23352">
        <ele>1.9</ele>
        <time>2020-06-23T10:25:49Z</time>
      </trkpt>
      <trkpt lat="50.99816" lon="2.23361">
        <ele>1.9</ele>
        <time>2020-06-23T10:25:50Z</time>
      </trkpt>
      <trkpt lat="50.99819" lon="2.23371">
        <ele>1.9</ele>
        <time>2020-06-23T10:25:51Z</time>
      </trkpt>
      <trkpt lat="50.99821" lon="2.2338">
        <ele>1.9</ele>
        <time>2020-06-23T10:25:52Z</time>
      </trkpt>
      <trkpt lat="50.99824" lon="2.2339">
        <ele>1.9</ele>
        <time>2020-06-23T10:25:53Z</time>
      </trkpt>
      <trkpt lat="50.99826" lon="2.234">
        <ele>1.9</ele>
        <time>2020-06-23T10:25:54Z</time>
      </trkpt>
      <trkpt lat="50.99828" lon="2.2341">
        <ele>1.9</ele>
        <time>2020-06-23T10:25:55Z</time>
      </trkpt>
      <trkpt lat="50.9983" lon="2.23419">
        <ele>1.9</ele>
        <time>2020-06-23T10:25:56Z</time>
      </trkpt>
      <trkpt lat="50.99832" lon="2.23429">
        <ele>1.9</ele>
        <time>2020-06-23T10:25:57Z</time>
      </trkpt>
      <trkpt lat="50.99835" lon="2.23438">
        <ele>2</ele>
        <time>2020-06-23T10:25:58Z</time>
      </trkpt>
      <trkpt lat="50.99837" lon="2.23448">
        <ele>2</ele>
        <time>2020-06-23T10:25:59Z</time>
      </trkpt>
      <trkpt lat="50.99839" lon="2.23456">
        <ele>2.1</ele>
        <time>2020-06-23T10:26:00Z</time>
      </trkpt>
      <trkpt lat="50.99841" lon="2.23465">
        <ele>2.1</ele>
        <time>2020-06-23T10:26:01Z</time>
      </trkpt>
      <trkpt lat="50.99845" lon="2.23475">
        <ele>2.2</ele>
        <time>2020-06-23T10:26:02Z</time>
      </trkpt>
      <trkpt lat="50.99849" lon="2.23483">
        <ele>2.2</ele>
        <time>2020-06-23T10:26:03Z</time>
      </trkpt>
      <trkpt lat="50.99853" lon="2.2349">
        <ele>2.3</ele>
        <time>2020-06-23T10:26:04Z</time>
      </trkpt>
      <trkpt lat="50.99856" lon="2.23496">
        <ele>2.3</ele>
        <time>2020-06-23T10:26:05Z</time>
      </trkpt>
      <trkpt lat="50.99859" lon="2.23502">
        <ele>2.1</ele>
        <time>2020-06-23T10:26:06Z</time>
      </trkpt>
      <trkpt lat="50.9986" lon="2.23508">
        <ele>2.1</ele>
        <time>2020-06-23T10:26:07Z</time>
      </trkpt>
      <trkpt lat="50.99859" lon="2.23519">
        <ele>2</ele>
        <time>2020-06-23T10:26:08Z</time>
      </trkpt>
      <trkpt lat="50.99858" lon="2.23528">
        <ele>1.9</ele>
        <time>2020-06-23T10:26:09Z</time>
      </trkpt>
      <trkpt lat="50.99859" lon="2.23539">
        <ele>1.8</ele>
        <time>2020-06-23T10:26:10Z</time>
      </trkpt>
      <trkpt lat="50.99861" lon="2.2355">
        <ele>1.8</ele>
        <time>2020-06-23T10:26:11Z</time>
      </trkpt>
      <trkpt lat="50.99862" lon="2.23559">
        <ele>1.7</ele>
        <time>2020-06-23T10:26:12Z</time>
      </trkpt>
      <trkpt lat="50.99864" lon="2.23568">
        <ele>1.6</ele>
        <time>2020-06-23T10:26:13Z</time>
      </trkpt>
      <trkpt lat="50.99866" lon="2.23578">
        <ele>1.6</ele>
        <time>2020-06-23T10:26:14Z</time>
      </trkpt>
      <trkpt lat="50.99867" lon="2.23587">
        <ele>1.5</ele>
        <time>2020-06-23T10:26:15Z</time>
      </trkpt>
      <trkpt lat="50.99866" lon="2.23597">
        <ele>1.4</ele>
        <time>2020-06-23T10:26:16Z</time>
      </trkpt>
      <trkpt lat="50.99866" lon="2.23608">
        <ele>1.4</ele>
        <time>2020-06-23T10:26:17Z</time>
      </trkpt>
      <trkpt lat="50.99866" lon="2.23619">
        <ele>1.3</ele>
        <time>2020-06-23T10:26:18Z</time>
      </trkpt>
      <trkpt lat="50.99867" lon="2.2363">
        <ele>1.2</ele>
        <time>2020-06-23T10:26:19Z</time>
      </trkpt>
      <trkpt lat="50.99869" lon="2.23641">
        <ele>1.2</ele>
        <time>2020-06-23T10:26:20Z</time>
      </trkpt>
      <trkpt lat="50.99871" lon="2.23652">
        <ele>1.2</ele>
        <time>2020-06-23T10:26:21Z</time>
      </trkpt>
      <trkpt lat="50.99873" lon="2.23662">
        <ele>1.2</ele>
        <time>2020-06-23T10:26:22Z</time>
      </trkpt>
      <trkpt lat="50.99874" lon="2.23672">
        <ele>1.2</ele>
        <time>2020-06-23T10:26:23Z</time>
      </trkpt>
      <trkpt lat="50.99876" lon="2.23682">
        <ele>1.3</ele>
        <time>2020-06-23T10:26:24Z</time>
      </trkpt>
      <trkpt lat="50.99879" lon="2.23691">
        <ele>1.3</ele>
        <time>2020-06-23T10:26:25Z</time>
      </trkpt>
      <trkpt lat="50.99882" lon="2.23702">
        <ele>1.3</ele>
        <time>2020-06-23T10:26:26Z</time>
      </trkpt>
      <trkpt lat="50.99884" lon="2.23713">
        <ele>1.3</ele>
        <time>2020-06-23T10:26:27Z</time>
      </trkpt>
      <trkpt lat="50.99886" lon="2.23722">
        <ele>1.3</ele>
        <time>2020-06-23T10:26:28Z</time>
      </trkpt>
      <trkpt lat="50.99888" lon="2.23732">
        <ele>1.3</ele>
        <time>2020-06-23T10:26:29Z</time>
      </trkpt>
      <trkpt lat="50.9989" lon="2.23741">
        <ele>1.3</ele>
        <time>2020-06-23T10:26:30Z</time>
      </trkpt>
      <trkpt lat="50.99892" lon="2.2375">
        <ele>1.3</ele>
        <time>2020-06-23T10:26:31Z</time>
      </trkpt>
      <trkpt lat="50.99892" lon="2.23758">
        <ele>1.3</ele>
        <time>2020-06-23T10:26:32Z</time>
      </trkpt>
      <trkpt lat="50.99894" lon="2.23768">
        <ele>1.3</ele>
        <time>2020-06-23T10:26:33Z</time>
      </trkpt>
      <trkpt lat="50.99895" lon="2.23779">
        <ele>1.4</ele>
        <time>2020-06-23T10:26:34Z</time>
      </trkpt>
      <trkpt lat="50.99896" lon="2.23787">
        <ele>1.5</ele>
        <time>2020-06-23T10:26:35Z</time>
      </trkpt>
      <trkpt lat="50.99897" lon="2.23794">
        <ele>1.5</ele>
        <time>2020-06-23T10:26:36Z</time>
      </trkpt>
      <trkpt lat="50.99899" lon="2.23802">
        <ele>1.7</ele>
        <time>2020-06-23T10:26:37Z</time>
      </trkpt>
      <trkpt lat="50.99901" lon="2.2381">
        <ele>1.7</ele>
        <time>2020-06-23T10:26:38Z</time>
      </trkpt>
      <trkpt lat="50.99902" lon="2.23818">
        <ele>1.7</ele>
        <time>2020-06-23T10:26:39Z</time>
      </trkpt>
      <trkpt lat="50.99903" lon="2.23825">
        <ele>1.7</ele>
        <time>2020-06-23T10:26:40Z</time>
      </trkpt>
      <trkpt lat="50.99904" lon="2.23832">
        <ele>1.7</ele>
        <time>2020-06-23T10:26:41Z</time>
      </trkpt>
      <trkpt lat="50.99906" lon="2.23841">
        <ele>1.7</ele>
        <time>2020-06-23T10:26:42Z</time>
      </trkpt>
      <trkpt lat="50.99908" lon="2.2385">
        <ele>1.7</ele>
        <time>2020-06-23T10:26:43Z</time>
      </trkpt>
      <trkpt lat="50.9991" lon="2.23861">
        <ele>1.7</ele>
        <time>2020-06-23T10:26:44Z</time>
      </trkpt>
      <trkpt lat="50.99912" lon="2.2387">
        <ele>1.7</ele>
        <time>2020-06-23T10:26:45Z</time>
      </trkpt>
      <trkpt lat="50.99914" lon="2.23879">
        <ele>1.6</ele>
        <time>2020-06-23T10:26:46Z</time>
      </trkpt>
      <trkpt lat="50.99915" lon="2.23887">
        <ele>1.5</ele>
        <time>2020-06-23T10:26:47Z</time>
      </trkpt>
      <trkpt lat="50.99917" lon="2.23896">
        <ele>1.4</ele>
        <time>2020-06-23T10:26:48Z</time>
      </trkpt>
      <trkpt lat="50.99918" lon="2.23905">
        <ele>1.3</ele>
        <time>2020-06-23T10:26:49Z</time>
      </trkpt>
      <trkpt lat="50.9992" lon="2.23915">
        <ele>1.2</ele>
        <time>2020-06-23T10:26:50Z</time>
      </trkpt>
      <trkpt lat="50.99923" lon="2.23926">
        <ele>1.1</ele>
        <time>2020-06-23T10:26:51Z</time>
      </trkpt>
      <trkpt lat="50.99925" lon="2.23937">
        <ele>1.1</ele>
        <time>2020-06-23T10:26:52Z</time>
      </trkpt>
      <trkpt lat="50.99927" lon="2.23948">
        <ele>1.1</ele>
        <time>2020-06-23T10:26:53Z</time>
      </trkpt>
      <trkpt lat="50.9993" lon="2.23959">
        <ele>1.1</ele>
        <time>2020-06-23T10:26:54Z</time>
      </trkpt>
      <trkpt lat="50.99932" lon="2.2397">
        <ele>1.1</ele>
        <time>2020-06-23T10:26:55Z</time>
      </trkpt>
      <trkpt lat="50.99934" lon="2.2398">
        <ele>1.1</ele>
        <time>2020-06-23T10:26:56Z</time>
      </trkpt>
      <trkpt lat="50.99936" lon="2.23989">
        <ele>1.1</ele>
        <time>2020-06-23T10:26:57Z</time>
      </trkpt>
      <trkpt lat="50.99938" lon="2.23999">
        <ele>1.1</ele>
        <time>2020-06-23T10:26:58Z</time>
      </trkpt>
      <trkpt lat="50.9994" lon="2.24009">
        <ele>1.1</ele>
        <time>2020-06-23T10:26:59Z</time>
      </trkpt>
      <trkpt lat="50.99942" lon="2.24018">
        <ele>1.1</ele>
        <time>2020-06-23T10:27:00Z</time>
      </trkpt>
      <trkpt lat="50.99944" lon="2.24029">
        <ele>1.1</ele>
        <time>2020-06-23T10:27:01Z</time>
      </trkpt>
      <trkpt lat="50.99946" lon="2.24038">
        <ele>1.1</ele>
        <time>2020-06-23T10:27:02Z</time>
      </trkpt>
      <trkpt lat="50.99949" lon="2.24048">
        <ele>1</ele>
        <time>2020-06-23T10:27:03Z</time>
      </trkpt>
      <trkpt lat="50.99951" lon="2.24058">
        <ele>1</ele>
        <time>2020-06-23T10:27:04Z</time>
      </trkpt>
      <trkpt lat="50.99953" lon="2.24069">
        <ele>1</ele>
        <time>2020-06-23T10:27:05Z</time>
      </trkpt>
      <trkpt lat="50.99955" lon="2.24079">
        <ele>1</ele>
        <time>2020-06-23T10:27:06Z</time>
      </trkpt>
      <trkpt lat="50.99957" lon="2.24089">
        <ele>1</ele>
        <time>2020-06-23T10:27:07Z</time>
      </trkpt>
      <trkpt lat="50.99959" lon="2.241">
        <ele>0.9</ele>
        <time>2020-06-23T10:27:08Z</time>
      </trkpt>
      <trkpt lat="50.99962" lon="2.24112">
        <ele>0.9</ele>
        <time>2020-06-23T10:27:09Z</time>
      </trkpt>
      <trkpt lat="50.99964" lon="2.24123">
        <ele>0.9</ele>
        <time>2020-06-23T10:27:10Z</time>
      </trkpt>
      <trkpt lat="50.99966" lon="2.24133">
        <ele>0.8</ele>
        <time>2020-06-23T10:27:11Z</time>
      </trkpt>
      <trkpt lat="50.99969" lon="2.24143">
        <ele>0.8</ele>
        <time>2020-06-23T10:27:12Z</time>
      </trkpt>
      <trkpt lat="50.9997" lon="2.24153">
        <ele>0.8</ele>
        <time>2020-06-23T10:27:13Z</time>
      </trkpt>
      <trkpt lat="50.99973" lon="2.24164">
        <ele>0.8</ele>
        <time>2020-06-23T10:27:14Z</time>
      </trkpt>
      <trkpt lat="50.99975" lon="2.24175">
        <ele>0.8</ele>
        <time>2020-06-23T10:27:15Z</time>
      </trkpt>
      <trkpt lat="50.99977" lon="2.24186">
        <ele>0.8</ele>
        <time>2020-06-23T10:27:16Z</time>
      </trkpt>
      <trkpt lat="50.9998" lon="2.24197">
        <ele>0.9</ele>
        <time>2020-06-23T10:27:17Z</time>
      </trkpt>
      <trkpt lat="50.99982" lon="2.24208">
        <ele>0.9</ele>
        <time>2020-06-23T10:27:18Z</time>
      </trkpt>
      <trkpt lat="50.99985" lon="2.24218">
        <ele>1</ele>
        <time>2020-06-23T10:27:19Z</time>
      </trkpt>
      <trkpt lat="50.99987" lon="2.24228">
        <ele>1</ele>
        <time>2020-06-23T10:27:20Z</time>
      </trkpt>
      <trkpt lat="50.99989" lon="2.24238">
        <ele>1</ele>
        <time>2020-06-23T10:27:21Z</time>
      </trkpt>
      <trkpt lat="50.99991" lon="2.24248">
        <ele>1</ele>
        <time>2020-06-23T10:27:22Z</time>
      </trkpt>
      <trkpt lat="50.99993" lon="2.24259">
        <ele>1</ele>
        <time>2020-06-23T10:27:23Z</time>
      </trkpt>
      <trkpt lat="50.99996" lon="2.2427">
        <ele>1</ele>
        <time>2020-06-23T10:27:24Z</time>
      </trkpt>
      <trkpt lat="50.99998" lon="2.2428">
        <ele>1</ele>
        <time>2020-06-23T10:27:25Z</time>
      </trkpt>
      <trkpt lat="51" lon="2.24291">
        <ele>1</ele>
        <time>2020-06-23T10:27:26Z</time>
      </trkpt>
      <trkpt lat="51.00002" lon="2.24302">
        <ele>1</ele>
        <time>2020-06-23T10:27:27Z</time>
      </trkpt>
      <trkpt lat="51.00004" lon="2.24313">
        <ele>1</ele>
        <time>2020-06-23T10:27:28Z</time>
      </trkpt>
      <trkpt lat="51.00007" lon="2.24324">
        <ele>1.1</ele>
        <time>2020-06-23T10:27:29Z</time>
      </trkpt>
      <trkpt lat="51.00009" lon="2.24334">
        <ele>1.1</ele>
        <time>2020-06-23T10:27:30Z</time>
      </trkpt>
      <trkpt lat="51.00011" lon="2.24345">
        <ele>1.1</ele>
        <time>2020-06-23T10:27:31Z</time>
      </trkpt>
      <trkpt lat="51.00013" lon="2.24355">
        <ele>1.2</ele>
        <time>2020-06-23T10:27:32Z</time>
      </trkpt>
      <trkpt lat="51.00014" lon="2.24366">
        <ele>1.2</ele>
        <time>2020-06-23T10:27:33Z</time>
      </trkpt>
      <trkpt lat="51.00016" lon="2.24377">
        <ele>1.2</ele>
        <time>2020-06-23T10:27:34Z</time>
      </trkpt>
      <trkpt lat="51.00018" lon="2.24387">
        <ele>1.2</ele>
        <time>2020-06-23T10:27:35Z</time>
      </trkpt>
      <trkpt lat="51.0002" lon="2.24398">
        <ele>1.2</ele>
        <time>2020-06-23T10:27:36Z</time>
      </trkpt>
      <trkpt lat="51.00022" lon="2.24409">
        <ele>1.2</ele>
        <time>2020-06-23T10:27:37Z</time>
      </trkpt>
      <trkpt lat="51.00024" lon="2.24419">
        <ele>1.2</ele>
        <time>2020-06-23T10:27:38Z</time>
      </trkpt>
      <trkpt lat="51.00026" lon="2.2443">
        <ele>1.2</ele>
        <time>2020-06-23T10:27:39Z</time>
      </trkpt>
      <trkpt lat="51.00029" lon="2.24441">
        <ele>1.2</ele>
        <time>2020-06-23T10:27:40Z</time>
      </trkpt>
      <trkpt lat="51.00031" lon="2.24452">
        <ele>1.2</ele>
        <time>2020-06-23T10:27:41Z</time>
      </trkpt>
      <trkpt lat="51.00034" lon="2.24464">
        <ele>1.2</ele>
        <time>2020-06-23T10:27:42Z</time>
      </trkpt>
      <trkpt lat="51.00036" lon="2.24474">
        <ele>1.2</ele>
        <time>2020-06-23T10:27:43Z</time>
      </trkpt>
      <trkpt lat="51.00038" lon="2.24484">
        <ele>1.2</ele>
        <time>2020-06-23T10:27:44Z</time>
      </trkpt>
      <trkpt lat="51.0004" lon="2.24494">
        <ele>1.2</ele>
        <time>2020-06-23T10:27:45Z</time>
      </trkpt>
      <trkpt lat="51.00042" lon="2.24506">
        <ele>1.2</ele>
        <time>2020-06-23T10:27:46Z</time>
      </trkpt>
      <trkpt lat="51.00045" lon="2.24516">
        <ele>1.2</ele>
        <time>2020-06-23T10:27:47Z</time>
      </trkpt>
      <trkpt lat="51.00047" lon="2.24528">
        <ele>1.3</ele>
        <time>2020-06-23T10:27:48Z</time>
      </trkpt>
      <trkpt lat="51.0005" lon="2.24539">
        <ele>1.3</ele>
        <time>2020-06-23T10:27:49Z</time>
      </trkpt>
      <trkpt lat="51.00052" lon="2.2455">
        <ele>1.3</ele>
        <time>2020-06-23T10:27:50Z</time>
      </trkpt>
      <trkpt lat="51.00055" lon="2.2456">
        <ele>1.4</ele>
        <time>2020-06-23T10:27:51Z</time>
      </trkpt>
      <trkpt lat="51.00057" lon="2.2457">
        <ele>1.4</ele>
        <time>2020-06-23T10:27:52Z</time>
      </trkpt>
      <trkpt lat="51.0006" lon="2.24582">
        <ele>1.4</ele>
        <time>2020-06-23T10:27:53Z</time>
      </trkpt>
      <trkpt lat="51.00062" lon="2.24593">
        <ele>1.5</ele>
        <time>2020-06-23T10:27:54Z</time>
      </trkpt>
      <trkpt lat="51.00064" lon="2.24605">
        <ele>1.6</ele>
        <time>2020-06-23T10:27:55Z</time>
      </trkpt>
      <trkpt lat="51.00067" lon="2.24616">
        <ele>1.6</ele>
        <time>2020-06-23T10:27:56Z</time>
      </trkpt>
      <trkpt lat="51.0007" lon="2.24626">
        <ele>1.5</ele>
        <time>2020-06-23T10:27:57Z</time>
      </trkpt>
      <trkpt lat="51.00072" lon="2.24636">
        <ele>1.4</ele>
        <time>2020-06-23T10:27:58Z</time>
      </trkpt>
      <trkpt lat="51.00074" lon="2.24647">
        <ele>1.4</ele>
        <time>2020-06-23T10:27:59Z</time>
      </trkpt>
      <trkpt lat="51.00077" lon="2.24657">
        <ele>1.4</ele>
        <time>2020-06-23T10:28:00Z</time>
      </trkpt>
      <trkpt lat="51.00079" lon="2.24668">
        <ele>1.4</ele>
        <time>2020-06-23T10:28:01Z</time>
      </trkpt>
      <trkpt lat="51.00082" lon="2.24679">
        <ele>1.4</ele>
        <time>2020-06-23T10:28:02Z</time>
      </trkpt>
      <trkpt lat="51.00084" lon="2.24689">
        <ele>1.4</ele>
        <time>2020-06-23T10:28:03Z</time>
      </trkpt>
      <trkpt lat="51.00087" lon="2.247">
        <ele>1.4</ele>
        <time>2020-06-23T10:28:04Z</time>
      </trkpt>
      <trkpt lat="51.00089" lon="2.2471">
        <ele>1.4</ele>
        <time>2020-06-23T10:28:05Z</time>
      </trkpt>
      <trkpt lat="51.00091" lon="2.24721">
        <ele>1.4</ele>
        <time>2020-06-23T10:28:06Z</time>
      </trkpt>
      <trkpt lat="51.00093" lon="2.24731">
        <ele>1.5</ele>
        <time>2020-06-23T10:28:07Z</time>
      </trkpt>
      <trkpt lat="51.00096" lon="2.24742">
        <ele>1.5</ele>
        <time>2020-06-23T10:28:08Z</time>
      </trkpt>
      <trkpt lat="51.00098" lon="2.24752">
        <ele>1.5</ele>
        <time>2020-06-23T10:28:09Z</time>
      </trkpt>
      <trkpt lat="51.00101" lon="2.24762">
        <ele>1.5</ele>
        <time>2020-06-23T10:28:10Z</time>
      </trkpt>
      <trkpt lat="51.00104" lon="2.24773">
        <ele>1.5</ele>
        <time>2020-06-23T10:28:11Z</time>
      </trkpt>
      <trkpt lat="51.00106" lon="2.24783">
        <ele>1.5</ele>
        <time>2020-06-23T10:28:12Z</time>
      </trkpt>
      <trkpt lat="51.00108" lon="2.24794">
        <ele>1.6</ele>
        <time>2020-06-23T10:28:13Z</time>
      </trkpt>
      <trkpt lat="51.00111" lon="2.24804">
        <ele>1.6</ele>
        <time>2020-06-23T10:28:14Z</time>
      </trkpt>
      <trkpt lat="51.00113" lon="2.24813">
        <ele>1.6</ele>
        <time>2020-06-23T10:28:15Z</time>
      </trkpt>
      <trkpt lat="51.00115" lon="2.24823">
        <ele>1.7</ele>
        <time>2020-06-23T10:28:16Z</time>
      </trkpt>
      <trkpt lat="51.00117" lon="2.24832">
        <ele>1.8</ele>
        <time>2020-06-23T10:28:17Z</time>
      </trkpt>
      <trkpt lat="51.00119" lon="2.24841">
        <ele>1.8</ele>
        <time>2020-06-23T10:28:18Z</time>
      </trkpt>
      <trkpt lat="51.0012" lon="2.2485">
        <ele>1.9</ele>
        <time>2020-06-23T10:28:19Z</time>
      </trkpt>
      <trkpt lat="51.00122" lon="2.24859">
        <ele>2</ele>
        <time>2020-06-23T10:28:20Z</time>
      </trkpt>
      <trkpt lat="51.00124" lon="2.24867">
        <ele>2.1</ele>
        <time>2020-06-23T10:28:21Z</time>
      </trkpt>
      <trkpt lat="51.00126" lon="2.24876">
        <ele>2.2</ele>
        <time>2020-06-23T10:28:22Z</time>
      </trkpt>
      <trkpt lat="51.00128" lon="2.24883">
        <ele>2.3</ele>
        <time>2020-06-23T10:28:23Z</time>
      </trkpt>
      <trkpt lat="51.00131" lon="2.24888">
        <ele>2.6</ele>
        <time>2020-06-23T10:28:24Z</time>
      </trkpt>
      <trkpt lat="51.00133" lon="2.2489">
        <ele>2.6</ele>
        <time>2020-06-23T10:28:25Z</time>
      </trkpt>
      <trkpt lat="51.00134" lon="2.24889">
        <ele>2.6</ele>
        <time>2020-06-23T10:28:26Z</time>
      </trkpt>
      <trkpt lat="51.00135" lon="2.24887">
        <ele>2.6</ele>
        <time>2020-06-23T10:28:27Z</time>
      </trkpt>
      <trkpt lat="51.00136" lon="2.24884">
        <ele>2.7</ele>
        <time>2020-06-23T10:28:28Z</time>
      </trkpt>
      <trkpt lat="51.00137" lon="2.24883">
        <ele>2.7</ele>
        <time>2020-06-23T10:28:29Z</time>
      </trkpt>
      <trkpt lat="51.00138" lon="2.24882">
        <ele>2.7</ele>
        <time>2020-06-23T10:28:30Z</time>
      </trkpt>
      <trkpt lat="51.00139" lon="2.24882">
        <ele>2.7</ele>
        <time>2020-06-23T10:28:31Z</time>
      </trkpt>
      <trkpt lat="51.00139" lon="2.24882">
        <ele>2.7</ele>
        <time>2020-06-23T10:28:32Z</time>
      </trkpt>
      <trkpt lat="51.0014" lon="2.24881">
        <ele>2.7</ele>
        <time>2020-06-23T10:28:33Z</time>
      </trkpt>
      <trkpt lat="51.00141" lon="2.24881">
        <ele>2.7</ele>
        <time>2020-06-23T10:28:34Z</time>
      </trkpt>
      <trkpt lat="51.00141" lon="2.2488">
        <ele>2.7</ele>
        <time>2020-06-23T10:28:35Z</time>
      </trkpt>
      <trkpt lat="51.00142" lon="2.2488">
        <ele>2.7</ele>
        <time>2020-06-23T10:28:36Z</time>
      </trkpt>
      <trkpt lat="51.00143" lon="2.24879">
        <ele>2.8</ele>
        <time>2020-06-23T10:28:37Z</time>
      </trkpt>
      <trkpt lat="51.00144" lon="2.24879">
        <ele>2.8</ele>
        <time>2020-06-23T10:28:38Z</time>
      </trkpt>
      <trkpt lat="51.00144" lon="2.24879">
        <ele>2.8</ele>
        <time>2020-06-23T10:28:39Z</time>
      </trkpt>
      <trkpt lat="51.00145" lon="2.24878">
        <ele>2.8</ele>
        <time>2020-06-23T10:28:52Z</time>
      </trkpt>
      <trkpt lat="51.00146" lon="2.24878">
        <ele>2.8</ele>
        <time>2020-06-23T10:28:53Z</time>
      </trkpt>
      <trkpt lat="51.00148" lon="2.24874">
        <ele>2.8</ele>
        <time>2020-06-23T10:28:54Z</time>
      </trkpt>
      <trkpt lat="51.00151" lon="2.24872">
        <ele>2.8</ele>
        <time>2020-06-23T10:28:55Z</time>
      </trkpt>
      <trkpt lat="51.00153" lon="2.24872">
        <ele>2.8</ele>
        <time>2020-06-23T10:28:56Z</time>
      </trkpt>
      <trkpt lat="51.00155" lon="2.24871">
        <ele>2.8</ele>
        <time>2020-06-23T10:28:57Z</time>
      </trkpt>
      <trkpt lat="51.00159" lon="2.24867">
        <ele>2.8</ele>
        <time>2020-06-23T10:28:58Z</time>
      </trkpt>
      <trkpt lat="51.0016" lon="2.24865">
        <ele>2.8</ele>
        <time>2020-06-23T10:28:59Z</time>
      </trkpt>
      <trkpt lat="51.00163" lon="2.24861">
        <ele>2.8</ele>
        <time>2020-06-23T10:29:00Z</time>
      </trkpt>
      <trkpt lat="51.00164" lon="2.2486">
        <ele>2.8</ele>
        <time>2020-06-23T10:29:01Z</time>
      </trkpt>
      <trkpt lat="51.00166" lon="2.24856">
        <ele>2.8</ele>
        <time>2020-06-23T10:29:02Z</time>
      </trkpt>
      <trkpt lat="51.00167" lon="2.24856">
        <ele>2.8</ele>
        <time>2020-06-23T10:29:03Z</time>
      </trkpt>
      <trkpt lat="51.0017" lon="2.24853">
        <ele>2.8</ele>
        <time>2020-06-23T10:29:04Z</time>
      </trkpt>
      <trkpt lat="51.00171" lon="2.24852">
        <ele>2.8</ele>
        <time>2020-06-23T10:29:05Z</time>
      </trkpt>
      <trkpt lat="51.00173" lon="2.24849">
        <ele>2.8</ele>
        <time>2020-06-23T10:29:06Z</time>
      </trkpt>
      <trkpt lat="51.00174" lon="2.24847">
        <ele>2.8</ele>
        <time>2020-06-23T10:29:07Z</time>
      </trkpt>
      <trkpt lat="51.00177" lon="2.24844">
        <ele>2.8</ele>
        <time>2020-06-23T10:29:08Z</time>
      </trkpt>
      <trkpt lat="51.00179" lon="2.24841">
        <ele>2.7</ele>
        <time>2020-06-23T10:29:09Z</time>
      </trkpt>
      <trkpt lat="51.00182" lon="2.24839">
        <ele>2.7</ele>
        <time>2020-06-23T10:29:10Z</time>
      </trkpt>
      <trkpt lat="51.00184" lon="2.24842">
        <ele>2.7</ele>
        <time>2020-06-23T10:29:11Z</time>
      </trkpt>
      <trkpt lat="51.00186" lon="2.24845">
        <ele>2.7</ele>
        <time>2020-06-23T10:29:12Z</time>
      </trkpt>
      <trkpt lat="51.00188" lon="2.2485">
        <ele>2.7</ele>
        <time>2020-06-23T10:29:13Z</time>
      </trkpt>
      <trkpt lat="51.00188" lon="2.24852">
        <ele>2.7</ele>
        <time>2020-06-23T10:29:14Z</time>
      </trkpt>
      <trkpt lat="51.00189" lon="2.24855">
        <ele>2.7</ele>
        <time>2020-06-23T10:29:15Z</time>
      </trkpt>
      <trkpt lat="51.00189" lon="2.24857">
        <ele>2.7</ele>
        <time>2020-06-23T10:29:16Z</time>
      </trkpt>
      <trkpt lat="51.0019" lon="2.24862">
        <ele>2.7</ele>
        <time>2020-06-23T10:29:17Z</time>
      </trkpt>
      <trkpt lat="51.0019" lon="2.24863">
        <ele>2.7</ele>
        <time>2020-06-23T10:29:18Z</time>
      </trkpt>
      <trkpt lat="51.00191" lon="2.24869">
        <ele>2.7</ele>
        <time>2020-06-23T10:29:19Z</time>
      </trkpt>
      <trkpt lat="51.00192" lon="2.24871">
        <ele>2.7</ele>
        <time>2020-06-23T10:29:20Z</time>
      </trkpt>
      <trkpt lat="51.00192" lon="2.24875">
        <ele>2.7</ele>
        <time>2020-06-23T10:29:21Z</time>
      </trkpt>
      <trkpt lat="51.00195" lon="2.2488">
        <ele>2.8</ele>
        <time>2020-06-23T10:29:22Z</time>
      </trkpt>
      <trkpt lat="51.00196" lon="2.24881">
        <ele>2.8</ele>
        <time>2020-06-23T10:29:23Z</time>
      </trkpt>
      <trkpt lat="51.00198" lon="2.24884">
        <ele>2.8</ele>
        <time>2020-06-23T10:29:24Z</time>
      </trkpt>
      <trkpt lat="51.00199" lon="2.24888">
        <ele>2.8</ele>
        <time>2020-06-23T10:29:25Z</time>
      </trkpt>
      <trkpt lat="51.00202" lon="2.2489">
        <ele>2.8</ele>
        <time>2020-06-23T10:29:26Z</time>
      </trkpt>
      <trkpt lat="51.00204" lon="2.24894">
        <ele>2.8</ele>
        <time>2020-06-23T10:29:27Z</time>
      </trkpt>
      <trkpt lat="51.00207" lon="2.24897">
        <ele>2.8</ele>
        <time>2020-06-23T10:29:28Z</time>
      </trkpt>
      <trkpt lat="51.00208" lon="2.24898">
        <ele>2.8</ele>
        <time>2020-06-23T10:29:29Z</time>
      </trkpt>
      <trkpt lat="51.0021" lon="2.24902">
        <ele>2.8</ele>
        <time>2020-06-23T10:29:30Z</time>
      </trkpt>
      <trkpt lat="51.00212" lon="2.24906">
        <ele>2.8</ele>
        <time>2020-06-23T10:29:31Z</time>
      </trkpt>
      <trkpt lat="51.00214" lon="2.2491">
        <ele>2.9</ele>
        <time>2020-06-23T10:29:32Z</time>
      </trkpt>
      <trkpt lat="51.00216" lon="2.24916">
        <ele>3</ele>
        <time>2020-06-23T10:29:33Z</time>
      </trkpt>
      <trkpt lat="51.00216" lon="2.24923">
        <ele>3</ele>
        <time>2020-06-23T10:29:34Z</time>
      </trkpt>
      <trkpt lat="51.00215" lon="2.24931">
        <ele>2.9</ele>
        <time>2020-06-23T10:29:35Z</time>
      </trkpt>
      <trkpt lat="51.00216" lon="2.24938">
        <ele>2.9</ele>
        <time>2020-06-23T10:29:36Z</time>
      </trkpt>
      <trkpt lat="51.00218" lon="2.24946">
        <ele>2.9</ele>
        <time>2020-06-23T10:29:37Z</time>
      </trkpt>
      <trkpt lat="51.00219" lon="2.24954">
        <ele>2.9</ele>
        <time>2020-06-23T10:29:38Z</time>
      </trkpt>
      <trkpt lat="51.00221" lon="2.24961">
        <ele>2.9</ele>
        <time>2020-06-23T10:29:39Z</time>
      </trkpt>
      <trkpt lat="51.00223" lon="2.24968">
        <ele>3</ele>
        <time>2020-06-23T10:29:40Z</time>
      </trkpt>
      <trkpt lat="51.00224" lon="2.24976">
        <ele>3</ele>
        <time>2020-06-23T10:29:41Z</time>
      </trkpt>
      <trkpt lat="51.00226" lon="2.24983">
        <ele>3</ele>
        <time>2020-06-23T10:29:42Z</time>
      </trkpt>
      <trkpt lat="51.00228" lon="2.2499">
        <ele>3.1</ele>
        <time>2020-06-23T10:29:43Z</time>
      </trkpt>
      <trkpt lat="51.0023" lon="2.24998">
        <ele>3.1</ele>
        <time>2020-06-23T10:29:44Z</time>
      </trkpt>
      <trkpt lat="51.00231" lon="2.25005">
        <ele>3.2</ele>
        <time>2020-06-23T10:29:45Z</time>
      </trkpt>
      <trkpt lat="51.00232" lon="2.25013">
        <ele>3.3</ele>
        <time>2020-06-23T10:29:46Z</time>
      </trkpt>
      <trkpt lat="51.00233" lon="2.25021">
        <ele>3.4</ele>
        <time>2020-06-23T10:29:47Z</time>
      </trkpt>
      <trkpt lat="51.00234" lon="2.2503">
        <ele>3.6</ele>
        <time>2020-06-23T10:29:48Z</time>
      </trkpt>
      <trkpt lat="51.00235" lon="2.25039">
        <ele>3.7</ele>
        <time>2020-06-23T10:29:49Z</time>
      </trkpt>
      <trkpt lat="51.00236" lon="2.25048">
        <ele>3.8</ele>
        <time>2020-06-23T10:29:50Z</time>
      </trkpt>
      <trkpt lat="51.00238" lon="2.25056">
        <ele>4</ele>
        <time>2020-06-23T10:29:51Z</time>
      </trkpt>
      <trkpt lat="51.00239" lon="2.25064">
        <ele>4.1</ele>
        <time>2020-06-23T10:29:52Z</time>
      </trkpt>
      <trkpt lat="51.00241" lon="2.25071">
        <ele>4.2</ele>
        <time>2020-06-23T10:29:53Z</time>
      </trkpt>
      <trkpt lat="51.00242" lon="2.25078">
        <ele>4.4</ele>
        <time>2020-06-23T10:29:54Z</time>
      </trkpt>
      <trkpt lat="51.00242" lon="2.25084">
        <ele>4.5</ele>
        <time>2020-06-23T10:29:55Z</time>
      </trkpt>
      <trkpt lat="51.00243" lon="2.2509">
        <ele>4.6</ele>
        <time>2020-06-23T10:29:56Z</time>
      </trkpt>
      <trkpt lat="51.00244" lon="2.25097">
        <ele>4.7</ele>
        <time>2020-06-23T10:29:57Z</time>
      </trkpt>
      <trkpt lat="51.00245" lon="2.25106">
        <ele>4.9</ele>
        <time>2020-06-23T10:29:58Z</time>
      </trkpt>
      <trkpt lat="51.00247" lon="2.25113">
        <ele>5</ele>
        <time>2020-06-23T10:29:59Z</time>
      </trkpt>
      <trkpt lat="51.00248" lon="2.25119">
        <ele>5.1</ele>
        <time>2020-06-23T10:30:00Z</time>
      </trkpt>
      <trkpt lat="51.0025" lon="2.2513">
        <ele>5.3</ele>
        <time>2020-06-23T10:30:01Z</time>
      </trkpt>
      <trkpt lat="51.00251" lon="2.25135">
        <ele>5.4</ele>
        <time>2020-06-23T10:30:02Z</time>
      </trkpt>
      <trkpt lat="51.00252" lon="2.25142">
        <ele>5.5</ele>
        <time>2020-06-23T10:30:03Z</time>
      </trkpt>
      <trkpt lat="51.00253" lon="2.25149">
        <ele>5.6</ele>
        <time>2020-06-23T10:30:04Z</time>
      </trkpt>
      <trkpt lat="51.00255" lon="2.25156">
        <ele>5.7</ele>
        <time>2020-06-23T10:30:05Z</time>
      </trkpt>
      <trkpt lat="51.00256" lon="2.25164">
        <ele>5.8</ele>
        <time>2020-06-23T10:30:06Z</time>
      </trkpt>
      <trkpt lat="51.00258" lon="2.25172">
        <ele>6</ele>
        <time>2020-06-23T10:30:07Z</time>
      </trkpt>
      <trkpt lat="51.0026" lon="2.25179">
        <ele>6.1</ele>
        <time>2020-06-23T10:30:08Z</time>
      </trkpt>
      <trkpt lat="51.00262" lon="2.25188">
        <ele>6.2</ele>
        <time>2020-06-23T10:30:09Z</time>
      </trkpt>
      <trkpt lat="51.00263" lon="2.25194">
        <ele>6.4</ele>
        <time>2020-06-23T10:30:10Z</time>
      </trkpt>
      <trkpt lat="51.00265" lon="2.25202">
        <ele>6.5</ele>
        <time>2020-06-23T10:30:11Z</time>
      </trkpt>
      <trkpt lat="51.00266" lon="2.2521">
        <ele>6.6</ele>
        <time>2020-06-23T10:30:12Z</time>
      </trkpt>
      <trkpt lat="51.00268" lon="2.25218">
        <ele>6.7</ele>
        <time>2020-06-23T10:30:13Z</time>
      </trkpt>
      <trkpt lat="51.00269" lon="2.25225">
        <ele>6.8</ele>
        <time>2020-06-23T10:30:14Z</time>
      </trkpt>
      <trkpt lat="51.00271" lon="2.25233">
        <ele>6.9</ele>
        <time>2020-06-23T10:30:15Z</time>
      </trkpt>
      <trkpt lat="51.00272" lon="2.25241">
        <ele>7</ele>
        <time>2020-06-23T10:30:16Z</time>
      </trkpt>
      <trkpt lat="51.00274" lon="2.2525">
        <ele>7.1</ele>
        <time>2020-06-23T10:30:17Z</time>
      </trkpt>
      <trkpt lat="51.00276" lon="2.25258">
        <ele>7.2</ele>
        <time>2020-06-23T10:30:18Z</time>
      </trkpt>
      <trkpt lat="51.00277" lon="2.25265">
        <ele>7.2</ele>
        <time>2020-06-23T10:30:19Z</time>
      </trkpt>
      <trkpt lat="51.00278" lon="2.25272">
        <ele>7.3</ele>
        <time>2020-06-23T10:30:20Z</time>
      </trkpt>
      <trkpt lat="51.00279" lon="2.2528">
        <ele>7.4</ele>
        <time>2020-06-23T10:30:21Z</time>
      </trkpt>
      <trkpt lat="51.00281" lon="2.25289">
        <ele>7.5</ele>
        <time>2020-06-23T10:30:22Z</time>
      </trkpt>
      <trkpt lat="51.00282" lon="2.25296">
        <ele>7.5</ele>
        <time>2020-06-23T10:30:23Z</time>
      </trkpt>
      <trkpt lat="51.00284" lon="2.25304">
        <ele>7.6</ele>
        <time>2020-06-23T10:30:24Z</time>
      </trkpt>
      <trkpt lat="51.00285" lon="2.25312">
        <ele>7.7</ele>
        <time>2020-06-23T10:30:25Z</time>
      </trkpt>
      <trkpt lat="51.00286" lon="2.25318">
        <ele>7.7</ele>
        <time>2020-06-23T10:30:26Z</time>
      </trkpt>
      <trkpt lat="51.00287" lon="2.25326">
        <ele>7.8</ele>
        <time>2020-06-23T10:30:27Z</time>
      </trkpt>
      <trkpt lat="51.00288" lon="2.25333">
        <ele>7.8</ele>
        <time>2020-06-23T10:30:28Z</time>
      </trkpt>
      <trkpt lat="51.0029" lon="2.25341">
        <ele>7.9</ele>
        <time>2020-06-23T10:30:29Z</time>
      </trkpt>
      <trkpt lat="51.00291" lon="2.25349">
        <ele>8</ele>
        <time>2020-06-23T10:30:30Z</time>
      </trkpt>
      <trkpt lat="51.00293" lon="2.25357">
        <ele>8</ele>
        <time>2020-06-23T10:30:31Z</time>
      </trkpt>
      <trkpt lat="51.00294" lon="2.25365">
        <ele>8.1</ele>
        <time>2020-06-23T10:30:32Z</time>
      </trkpt>
      <trkpt lat="51.00295" lon="2.25373">
        <ele>8.1</ele>
        <time>2020-06-23T10:30:33Z</time>
      </trkpt>
      <trkpt lat="51.00296" lon="2.2538">
        <ele>8.1</ele>
        <time>2020-06-23T10:30:34Z</time>
      </trkpt>
      <trkpt lat="51.00297" lon="2.25387">
        <ele>8.2</ele>
        <time>2020-06-23T10:30:35Z</time>
      </trkpt>
      <trkpt lat="51.00298" lon="2.25394">
        <ele>8.2</ele>
        <time>2020-06-23T10:30:36Z</time>
      </trkpt>
      <trkpt lat="51.00299" lon="2.25401">
        <ele>8.2</ele>
        <time>2020-06-23T10:30:37Z</time>
      </trkpt>
      <trkpt lat="51.00299" lon="2.25409">
        <ele>8.2</ele>
        <time>2020-06-23T10:30:38Z</time>
      </trkpt>
      <trkpt lat="51.003" lon="2.25417">
        <ele>8.3</ele>
        <time>2020-06-23T10:30:39Z</time>
      </trkpt>
      <trkpt lat="51.00302" lon="2.25426">
        <ele>8.3</ele>
        <time>2020-06-23T10:30:40Z</time>
      </trkpt>
      <trkpt lat="51.00302" lon="2.25434">
        <ele>8.3</ele>
        <time>2020-06-23T10:30:41Z</time>
      </trkpt>
      <trkpt lat="51.00303" lon="2.25443">
        <ele>8.4</ele>
        <time>2020-06-23T10:30:42Z</time>
      </trkpt>
      <trkpt lat="51.00304" lon="2.25451">
        <ele>8.4</ele>
        <time>2020-06-23T10:30:43Z</time>
      </trkpt>
      <trkpt lat="51.00305" lon="2.25459">
        <ele>8.5</ele>
        <time>2020-06-23T10:30:44Z</time>
      </trkpt>
      <trkpt lat="51.00306" lon="2.25468">
        <ele>8.5</ele>
        <time>2020-06-23T10:30:45Z</time>
      </trkpt>
      <trkpt lat="51.00307" lon="2.25476">
        <ele>8.5</ele>
        <time>2020-06-23T10:30:46Z</time>
      </trkpt>
      <trkpt lat="51.00309" lon="2.25485">
        <ele>8.5</ele>
        <time>2020-06-23T10:30:47Z</time>
      </trkpt>
      <trkpt lat="51.0031" lon="2.25494">
        <ele>8.5</ele>
        <time>2020-06-23T10:30:48Z</time>
      </trkpt>
      <trkpt lat="51.00311" lon="2.25503">
        <ele>8.5</ele>
        <time>2020-06-23T10:30:49Z</time>
      </trkpt>
      <trkpt lat="51.00312" lon="2.25512">
        <ele>8.5</ele>
        <time>2020-06-23T10:30:50Z</time>
      </trkpt>
      <trkpt lat="51.00313" lon="2.2552">
        <ele>8.4</ele>
        <time>2020-06-23T10:30:51Z</time>
      </trkpt>
      <trkpt lat="51.00314" lon="2.25529">
        <ele>8.4</ele>
        <time>2020-06-23T10:30:52Z</time>
      </trkpt>
      <trkpt lat="51.00315" lon="2.25538">
        <ele>8.3</ele>
        <time>2020-06-23T10:30:53Z</time>
      </trkpt>
      <trkpt lat="51.00316" lon="2.25547">
        <ele>8.3</ele>
        <time>2020-06-23T10:30:54Z</time>
      </trkpt>
      <trkpt lat="51.00318" lon="2.25557">
        <ele>8.3</ele>
        <time>2020-06-23T10:30:55Z</time>
      </trkpt>
      <trkpt lat="51.00319" lon="2.25566">
        <ele>8.3</ele>
        <time>2020-06-23T10:30:56Z</time>
      </trkpt>
      <trkpt lat="51.00321" lon="2.25576">
        <ele>8.3</ele>
        <time>2020-06-23T10:30:57Z</time>
      </trkpt>
      <trkpt lat="51.00322" lon="2.25586">
        <ele>8.2</ele>
        <time>2020-06-23T10:30:58Z</time>
      </trkpt>
      <trkpt lat="51.00323" lon="2.25595">
        <ele>8.2</ele>
        <time>2020-06-23T10:30:59Z</time>
      </trkpt>
      <trkpt lat="51.00325" lon="2.25604">
        <ele>8.2</ele>
        <time>2020-06-23T10:31:00Z</time>
      </trkpt>
      <trkpt lat="51.00326" lon="2.25613">
        <ele>8.2</ele>
        <time>2020-06-23T10:31:01Z</time>
      </trkpt>
      <trkpt lat="51.00327" lon="2.25621">
        <ele>8.1</ele>
        <time>2020-06-23T10:31:02Z</time>
      </trkpt>
      <trkpt lat="51.00328" lon="2.2563">
        <ele>8.1</ele>
        <time>2020-06-23T10:31:03Z</time>
      </trkpt>
      <trkpt lat="51.00329" lon="2.2564">
        <ele>8.1</ele>
        <time>2020-06-23T10:31:04Z</time>
      </trkpt>
      <trkpt lat="51.0033" lon="2.2565">
        <ele>8.1</ele>
        <time>2020-06-23T10:31:05Z</time>
      </trkpt>
      <trkpt lat="51.00331" lon="2.25659">
        <ele>8.1</ele>
        <time>2020-06-23T10:31:06Z</time>
      </trkpt>
      <trkpt lat="51.00332" lon="2.2567">
        <ele>8.1</ele>
        <time>2020-06-23T10:31:07Z</time>
      </trkpt>
      <trkpt lat="51.00333" lon="2.25681">
        <ele>8</ele>
        <time>2020-06-23T10:31:08Z</time>
      </trkpt>
      <trkpt lat="51.00335" lon="2.25691">
        <ele>8</ele>
        <time>2020-06-23T10:31:09Z</time>
      </trkpt>
      <trkpt lat="51.00336" lon="2.25702">
        <ele>8</ele>
        <time>2020-06-23T10:31:10Z</time>
      </trkpt>
      <trkpt lat="51.00337" lon="2.25712">
        <ele>8</ele>
        <time>2020-06-23T10:31:11Z</time>
      </trkpt>
      <trkpt lat="51.00338" lon="2.2572">
        <ele>8</ele>
        <time>2020-06-23T10:31:12Z</time>
      </trkpt>
      <trkpt lat="51.00339" lon="2.2573">
        <ele>8</ele>
        <time>2020-06-23T10:31:13Z</time>
      </trkpt>
      <trkpt lat="51.0034" lon="2.2574">
        <ele>7.9</ele>
        <time>2020-06-23T10:31:14Z</time>
      </trkpt>
      <trkpt lat="51.00341" lon="2.2575">
        <ele>7.9</ele>
        <time>2020-06-23T10:31:15Z</time>
      </trkpt>
      <trkpt lat="51.00342" lon="2.25759">
        <ele>7.9</ele>
        <time>2020-06-23T10:31:16Z</time>
      </trkpt>
      <trkpt lat="51.00343" lon="2.25769">
        <ele>7.9</ele>
        <time>2020-06-23T10:31:17Z</time>
      </trkpt>
      <trkpt lat="51.00344" lon="2.2578">
        <ele>7.9</ele>
        <time>2020-06-23T10:31:18Z</time>
      </trkpt>
      <trkpt lat="51.00346" lon="2.25789">
        <ele>7.9</ele>
        <time>2020-06-23T10:31:19Z</time>
      </trkpt>
      <trkpt lat="51.00347" lon="2.25799">
        <ele>7.9</ele>
        <time>2020-06-23T10:31:20Z</time>
      </trkpt>
      <trkpt lat="51.00348" lon="2.2581">
        <ele>7.9</ele>
        <time>2020-06-23T10:31:21Z</time>
      </trkpt>
      <trkpt lat="51.00349" lon="2.2582">
        <ele>7.8</ele>
        <time>2020-06-23T10:31:22Z</time>
      </trkpt>
      <trkpt lat="51.00351" lon="2.2583">
        <ele>7.8</ele>
        <time>2020-06-23T10:31:23Z</time>
      </trkpt>
      <trkpt lat="51.00352" lon="2.25841">
        <ele>7.8</ele>
        <time>2020-06-23T10:31:24Z</time>
      </trkpt>
      <trkpt lat="51.00353" lon="2.25851">
        <ele>7.8</ele>
        <time>2020-06-23T10:31:25Z</time>
      </trkpt>
      <trkpt lat="51.00354" lon="2.25862">
        <ele>7.7</ele>
        <time>2020-06-23T10:31:26Z</time>
      </trkpt>
      <trkpt lat="51.00356" lon="2.25872">
        <ele>7.7</ele>
        <time>2020-06-23T10:31:27Z</time>
      </trkpt>
      <trkpt lat="51.00357" lon="2.25882">
        <ele>7.6</ele>
        <time>2020-06-23T10:31:28Z</time>
      </trkpt>
      <trkpt lat="51.00358" lon="2.25892">
        <ele>7.6</ele>
        <time>2020-06-23T10:31:29Z</time>
      </trkpt>
      <trkpt lat="51.00359" lon="2.25902">
        <ele>7.6</ele>
        <time>2020-06-23T10:31:30Z</time>
      </trkpt>
      <trkpt lat="51.0036" lon="2.25912">
        <ele>7.5</ele>
        <time>2020-06-23T10:31:31Z</time>
      </trkpt>
      <trkpt lat="51.00361" lon="2.25921">
        <ele>7.5</ele>
        <time>2020-06-23T10:31:32Z</time>
      </trkpt>
      <trkpt lat="51.00362" lon="2.25931">
        <ele>7.5</ele>
        <time>2020-06-23T10:31:33Z</time>
      </trkpt>
      <trkpt lat="51.00364" lon="2.25941">
        <ele>7.4</ele>
        <time>2020-06-23T10:31:34Z</time>
      </trkpt>
      <trkpt lat="51.00364" lon="2.25951">
        <ele>7.4</ele>
        <time>2020-06-23T10:31:35Z</time>
      </trkpt>
      <trkpt lat="51.00366" lon="2.25963">
        <ele>7.3</ele>
        <time>2020-06-23T10:31:36Z</time>
      </trkpt>
      <trkpt lat="51.00367" lon="2.25974">
        <ele>7.3</ele>
        <time>2020-06-23T10:31:37Z</time>
      </trkpt>
      <trkpt lat="51.00368" lon="2.25985">
        <ele>7.3</ele>
        <time>2020-06-23T10:31:38Z</time>
      </trkpt>
      <trkpt lat="51.0037" lon="2.25996">
        <ele>7.3</ele>
        <time>2020-06-23T10:31:39Z</time>
      </trkpt>
      <trkpt lat="51.00371" lon="2.26007">
        <ele>7.3</ele>
        <time>2020-06-23T10:31:40Z</time>
      </trkpt>
      <trkpt lat="51.00372" lon="2.26017">
        <ele>7.3</ele>
        <time>2020-06-23T10:31:41Z</time>
      </trkpt>
      <trkpt lat="51.00373" lon="2.26027">
        <ele>7.3</ele>
        <time>2020-06-23T10:31:42Z</time>
      </trkpt>
      <trkpt lat="51.00374" lon="2.26036">
        <ele>7.3</ele>
        <time>2020-06-23T10:31:43Z</time>
      </trkpt>
      <trkpt lat="51.00375" lon="2.26045">
        <ele>7.3</ele>
        <time>2020-06-23T10:31:44Z</time>
      </trkpt>
      <trkpt lat="51.00377" lon="2.26055">
        <ele>7.3</ele>
        <time>2020-06-23T10:31:45Z</time>
      </trkpt>
      <trkpt lat="51.00377" lon="2.26065">
        <ele>7.3</ele>
        <time>2020-06-23T10:31:46Z</time>
      </trkpt>
      <trkpt lat="51.00378" lon="2.26074">
        <ele>7.3</ele>
        <time>2020-06-23T10:31:47Z</time>
      </trkpt>
      <trkpt lat="51.00379" lon="2.26083">
        <ele>7.3</ele>
        <time>2020-06-23T10:31:48Z</time>
      </trkpt>
      <trkpt lat="51.0038" lon="2.26093">
        <ele>7.3</ele>
        <time>2020-06-23T10:31:49Z</time>
      </trkpt>
      <trkpt lat="51.00382" lon="2.26103">
        <ele>7.3</ele>
        <time>2020-06-23T10:31:50Z</time>
      </trkpt>
      <trkpt lat="51.00383" lon="2.26111">
        <ele>7.3</ele>
        <time>2020-06-23T10:31:51Z</time>
      </trkpt>
      <trkpt lat="51.00384" lon="2.26121">
        <ele>7.3</ele>
        <time>2020-06-23T10:31:52Z</time>
      </trkpt>
      <trkpt lat="51.00386" lon="2.26131">
        <ele>7.3</ele>
        <time>2020-06-23T10:31:53Z</time>
      </trkpt>
      <trkpt lat="51.00387" lon="2.26141">
        <ele>7.3</ele>
        <time>2020-06-23T10:31:54Z</time>
      </trkpt>
      <trkpt lat="51.00389" lon="2.2615">
        <ele>7.3</ele>
        <time>2020-06-23T10:31:55Z</time>
      </trkpt>
      <trkpt lat="51.00391" lon="2.26159">
        <ele>7.3</ele>
        <time>2020-06-23T10:31:56Z</time>
      </trkpt>
      <trkpt lat="51.00392" lon="2.26168">
        <ele>7.3</ele>
        <time>2020-06-23T10:31:57Z</time>
      </trkpt>
      <trkpt lat="51.00394" lon="2.26178">
        <ele>7.2</ele>
        <time>2020-06-23T10:31:58Z</time>
      </trkpt>
      <trkpt lat="51.00395" lon="2.26187">
        <ele>7.2</ele>
        <time>2020-06-23T10:31:59Z</time>
      </trkpt>
      <trkpt lat="51.00397" lon="2.26198">
        <ele>7.3</ele>
        <time>2020-06-23T10:32:00Z</time>
      </trkpt>
      <trkpt lat="51.00399" lon="2.26208">
        <ele>7.3</ele>
        <time>2020-06-23T10:32:01Z</time>
      </trkpt>
      <trkpt lat="51.00401" lon="2.26218">
        <ele>7.3</ele>
        <time>2020-06-23T10:32:02Z</time>
      </trkpt>
      <trkpt lat="51.00403" lon="2.26228">
        <ele>7.3</ele>
        <time>2020-06-23T10:32:03Z</time>
      </trkpt>
      <trkpt lat="51.00405" lon="2.26238">
        <ele>7.3</ele>
        <time>2020-06-23T10:32:04Z</time>
      </trkpt>
      <trkpt lat="51.00407" lon="2.26246">
        <ele>7.4</ele>
        <time>2020-06-23T10:32:05Z</time>
      </trkpt>
      <trkpt lat="51.00408" lon="2.26255">
        <ele>7.4</ele>
        <time>2020-06-23T10:32:06Z</time>
      </trkpt>
      <trkpt lat="51.0041" lon="2.26264">
        <ele>7.5</ele>
        <time>2020-06-23T10:32:07Z</time>
      </trkpt>
      <trkpt lat="51.00412" lon="2.26273">
        <ele>7.5</ele>
        <time>2020-06-23T10:32:08Z</time>
      </trkpt>
      <trkpt lat="51.00414" lon="2.26282">
        <ele>7.5</ele>
        <time>2020-06-23T10:32:09Z</time>
      </trkpt>
      <trkpt lat="51.00416" lon="2.26291">
        <ele>7.6</ele>
        <time>2020-06-23T10:32:10Z</time>
      </trkpt>
      <trkpt lat="51.00417" lon="2.26301">
        <ele>7.6</ele>
        <time>2020-06-23T10:32:11Z</time>
      </trkpt>
      <trkpt lat="51.00419" lon="2.2631">
        <ele>7.7</ele>
        <time>2020-06-23T10:32:12Z</time>
      </trkpt>
      <trkpt lat="51.0042" lon="2.26317">
        <ele>7.8</ele>
        <time>2020-06-23T10:32:13Z</time>
      </trkpt>
      <trkpt lat="51.00422" lon="2.26326">
        <ele>7.9</ele>
        <time>2020-06-23T10:32:14Z</time>
      </trkpt>
      <trkpt lat="51.00424" lon="2.26335">
        <ele>8</ele>
        <time>2020-06-23T10:32:15Z</time>
      </trkpt>
      <trkpt lat="51.00425" lon="2.26344">
        <ele>8.1</ele>
        <time>2020-06-23T10:32:16Z</time>
      </trkpt>
      <trkpt lat="51.00427" lon="2.26353">
        <ele>8.3</ele>
        <time>2020-06-23T10:32:17Z</time>
      </trkpt>
      <trkpt lat="51.00429" lon="2.26362">
        <ele>8.4</ele>
        <time>2020-06-23T10:32:18Z</time>
      </trkpt>
      <trkpt lat="51.0043" lon="2.26371">
        <ele>8.4</ele>
        <time>2020-06-23T10:32:19Z</time>
      </trkpt>
      <trkpt lat="51.00432" lon="2.26379">
        <ele>8.4</ele>
        <time>2020-06-23T10:32:20Z</time>
      </trkpt>
      <trkpt lat="51.00434" lon="2.26388">
        <ele>8.5</ele>
        <time>2020-06-23T10:32:21Z</time>
      </trkpt>
      <trkpt lat="51.00435" lon="2.26395">
        <ele>8.5</ele>
        <time>2020-06-23T10:32:22Z</time>
      </trkpt>
      <trkpt lat="51.00436" lon="2.26402">
        <ele>8.5</ele>
        <time>2020-06-23T10:32:23Z</time>
      </trkpt>
      <trkpt lat="51.00438" lon="2.2641">
        <ele>8.6</ele>
        <time>2020-06-23T10:32:24Z</time>
      </trkpt>
      <trkpt lat="51.00439" lon="2.26418">
        <ele>8.6</ele>
        <time>2020-06-23T10:32:25Z</time>
      </trkpt>
      <trkpt lat="51.00441" lon="2.26426">
        <ele>8.6</ele>
        <time>2020-06-23T10:32:26Z</time>
      </trkpt>
      <trkpt lat="51.00443" lon="2.26434">
        <ele>8.6</ele>
        <time>2020-06-23T10:32:27Z</time>
      </trkpt>
      <trkpt lat="51.00445" lon="2.26443">
        <ele>8.6</ele>
        <time>2020-06-23T10:32:28Z</time>
      </trkpt>
      <trkpt lat="51.00447" lon="2.26451">
        <ele>8.6</ele>
        <time>2020-06-23T10:32:29Z</time>
      </trkpt>
      <trkpt lat="51.00449" lon="2.2646">
        <ele>8.6</ele>
        <time>2020-06-23T10:32:30Z</time>
      </trkpt>
      <trkpt lat="51.00451" lon="2.26469">
        <ele>8.5</ele>
        <time>2020-06-23T10:32:31Z</time>
      </trkpt>
      <trkpt lat="51.00452" lon="2.26479">
        <ele>8.5</ele>
        <time>2020-06-23T10:32:32Z</time>
      </trkpt>
      <trkpt lat="51.00454" lon="2.26488">
        <ele>8.4</ele>
        <time>2020-06-23T10:32:33Z</time>
      </trkpt>
      <trkpt lat="51.00456" lon="2.26496">
        <ele>8.4</ele>
        <time>2020-06-23T10:32:34Z</time>
      </trkpt>
      <trkpt lat="51.00458" lon="2.26505">
        <ele>8.3</ele>
        <time>2020-06-23T10:32:35Z</time>
      </trkpt>
      <trkpt lat="51.0046" lon="2.26515">
        <ele>8.3</ele>
        <time>2020-06-23T10:32:36Z</time>
      </trkpt>
      <trkpt lat="51.00462" lon="2.26524">
        <ele>8.3</ele>
        <time>2020-06-23T10:32:37Z</time>
      </trkpt>
      <trkpt lat="51.00464" lon="2.26534">
        <ele>8.2</ele>
        <time>2020-06-23T10:32:38Z</time>
      </trkpt>
      <trkpt lat="51.00466" lon="2.26544">
        <ele>8.2</ele>
        <time>2020-06-23T10:32:39Z</time>
      </trkpt>
      <trkpt lat="51.00468" lon="2.26554">
        <ele>8.1</ele>
        <time>2020-06-23T10:32:40Z</time>
      </trkpt>
      <trkpt lat="51.0047" lon="2.26564">
        <ele>8</ele>
        <time>2020-06-23T10:32:41Z</time>
      </trkpt>
      <trkpt lat="51.00472" lon="2.26573">
        <ele>7.9</ele>
        <time>2020-06-23T10:32:42Z</time>
      </trkpt>
      <trkpt lat="51.00474" lon="2.26582">
        <ele>7.8</ele>
        <time>2020-06-23T10:32:43Z</time>
      </trkpt>
      <trkpt lat="51.00476" lon="2.26592">
        <ele>7.7</ele>
        <time>2020-06-23T10:32:44Z</time>
      </trkpt>
      <trkpt lat="51.00478" lon="2.26601">
        <ele>7.7</ele>
        <time>2020-06-23T10:32:45Z</time>
      </trkpt>
      <trkpt lat="51.0048" lon="2.26611">
        <ele>7.6</ele>
        <time>2020-06-23T10:32:46Z</time>
      </trkpt>
      <trkpt lat="51.00482" lon="2.2662">
        <ele>7.5</ele>
        <time>2020-06-23T10:32:47Z</time>
      </trkpt>
      <trkpt lat="51.00484" lon="2.26629">
        <ele>7.5</ele>
        <time>2020-06-23T10:32:48Z</time>
      </trkpt>
      <trkpt lat="51.00486" lon="2.26638">
        <ele>7.4</ele>
        <time>2020-06-23T10:32:49Z</time>
      </trkpt>
      <trkpt lat="51.00488" lon="2.26647">
        <ele>7.4</ele>
        <time>2020-06-23T10:32:50Z</time>
      </trkpt>
      <trkpt lat="51.0049" lon="2.26657">
        <ele>7.1</ele>
        <time>2020-06-23T10:32:51Z</time>
      </trkpt>
      <trkpt lat="51.00491" lon="2.26667">
        <ele>6.9</ele>
        <time>2020-06-23T10:32:52Z</time>
      </trkpt>
      <trkpt lat="51.00494" lon="2.26678">
        <ele>6.7</ele>
        <time>2020-06-23T10:32:53Z</time>
      </trkpt>
      <trkpt lat="51.00496" lon="2.26689">
        <ele>6.5</ele>
        <time>2020-06-23T10:32:54Z</time>
      </trkpt>
      <trkpt lat="51.00499" lon="2.26701">
        <ele>6.2</ele>
        <time>2020-06-23T10:32:55Z</time>
      </trkpt>
      <trkpt lat="51.00501" lon="2.26711">
        <ele>6</ele>
        <time>2020-06-23T10:32:56Z</time>
      </trkpt>
      <trkpt lat="51.00504" lon="2.26721">
        <ele>5.7</ele>
        <time>2020-06-23T10:32:57Z</time>
      </trkpt>
      <trkpt lat="51.00506" lon="2.26731">
        <ele>5.5</ele>
        <time>2020-06-23T10:32:58Z</time>
      </trkpt>
      <trkpt lat="51.00509" lon="2.26742">
        <ele>5.3</ele>
        <time>2020-06-23T10:32:59Z</time>
      </trkpt>
      <trkpt lat="51.00511" lon="2.26754">
        <ele>5</ele>
        <time>2020-06-23T10:33:00Z</time>
      </trkpt>
      <trkpt lat="51.00514" lon="2.26766">
        <ele>4.7</ele>
        <time>2020-06-23T10:33:01Z</time>
      </trkpt>
      <trkpt lat="51.00516" lon="2.26777">
        <ele>4.5</ele>
        <time>2020-06-23T10:33:02Z</time>
      </trkpt>
      <trkpt lat="51.00519" lon="2.26788">
        <ele>4.2</ele>
        <time>2020-06-23T10:33:03Z</time>
      </trkpt>
      <trkpt lat="51.00522" lon="2.268">
        <ele>3.9</ele>
        <time>2020-06-23T10:33:04Z</time>
      </trkpt>
      <trkpt lat="51.00524" lon="2.26811">
        <ele>3.6</ele>
        <time>2020-06-23T10:33:05Z</time>
      </trkpt>
      <trkpt lat="51.00527" lon="2.26822">
        <ele>3.3</ele>
        <time>2020-06-23T10:33:06Z</time>
      </trkpt>
      <trkpt lat="51.0053" lon="2.26833">
        <ele>3.1</ele>
        <time>2020-06-23T10:33:07Z</time>
      </trkpt>
      <trkpt lat="51.00532" lon="2.26844">
        <ele>2.9</ele>
        <time>2020-06-23T10:33:08Z</time>
      </trkpt>
      <trkpt lat="51.00535" lon="2.26856">
        <ele>2.7</ele>
        <time>2020-06-23T10:33:09Z</time>
      </trkpt>
      <trkpt lat="51.00538" lon="2.26867">
        <ele>2.5</ele>
        <time>2020-06-23T10:33:10Z</time>
      </trkpt>
      <trkpt lat="51.00542" lon="2.26878">
        <ele>2.3</ele>
        <time>2020-06-23T10:33:11Z</time>
      </trkpt>
      <trkpt lat="51.00545" lon="2.26889">
        <ele>2.1</ele>
        <time>2020-06-23T10:33:12Z</time>
      </trkpt>
      <trkpt lat="51.00548" lon="2.269">
        <ele>1.9</ele>
        <time>2020-06-23T10:33:13Z</time>
      </trkpt>
      <trkpt lat="51.00551" lon="2.26911">
        <ele>1.8</ele>
        <time>2020-06-23T10:33:14Z</time>
      </trkpt>
      <trkpt lat="51.00554" lon="2.26922">
        <ele>1.7</ele>
        <time>2020-06-23T10:33:15Z</time>
      </trkpt>
      <trkpt lat="51.00557" lon="2.26932">
        <ele>1.7</ele>
        <time>2020-06-23T10:33:16Z</time>
      </trkpt>
      <trkpt lat="51.0056" lon="2.26943">
        <ele>1.6</ele>
        <time>2020-06-23T10:33:17Z</time>
      </trkpt>
      <trkpt lat="51.00563" lon="2.26953">
        <ele>1.6</ele>
        <time>2020-06-23T10:33:18Z</time>
      </trkpt>
      <trkpt lat="51.00566" lon="2.26963">
        <ele>1.6</ele>
        <time>2020-06-23T10:33:19Z</time>
      </trkpt>
      <trkpt lat="51.00569" lon="2.26972">
        <ele>1.6</ele>
        <time>2020-06-23T10:33:20Z</time>
      </trkpt>
      <trkpt lat="51.00571" lon="2.26982">
        <ele>1.6</ele>
        <time>2020-06-23T10:33:21Z</time>
      </trkpt>
      <trkpt lat="51.00573" lon="2.26991">
        <ele>1.6</ele>
        <time>2020-06-23T10:33:22Z</time>
      </trkpt>
      <trkpt lat="51.00576" lon="2.27">
        <ele>1.7</ele>
        <time>2020-06-23T10:33:23Z</time>
      </trkpt>
      <trkpt lat="51.00578" lon="2.27009">
        <ele>1.7</ele>
        <time>2020-06-23T10:33:24Z</time>
      </trkpt>
      <trkpt lat="51.0058" lon="2.27017">
        <ele>1.7</ele>
        <time>2020-06-23T10:33:25Z</time>
      </trkpt>
      <trkpt lat="51.00583" lon="2.27026">
        <ele>1.8</ele>
        <time>2020-06-23T10:33:26Z</time>
      </trkpt>
      <trkpt lat="51.00585" lon="2.27035">
        <ele>1.9</ele>
        <time>2020-06-23T10:33:27Z</time>
      </trkpt>
      <trkpt lat="51.00588" lon="2.27044">
        <ele>2</ele>
        <time>2020-06-23T10:33:28Z</time>
      </trkpt>
      <trkpt lat="51.00591" lon="2.27052">
        <ele>2.2</ele>
        <time>2020-06-23T10:33:29Z</time>
      </trkpt>
      <trkpt lat="51.00594" lon="2.2706">
        <ele>2.2</ele>
        <time>2020-06-23T10:33:30Z</time>
      </trkpt>
      <trkpt lat="51.00598" lon="2.27067">
        <ele>2.2</ele>
        <time>2020-06-23T10:33:31Z</time>
      </trkpt>
      <trkpt lat="51.00601" lon="2.27075">
        <ele>2.2</ele>
        <time>2020-06-23T10:33:32Z</time>
      </trkpt>
      <trkpt lat="51.00604" lon="2.27083">
        <ele>2.2</ele>
        <time>2020-06-23T10:33:33Z</time>
      </trkpt>
      <trkpt lat="51.00606" lon="2.27092">
        <ele>2.1</ele>
        <time>2020-06-23T10:33:34Z</time>
      </trkpt>
      <trkpt lat="51.00608" lon="2.27101">
        <ele>2.1</ele>
        <time>2020-06-23T10:33:35Z</time>
      </trkpt>
      <trkpt lat="51.0061" lon="2.2711">
        <ele>2.1</ele>
        <time>2020-06-23T10:33:36Z</time>
      </trkpt>
      <trkpt lat="51.00612" lon="2.27119">
        <ele>2</ele>
        <time>2020-06-23T10:33:37Z</time>
      </trkpt>
      <trkpt lat="51.00614" lon="2.27129">
        <ele>2</ele>
        <time>2020-06-23T10:33:38Z</time>
      </trkpt>
      <trkpt lat="51.00616" lon="2.27138">
        <ele>2</ele>
        <time>2020-06-23T10:33:39Z</time>
      </trkpt>
      <trkpt lat="51.00618" lon="2.27148">
        <ele>2</ele>
        <time>2020-06-23T10:33:40Z</time>
      </trkpt>
      <trkpt lat="51.0062" lon="2.27157">
        <ele>2</ele>
        <time>2020-06-23T10:33:41Z</time>
      </trkpt>
      <trkpt lat="51.00622" lon="2.27167">
        <ele>2</ele>
        <time>2020-06-23T10:33:42Z</time>
      </trkpt>
      <trkpt lat="51.00624" lon="2.27176">
        <ele>2</ele>
        <time>2020-06-23T10:33:43Z</time>
      </trkpt>
      <trkpt lat="51.00626" lon="2.27185">
        <ele>2</ele>
        <time>2020-06-23T10:33:44Z</time>
      </trkpt>
      <trkpt lat="51.00628" lon="2.27194">
        <ele>2</ele>
        <time>2020-06-23T10:33:45Z</time>
      </trkpt>
      <trkpt lat="51.0063" lon="2.27203">
        <ele>2.1</ele>
        <time>2020-06-23T10:33:46Z</time>
      </trkpt>
      <trkpt lat="51.00631" lon="2.27212">
        <ele>2.1</ele>
        <time>2020-06-23T10:33:47Z</time>
      </trkpt>
      <trkpt lat="51.00632" lon="2.27221">
        <ele>2.1</ele>
        <time>2020-06-23T10:33:48Z</time>
      </trkpt>
      <trkpt lat="51.00634" lon="2.27232">
        <ele>2.1</ele>
        <time>2020-06-23T10:33:49Z</time>
      </trkpt>
      <trkpt lat="51.00635" lon="2.27241">
        <ele>2.2</ele>
        <time>2020-06-23T10:33:50Z</time>
      </trkpt>
      <trkpt lat="51.00638" lon="2.27251">
        <ele>2.2</ele>
        <time>2020-06-23T10:33:51Z</time>
      </trkpt>
      <trkpt lat="51.0064" lon="2.27261">
        <ele>2.2</ele>
        <time>2020-06-23T10:33:52Z</time>
      </trkpt>
      <trkpt lat="51.00642" lon="2.27269">
        <ele>2.2</ele>
        <time>2020-06-23T10:33:53Z</time>
      </trkpt>
      <trkpt lat="51.00645" lon="2.27279">
        <ele>2.2</ele>
        <time>2020-06-23T10:33:54Z</time>
      </trkpt>
      <trkpt lat="51.00648" lon="2.27289">
        <ele>2.2</ele>
        <time>2020-06-23T10:33:55Z</time>
      </trkpt>
      <trkpt lat="51.00651" lon="2.27299">
        <ele>2.3</ele>
        <time>2020-06-23T10:33:56Z</time>
      </trkpt>
      <trkpt lat="51.00654" lon="2.27308">
        <ele>2.3</ele>
        <time>2020-06-23T10:33:57Z</time>
      </trkpt>
      <trkpt lat="51.00657" lon="2.27317">
        <ele>2.3</ele>
        <time>2020-06-23T10:33:58Z</time>
      </trkpt>
      <trkpt lat="51.0066" lon="2.27327">
        <ele>2.3</ele>
        <time>2020-06-23T10:33:59Z</time>
      </trkpt>
      <trkpt lat="51.00662" lon="2.27337">
        <ele>2.3</ele>
        <time>2020-06-23T10:34:00Z</time>
      </trkpt>
      <trkpt lat="51.00664" lon="2.27347">
        <ele>2.3</ele>
        <time>2020-06-23T10:34:01Z</time>
      </trkpt>
      <trkpt lat="51.00666" lon="2.27358">
        <ele>2.3</ele>
        <time>2020-06-23T10:34:02Z</time>
      </trkpt>
      <trkpt lat="51.00669" lon="2.27368">
        <ele>2.3</ele>
        <time>2020-06-23T10:34:03Z</time>
      </trkpt>
      <trkpt lat="51.00671" lon="2.27378">
        <ele>2.2</ele>
        <time>2020-06-23T10:34:04Z</time>
      </trkpt>
      <trkpt lat="51.00673" lon="2.27387">
        <ele>2.2</ele>
        <time>2020-06-23T10:34:05Z</time>
      </trkpt>
      <trkpt lat="51.00675" lon="2.27396">
        <ele>2.2</ele>
        <time>2020-06-23T10:34:06Z</time>
      </trkpt>
      <trkpt lat="51.00677" lon="2.27407">
        <ele>2.2</ele>
        <time>2020-06-23T10:34:07Z</time>
      </trkpt>
      <trkpt lat="51.0068" lon="2.27417">
        <ele>2.2</ele>
        <time>2020-06-23T10:34:08Z</time>
      </trkpt>
      <trkpt lat="51.00682" lon="2.27426">
        <ele>2.2</ele>
        <time>2020-06-23T10:34:09Z</time>
      </trkpt>
      <trkpt lat="51.00684" lon="2.27436">
        <ele>2.2</ele>
        <time>2020-06-23T10:34:10Z</time>
      </trkpt>
      <trkpt lat="51.00686" lon="2.27446">
        <ele>2.2</ele>
        <time>2020-06-23T10:34:11Z</time>
      </trkpt>
      <trkpt lat="51.00689" lon="2.27455">
        <ele>2.2</ele>
        <time>2020-06-23T10:34:12Z</time>
      </trkpt>
      <trkpt lat="51.00691" lon="2.27465">
        <ele>2.2</ele>
        <time>2020-06-23T10:34:13Z</time>
      </trkpt>
      <trkpt lat="51.00692" lon="2.27475">
        <ele>2.3</ele>
        <time>2020-06-23T10:34:14Z</time>
      </trkpt>
      <trkpt lat="51.00694" lon="2.27483">
        <ele>2.3</ele>
        <time>2020-06-23T10:34:15Z</time>
      </trkpt>
      <trkpt lat="51.00696" lon="2.27491">
        <ele>2.4</ele>
        <time>2020-06-23T10:34:16Z</time>
      </trkpt>
      <trkpt lat="51.00697" lon="2.27501">
        <ele>2.3</ele>
        <time>2020-06-23T10:34:17Z</time>
      </trkpt>
      <trkpt lat="51.007" lon="2.27511">
        <ele>2.2</ele>
        <time>2020-06-23T10:34:18Z</time>
      </trkpt>
      <trkpt lat="51.00702" lon="2.2752">
        <ele>2.2</ele>
        <time>2020-06-23T10:34:19Z</time>
      </trkpt>
      <trkpt lat="51.00704" lon="2.27529">
        <ele>2.2</ele>
        <time>2020-06-23T10:34:20Z</time>
      </trkpt>
      <trkpt lat="51.00707" lon="2.27538">
        <ele>2.2</ele>
        <time>2020-06-23T10:34:21Z</time>
      </trkpt>
      <trkpt lat="51.00709" lon="2.27546">
        <ele>2.2</ele>
        <time>2020-06-23T10:34:22Z</time>
      </trkpt>
      <trkpt lat="51.00711" lon="2.27556">
        <ele>2.2</ele>
        <time>2020-06-23T10:34:23Z</time>
      </trkpt>
      <trkpt lat="51.00713" lon="2.27563">
        <ele>2.2</ele>
        <time>2020-06-23T10:34:24Z</time>
      </trkpt>
      <trkpt lat="51.00715" lon="2.27574">
        <ele>2.2</ele>
        <time>2020-06-23T10:34:25Z</time>
      </trkpt>
      <trkpt lat="51.00718" lon="2.27584">
        <ele>2.2</ele>
        <time>2020-06-23T10:34:26Z</time>
      </trkpt>
      <trkpt lat="51.0072" lon="2.27595">
        <ele>2.2</ele>
        <time>2020-06-23T10:34:27Z</time>
      </trkpt>
      <trkpt lat="51.00723" lon="2.27605">
        <ele>2.2</ele>
        <time>2020-06-23T10:34:28Z</time>
      </trkpt>
      <trkpt lat="51.00725" lon="2.27615">
        <ele>2.2</ele>
        <time>2020-06-23T10:34:29Z</time>
      </trkpt>
      <trkpt lat="51.00727" lon="2.27624">
        <ele>2.2</ele>
        <time>2020-06-23T10:34:30Z</time>
      </trkpt>
      <trkpt lat="51.00729" lon="2.27635">
        <ele>2.2</ele>
        <time>2020-06-23T10:34:31Z</time>
      </trkpt>
      <trkpt lat="51.00732" lon="2.27646">
        <ele>2.2</ele>
        <time>2020-06-23T10:34:32Z</time>
      </trkpt>
      <trkpt lat="51.00734" lon="2.27657">
        <ele>2.2</ele>
        <time>2020-06-23T10:34:33Z</time>
      </trkpt>
      <trkpt lat="51.00737" lon="2.27667">
        <ele>2.3</ele>
        <time>2020-06-23T10:34:34Z</time>
      </trkpt>
      <trkpt lat="51.0074" lon="2.27678">
        <ele>2.3</ele>
        <time>2020-06-23T10:34:35Z</time>
      </trkpt>
      <trkpt lat="51.00742" lon="2.27687">
        <ele>2.4</ele>
        <time>2020-06-23T10:34:36Z</time>
      </trkpt>
      <trkpt lat="51.00744" lon="2.27697">
        <ele>2.5</ele>
        <time>2020-06-23T10:34:37Z</time>
      </trkpt>
      <trkpt lat="51.00747" lon="2.27706">
        <ele>2.4</ele>
        <time>2020-06-23T10:34:38Z</time>
      </trkpt>
      <trkpt lat="51.00749" lon="2.27715">
        <ele>2.3</ele>
        <time>2020-06-23T10:34:39Z</time>
      </trkpt>
      <trkpt lat="51.00752" lon="2.27725">
        <ele>2.2</ele>
        <time>2020-06-23T10:34:40Z</time>
      </trkpt>
      <trkpt lat="51.00754" lon="2.27735">
        <ele>2.2</ele>
        <time>2020-06-23T10:34:41Z</time>
      </trkpt>
      <trkpt lat="51.00756" lon="2.27745">
        <ele>2.2</ele>
        <time>2020-06-23T10:34:42Z</time>
      </trkpt>
      <trkpt lat="51.00759" lon="2.27754">
        <ele>2.1</ele>
        <time>2020-06-23T10:34:43Z</time>
      </trkpt>
      <trkpt lat="51.00761" lon="2.27765">
        <ele>2.1</ele>
        <time>2020-06-23T10:34:44Z</time>
      </trkpt>
      <trkpt lat="51.00763" lon="2.27775">
        <ele>2.1</ele>
        <time>2020-06-23T10:34:45Z</time>
      </trkpt>
      <trkpt lat="51.00765" lon="2.27785">
        <ele>2.1</ele>
        <time>2020-06-23T10:34:46Z</time>
      </trkpt>
      <trkpt lat="51.00767" lon="2.27796">
        <ele>2.1</ele>
        <time>2020-06-23T10:34:47Z</time>
      </trkpt>
      <trkpt lat="51.00769" lon="2.27806">
        <ele>2.1</ele>
        <time>2020-06-23T10:34:48Z</time>
      </trkpt>
      <trkpt lat="51.0077" lon="2.27816">
        <ele>2.1</ele>
        <time>2020-06-23T10:34:49Z</time>
      </trkpt>
      <trkpt lat="51.00772" lon="2.27827">
        <ele>2.2</ele>
        <time>2020-06-23T10:34:50Z</time>
      </trkpt>
      <trkpt lat="51.00774" lon="2.27837">
        <ele>2.2</ele>
        <time>2020-06-23T10:34:51Z</time>
      </trkpt>
      <trkpt lat="51.00776" lon="2.27848">
        <ele>2.3</ele>
        <time>2020-06-23T10:34:52Z</time>
      </trkpt>
      <trkpt lat="51.00778" lon="2.27858">
        <ele>2.3</ele>
        <time>2020-06-23T10:34:53Z</time>
      </trkpt>
      <trkpt lat="51.0078" lon="2.27868">
        <ele>2.4</ele>
        <time>2020-06-23T10:34:54Z</time>
      </trkpt>
      <trkpt lat="51.00782" lon="2.27878">
        <ele>2.4</ele>
        <time>2020-06-23T10:34:55Z</time>
      </trkpt>
      <trkpt lat="51.00783" lon="2.27888">
        <ele>2.5</ele>
        <time>2020-06-23T10:34:56Z</time>
      </trkpt>
      <trkpt lat="51.00785" lon="2.27898">
        <ele>2.5</ele>
        <time>2020-06-23T10:34:57Z</time>
      </trkpt>
      <trkpt lat="51.00787" lon="2.27908">
        <ele>2.5</ele>
        <time>2020-06-23T10:34:58Z</time>
      </trkpt>
      <trkpt lat="51.00789" lon="2.27918">
        <ele>2.5</ele>
        <time>2020-06-23T10:34:59Z</time>
      </trkpt>
      <trkpt lat="51.00791" lon="2.27928">
        <ele>2.5</ele>
        <time>2020-06-23T10:35:00Z</time>
      </trkpt>
      <trkpt lat="51.00793" lon="2.27937">
        <ele>2.5</ele>
        <time>2020-06-23T10:35:01Z</time>
      </trkpt>
      <trkpt lat="51.00795" lon="2.27947">
        <ele>2.5</ele>
        <time>2020-06-23T10:35:02Z</time>
      </trkpt>
      <trkpt lat="51.00796" lon="2.27956">
        <ele>2.5</ele>
        <time>2020-06-23T10:35:03Z</time>
      </trkpt>
      <trkpt lat="51.00798" lon="2.27965">
        <ele>2.6</ele>
        <time>2020-06-23T10:35:04Z</time>
      </trkpt>
      <trkpt lat="51.008" lon="2.27974">
        <ele>2.6</ele>
        <time>2020-06-23T10:35:05Z</time>
      </trkpt>
      <trkpt lat="51.00801" lon="2.27983">
        <ele>2.6</ele>
        <time>2020-06-23T10:35:06Z</time>
      </trkpt>
      <trkpt lat="51.00803" lon="2.27993">
        <ele>2.6</ele>
        <time>2020-06-23T10:35:07Z</time>
      </trkpt>
      <trkpt lat="51.00805" lon="2.28002">
        <ele>2.7</ele>
        <time>2020-06-23T10:35:08Z</time>
      </trkpt>
      <trkpt lat="51.00807" lon="2.28012">
        <ele>2.7</ele>
        <time>2020-06-23T10:35:09Z</time>
      </trkpt>
      <trkpt lat="51.0081" lon="2.2802">
        <ele>2.8</ele>
        <time>2020-06-23T10:35:10Z</time>
      </trkpt>
      <trkpt lat="51.00812" lon="2.2803">
        <ele>2.8</ele>
        <time>2020-06-23T10:35:11Z</time>
      </trkpt>
      <trkpt lat="51.00813" lon="2.28038">
        <ele>2.8</ele>
        <time>2020-06-23T10:35:12Z</time>
      </trkpt>
      <trkpt lat="51.00816" lon="2.28047">
        <ele>2.8</ele>
        <time>2020-06-23T10:35:13Z</time>
      </trkpt>
      <trkpt lat="51.00818" lon="2.28056">
        <ele>2.8</ele>
        <time>2020-06-23T10:35:14Z</time>
      </trkpt>
      <trkpt lat="51.0082" lon="2.28066">
        <ele>2.8</ele>
        <time>2020-06-23T10:35:15Z</time>
      </trkpt>
      <trkpt lat="51.00823" lon="2.28075">
        <ele>2.8</ele>
        <time>2020-06-23T10:35:16Z</time>
      </trkpt>
      <trkpt lat="51.00825" lon="2.28085">
        <ele>2.8</ele>
        <time>2020-06-23T10:35:17Z</time>
      </trkpt>
      <trkpt lat="51.00827" lon="2.28095">
        <ele>2.8</ele>
        <time>2020-06-23T10:35:18Z</time>
      </trkpt>
      <trkpt lat="51.0083" lon="2.28105">
        <ele>2.8</ele>
        <time>2020-06-23T10:35:19Z</time>
      </trkpt>
      <trkpt lat="51.00833" lon="2.28114">
        <ele>2.9</ele>
        <time>2020-06-23T10:35:20Z</time>
      </trkpt>
      <trkpt lat="51.00835" lon="2.28122">
        <ele>2.9</ele>
        <time>2020-06-23T10:35:21Z</time>
      </trkpt>
      <trkpt lat="51.00838" lon="2.2813">
        <ele>2.9</ele>
        <time>2020-06-23T10:35:22Z</time>
      </trkpt>
      <trkpt lat="51.0084" lon="2.28138">
        <ele>2.8</ele>
        <time>2020-06-23T10:35:23Z</time>
      </trkpt>
      <trkpt lat="51.00842" lon="2.28145">
        <ele>2.8</ele>
        <time>2020-06-23T10:35:24Z</time>
      </trkpt>
      <trkpt lat="51.00844" lon="2.28154">
        <ele>2.8</ele>
        <time>2020-06-23T10:35:25Z</time>
      </trkpt>
      <trkpt lat="51.00846" lon="2.28162">
        <ele>2.8</ele>
        <time>2020-06-23T10:35:26Z</time>
      </trkpt>
      <trkpt lat="51.00848" lon="2.28172">
        <ele>2.8</ele>
        <time>2020-06-23T10:35:27Z</time>
      </trkpt>
      <trkpt lat="51.00851" lon="2.2818">
        <ele>2.8</ele>
        <time>2020-06-23T10:35:28Z</time>
      </trkpt>
      <trkpt lat="51.00854" lon="2.2819">
        <ele>2.9</ele>
        <time>2020-06-23T10:35:29Z</time>
      </trkpt>
      <trkpt lat="51.00856" lon="2.28199">
        <ele>2.9</ele>
        <time>2020-06-23T10:35:30Z</time>
      </trkpt>
      <trkpt lat="51.00859" lon="2.28206">
        <ele>2.9</ele>
        <time>2020-06-23T10:35:31Z</time>
      </trkpt>
      <trkpt lat="51.00862" lon="2.28212">
        <ele>2.9</ele>
        <time>2020-06-23T10:35:32Z</time>
      </trkpt>
      <trkpt lat="51.00865" lon="2.28217">
        <ele>2.9</ele>
        <time>2020-06-23T10:35:33Z</time>
      </trkpt>
      <trkpt lat="51.00869" lon="2.28222">
        <ele>3</ele>
        <time>2020-06-23T10:35:34Z</time>
      </trkpt>
      <trkpt lat="51.00873" lon="2.28228">
        <ele>3</ele>
        <time>2020-06-23T10:35:35Z</time>
      </trkpt>
      <trkpt lat="51.00876" lon="2.28234">
        <ele>3</ele>
        <time>2020-06-23T10:35:36Z</time>
      </trkpt>
      <trkpt lat="51.0088" lon="2.28239">
        <ele>3</ele>
        <time>2020-06-23T10:35:37Z</time>
      </trkpt>
      <trkpt lat="51.00885" lon="2.28244">
        <ele>3</ele>
        <time>2020-06-23T10:35:38Z</time>
      </trkpt>
      <trkpt lat="51.00889" lon="2.28249">
        <ele>3</ele>
        <time>2020-06-23T10:35:39Z</time>
      </trkpt>
      <trkpt lat="51.00893" lon="2.28254">
        <ele>3</ele>
        <time>2020-06-23T10:35:40Z</time>
      </trkpt>
      <trkpt lat="51.00898" lon="2.2826">
        <ele>3.1</ele>
        <time>2020-06-23T10:35:41Z</time>
      </trkpt>
      <trkpt lat="51.00903" lon="2.28265">
        <ele>3.3</ele>
        <time>2020-06-23T10:35:42Z</time>
      </trkpt>
      <trkpt lat="51.00907" lon="2.2827">
        <ele>3.3</ele>
        <time>2020-06-23T10:35:43Z</time>
      </trkpt>
      <trkpt lat="51.00911" lon="2.28275">
        <ele>3.3</ele>
        <time>2020-06-23T10:35:44Z</time>
      </trkpt>
      <trkpt lat="51.00914" lon="2.2828">
        <ele>3.3</ele>
        <time>2020-06-23T10:35:45Z</time>
      </trkpt>
      <trkpt lat="51.00917" lon="2.28286">
        <ele>3.3</ele>
        <time>2020-06-23T10:35:46Z</time>
      </trkpt>
      <trkpt lat="51.0092" lon="2.28292">
        <ele>3.4</ele>
        <time>2020-06-23T10:35:47Z</time>
      </trkpt>
      <trkpt lat="51.00923" lon="2.28299">
        <ele>3.5</ele>
        <time>2020-06-23T10:35:48Z</time>
      </trkpt>
      <trkpt lat="51.00924" lon="2.28306">
        <ele>3.5</ele>
        <time>2020-06-23T10:35:49Z</time>
      </trkpt>
      <trkpt lat="51.00925" lon="2.28312">
        <ele>3.6</ele>
        <time>2020-06-23T10:35:50Z</time>
      </trkpt>
      <trkpt lat="51.00926" lon="2.28318">
        <ele>3.6</ele>
        <time>2020-06-23T10:35:51Z</time>
      </trkpt>
      <trkpt lat="51.00926" lon="2.28324">
        <ele>3.6</ele>
        <time>2020-06-23T10:35:52Z</time>
      </trkpt>
      <trkpt lat="51.00926" lon="2.28328">
        <ele>3.7</ele>
        <time>2020-06-23T10:35:53Z</time>
      </trkpt>
      <trkpt lat="51.00927" lon="2.28334">
        <ele>3.7</ele>
        <time>2020-06-23T10:35:54Z</time>
      </trkpt>
      <trkpt lat="51.00927" lon="2.2834">
        <ele>3.7</ele>
        <time>2020-06-23T10:35:55Z</time>
      </trkpt>
      <trkpt lat="51.00928" lon="2.28346">
        <ele>3.7</ele>
        <time>2020-06-23T10:35:56Z</time>
      </trkpt>
      <trkpt lat="51.00929" lon="2.28351">
        <ele>3.8</ele>
        <time>2020-06-23T10:35:57Z</time>
      </trkpt>
      <trkpt lat="51.00929" lon="2.28356">
        <ele>3.8</ele>
        <time>2020-06-23T10:35:58Z</time>
      </trkpt>
      <trkpt lat="51.0093" lon="2.28361">
        <ele>3.8</ele>
        <time>2020-06-23T10:35:59Z</time>
      </trkpt>
      <trkpt lat="51.0093" lon="2.28362">
        <ele>3.8</ele>
        <time>2020-06-23T10:36:00Z</time>
      </trkpt>
      <trkpt lat="51.0093" lon="2.28364">
        <ele>3.8</ele>
        <time>2020-06-23T10:36:01Z</time>
      </trkpt>
      <trkpt lat="51.00931" lon="2.28367">
        <ele>3.8</ele>
        <time>2020-06-23T10:36:02Z</time>
      </trkpt>
      <trkpt lat="51.00931" lon="2.28369">
        <ele>3.8</ele>
        <time>2020-06-23T10:36:03Z</time>
      </trkpt>
      <trkpt lat="51.00932" lon="2.28369">
        <ele>3.8</ele>
        <time>2020-06-23T10:36:04Z</time>
      </trkpt>
      <trkpt lat="51.00932" lon="2.2837">
        <ele>3.8</ele>
        <time>2020-06-23T10:36:05Z</time>
      </trkpt>
      <trkpt lat="51.00932" lon="2.28371">
        <ele>3.8</ele>
        <time>2020-06-23T10:36:06Z</time>
      </trkpt>
      <trkpt lat="51.00933" lon="2.28372">
        <ele>3.8</ele>
        <time>2020-06-23T10:36:07Z</time>
      </trkpt>
      <trkpt lat="51.00933" lon="2.28372">
        <ele>3.8</ele>
        <time>2020-06-23T10:36:08Z</time>
      </trkpt>
      <trkpt lat="51.00933" lon="2.28373">
        <ele>3.8</ele>
        <time>2020-06-23T10:36:09Z</time>
      </trkpt>
      <trkpt lat="51.00933" lon="2.28374">
        <ele>3.8</ele>
        <time>2020-06-23T10:36:10Z</time>
      </trkpt>
      <trkpt lat="51.00934" lon="2.28375">
        <ele>3.8</ele>
        <time>2020-06-23T10:36:11Z</time>
      </trkpt>
      <trkpt lat="51.00934" lon="2.28375">
        <ele>3.8</ele>
        <time>2020-06-23T10:36:12Z</time>
      </trkpt>
      <trkpt lat="51.00934" lon="2.28376">
        <ele>3.8</ele>
        <time>2020-06-23T10:36:23Z</time>
      </trkpt>
      <trkpt lat="51.00934" lon="2.28377">
        <ele>3.8</ele>
        <time>2020-06-23T10:36:24Z</time>
      </trkpt>
      <trkpt lat="51.00934" lon="2.28383">
        <ele>3.8</ele>
        <time>2020-06-23T10:36:25Z</time>
      </trkpt>
      <trkpt lat="51.00934" lon="2.28384">
        <ele>3.8</ele>
        <time>2020-06-23T10:36:26Z</time>
      </trkpt>
      <trkpt lat="51.00933" lon="2.2839">
        <ele>3.8</ele>
        <time>2020-06-23T10:36:27Z</time>
      </trkpt>
      <trkpt lat="51.00933" lon="2.28393">
        <ele>3.8</ele>
        <time>2020-06-23T10:36:28Z</time>
      </trkpt>
      <trkpt lat="51.00931" lon="2.28397">
        <ele>3.7</ele>
        <time>2020-06-23T10:36:29Z</time>
      </trkpt>
      <trkpt lat="51.00928" lon="2.284">
        <ele>3.8</ele>
        <time>2020-06-23T10:36:30Z</time>
      </trkpt>
      <trkpt lat="51.00924" lon="2.28402">
        <ele>3.9</ele>
        <time>2020-06-23T10:36:31Z</time>
      </trkpt>
      <trkpt lat="51.00923" lon="2.28403">
        <ele>4</ele>
        <time>2020-06-23T10:36:32Z</time>
      </trkpt>
      <trkpt lat="51.00918" lon="2.28405">
        <ele>4</ele>
        <time>2020-06-23T10:36:33Z</time>
      </trkpt>
      <trkpt lat="51.00914" lon="2.28406">
        <ele>4</ele>
        <time>2020-06-23T10:36:34Z</time>
      </trkpt>
      <trkpt lat="51.00909" lon="2.28408">
        <ele>3.9</ele>
        <time>2020-06-23T10:36:35Z</time>
      </trkpt>
      <trkpt lat="51.00906" lon="2.28409">
        <ele>3.9</ele>
        <time>2020-06-23T10:36:36Z</time>
      </trkpt>
      <trkpt lat="51.00903" lon="2.2841">
        <ele>3.8</ele>
        <time>2020-06-23T10:36:37Z</time>
      </trkpt>
      <trkpt lat="51.00901" lon="2.28411">
        <ele>3.8</ele>
        <time>2020-06-23T10:36:38Z</time>
      </trkpt>
      <trkpt lat="51.00898" lon="2.28412">
        <ele>3.8</ele>
        <time>2020-06-23T10:36:39Z</time>
      </trkpt>
      <trkpt lat="51.00895" lon="2.28413">
        <ele>3.8</ele>
        <time>2020-06-23T10:36:40Z</time>
      </trkpt>
      <trkpt lat="51.00891" lon="2.28414">
        <ele>3.8</ele>
        <time>2020-06-23T10:36:41Z</time>
      </trkpt>
      <trkpt lat="51.00889" lon="2.28414">
        <ele>3.8</ele>
        <time>2020-06-23T10:36:42Z</time>
      </trkpt>
      <trkpt lat="51.00886" lon="2.28415">
        <ele>3.8</ele>
        <time>2020-06-23T10:36:43Z</time>
      </trkpt>
      <trkpt lat="51.00882" lon="2.28417">
        <ele>3.8</ele>
        <time>2020-06-23T10:36:44Z</time>
      </trkpt>
      <trkpt lat="51.00881" lon="2.28418">
        <ele>3.7</ele>
        <time>2020-06-23T10:36:45Z</time>
      </trkpt>
      <trkpt lat="51.00879" lon="2.28419">
        <ele>3.7</ele>
        <time>2020-06-23T10:36:46Z</time>
      </trkpt>
      <trkpt lat="51.00879" lon="2.28419">
        <ele>3.7</ele>
        <time>2020-06-23T10:36:47Z</time>
      </trkpt>
      <trkpt lat="51.00878" lon="2.28419">
        <ele>3.7</ele>
        <time>2020-06-23T10:36:48Z</time>
      </trkpt>
      <trkpt lat="51.00878" lon="2.28419">
        <ele>3.7</ele>
        <time>2020-06-23T10:36:49Z</time>
      </trkpt>
      <trkpt lat="51.00877" lon="2.28419">
        <ele>3.7</ele>
        <time>2020-06-23T10:36:50Z</time>
      </trkpt>
      <trkpt lat="51.00876" lon="2.28421">
        <ele>3.7</ele>
        <time>2020-06-23T10:36:51Z</time>
      </trkpt>
      <trkpt lat="51.00875" lon="2.28423">
        <ele>3.7</ele>
        <time>2020-06-23T10:36:52Z</time>
      </trkpt>
      <trkpt lat="51.00875" lon="2.28428">
        <ele>3.3</ele>
        <time>2020-06-23T10:36:53Z</time>
      </trkpt>
      <trkpt lat="51.00876" lon="2.28433">
        <ele>3.2</ele>
        <time>2020-06-23T10:36:54Z</time>
      </trkpt>
      <trkpt lat="51.00876" lon="2.28438">
        <ele>3.2</ele>
        <time>2020-06-23T10:36:55Z</time>
      </trkpt>
      <trkpt lat="51.00877" lon="2.28443">
        <ele>3.1</ele>
        <time>2020-06-23T10:36:56Z</time>
      </trkpt>
      <trkpt lat="51.00878" lon="2.28446">
        <ele>3.1</ele>
        <time>2020-06-23T10:36:57Z</time>
      </trkpt>
      <trkpt lat="51.0088" lon="2.28452">
        <ele>3</ele>
        <time>2020-06-23T10:36:58Z</time>
      </trkpt>
      <trkpt lat="51.00881" lon="2.28456">
        <ele>3</ele>
        <time>2020-06-23T10:36:59Z</time>
      </trkpt>
      <trkpt lat="51.00882" lon="2.2846">
        <ele>3</ele>
        <time>2020-06-23T10:37:00Z</time>
      </trkpt>
      <trkpt lat="51.00884" lon="2.28465">
        <ele>2.9</ele>
        <time>2020-06-23T10:37:01Z</time>
      </trkpt>
      <trkpt lat="51.00885" lon="2.2847">
        <ele>2.9</ele>
        <time>2020-06-23T10:37:02Z</time>
      </trkpt>
      <trkpt lat="51.00887" lon="2.28477">
        <ele>2.8</ele>
        <time>2020-06-23T10:37:03Z</time>
      </trkpt>
      <trkpt lat="51.00889" lon="2.28483">
        <ele>2.8</ele>
        <time>2020-06-23T10:37:04Z</time>
      </trkpt>
      <trkpt lat="51.0089" lon="2.28489">
        <ele>2.7</ele>
        <time>2020-06-23T10:37:05Z</time>
      </trkpt>
      <trkpt lat="51.00892" lon="2.28496">
        <ele>2.7</ele>
        <time>2020-06-23T10:37:06Z</time>
      </trkpt>
      <trkpt lat="51.00894" lon="2.28502">
        <ele>2.6</ele>
        <time>2020-06-23T10:37:07Z</time>
      </trkpt>
      <trkpt lat="51.00896" lon="2.28508">
        <ele>2.6</ele>
        <time>2020-06-23T10:37:08Z</time>
      </trkpt>
      <trkpt lat="51.00897" lon="2.28514">
        <ele>2.6</ele>
        <time>2020-06-23T10:37:09Z</time>
      </trkpt>
      <trkpt lat="51.00899" lon="2.28521">
        <ele>2.5</ele>
        <time>2020-06-23T10:37:10Z</time>
      </trkpt>
      <trkpt lat="51.00901" lon="2.28527">
        <ele>2.5</ele>
        <time>2020-06-23T10:37:11Z</time>
      </trkpt>
      <trkpt lat="51.00902" lon="2.28534">
        <ele>2.5</ele>
        <time>2020-06-23T10:37:12Z</time>
      </trkpt>
      <trkpt lat="51.00904" lon="2.28542">
        <ele>2.4</ele>
        <time>2020-06-23T10:37:13Z</time>
      </trkpt>
      <trkpt lat="51.00905" lon="2.28549">
        <ele>2.4</ele>
        <time>2020-06-23T10:37:14Z</time>
      </trkpt>
      <trkpt lat="51.00907" lon="2.28556">
        <ele>2.4</ele>
        <time>2020-06-23T10:37:15Z</time>
      </trkpt>
      <trkpt lat="51.00909" lon="2.28562">
        <ele>2.3</ele>
        <time>2020-06-23T10:37:16Z</time>
      </trkpt>
      <trkpt lat="51.0091" lon="2.28568">
        <ele>2.3</ele>
        <time>2020-06-23T10:37:17Z</time>
      </trkpt>
      <trkpt lat="51.00911" lon="2.28572">
        <ele>2.3</ele>
        <time>2020-06-23T10:37:18Z</time>
      </trkpt>
      <trkpt lat="51.00913" lon="2.28578">
        <ele>2.2</ele>
        <time>2020-06-23T10:37:19Z</time>
      </trkpt>
      <trkpt lat="51.00914" lon="2.28585">
        <ele>2.2</ele>
        <time>2020-06-23T10:37:20Z</time>
      </trkpt>
      <trkpt lat="51.00916" lon="2.28592">
        <ele>2.2</ele>
        <time>2020-06-23T10:37:21Z</time>
      </trkpt>
      <trkpt lat="51.00917" lon="2.28599">
        <ele>2.2</ele>
        <time>2020-06-23T10:37:22Z</time>
      </trkpt>
      <trkpt lat="51.00918" lon="2.28606">
        <ele>2.2</ele>
        <time>2020-06-23T10:37:23Z</time>
      </trkpt>
      <trkpt lat="51.0092" lon="2.28613">
        <ele>2.2</ele>
        <time>2020-06-23T10:37:24Z</time>
      </trkpt>
      <trkpt lat="51.00921" lon="2.28619">
        <ele>2.2</ele>
        <time>2020-06-23T10:37:25Z</time>
      </trkpt>
      <trkpt lat="51.00922" lon="2.28627">
        <ele>2.2</ele>
        <time>2020-06-23T10:37:26Z</time>
      </trkpt>
      <trkpt lat="51.00923" lon="2.28634">
        <ele>2.2</ele>
        <time>2020-06-23T10:37:27Z</time>
      </trkpt>
      <trkpt lat="51.00925" lon="2.28641">
        <ele>2.3</ele>
        <time>2020-06-23T10:37:28Z</time>
      </trkpt>
      <trkpt lat="51.00926" lon="2.28647">
        <ele>2.3</ele>
        <time>2020-06-23T10:37:29Z</time>
      </trkpt>
      <trkpt lat="51.00928" lon="2.28654">
        <ele>2.3</ele>
        <time>2020-06-23T10:37:30Z</time>
      </trkpt>
      <trkpt lat="51.00929" lon="2.28659">
        <ele>2.4</ele>
        <time>2020-06-23T10:37:31Z</time>
      </trkpt>
      <trkpt lat="51.0093" lon="2.28666">
        <ele>2.4</ele>
        <time>2020-06-23T10:37:32Z</time>
      </trkpt>
      <trkpt lat="51.00931" lon="2.28671">
        <ele>2.4</ele>
        <time>2020-06-23T10:37:33Z</time>
      </trkpt>
      <trkpt lat="51.00931" lon="2.28676">
        <ele>2.4</ele>
        <time>2020-06-23T10:37:34Z</time>
      </trkpt>
      <trkpt lat="51.00932" lon="2.28682">
        <ele>2.5</ele>
        <time>2020-06-23T10:37:35Z</time>
      </trkpt>
      <trkpt lat="51.00933" lon="2.28689">
        <ele>2.5</ele>
        <time>2020-06-23T10:37:36Z</time>
      </trkpt>
      <trkpt lat="51.00933" lon="2.28695">
        <ele>2.5</ele>
        <time>2020-06-23T10:37:37Z</time>
      </trkpt>
      <trkpt lat="51.00933" lon="2.28701">
        <ele>2.6</ele>
        <time>2020-06-23T10:37:38Z</time>
      </trkpt>
      <trkpt lat="51.00933" lon="2.28706">
        <ele>2.6</ele>
        <time>2020-06-23T10:37:39Z</time>
      </trkpt>
      <trkpt lat="51.00932" lon="2.28712">
        <ele>2.6</ele>
        <time>2020-06-23T10:37:40Z</time>
      </trkpt>
      <trkpt lat="51.00931" lon="2.28715">
        <ele>2.6</ele>
        <time>2020-06-23T10:37:41Z</time>
      </trkpt>
      <trkpt lat="51.0093" lon="2.2872">
        <ele>2.6</ele>
        <time>2020-06-23T10:37:42Z</time>
      </trkpt>
      <trkpt lat="51.00932" lon="2.28725">
        <ele>2.7</ele>
        <time>2020-06-23T10:37:43Z</time>
      </trkpt>
      <trkpt lat="51.00935" lon="2.2873">
        <ele>2.7</ele>
        <time>2020-06-23T10:37:44Z</time>
      </trkpt>
      <trkpt lat="51.00938" lon="2.28734">
        <ele>2.7</ele>
        <time>2020-06-23T10:37:45Z</time>
      </trkpt>
      <trkpt lat="51.00941" lon="2.28737">
        <ele>2.8</ele>
        <time>2020-06-23T10:37:46Z</time>
      </trkpt>
      <trkpt lat="51.00942" lon="2.28742">
        <ele>2.7</ele>
        <time>2020-06-23T10:37:47Z</time>
      </trkpt>
      <trkpt lat="51.00944" lon="2.28748">
        <ele>2.7</ele>
        <time>2020-06-23T10:37:48Z</time>
      </trkpt>
      <trkpt lat="51.00945" lon="2.28755">
        <ele>2.7</ele>
        <time>2020-06-23T10:37:49Z</time>
      </trkpt>
      <trkpt lat="51.00946" lon="2.28762">
        <ele>2.6</ele>
        <time>2020-06-23T10:37:50Z</time>
      </trkpt>
      <trkpt lat="51.00947" lon="2.28771">
        <ele>2.6</ele>
        <time>2020-06-23T10:37:51Z</time>
      </trkpt>
      <trkpt lat="51.00948" lon="2.28778">
        <ele>2.6</ele>
        <time>2020-06-23T10:37:52Z</time>
      </trkpt>
      <trkpt lat="51.00949" lon="2.28785">
        <ele>2.6</ele>
        <time>2020-06-23T10:37:53Z</time>
      </trkpt>
      <trkpt lat="51.0095" lon="2.28793">
        <ele>2.5</ele>
        <time>2020-06-23T10:37:54Z</time>
      </trkpt>
      <trkpt lat="51.00952" lon="2.28802">
        <ele>2.5</ele>
        <time>2020-06-23T10:37:55Z</time>
      </trkpt>
      <trkpt lat="51.00953" lon="2.2881">
        <ele>2.5</ele>
        <time>2020-06-23T10:37:56Z</time>
      </trkpt>
      <trkpt lat="51.00955" lon="2.28818">
        <ele>2.5</ele>
        <time>2020-06-23T10:37:57Z</time>
      </trkpt>
      <trkpt lat="51.00956" lon="2.28827">
        <ele>2.4</ele>
        <time>2020-06-23T10:37:58Z</time>
      </trkpt>
      <trkpt lat="51.00958" lon="2.28833">
        <ele>2.4</ele>
        <time>2020-06-23T10:37:59Z</time>
      </trkpt>
      <trkpt lat="51.00959" lon="2.2884">
        <ele>2.4</ele>
        <time>2020-06-23T10:38:00Z</time>
      </trkpt>
      <trkpt lat="51.0096" lon="2.28845">
        <ele>2.4</ele>
        <time>2020-06-23T10:38:01Z</time>
      </trkpt>
      <trkpt lat="51.00961" lon="2.28851">
        <ele>2.4</ele>
        <time>2020-06-23T10:38:02Z</time>
      </trkpt>
      <trkpt lat="51.00963" lon="2.2886">
        <ele>2.3</ele>
        <time>2020-06-23T10:38:03Z</time>
      </trkpt>
      <trkpt lat="51.00965" lon="2.28868">
        <ele>2.3</ele>
        <time>2020-06-23T10:38:04Z</time>
      </trkpt>
      <trkpt lat="51.00967" lon="2.28876">
        <ele>2.3</ele>
        <time>2020-06-23T10:38:05Z</time>
      </trkpt>
      <trkpt lat="51.00969" lon="2.28885">
        <ele>2.3</ele>
        <time>2020-06-23T10:38:06Z</time>
      </trkpt>
      <trkpt lat="51.00971" lon="2.28893">
        <ele>2.4</ele>
        <time>2020-06-23T10:38:07Z</time>
      </trkpt>
      <trkpt lat="51.00973" lon="2.289">
        <ele>2.4</ele>
        <time>2020-06-23T10:38:08Z</time>
      </trkpt>
      <trkpt lat="51.00975" lon="2.28906">
        <ele>2.4</ele>
        <time>2020-06-23T10:38:09Z</time>
      </trkpt>
      <trkpt lat="51.00976" lon="2.28911">
        <ele>2.4</ele>
        <time>2020-06-23T10:38:10Z</time>
      </trkpt>
      <trkpt lat="51.00978" lon="2.28916">
        <ele>2.4</ele>
        <time>2020-06-23T10:38:11Z</time>
      </trkpt>
      <trkpt lat="51.00979" lon="2.28919">
        <ele>2.4</ele>
        <time>2020-06-23T10:38:12Z</time>
      </trkpt>
      <trkpt lat="51.00981" lon="2.28925">
        <ele>2.4</ele>
        <time>2020-06-23T10:38:13Z</time>
      </trkpt>
      <trkpt lat="51.00983" lon="2.28932">
        <ele>2.4</ele>
        <time>2020-06-23T10:38:14Z</time>
      </trkpt>
      <trkpt lat="51.00985" lon="2.2894">
        <ele>2.4</ele>
        <time>2020-06-23T10:38:15Z</time>
      </trkpt>
      <trkpt lat="51.00987" lon="2.28947">
        <ele>2.4</ele>
        <time>2020-06-23T10:38:16Z</time>
      </trkpt>
      <trkpt lat="51.00989" lon="2.28955">
        <ele>2.4</ele>
        <time>2020-06-23T10:38:17Z</time>
      </trkpt>
      <trkpt lat="51.00991" lon="2.28962">
        <ele>2.4</ele>
        <time>2020-06-23T10:38:18Z</time>
      </trkpt>
      <trkpt lat="51.00993" lon="2.28967">
        <ele>2.3</ele>
        <time>2020-06-23T10:38:19Z</time>
      </trkpt>
      <trkpt lat="51.00994" lon="2.28971">
        <ele>2.3</ele>
        <time>2020-06-23T10:38:20Z</time>
      </trkpt>
      <trkpt lat="51.00995" lon="2.28976">
        <ele>2.3</ele>
        <time>2020-06-23T10:38:21Z</time>
      </trkpt>
      <trkpt lat="51.00996" lon="2.28983">
        <ele>2.3</ele>
        <time>2020-06-23T10:38:22Z</time>
      </trkpt>
      <trkpt lat="51.00995" lon="2.28986">
        <ele>2.3</ele>
        <time>2020-06-23T10:38:23Z</time>
      </trkpt>
      <trkpt lat="51.00995" lon="2.2899">
        <ele>2.3</ele>
        <time>2020-06-23T10:38:24Z</time>
      </trkpt>
      <trkpt lat="51.00995" lon="2.28992">
        <ele>2.3</ele>
        <time>2020-06-23T10:38:25Z</time>
      </trkpt>
      <trkpt lat="51.00996" lon="2.28998">
        <ele>2.3</ele>
        <time>2020-06-23T10:38:26Z</time>
      </trkpt>
      <trkpt lat="51.00999" lon="2.29004">
        <ele>2.3</ele>
        <time>2020-06-23T10:38:27Z</time>
      </trkpt>
      <trkpt lat="51.01001" lon="2.2901">
        <ele>2.3</ele>
        <time>2020-06-23T10:38:28Z</time>
      </trkpt>
      <trkpt lat="51.01004" lon="2.29014">
        <ele>2.3</ele>
        <time>2020-06-23T10:38:29Z</time>
      </trkpt>
      <trkpt lat="51.01005" lon="2.29019">
        <ele>2.3</ele>
        <time>2020-06-23T10:38:30Z</time>
      </trkpt>
      <trkpt lat="51.01006" lon="2.29024">
        <ele>2.3</ele>
        <time>2020-06-23T10:38:31Z</time>
      </trkpt>
      <trkpt lat="51.01007" lon="2.2903">
        <ele>2.3</ele>
        <time>2020-06-23T10:38:32Z</time>
      </trkpt>
      <trkpt lat="51.01008" lon="2.29036">
        <ele>2.3</ele>
        <time>2020-06-23T10:38:33Z</time>
      </trkpt>
      <trkpt lat="51.01009" lon="2.29043">
        <ele>2.3</ele>
        <time>2020-06-23T10:38:34Z</time>
      </trkpt>
      <trkpt lat="51.01009" lon="2.29048">
        <ele>2.3</ele>
        <time>2020-06-23T10:38:35Z</time>
      </trkpt>
      <trkpt lat="51.0101" lon="2.29053">
        <ele>2.3</ele>
        <time>2020-06-23T10:38:36Z</time>
      </trkpt>
      <trkpt lat="51.01009" lon="2.2906">
        <ele>2.3</ele>
        <time>2020-06-23T10:38:37Z</time>
      </trkpt>
      <trkpt lat="51.0101" lon="2.29064">
        <ele>2.3</ele>
        <time>2020-06-23T10:38:38Z</time>
      </trkpt>
      <trkpt lat="51.01013" lon="2.29066">
        <ele>2.3</ele>
        <time>2020-06-23T10:38:39Z</time>
      </trkpt>
      <trkpt lat="51.01017" lon="2.29068">
        <ele>2.3</ele>
        <time>2020-06-23T10:38:40Z</time>
      </trkpt>
      <trkpt lat="51.01019" lon="2.29071">
        <ele>2.3</ele>
        <time>2020-06-23T10:38:41Z</time>
      </trkpt>
      <trkpt lat="51.0102" lon="2.29076">
        <ele>2.3</ele>
        <time>2020-06-23T10:38:42Z</time>
      </trkpt>
      <trkpt lat="51.0102" lon="2.29083">
        <ele>2.3</ele>
        <time>2020-06-23T10:38:43Z</time>
      </trkpt>
      <trkpt lat="51.01021" lon="2.2909">
        <ele>2.3</ele>
        <time>2020-06-23T10:38:44Z</time>
      </trkpt>
      <trkpt lat="51.01023" lon="2.29096">
        <ele>2.3</ele>
        <time>2020-06-23T10:38:45Z</time>
      </trkpt>
      <trkpt lat="51.01024" lon="2.29103">
        <ele>2.3</ele>
        <time>2020-06-23T10:38:46Z</time>
      </trkpt>
      <trkpt lat="51.01025" lon="2.29108">
        <ele>2.3</ele>
        <time>2020-06-23T10:38:47Z</time>
      </trkpt>
      <trkpt lat="51.01027" lon="2.29116">
        <ele>2.3</ele>
        <time>2020-06-23T10:38:48Z</time>
      </trkpt>
      <trkpt lat="51.01029" lon="2.29125">
        <ele>2.3</ele>
        <time>2020-06-23T10:38:49Z</time>
      </trkpt>
      <trkpt lat="51.01032" lon="2.29134">
        <ele>2.3</ele>
        <time>2020-06-23T10:38:50Z</time>
      </trkpt>
      <trkpt lat="51.01034" lon="2.29142">
        <ele>2.3</ele>
        <time>2020-06-23T10:38:51Z</time>
      </trkpt>
      <trkpt lat="51.01035" lon="2.29149">
        <ele>2.3</ele>
        <time>2020-06-23T10:38:52Z</time>
      </trkpt>
      <trkpt lat="51.01036" lon="2.29154">
        <ele>2.3</ele>
        <time>2020-06-23T10:38:53Z</time>
      </trkpt>
      <trkpt lat="51.01037" lon="2.29161">
        <ele>2.3</ele>
        <time>2020-06-23T10:38:54Z</time>
      </trkpt>
      <trkpt lat="51.01039" lon="2.29166">
        <ele>2.3</ele>
        <time>2020-06-23T10:38:55Z</time>
      </trkpt>
      <trkpt lat="51.01039" lon="2.29171">
        <ele>2.3</ele>
        <time>2020-06-23T10:38:56Z</time>
      </trkpt>
      <trkpt lat="51.0104" lon="2.29177">
        <ele>2.3</ele>
        <time>2020-06-23T10:38:57Z</time>
      </trkpt>
      <trkpt lat="51.01041" lon="2.29183">
        <ele>2.3</ele>
        <time>2020-06-23T10:38:58Z</time>
      </trkpt>
      <trkpt lat="51.01041" lon="2.29189">
        <ele>2.3</ele>
        <time>2020-06-23T10:38:59Z</time>
      </trkpt>
      <trkpt lat="51.01043" lon="2.29196">
        <ele>2.3</ele>
        <time>2020-06-23T10:39:00Z</time>
      </trkpt>
      <trkpt lat="51.01043" lon="2.29203">
        <ele>2.3</ele>
        <time>2020-06-23T10:39:01Z</time>
      </trkpt>
      <trkpt lat="51.01045" lon="2.29209">
        <ele>2.3</ele>
        <time>2020-06-23T10:39:02Z</time>
      </trkpt>
      <trkpt lat="51.01046" lon="2.29215">
        <ele>2.3</ele>
        <time>2020-06-23T10:39:03Z</time>
      </trkpt>
      <trkpt lat="51.01048" lon="2.2922">
        <ele>2.4</ele>
        <time>2020-06-23T10:39:04Z</time>
      </trkpt>
      <trkpt lat="51.01049" lon="2.29225">
        <ele>2.4</ele>
        <time>2020-06-23T10:39:05Z</time>
      </trkpt>
      <trkpt lat="51.0105" lon="2.2923">
        <ele>2.4</ele>
        <time>2020-06-23T10:39:06Z</time>
      </trkpt>
      <trkpt lat="51.01051" lon="2.29238">
        <ele>2.4</ele>
        <time>2020-06-23T10:39:07Z</time>
      </trkpt>
      <trkpt lat="51.01052" lon="2.29243">
        <ele>2.5</ele>
        <time>2020-06-23T10:39:08Z</time>
      </trkpt>
      <trkpt lat="51.01053" lon="2.29247">
        <ele>2.5</ele>
        <time>2020-06-23T10:39:09Z</time>
      </trkpt>
      <trkpt lat="51.01056" lon="2.29252">
        <ele>2.5</ele>
        <time>2020-06-23T10:39:10Z</time>
      </trkpt>
      <trkpt lat="51.01057" lon="2.29254">
        <ele>2.5</ele>
        <time>2020-06-23T10:39:11Z</time>
      </trkpt>
      <trkpt lat="51.01058" lon="2.29259">
        <ele>2.5</ele>
        <time>2020-06-23T10:39:12Z</time>
      </trkpt>
      <trkpt lat="51.01059" lon="2.29266">
        <ele>2.5</ele>
        <time>2020-06-23T10:39:13Z</time>
      </trkpt>
      <trkpt lat="51.01061" lon="2.29274">
        <ele>2.5</ele>
        <time>2020-06-23T10:39:14Z</time>
      </trkpt>
      <trkpt lat="51.01063" lon="2.29281">
        <ele>2.5</ele>
        <time>2020-06-23T10:39:15Z</time>
      </trkpt>
      <trkpt lat="51.01066" lon="2.29288">
        <ele>2.5</ele>
        <time>2020-06-23T10:39:16Z</time>
      </trkpt>
      <trkpt lat="51.01069" lon="2.29296">
        <ele>2.5</ele>
        <time>2020-06-23T10:39:17Z</time>
      </trkpt>
      <trkpt lat="51.01074" lon="2.29304">
        <ele>2.7</ele>
        <time>2020-06-23T10:39:18Z</time>
      </trkpt>
      <trkpt lat="51.01078" lon="2.29311">
        <ele>2.7</ele>
        <time>2020-06-23T10:39:19Z</time>
      </trkpt>
      <trkpt lat="51.01081" lon="2.29319">
        <ele>2.8</ele>
        <time>2020-06-23T10:39:20Z</time>
      </trkpt>
      <trkpt lat="51.01084" lon="2.29328">
        <ele>2.8</ele>
        <time>2020-06-23T10:39:21Z</time>
      </trkpt>
      <trkpt lat="51.01085" lon="2.29334">
        <ele>2.8</ele>
        <time>2020-06-23T10:39:22Z</time>
      </trkpt>
      <trkpt lat="51.01087" lon="2.29342">
        <ele>2.8</ele>
        <time>2020-06-23T10:39:23Z</time>
      </trkpt>
      <trkpt lat="51.0109" lon="2.2935">
        <ele>2.8</ele>
        <time>2020-06-23T10:39:24Z</time>
      </trkpt>
      <trkpt lat="51.01092" lon="2.29358">
        <ele>2.7</ele>
        <time>2020-06-23T10:39:25Z</time>
      </trkpt>
      <trkpt lat="51.01094" lon="2.29365">
        <ele>2.8</ele>
        <time>2020-06-23T10:39:26Z</time>
      </trkpt>
      <trkpt lat="51.01097" lon="2.29372">
        <ele>2.8</ele>
        <time>2020-06-23T10:39:27Z</time>
      </trkpt>
      <trkpt lat="51.01097" lon="2.29379">
        <ele>2.8</ele>
        <time>2020-06-23T10:39:28Z</time>
      </trkpt>
      <trkpt lat="51.011" lon="2.29386">
        <ele>2.8</ele>
        <time>2020-06-23T10:39:29Z</time>
      </trkpt>
      <trkpt lat="51.01102" lon="2.29394">
        <ele>2.8</ele>
        <time>2020-06-23T10:39:30Z</time>
      </trkpt>
      <trkpt lat="51.01104" lon="2.29402">
        <ele>2.8</ele>
        <time>2020-06-23T10:39:31Z</time>
      </trkpt>
      <trkpt lat="51.01106" lon="2.29412">
        <ele>2.8</ele>
        <time>2020-06-23T10:39:32Z</time>
      </trkpt>
      <trkpt lat="51.01107" lon="2.29418">
        <ele>2.8</ele>
        <time>2020-06-23T10:39:33Z</time>
      </trkpt>
      <trkpt lat="51.0111" lon="2.29427">
        <ele>2.8</ele>
        <time>2020-06-23T10:39:34Z</time>
      </trkpt>
      <trkpt lat="51.01112" lon="2.29436">
        <ele>2.8</ele>
        <time>2020-06-23T10:39:35Z</time>
      </trkpt>
      <trkpt lat="51.01115" lon="2.29443">
        <ele>2.8</ele>
        <time>2020-06-23T10:39:36Z</time>
      </trkpt>
      <trkpt lat="51.01117" lon="2.29453">
        <ele>2.8</ele>
        <time>2020-06-23T10:39:37Z</time>
      </trkpt>
      <trkpt lat="51.01119" lon="2.29462">
        <ele>2.9</ele>
        <time>2020-06-23T10:39:38Z</time>
      </trkpt>
      <trkpt lat="51.01121" lon="2.29471">
        <ele>2.9</ele>
        <time>2020-06-23T10:39:39Z</time>
      </trkpt>
      <trkpt lat="51.01124" lon="2.2948">
        <ele>3</ele>
        <time>2020-06-23T10:39:40Z</time>
      </trkpt>
      <trkpt lat="51.01126" lon="2.29489">
        <ele>3</ele>
        <time>2020-06-23T10:39:41Z</time>
      </trkpt>
      <trkpt lat="51.01127" lon="2.29497">
        <ele>3</ele>
        <time>2020-06-23T10:39:42Z</time>
      </trkpt>
      <trkpt lat="51.01128" lon="2.29501">
        <ele>3</ele>
        <time>2020-06-23T10:39:43Z</time>
      </trkpt>
      <trkpt lat="51.01127" lon="2.29502">
        <ele>3</ele>
        <time>2020-06-23T10:39:44Z</time>
      </trkpt>
      <trkpt lat="51.01126" lon="2.29502">
        <ele>3</ele>
        <time>2020-06-23T10:39:45Z</time>
      </trkpt>
      <trkpt lat="51.01127" lon="2.29501">
        <ele>3</ele>
        <time>2020-06-23T10:39:46Z</time>
      </trkpt>
      <trkpt lat="51.01128" lon="2.295">
        <ele>3</ele>
        <time>2020-06-23T10:39:47Z</time>
      </trkpt>
      <trkpt lat="51.01128" lon="2.29499">
        <ele>3</ele>
        <time>2020-06-23T10:39:48Z</time>
      </trkpt>
      <trkpt lat="51.01128" lon="2.29499">
        <ele>3</ele>
        <time>2020-06-23T10:39:49Z</time>
      </trkpt>
      <trkpt lat="51.01129" lon="2.29498">
        <ele>3</ele>
        <time>2020-06-23T10:39:50Z</time>
      </trkpt>
      <trkpt lat="51.01129" lon="2.29497">
        <ele>3</ele>
        <time>2020-06-23T10:39:51Z</time>
      </trkpt>
      <trkpt lat="51.01129" lon="2.29495">
        <ele>3</ele>
        <time>2020-06-23T10:39:52Z</time>
      </trkpt>
      <trkpt lat="51.01131" lon="2.29494">
        <ele>3</ele>
        <time>2020-06-23T10:39:53Z</time>
      </trkpt>
      <trkpt lat="51.01132" lon="2.29492">
        <ele>3</ele>
        <time>2020-06-23T10:39:54Z</time>
      </trkpt>
      <trkpt lat="51.01133" lon="2.29492">
        <ele>3</ele>
        <time>2020-06-23T10:39:55Z</time>
      </trkpt>
      <trkpt lat="51.01134" lon="2.29492">
        <ele>3</ele>
        <time>2020-06-23T10:39:56Z</time>
      </trkpt>
      <trkpt lat="51.01134" lon="2.29496">
        <ele>3</ele>
        <time>2020-06-23T10:39:57Z</time>
      </trkpt>
      <trkpt lat="51.01134" lon="2.295">
        <ele>3</ele>
        <time>2020-06-23T10:40:10Z</time>
      </trkpt>
      <trkpt lat="51.01134" lon="2.29503">
        <ele>3</ele>
        <time>2020-06-23T10:40:11Z</time>
      </trkpt>
      <trkpt lat="51.01136" lon="2.29508">
        <ele>3</ele>
        <time>2020-06-23T10:40:12Z</time>
      </trkpt>
      <trkpt lat="51.01137" lon="2.29515">
        <ele>3</ele>
        <time>2020-06-23T10:40:13Z</time>
      </trkpt>
      <trkpt lat="51.01138" lon="2.29523">
        <ele>2.9</ele>
        <time>2020-06-23T10:40:14Z</time>
      </trkpt>
      <trkpt lat="51.01139" lon="2.2953">
        <ele>2.9</ele>
        <time>2020-06-23T10:40:15Z</time>
      </trkpt>
      <trkpt lat="51.01141" lon="2.29536">
        <ele>2.9</ele>
        <time>2020-06-23T10:40:16Z</time>
      </trkpt>
      <trkpt lat="51.01143" lon="2.29543">
        <ele>2.8</ele>
        <time>2020-06-23T10:40:17Z</time>
      </trkpt>
      <trkpt lat="51.01145" lon="2.29551">
        <ele>2.7</ele>
        <time>2020-06-23T10:40:18Z</time>
      </trkpt>
      <trkpt lat="51.01146" lon="2.29559">
        <ele>2.6</ele>
        <time>2020-06-23T10:40:19Z</time>
      </trkpt>
      <trkpt lat="51.01147" lon="2.29568">
        <ele>2.6</ele>
        <time>2020-06-23T10:40:20Z</time>
      </trkpt>
      <trkpt lat="51.01148" lon="2.29576">
        <ele>2.6</ele>
        <time>2020-06-23T10:40:21Z</time>
      </trkpt>
      <trkpt lat="51.01149" lon="2.29586">
        <ele>2.5</ele>
        <time>2020-06-23T10:40:22Z</time>
      </trkpt>
      <trkpt lat="51.01151" lon="2.29594">
        <ele>2.5</ele>
        <time>2020-06-23T10:40:23Z</time>
      </trkpt>
      <trkpt lat="51.01151" lon="2.29602">
        <ele>2.5</ele>
        <time>2020-06-23T10:40:24Z</time>
      </trkpt>
      <trkpt lat="51.01152" lon="2.29611">
        <ele>2.5</ele>
        <time>2020-06-23T10:40:25Z</time>
      </trkpt>
      <trkpt lat="51.01153" lon="2.29619">
        <ele>2.5</ele>
        <time>2020-06-23T10:40:26Z</time>
      </trkpt>
      <trkpt lat="51.01154" lon="2.29628">
        <ele>2.5</ele>
        <time>2020-06-23T10:40:27Z</time>
      </trkpt>
      <trkpt lat="51.01156" lon="2.29639">
        <ele>2.4</ele>
        <time>2020-06-23T10:40:28Z</time>
      </trkpt>
      <trkpt lat="51.01159" lon="2.29647">
        <ele>2.4</ele>
        <time>2020-06-23T10:40:29Z</time>
      </trkpt>
      <trkpt lat="51.01161" lon="2.29656">
        <ele>2.4</ele>
        <time>2020-06-23T10:40:30Z</time>
      </trkpt>
      <trkpt lat="51.01162" lon="2.29665">
        <ele>2.4</ele>
        <time>2020-06-23T10:40:31Z</time>
      </trkpt>
      <trkpt lat="51.01164" lon="2.29674">
        <ele>2.4</ele>
        <time>2020-06-23T10:40:32Z</time>
      </trkpt>
      <trkpt lat="51.01165" lon="2.29682">
        <ele>2.3</ele>
        <time>2020-06-23T10:40:33Z</time>
      </trkpt>
      <trkpt lat="51.01168" lon="2.29691">
        <ele>2.3</ele>
        <time>2020-06-23T10:40:34Z</time>
      </trkpt>
      <trkpt lat="51.01169" lon="2.297">
        <ele>2.3</ele>
        <time>2020-06-23T10:40:35Z</time>
      </trkpt>
      <trkpt lat="51.0117" lon="2.29709">
        <ele>2.3</ele>
        <time>2020-06-23T10:40:36Z</time>
      </trkpt>
      <trkpt lat="51.01171" lon="2.29718">
        <ele>2.3</ele>
        <time>2020-06-23T10:40:37Z</time>
      </trkpt>
      <trkpt lat="51.01173" lon="2.29728">
        <ele>2.3</ele>
        <time>2020-06-23T10:40:38Z</time>
      </trkpt>
      <trkpt lat="51.01175" lon="2.29737">
        <ele>2.3</ele>
        <time>2020-06-23T10:40:39Z</time>
      </trkpt>
      <trkpt lat="51.01177" lon="2.29747">
        <ele>2.3</ele>
        <time>2020-06-23T10:40:40Z</time>
      </trkpt>
      <trkpt lat="51.0118" lon="2.29756">
        <ele>2.3</ele>
        <time>2020-06-23T10:40:41Z</time>
      </trkpt>
      <trkpt lat="51.01182" lon="2.29766">
        <ele>2.3</ele>
        <time>2020-06-23T10:40:42Z</time>
      </trkpt>
      <trkpt lat="51.01184" lon="2.29775">
        <ele>2.3</ele>
        <time>2020-06-23T10:40:43Z</time>
      </trkpt>
      <trkpt lat="51.01186" lon="2.29783">
        <ele>2.3</ele>
        <time>2020-06-23T10:40:44Z</time>
      </trkpt>
      <trkpt lat="51.01187" lon="2.29791">
        <ele>2.3</ele>
        <time>2020-06-23T10:40:45Z</time>
      </trkpt>
      <trkpt lat="51.01188" lon="2.29799">
        <ele>2.4</ele>
        <time>2020-06-23T10:40:46Z</time>
      </trkpt>
      <trkpt lat="51.0119" lon="2.29808">
        <ele>2.4</ele>
        <time>2020-06-23T10:40:47Z</time>
      </trkpt>
      <trkpt lat="51.01192" lon="2.29816">
        <ele>2.3</ele>
        <time>2020-06-23T10:40:48Z</time>
      </trkpt>
      <trkpt lat="51.01194" lon="2.29822">
        <ele>2.3</ele>
        <time>2020-06-23T10:40:49Z</time>
      </trkpt>
      <trkpt lat="51.01195" lon="2.29826">
        <ele>2.3</ele>
        <time>2020-06-23T10:40:50Z</time>
      </trkpt>
      <trkpt lat="51.01197" lon="2.29831">
        <ele>2.3</ele>
        <time>2020-06-23T10:40:51Z</time>
      </trkpt>
      <trkpt lat="51.01198" lon="2.29835">
        <ele>2.3</ele>
        <time>2020-06-23T10:40:52Z</time>
      </trkpt>
      <trkpt lat="51.01201" lon="2.2984">
        <ele>2.2</ele>
        <time>2020-06-23T10:40:53Z</time>
      </trkpt>
      <trkpt lat="51.01202" lon="2.29848">
        <ele>2.2</ele>
        <time>2020-06-23T10:40:54Z</time>
      </trkpt>
      <trkpt lat="51.01205" lon="2.29856">
        <ele>2.2</ele>
        <time>2020-06-23T10:40:55Z</time>
      </trkpt>
      <trkpt lat="51.01206" lon="2.29866">
        <ele>2.2</ele>
        <time>2020-06-23T10:40:56Z</time>
      </trkpt>
      <trkpt lat="51.01208" lon="2.29876">
        <ele>2.2</ele>
        <time>2020-06-23T10:40:57Z</time>
      </trkpt>
      <trkpt lat="51.01211" lon="2.29885">
        <ele>2.2</ele>
        <time>2020-06-23T10:40:58Z</time>
      </trkpt>
      <trkpt lat="51.01213" lon="2.29894">
        <ele>2.2</ele>
        <time>2020-06-23T10:40:59Z</time>
      </trkpt>
      <trkpt lat="51.01215" lon="2.29904">
        <ele>2.2</ele>
        <time>2020-06-23T10:41:00Z</time>
      </trkpt>
      <trkpt lat="51.01217" lon="2.29913">
        <ele>2.3</ele>
        <time>2020-06-23T10:41:01Z</time>
      </trkpt>
      <trkpt lat="51.01218" lon="2.29923">
        <ele>2.3</ele>
        <time>2020-06-23T10:41:02Z</time>
      </trkpt>
      <trkpt lat="51.01222" lon="2.29932">
        <ele>2.3</ele>
        <time>2020-06-23T10:41:03Z</time>
      </trkpt>
      <trkpt lat="51.01224" lon="2.2994">
        <ele>2.3</ele>
        <time>2020-06-23T10:41:04Z</time>
      </trkpt>
      <trkpt lat="51.01227" lon="2.2995">
        <ele>2.3</ele>
        <time>2020-06-23T10:41:05Z</time>
      </trkpt>
      <trkpt lat="51.01229" lon="2.29959">
        <ele>2.3</ele>
        <time>2020-06-23T10:41:06Z</time>
      </trkpt>
      <trkpt lat="51.01232" lon="2.29969">
        <ele>2.4</ele>
        <time>2020-06-23T10:41:07Z</time>
      </trkpt>
      <trkpt lat="51.01234" lon="2.29978">
        <ele>2.4</ele>
        <time>2020-06-23T10:41:08Z</time>
      </trkpt>
      <trkpt lat="51.01237" lon="2.29989">
        <ele>2.4</ele>
        <time>2020-06-23T10:41:09Z</time>
      </trkpt>
      <trkpt lat="51.01238" lon="2.29997">
        <ele>2.5</ele>
        <time>2020-06-23T10:41:10Z</time>
      </trkpt>
      <trkpt lat="51.0124" lon="2.30006">
        <ele>2.5</ele>
        <time>2020-06-23T10:41:11Z</time>
      </trkpt>
      <trkpt lat="51.01241" lon="2.30013">
        <ele>2.6</ele>
        <time>2020-06-23T10:41:12Z</time>
      </trkpt>
      <trkpt lat="51.01243" lon="2.30021">
        <ele>2.6</ele>
        <time>2020-06-23T10:41:13Z</time>
      </trkpt>
      <trkpt lat="51.01245" lon="2.30028">
        <ele>2.7</ele>
        <time>2020-06-23T10:41:14Z</time>
      </trkpt>
      <trkpt lat="51.01247" lon="2.30034">
        <ele>2.7</ele>
        <time>2020-06-23T10:41:15Z</time>
      </trkpt>
      <trkpt lat="51.01249" lon="2.3004">
        <ele>2.7</ele>
        <time>2020-06-23T10:41:16Z</time>
      </trkpt>
      <trkpt lat="51.01251" lon="2.30046">
        <ele>2.8</ele>
        <time>2020-06-23T10:41:17Z</time>
      </trkpt>
      <trkpt lat="51.01254" lon="2.30051">
        <ele>2.8</ele>
        <time>2020-06-23T10:41:18Z</time>
      </trkpt>
      <trkpt lat="51.01256" lon="2.30058">
        <ele>2.8</ele>
        <time>2020-06-23T10:41:19Z</time>
      </trkpt>
      <trkpt lat="51.01258" lon="2.30066">
        <ele>2.9</ele>
        <time>2020-06-23T10:41:20Z</time>
      </trkpt>
      <trkpt lat="51.01259" lon="2.30072">
        <ele>2.9</ele>
        <time>2020-06-23T10:41:21Z</time>
      </trkpt>
      <trkpt lat="51.0126" lon="2.3008">
        <ele>2.9</ele>
        <time>2020-06-23T10:41:22Z</time>
      </trkpt>
      <trkpt lat="51.0126" lon="2.30087">
        <ele>2.8</ele>
        <time>2020-06-23T10:41:23Z</time>
      </trkpt>
      <trkpt lat="51.01259" lon="2.30094">
        <ele>2.8</ele>
        <time>2020-06-23T10:41:24Z</time>
      </trkpt>
      <trkpt lat="51.0126" lon="2.301">
        <ele>2.8</ele>
        <time>2020-06-23T10:41:25Z</time>
      </trkpt>
      <trkpt lat="51.01261" lon="2.30106">
        <ele>2.7</ele>
        <time>2020-06-23T10:41:26Z</time>
      </trkpt>
      <trkpt lat="51.01262" lon="2.30111">
        <ele>2.7</ele>
        <time>2020-06-23T10:41:27Z</time>
      </trkpt>
      <trkpt lat="51.01263" lon="2.30119">
        <ele>2.7</ele>
        <time>2020-06-23T10:41:28Z</time>
      </trkpt>
      <trkpt lat="51.01264" lon="2.30123">
        <ele>2.6</ele>
        <time>2020-06-23T10:41:29Z</time>
      </trkpt>
      <trkpt lat="51.01265" lon="2.3013">
        <ele>2.6</ele>
        <time>2020-06-23T10:41:30Z</time>
      </trkpt>
      <trkpt lat="51.01266" lon="2.30136">
        <ele>2.6</ele>
        <time>2020-06-23T10:41:31Z</time>
      </trkpt>
      <trkpt lat="51.01268" lon="2.30144">
        <ele>2.6</ele>
        <time>2020-06-23T10:41:32Z</time>
      </trkpt>
      <trkpt lat="51.0127" lon="2.3015">
        <ele>2.6</ele>
        <time>2020-06-23T10:41:33Z</time>
      </trkpt>
      <trkpt lat="51.01272" lon="2.30156">
        <ele>2.6</ele>
        <time>2020-06-23T10:41:34Z</time>
      </trkpt>
      <trkpt lat="51.01274" lon="2.30164">
        <ele>2.6</ele>
        <time>2020-06-23T10:41:35Z</time>
      </trkpt>
      <trkpt lat="51.01276" lon="2.30169">
        <ele>2.6</ele>
        <time>2020-06-23T10:41:36Z</time>
      </trkpt>
      <trkpt lat="51.01278" lon="2.30175">
        <ele>2.6</ele>
        <time>2020-06-23T10:41:37Z</time>
      </trkpt>
      <trkpt lat="51.01278" lon="2.3018">
        <ele>2.6</ele>
        <time>2020-06-23T10:41:38Z</time>
      </trkpt>
      <trkpt lat="51.01279" lon="2.30185">
        <ele>2.6</ele>
        <time>2020-06-23T10:41:39Z</time>
      </trkpt>
      <trkpt lat="51.0128" lon="2.3019">
        <ele>2.6</ele>
        <time>2020-06-23T10:41:40Z</time>
      </trkpt>
      <trkpt lat="51.01281" lon="2.30195">
        <ele>2.7</ele>
        <time>2020-06-23T10:41:41Z</time>
      </trkpt>
      <trkpt lat="51.01282" lon="2.302">
        <ele>2.8</ele>
        <time>2020-06-23T10:41:42Z</time>
      </trkpt>
      <trkpt lat="51.01282" lon="2.30205">
        <ele>2.9</ele>
        <time>2020-06-23T10:41:43Z</time>
      </trkpt>
      <trkpt lat="51.01284" lon="2.30212">
        <ele>3</ele>
        <time>2020-06-23T10:41:44Z</time>
      </trkpt>
      <trkpt lat="51.01286" lon="2.30219">
        <ele>3.2</ele>
        <time>2020-06-23T10:41:45Z</time>
      </trkpt>
      <trkpt lat="51.01289" lon="2.30227">
        <ele>3.3</ele>
        <time>2020-06-23T10:41:46Z</time>
      </trkpt>
      <trkpt lat="51.0129" lon="2.30232">
        <ele>3.4</ele>
        <time>2020-06-23T10:41:47Z</time>
      </trkpt>
      <trkpt lat="51.01291" lon="2.30238">
        <ele>3.5</ele>
        <time>2020-06-23T10:41:48Z</time>
      </trkpt>
      <trkpt lat="51.01292" lon="2.30244">
        <ele>3.6</ele>
        <time>2020-06-23T10:41:49Z</time>
      </trkpt>
      <trkpt lat="51.01293" lon="2.30249">
        <ele>3.8</ele>
        <time>2020-06-23T10:41:50Z</time>
      </trkpt>
      <trkpt lat="51.01294" lon="2.30254">
        <ele>3.8</ele>
        <time>2020-06-23T10:41:51Z</time>
      </trkpt>
      <trkpt lat="51.01295" lon="2.30259">
        <ele>3.9</ele>
        <time>2020-06-23T10:41:52Z</time>
      </trkpt>
      <trkpt lat="51.01296" lon="2.30264">
        <ele>4</ele>
        <time>2020-06-23T10:41:53Z</time>
      </trkpt>
      <trkpt lat="51.01297" lon="2.30268">
        <ele>4.1</ele>
        <time>2020-06-23T10:41:54Z</time>
      </trkpt>
      <trkpt lat="51.01299" lon="2.30272">
        <ele>4.2</ele>
        <time>2020-06-23T10:41:55Z</time>
      </trkpt>
      <trkpt lat="51.01299" lon="2.30277">
        <ele>4.3</ele>
        <time>2020-06-23T10:41:56Z</time>
      </trkpt>
      <trkpt lat="51.013" lon="2.30283">
        <ele>4.3</ele>
        <time>2020-06-23T10:41:57Z</time>
      </trkpt>
      <trkpt lat="51.013" lon="2.30284">
        <ele>4.4</ele>
        <time>2020-06-23T10:41:58Z</time>
      </trkpt>
      <trkpt lat="51.01301" lon="2.30291">
        <ele>4.4</ele>
        <time>2020-06-23T10:41:59Z</time>
      </trkpt>
      <trkpt lat="51.01301" lon="2.30294">
        <ele>4.4</ele>
        <time>2020-06-23T10:42:00Z</time>
      </trkpt>
      <trkpt lat="51.01301" lon="2.30304">
        <ele>4.5</ele>
        <time>2020-06-23T10:42:01Z</time>
      </trkpt>
      <trkpt lat="51.013" lon="2.30309">
        <ele>4.4</ele>
        <time>2020-06-23T10:42:02Z</time>
      </trkpt>
      <trkpt lat="51.01298" lon="2.30317">
        <ele>4.4</ele>
        <time>2020-06-23T10:42:03Z</time>
      </trkpt>
      <trkpt lat="51.01297" lon="2.30323">
        <ele>4.4</ele>
        <time>2020-06-23T10:42:04Z</time>
      </trkpt>
      <trkpt lat="51.01295" lon="2.30329">
        <ele>4.4</ele>
        <time>2020-06-23T10:42:05Z</time>
      </trkpt>
      <trkpt lat="51.01293" lon="2.30336">
        <ele>4.4</ele>
        <time>2020-06-23T10:42:06Z</time>
      </trkpt>
      <trkpt lat="51.01292" lon="2.30342">
        <ele>4.4</ele>
        <time>2020-06-23T10:42:07Z</time>
      </trkpt>
      <trkpt lat="51.01292" lon="2.30349">
        <ele>4.3</ele>
        <time>2020-06-23T10:42:08Z</time>
      </trkpt>
      <trkpt lat="51.01291" lon="2.30352">
        <ele>4.3</ele>
        <time>2020-06-23T10:42:09Z</time>
      </trkpt>
      <trkpt lat="51.01291" lon="2.30357">
        <ele>4.2</ele>
        <time>2020-06-23T10:42:10Z</time>
      </trkpt>
      <trkpt lat="51.01291" lon="2.30363">
        <ele>4.1</ele>
        <time>2020-06-23T10:42:11Z</time>
      </trkpt>
      <trkpt lat="51.01291" lon="2.30371">
        <ele>4</ele>
        <time>2020-06-23T10:42:12Z</time>
      </trkpt>
      <trkpt lat="51.0129" lon="2.30378">
        <ele>3.9</ele>
        <time>2020-06-23T10:42:13Z</time>
      </trkpt>
      <trkpt lat="51.01289" lon="2.30387">
        <ele>3.7</ele>
        <time>2020-06-23T10:42:14Z</time>
      </trkpt>
      <trkpt lat="51.01287" lon="2.30395">
        <ele>3.6</ele>
        <time>2020-06-23T10:42:15Z</time>
      </trkpt>
      <trkpt lat="51.01286" lon="2.30404">
        <ele>3.4</ele>
        <time>2020-06-23T10:42:16Z</time>
      </trkpt>
      <trkpt lat="51.01284" lon="2.30414">
        <ele>3.2</ele>
        <time>2020-06-23T10:42:17Z</time>
      </trkpt>
      <trkpt lat="51.0128" lon="2.30421">
        <ele>3.1</ele>
        <time>2020-06-23T10:42:18Z</time>
      </trkpt>
      <trkpt lat="51.01279" lon="2.30429">
        <ele>3</ele>
        <time>2020-06-23T10:42:19Z</time>
      </trkpt>
      <trkpt lat="51.01278" lon="2.30439">
        <ele>2.8</ele>
        <time>2020-06-23T10:42:20Z</time>
      </trkpt>
      <trkpt lat="51.01276" lon="2.3045">
        <ele>2.6</ele>
        <time>2020-06-23T10:42:21Z</time>
      </trkpt>
      <trkpt lat="51.01276" lon="2.30456">
        <ele>2.5</ele>
        <time>2020-06-23T10:42:22Z</time>
      </trkpt>
      <trkpt lat="51.01276" lon="2.30465">
        <ele>2.4</ele>
        <time>2020-06-23T10:42:23Z</time>
      </trkpt>
      <trkpt lat="51.01278" lon="2.30476">
        <ele>2.3</ele>
        <time>2020-06-23T10:42:24Z</time>
      </trkpt>
      <trkpt lat="51.01282" lon="2.30486">
        <ele>2.2</ele>
        <time>2020-06-23T10:42:25Z</time>
      </trkpt>
      <trkpt lat="51.01285" lon="2.30496">
        <ele>2.1</ele>
        <time>2020-06-23T10:42:26Z</time>
      </trkpt>
      <trkpt lat="51.01288" lon="2.30503">
        <ele>2</ele>
        <time>2020-06-23T10:42:27Z</time>
      </trkpt>
      <trkpt lat="51.0129" lon="2.30512">
        <ele>1.9</ele>
        <time>2020-06-23T10:42:28Z</time>
      </trkpt>
      <trkpt lat="51.01293" lon="2.30519">
        <ele>1.9</ele>
        <time>2020-06-23T10:42:29Z</time>
      </trkpt>
      <trkpt lat="51.01296" lon="2.30526">
        <ele>1.8</ele>
        <time>2020-06-23T10:42:30Z</time>
      </trkpt>
      <trkpt lat="51.01296" lon="2.30533">
        <ele>1.8</ele>
        <time>2020-06-23T10:42:31Z</time>
      </trkpt>
      <trkpt lat="51.01298" lon="2.30542">
        <ele>1.7</ele>
        <time>2020-06-23T10:42:32Z</time>
      </trkpt>
      <trkpt lat="51.01303" lon="2.30553">
        <ele>1.7</ele>
        <time>2020-06-23T10:42:33Z</time>
      </trkpt>
      <trkpt lat="51.01305" lon="2.30561">
        <ele>1.7</ele>
        <time>2020-06-23T10:42:34Z</time>
      </trkpt>
      <trkpt lat="51.01308" lon="2.30569">
        <ele>1.7</ele>
        <time>2020-06-23T10:42:35Z</time>
      </trkpt>
      <trkpt lat="51.01308" lon="2.30574">
        <ele>1.7</ele>
        <time>2020-06-23T10:42:36Z</time>
      </trkpt>
      <trkpt lat="51.01308" lon="2.30577">
        <ele>1.8</ele>
        <time>2020-06-23T10:42:37Z</time>
      </trkpt>
      <trkpt lat="51.01311" lon="2.30582">
        <ele>1.8</ele>
        <time>2020-06-23T10:42:38Z</time>
      </trkpt>
      <trkpt lat="51.01313" lon="2.30586">
        <ele>1.8</ele>
        <time>2020-06-23T10:42:39Z</time>
      </trkpt>
      <trkpt lat="51.01316" lon="2.30594">
        <ele>1.8</ele>
        <time>2020-06-23T10:42:40Z</time>
      </trkpt>
      <trkpt lat="51.0132" lon="2.306">
        <ele>1.8</ele>
        <time>2020-06-23T10:42:41Z</time>
      </trkpt>
      <trkpt lat="51.01323" lon="2.30605">
        <ele>1.8</ele>
        <time>2020-06-23T10:42:42Z</time>
      </trkpt>
      <trkpt lat="51.01326" lon="2.30612">
        <ele>1.8</ele>
        <time>2020-06-23T10:42:43Z</time>
      </trkpt>
      <trkpt lat="51.01329" lon="2.30616">
        <ele>1.7</ele>
        <time>2020-06-23T10:42:44Z</time>
      </trkpt>
      <trkpt lat="51.01334" lon="2.30621">
        <ele>1.7</ele>
        <time>2020-06-23T10:42:45Z</time>
      </trkpt>
      <trkpt lat="51.01339" lon="2.30624">
        <ele>1.6</ele>
        <time>2020-06-23T10:42:46Z</time>
      </trkpt>
      <trkpt lat="51.01345" lon="2.30625">
        <ele>1.6</ele>
        <time>2020-06-23T10:42:47Z</time>
      </trkpt>
      <trkpt lat="51.0135" lon="2.30627">
        <ele>1.6</ele>
        <time>2020-06-23T10:42:48Z</time>
      </trkpt>
      <trkpt lat="51.01355" lon="2.30629">
        <ele>1.6</ele>
        <time>2020-06-23T10:42:49Z</time>
      </trkpt>
      <trkpt lat="51.0136" lon="2.30631">
        <ele>1.6</ele>
        <time>2020-06-23T10:42:50Z</time>
      </trkpt>
      <trkpt lat="51.01366" lon="2.30633">
        <ele>1.6</ele>
        <time>2020-06-23T10:42:51Z</time>
      </trkpt>
      <trkpt lat="51.01372" lon="2.30637">
        <ele>1.7</ele>
        <time>2020-06-23T10:42:52Z</time>
      </trkpt>
      <trkpt lat="51.01377" lon="2.30639">
        <ele>1.7</ele>
        <time>2020-06-23T10:42:53Z</time>
      </trkpt>
      <trkpt lat="51.01383" lon="2.30639">
        <ele>1.7</ele>
        <time>2020-06-23T10:42:54Z</time>
      </trkpt>
      <trkpt lat="51.01387" lon="2.3064">
        <ele>1.7</ele>
        <time>2020-06-23T10:42:55Z</time>
      </trkpt>
      <trkpt lat="51.01391" lon="2.30643">
        <ele>1.8</ele>
        <time>2020-06-23T10:42:56Z</time>
      </trkpt>
      <trkpt lat="51.01396" lon="2.30652">
        <ele>1.8</ele>
        <time>2020-06-23T10:42:57Z</time>
      </trkpt>
      <trkpt lat="51.014" lon="2.30657">
        <ele>1.8</ele>
        <time>2020-06-23T10:42:58Z</time>
      </trkpt>
      <trkpt lat="51.01404" lon="2.30665">
        <ele>2</ele>
        <time>2020-06-23T10:42:59Z</time>
      </trkpt>
      <trkpt lat="51.01408" lon="2.30673">
        <ele>2.1</ele>
        <time>2020-06-23T10:43:00Z</time>
      </trkpt>
      <trkpt lat="51.0141" lon="2.30681">
        <ele>2.1</ele>
        <time>2020-06-23T10:43:01Z</time>
      </trkpt>
      <trkpt lat="51.01412" lon="2.30689">
        <ele>2.2</ele>
        <time>2020-06-23T10:43:02Z</time>
      </trkpt>
      <trkpt lat="51.01414" lon="2.30697">
        <ele>2.2</ele>
        <time>2020-06-23T10:43:03Z</time>
      </trkpt>
      <trkpt lat="51.01417" lon="2.30705">
        <ele>2.2</ele>
        <time>2020-06-23T10:43:04Z</time>
      </trkpt>
      <trkpt lat="51.01419" lon="2.30713">
        <ele>2.2</ele>
        <time>2020-06-23T10:43:05Z</time>
      </trkpt>
      <trkpt lat="51.0142" lon="2.3072">
        <ele>2.2</ele>
        <time>2020-06-23T10:43:06Z</time>
      </trkpt>
      <trkpt lat="51.01421" lon="2.30726">
        <ele>2.2</ele>
        <time>2020-06-23T10:43:07Z</time>
      </trkpt>
      <trkpt lat="51.01424" lon="2.30734">
        <ele>2.3</ele>
        <time>2020-06-23T10:43:08Z</time>
      </trkpt>
      <trkpt lat="51.01425" lon="2.30741">
        <ele>2.3</ele>
        <time>2020-06-23T10:43:09Z</time>
      </trkpt>
      <trkpt lat="51.01428" lon="2.30748">
        <ele>2.3</ele>
        <time>2020-06-23T10:43:10Z</time>
      </trkpt>
      <trkpt lat="51.0143" lon="2.30756">
        <ele>2.3</ele>
        <time>2020-06-23T10:43:11Z</time>
      </trkpt>
      <trkpt lat="51.01432" lon="2.30764">
        <ele>2.4</ele>
        <time>2020-06-23T10:43:12Z</time>
      </trkpt>
      <trkpt lat="51.01433" lon="2.30773">
        <ele>2.4</ele>
        <time>2020-06-23T10:43:13Z</time>
      </trkpt>
      <trkpt lat="51.01435" lon="2.3078">
        <ele>2.5</ele>
        <time>2020-06-23T10:43:14Z</time>
      </trkpt>
      <trkpt lat="51.01436" lon="2.30787">
        <ele>2.5</ele>
        <time>2020-06-23T10:43:15Z</time>
      </trkpt>
      <trkpt lat="51.01437" lon="2.30795">
        <ele>2.6</ele>
        <time>2020-06-23T10:43:16Z</time>
      </trkpt>
      <trkpt lat="51.01439" lon="2.30801">
        <ele>2.6</ele>
        <time>2020-06-23T10:43:17Z</time>
      </trkpt>
      <trkpt lat="51.01441" lon="2.30809">
        <ele>2.8</ele>
        <time>2020-06-23T10:43:18Z</time>
      </trkpt>
      <trkpt lat="51.01445" lon="2.30818">
        <ele>2.7</ele>
        <time>2020-06-23T10:43:19Z</time>
      </trkpt>
      <trkpt lat="51.01446" lon="2.30825">
        <ele>2.7</ele>
        <time>2020-06-23T10:43:20Z</time>
      </trkpt>
      <trkpt lat="51.01449" lon="2.30832">
        <ele>2.6</ele>
        <time>2020-06-23T10:43:21Z</time>
      </trkpt>
      <trkpt lat="51.01451" lon="2.30841">
        <ele>2.6</ele>
        <time>2020-06-23T10:43:22Z</time>
      </trkpt>
      <trkpt lat="51.01453" lon="2.3085">
        <ele>2.5</ele>
        <time>2020-06-23T10:43:23Z</time>
      </trkpt>
      <trkpt lat="51.01455" lon="2.30859">
        <ele>2.5</ele>
        <time>2020-06-23T10:43:24Z</time>
      </trkpt>
      <trkpt lat="51.01458" lon="2.30868">
        <ele>2.5</ele>
        <time>2020-06-23T10:43:25Z</time>
      </trkpt>
      <trkpt lat="51.01461" lon="2.30876">
        <ele>2.5</ele>
        <time>2020-06-23T10:43:26Z</time>
      </trkpt>
      <trkpt lat="51.01461" lon="2.30881">
        <ele>2.6</ele>
        <time>2020-06-23T10:43:27Z</time>
      </trkpt>
      <trkpt lat="51.01464" lon="2.30889">
        <ele>2.6</ele>
        <time>2020-06-23T10:43:28Z</time>
      </trkpt>
      <trkpt lat="51.01466" lon="2.30897">
        <ele>2.7</ele>
        <time>2020-06-23T10:43:29Z</time>
      </trkpt>
      <trkpt lat="51.01469" lon="2.30906">
        <ele>2.7</ele>
        <time>2020-06-23T10:43:30Z</time>
      </trkpt>
      <trkpt lat="51.01471" lon="2.30914">
        <ele>2.8</ele>
        <time>2020-06-23T10:43:31Z</time>
      </trkpt>
      <trkpt lat="51.01473" lon="2.30921">
        <ele>2.8</ele>
        <time>2020-06-23T10:43:32Z</time>
      </trkpt>
      <trkpt lat="51.01475" lon="2.3093">
        <ele>2.8</ele>
        <time>2020-06-23T10:43:33Z</time>
      </trkpt>
      <trkpt lat="51.01477" lon="2.30939">
        <ele>2.9</ele>
        <time>2020-06-23T10:43:34Z</time>
      </trkpt>
      <trkpt lat="51.01478" lon="2.30945">
        <ele>2.9</ele>
        <time>2020-06-23T10:43:35Z</time>
      </trkpt>
      <trkpt lat="51.01479" lon="2.30953">
        <ele>2.9</ele>
        <time>2020-06-23T10:43:36Z</time>
      </trkpt>
      <trkpt lat="51.01479" lon="2.30958">
        <ele>3</ele>
        <time>2020-06-23T10:43:37Z</time>
      </trkpt>
      <trkpt lat="51.01479" lon="2.30965">
        <ele>3</ele>
        <time>2020-06-23T10:43:38Z</time>
      </trkpt>
      <trkpt lat="51.01481" lon="2.30974">
        <ele>3</ele>
        <time>2020-06-23T10:43:39Z</time>
      </trkpt>
      <trkpt lat="51.01482" lon="2.30982">
        <ele>3</ele>
        <time>2020-06-23T10:43:40Z</time>
      </trkpt>
      <trkpt lat="51.01484" lon="2.3099">
        <ele>2.9</ele>
        <time>2020-06-23T10:43:41Z</time>
      </trkpt>
      <trkpt lat="51.01486" lon="2.31">
        <ele>2.9</ele>
        <time>2020-06-23T10:43:42Z</time>
      </trkpt>
      <trkpt lat="51.01488" lon="2.31007">
        <ele>2.9</ele>
        <time>2020-06-23T10:43:43Z</time>
      </trkpt>
      <trkpt lat="51.01491" lon="2.31015">
        <ele>2.8</ele>
        <time>2020-06-23T10:43:44Z</time>
      </trkpt>
      <trkpt lat="51.01493" lon="2.31024">
        <ele>2.8</ele>
        <time>2020-06-23T10:43:45Z</time>
      </trkpt>
      <trkpt lat="51.01496" lon="2.31034">
        <ele>2.7</ele>
        <time>2020-06-23T10:43:46Z</time>
      </trkpt>
      <trkpt lat="51.01498" lon="2.31043">
        <ele>2.7</ele>
        <time>2020-06-23T10:43:47Z</time>
      </trkpt>
      <trkpt lat="51.015" lon="2.31052">
        <ele>2.6</ele>
        <time>2020-06-23T10:43:48Z</time>
      </trkpt>
      <trkpt lat="51.01502" lon="2.31061">
        <ele>2.6</ele>
        <time>2020-06-23T10:43:49Z</time>
      </trkpt>
      <trkpt lat="51.01505" lon="2.3107">
        <ele>2.5</ele>
        <time>2020-06-23T10:43:50Z</time>
      </trkpt>
      <trkpt lat="51.01507" lon="2.31079">
        <ele>2.5</ele>
        <time>2020-06-23T10:43:51Z</time>
      </trkpt>
      <trkpt lat="51.01509" lon="2.31086">
        <ele>2.5</ele>
        <time>2020-06-23T10:43:52Z</time>
      </trkpt>
      <trkpt lat="51.0151" lon="2.31093">
        <ele>2.5</ele>
        <time>2020-06-23T10:43:53Z</time>
      </trkpt>
      <trkpt lat="51.01512" lon="2.31102">
        <ele>2.4</ele>
        <time>2020-06-23T10:43:54Z</time>
      </trkpt>
      <trkpt lat="51.01514" lon="2.3111">
        <ele>2.4</ele>
        <time>2020-06-23T10:43:55Z</time>
      </trkpt>
      <trkpt lat="51.01516" lon="2.31118">
        <ele>2.4</ele>
        <time>2020-06-23T10:43:56Z</time>
      </trkpt>
      <trkpt lat="51.0152" lon="2.31128">
        <ele>2.4</ele>
        <time>2020-06-23T10:43:57Z</time>
      </trkpt>
      <trkpt lat="51.01522" lon="2.31137">
        <ele>2.5</ele>
        <time>2020-06-23T10:43:58Z</time>
      </trkpt>
      <trkpt lat="51.01524" lon="2.31144">
        <ele>2.5</ele>
        <time>2020-06-23T10:43:59Z</time>
      </trkpt>
      <trkpt lat="51.01525" lon="2.31151">
        <ele>2.5</ele>
        <time>2020-06-23T10:44:00Z</time>
      </trkpt>
      <trkpt lat="51.01527" lon="2.31159">
        <ele>2.5</ele>
        <time>2020-06-23T10:44:01Z</time>
      </trkpt>
      <trkpt lat="51.01529" lon="2.31167">
        <ele>2.5</ele>
        <time>2020-06-23T10:44:02Z</time>
      </trkpt>
      <trkpt lat="51.0153" lon="2.31176">
        <ele>2.5</ele>
        <time>2020-06-23T10:44:03Z</time>
      </trkpt>
      <trkpt lat="51.01532" lon="2.31184">
        <ele>2.5</ele>
        <time>2020-06-23T10:44:04Z</time>
      </trkpt>
      <trkpt lat="51.01534" lon="2.31193">
        <ele>2.6</ele>
        <time>2020-06-23T10:44:05Z</time>
      </trkpt>
      <trkpt lat="51.01536" lon="2.31202">
        <ele>2.6</ele>
        <time>2020-06-23T10:44:06Z</time>
      </trkpt>
      <trkpt lat="51.01538" lon="2.3121">
        <ele>2.6</ele>
        <time>2020-06-23T10:44:07Z</time>
      </trkpt>
      <trkpt lat="51.0154" lon="2.31216">
        <ele>2.6</ele>
        <time>2020-06-23T10:44:08Z</time>
      </trkpt>
      <trkpt lat="51.01542" lon="2.31223">
        <ele>2.6</ele>
        <time>2020-06-23T10:44:09Z</time>
      </trkpt>
      <trkpt lat="51.01544" lon="2.3123">
        <ele>2.6</ele>
        <time>2020-06-23T10:44:10Z</time>
      </trkpt>
      <trkpt lat="51.01545" lon="2.31239">
        <ele>2.6</ele>
        <time>2020-06-23T10:44:11Z</time>
      </trkpt>
      <trkpt lat="51.01547" lon="2.31248">
        <ele>2.6</ele>
        <time>2020-06-23T10:44:12Z</time>
      </trkpt>
      <trkpt lat="51.01549" lon="2.31259">
        <ele>2.6</ele>
        <time>2020-06-23T10:44:13Z</time>
      </trkpt>
      <trkpt lat="51.01552" lon="2.31268">
        <ele>2.5</ele>
        <time>2020-06-23T10:44:14Z</time>
      </trkpt>
      <trkpt lat="51.01556" lon="2.31277">
        <ele>2.5</ele>
        <time>2020-06-23T10:44:15Z</time>
      </trkpt>
      <trkpt lat="51.01558" lon="2.31285">
        <ele>2.5</ele>
        <time>2020-06-23T10:44:16Z</time>
      </trkpt>
      <trkpt lat="51.01561" lon="2.31296">
        <ele>2.4</ele>
        <time>2020-06-23T10:44:17Z</time>
      </trkpt>
      <trkpt lat="51.01563" lon="2.31305">
        <ele>2.4</ele>
        <time>2020-06-23T10:44:18Z</time>
      </trkpt>
      <trkpt lat="51.01566" lon="2.31313">
        <ele>2.4</ele>
        <time>2020-06-23T10:44:19Z</time>
      </trkpt>
      <trkpt lat="51.01568" lon="2.31321">
        <ele>2.4</ele>
        <time>2020-06-23T10:44:20Z</time>
      </trkpt>
      <trkpt lat="51.0157" lon="2.31329">
        <ele>2.4</ele>
        <time>2020-06-23T10:44:21Z</time>
      </trkpt>
      <trkpt lat="51.01572" lon="2.31339">
        <ele>2.4</ele>
        <time>2020-06-23T10:44:22Z</time>
      </trkpt>
      <trkpt lat="51.01574" lon="2.31348">
        <ele>2.4</ele>
        <time>2020-06-23T10:44:23Z</time>
      </trkpt>
      <trkpt lat="51.01576" lon="2.31356">
        <ele>2.4</ele>
        <time>2020-06-23T10:44:24Z</time>
      </trkpt>
      <trkpt lat="51.01578" lon="2.31364">
        <ele>2.4</ele>
        <time>2020-06-23T10:44:25Z</time>
      </trkpt>
      <trkpt lat="51.0158" lon="2.31371">
        <ele>2.4</ele>
        <time>2020-06-23T10:44:26Z</time>
      </trkpt>
      <trkpt lat="51.01581" lon="2.31379">
        <ele>2.4</ele>
        <time>2020-06-23T10:44:27Z</time>
      </trkpt>
      <trkpt lat="51.01581" lon="2.31386">
        <ele>2.4</ele>
        <time>2020-06-23T10:44:28Z</time>
      </trkpt>
      <trkpt lat="51.01584" lon="2.31396">
        <ele>2.5</ele>
        <time>2020-06-23T10:44:29Z</time>
      </trkpt>
      <trkpt lat="51.01587" lon="2.31405">
        <ele>2.5</ele>
        <time>2020-06-23T10:44:30Z</time>
      </trkpt>
      <trkpt lat="51.01589" lon="2.31413">
        <ele>2.5</ele>
        <time>2020-06-23T10:44:31Z</time>
      </trkpt>
      <trkpt lat="51.01591" lon="2.3142">
        <ele>2.5</ele>
        <time>2020-06-23T10:44:32Z</time>
      </trkpt>
      <trkpt lat="51.01593" lon="2.31426">
        <ele>2.6</ele>
        <time>2020-06-23T10:44:33Z</time>
      </trkpt>
      <trkpt lat="51.01594" lon="2.31433">
        <ele>2.6</ele>
        <time>2020-06-23T10:44:34Z</time>
      </trkpt>
      <trkpt lat="51.01595" lon="2.3144">
        <ele>2.6</ele>
        <time>2020-06-23T10:44:35Z</time>
      </trkpt>
      <trkpt lat="51.01597" lon="2.31447">
        <ele>2.6</ele>
        <time>2020-06-23T10:44:36Z</time>
      </trkpt>
      <trkpt lat="51.01598" lon="2.31454">
        <ele>2.6</ele>
        <time>2020-06-23T10:44:37Z</time>
      </trkpt>
      <trkpt lat="51.01596" lon="2.31459">
        <ele>2.6</ele>
        <time>2020-06-23T10:44:38Z</time>
      </trkpt>
      <trkpt lat="51.01596" lon="2.31462">
        <ele>2.7</ele>
        <time>2020-06-23T10:44:39Z</time>
      </trkpt>
      <trkpt lat="51.01593" lon="2.31468">
        <ele>2.8</ele>
        <time>2020-06-23T10:44:40Z</time>
      </trkpt>
      <trkpt lat="51.01591" lon="2.31473">
        <ele>2.8</ele>
        <time>2020-06-23T10:44:41Z</time>
      </trkpt>
      <trkpt lat="51.01587" lon="2.31476">
        <ele>2.9</ele>
        <time>2020-06-23T10:44:42Z</time>
      </trkpt>
      <trkpt lat="51.01584" lon="2.3148">
        <ele>2.9</ele>
        <time>2020-06-23T10:44:43Z</time>
      </trkpt>
      <trkpt lat="51.01581" lon="2.31488">
        <ele>2.8</ele>
        <time>2020-06-23T10:44:44Z</time>
      </trkpt>
      <trkpt lat="51.01579" lon="2.31496">
        <ele>2.7</ele>
        <time>2020-06-23T10:44:45Z</time>
      </trkpt>
      <trkpt lat="51.01579" lon="2.31505">
        <ele>2.5</ele>
        <time>2020-06-23T10:44:46Z</time>
      </trkpt>
      <trkpt lat="51.0158" lon="2.31513">
        <ele>2.5</ele>
        <time>2020-06-23T10:44:47Z</time>
      </trkpt>
      <trkpt lat="51.01583" lon="2.31522">
        <ele>2.4</ele>
        <time>2020-06-23T10:44:48Z</time>
      </trkpt>
      <trkpt lat="51.01587" lon="2.31529">
        <ele>2.3</ele>
        <time>2020-06-23T10:44:49Z</time>
      </trkpt>
      <trkpt lat="51.01591" lon="2.31534">
        <ele>2.3</ele>
        <time>2020-06-23T10:44:50Z</time>
      </trkpt>
      <trkpt lat="51.01596" lon="2.31536">
        <ele>2.3</ele>
        <time>2020-06-23T10:44:51Z</time>
      </trkpt>
      <trkpt lat="51.01601" lon="2.31538">
        <ele>2.3</ele>
        <time>2020-06-23T10:44:52Z</time>
      </trkpt>
      <trkpt lat="51.01605" lon="2.31536">
        <ele>2.3</ele>
        <time>2020-06-23T10:44:53Z</time>
      </trkpt>
      <trkpt lat="51.0161" lon="2.31535">
        <ele>2.4</ele>
        <time>2020-06-23T10:44:54Z</time>
      </trkpt>
      <trkpt lat="51.01616" lon="2.31537">
        <ele>2.5</ele>
        <time>2020-06-23T10:44:55Z</time>
      </trkpt>
      <trkpt lat="51.01621" lon="2.31541">
        <ele>2.5</ele>
        <time>2020-06-23T10:44:56Z</time>
      </trkpt>
      <trkpt lat="51.01625" lon="2.31549">
        <ele>2.4</ele>
        <time>2020-06-23T10:44:57Z</time>
      </trkpt>
      <trkpt lat="51.01628" lon="2.31557">
        <ele>2.4</ele>
        <time>2020-06-23T10:44:58Z</time>
      </trkpt>
      <trkpt lat="51.01632" lon="2.31566">
        <ele>2.4</ele>
        <time>2020-06-23T10:44:59Z</time>
      </trkpt>
      <trkpt lat="51.01635" lon="2.31574">
        <ele>2.4</ele>
        <time>2020-06-23T10:45:00Z</time>
      </trkpt>
      <trkpt lat="51.01636" lon="2.31579">
        <ele>2.4</ele>
        <time>2020-06-23T10:45:01Z</time>
      </trkpt>
      <trkpt lat="51.01639" lon="2.31587">
        <ele>2.3</ele>
        <time>2020-06-23T10:45:02Z</time>
      </trkpt>
      <trkpt lat="51.01641" lon="2.31594">
        <ele>2.3</ele>
        <time>2020-06-23T10:45:03Z</time>
      </trkpt>
      <trkpt lat="51.01643" lon="2.31602">
        <ele>2.3</ele>
        <time>2020-06-23T10:45:04Z</time>
      </trkpt>
      <trkpt lat="51.01644" lon="2.3161">
        <ele>2.3</ele>
        <time>2020-06-23T10:45:05Z</time>
      </trkpt>
      <trkpt lat="51.01646" lon="2.31618">
        <ele>2.3</ele>
        <time>2020-06-23T10:45:06Z</time>
      </trkpt>
      <trkpt lat="51.01647" lon="2.31625">
        <ele>2.3</ele>
        <time>2020-06-23T10:45:07Z</time>
      </trkpt>
      <trkpt lat="51.01648" lon="2.3163">
        <ele>2.4</ele>
        <time>2020-06-23T10:45:08Z</time>
      </trkpt>
      <trkpt lat="51.0165" lon="2.31637">
        <ele>2.4</ele>
        <time>2020-06-23T10:45:09Z</time>
      </trkpt>
      <trkpt lat="51.01651" lon="2.31644">
        <ele>2.4</ele>
        <time>2020-06-23T10:45:10Z</time>
      </trkpt>
      <trkpt lat="51.01653" lon="2.31651">
        <ele>2.4</ele>
        <time>2020-06-23T10:45:11Z</time>
      </trkpt>
      <trkpt lat="51.01654" lon="2.31657">
        <ele>2.4</ele>
        <time>2020-06-23T10:45:12Z</time>
      </trkpt>
      <trkpt lat="51.01656" lon="2.31664">
        <ele>2.4</ele>
        <time>2020-06-23T10:45:13Z</time>
      </trkpt>
      <trkpt lat="51.01657" lon="2.31671">
        <ele>2.4</ele>
        <time>2020-06-23T10:45:14Z</time>
      </trkpt>
      <trkpt lat="51.01658" lon="2.31678">
        <ele>2.4</ele>
        <time>2020-06-23T10:45:15Z</time>
      </trkpt>
      <trkpt lat="51.01661" lon="2.31687">
        <ele>2.4</ele>
        <time>2020-06-23T10:45:16Z</time>
      </trkpt>
      <trkpt lat="51.01662" lon="2.31695">
        <ele>2.4</ele>
        <time>2020-06-23T10:45:17Z</time>
      </trkpt>
      <trkpt lat="51.01664" lon="2.31703">
        <ele>2.4</ele>
        <time>2020-06-23T10:45:18Z</time>
      </trkpt>
      <trkpt lat="51.01665" lon="2.3171">
        <ele>2.4</ele>
        <time>2020-06-23T10:45:19Z</time>
      </trkpt>
      <trkpt lat="51.01666" lon="2.31719">
        <ele>2.4</ele>
        <time>2020-06-23T10:45:20Z</time>
      </trkpt>
      <trkpt lat="51.01668" lon="2.31728">
        <ele>2.4</ele>
        <time>2020-06-23T10:45:21Z</time>
      </trkpt>
      <trkpt lat="51.0167" lon="2.31734">
        <ele>2.4</ele>
        <time>2020-06-23T10:45:22Z</time>
      </trkpt>
      <trkpt lat="51.01672" lon="2.31743">
        <ele>2.3</ele>
        <time>2020-06-23T10:45:23Z</time>
      </trkpt>
      <trkpt lat="51.01674" lon="2.31749">
        <ele>2.3</ele>
        <time>2020-06-23T10:45:24Z</time>
      </trkpt>
      <trkpt lat="51.01675" lon="2.31757">
        <ele>2.2</ele>
        <time>2020-06-23T10:45:25Z</time>
      </trkpt>
      <trkpt lat="51.01678" lon="2.31765">
        <ele>2.2</ele>
        <time>2020-06-23T10:45:26Z</time>
      </trkpt>
      <trkpt lat="51.0168" lon="2.31773">
        <ele>2.2</ele>
        <time>2020-06-23T10:45:27Z</time>
      </trkpt>
      <trkpt lat="51.01682" lon="2.31781">
        <ele>2.2</ele>
        <time>2020-06-23T10:45:28Z</time>
      </trkpt>
      <trkpt lat="51.01683" lon="2.31789">
        <ele>2.2</ele>
        <time>2020-06-23T10:45:29Z</time>
      </trkpt>
      <trkpt lat="51.01686" lon="2.31797">
        <ele>2.2</ele>
        <time>2020-06-23T10:45:30Z</time>
      </trkpt>
      <trkpt lat="51.01688" lon="2.31806">
        <ele>2.2</ele>
        <time>2020-06-23T10:45:31Z</time>
      </trkpt>
      <trkpt lat="51.01691" lon="2.31815">
        <ele>2.2</ele>
        <time>2020-06-23T10:45:32Z</time>
      </trkpt>
      <trkpt lat="51.01693" lon="2.31824">
        <ele>2.2</ele>
        <time>2020-06-23T10:45:33Z</time>
      </trkpt>
      <trkpt lat="51.01695" lon="2.31833">
        <ele>2.3</ele>
        <time>2020-06-23T10:45:34Z</time>
      </trkpt>
      <trkpt lat="51.01698" lon="2.31843">
        <ele>2.3</ele>
        <time>2020-06-23T10:45:35Z</time>
      </trkpt>
      <trkpt lat="51.01699" lon="2.31851">
        <ele>2.3</ele>
        <time>2020-06-23T10:45:36Z</time>
      </trkpt>
      <trkpt lat="51.01702" lon="2.3186">
        <ele>2.3</ele>
        <time>2020-06-23T10:45:37Z</time>
      </trkpt>
      <trkpt lat="51.01704" lon="2.31868">
        <ele>2.3</ele>
        <time>2020-06-23T10:45:38Z</time>
      </trkpt>
      <trkpt lat="51.01706" lon="2.31877">
        <ele>2.3</ele>
        <time>2020-06-23T10:45:39Z</time>
      </trkpt>
      <trkpt lat="51.01709" lon="2.31887">
        <ele>2.3</ele>
        <time>2020-06-23T10:45:40Z</time>
      </trkpt>
      <trkpt lat="51.0171" lon="2.31896">
        <ele>2.4</ele>
        <time>2020-06-23T10:45:41Z</time>
      </trkpt>
      <trkpt lat="51.01712" lon="2.31904">
        <ele>2.5</ele>
        <time>2020-06-23T10:45:42Z</time>
      </trkpt>
      <trkpt lat="51.01714" lon="2.31914">
        <ele>2.5</ele>
        <time>2020-06-23T10:45:43Z</time>
      </trkpt>
      <trkpt lat="51.01716" lon="2.31923">
        <ele>2.6</ele>
        <time>2020-06-23T10:45:44Z</time>
      </trkpt>
      <trkpt lat="51.01717" lon="2.31933">
        <ele>2.6</ele>
        <time>2020-06-23T10:45:45Z</time>
      </trkpt>
      <trkpt lat="51.01718" lon="2.31942">
        <ele>2.6</ele>
        <time>2020-06-23T10:45:46Z</time>
      </trkpt>
      <trkpt lat="51.01719" lon="2.31952">
        <ele>2.6</ele>
        <time>2020-06-23T10:45:47Z</time>
      </trkpt>
      <trkpt lat="51.01719" lon="2.31962">
        <ele>2.7</ele>
        <time>2020-06-23T10:45:48Z</time>
      </trkpt>
      <trkpt lat="51.01719" lon="2.31971">
        <ele>2.7</ele>
        <time>2020-06-23T10:45:49Z</time>
      </trkpt>
      <trkpt lat="51.01721" lon="2.31978">
        <ele>2.7</ele>
        <time>2020-06-23T10:45:50Z</time>
      </trkpt>
      <trkpt lat="51.01722" lon="2.31987">
        <ele>2.8</ele>
        <time>2020-06-23T10:45:51Z</time>
      </trkpt>
      <trkpt lat="51.01724" lon="2.31997">
        <ele>2.9</ele>
        <time>2020-06-23T10:45:52Z</time>
      </trkpt>
      <trkpt lat="51.01725" lon="2.32007">
        <ele>2.9</ele>
        <time>2020-06-23T10:45:53Z</time>
      </trkpt>
      <trkpt lat="51.01726" lon="2.32014">
        <ele>3</ele>
        <time>2020-06-23T10:45:54Z</time>
      </trkpt>
      <trkpt lat="51.01727" lon="2.32019">
        <ele>3.1</ele>
        <time>2020-06-23T10:45:55Z</time>
      </trkpt>
      <trkpt lat="51.01728" lon="2.32026">
        <ele>3.1</ele>
        <time>2020-06-23T10:45:56Z</time>
      </trkpt>
      <trkpt lat="51.01728" lon="2.32033">
        <ele>3.2</ele>
        <time>2020-06-23T10:45:57Z</time>
      </trkpt>
      <trkpt lat="51.01729" lon="2.32038">
        <ele>3.2</ele>
        <time>2020-06-23T10:45:58Z</time>
      </trkpt>
      <trkpt lat="51.0173" lon="2.32042">
        <ele>3.2</ele>
        <time>2020-06-23T10:45:59Z</time>
      </trkpt>
      <trkpt lat="51.01731" lon="2.32046">
        <ele>3.2</ele>
        <time>2020-06-23T10:46:00Z</time>
      </trkpt>
      <trkpt lat="51.01731" lon="2.32047">
        <ele>3.2</ele>
        <time>2020-06-23T10:46:01Z</time>
      </trkpt>
      <trkpt lat="51.01731" lon="2.32047">
        <ele>3.2</ele>
        <time>2020-06-23T10:46:02Z</time>
      </trkpt>
      <trkpt lat="51.01731" lon="2.32048">
        <ele>3.2</ele>
        <time>2020-06-23T10:46:03Z</time>
      </trkpt>
      <trkpt lat="51.01731" lon="2.32048">
        <ele>3.2</ele>
        <time>2020-06-23T10:46:04Z</time>
      </trkpt>
      <trkpt lat="51.01729" lon="2.32053">
        <ele>3.2</ele>
        <time>2020-06-23T10:46:05Z</time>
      </trkpt>
      <trkpt lat="51.01729" lon="2.32054">
        <ele>3.2</ele>
        <time>2020-06-23T10:46:06Z</time>
      </trkpt>
      <trkpt lat="51.01727" lon="2.32059">
        <ele>3.2</ele>
        <time>2020-06-23T10:46:07Z</time>
      </trkpt>
      <trkpt lat="51.01725" lon="2.32065">
        <ele>3.1</ele>
        <time>2020-06-23T10:46:08Z</time>
      </trkpt>
      <trkpt lat="51.01725" lon="2.32068">
        <ele>3.1</ele>
        <time>2020-06-23T10:46:09Z</time>
      </trkpt>
      <trkpt lat="51.01724" lon="2.32075">
        <ele>3.1</ele>
        <time>2020-06-23T10:46:10Z</time>
      </trkpt>
      <trkpt lat="51.01723" lon="2.32084">
        <ele>3.1</ele>
        <time>2020-06-23T10:46:11Z</time>
      </trkpt>
      <trkpt lat="51.01723" lon="2.32091">
        <ele>3.1</ele>
        <time>2020-06-23T10:46:12Z</time>
      </trkpt>
      <trkpt lat="51.01723" lon="2.32098">
        <ele>3</ele>
        <time>2020-06-23T10:46:13Z</time>
      </trkpt>
      <trkpt lat="51.01724" lon="2.32106">
        <ele>3</ele>
        <time>2020-06-23T10:46:14Z</time>
      </trkpt>
      <trkpt lat="51.01726" lon="2.32112">
        <ele>3</ele>
        <time>2020-06-23T10:46:15Z</time>
      </trkpt>
      <trkpt lat="51.01727" lon="2.3212">
        <ele>3</ele>
        <time>2020-06-23T10:46:16Z</time>
      </trkpt>
      <trkpt lat="51.01729" lon="2.32126">
        <ele>3</ele>
        <time>2020-06-23T10:46:17Z</time>
      </trkpt>
      <trkpt lat="51.01732" lon="2.32131">
        <ele>3.1</ele>
        <time>2020-06-23T10:46:18Z</time>
      </trkpt>
      <trkpt lat="51.01736" lon="2.32136">
        <ele>3.1</ele>
        <time>2020-06-23T10:46:19Z</time>
      </trkpt>
      <trkpt lat="51.01741" lon="2.32137">
        <ele>3.1</ele>
        <time>2020-06-23T10:46:20Z</time>
      </trkpt>
      <trkpt lat="51.01747" lon="2.32139">
        <ele>3.3</ele>
        <time>2020-06-23T10:46:21Z</time>
      </trkpt>
      <trkpt lat="51.01752" lon="2.32141">
        <ele>3.4</ele>
        <time>2020-06-23T10:46:22Z</time>
      </trkpt>
      <trkpt lat="51.01757" lon="2.32143">
        <ele>3.7</ele>
        <time>2020-06-23T10:46:23Z</time>
      </trkpt>
      <trkpt lat="51.01762" lon="2.32146">
        <ele>3.5</ele>
        <time>2020-06-23T10:46:24Z</time>
      </trkpt>
      <trkpt lat="51.01765" lon="2.32151">
        <ele>3.3</ele>
        <time>2020-06-23T10:46:25Z</time>
      </trkpt>
      <trkpt lat="51.01768" lon="2.32158">
        <ele>3.1</ele>
        <time>2020-06-23T10:46:26Z</time>
      </trkpt>
      <trkpt lat="51.0177" lon="2.32166">
        <ele>2.9</ele>
        <time>2020-06-23T10:46:27Z</time>
      </trkpt>
      <trkpt lat="51.01773" lon="2.32174">
        <ele>2.7</ele>
        <time>2020-06-23T10:46:28Z</time>
      </trkpt>
      <trkpt lat="51.01775" lon="2.3218">
        <ele>2.4</ele>
        <time>2020-06-23T10:46:29Z</time>
      </trkpt>
      <trkpt lat="51.01778" lon="2.32186">
        <ele>2.2</ele>
        <time>2020-06-23T10:46:30Z</time>
      </trkpt>
      <trkpt lat="51.01781" lon="2.32193">
        <ele>2.3</ele>
        <time>2020-06-23T10:46:31Z</time>
      </trkpt>
      <trkpt lat="51.01783" lon="2.32198">
        <ele>2.4</ele>
        <time>2020-06-23T10:46:32Z</time>
      </trkpt>
      <trkpt lat="51.01785" lon="2.32203">
        <ele>2.5</ele>
        <time>2020-06-23T10:46:33Z</time>
      </trkpt>
      <trkpt lat="51.01787" lon="2.32208">
        <ele>2.5</ele>
        <time>2020-06-23T10:46:34Z</time>
      </trkpt>
      <trkpt lat="51.01789" lon="2.32213">
        <ele>2.6</ele>
        <time>2020-06-23T10:46:35Z</time>
      </trkpt>
      <trkpt lat="51.01791" lon="2.3222">
        <ele>2.6</ele>
        <time>2020-06-23T10:46:36Z</time>
      </trkpt>
      <trkpt lat="51.01793" lon="2.32226">
        <ele>2.6</ele>
        <time>2020-06-23T10:46:37Z</time>
      </trkpt>
      <trkpt lat="51.01795" lon="2.32233">
        <ele>2.7</ele>
        <time>2020-06-23T10:46:38Z</time>
      </trkpt>
      <trkpt lat="51.01796" lon="2.32238">
        <ele>2.7</ele>
        <time>2020-06-23T10:46:39Z</time>
      </trkpt>
      <trkpt lat="51.01799" lon="2.32244">
        <ele>2.8</ele>
        <time>2020-06-23T10:46:40Z</time>
      </trkpt>
      <trkpt lat="51.01801" lon="2.3225">
        <ele>2.8</ele>
        <time>2020-06-23T10:46:41Z</time>
      </trkpt>
      <trkpt lat="51.01803" lon="2.32256">
        <ele>2.9</ele>
        <time>2020-06-23T10:46:42Z</time>
      </trkpt>
      <trkpt lat="51.01804" lon="2.32262">
        <ele>3</ele>
        <time>2020-06-23T10:46:43Z</time>
      </trkpt>
      <trkpt lat="51.01805" lon="2.3227">
        <ele>3</ele>
        <time>2020-06-23T10:46:44Z</time>
      </trkpt>
      <trkpt lat="51.01807" lon="2.32276">
        <ele>3.1</ele>
        <time>2020-06-23T10:46:45Z</time>
      </trkpt>
      <trkpt lat="51.01808" lon="2.32282">
        <ele>3.2</ele>
        <time>2020-06-23T10:46:46Z</time>
      </trkpt>
      <trkpt lat="51.01809" lon="2.32286">
        <ele>3.2</ele>
        <time>2020-06-23T10:46:47Z</time>
      </trkpt>
      <trkpt lat="51.01811" lon="2.32293">
        <ele>3.3</ele>
        <time>2020-06-23T10:46:48Z</time>
      </trkpt>
      <trkpt lat="51.01812" lon="2.32296">
        <ele>3.3</ele>
        <time>2020-06-23T10:46:49Z</time>
      </trkpt>
      <trkpt lat="51.01813" lon="2.32301">
        <ele>3.4</ele>
        <time>2020-06-23T10:46:50Z</time>
      </trkpt>
      <trkpt lat="51.01813" lon="2.32302">
        <ele>3.4</ele>
        <time>2020-06-23T10:46:51Z</time>
      </trkpt>
      <trkpt lat="51.01813" lon="2.32308">
        <ele>3.4</ele>
        <time>2020-06-23T10:46:52Z</time>
      </trkpt>
      <trkpt lat="51.01814" lon="2.32313">
        <ele>3.4</ele>
        <time>2020-06-23T10:46:53Z</time>
      </trkpt>
      <trkpt lat="51.01816" lon="2.32319">
        <ele>3.3</ele>
        <time>2020-06-23T10:46:54Z</time>
      </trkpt>
      <trkpt lat="51.01817" lon="2.32325">
        <ele>3.3</ele>
        <time>2020-06-23T10:46:55Z</time>
      </trkpt>
      <trkpt lat="51.01819" lon="2.32331">
        <ele>3.2</ele>
        <time>2020-06-23T10:46:56Z</time>
      </trkpt>
      <trkpt lat="51.01821" lon="2.32338">
        <ele>3.2</ele>
        <time>2020-06-23T10:46:57Z</time>
      </trkpt>
      <trkpt lat="51.01825" lon="2.32347">
        <ele>3.2</ele>
        <time>2020-06-23T10:46:58Z</time>
      </trkpt>
      <trkpt lat="51.01827" lon="2.32353">
        <ele>3.1</ele>
        <time>2020-06-23T10:46:59Z</time>
      </trkpt>
      <trkpt lat="51.01829" lon="2.32359">
        <ele>3.1</ele>
        <time>2020-06-23T10:47:00Z</time>
      </trkpt>
      <trkpt lat="51.01831" lon="2.32368">
        <ele>3.1</ele>
        <time>2020-06-23T10:47:01Z</time>
      </trkpt>
      <trkpt lat="51.01833" lon="2.32376">
        <ele>3</ele>
        <time>2020-06-23T10:47:02Z</time>
      </trkpt>
      <trkpt lat="51.01835" lon="2.32384">
        <ele>3</ele>
        <time>2020-06-23T10:47:03Z</time>
      </trkpt>
      <trkpt lat="51.01837" lon="2.32391">
        <ele>2.9</ele>
        <time>2020-06-23T10:47:04Z</time>
      </trkpt>
      <trkpt lat="51.01839" lon="2.32398">
        <ele>2.9</ele>
        <time>2020-06-23T10:47:05Z</time>
      </trkpt>
      <trkpt lat="51.01841" lon="2.32405">
        <ele>2.9</ele>
        <time>2020-06-23T10:47:06Z</time>
      </trkpt>
      <trkpt lat="51.01842" lon="2.32409">
        <ele>2.9</ele>
        <time>2020-06-23T10:47:07Z</time>
      </trkpt>
      <trkpt lat="51.01843" lon="2.32415">
        <ele>2.8</ele>
        <time>2020-06-23T10:47:08Z</time>
      </trkpt>
      <trkpt lat="51.01845" lon="2.32424">
        <ele>2.8</ele>
        <time>2020-06-23T10:47:09Z</time>
      </trkpt>
      <trkpt lat="51.01847" lon="2.32434">
        <ele>2.8</ele>
        <time>2020-06-23T10:47:10Z</time>
      </trkpt>
      <trkpt lat="51.0185" lon="2.32444">
        <ele>2.8</ele>
        <time>2020-06-23T10:47:11Z</time>
      </trkpt>
      <trkpt lat="51.01852" lon="2.32454">
        <ele>2.7</ele>
        <time>2020-06-23T10:47:12Z</time>
      </trkpt>
      <trkpt lat="51.01853" lon="2.32462">
        <ele>2.7</ele>
        <time>2020-06-23T10:47:13Z</time>
      </trkpt>
      <trkpt lat="51.01853" lon="2.32468">
        <ele>2.7</ele>
        <time>2020-06-23T10:47:14Z</time>
      </trkpt>
      <trkpt lat="51.01854" lon="2.32477">
        <ele>2.8</ele>
        <time>2020-06-23T10:47:15Z</time>
      </trkpt>
      <trkpt lat="51.01857" lon="2.32486">
        <ele>2.8</ele>
        <time>2020-06-23T10:47:16Z</time>
      </trkpt>
      <trkpt lat="51.01859" lon="2.32495">
        <ele>2.8</ele>
        <time>2020-06-23T10:47:17Z</time>
      </trkpt>
      <trkpt lat="51.01862" lon="2.32505">
        <ele>2.8</ele>
        <time>2020-06-23T10:47:18Z</time>
      </trkpt>
      <trkpt lat="51.01866" lon="2.32516">
        <ele>2.8</ele>
        <time>2020-06-23T10:47:19Z</time>
      </trkpt>
      <trkpt lat="51.01868" lon="2.32523">
        <ele>2.8</ele>
        <time>2020-06-23T10:47:20Z</time>
      </trkpt>
      <trkpt lat="51.01871" lon="2.32531">
        <ele>2.8</ele>
        <time>2020-06-23T10:47:21Z</time>
      </trkpt>
      <trkpt lat="51.01872" lon="2.32539">
        <ele>2.8</ele>
        <time>2020-06-23T10:47:22Z</time>
      </trkpt>
      <trkpt lat="51.01873" lon="2.32544">
        <ele>2.8</ele>
        <time>2020-06-23T10:47:23Z</time>
      </trkpt>
      <trkpt lat="51.01873" lon="2.32549">
        <ele>2.8</ele>
        <time>2020-06-23T10:47:24Z</time>
      </trkpt>
      <trkpt lat="51.01875" lon="2.32557">
        <ele>2.8</ele>
        <time>2020-06-23T10:47:25Z</time>
      </trkpt>
      <trkpt lat="51.01877" lon="2.32566">
        <ele>2.8</ele>
        <time>2020-06-23T10:47:26Z</time>
      </trkpt>
      <trkpt lat="51.01879" lon="2.32574">
        <ele>2.8</ele>
        <time>2020-06-23T10:47:27Z</time>
      </trkpt>
      <trkpt lat="51.01881" lon="2.32583">
        <ele>2.9</ele>
        <time>2020-06-23T10:47:28Z</time>
      </trkpt>
      <trkpt lat="51.01884" lon="2.32592">
        <ele>3</ele>
        <time>2020-06-23T10:47:29Z</time>
      </trkpt>
      <trkpt lat="51.01885" lon="2.326">
        <ele>3</ele>
        <time>2020-06-23T10:47:30Z</time>
      </trkpt>
      <trkpt lat="51.01888" lon="2.32608">
        <ele>3.1</ele>
        <time>2020-06-23T10:47:31Z</time>
      </trkpt>
      <trkpt lat="51.01891" lon="2.32618">
        <ele>3.2</ele>
        <time>2020-06-23T10:47:32Z</time>
      </trkpt>
      <trkpt lat="51.01894" lon="2.32627">
        <ele>3.3</ele>
        <time>2020-06-23T10:47:33Z</time>
      </trkpt>
      <trkpt lat="51.01897" lon="2.32636">
        <ele>3.4</ele>
        <time>2020-06-23T10:47:34Z</time>
      </trkpt>
      <trkpt lat="51.01899" lon="2.32646">
        <ele>3.5</ele>
        <time>2020-06-23T10:47:35Z</time>
      </trkpt>
      <trkpt lat="51.01901" lon="2.32653">
        <ele>3.6</ele>
        <time>2020-06-23T10:47:36Z</time>
      </trkpt>
      <trkpt lat="51.01903" lon="2.3266">
        <ele>3.6</ele>
        <time>2020-06-23T10:47:37Z</time>
      </trkpt>
      <trkpt lat="51.01905" lon="2.32665">
        <ele>3.7</ele>
        <time>2020-06-23T10:47:38Z</time>
      </trkpt>
      <trkpt lat="51.01907" lon="2.32675">
        <ele>3.8</ele>
        <time>2020-06-23T10:47:39Z</time>
      </trkpt>
      <trkpt lat="51.01909" lon="2.3268">
        <ele>3.8</ele>
        <time>2020-06-23T10:47:40Z</time>
      </trkpt>
      <trkpt lat="51.0191" lon="2.32687">
        <ele>3.8</ele>
        <time>2020-06-23T10:47:41Z</time>
      </trkpt>
      <trkpt lat="51.01912" lon="2.32693">
        <ele>3.8</ele>
        <time>2020-06-23T10:47:42Z</time>
      </trkpt>
      <trkpt lat="51.01912" lon="2.32703">
        <ele>3.8</ele>
        <time>2020-06-23T10:47:43Z</time>
      </trkpt>
      <trkpt lat="51.01913" lon="2.32711">
        <ele>3.8</ele>
        <time>2020-06-23T10:47:44Z</time>
      </trkpt>
      <trkpt lat="51.01914" lon="2.32718">
        <ele>3.8</ele>
        <time>2020-06-23T10:47:45Z</time>
      </trkpt>
      <trkpt lat="51.01916" lon="2.32727">
        <ele>3.7</ele>
        <time>2020-06-23T10:47:46Z</time>
      </trkpt>
      <trkpt lat="51.01917" lon="2.32733">
        <ele>3.7</ele>
        <time>2020-06-23T10:47:47Z</time>
      </trkpt>
      <trkpt lat="51.0192" lon="2.3274">
        <ele>3.7</ele>
        <time>2020-06-23T10:47:48Z</time>
      </trkpt>
      <trkpt lat="51.01923" lon="2.32745">
        <ele>3.6</ele>
        <time>2020-06-23T10:47:49Z</time>
      </trkpt>
      <trkpt lat="51.01925" lon="2.32754">
        <ele>3.6</ele>
        <time>2020-06-23T10:47:50Z</time>
      </trkpt>
      <trkpt lat="51.01928" lon="2.32763">
        <ele>3.6</ele>
        <time>2020-06-23T10:47:51Z</time>
      </trkpt>
      <trkpt lat="51.0193" lon="2.32772">
        <ele>3.5</ele>
        <time>2020-06-23T10:47:52Z</time>
      </trkpt>
      <trkpt lat="51.01931" lon="2.3278">
        <ele>3.5</ele>
        <time>2020-06-23T10:47:53Z</time>
      </trkpt>
      <trkpt lat="51.01934" lon="2.32788">
        <ele>3.5</ele>
        <time>2020-06-23T10:47:54Z</time>
      </trkpt>
      <trkpt lat="51.01935" lon="2.32795">
        <ele>3.5</ele>
        <time>2020-06-23T10:47:55Z</time>
      </trkpt>
      <trkpt lat="51.01938" lon="2.32804">
        <ele>3.5</ele>
        <time>2020-06-23T10:47:56Z</time>
      </trkpt>
      <trkpt lat="51.0194" lon="2.3281">
        <ele>3.6</ele>
        <time>2020-06-23T10:47:57Z</time>
      </trkpt>
      <trkpt lat="51.01942" lon="2.32817">
        <ele>3.6</ele>
        <time>2020-06-23T10:47:58Z</time>
      </trkpt>
      <trkpt lat="51.01945" lon="2.32826">
        <ele>3.6</ele>
        <time>2020-06-23T10:47:59Z</time>
      </trkpt>
      <trkpt lat="51.01947" lon="2.32834">
        <ele>3.6</ele>
        <time>2020-06-23T10:48:00Z</time>
      </trkpt>
      <trkpt lat="51.01949" lon="2.32844">
        <ele>3.7</ele>
        <time>2020-06-23T10:48:01Z</time>
      </trkpt>
      <trkpt lat="51.01951" lon="2.32851">
        <ele>3.7</ele>
        <time>2020-06-23T10:48:02Z</time>
      </trkpt>
      <trkpt lat="51.01953" lon="2.32861">
        <ele>3.6</ele>
        <time>2020-06-23T10:48:03Z</time>
      </trkpt>
      <trkpt lat="51.01954" lon="2.32867">
        <ele>3.6</ele>
        <time>2020-06-23T10:48:04Z</time>
      </trkpt>
      <trkpt lat="51.01956" lon="2.32876">
        <ele>3.6</ele>
        <time>2020-06-23T10:48:05Z</time>
      </trkpt>
      <trkpt lat="51.01958" lon="2.32882">
        <ele>3.6</ele>
        <time>2020-06-23T10:48:06Z</time>
      </trkpt>
      <trkpt lat="51.01959" lon="2.32888">
        <ele>3.6</ele>
        <time>2020-06-23T10:48:07Z</time>
      </trkpt>
      <trkpt lat="51.01961" lon="2.32896">
        <ele>3.7</ele>
        <time>2020-06-23T10:48:08Z</time>
      </trkpt>
      <trkpt lat="51.01962" lon="2.32903">
        <ele>3.8</ele>
        <time>2020-06-23T10:48:09Z</time>
      </trkpt>
      <trkpt lat="51.01964" lon="2.32908">
        <ele>4.2</ele>
        <time>2020-06-23T10:48:10Z</time>
      </trkpt>
      <trkpt lat="51.01966" lon="2.32914">
        <ele>4.1</ele>
        <time>2020-06-23T10:48:11Z</time>
      </trkpt>
      <trkpt lat="51.01967" lon="2.32919">
        <ele>4.1</ele>
        <time>2020-06-23T10:48:12Z</time>
      </trkpt>
      <trkpt lat="51.01969" lon="2.32925">
        <ele>4.1</ele>
        <time>2020-06-23T10:48:13Z</time>
      </trkpt>
      <trkpt lat="51.01971" lon="2.32931">
        <ele>4</ele>
        <time>2020-06-23T10:48:14Z</time>
      </trkpt>
      <trkpt lat="51.01972" lon="2.32934">
        <ele>4</ele>
        <time>2020-06-23T10:48:15Z</time>
      </trkpt>
      <trkpt lat="51.01973" lon="2.32941">
        <ele>4</ele>
        <time>2020-06-23T10:48:16Z</time>
      </trkpt>
      <trkpt lat="51.01975" lon="2.32946">
        <ele>4</ele>
        <time>2020-06-23T10:48:17Z</time>
      </trkpt>
      <trkpt lat="51.01976" lon="2.32952">
        <ele>3.9</ele>
        <time>2020-06-23T10:48:18Z</time>
      </trkpt>
      <trkpt lat="51.01978" lon="2.32958">
        <ele>3.9</ele>
        <time>2020-06-23T10:48:19Z</time>
      </trkpt>
      <trkpt lat="51.0198" lon="2.32966">
        <ele>3.9</ele>
        <time>2020-06-23T10:48:20Z</time>
      </trkpt>
      <trkpt lat="51.01981" lon="2.32974">
        <ele>3.9</ele>
        <time>2020-06-23T10:48:21Z</time>
      </trkpt>
      <trkpt lat="51.01983" lon="2.32982">
        <ele>3.9</ele>
        <time>2020-06-23T10:48:22Z</time>
      </trkpt>
      <trkpt lat="51.01985" lon="2.32991">
        <ele>4</ele>
        <time>2020-06-23T10:48:23Z</time>
      </trkpt>
      <trkpt lat="51.01985" lon="2.32998">
        <ele>3.9</ele>
        <time>2020-06-23T10:48:24Z</time>
      </trkpt>
      <trkpt lat="51.01986" lon="2.33008">
        <ele>3.9</ele>
        <time>2020-06-23T10:48:25Z</time>
      </trkpt>
      <trkpt lat="51.01989" lon="2.33017">
        <ele>3.8</ele>
        <time>2020-06-23T10:48:26Z</time>
      </trkpt>
      <trkpt lat="51.01991" lon="2.33027">
        <ele>3.8</ele>
        <time>2020-06-23T10:48:27Z</time>
      </trkpt>
      <trkpt lat="51.01993" lon="2.33037">
        <ele>3.8</ele>
        <time>2020-06-23T10:48:28Z</time>
      </trkpt>
      <trkpt lat="51.01995" lon="2.33045">
        <ele>3.9</ele>
        <time>2020-06-23T10:48:29Z</time>
      </trkpt>
      <trkpt lat="51.01997" lon="2.33056">
        <ele>3.9</ele>
        <time>2020-06-23T10:48:30Z</time>
      </trkpt>
      <trkpt lat="51.01999" lon="2.33064">
        <ele>3.9</ele>
        <time>2020-06-23T10:48:31Z</time>
      </trkpt>
      <trkpt lat="51.02001" lon="2.33072">
        <ele>4</ele>
        <time>2020-06-23T10:48:32Z</time>
      </trkpt>
      <trkpt lat="51.02004" lon="2.33081">
        <ele>4</ele>
        <time>2020-06-23T10:48:33Z</time>
      </trkpt>
      <trkpt lat="51.02006" lon="2.33089">
        <ele>4.1</ele>
        <time>2020-06-23T10:48:34Z</time>
      </trkpt>
      <trkpt lat="51.02008" lon="2.33098">
        <ele>4.2</ele>
        <time>2020-06-23T10:48:35Z</time>
      </trkpt>
      <trkpt lat="51.0201" lon="2.33106">
        <ele>4.3</ele>
        <time>2020-06-23T10:48:36Z</time>
      </trkpt>
      <trkpt lat="51.02013" lon="2.33115">
        <ele>4.4</ele>
        <time>2020-06-23T10:48:37Z</time>
      </trkpt>
      <trkpt lat="51.02016" lon="2.33124">
        <ele>4.5</ele>
        <time>2020-06-23T10:48:38Z</time>
      </trkpt>
      <trkpt lat="51.02018" lon="2.33132">
        <ele>4.6</ele>
        <time>2020-06-23T10:48:39Z</time>
      </trkpt>
      <trkpt lat="51.0202" lon="2.3314">
        <ele>4.7</ele>
        <time>2020-06-23T10:48:40Z</time>
      </trkpt>
      <trkpt lat="51.02022" lon="2.33149">
        <ele>4.9</ele>
        <time>2020-06-23T10:48:41Z</time>
      </trkpt>
      <trkpt lat="51.02025" lon="2.33159">
        <ele>5</ele>
        <time>2020-06-23T10:48:42Z</time>
      </trkpt>
      <trkpt lat="51.02026" lon="2.33169">
        <ele>5.1</ele>
        <time>2020-06-23T10:48:43Z</time>
      </trkpt>
      <trkpt lat="51.02028" lon="2.33178">
        <ele>5.2</ele>
        <time>2020-06-23T10:48:44Z</time>
      </trkpt>
      <trkpt lat="51.0203" lon="2.33186">
        <ele>5.3</ele>
        <time>2020-06-23T10:48:45Z</time>
      </trkpt>
      <trkpt lat="51.02033" lon="2.33195">
        <ele>5.4</ele>
        <time>2020-06-23T10:48:46Z</time>
      </trkpt>
      <trkpt lat="51.02035" lon="2.33205">
        <ele>5.5</ele>
        <time>2020-06-23T10:48:47Z</time>
      </trkpt>
      <trkpt lat="51.02037" lon="2.33214">
        <ele>5.6</ele>
        <time>2020-06-23T10:48:48Z</time>
      </trkpt>
      <trkpt lat="51.02039" lon="2.33223">
        <ele>5.6</ele>
        <time>2020-06-23T10:48:49Z</time>
      </trkpt>
      <trkpt lat="51.02042" lon="2.33233">
        <ele>5.8</ele>
        <time>2020-06-23T10:48:50Z</time>
      </trkpt>
      <trkpt lat="51.02045" lon="2.33242">
        <ele>5.6</ele>
        <time>2020-06-23T10:48:51Z</time>
      </trkpt>
      <trkpt lat="51.02047" lon="2.33251">
        <ele>5.4</ele>
        <time>2020-06-23T10:48:52Z</time>
      </trkpt>
      <trkpt lat="51.02049" lon="2.3326">
        <ele>5.2</ele>
        <time>2020-06-23T10:48:53Z</time>
      </trkpt>
      <trkpt lat="51.02051" lon="2.33268">
        <ele>5.1</ele>
        <time>2020-06-23T10:48:54Z</time>
      </trkpt>
      <trkpt lat="51.02053" lon="2.33276">
        <ele>5</ele>
        <time>2020-06-23T10:48:55Z</time>
      </trkpt>
      <trkpt lat="51.02055" lon="2.33286">
        <ele>5</ele>
        <time>2020-06-23T10:48:56Z</time>
      </trkpt>
      <trkpt lat="51.02057" lon="2.33295">
        <ele>4.9</ele>
        <time>2020-06-23T10:48:57Z</time>
      </trkpt>
      <trkpt lat="51.0206" lon="2.33304">
        <ele>4.9</ele>
        <time>2020-06-23T10:48:58Z</time>
      </trkpt>
      <trkpt lat="51.02062" lon="2.33314">
        <ele>4.8</ele>
        <time>2020-06-23T10:48:59Z</time>
      </trkpt>
      <trkpt lat="51.02064" lon="2.33323">
        <ele>4.8</ele>
        <time>2020-06-23T10:49:00Z</time>
      </trkpt>
      <trkpt lat="51.02067" lon="2.33332">
        <ele>4.8</ele>
        <time>2020-06-23T10:49:01Z</time>
      </trkpt>
      <trkpt lat="51.02069" lon="2.33342">
        <ele>4.8</ele>
        <time>2020-06-23T10:49:02Z</time>
      </trkpt>
      <trkpt lat="51.02073" lon="2.33353">
        <ele>4.8</ele>
        <time>2020-06-23T10:49:03Z</time>
      </trkpt>
      <trkpt lat="51.02075" lon="2.33364">
        <ele>4.8</ele>
        <time>2020-06-23T10:49:04Z</time>
      </trkpt>
      <trkpt lat="51.02076" lon="2.33374">
        <ele>4.7</ele>
        <time>2020-06-23T10:49:05Z</time>
      </trkpt>
      <trkpt lat="51.02078" lon="2.33384">
        <ele>4.7</ele>
        <time>2020-06-23T10:49:06Z</time>
      </trkpt>
      <trkpt lat="51.0208" lon="2.33395">
        <ele>4.7</ele>
        <time>2020-06-23T10:49:07Z</time>
      </trkpt>
      <trkpt lat="51.02082" lon="2.33404">
        <ele>4.7</ele>
        <time>2020-06-23T10:49:08Z</time>
      </trkpt>
      <trkpt lat="51.02084" lon="2.33413">
        <ele>4.7</ele>
        <time>2020-06-23T10:49:09Z</time>
      </trkpt>
      <trkpt lat="51.02085" lon="2.3342">
        <ele>4.7</ele>
        <time>2020-06-23T10:49:10Z</time>
      </trkpt>
      <trkpt lat="51.02086" lon="2.33429">
        <ele>4.7</ele>
        <time>2020-06-23T10:49:11Z</time>
      </trkpt>
      <trkpt lat="51.02088" lon="2.33439">
        <ele>4.7</ele>
        <time>2020-06-23T10:49:12Z</time>
      </trkpt>
      <trkpt lat="51.0209" lon="2.3345">
        <ele>4.7</ele>
        <time>2020-06-23T10:49:13Z</time>
      </trkpt>
      <trkpt lat="51.02091" lon="2.33459">
        <ele>4.7</ele>
        <time>2020-06-23T10:49:14Z</time>
      </trkpt>
      <trkpt lat="51.02093" lon="2.33469">
        <ele>4.7</ele>
        <time>2020-06-23T10:49:15Z</time>
      </trkpt>
      <trkpt lat="51.02096" lon="2.3348">
        <ele>4.7</ele>
        <time>2020-06-23T10:49:16Z</time>
      </trkpt>
      <trkpt lat="51.02099" lon="2.3349">
        <ele>4.7</ele>
        <time>2020-06-23T10:49:17Z</time>
      </trkpt>
      <trkpt lat="51.02102" lon="2.33499">
        <ele>4.6</ele>
        <time>2020-06-23T10:49:18Z</time>
      </trkpt>
      <trkpt lat="51.02105" lon="2.33507">
        <ele>4.6</ele>
        <time>2020-06-23T10:49:19Z</time>
      </trkpt>
      <trkpt lat="51.02106" lon="2.33515">
        <ele>4.6</ele>
        <time>2020-06-23T10:49:20Z</time>
      </trkpt>
      <trkpt lat="51.02108" lon="2.33523">
        <ele>4.5</ele>
        <time>2020-06-23T10:49:21Z</time>
      </trkpt>
      <trkpt lat="51.0211" lon="2.33533">
        <ele>4.4</ele>
        <time>2020-06-23T10:49:22Z</time>
      </trkpt>
      <trkpt lat="51.02113" lon="2.33543">
        <ele>4.4</ele>
        <time>2020-06-23T10:49:23Z</time>
      </trkpt>
      <trkpt lat="51.02115" lon="2.33553">
        <ele>4.4</ele>
        <time>2020-06-23T10:49:24Z</time>
      </trkpt>
      <trkpt lat="51.02117" lon="2.33564">
        <ele>4.4</ele>
        <time>2020-06-23T10:49:25Z</time>
      </trkpt>
      <trkpt lat="51.02119" lon="2.33573">
        <ele>4.4</ele>
        <time>2020-06-23T10:49:26Z</time>
      </trkpt>
      <trkpt lat="51.02121" lon="2.33582">
        <ele>4.4</ele>
        <time>2020-06-23T10:49:27Z</time>
      </trkpt>
      <trkpt lat="51.02123" lon="2.33592">
        <ele>4.4</ele>
        <time>2020-06-23T10:49:28Z</time>
      </trkpt>
      <trkpt lat="51.02126" lon="2.33601">
        <ele>4.5</ele>
        <time>2020-06-23T10:49:29Z</time>
      </trkpt>
      <trkpt lat="51.02128" lon="2.3361">
        <ele>4.5</ele>
        <time>2020-06-23T10:49:30Z</time>
      </trkpt>
      <trkpt lat="51.0213" lon="2.33616">
        <ele>4.5</ele>
        <time>2020-06-23T10:49:31Z</time>
      </trkpt>
      <trkpt lat="51.02132" lon="2.33624">
        <ele>4.5</ele>
        <time>2020-06-23T10:49:32Z</time>
      </trkpt>
      <trkpt lat="51.02133" lon="2.33633">
        <ele>4.5</ele>
        <time>2020-06-23T10:49:33Z</time>
      </trkpt>
      <trkpt lat="51.02135" lon="2.3364">
        <ele>4.5</ele>
        <time>2020-06-23T10:49:34Z</time>
      </trkpt>
      <trkpt lat="51.02137" lon="2.3365">
        <ele>4.5</ele>
        <time>2020-06-23T10:49:35Z</time>
      </trkpt>
      <trkpt lat="51.0214" lon="2.33658">
        <ele>4.5</ele>
        <time>2020-06-23T10:49:36Z</time>
      </trkpt>
      <trkpt lat="51.02141" lon="2.33665">
        <ele>4.6</ele>
        <time>2020-06-23T10:49:37Z</time>
      </trkpt>
      <trkpt lat="51.02144" lon="2.33674">
        <ele>4.6</ele>
        <time>2020-06-23T10:49:38Z</time>
      </trkpt>
      <trkpt lat="51.02146" lon="2.33684">
        <ele>4.6</ele>
        <time>2020-06-23T10:49:39Z</time>
      </trkpt>
      <trkpt lat="51.02148" lon="2.33694">
        <ele>4.6</ele>
        <time>2020-06-23T10:49:40Z</time>
      </trkpt>
      <trkpt lat="51.0215" lon="2.33705">
        <ele>4.6</ele>
        <time>2020-06-23T10:49:41Z</time>
      </trkpt>
      <trkpt lat="51.02152" lon="2.33713">
        <ele>4.6</ele>
        <time>2020-06-23T10:49:42Z</time>
      </trkpt>
      <trkpt lat="51.02153" lon="2.33722">
        <ele>4.6</ele>
        <time>2020-06-23T10:49:43Z</time>
      </trkpt>
      <trkpt lat="51.02155" lon="2.33732">
        <ele>4.6</ele>
        <time>2020-06-23T10:49:44Z</time>
      </trkpt>
      <trkpt lat="51.02157" lon="2.33741">
        <ele>4.6</ele>
        <time>2020-06-23T10:49:45Z</time>
      </trkpt>
      <trkpt lat="51.02159" lon="2.33751">
        <ele>4.6</ele>
        <time>2020-06-23T10:49:46Z</time>
      </trkpt>
      <trkpt lat="51.0216" lon="2.33759">
        <ele>4.6</ele>
        <time>2020-06-23T10:49:47Z</time>
      </trkpt>
      <trkpt lat="51.02162" lon="2.3377">
        <ele>4.7</ele>
        <time>2020-06-23T10:49:48Z</time>
      </trkpt>
      <trkpt lat="51.02163" lon="2.33778">
        <ele>4.7</ele>
        <time>2020-06-23T10:49:49Z</time>
      </trkpt>
      <trkpt lat="51.02163" lon="2.33787">
        <ele>4.7</ele>
        <time>2020-06-23T10:49:50Z</time>
      </trkpt>
      <trkpt lat="51.02165" lon="2.33796">
        <ele>4.8</ele>
        <time>2020-06-23T10:49:51Z</time>
      </trkpt>
      <trkpt lat="51.02167" lon="2.33807">
        <ele>4.9</ele>
        <time>2020-06-23T10:49:52Z</time>
      </trkpt>
      <trkpt lat="51.02169" lon="2.33815">
        <ele>4.9</ele>
        <time>2020-06-23T10:49:53Z</time>
      </trkpt>
      <trkpt lat="51.02171" lon="2.33824">
        <ele>4.9</ele>
        <time>2020-06-23T10:49:54Z</time>
      </trkpt>
      <trkpt lat="51.02173" lon="2.33833">
        <ele>4.9</ele>
        <time>2020-06-23T10:49:55Z</time>
      </trkpt>
      <trkpt lat="51.02175" lon="2.33842">
        <ele>4.9</ele>
        <time>2020-06-23T10:49:56Z</time>
      </trkpt>
      <trkpt lat="51.02175" lon="2.33849">
        <ele>4.9</ele>
        <time>2020-06-23T10:49:57Z</time>
      </trkpt>
      <trkpt lat="51.02176" lon="2.33858">
        <ele>4.9</ele>
        <time>2020-06-23T10:49:58Z</time>
      </trkpt>
      <trkpt lat="51.02178" lon="2.33869">
        <ele>4.8</ele>
        <time>2020-06-23T10:49:59Z</time>
      </trkpt>
      <trkpt lat="51.0218" lon="2.3388">
        <ele>4.8</ele>
        <time>2020-06-23T10:50:00Z</time>
      </trkpt>
      <trkpt lat="51.02182" lon="2.33886">
        <ele>4.8</ele>
        <time>2020-06-23T10:50:01Z</time>
      </trkpt>
      <trkpt lat="51.02184" lon="2.33893">
        <ele>4.7</ele>
        <time>2020-06-23T10:50:02Z</time>
      </trkpt>
      <trkpt lat="51.02185" lon="2.33902">
        <ele>4.7</ele>
        <time>2020-06-23T10:50:03Z</time>
      </trkpt>
      <trkpt lat="51.02186" lon="2.3391">
        <ele>4.6</ele>
        <time>2020-06-23T10:50:04Z</time>
      </trkpt>
      <trkpt lat="51.02188" lon="2.33919">
        <ele>4.6</ele>
        <time>2020-06-23T10:50:05Z</time>
      </trkpt>
      <trkpt lat="51.02189" lon="2.33929">
        <ele>4.5</ele>
        <time>2020-06-23T10:50:06Z</time>
      </trkpt>
      <trkpt lat="51.02191" lon="2.33936">
        <ele>4.5</ele>
        <time>2020-06-23T10:50:07Z</time>
      </trkpt>
      <trkpt lat="51.02194" lon="2.33944">
        <ele>4.5</ele>
        <time>2020-06-23T10:50:08Z</time>
      </trkpt>
      <trkpt lat="51.02196" lon="2.33954">
        <ele>4.4</ele>
        <time>2020-06-23T10:50:09Z</time>
      </trkpt>
      <trkpt lat="51.02196" lon="2.33959">
        <ele>4.4</ele>
        <time>2020-06-23T10:50:10Z</time>
      </trkpt>
      <trkpt lat="51.02196" lon="2.33968">
        <ele>4.4</ele>
        <time>2020-06-23T10:50:11Z</time>
      </trkpt>
      <trkpt lat="51.02197" lon="2.33975">
        <ele>4.4</ele>
        <time>2020-06-23T10:50:12Z</time>
      </trkpt>
      <trkpt lat="51.02199" lon="2.33984">
        <ele>4.4</ele>
        <time>2020-06-23T10:50:13Z</time>
      </trkpt>
      <trkpt lat="51.022" lon="2.33995">
        <ele>4.4</ele>
        <time>2020-06-23T10:50:14Z</time>
      </trkpt>
      <trkpt lat="51.02203" lon="2.34005">
        <ele>4.3</ele>
        <time>2020-06-23T10:50:15Z</time>
      </trkpt>
      <trkpt lat="51.02205" lon="2.34015">
        <ele>4.3</ele>
        <time>2020-06-23T10:50:16Z</time>
      </trkpt>
      <trkpt lat="51.02207" lon="2.34024">
        <ele>4.3</ele>
        <time>2020-06-23T10:50:17Z</time>
      </trkpt>
      <trkpt lat="51.02211" lon="2.34031">
        <ele>4.3</ele>
        <time>2020-06-23T10:50:18Z</time>
      </trkpt>
      <trkpt lat="51.02214" lon="2.34037">
        <ele>4.3</ele>
        <time>2020-06-23T10:50:19Z</time>
      </trkpt>
      <trkpt lat="51.02216" lon="2.34043">
        <ele>4.3</ele>
        <time>2020-06-23T10:50:20Z</time>
      </trkpt>
      <trkpt lat="51.02218" lon="2.34051">
        <ele>4.3</ele>
        <time>2020-06-23T10:50:21Z</time>
      </trkpt>
      <trkpt lat="51.0222" lon="2.34058">
        <ele>4.3</ele>
        <time>2020-06-23T10:50:22Z</time>
      </trkpt>
      <trkpt lat="51.02223" lon="2.34065">
        <ele>4.3</ele>
        <time>2020-06-23T10:50:23Z</time>
      </trkpt>
      <trkpt lat="51.02224" lon="2.34072">
        <ele>4.3</ele>
        <time>2020-06-23T10:50:24Z</time>
      </trkpt>
      <trkpt lat="51.02226" lon="2.3408">
        <ele>4.3</ele>
        <time>2020-06-23T10:50:25Z</time>
      </trkpt>
      <trkpt lat="51.02228" lon="2.34088">
        <ele>4.3</ele>
        <time>2020-06-23T10:50:26Z</time>
      </trkpt>
      <trkpt lat="51.02229" lon="2.34095">
        <ele>4.3</ele>
        <time>2020-06-23T10:50:27Z</time>
      </trkpt>
      <trkpt lat="51.02231" lon="2.34102">
        <ele>4.3</ele>
        <time>2020-06-23T10:50:28Z</time>
      </trkpt>
      <trkpt lat="51.02233" lon="2.3411">
        <ele>4.3</ele>
        <time>2020-06-23T10:50:29Z</time>
      </trkpt>
      <trkpt lat="51.02235" lon="2.34117">
        <ele>4.3</ele>
        <time>2020-06-23T10:50:30Z</time>
      </trkpt>
      <trkpt lat="51.02237" lon="2.34127">
        <ele>4.3</ele>
        <time>2020-06-23T10:50:31Z</time>
      </trkpt>
      <trkpt lat="51.0224" lon="2.34133">
        <ele>4.3</ele>
        <time>2020-06-23T10:50:32Z</time>
      </trkpt>
      <trkpt lat="51.02242" lon="2.34142">
        <ele>4.3</ele>
        <time>2020-06-23T10:50:33Z</time>
      </trkpt>
      <trkpt lat="51.02244" lon="2.34148">
        <ele>4.3</ele>
        <time>2020-06-23T10:50:34Z</time>
      </trkpt>
      <trkpt lat="51.02246" lon="2.34156">
        <ele>4.3</ele>
        <time>2020-06-23T10:50:35Z</time>
      </trkpt>
      <trkpt lat="51.02249" lon="2.34165">
        <ele>4.3</ele>
        <time>2020-06-23T10:50:36Z</time>
      </trkpt>
      <trkpt lat="51.02251" lon="2.34172">
        <ele>4.3</ele>
        <time>2020-06-23T10:50:37Z</time>
      </trkpt>
      <trkpt lat="51.02253" lon="2.3418">
        <ele>4.3</ele>
        <time>2020-06-23T10:50:38Z</time>
      </trkpt>
      <trkpt lat="51.02254" lon="2.34188">
        <ele>4.2</ele>
        <time>2020-06-23T10:50:39Z</time>
      </trkpt>
      <trkpt lat="51.02256" lon="2.34196">
        <ele>4.2</ele>
        <time>2020-06-23T10:50:40Z</time>
      </trkpt>
      <trkpt lat="51.02258" lon="2.34205">
        <ele>4.2</ele>
        <time>2020-06-23T10:50:41Z</time>
      </trkpt>
      <trkpt lat="51.02259" lon="2.34214">
        <ele>4.2</ele>
        <time>2020-06-23T10:50:42Z</time>
      </trkpt>
      <trkpt lat="51.02261" lon="2.34222">
        <ele>4.2</ele>
        <time>2020-06-23T10:50:43Z</time>
      </trkpt>
      <trkpt lat="51.02262" lon="2.3423">
        <ele>4.1</ele>
        <time>2020-06-23T10:50:44Z</time>
      </trkpt>
      <trkpt lat="51.02264" lon="2.34239">
        <ele>4.1</ele>
        <time>2020-06-23T10:50:45Z</time>
      </trkpt>
      <trkpt lat="51.02265" lon="2.34247">
        <ele>4.1</ele>
        <time>2020-06-23T10:50:46Z</time>
      </trkpt>
      <trkpt lat="51.02266" lon="2.34254">
        <ele>4.1</ele>
        <time>2020-06-23T10:50:47Z</time>
      </trkpt>
      <trkpt lat="51.02268" lon="2.34262">
        <ele>4.1</ele>
        <time>2020-06-23T10:50:48Z</time>
      </trkpt>
      <trkpt lat="51.0227" lon="2.34272">
        <ele>4.1</ele>
        <time>2020-06-23T10:50:49Z</time>
      </trkpt>
      <trkpt lat="51.02272" lon="2.34281">
        <ele>4.1</ele>
        <time>2020-06-23T10:50:50Z</time>
      </trkpt>
      <trkpt lat="51.02274" lon="2.34289">
        <ele>4.1</ele>
        <time>2020-06-23T10:50:51Z</time>
      </trkpt>
      <trkpt lat="51.02276" lon="2.34297">
        <ele>4.1</ele>
        <time>2020-06-23T10:50:52Z</time>
      </trkpt>
      <trkpt lat="51.02277" lon="2.34304">
        <ele>4.2</ele>
        <time>2020-06-23T10:50:53Z</time>
      </trkpt>
      <trkpt lat="51.02278" lon="2.34311">
        <ele>4.2</ele>
        <time>2020-06-23T10:50:54Z</time>
      </trkpt>
      <trkpt lat="51.02279" lon="2.34319">
        <ele>4.3</ele>
        <time>2020-06-23T10:50:55Z</time>
      </trkpt>
      <trkpt lat="51.02281" lon="2.34328">
        <ele>4.3</ele>
        <time>2020-06-23T10:50:56Z</time>
      </trkpt>
      <trkpt lat="51.02283" lon="2.34338">
        <ele>4.3</ele>
        <time>2020-06-23T10:50:57Z</time>
      </trkpt>
      <trkpt lat="51.02285" lon="2.34346">
        <ele>4.3</ele>
        <time>2020-06-23T10:50:58Z</time>
      </trkpt>
      <trkpt lat="51.02286" lon="2.34354">
        <ele>4.3</ele>
        <time>2020-06-23T10:50:59Z</time>
      </trkpt>
      <trkpt lat="51.02287" lon="2.34361">
        <ele>4.3</ele>
        <time>2020-06-23T10:51:00Z</time>
      </trkpt>
      <trkpt lat="51.0229" lon="2.34369">
        <ele>4.3</ele>
        <time>2020-06-23T10:51:01Z</time>
      </trkpt>
      <trkpt lat="51.02292" lon="2.34378">
        <ele>4.3</ele>
        <time>2020-06-23T10:51:02Z</time>
      </trkpt>
      <trkpt lat="51.02294" lon="2.34387">
        <ele>4.3</ele>
        <time>2020-06-23T10:51:03Z</time>
      </trkpt>
      <trkpt lat="51.02296" lon="2.34397">
        <ele>4.3</ele>
        <time>2020-06-23T10:51:04Z</time>
      </trkpt>
      <trkpt lat="51.02298" lon="2.34405">
        <ele>4.3</ele>
        <time>2020-06-23T10:51:05Z</time>
      </trkpt>
      <trkpt lat="51.023" lon="2.34413">
        <ele>4.3</ele>
        <time>2020-06-23T10:51:06Z</time>
      </trkpt>
      <trkpt lat="51.02303" lon="2.34422">
        <ele>4.3</ele>
        <time>2020-06-23T10:51:07Z</time>
      </trkpt>
      <trkpt lat="51.02306" lon="2.34431">
        <ele>4.3</ele>
        <time>2020-06-23T10:51:08Z</time>
      </trkpt>
      <trkpt lat="51.02306" lon="2.34437">
        <ele>4.3</ele>
        <time>2020-06-23T10:51:09Z</time>
      </trkpt>
      <trkpt lat="51.02306" lon="2.34443">
        <ele>4.3</ele>
        <time>2020-06-23T10:51:10Z</time>
      </trkpt>
      <trkpt lat="51.02306" lon="2.3445">
        <ele>4.4</ele>
        <time>2020-06-23T10:51:11Z</time>
      </trkpt>
      <trkpt lat="51.02306" lon="2.34457">
        <ele>4.4</ele>
        <time>2020-06-23T10:51:12Z</time>
      </trkpt>
      <trkpt lat="51.02307" lon="2.34464">
        <ele>4.5</ele>
        <time>2020-06-23T10:51:13Z</time>
      </trkpt>
      <trkpt lat="51.02309" lon="2.34472">
        <ele>4.5</ele>
        <time>2020-06-23T10:51:14Z</time>
      </trkpt>
      <trkpt lat="51.0231" lon="2.34481">
        <ele>4.6</ele>
        <time>2020-06-23T10:51:15Z</time>
      </trkpt>
      <trkpt lat="51.02311" lon="2.34489">
        <ele>4.6</ele>
        <time>2020-06-23T10:51:16Z</time>
      </trkpt>
      <trkpt lat="51.02312" lon="2.34498">
        <ele>4.7</ele>
        <time>2020-06-23T10:51:17Z</time>
      </trkpt>
      <trkpt lat="51.02314" lon="2.3451">
        <ele>4.7</ele>
        <time>2020-06-23T10:51:18Z</time>
      </trkpt>
      <trkpt lat="51.02316" lon="2.3452">
        <ele>4.7</ele>
        <time>2020-06-23T10:51:19Z</time>
      </trkpt>
      <trkpt lat="51.0232" lon="2.3453">
        <ele>4.8</ele>
        <time>2020-06-23T10:51:20Z</time>
      </trkpt>
      <trkpt lat="51.02323" lon="2.3454">
        <ele>4.7</ele>
        <time>2020-06-23T10:51:21Z</time>
      </trkpt>
      <trkpt lat="51.02326" lon="2.34549">
        <ele>4.6</ele>
        <time>2020-06-23T10:51:22Z</time>
      </trkpt>
      <trkpt lat="51.02329" lon="2.34558">
        <ele>4.6</ele>
        <time>2020-06-23T10:51:23Z</time>
      </trkpt>
      <trkpt lat="51.02331" lon="2.34568">
        <ele>4.5</ele>
        <time>2020-06-23T10:51:24Z</time>
      </trkpt>
      <trkpt lat="51.02334" lon="2.34578">
        <ele>4.5</ele>
        <time>2020-06-23T10:51:25Z</time>
      </trkpt>
      <trkpt lat="51.02334" lon="2.34586">
        <ele>4.5</ele>
        <time>2020-06-23T10:51:26Z</time>
      </trkpt>
      <trkpt lat="51.02337" lon="2.34594">
        <ele>4.4</ele>
        <time>2020-06-23T10:51:27Z</time>
      </trkpt>
      <trkpt lat="51.02338" lon="2.34602">
        <ele>4.4</ele>
        <time>2020-06-23T10:51:28Z</time>
      </trkpt>
      <trkpt lat="51.02338" lon="2.3461">
        <ele>4.4</ele>
        <time>2020-06-23T10:51:29Z</time>
      </trkpt>
      <trkpt lat="51.02338" lon="2.34618">
        <ele>4.4</ele>
        <time>2020-06-23T10:51:30Z</time>
      </trkpt>
      <trkpt lat="51.0234" lon="2.34628">
        <ele>4.4</ele>
        <time>2020-06-23T10:51:31Z</time>
      </trkpt>
      <trkpt lat="51.02342" lon="2.34637">
        <ele>4.4</ele>
        <time>2020-06-23T10:51:32Z</time>
      </trkpt>
      <trkpt lat="51.02343" lon="2.34646">
        <ele>4.4</ele>
        <time>2020-06-23T10:51:33Z</time>
      </trkpt>
      <trkpt lat="51.02345" lon="2.34655">
        <ele>4.4</ele>
        <time>2020-06-23T10:51:34Z</time>
      </trkpt>
      <trkpt lat="51.02348" lon="2.34662">
        <ele>4.4</ele>
        <time>2020-06-23T10:51:35Z</time>
      </trkpt>
      <trkpt lat="51.0235" lon="2.34671">
        <ele>4.4</ele>
        <time>2020-06-23T10:51:36Z</time>
      </trkpt>
      <trkpt lat="51.02352" lon="2.34681">
        <ele>4.4</ele>
        <time>2020-06-23T10:51:37Z</time>
      </trkpt>
      <trkpt lat="51.02354" lon="2.3469">
        <ele>4.5</ele>
        <time>2020-06-23T10:51:38Z</time>
      </trkpt>
      <trkpt lat="51.0236" lon="2.347">
        <ele>4.5</ele>
        <time>2020-06-23T10:51:39Z</time>
      </trkpt>
      <trkpt lat="51.02363" lon="2.34708">
        <ele>4.5</ele>
        <time>2020-06-23T10:51:40Z</time>
      </trkpt>
      <trkpt lat="51.02365" lon="2.34716">
        <ele>4.6</ele>
        <time>2020-06-23T10:51:41Z</time>
      </trkpt>
      <trkpt lat="51.02367" lon="2.34724">
        <ele>4.6</ele>
        <time>2020-06-23T10:51:42Z</time>
      </trkpt>
      <trkpt lat="51.02369" lon="2.34732">
        <ele>4.6</ele>
        <time>2020-06-23T10:51:43Z</time>
      </trkpt>
      <trkpt lat="51.02371" lon="2.34741">
        <ele>4.6</ele>
        <time>2020-06-23T10:51:44Z</time>
      </trkpt>
      <trkpt lat="51.02373" lon="2.34751">
        <ele>4.6</ele>
        <time>2020-06-23T10:51:45Z</time>
      </trkpt>
      <trkpt lat="51.02375" lon="2.34759">
        <ele>4.6</ele>
        <time>2020-06-23T10:51:46Z</time>
      </trkpt>
      <trkpt lat="51.02377" lon="2.34766">
        <ele>4.6</ele>
        <time>2020-06-23T10:51:47Z</time>
      </trkpt>
      <trkpt lat="51.02379" lon="2.34775">
        <ele>4.6</ele>
        <time>2020-06-23T10:51:48Z</time>
      </trkpt>
      <trkpt lat="51.02382" lon="2.34784">
        <ele>4.6</ele>
        <time>2020-06-23T10:51:49Z</time>
      </trkpt>
      <trkpt lat="51.02384" lon="2.34793">
        <ele>4.5</ele>
        <time>2020-06-23T10:51:50Z</time>
      </trkpt>
      <trkpt lat="51.02386" lon="2.34803">
        <ele>4.5</ele>
        <time>2020-06-23T10:51:51Z</time>
      </trkpt>
      <trkpt lat="51.02388" lon="2.34811">
        <ele>4.5</ele>
        <time>2020-06-23T10:51:52Z</time>
      </trkpt>
      <trkpt lat="51.02389" lon="2.34819">
        <ele>4.5</ele>
        <time>2020-06-23T10:51:53Z</time>
      </trkpt>
      <trkpt lat="51.02391" lon="2.34829">
        <ele>4.5</ele>
        <time>2020-06-23T10:51:54Z</time>
      </trkpt>
      <trkpt lat="51.02393" lon="2.34838">
        <ele>4.5</ele>
        <time>2020-06-23T10:51:55Z</time>
      </trkpt>
      <trkpt lat="51.02395" lon="2.34847">
        <ele>4.4</ele>
        <time>2020-06-23T10:51:56Z</time>
      </trkpt>
      <trkpt lat="51.02397" lon="2.34856">
        <ele>4.4</ele>
        <time>2020-06-23T10:51:57Z</time>
      </trkpt>
      <trkpt lat="51.02399" lon="2.34865">
        <ele>4.4</ele>
        <time>2020-06-23T10:51:58Z</time>
      </trkpt>
      <trkpt lat="51.02402" lon="2.34874">
        <ele>4.4</ele>
        <time>2020-06-23T10:51:59Z</time>
      </trkpt>
      <trkpt lat="51.02404" lon="2.34883">
        <ele>4.3</ele>
        <time>2020-06-23T10:52:00Z</time>
      </trkpt>
      <trkpt lat="51.02405" lon="2.34892">
        <ele>4.3</ele>
        <time>2020-06-23T10:52:01Z</time>
      </trkpt>
      <trkpt lat="51.02407" lon="2.34901">
        <ele>4.3</ele>
        <time>2020-06-23T10:52:02Z</time>
      </trkpt>
      <trkpt lat="51.02409" lon="2.3491">
        <ele>4.2</ele>
        <time>2020-06-23T10:52:03Z</time>
      </trkpt>
      <trkpt lat="51.02411" lon="2.34919">
        <ele>4.2</ele>
        <time>2020-06-23T10:52:04Z</time>
      </trkpt>
      <trkpt lat="51.02412" lon="2.34929">
        <ele>4.2</ele>
        <time>2020-06-23T10:52:05Z</time>
      </trkpt>
      <trkpt lat="51.02414" lon="2.34938">
        <ele>4.2</ele>
        <time>2020-06-23T10:52:06Z</time>
      </trkpt>
      <trkpt lat="51.02416" lon="2.34945">
        <ele>4.2</ele>
        <time>2020-06-23T10:52:07Z</time>
      </trkpt>
      <trkpt lat="51.02418" lon="2.34954">
        <ele>4.2</ele>
        <time>2020-06-23T10:52:08Z</time>
      </trkpt>
      <trkpt lat="51.02421" lon="2.34963">
        <ele>4.2</ele>
        <time>2020-06-23T10:52:09Z</time>
      </trkpt>
      <trkpt lat="51.02423" lon="2.3497">
        <ele>4.2</ele>
        <time>2020-06-23T10:52:10Z</time>
      </trkpt>
      <trkpt lat="51.02425" lon="2.34977">
        <ele>4.3</ele>
        <time>2020-06-23T10:52:11Z</time>
      </trkpt>
      <trkpt lat="51.02427" lon="2.34985">
        <ele>4.3</ele>
        <time>2020-06-23T10:52:12Z</time>
      </trkpt>
      <trkpt lat="51.02428" lon="2.34992">
        <ele>4.3</ele>
        <time>2020-06-23T10:52:13Z</time>
      </trkpt>
      <trkpt lat="51.02429" lon="2.35">
        <ele>4.3</ele>
        <time>2020-06-23T10:52:14Z</time>
      </trkpt>
      <trkpt lat="51.02431" lon="2.35008">
        <ele>4.3</ele>
        <time>2020-06-23T10:52:15Z</time>
      </trkpt>
      <trkpt lat="51.02431" lon="2.35015">
        <ele>4.3</ele>
        <time>2020-06-23T10:52:16Z</time>
      </trkpt>
      <trkpt lat="51.02431" lon="2.35023">
        <ele>4.3</ele>
        <time>2020-06-23T10:52:17Z</time>
      </trkpt>
      <trkpt lat="51.02433" lon="2.35032">
        <ele>4.3</ele>
        <time>2020-06-23T10:52:18Z</time>
      </trkpt>
      <trkpt lat="51.02435" lon="2.35042">
        <ele>4.4</ele>
        <time>2020-06-23T10:52:19Z</time>
      </trkpt>
      <trkpt lat="51.02436" lon="2.35051">
        <ele>4.4</ele>
        <time>2020-06-23T10:52:20Z</time>
      </trkpt>
      <trkpt lat="51.02437" lon="2.3506">
        <ele>4.4</ele>
        <time>2020-06-23T10:52:21Z</time>
      </trkpt>
      <trkpt lat="51.02438" lon="2.35068">
        <ele>4.4</ele>
        <time>2020-06-23T10:52:22Z</time>
      </trkpt>
      <trkpt lat="51.02438" lon="2.35075">
        <ele>4.4</ele>
        <time>2020-06-23T10:52:23Z</time>
      </trkpt>
      <trkpt lat="51.02439" lon="2.35082">
        <ele>4.4</ele>
        <time>2020-06-23T10:52:24Z</time>
      </trkpt>
      <trkpt lat="51.0244" lon="2.3509">
        <ele>4.4</ele>
        <time>2020-06-23T10:52:25Z</time>
      </trkpt>
      <trkpt lat="51.02442" lon="2.35099">
        <ele>4.5</ele>
        <time>2020-06-23T10:52:26Z</time>
      </trkpt>
      <trkpt lat="51.02443" lon="2.35109">
        <ele>4.5</ele>
        <time>2020-06-23T10:52:27Z</time>
      </trkpt>
      <trkpt lat="51.02446" lon="2.35119">
        <ele>4.6</ele>
        <time>2020-06-23T10:52:28Z</time>
      </trkpt>
      <trkpt lat="51.02449" lon="2.35129">
        <ele>4.6</ele>
        <time>2020-06-23T10:52:29Z</time>
      </trkpt>
      <trkpt lat="51.02451" lon="2.35139">
        <ele>4.7</ele>
        <time>2020-06-23T10:52:30Z</time>
      </trkpt>
      <trkpt lat="51.02454" lon="2.35149">
        <ele>4.7</ele>
        <time>2020-06-23T10:52:31Z</time>
      </trkpt>
      <trkpt lat="51.02456" lon="2.35159">
        <ele>4.7</ele>
        <time>2020-06-23T10:52:32Z</time>
      </trkpt>
      <trkpt lat="51.02458" lon="2.35168">
        <ele>4.8</ele>
        <time>2020-06-23T10:52:33Z</time>
      </trkpt>
      <trkpt lat="51.0246" lon="2.35176">
        <ele>4.8</ele>
        <time>2020-06-23T10:52:34Z</time>
      </trkpt>
      <trkpt lat="51.02461" lon="2.35183">
        <ele>4.9</ele>
        <time>2020-06-23T10:52:35Z</time>
      </trkpt>
      <trkpt lat="51.02461" lon="2.35189">
        <ele>4.9</ele>
        <time>2020-06-23T10:52:36Z</time>
      </trkpt>
      <trkpt lat="51.02463" lon="2.35195">
        <ele>5</ele>
        <time>2020-06-23T10:52:37Z</time>
      </trkpt>
      <trkpt lat="51.02466" lon="2.35203">
        <ele>5.1</ele>
        <time>2020-06-23T10:52:38Z</time>
      </trkpt>
      <trkpt lat="51.02468" lon="2.3521">
        <ele>5.2</ele>
        <time>2020-06-23T10:52:39Z</time>
      </trkpt>
      <trkpt lat="51.0247" lon="2.35218">
        <ele>5.3</ele>
        <time>2020-06-23T10:52:40Z</time>
      </trkpt>
      <trkpt lat="51.02472" lon="2.35224">
        <ele>5.3</ele>
        <time>2020-06-23T10:52:41Z</time>
      </trkpt>
      <trkpt lat="51.02474" lon="2.35228">
        <ele>5.3</ele>
        <time>2020-06-23T10:52:42Z</time>
      </trkpt>
      <trkpt lat="51.02476" lon="2.35234">
        <ele>5.4</ele>
        <time>2020-06-23T10:52:43Z</time>
      </trkpt>
      <trkpt lat="51.02477" lon="2.35238">
        <ele>5.4</ele>
        <time>2020-06-23T10:52:44Z</time>
      </trkpt>
      <trkpt lat="51.02478" lon="2.35244">
        <ele>5.3</ele>
        <time>2020-06-23T10:52:45Z</time>
      </trkpt>
      <trkpt lat="51.02479" lon="2.3525">
        <ele>5.3</ele>
        <time>2020-06-23T10:52:46Z</time>
      </trkpt>
      <trkpt lat="51.02479" lon="2.35253">
        <ele>5.3</ele>
        <time>2020-06-23T10:52:47Z</time>
      </trkpt>
      <trkpt lat="51.0248" lon="2.3526">
        <ele>5.2</ele>
        <time>2020-06-23T10:52:48Z</time>
      </trkpt>
      <trkpt lat="51.0248" lon="2.35267">
        <ele>5.1</ele>
        <time>2020-06-23T10:52:49Z</time>
      </trkpt>
      <trkpt lat="51.02482" lon="2.35275">
        <ele>5</ele>
        <time>2020-06-23T10:52:50Z</time>
      </trkpt>
      <trkpt lat="51.02486" lon="2.35283">
        <ele>4.9</ele>
        <time>2020-06-23T10:52:51Z</time>
      </trkpt>
      <trkpt lat="51.0249" lon="2.3529">
        <ele>4.9</ele>
        <time>2020-06-23T10:52:52Z</time>
      </trkpt>
      <trkpt lat="51.02492" lon="2.35298">
        <ele>4.9</ele>
        <time>2020-06-23T10:52:53Z</time>
      </trkpt>
      <trkpt lat="51.02495" lon="2.35307">
        <ele>4.8</ele>
        <time>2020-06-23T10:52:54Z</time>
      </trkpt>
      <trkpt lat="51.02499" lon="2.35318">
        <ele>4.8</ele>
        <time>2020-06-23T10:52:55Z</time>
      </trkpt>
      <trkpt lat="51.02502" lon="2.35326">
        <ele>4.8</ele>
        <time>2020-06-23T10:52:56Z</time>
      </trkpt>
      <trkpt lat="51.02504" lon="2.35333">
        <ele>4.8</ele>
        <time>2020-06-23T10:52:57Z</time>
      </trkpt>
      <trkpt lat="51.02506" lon="2.35341">
        <ele>4.8</ele>
        <time>2020-06-23T10:52:58Z</time>
      </trkpt>
      <trkpt lat="51.02509" lon="2.3535">
        <ele>4.8</ele>
        <time>2020-06-23T10:52:59Z</time>
      </trkpt>
      <trkpt lat="51.02513" lon="2.35357">
        <ele>4.8</ele>
        <time>2020-06-23T10:53:00Z</time>
      </trkpt>
      <trkpt lat="51.02514" lon="2.35362">
        <ele>4.8</ele>
        <time>2020-06-23T10:53:01Z</time>
      </trkpt>
      <trkpt lat="51.02514" lon="2.35369">
        <ele>4.8</ele>
        <time>2020-06-23T10:53:02Z</time>
      </trkpt>
      <trkpt lat="51.02515" lon="2.35376">
        <ele>4.8</ele>
        <time>2020-06-23T10:53:03Z</time>
      </trkpt>
      <trkpt lat="51.02517" lon="2.35386">
        <ele>4.8</ele>
        <time>2020-06-23T10:53:04Z</time>
      </trkpt>
      <trkpt lat="51.0252" lon="2.35395">
        <ele>4.7</ele>
        <time>2020-06-23T10:53:05Z</time>
      </trkpt>
      <trkpt lat="51.02522" lon="2.35404">
        <ele>4.7</ele>
        <time>2020-06-23T10:53:06Z</time>
      </trkpt>
      <trkpt lat="51.02528" lon="2.35414">
        <ele>4.7</ele>
        <time>2020-06-23T10:53:07Z</time>
      </trkpt>
      <trkpt lat="51.0253" lon="2.35424">
        <ele>4.7</ele>
        <time>2020-06-23T10:53:08Z</time>
      </trkpt>
      <trkpt lat="51.02536" lon="2.35435">
        <ele>4.7</ele>
        <time>2020-06-23T10:53:09Z</time>
      </trkpt>
      <trkpt lat="51.02539" lon="2.35445">
        <ele>4.7</ele>
        <time>2020-06-23T10:53:10Z</time>
      </trkpt>
      <trkpt lat="51.02543" lon="2.35454">
        <ele>4.7</ele>
        <time>2020-06-23T10:53:11Z</time>
      </trkpt>
      <trkpt lat="51.02545" lon="2.35461">
        <ele>4.8</ele>
        <time>2020-06-23T10:53:12Z</time>
      </trkpt>
      <trkpt lat="51.02547" lon="2.3547">
        <ele>4.8</ele>
        <time>2020-06-23T10:53:13Z</time>
      </trkpt>
      <trkpt lat="51.0255" lon="2.35479">
        <ele>4.9</ele>
        <time>2020-06-23T10:53:14Z</time>
      </trkpt>
      <trkpt lat="51.02552" lon="2.35489">
        <ele>4.9</ele>
        <time>2020-06-23T10:53:15Z</time>
      </trkpt>
      <trkpt lat="51.02554" lon="2.35499">
        <ele>5</ele>
        <time>2020-06-23T10:53:16Z</time>
      </trkpt>
      <trkpt lat="51.02557" lon="2.35508">
        <ele>5.1</ele>
        <time>2020-06-23T10:53:17Z</time>
      </trkpt>
      <trkpt lat="51.02559" lon="2.35516">
        <ele>5.1</ele>
        <time>2020-06-23T10:53:18Z</time>
      </trkpt>
      <trkpt lat="51.02562" lon="2.35525">
        <ele>5.2</ele>
        <time>2020-06-23T10:53:19Z</time>
      </trkpt>
      <trkpt lat="51.02564" lon="2.35534">
        <ele>5.2</ele>
        <time>2020-06-23T10:53:20Z</time>
      </trkpt>
      <trkpt lat="51.02566" lon="2.35542">
        <ele>5.1</ele>
        <time>2020-06-23T10:53:21Z</time>
      </trkpt>
      <trkpt lat="51.02569" lon="2.35552">
        <ele>5.1</ele>
        <time>2020-06-23T10:53:22Z</time>
      </trkpt>
      <trkpt lat="51.0257" lon="2.35561">
        <ele>5</ele>
        <time>2020-06-23T10:53:23Z</time>
      </trkpt>
      <trkpt lat="51.02572" lon="2.3557">
        <ele>5</ele>
        <time>2020-06-23T10:53:24Z</time>
      </trkpt>
      <trkpt lat="51.02575" lon="2.35578">
        <ele>4.9</ele>
        <time>2020-06-23T10:53:25Z</time>
      </trkpt>
      <trkpt lat="51.02577" lon="2.35587">
        <ele>4.9</ele>
        <time>2020-06-23T10:53:26Z</time>
      </trkpt>
      <trkpt lat="51.02579" lon="2.35595">
        <ele>4.9</ele>
        <time>2020-06-23T10:53:27Z</time>
      </trkpt>
      <trkpt lat="51.02581" lon="2.35604">
        <ele>4.9</ele>
        <time>2020-06-23T10:53:28Z</time>
      </trkpt>
      <trkpt lat="51.02583" lon="2.35613">
        <ele>4.9</ele>
        <time>2020-06-23T10:53:29Z</time>
      </trkpt>
      <trkpt lat="51.02584" lon="2.35623">
        <ele>4.9</ele>
        <time>2020-06-23T10:53:30Z</time>
      </trkpt>
      <trkpt lat="51.02586" lon="2.35631">
        <ele>4.9</ele>
        <time>2020-06-23T10:53:31Z</time>
      </trkpt>
      <trkpt lat="51.02588" lon="2.35639">
        <ele>4.9</ele>
        <time>2020-06-23T10:53:32Z</time>
      </trkpt>
      <trkpt lat="51.0259" lon="2.35648">
        <ele>4.9</ele>
        <time>2020-06-23T10:53:33Z</time>
      </trkpt>
      <trkpt lat="51.02592" lon="2.35656">
        <ele>4.9</ele>
        <time>2020-06-23T10:53:34Z</time>
      </trkpt>
      <trkpt lat="51.02593" lon="2.35664">
        <ele>4.9</ele>
        <time>2020-06-23T10:53:35Z</time>
      </trkpt>
      <trkpt lat="51.02596" lon="2.35673">
        <ele>4.9</ele>
        <time>2020-06-23T10:53:36Z</time>
      </trkpt>
      <trkpt lat="51.02599" lon="2.35682">
        <ele>4.9</ele>
        <time>2020-06-23T10:53:37Z</time>
      </trkpt>
      <trkpt lat="51.02599" lon="2.35688">
        <ele>4.9</ele>
        <time>2020-06-23T10:53:38Z</time>
      </trkpt>
      <trkpt lat="51.02602" lon="2.35697">
        <ele>4.9</ele>
        <time>2020-06-23T10:53:39Z</time>
      </trkpt>
      <trkpt lat="51.02604" lon="2.35707">
        <ele>4.9</ele>
        <time>2020-06-23T10:53:40Z</time>
      </trkpt>
      <trkpt lat="51.02607" lon="2.35719">
        <ele>4.8</ele>
        <time>2020-06-23T10:53:41Z</time>
      </trkpt>
      <trkpt lat="51.02609" lon="2.35729">
        <ele>4.8</ele>
        <time>2020-06-23T10:53:42Z</time>
      </trkpt>
      <trkpt lat="51.02611" lon="2.35737">
        <ele>4.7</ele>
        <time>2020-06-23T10:53:43Z</time>
      </trkpt>
      <trkpt lat="51.02612" lon="2.35745">
        <ele>4.7</ele>
        <time>2020-06-23T10:53:44Z</time>
      </trkpt>
      <trkpt lat="51.02616" lon="2.35755">
        <ele>4.7</ele>
        <time>2020-06-23T10:53:45Z</time>
      </trkpt>
      <trkpt lat="51.02618" lon="2.35766">
        <ele>4.7</ele>
        <time>2020-06-23T10:53:46Z</time>
      </trkpt>
      <trkpt lat="51.0262" lon="2.35775">
        <ele>4.7</ele>
        <time>2020-06-23T10:53:47Z</time>
      </trkpt>
      <trkpt lat="51.0262" lon="2.3578">
        <ele>4.7</ele>
        <time>2020-06-23T10:53:48Z</time>
      </trkpt>
      <trkpt lat="51.02622" lon="2.35791">
        <ele>4.7</ele>
        <time>2020-06-23T10:53:49Z</time>
      </trkpt>
      <trkpt lat="51.02624" lon="2.35801">
        <ele>4.7</ele>
        <time>2020-06-23T10:53:50Z</time>
      </trkpt>
      <trkpt lat="51.02626" lon="2.35811">
        <ele>4.7</ele>
        <time>2020-06-23T10:53:51Z</time>
      </trkpt>
      <trkpt lat="51.02627" lon="2.35819">
        <ele>4.7</ele>
        <time>2020-06-23T10:53:52Z</time>
      </trkpt>
      <trkpt lat="51.02629" lon="2.35825">
        <ele>4.7</ele>
        <time>2020-06-23T10:53:53Z</time>
      </trkpt>
      <trkpt lat="51.02631" lon="2.35834">
        <ele>4.7</ele>
        <time>2020-06-23T10:53:54Z</time>
      </trkpt>
      <trkpt lat="51.02632" lon="2.35842">
        <ele>4.7</ele>
        <time>2020-06-23T10:53:55Z</time>
      </trkpt>
      <trkpt lat="51.02634" lon="2.3585">
        <ele>4.7</ele>
        <time>2020-06-23T10:53:56Z</time>
      </trkpt>
      <trkpt lat="51.02636" lon="2.35861">
        <ele>4.7</ele>
        <time>2020-06-23T10:53:57Z</time>
      </trkpt>
      <trkpt lat="51.02638" lon="2.3587">
        <ele>4.7</ele>
        <time>2020-06-23T10:53:58Z</time>
      </trkpt>
      <trkpt lat="51.0264" lon="2.35878">
        <ele>4.7</ele>
        <time>2020-06-23T10:53:59Z</time>
      </trkpt>
      <trkpt lat="51.02641" lon="2.35886">
        <ele>4.7</ele>
        <time>2020-06-23T10:54:00Z</time>
      </trkpt>
      <trkpt lat="51.02643" lon="2.35894">
        <ele>4.7</ele>
        <time>2020-06-23T10:54:01Z</time>
      </trkpt>
      <trkpt lat="51.02645" lon="2.35902">
        <ele>4.7</ele>
        <time>2020-06-23T10:54:02Z</time>
      </trkpt>
      <trkpt lat="51.02648" lon="2.3591">
        <ele>4.8</ele>
        <time>2020-06-23T10:54:03Z</time>
      </trkpt>
      <trkpt lat="51.0265" lon="2.35916">
        <ele>4.8</ele>
        <time>2020-06-23T10:54:04Z</time>
      </trkpt>
      <trkpt lat="51.02653" lon="2.35923">
        <ele>4.9</ele>
        <time>2020-06-23T10:54:05Z</time>
      </trkpt>
      <trkpt lat="51.02655" lon="2.35933">
        <ele>5</ele>
        <time>2020-06-23T10:54:06Z</time>
      </trkpt>
      <trkpt lat="51.02657" lon="2.35941">
        <ele>5.1</ele>
        <time>2020-06-23T10:54:07Z</time>
      </trkpt>
      <trkpt lat="51.02658" lon="2.35948">
        <ele>5.2</ele>
        <time>2020-06-23T10:54:08Z</time>
      </trkpt>
      <trkpt lat="51.0266" lon="2.35954">
        <ele>5.2</ele>
        <time>2020-06-23T10:54:09Z</time>
      </trkpt>
      <trkpt lat="51.02662" lon="2.35962">
        <ele>5.3</ele>
        <time>2020-06-23T10:54:10Z</time>
      </trkpt>
      <trkpt lat="51.02664" lon="2.3597">
        <ele>5.4</ele>
        <time>2020-06-23T10:54:11Z</time>
      </trkpt>
      <trkpt lat="51.02666" lon="2.35977">
        <ele>5.5</ele>
        <time>2020-06-23T10:54:12Z</time>
      </trkpt>
      <trkpt lat="51.02668" lon="2.35982">
        <ele>5.5</ele>
        <time>2020-06-23T10:54:13Z</time>
      </trkpt>
      <trkpt lat="51.02672" lon="2.35984">
        <ele>5.5</ele>
        <time>2020-06-23T10:54:14Z</time>
      </trkpt>
      <trkpt lat="51.02676" lon="2.35983">
        <ele>5.7</ele>
        <time>2020-06-23T10:54:15Z</time>
      </trkpt>
      <trkpt lat="51.02682" lon="2.35978">
        <ele>5.7</ele>
        <time>2020-06-23T10:54:16Z</time>
      </trkpt>
      <trkpt lat="51.02688" lon="2.35975">
        <ele>5.7</ele>
        <time>2020-06-23T10:54:17Z</time>
      </trkpt>
      <trkpt lat="51.02694" lon="2.35971">
        <ele>5.6</ele>
        <time>2020-06-23T10:54:18Z</time>
      </trkpt>
      <trkpt lat="51.027" lon="2.35968">
        <ele>5.6</ele>
        <time>2020-06-23T10:54:19Z</time>
      </trkpt>
      <trkpt lat="51.02706" lon="2.35964">
        <ele>5.5</ele>
        <time>2020-06-23T10:54:20Z</time>
      </trkpt>
      <trkpt lat="51.02711" lon="2.35962">
        <ele>5.3</ele>
        <time>2020-06-23T10:54:21Z</time>
      </trkpt>
      <trkpt lat="51.02717" lon="2.35959">
        <ele>5.2</ele>
        <time>2020-06-23T10:54:22Z</time>
      </trkpt>
      <trkpt lat="51.02723" lon="2.35956">
        <ele>5</ele>
        <time>2020-06-23T10:54:23Z</time>
      </trkpt>
      <trkpt lat="51.02728" lon="2.35952">
        <ele>4.8</ele>
        <time>2020-06-23T10:54:24Z</time>
      </trkpt>
      <trkpt lat="51.02733" lon="2.35948">
        <ele>4.7</ele>
        <time>2020-06-23T10:54:25Z</time>
      </trkpt>
      <trkpt lat="51.02738" lon="2.35946">
        <ele>4.6</ele>
        <time>2020-06-23T10:54:26Z</time>
      </trkpt>
      <trkpt lat="51.02743" lon="2.35945">
        <ele>4.4</ele>
        <time>2020-06-23T10:54:27Z</time>
      </trkpt>
      <trkpt lat="51.02749" lon="2.35943">
        <ele>4.3</ele>
        <time>2020-06-23T10:54:28Z</time>
      </trkpt>
      <trkpt lat="51.02754" lon="2.35941">
        <ele>4.2</ele>
        <time>2020-06-23T10:54:29Z</time>
      </trkpt>
      <trkpt lat="51.0276" lon="2.3594">
        <ele>4.1</ele>
        <time>2020-06-23T10:54:30Z</time>
      </trkpt>
      <trkpt lat="51.02767" lon="2.35939">
        <ele>4</ele>
        <time>2020-06-23T10:54:31Z</time>
      </trkpt>
      <trkpt lat="51.02774" lon="2.35937">
        <ele>3.9</ele>
        <time>2020-06-23T10:54:32Z</time>
      </trkpt>
      <trkpt lat="51.02781" lon="2.35935">
        <ele>3.8</ele>
        <time>2020-06-23T10:54:33Z</time>
      </trkpt>
      <trkpt lat="51.02786" lon="2.35933">
        <ele>3.7</ele>
        <time>2020-06-23T10:54:34Z</time>
      </trkpt>
      <trkpt lat="51.02791" lon="2.3593">
        <ele>3.6</ele>
        <time>2020-06-23T10:54:35Z</time>
      </trkpt>
      <trkpt lat="51.02797" lon="2.35928">
        <ele>3.6</ele>
        <time>2020-06-23T10:54:36Z</time>
      </trkpt>
      <trkpt lat="51.02803" lon="2.35927">
        <ele>3.7</ele>
        <time>2020-06-23T10:54:37Z</time>
      </trkpt>
      <trkpt lat="51.02809" lon="2.35926">
        <ele>3.7</ele>
        <time>2020-06-23T10:54:38Z</time>
      </trkpt>
      <trkpt lat="51.02814" lon="2.35924">
        <ele>3.8</ele>
        <time>2020-06-23T10:54:39Z</time>
      </trkpt>
      <trkpt lat="51.0282" lon="2.35923">
        <ele>3.8</ele>
        <time>2020-06-23T10:54:40Z</time>
      </trkpt>
      <trkpt lat="51.02827" lon="2.35923">
        <ele>3.9</ele>
        <time>2020-06-23T10:54:41Z</time>
      </trkpt>
      <trkpt lat="51.02832" lon="2.35921">
        <ele>4</ele>
        <time>2020-06-23T10:54:42Z</time>
      </trkpt>
      <trkpt lat="51.02837" lon="2.35918">
        <ele>4</ele>
        <time>2020-06-23T10:54:43Z</time>
      </trkpt>
      <trkpt lat="51.02843" lon="2.35916">
        <ele>4.1</ele>
        <time>2020-06-23T10:54:44Z</time>
      </trkpt>
      <trkpt lat="51.02847" lon="2.35914">
        <ele>4.2</ele>
        <time>2020-06-23T10:54:45Z</time>
      </trkpt>
      <trkpt lat="51.02852" lon="2.35912">
        <ele>4.3</ele>
        <time>2020-06-23T10:54:46Z</time>
      </trkpt>
      <trkpt lat="51.02857" lon="2.3592">
        <ele>4.3</ele>
        <time>2020-06-23T10:54:47Z</time>
      </trkpt>
      <trkpt lat="51.02861" lon="2.35926">
        <ele>4.4</ele>
        <time>2020-06-23T10:54:48Z</time>
      </trkpt>
      <trkpt lat="51.02862" lon="2.35936">
        <ele>4.4</ele>
        <time>2020-06-23T10:54:49Z</time>
      </trkpt>
      <trkpt lat="51.02862" lon="2.35947">
        <ele>4.4</ele>
        <time>2020-06-23T10:54:50Z</time>
      </trkpt>
      <trkpt lat="51.02862" lon="2.35956">
        <ele>4.3</ele>
        <time>2020-06-23T10:54:51Z</time>
      </trkpt>
      <trkpt lat="51.02863" lon="2.35966">
        <ele>4.2</ele>
        <time>2020-06-23T10:54:52Z</time>
      </trkpt>
      <trkpt lat="51.02864" lon="2.35976">
        <ele>4.1</ele>
        <time>2020-06-23T10:54:53Z</time>
      </trkpt>
      <trkpt lat="51.02864" lon="2.35985">
        <ele>4.1</ele>
        <time>2020-06-23T10:54:54Z</time>
      </trkpt>
      <trkpt lat="51.02864" lon="2.35995">
        <ele>3.9</ele>
        <time>2020-06-23T10:54:55Z</time>
      </trkpt>
      <trkpt lat="51.02864" lon="2.36003">
        <ele>3.8</ele>
        <time>2020-06-23T10:54:56Z</time>
      </trkpt>
      <trkpt lat="51.02864" lon="2.36012">
        <ele>3.7</ele>
        <time>2020-06-23T10:54:57Z</time>
      </trkpt>
      <trkpt lat="51.02864" lon="2.36022">
        <ele>3.6</ele>
        <time>2020-06-23T10:54:58Z</time>
      </trkpt>
      <trkpt lat="51.02865" lon="2.36032">
        <ele>3.6</ele>
        <time>2020-06-23T10:54:59Z</time>
      </trkpt>
      <trkpt lat="51.02865" lon="2.36044">
        <ele>3.6</ele>
        <time>2020-06-23T10:55:00Z</time>
      </trkpt>
      <trkpt lat="51.02866" lon="2.36054">
        <ele>3.5</ele>
        <time>2020-06-23T10:55:01Z</time>
      </trkpt>
      <trkpt lat="51.02866" lon="2.36063">
        <ele>3.6</ele>
        <time>2020-06-23T10:55:02Z</time>
      </trkpt>
      <trkpt lat="51.02867" lon="2.36073">
        <ele>3.6</ele>
        <time>2020-06-23T10:55:03Z</time>
      </trkpt>
      <trkpt lat="51.02867" lon="2.36083">
        <ele>3.5</ele>
        <time>2020-06-23T10:55:04Z</time>
      </trkpt>
      <trkpt lat="51.02867" lon="2.36095">
        <ele>3.5</ele>
        <time>2020-06-23T10:55:05Z</time>
      </trkpt>
      <trkpt lat="51.02868" lon="2.36103">
        <ele>3.4</ele>
        <time>2020-06-23T10:55:06Z</time>
      </trkpt>
      <trkpt lat="51.02869" lon="2.36112">
        <ele>3.4</ele>
        <time>2020-06-23T10:55:07Z</time>
      </trkpt>
      <trkpt lat="51.02871" lon="2.36121">
        <ele>3.4</ele>
        <time>2020-06-23T10:55:08Z</time>
      </trkpt>
      <trkpt lat="51.02873" lon="2.36132">
        <ele>3.4</ele>
        <time>2020-06-23T10:55:09Z</time>
      </trkpt>
      <trkpt lat="51.02874" lon="2.36142">
        <ele>3.4</ele>
        <time>2020-06-23T10:55:10Z</time>
      </trkpt>
      <trkpt lat="51.02876" lon="2.3615">
        <ele>3.5</ele>
        <time>2020-06-23T10:55:11Z</time>
      </trkpt>
      <trkpt lat="51.02877" lon="2.3616">
        <ele>3.5</ele>
        <time>2020-06-23T10:55:12Z</time>
      </trkpt>
      <trkpt lat="51.02879" lon="2.36169">
        <ele>3.5</ele>
        <time>2020-06-23T10:55:13Z</time>
      </trkpt>
      <trkpt lat="51.0288" lon="2.3618">
        <ele>3.6</ele>
        <time>2020-06-23T10:55:14Z</time>
      </trkpt>
      <trkpt lat="51.02881" lon="2.36188">
        <ele>3.6</ele>
        <time>2020-06-23T10:55:15Z</time>
      </trkpt>
      <trkpt lat="51.02882" lon="2.36198">
        <ele>3.6</ele>
        <time>2020-06-23T10:55:16Z</time>
      </trkpt>
      <trkpt lat="51.02883" lon="2.36209">
        <ele>3.7</ele>
        <time>2020-06-23T10:55:17Z</time>
      </trkpt>
      <trkpt lat="51.02882" lon="2.36219">
        <ele>3.7</ele>
        <time>2020-06-23T10:55:18Z</time>
      </trkpt>
      <trkpt lat="51.02881" lon="2.36229">
        <ele>3.7</ele>
        <time>2020-06-23T10:55:19Z</time>
      </trkpt>
      <trkpt lat="51.02881" lon="2.36241">
        <ele>3.6</ele>
        <time>2020-06-23T10:55:20Z</time>
      </trkpt>
      <trkpt lat="51.02879" lon="2.36249">
        <ele>3.7</ele>
        <time>2020-06-23T10:55:21Z</time>
      </trkpt>
      <trkpt lat="51.02878" lon="2.36258">
        <ele>3.8</ele>
        <time>2020-06-23T10:55:22Z</time>
      </trkpt>
      <trkpt lat="51.02877" lon="2.36266">
        <ele>3.9</ele>
        <time>2020-06-23T10:55:23Z</time>
      </trkpt>
      <trkpt lat="51.02876" lon="2.36273">
        <ele>3.9</ele>
        <time>2020-06-23T10:55:24Z</time>
      </trkpt>
      <trkpt lat="51.02875" lon="2.3628">
        <ele>4.1</ele>
        <time>2020-06-23T10:55:25Z</time>
      </trkpt>
      <trkpt lat="51.02874" lon="2.36287">
        <ele>4.3</ele>
        <time>2020-06-23T10:55:26Z</time>
      </trkpt>
      <trkpt lat="51.02873" lon="2.36295">
        <ele>4.5</ele>
        <time>2020-06-23T10:55:27Z</time>
      </trkpt>
      <trkpt lat="51.02872" lon="2.36305">
        <ele>4.8</ele>
        <time>2020-06-23T10:55:28Z</time>
      </trkpt>
      <trkpt lat="51.02871" lon="2.36315">
        <ele>5.2</ele>
        <time>2020-06-23T10:55:29Z</time>
      </trkpt>
      <trkpt lat="51.02871" lon="2.36323">
        <ele>5.3</ele>
        <time>2020-06-23T10:55:30Z</time>
      </trkpt>
      <trkpt lat="51.0287" lon="2.3633">
        <ele>5.3</ele>
        <time>2020-06-23T10:55:31Z</time>
      </trkpt>
      <trkpt lat="51.0287" lon="2.36339">
        <ele>5.2</ele>
        <time>2020-06-23T10:55:32Z</time>
      </trkpt>
      <trkpt lat="51.0287" lon="2.36347">
        <ele>5.2</ele>
        <time>2020-06-23T10:55:33Z</time>
      </trkpt>
      <trkpt lat="51.02869" lon="2.36355">
        <ele>5.1</ele>
        <time>2020-06-23T10:55:34Z</time>
      </trkpt>
      <trkpt lat="51.02869" lon="2.36363">
        <ele>5.1</ele>
        <time>2020-06-23T10:55:35Z</time>
      </trkpt>
      <trkpt lat="51.02868" lon="2.3637">
        <ele>5.1</ele>
        <time>2020-06-23T10:55:36Z</time>
      </trkpt>
      <trkpt lat="51.02867" lon="2.36375">
        <ele>5.1</ele>
        <time>2020-06-23T10:55:37Z</time>
      </trkpt>
      <trkpt lat="51.02866" lon="2.36381">
        <ele>5.1</ele>
        <time>2020-06-23T10:55:38Z</time>
      </trkpt>
      <trkpt lat="51.02866" lon="2.36389">
        <ele>5.2</ele>
        <time>2020-06-23T10:55:39Z</time>
      </trkpt>
      <trkpt lat="51.02866" lon="2.36398">
        <ele>5.2</ele>
        <time>2020-06-23T10:55:40Z</time>
      </trkpt>
      <trkpt lat="51.02866" lon="2.36407">
        <ele>5.2</ele>
        <time>2020-06-23T10:55:41Z</time>
      </trkpt>
      <trkpt lat="51.02867" lon="2.36415">
        <ele>5.3</ele>
        <time>2020-06-23T10:55:42Z</time>
      </trkpt>
      <trkpt lat="51.02867" lon="2.36423">
        <ele>5.3</ele>
        <time>2020-06-23T10:55:43Z</time>
      </trkpt>
      <trkpt lat="51.02868" lon="2.36433">
        <ele>5.3</ele>
        <time>2020-06-23T10:55:44Z</time>
      </trkpt>
      <trkpt lat="51.02868" lon="2.3644">
        <ele>5.4</ele>
        <time>2020-06-23T10:55:45Z</time>
      </trkpt>
      <trkpt lat="51.02869" lon="2.36448">
        <ele>5.4</ele>
        <time>2020-06-23T10:55:46Z</time>
      </trkpt>
      <trkpt lat="51.0287" lon="2.36457">
        <ele>5.4</ele>
        <time>2020-06-23T10:55:47Z</time>
      </trkpt>
      <trkpt lat="51.0287" lon="2.36465">
        <ele>5.5</ele>
        <time>2020-06-23T10:55:48Z</time>
      </trkpt>
      <trkpt lat="51.02869" lon="2.36472">
        <ele>5.5</ele>
        <time>2020-06-23T10:55:49Z</time>
      </trkpt>
      <trkpt lat="51.02868" lon="2.36479">
        <ele>5.6</ele>
        <time>2020-06-23T10:55:50Z</time>
      </trkpt>
      <trkpt lat="51.02867" lon="2.36486">
        <ele>5.6</ele>
        <time>2020-06-23T10:55:51Z</time>
      </trkpt>
      <trkpt lat="51.02867" lon="2.36493">
        <ele>5.6</ele>
        <time>2020-06-23T10:55:52Z</time>
      </trkpt>
      <trkpt lat="51.02867" lon="2.36499">
        <ele>5.6</ele>
        <time>2020-06-23T10:55:53Z</time>
      </trkpt>
      <trkpt lat="51.02867" lon="2.36505">
        <ele>5.7</ele>
        <time>2020-06-23T10:55:54Z</time>
      </trkpt>
      <trkpt lat="51.02867" lon="2.3651">
        <ele>5.4</ele>
        <time>2020-06-23T10:55:55Z</time>
      </trkpt>
      <trkpt lat="51.02867" lon="2.36511">
        <ele>5.4</ele>
        <time>2020-06-23T10:55:56Z</time>
      </trkpt>
      <trkpt lat="51.02866" lon="2.36515">
        <ele>5.4</ele>
        <time>2020-06-23T10:55:57Z</time>
      </trkpt>
      <trkpt lat="51.02865" lon="2.36517">
        <ele>5.3</ele>
        <time>2020-06-23T10:55:58Z</time>
      </trkpt>
      <trkpt lat="51.02863" lon="2.3652">
        <ele>5.3</ele>
        <time>2020-06-23T10:55:59Z</time>
      </trkpt>
      <trkpt lat="51.02862" lon="2.36522">
        <ele>5.3</ele>
        <time>2020-06-23T10:56:00Z</time>
      </trkpt>
      <trkpt lat="51.02862" lon="2.36528">
        <ele>5.3</ele>
        <time>2020-06-23T10:56:01Z</time>
      </trkpt>
      <trkpt lat="51.02864" lon="2.36534">
        <ele>5.3</ele>
        <time>2020-06-23T10:56:02Z</time>
      </trkpt>
      <trkpt lat="51.02866" lon="2.36538">
        <ele>5.3</ele>
        <time>2020-06-23T10:56:03Z</time>
      </trkpt>
      <trkpt lat="51.02868" lon="2.36545">
        <ele>5.3</ele>
        <time>2020-06-23T10:56:04Z</time>
      </trkpt>
      <trkpt lat="51.02869" lon="2.36551">
        <ele>5.3</ele>
        <time>2020-06-23T10:56:05Z</time>
      </trkpt>
      <trkpt lat="51.02871" lon="2.36559">
        <ele>5.2</ele>
        <time>2020-06-23T10:56:06Z</time>
      </trkpt>
      <trkpt lat="51.02873" lon="2.36565">
        <ele>5.2</ele>
        <time>2020-06-23T10:56:07Z</time>
      </trkpt>
      <trkpt lat="51.02874" lon="2.36571">
        <ele>5.2</ele>
        <time>2020-06-23T10:56:08Z</time>
      </trkpt>
      <trkpt lat="51.02874" lon="2.36576">
        <ele>5.2</ele>
        <time>2020-06-23T10:56:09Z</time>
      </trkpt>
      <trkpt lat="51.02876" lon="2.36582">
        <ele>5.2</ele>
        <time>2020-06-23T10:56:10Z</time>
      </trkpt>
      <trkpt lat="51.02876" lon="2.36585">
        <ele>5.2</ele>
        <time>2020-06-23T10:56:11Z</time>
      </trkpt>
      <trkpt lat="51.02877" lon="2.36591">
        <ele>5.1</ele>
        <time>2020-06-23T10:56:12Z</time>
      </trkpt>
      <trkpt lat="51.02879" lon="2.36596">
        <ele>5.1</ele>
        <time>2020-06-23T10:56:13Z</time>
      </trkpt>
      <trkpt lat="51.0288" lon="2.36603">
        <ele>5</ele>
        <time>2020-06-23T10:56:14Z</time>
      </trkpt>
      <trkpt lat="51.02881" lon="2.3661">
        <ele>4.9</ele>
        <time>2020-06-23T10:56:15Z</time>
      </trkpt>
      <trkpt lat="51.02883" lon="2.36616">
        <ele>4.8</ele>
        <time>2020-06-23T10:56:16Z</time>
      </trkpt>
      <trkpt lat="51.02885" lon="2.36622">
        <ele>4.6</ele>
        <time>2020-06-23T10:56:17Z</time>
      </trkpt>
      <trkpt lat="51.02887" lon="2.3663">
        <ele>4.4</ele>
        <time>2020-06-23T10:56:18Z</time>
      </trkpt>
      <trkpt lat="51.02888" lon="2.3664">
        <ele>4.1</ele>
        <time>2020-06-23T10:56:19Z</time>
      </trkpt>
      <trkpt lat="51.02889" lon="2.36649">
        <ele>3.8</ele>
        <time>2020-06-23T10:56:20Z</time>
      </trkpt>
      <trkpt lat="51.0289" lon="2.36657">
        <ele>3.6</ele>
        <time>2020-06-23T10:56:21Z</time>
      </trkpt>
      <trkpt lat="51.02891" lon="2.36666">
        <ele>3.4</ele>
        <time>2020-06-23T10:56:22Z</time>
      </trkpt>
      <trkpt lat="51.02893" lon="2.36676">
        <ele>3.2</ele>
        <time>2020-06-23T10:56:23Z</time>
      </trkpt>
      <trkpt lat="51.02894" lon="2.36685">
        <ele>3</ele>
        <time>2020-06-23T10:56:24Z</time>
      </trkpt>
      <trkpt lat="51.02895" lon="2.36696">
        <ele>2.8</ele>
        <time>2020-06-23T10:56:25Z</time>
      </trkpt>
      <trkpt lat="51.02897" lon="2.36706">
        <ele>2.7</ele>
        <time>2020-06-23T10:56:26Z</time>
      </trkpt>
      <trkpt lat="51.02899" lon="2.36715">
        <ele>2.6</ele>
        <time>2020-06-23T10:56:27Z</time>
      </trkpt>
      <trkpt lat="51.02901" lon="2.36725">
        <ele>2.5</ele>
        <time>2020-06-23T10:56:28Z</time>
      </trkpt>
      <trkpt lat="51.02901" lon="2.36732">
        <ele>2.4</ele>
        <time>2020-06-23T10:56:29Z</time>
      </trkpt>
      <trkpt lat="51.02902" lon="2.36742">
        <ele>2.3</ele>
        <time>2020-06-23T10:56:30Z</time>
      </trkpt>
      <trkpt lat="51.02904" lon="2.36752">
        <ele>2.2</ele>
        <time>2020-06-23T10:56:31Z</time>
      </trkpt>
      <trkpt lat="51.02906" lon="2.36761">
        <ele>2.1</ele>
        <time>2020-06-23T10:56:32Z</time>
      </trkpt>
      <trkpt lat="51.02908" lon="2.3677">
        <ele>2</ele>
        <time>2020-06-23T10:56:33Z</time>
      </trkpt>
      <trkpt lat="51.02908" lon="2.36778">
        <ele>1.8</ele>
        <time>2020-06-23T10:56:34Z</time>
      </trkpt>
      <trkpt lat="51.0291" lon="2.36787">
        <ele>1.6</ele>
        <time>2020-06-23T10:56:35Z</time>
      </trkpt>
      <trkpt lat="51.02911" lon="2.36795">
        <ele>1.5</ele>
        <time>2020-06-23T10:56:36Z</time>
      </trkpt>
      <trkpt lat="51.02913" lon="2.36803">
        <ele>1.4</ele>
        <time>2020-06-23T10:56:37Z</time>
      </trkpt>
      <trkpt lat="51.02914" lon="2.36812">
        <ele>1.3</ele>
        <time>2020-06-23T10:56:38Z</time>
      </trkpt>
      <trkpt lat="51.02915" lon="2.36821">
        <ele>1.2</ele>
        <time>2020-06-23T10:56:39Z</time>
      </trkpt>
      <trkpt lat="51.02914" lon="2.36826">
        <ele>1.1</ele>
        <time>2020-06-23T10:56:40Z</time>
      </trkpt>
      <trkpt lat="51.02915" lon="2.36831">
        <ele>1.1</ele>
        <time>2020-06-23T10:56:41Z</time>
      </trkpt>
      <trkpt lat="51.02916" lon="2.36841">
        <ele>1</ele>
        <time>2020-06-23T10:56:42Z</time>
      </trkpt>
      <trkpt lat="51.02917" lon="2.36849">
        <ele>1</ele>
        <time>2020-06-23T10:56:43Z</time>
      </trkpt>
      <trkpt lat="51.02918" lon="2.36859">
        <ele>1</ele>
        <time>2020-06-23T10:56:44Z</time>
      </trkpt>
      <trkpt lat="51.02919" lon="2.36867">
        <ele>1</ele>
        <time>2020-06-23T10:56:45Z</time>
      </trkpt>
      <trkpt lat="51.0292" lon="2.36878">
        <ele>1</ele>
        <time>2020-06-23T10:56:46Z</time>
      </trkpt>
      <trkpt lat="51.02923" lon="2.36888">
        <ele>1</ele>
        <time>2020-06-23T10:56:47Z</time>
      </trkpt>
      <trkpt lat="51.02926" lon="2.36898">
        <ele>1.1</ele>
        <time>2020-06-23T10:56:48Z</time>
      </trkpt>
      <trkpt lat="51.02928" lon="2.36906">
        <ele>1.1</ele>
        <time>2020-06-23T10:56:49Z</time>
      </trkpt>
      <trkpt lat="51.0293" lon="2.36916">
        <ele>1.1</ele>
        <time>2020-06-23T10:56:50Z</time>
      </trkpt>
      <trkpt lat="51.02932" lon="2.36924">
        <ele>1.1</ele>
        <time>2020-06-23T10:56:51Z</time>
      </trkpt>
      <trkpt lat="51.02934" lon="2.36932">
        <ele>1.1</ele>
        <time>2020-06-23T10:56:52Z</time>
      </trkpt>
      <trkpt lat="51.02936" lon="2.36944">
        <ele>1</ele>
        <time>2020-06-23T10:56:53Z</time>
      </trkpt>
      <trkpt lat="51.02938" lon="2.36955">
        <ele>1</ele>
        <time>2020-06-23T10:56:54Z</time>
      </trkpt>
      <trkpt lat="51.02942" lon="2.36965">
        <ele>1</ele>
        <time>2020-06-23T10:56:55Z</time>
      </trkpt>
      <trkpt lat="51.02944" lon="2.36973">
        <ele>1</ele>
        <time>2020-06-23T10:56:56Z</time>
      </trkpt>
      <trkpt lat="51.02947" lon="2.36979">
        <ele>1</ele>
        <time>2020-06-23T10:56:57Z</time>
      </trkpt>
      <trkpt lat="51.0295" lon="2.36987">
        <ele>1</ele>
        <time>2020-06-23T10:56:58Z</time>
      </trkpt>
      <trkpt lat="51.02953" lon="2.36995">
        <ele>1.1</ele>
        <time>2020-06-23T10:56:59Z</time>
      </trkpt>
      <trkpt lat="51.02955" lon="2.37003">
        <ele>1.1</ele>
        <time>2020-06-23T10:57:00Z</time>
      </trkpt>
      <trkpt lat="51.02957" lon="2.37009">
        <ele>1.2</ele>
        <time>2020-06-23T10:57:01Z</time>
      </trkpt>
      <trkpt lat="51.02959" lon="2.37016">
        <ele>1.2</ele>
        <time>2020-06-23T10:57:02Z</time>
      </trkpt>
      <trkpt lat="51.02961" lon="2.37025">
        <ele>1.3</ele>
        <time>2020-06-23T10:57:03Z</time>
      </trkpt>
      <trkpt lat="51.02963" lon="2.37034">
        <ele>1.4</ele>
        <time>2020-06-23T10:57:04Z</time>
      </trkpt>
      <trkpt lat="51.02965" lon="2.37041">
        <ele>1.5</ele>
        <time>2020-06-23T10:57:05Z</time>
      </trkpt>
      <trkpt lat="51.02967" lon="2.37049">
        <ele>1.6</ele>
        <time>2020-06-23T10:57:06Z</time>
      </trkpt>
      <trkpt lat="51.02969" lon="2.37053">
        <ele>1.7</ele>
        <time>2020-06-23T10:57:07Z</time>
      </trkpt>
      <trkpt lat="51.02971" lon="2.3706">
        <ele>1.8</ele>
        <time>2020-06-23T10:57:08Z</time>
      </trkpt>
      <trkpt lat="51.02974" lon="2.37064">
        <ele>1.9</ele>
        <time>2020-06-23T10:57:09Z</time>
      </trkpt>
      <trkpt lat="51.02978" lon="2.37066">
        <ele>2.3</ele>
        <time>2020-06-23T10:57:10Z</time>
      </trkpt>
      <trkpt lat="51.02982" lon="2.37068">
        <ele>2.6</ele>
        <time>2020-06-23T10:57:11Z</time>
      </trkpt>
      <trkpt lat="51.02984" lon="2.37073">
        <ele>2.8</ele>
        <time>2020-06-23T10:57:12Z</time>
      </trkpt>
      <trkpt lat="51.02985" lon="2.37077">
        <ele>3</ele>
        <time>2020-06-23T10:57:13Z</time>
      </trkpt>
      <trkpt lat="51.02987" lon="2.37081">
        <ele>3.1</ele>
        <time>2020-06-23T10:57:14Z</time>
      </trkpt>
      <trkpt lat="51.02988" lon="2.37086">
        <ele>3.3</ele>
        <time>2020-06-23T10:57:15Z</time>
      </trkpt>
      <trkpt lat="51.02991" lon="2.37091">
        <ele>3.6</ele>
        <time>2020-06-23T10:57:16Z</time>
      </trkpt>
      <trkpt lat="51.02992" lon="2.37094">
        <ele>3.7</ele>
        <time>2020-06-23T10:57:17Z</time>
      </trkpt>
      <trkpt lat="51.02995" lon="2.37099">
        <ele>4</ele>
        <time>2020-06-23T10:57:18Z</time>
      </trkpt>
      <trkpt lat="51.02996" lon="2.37103">
        <ele>4.2</ele>
        <time>2020-06-23T10:57:19Z</time>
      </trkpt>
      <trkpt lat="51.02996" lon="2.37105">
        <ele>4.3</ele>
        <time>2020-06-23T10:57:20Z</time>
      </trkpt>
      <trkpt lat="51.02997" lon="2.37111">
        <ele>4.6</ele>
        <time>2020-06-23T10:57:21Z</time>
      </trkpt>
      <trkpt lat="51.02998" lon="2.37115">
        <ele>4.9</ele>
        <time>2020-06-23T10:57:22Z</time>
      </trkpt>
      <trkpt lat="51.02999" lon="2.3712">
        <ele>5.2</ele>
        <time>2020-06-23T10:57:23Z</time>
      </trkpt>
      <trkpt lat="51.03" lon="2.37124">
        <ele>5.7</ele>
        <time>2020-06-23T10:57:24Z</time>
      </trkpt>
      <trkpt lat="51.03001" lon="2.37126">
        <ele>5.7</ele>
        <time>2020-06-23T10:57:25Z</time>
      </trkpt>
      <trkpt lat="51.03002" lon="2.37128">
        <ele>5.7</ele>
        <time>2020-06-23T10:57:26Z</time>
      </trkpt>
      <trkpt lat="51.03003" lon="2.37129">
        <ele>5.7</ele>
        <time>2020-06-23T10:57:27Z</time>
      </trkpt>
      <trkpt lat="51.03006" lon="2.37129">
        <ele>5.8</ele>
        <time>2020-06-23T10:57:28Z</time>
      </trkpt>
      <trkpt lat="51.03008" lon="2.37128">
        <ele>5.8</ele>
        <time>2020-06-23T10:57:29Z</time>
      </trkpt>
      <trkpt lat="51.03011" lon="2.37128">
        <ele>5.8</ele>
        <time>2020-06-23T10:57:30Z</time>
      </trkpt>
      <trkpt lat="51.03014" lon="2.37128">
        <ele>5.8</ele>
        <time>2020-06-23T10:57:31Z</time>
      </trkpt>
      <trkpt lat="51.03019" lon="2.37129">
        <ele>5.7</ele>
        <time>2020-06-23T10:57:32Z</time>
      </trkpt>
      <trkpt lat="51.03021" lon="2.3713">
        <ele>5.7</ele>
        <time>2020-06-23T10:57:33Z</time>
      </trkpt>
      <trkpt lat="51.03023" lon="2.3713">
        <ele>5.7</ele>
        <time>2020-06-23T10:57:34Z</time>
      </trkpt>
      <trkpt lat="51.03027" lon="2.37131">
        <ele>5.7</ele>
        <time>2020-06-23T10:57:35Z</time>
      </trkpt>
      <trkpt lat="51.03031" lon="2.3713">
        <ele>5.6</ele>
        <time>2020-06-23T10:57:36Z</time>
      </trkpt>
      <trkpt lat="51.03034" lon="2.37129">
        <ele>5.6</ele>
        <time>2020-06-23T10:57:37Z</time>
      </trkpt>
      <trkpt lat="51.03037" lon="2.37127">
        <ele>5.6</ele>
        <time>2020-06-23T10:57:38Z</time>
      </trkpt>
      <trkpt lat="51.03039" lon="2.37127">
        <ele>5.6</ele>
        <time>2020-06-23T10:57:39Z</time>
      </trkpt>
      <trkpt lat="51.03043" lon="2.37125">
        <ele>5.5</ele>
        <time>2020-06-23T10:57:40Z</time>
      </trkpt>
      <trkpt lat="51.03044" lon="2.37125">
        <ele>5.5</ele>
        <time>2020-06-23T10:57:41Z</time>
      </trkpt>
      <trkpt lat="51.03048" lon="2.37124">
        <ele>5.5</ele>
        <time>2020-06-23T10:57:42Z</time>
      </trkpt>
      <trkpt lat="51.0305" lon="2.37124">
        <ele>5.5</ele>
        <time>2020-06-23T10:57:43Z</time>
      </trkpt>
      <trkpt lat="51.03054" lon="2.37123">
        <ele>5.5</ele>
        <time>2020-06-23T10:57:44Z</time>
      </trkpt>
      <trkpt lat="51.03057" lon="2.37122">
        <ele>5.5</ele>
        <time>2020-06-23T10:57:45Z</time>
      </trkpt>
      <trkpt lat="51.03061" lon="2.3712">
        <ele>5.5</ele>
        <time>2020-06-23T10:57:46Z</time>
      </trkpt>
      <trkpt lat="51.03065" lon="2.3712">
        <ele>5.5</ele>
        <time>2020-06-23T10:57:47Z</time>
      </trkpt>
      <trkpt lat="51.03069" lon="2.37119">
        <ele>5.5</ele>
        <time>2020-06-23T10:57:48Z</time>
      </trkpt>
      <trkpt lat="51.03072" lon="2.37118">
        <ele>5.5</ele>
        <time>2020-06-23T10:57:49Z</time>
      </trkpt>
      <trkpt lat="51.03075" lon="2.37118">
        <ele>5.5</ele>
        <time>2020-06-23T10:57:50Z</time>
      </trkpt>
      <trkpt lat="51.03076" lon="2.37118">
        <ele>5.5</ele>
        <time>2020-06-23T10:57:51Z</time>
      </trkpt>
      <trkpt lat="51.03079" lon="2.37118">
        <ele>5.5</ele>
        <time>2020-06-23T10:57:52Z</time>
      </trkpt>
      <trkpt lat="51.03082" lon="2.37123">
        <ele>5.5</ele>
        <time>2020-06-23T10:57:53Z</time>
      </trkpt>
      <trkpt lat="51.03082" lon="2.37125">
        <ele>5.5</ele>
        <time>2020-06-23T10:57:54Z</time>
      </trkpt>
      <trkpt lat="51.03084" lon="2.37129">
        <ele>5.5</ele>
        <time>2020-06-23T10:57:55Z</time>
      </trkpt>
      <trkpt lat="51.03085" lon="2.37135">
        <ele>5.5</ele>
        <time>2020-06-23T10:57:56Z</time>
      </trkpt>
      <trkpt lat="51.03085" lon="2.37137">
        <ele>5.5</ele>
        <time>2020-06-23T10:57:57Z</time>
      </trkpt>
      <trkpt lat="51.03086" lon="2.37142">
        <ele>5.5</ele>
        <time>2020-06-23T10:57:58Z</time>
      </trkpt>
      <trkpt lat="51.03087" lon="2.37144">
        <ele>5.5</ele>
        <time>2020-06-23T10:57:59Z</time>
      </trkpt>
      <trkpt lat="51.03088" lon="2.3715">
        <ele>5.5</ele>
        <time>2020-06-23T10:58:00Z</time>
      </trkpt>
      <trkpt lat="51.03088" lon="2.37154">
        <ele>5.5</ele>
        <time>2020-06-23T10:58:01Z</time>
      </trkpt>
      <trkpt lat="51.03089" lon="2.37163">
        <ele>5.5</ele>
        <time>2020-06-23T10:58:02Z</time>
      </trkpt>
      <trkpt lat="51.0309" lon="2.37167">
        <ele>5.5</ele>
        <time>2020-06-23T10:58:03Z</time>
      </trkpt>
      <trkpt lat="51.0309" lon="2.37172">
        <ele>5.4</ele>
        <time>2020-06-23T10:58:04Z</time>
      </trkpt>
      <trkpt lat="51.0309" lon="2.37174">
        <ele>5.4</ele>
        <time>2020-06-23T10:58:05Z</time>
      </trkpt>
      <trkpt lat="51.03092" lon="2.37179">
        <ele>5.4</ele>
        <time>2020-06-23T10:58:06Z</time>
      </trkpt>
      <trkpt lat="51.03093" lon="2.37184">
        <ele>5.4</ele>
        <time>2020-06-23T10:58:07Z</time>
      </trkpt>
      <trkpt lat="51.03094" lon="2.37187">
        <ele>5.3</ele>
        <time>2020-06-23T10:58:08Z</time>
      </trkpt>
      <trkpt lat="51.03094" lon="2.37192">
        <ele>5.3</ele>
        <time>2020-06-23T10:58:09Z</time>
      </trkpt>
      <trkpt lat="51.03094" lon="2.37193">
        <ele>5.3</ele>
        <time>2020-06-23T10:58:10Z</time>
      </trkpt>
      <trkpt lat="51.03095" lon="2.37197">
        <ele>5.3</ele>
        <time>2020-06-23T10:58:11Z</time>
      </trkpt>
      <trkpt lat="51.03094" lon="2.37198">
        <ele>5.3</ele>
        <time>2020-06-23T10:58:12Z</time>
      </trkpt>
      <trkpt lat="51.03094" lon="2.37199">
        <ele>5.3</ele>
        <time>2020-06-23T10:58:13Z</time>
      </trkpt>
      <trkpt lat="51.03094" lon="2.37202">
        <ele>5.2</ele>
        <time>2020-06-23T10:58:14Z</time>
      </trkpt>
      <trkpt lat="51.03093" lon="2.37204">
        <ele>5.2</ele>
        <time>2020-06-23T10:58:15Z</time>
      </trkpt>
      <trkpt lat="51.03092" lon="2.37209">
        <ele>5.2</ele>
        <time>2020-06-23T10:58:16Z</time>
      </trkpt>
      <trkpt lat="51.03092" lon="2.37217">
        <ele>5.2</ele>
        <time>2020-06-23T10:58:17Z</time>
      </trkpt>
      <trkpt lat="51.03093" lon="2.37225">
        <ele>5.1</ele>
        <time>2020-06-23T10:58:18Z</time>
      </trkpt>
      <trkpt lat="51.03095" lon="2.3723">
        <ele>5.1</ele>
        <time>2020-06-23T10:58:19Z</time>
      </trkpt>
      <trkpt lat="51.03097" lon="2.37237">
        <ele>5</ele>
        <time>2020-06-23T10:58:20Z</time>
      </trkpt>
      <trkpt lat="51.03099" lon="2.37242">
        <ele>5</ele>
        <time>2020-06-23T10:58:21Z</time>
      </trkpt>
      <trkpt lat="51.03101" lon="2.37248">
        <ele>4.9</ele>
        <time>2020-06-23T10:58:22Z</time>
      </trkpt>
      <trkpt lat="51.03102" lon="2.37253">
        <ele>4.9</ele>
        <time>2020-06-23T10:58:23Z</time>
      </trkpt>
      <trkpt lat="51.03103" lon="2.37257">
        <ele>4.8</ele>
        <time>2020-06-23T10:58:24Z</time>
      </trkpt>
      <trkpt lat="51.03105" lon="2.37261">
        <ele>4.8</ele>
        <time>2020-06-23T10:58:25Z</time>
      </trkpt>
      <trkpt lat="51.03105" lon="2.37263">
        <ele>4.8</ele>
        <time>2020-06-23T10:58:26Z</time>
      </trkpt>
      <trkpt lat="51.03108" lon="2.37266">
        <ele>4.8</ele>
        <time>2020-06-23T10:58:27Z</time>
      </trkpt>
      <trkpt lat="51.0311" lon="2.37273">
        <ele>4.7</ele>
        <time>2020-06-23T10:58:28Z</time>
      </trkpt>
      <trkpt lat="51.0311" lon="2.37276">
        <ele>4.7</ele>
        <time>2020-06-23T10:58:29Z</time>
      </trkpt>
      <trkpt lat="51.03111" lon="2.37282">
        <ele>4.7</ele>
        <time>2020-06-23T10:58:30Z</time>
      </trkpt>
      <trkpt lat="51.03113" lon="2.37288">
        <ele>4.6</ele>
        <time>2020-06-23T10:58:31Z</time>
      </trkpt>
      <trkpt lat="51.03115" lon="2.37294">
        <ele>4.6</ele>
        <time>2020-06-23T10:58:32Z</time>
      </trkpt>
      <trkpt lat="51.03116" lon="2.373">
        <ele>4.5</ele>
        <time>2020-06-23T10:58:33Z</time>
      </trkpt>
      <trkpt lat="51.03118" lon="2.37306">
        <ele>4.5</ele>
        <time>2020-06-23T10:58:34Z</time>
      </trkpt>
      <trkpt lat="51.0312" lon="2.37313">
        <ele>4.4</ele>
        <time>2020-06-23T10:58:35Z</time>
      </trkpt>
      <trkpt lat="51.03121" lon="2.3732">
        <ele>4.4</ele>
        <time>2020-06-23T10:58:36Z</time>
      </trkpt>
      <trkpt lat="51.03123" lon="2.37328">
        <ele>4.4</ele>
        <time>2020-06-23T10:58:37Z</time>
      </trkpt>
      <trkpt lat="51.03125" lon="2.37337">
        <ele>4.4</ele>
        <time>2020-06-23T10:58:38Z</time>
      </trkpt>
      <trkpt lat="51.03126" lon="2.37344">
        <ele>4.4</ele>
        <time>2020-06-23T10:58:39Z</time>
      </trkpt>
      <trkpt lat="51.03126" lon="2.37349">
        <ele>4.3</ele>
        <time>2020-06-23T10:58:40Z</time>
      </trkpt>
      <trkpt lat="51.03126" lon="2.37351">
        <ele>4.3</ele>
        <time>2020-06-23T10:58:41Z</time>
      </trkpt>
      <trkpt lat="51.03128" lon="2.37358">
        <ele>4.3</ele>
        <time>2020-06-23T10:58:42Z</time>
      </trkpt>
      <trkpt lat="51.03128" lon="2.3736">
        <ele>4.2</ele>
        <time>2020-06-23T10:58:43Z</time>
      </trkpt>
      <trkpt lat="51.03129" lon="2.37366">
        <ele>4.2</ele>
        <time>2020-06-23T10:58:44Z</time>
      </trkpt>
      <trkpt lat="51.0313" lon="2.37374">
        <ele>4.1</ele>
        <time>2020-06-23T10:58:45Z</time>
      </trkpt>
      <trkpt lat="51.03132" lon="2.37381">
        <ele>4.1</ele>
        <time>2020-06-23T10:58:46Z</time>
      </trkpt>
      <trkpt lat="51.03134" lon="2.37388">
        <ele>4</ele>
        <time>2020-06-23T10:58:47Z</time>
      </trkpt>
      <trkpt lat="51.03134" lon="2.37396">
        <ele>3.9</ele>
        <time>2020-06-23T10:58:48Z</time>
      </trkpt>
      <trkpt lat="51.03136" lon="2.37403">
        <ele>3.8</ele>
        <time>2020-06-23T10:58:49Z</time>
      </trkpt>
      <trkpt lat="51.03137" lon="2.3741">
        <ele>3.7</ele>
        <time>2020-06-23T10:58:50Z</time>
      </trkpt>
      <trkpt lat="51.03139" lon="2.37417">
        <ele>3.7</ele>
        <time>2020-06-23T10:58:51Z</time>
      </trkpt>
      <trkpt lat="51.0314" lon="2.37424">
        <ele>3.7</ele>
        <time>2020-06-23T10:58:52Z</time>
      </trkpt>
      <trkpt lat="51.03142" lon="2.37432">
        <ele>3.7</ele>
        <time>2020-06-23T10:58:53Z</time>
      </trkpt>
      <trkpt lat="51.03144" lon="2.37439">
        <ele>3.7</ele>
        <time>2020-06-23T10:58:54Z</time>
      </trkpt>
      <trkpt lat="51.03145" lon="2.37446">
        <ele>3.7</ele>
        <time>2020-06-23T10:58:55Z</time>
      </trkpt>
      <trkpt lat="51.03146" lon="2.37455">
        <ele>3.7</ele>
        <time>2020-06-23T10:58:56Z</time>
      </trkpt>
      <trkpt lat="51.03148" lon="2.37462">
        <ele>3.8</ele>
        <time>2020-06-23T10:58:57Z</time>
      </trkpt>
      <trkpt lat="51.0315" lon="2.3747">
        <ele>3.9</ele>
        <time>2020-06-23T10:58:58Z</time>
      </trkpt>
      <trkpt lat="51.03153" lon="2.37476">
        <ele>4</ele>
        <time>2020-06-23T10:58:59Z</time>
      </trkpt>
      <trkpt lat="51.03155" lon="2.37483">
        <ele>4.1</ele>
        <time>2020-06-23T10:59:00Z</time>
      </trkpt>
      <trkpt lat="51.03157" lon="2.37491">
        <ele>4.2</ele>
        <time>2020-06-23T10:59:01Z</time>
      </trkpt>
      <trkpt lat="51.0316" lon="2.37496">
        <ele>4.4</ele>
        <time>2020-06-23T10:59:02Z</time>
      </trkpt>
      <trkpt lat="51.03161" lon="2.37503">
        <ele>4.6</ele>
        <time>2020-06-23T10:59:03Z</time>
      </trkpt>
      <trkpt lat="51.03164" lon="2.37512">
        <ele>4.7</ele>
        <time>2020-06-23T10:59:04Z</time>
      </trkpt>
      <trkpt lat="51.03166" lon="2.37519">
        <ele>4.9</ele>
        <time>2020-06-23T10:59:05Z</time>
      </trkpt>
      <trkpt lat="51.03167" lon="2.37526">
        <ele>5.1</ele>
        <time>2020-06-23T10:59:06Z</time>
      </trkpt>
      <trkpt lat="51.03167" lon="2.37533">
        <ele>5.2</ele>
        <time>2020-06-23T10:59:07Z</time>
      </trkpt>
      <trkpt lat="51.03169" lon="2.3754">
        <ele>5.5</ele>
        <time>2020-06-23T10:59:08Z</time>
      </trkpt>
      <trkpt lat="51.03171" lon="2.37547">
        <ele>5.6</ele>
        <time>2020-06-23T10:59:09Z</time>
      </trkpt>
      <trkpt lat="51.03173" lon="2.37555">
        <ele>5.7</ele>
        <time>2020-06-23T10:59:10Z</time>
      </trkpt>
      <trkpt lat="51.03174" lon="2.37563">
        <ele>5.6</ele>
        <time>2020-06-23T10:59:11Z</time>
      </trkpt>
      <trkpt lat="51.03176" lon="2.37568">
        <ele>5.6</ele>
        <time>2020-06-23T10:59:12Z</time>
      </trkpt>
      <trkpt lat="51.03178" lon="2.37573">
        <ele>5.6</ele>
        <time>2020-06-23T10:59:13Z</time>
      </trkpt>
      <trkpt lat="51.03179" lon="2.37578">
        <ele>5.5</ele>
        <time>2020-06-23T10:59:14Z</time>
      </trkpt>
      <trkpt lat="51.0318" lon="2.37584">
        <ele>5.5</ele>
        <time>2020-06-23T10:59:15Z</time>
      </trkpt>
      <trkpt lat="51.0318" lon="2.37589">
        <ele>5.5</ele>
        <time>2020-06-23T10:59:16Z</time>
      </trkpt>
      <trkpt lat="51.03182" lon="2.37596">
        <ele>5.5</ele>
        <time>2020-06-23T10:59:17Z</time>
      </trkpt>
      <trkpt lat="51.03184" lon="2.37603">
        <ele>5.5</ele>
        <time>2020-06-23T10:59:18Z</time>
      </trkpt>
      <trkpt lat="51.03185" lon="2.3761">
        <ele>5.5</ele>
        <time>2020-06-23T10:59:19Z</time>
      </trkpt>
      <trkpt lat="51.03187" lon="2.37618">
        <ele>5.5</ele>
        <time>2020-06-23T10:59:20Z</time>
      </trkpt>
      <trkpt lat="51.03188" lon="2.37624">
        <ele>5.5</ele>
        <time>2020-06-23T10:59:21Z</time>
      </trkpt>
      <trkpt lat="51.03191" lon="2.37631">
        <ele>5.5</ele>
        <time>2020-06-23T10:59:22Z</time>
      </trkpt>
      <trkpt lat="51.03192" lon="2.37636">
        <ele>5.5</ele>
        <time>2020-06-23T10:59:23Z</time>
      </trkpt>
      <trkpt lat="51.03193" lon="2.37642">
        <ele>5.4</ele>
        <time>2020-06-23T10:59:24Z</time>
      </trkpt>
      <trkpt lat="51.03195" lon="2.37648">
        <ele>5.4</ele>
        <time>2020-06-23T10:59:25Z</time>
      </trkpt>
      <trkpt lat="51.03198" lon="2.37653">
        <ele>5.4</ele>
        <time>2020-06-23T10:59:26Z</time>
      </trkpt>
      <trkpt lat="51.03201" lon="2.37663">
        <ele>5.3</ele>
        <time>2020-06-23T10:59:27Z</time>
      </trkpt>
      <trkpt lat="51.03205" lon="2.37674">
        <ele>5.3</ele>
        <time>2020-06-23T10:59:28Z</time>
      </trkpt>
      <trkpt lat="51.03208" lon="2.37683">
        <ele>5.2</ele>
        <time>2020-06-23T10:59:29Z</time>
      </trkpt>
      <trkpt lat="51.03212" lon="2.3769">
        <ele>5.2</ele>
        <time>2020-06-23T10:59:30Z</time>
      </trkpt>
      <trkpt lat="51.03215" lon="2.37699">
        <ele>5.1</ele>
        <time>2020-06-23T10:59:31Z</time>
      </trkpt>
      <trkpt lat="51.03218" lon="2.37706">
        <ele>5.1</ele>
        <time>2020-06-23T10:59:32Z</time>
      </trkpt>
      <trkpt lat="51.03221" lon="2.37713">
        <ele>5.1</ele>
        <time>2020-06-23T10:59:33Z</time>
      </trkpt>
      <trkpt lat="51.03223" lon="2.37718">
        <ele>5.1</ele>
        <time>2020-06-23T10:59:34Z</time>
      </trkpt>
      <trkpt lat="51.03226" lon="2.37725">
        <ele>5.1</ele>
        <time>2020-06-23T10:59:35Z</time>
      </trkpt>
      <trkpt lat="51.03227" lon="2.37732">
        <ele>5</ele>
        <time>2020-06-23T10:59:36Z</time>
      </trkpt>
      <trkpt lat="51.03229" lon="2.37738">
        <ele>4.9</ele>
        <time>2020-06-23T10:59:37Z</time>
      </trkpt>
      <trkpt lat="51.03231" lon="2.37745">
        <ele>4.9</ele>
        <time>2020-06-23T10:59:38Z</time>
      </trkpt>
      <trkpt lat="51.03234" lon="2.37752">
        <ele>4.8</ele>
        <time>2020-06-23T10:59:39Z</time>
      </trkpt>
      <trkpt lat="51.03236" lon="2.37759">
        <ele>4.8</ele>
        <time>2020-06-23T10:59:40Z</time>
      </trkpt>
      <trkpt lat="51.03239" lon="2.37767">
        <ele>4.8</ele>
        <time>2020-06-23T10:59:41Z</time>
      </trkpt>
      <trkpt lat="51.03241" lon="2.37773">
        <ele>4.8</ele>
        <time>2020-06-23T10:59:42Z</time>
      </trkpt>
      <trkpt lat="51.03243" lon="2.3778">
        <ele>4.8</ele>
        <time>2020-06-23T10:59:43Z</time>
      </trkpt>
      <trkpt lat="51.03245" lon="2.37786">
        <ele>4.8</ele>
        <time>2020-06-23T10:59:44Z</time>
      </trkpt>
      <trkpt lat="51.03247" lon="2.37793">
        <ele>4.8</ele>
        <time>2020-06-23T10:59:45Z</time>
      </trkpt>
      <trkpt lat="51.03248" lon="2.37799">
        <ele>4.8</ele>
        <time>2020-06-23T10:59:46Z</time>
      </trkpt>
      <trkpt lat="51.03248" lon="2.37805">
        <ele>4.8</ele>
        <time>2020-06-23T10:59:47Z</time>
      </trkpt>
      <trkpt lat="51.03249" lon="2.37813">
        <ele>4.8</ele>
        <time>2020-06-23T10:59:48Z</time>
      </trkpt>
      <trkpt lat="51.03251" lon="2.37819">
        <ele>4.8</ele>
        <time>2020-06-23T10:59:49Z</time>
      </trkpt>
      <trkpt lat="51.03253" lon="2.37828">
        <ele>4.9</ele>
        <time>2020-06-23T10:59:50Z</time>
      </trkpt>
      <trkpt lat="51.03256" lon="2.37836">
        <ele>4.9</ele>
        <time>2020-06-23T10:59:51Z</time>
      </trkpt>
      <trkpt lat="51.03259" lon="2.37844">
        <ele>5</ele>
        <time>2020-06-23T10:59:52Z</time>
      </trkpt>
      <trkpt lat="51.0326" lon="2.3785">
        <ele>5</ele>
        <time>2020-06-23T10:59:53Z</time>
      </trkpt>
      <trkpt lat="51.03261" lon="2.37857">
        <ele>5</ele>
        <time>2020-06-23T10:59:54Z</time>
      </trkpt>
      <trkpt lat="51.03263" lon="2.37861">
        <ele>5</ele>
        <time>2020-06-23T10:59:55Z</time>
      </trkpt>
      <trkpt lat="51.03264" lon="2.37867">
        <ele>4.9</ele>
        <time>2020-06-23T10:59:56Z</time>
      </trkpt>
      <trkpt lat="51.03266" lon="2.37873">
        <ele>4.9</ele>
        <time>2020-06-23T10:59:57Z</time>
      </trkpt>
      <trkpt lat="51.03268" lon="2.37879">
        <ele>4.8</ele>
        <time>2020-06-23T10:59:58Z</time>
      </trkpt>
      <trkpt lat="51.0327" lon="2.37883">
        <ele>4.8</ele>
        <time>2020-06-23T10:59:59Z</time>
      </trkpt>
      <trkpt lat="51.03272" lon="2.3789">
        <ele>4.8</ele>
        <time>2020-06-23T11:00:00Z</time>
      </trkpt>
      <trkpt lat="51.03274" lon="2.37896">
        <ele>4.8</ele>
        <time>2020-06-23T11:00:01Z</time>
      </trkpt>
      <trkpt lat="51.03276" lon="2.37901">
        <ele>4.8</ele>
        <time>2020-06-23T11:00:02Z</time>
      </trkpt>
      <trkpt lat="51.03278" lon="2.37907">
        <ele>4.8</ele>
        <time>2020-06-23T11:00:03Z</time>
      </trkpt>
      <trkpt lat="51.03279" lon="2.37914">
        <ele>4.8</ele>
        <time>2020-06-23T11:00:04Z</time>
      </trkpt>
      <trkpt lat="51.03281" lon="2.37923">
        <ele>4.8</ele>
        <time>2020-06-23T11:00:05Z</time>
      </trkpt>
      <trkpt lat="51.03283" lon="2.37931">
        <ele>4.8</ele>
        <time>2020-06-23T11:00:06Z</time>
      </trkpt>
      <trkpt lat="51.03284" lon="2.37937">
        <ele>4.8</ele>
        <time>2020-06-23T11:00:07Z</time>
      </trkpt>
      <trkpt lat="51.03286" lon="2.37944">
        <ele>4.7</ele>
        <time>2020-06-23T11:00:08Z</time>
      </trkpt>
      <trkpt lat="51.03289" lon="2.37953">
        <ele>4.7</ele>
        <time>2020-06-23T11:00:09Z</time>
      </trkpt>
      <trkpt lat="51.03292" lon="2.37961">
        <ele>4.7</ele>
        <time>2020-06-23T11:00:10Z</time>
      </trkpt>
      <trkpt lat="51.03295" lon="2.37967">
        <ele>4.8</ele>
        <time>2020-06-23T11:00:11Z</time>
      </trkpt>
      <trkpt lat="51.03298" lon="2.37974">
        <ele>4.8</ele>
        <time>2020-06-23T11:00:12Z</time>
      </trkpt>
      <trkpt lat="51.033" lon="2.37979">
        <ele>4.7</ele>
        <time>2020-06-23T11:00:13Z</time>
      </trkpt>
      <trkpt lat="51.03302" lon="2.37986">
        <ele>4.7</ele>
        <time>2020-06-23T11:00:14Z</time>
      </trkpt>
      <trkpt lat="51.03304" lon="2.37993">
        <ele>4.7</ele>
        <time>2020-06-23T11:00:15Z</time>
      </trkpt>
      <trkpt lat="51.03305" lon="2.38">
        <ele>4.7</ele>
        <time>2020-06-23T11:00:16Z</time>
      </trkpt>
      <trkpt lat="51.03307" lon="2.38007">
        <ele>4.7</ele>
        <time>2020-06-23T11:00:17Z</time>
      </trkpt>
      <trkpt lat="51.0331" lon="2.38014">
        <ele>4.7</ele>
        <time>2020-06-23T11:00:18Z</time>
      </trkpt>
      <trkpt lat="51.03312" lon="2.38024">
        <ele>4.7</ele>
        <time>2020-06-23T11:00:19Z</time>
      </trkpt>
      <trkpt lat="51.03314" lon="2.38033">
        <ele>4.7</ele>
        <time>2020-06-23T11:00:20Z</time>
      </trkpt>
      <trkpt lat="51.03317" lon="2.38043">
        <ele>4.7</ele>
        <time>2020-06-23T11:00:21Z</time>
      </trkpt>
      <trkpt lat="51.03319" lon="2.3805">
        <ele>4.8</ele>
        <time>2020-06-23T11:00:22Z</time>
      </trkpt>
      <trkpt lat="51.03321" lon="2.38056">
        <ele>4.8</ele>
        <time>2020-06-23T11:00:23Z</time>
      </trkpt>
      <trkpt lat="51.03324" lon="2.38063">
        <ele>4.9</ele>
        <time>2020-06-23T11:00:24Z</time>
      </trkpt>
      <trkpt lat="51.03324" lon="2.38069">
        <ele>4.9</ele>
        <time>2020-06-23T11:00:25Z</time>
      </trkpt>
      <trkpt lat="51.03324" lon="2.38074">
        <ele>4.9</ele>
        <time>2020-06-23T11:00:26Z</time>
      </trkpt>
      <trkpt lat="51.03322" lon="2.38081">
        <ele>4.9</ele>
        <time>2020-06-23T11:00:27Z</time>
      </trkpt>
      <trkpt lat="51.03322" lon="2.38083">
        <ele>4.9</ele>
        <time>2020-06-23T11:00:28Z</time>
      </trkpt>
      <trkpt lat="51.03323" lon="2.38089">
        <ele>4.9</ele>
        <time>2020-06-23T11:00:29Z</time>
      </trkpt>
      <trkpt lat="51.03325" lon="2.38096">
        <ele>4.9</ele>
        <time>2020-06-23T11:00:30Z</time>
      </trkpt>
      <trkpt lat="51.03327" lon="2.38102">
        <ele>4.9</ele>
        <time>2020-06-23T11:00:31Z</time>
      </trkpt>
      <trkpt lat="51.03329" lon="2.38107">
        <ele>4.9</ele>
        <time>2020-06-23T11:00:32Z</time>
      </trkpt>
      <trkpt lat="51.03331" lon="2.38113">
        <ele>4.9</ele>
        <time>2020-06-23T11:00:33Z</time>
      </trkpt>
      <trkpt lat="51.03332" lon="2.38121">
        <ele>4.9</ele>
        <time>2020-06-23T11:00:34Z</time>
      </trkpt>
      <trkpt lat="51.03333" lon="2.38127">
        <ele>4.9</ele>
        <time>2020-06-23T11:00:35Z</time>
      </trkpt>
      <trkpt lat="51.03335" lon="2.38134">
        <ele>4.9</ele>
        <time>2020-06-23T11:00:36Z</time>
      </trkpt>
      <trkpt lat="51.03337" lon="2.38141">
        <ele>4.9</ele>
        <time>2020-06-23T11:00:37Z</time>
      </trkpt>
      <trkpt lat="51.03339" lon="2.38146">
        <ele>4.9</ele>
        <time>2020-06-23T11:00:38Z</time>
      </trkpt>
      <trkpt lat="51.03341" lon="2.38152">
        <ele>4.9</ele>
        <time>2020-06-23T11:00:39Z</time>
      </trkpt>
      <trkpt lat="51.03342" lon="2.38159">
        <ele>4.9</ele>
        <time>2020-06-23T11:00:40Z</time>
      </trkpt>
      <trkpt lat="51.03344" lon="2.38164">
        <ele>4.9</ele>
        <time>2020-06-23T11:00:41Z</time>
      </trkpt>
      <trkpt lat="51.03345" lon="2.38169">
        <ele>4.9</ele>
        <time>2020-06-23T11:00:42Z</time>
      </trkpt>
      <trkpt lat="51.03347" lon="2.38177">
        <ele>5</ele>
        <time>2020-06-23T11:00:43Z</time>
      </trkpt>
      <trkpt lat="51.03349" lon="2.38184">
        <ele>5</ele>
        <time>2020-06-23T11:00:44Z</time>
      </trkpt>
      <trkpt lat="51.03351" lon="2.38191">
        <ele>5</ele>
        <time>2020-06-23T11:00:45Z</time>
      </trkpt>
      <trkpt lat="51.03354" lon="2.38197">
        <ele>5</ele>
        <time>2020-06-23T11:00:46Z</time>
      </trkpt>
      <trkpt lat="51.03356" lon="2.38203">
        <ele>5</ele>
        <time>2020-06-23T11:00:47Z</time>
      </trkpt>
      <trkpt lat="51.03358" lon="2.3821">
        <ele>5</ele>
        <time>2020-06-23T11:00:48Z</time>
      </trkpt>
      <trkpt lat="51.0336" lon="2.38217">
        <ele>5</ele>
        <time>2020-06-23T11:00:49Z</time>
      </trkpt>
      <trkpt lat="51.03362" lon="2.38224">
        <ele>5</ele>
        <time>2020-06-23T11:00:50Z</time>
      </trkpt>
      <trkpt lat="51.03365" lon="2.38231">
        <ele>5.1</ele>
        <time>2020-06-23T11:00:51Z</time>
      </trkpt>
      <trkpt lat="51.03368" lon="2.38239">
        <ele>5.1</ele>
        <time>2020-06-23T11:00:52Z</time>
      </trkpt>
      <trkpt lat="51.0337" lon="2.38245">
        <ele>5.1</ele>
        <time>2020-06-23T11:00:53Z</time>
      </trkpt>
      <trkpt lat="51.03372" lon="2.38252">
        <ele>5.2</ele>
        <time>2020-06-23T11:00:54Z</time>
      </trkpt>
      <trkpt lat="51.03373" lon="2.38259">
        <ele>5.2</ele>
        <time>2020-06-23T11:00:55Z</time>
      </trkpt>
      <trkpt lat="51.03375" lon="2.38265">
        <ele>5.2</ele>
        <time>2020-06-23T11:00:56Z</time>
      </trkpt>
      <trkpt lat="51.03377" lon="2.38273">
        <ele>5.3</ele>
        <time>2020-06-23T11:00:57Z</time>
      </trkpt>
      <trkpt lat="51.03379" lon="2.38281">
        <ele>5.3</ele>
        <time>2020-06-23T11:00:58Z</time>
      </trkpt>
      <trkpt lat="51.03381" lon="2.38288">
        <ele>5.3</ele>
        <time>2020-06-23T11:00:59Z</time>
      </trkpt>
      <trkpt lat="51.03383" lon="2.38295">
        <ele>5.4</ele>
        <time>2020-06-23T11:01:00Z</time>
      </trkpt>
      <trkpt lat="51.03385" lon="2.383">
        <ele>5.4</ele>
        <time>2020-06-23T11:01:01Z</time>
      </trkpt>
      <trkpt lat="51.03386" lon="2.38307">
        <ele>5.4</ele>
        <time>2020-06-23T11:01:02Z</time>
      </trkpt>
      <trkpt lat="51.03388" lon="2.38314">
        <ele>5.4</ele>
        <time>2020-06-23T11:01:03Z</time>
      </trkpt>
      <trkpt lat="51.03389" lon="2.38321">
        <ele>5.5</ele>
        <time>2020-06-23T11:01:04Z</time>
      </trkpt>
      <trkpt lat="51.03391" lon="2.38327">
        <ele>5.5</ele>
        <time>2020-06-23T11:01:05Z</time>
      </trkpt>
      <trkpt lat="51.03393" lon="2.38334">
        <ele>5.5</ele>
        <time>2020-06-23T11:01:06Z</time>
      </trkpt>
      <trkpt lat="51.03395" lon="2.38341">
        <ele>5.5</ele>
        <time>2020-06-23T11:01:07Z</time>
      </trkpt>
      <trkpt lat="51.03396" lon="2.38349">
        <ele>5.4</ele>
        <time>2020-06-23T11:01:08Z</time>
      </trkpt>
      <trkpt lat="51.03399" lon="2.38355">
        <ele>5.4</ele>
        <time>2020-06-23T11:01:09Z</time>
      </trkpt>
      <trkpt lat="51.03401" lon="2.38362">
        <ele>5.4</ele>
        <time>2020-06-23T11:01:10Z</time>
      </trkpt>
      <trkpt lat="51.03403" lon="2.38368">
        <ele>5.4</ele>
        <time>2020-06-23T11:01:11Z</time>
      </trkpt>
      <trkpt lat="51.03406" lon="2.38375">
        <ele>5.4</ele>
        <time>2020-06-23T11:01:12Z</time>
      </trkpt>
      <trkpt lat="51.03409" lon="2.38382">
        <ele>5.4</ele>
        <time>2020-06-23T11:01:13Z</time>
      </trkpt>
      <trkpt lat="51.03411" lon="2.38389">
        <ele>5.5</ele>
        <time>2020-06-23T11:01:14Z</time>
      </trkpt>
      <trkpt lat="51.03413" lon="2.38396">
        <ele>5.5</ele>
        <time>2020-06-23T11:01:15Z</time>
      </trkpt>
      <trkpt lat="51.03415" lon="2.38402">
        <ele>5.5</ele>
        <time>2020-06-23T11:01:16Z</time>
      </trkpt>
      <trkpt lat="51.03417" lon="2.38409">
        <ele>5.5</ele>
        <time>2020-06-23T11:01:17Z</time>
      </trkpt>
      <trkpt lat="51.0342" lon="2.38415">
        <ele>5.5</ele>
        <time>2020-06-23T11:01:18Z</time>
      </trkpt>
      <trkpt lat="51.03423" lon="2.3842">
        <ele>5.5</ele>
        <time>2020-06-23T11:01:19Z</time>
      </trkpt>
      <trkpt lat="51.03426" lon="2.38424">
        <ele>5.5</ele>
        <time>2020-06-23T11:01:20Z</time>
      </trkpt>
      <trkpt lat="51.03429" lon="2.38428">
        <ele>5.5</ele>
        <time>2020-06-23T11:01:21Z</time>
      </trkpt>
      <trkpt lat="51.03431" lon="2.38431">
        <ele>5.5</ele>
        <time>2020-06-23T11:01:22Z</time>
      </trkpt>
      <trkpt lat="51.03431" lon="2.38432">
        <ele>5.5</ele>
        <time>2020-06-23T11:01:23Z</time>
      </trkpt>
      <trkpt lat="51.03432" lon="2.38433">
        <ele>5.5</ele>
        <time>2020-06-23T11:01:24Z</time>
      </trkpt>
      <trkpt lat="51.03433" lon="2.38437">
        <ele>5.5</ele>
        <time>2020-06-23T11:01:25Z</time>
      </trkpt>
      <trkpt lat="51.03433" lon="2.38442">
        <ele>5.5</ele>
        <time>2020-06-23T11:01:26Z</time>
      </trkpt>
      <trkpt lat="51.03434" lon="2.38444">
        <ele>5.5</ele>
        <time>2020-06-23T11:01:27Z</time>
      </trkpt>
      <trkpt lat="51.03435" lon="2.38449">
        <ele>5.5</ele>
        <time>2020-06-23T11:01:28Z</time>
      </trkpt>
      <trkpt lat="51.03435" lon="2.38451">
        <ele>5.5</ele>
        <time>2020-06-23T11:01:29Z</time>
      </trkpt>
      <trkpt lat="51.03438" lon="2.38453">
        <ele>5.5</ele>
        <time>2020-06-23T11:01:30Z</time>
      </trkpt>
      <trkpt lat="51.0344" lon="2.38452">
        <ele>5.5</ele>
        <time>2020-06-23T11:01:31Z</time>
      </trkpt>
      <trkpt lat="51.03443" lon="2.38452">
        <ele>5.5</ele>
        <time>2020-06-23T11:01:32Z</time>
      </trkpt>
      <trkpt lat="51.03447" lon="2.38452">
        <ele>5.5</ele>
        <time>2020-06-23T11:01:33Z</time>
      </trkpt>
      <trkpt lat="51.0345" lon="2.38454">
        <ele>5.4</ele>
        <time>2020-06-23T11:01:34Z</time>
      </trkpt>
      <trkpt lat="51.03454" lon="2.3846">
        <ele>5.4</ele>
        <time>2020-06-23T11:01:35Z</time>
      </trkpt>
      <trkpt lat="51.03455" lon="2.38468">
        <ele>5.3</ele>
        <time>2020-06-23T11:01:36Z</time>
      </trkpt>
      <trkpt lat="51.03457" lon="2.38477">
        <ele>5.3</ele>
        <time>2020-06-23T11:01:37Z</time>
      </trkpt>
      <trkpt lat="51.03459" lon="2.38486">
        <ele>5.2</ele>
        <time>2020-06-23T11:01:38Z</time>
      </trkpt>
      <trkpt lat="51.0346" lon="2.38495">
        <ele>5.2</ele>
        <time>2020-06-23T11:01:39Z</time>
      </trkpt>
      <trkpt lat="51.03462" lon="2.38505">
        <ele>5.1</ele>
        <time>2020-06-23T11:01:40Z</time>
      </trkpt>
      <trkpt lat="51.03463" lon="2.38513">
        <ele>5.1</ele>
        <time>2020-06-23T11:01:41Z</time>
      </trkpt>
      <trkpt lat="51.03463" lon="2.38522">
        <ele>5</ele>
        <time>2020-06-23T11:01:42Z</time>
      </trkpt>
      <trkpt lat="51.03464" lon="2.38531">
        <ele>5</ele>
        <time>2020-06-23T11:01:43Z</time>
      </trkpt>
      <trkpt lat="51.03464" lon="2.3854">
        <ele>4.9</ele>
        <time>2020-06-23T11:01:44Z</time>
      </trkpt>
      <trkpt lat="51.03465" lon="2.3855">
        <ele>4.8</ele>
        <time>2020-06-23T11:01:45Z</time>
      </trkpt>
      <trkpt lat="51.03464" lon="2.38558">
        <ele>4.8</ele>
        <time>2020-06-23T11:01:46Z</time>
      </trkpt>
      <trkpt lat="51.03464" lon="2.38567">
        <ele>4.7</ele>
        <time>2020-06-23T11:01:47Z</time>
      </trkpt>
      <trkpt lat="51.03462" lon="2.38576">
        <ele>4.6</ele>
        <time>2020-06-23T11:01:48Z</time>
      </trkpt>
      <trkpt lat="51.03462" lon="2.38586">
        <ele>4.5</ele>
        <time>2020-06-23T11:01:49Z</time>
      </trkpt>
      <trkpt lat="51.03462" lon="2.38596">
        <ele>4.5</ele>
        <time>2020-06-23T11:01:50Z</time>
      </trkpt>
      <trkpt lat="51.03462" lon="2.38606">
        <ele>4.3</ele>
        <time>2020-06-23T11:01:51Z</time>
      </trkpt>
      <trkpt lat="51.03462" lon="2.38616">
        <ele>4.3</ele>
        <time>2020-06-23T11:01:52Z</time>
      </trkpt>
      <trkpt lat="51.03462" lon="2.38626">
        <ele>4.3</ele>
        <time>2020-06-23T11:01:53Z</time>
      </trkpt>
      <trkpt lat="51.03462" lon="2.38636">
        <ele>4.2</ele>
        <time>2020-06-23T11:01:54Z</time>
      </trkpt>
      <trkpt lat="51.0346" lon="2.38643">
        <ele>4.2</ele>
        <time>2020-06-23T11:01:55Z</time>
      </trkpt>
      <trkpt lat="51.03458" lon="2.38651">
        <ele>4.2</ele>
        <time>2020-06-23T11:01:56Z</time>
      </trkpt>
      <trkpt lat="51.03458" lon="2.3866">
        <ele>4.2</ele>
        <time>2020-06-23T11:01:57Z</time>
      </trkpt>
      <trkpt lat="51.03456" lon="2.38666">
        <ele>4.2</ele>
        <time>2020-06-23T11:01:58Z</time>
      </trkpt>
      <trkpt lat="51.03456" lon="2.38674">
        <ele>4.2</ele>
        <time>2020-06-23T11:01:59Z</time>
      </trkpt>
      <trkpt lat="51.03456" lon="2.38682">
        <ele>4.2</ele>
        <time>2020-06-23T11:02:00Z</time>
      </trkpt>
      <trkpt lat="51.03455" lon="2.3869">
        <ele>4.2</ele>
        <time>2020-06-23T11:02:01Z</time>
      </trkpt>
      <trkpt lat="51.03454" lon="2.38697">
        <ele>4.2</ele>
        <time>2020-06-23T11:02:02Z</time>
      </trkpt>
      <trkpt lat="51.03454" lon="2.38703">
        <ele>4.2</ele>
        <time>2020-06-23T11:02:03Z</time>
      </trkpt>
      <trkpt lat="51.03453" lon="2.38711">
        <ele>4.1</ele>
        <time>2020-06-23T11:02:04Z</time>
      </trkpt>
      <trkpt lat="51.03453" lon="2.38717">
        <ele>4.1</ele>
        <time>2020-06-23T11:02:05Z</time>
      </trkpt>
      <trkpt lat="51.03453" lon="2.38725">
        <ele>4.1</ele>
        <time>2020-06-23T11:02:06Z</time>
      </trkpt>
      <trkpt lat="51.03452" lon="2.38731">
        <ele>4</ele>
        <time>2020-06-23T11:02:07Z</time>
      </trkpt>
      <trkpt lat="51.0345" lon="2.38734">
        <ele>4</ele>
        <time>2020-06-23T11:02:08Z</time>
      </trkpt>
      <trkpt lat="51.03447" lon="2.38735">
        <ele>3.9</ele>
        <time>2020-06-23T11:02:09Z</time>
      </trkpt>
      <trkpt lat="51.03445" lon="2.38734">
        <ele>3.9</ele>
        <time>2020-06-23T11:02:10Z</time>
      </trkpt>
      <trkpt lat="51.03443" lon="2.38737">
        <ele>3.9</ele>
        <time>2020-06-23T11:02:11Z</time>
      </trkpt>
      <trkpt lat="51.0344" lon="2.3874">
        <ele>3.9</ele>
        <time>2020-06-23T11:02:12Z</time>
      </trkpt>
      <trkpt lat="51.03439" lon="2.38745">
        <ele>3.9</ele>
        <time>2020-06-23T11:02:13Z</time>
      </trkpt>
      <trkpt lat="51.03439" lon="2.38747">
        <ele>3.9</ele>
        <time>2020-06-23T11:02:14Z</time>
      </trkpt>
      <trkpt lat="51.03438" lon="2.38752">
        <ele>3.9</ele>
        <time>2020-06-23T11:02:15Z</time>
      </trkpt>
      <trkpt lat="51.03438" lon="2.38754">
        <ele>3.9</ele>
        <time>2020-06-23T11:02:16Z</time>
      </trkpt>
      <trkpt lat="51.03437" lon="2.38758">
        <ele>3.9</ele>
        <time>2020-06-23T11:02:17Z</time>
      </trkpt>
      <trkpt lat="51.03435" lon="2.38763">
        <ele>3.9</ele>
        <time>2020-06-23T11:02:18Z</time>
      </trkpt>
      <trkpt lat="51.03434" lon="2.38766">
        <ele>3.9</ele>
        <time>2020-06-23T11:02:19Z</time>
      </trkpt>
      <trkpt lat="51.03433" lon="2.3877">
        <ele>3.9</ele>
        <time>2020-06-23T11:02:20Z</time>
      </trkpt>
      <trkpt lat="51.03431" lon="2.38775">
        <ele>3.9</ele>
        <time>2020-06-23T11:02:21Z</time>
      </trkpt>
      <trkpt lat="51.0343" lon="2.38781">
        <ele>4</ele>
        <time>2020-06-23T11:02:22Z</time>
      </trkpt>
      <trkpt lat="51.0343" lon="2.38786">
        <ele>4</ele>
        <time>2020-06-23T11:02:23Z</time>
      </trkpt>
      <trkpt lat="51.03431" lon="2.3879">
        <ele>4</ele>
        <time>2020-06-23T11:02:24Z</time>
      </trkpt>
      <trkpt lat="51.0343" lon="2.38795">
        <ele>3.9</ele>
        <time>2020-06-23T11:02:25Z</time>
      </trkpt>
      <trkpt lat="51.0343" lon="2.38802">
        <ele>3.9</ele>
        <time>2020-06-23T11:02:26Z</time>
      </trkpt>
      <trkpt lat="51.03429" lon="2.3881">
        <ele>3.9</ele>
        <time>2020-06-23T11:02:27Z</time>
      </trkpt>
      <trkpt lat="51.03428" lon="2.38817">
        <ele>3.8</ele>
        <time>2020-06-23T11:02:28Z</time>
      </trkpt>
      <trkpt lat="51.03428" lon="2.38825">
        <ele>3.8</ele>
        <time>2020-06-23T11:02:29Z</time>
      </trkpt>
      <trkpt lat="51.03428" lon="2.38832">
        <ele>3.7</ele>
        <time>2020-06-23T11:02:30Z</time>
      </trkpt>
      <trkpt lat="51.03428" lon="2.3884">
        <ele>3.7</ele>
        <time>2020-06-23T11:02:31Z</time>
      </trkpt>
      <trkpt lat="51.03427" lon="2.38849">
        <ele>3.6</ele>
        <time>2020-06-23T11:02:32Z</time>
      </trkpt>
      <trkpt lat="51.03426" lon="2.38857">
        <ele>3.5</ele>
        <time>2020-06-23T11:02:33Z</time>
      </trkpt>
      <trkpt lat="51.03425" lon="2.38864">
        <ele>3.5</ele>
        <time>2020-06-23T11:02:34Z</time>
      </trkpt>
      <trkpt lat="51.03424" lon="2.38871">
        <ele>3.5</ele>
        <time>2020-06-23T11:02:35Z</time>
      </trkpt>
      <trkpt lat="51.03423" lon="2.38877">
        <ele>3.4</ele>
        <time>2020-06-23T11:02:36Z</time>
      </trkpt>
      <trkpt lat="51.03423" lon="2.38884">
        <ele>3.4</ele>
        <time>2020-06-23T11:02:37Z</time>
      </trkpt>
      <trkpt lat="51.03422" lon="2.38891">
        <ele>3.4</ele>
        <time>2020-06-23T11:02:38Z</time>
      </trkpt>
      <trkpt lat="51.03421" lon="2.38898">
        <ele>3.4</ele>
        <time>2020-06-23T11:02:39Z</time>
      </trkpt>
      <trkpt lat="51.03421" lon="2.38905">
        <ele>3.4</ele>
        <time>2020-06-23T11:02:40Z</time>
      </trkpt>
      <trkpt lat="51.0342" lon="2.38911">
        <ele>3.3</ele>
        <time>2020-06-23T11:02:41Z</time>
      </trkpt>
      <trkpt lat="51.0342" lon="2.38917">
        <ele>3.4</ele>
        <time>2020-06-23T11:02:42Z</time>
      </trkpt>
      <trkpt lat="51.0342" lon="2.38922">
        <ele>3.4</ele>
        <time>2020-06-23T11:02:43Z</time>
      </trkpt>
      <trkpt lat="51.0342" lon="2.38927">
        <ele>3.6</ele>
        <time>2020-06-23T11:02:44Z</time>
      </trkpt>
      <trkpt lat="51.0342" lon="2.38932">
        <ele>3.6</ele>
        <time>2020-06-23T11:02:45Z</time>
      </trkpt>
      <trkpt lat="51.03419" lon="2.38939">
        <ele>3.6</ele>
        <time>2020-06-23T11:02:46Z</time>
      </trkpt>
      <trkpt lat="51.0342" lon="2.38945">
        <ele>3.6</ele>
        <time>2020-06-23T11:02:47Z</time>
      </trkpt>
      <trkpt lat="51.03422" lon="2.38949">
        <ele>3.6</ele>
        <time>2020-06-23T11:02:48Z</time>
      </trkpt>
      <trkpt lat="51.03422" lon="2.38952">
        <ele>3.6</ele>
        <time>2020-06-23T11:02:49Z</time>
      </trkpt>
      <trkpt lat="51.03423" lon="2.38954">
        <ele>3.6</ele>
        <time>2020-06-23T11:02:50Z</time>
      </trkpt>
      <trkpt lat="51.03423" lon="2.38959">
        <ele>3.7</ele>
        <time>2020-06-23T11:02:51Z</time>
      </trkpt>
      <trkpt lat="51.03423" lon="2.38961">
        <ele>3.7</ele>
        <time>2020-06-23T11:02:52Z</time>
      </trkpt>
      <trkpt lat="51.03424" lon="2.38966">
        <ele>3.7</ele>
        <time>2020-06-23T11:02:53Z</time>
      </trkpt>
      <trkpt lat="51.03425" lon="2.38968">
        <ele>3.7</ele>
        <time>2020-06-23T11:02:54Z</time>
      </trkpt>
      <trkpt lat="51.03427" lon="2.38972">
        <ele>3.6</ele>
        <time>2020-06-23T11:02:55Z</time>
      </trkpt>
      <trkpt lat="51.03428" lon="2.38973">
        <ele>3.6</ele>
        <time>2020-06-23T11:02:56Z</time>
      </trkpt>
      <trkpt lat="51.03429" lon="2.3898">
        <ele>3.6</ele>
        <time>2020-06-23T11:02:57Z</time>
      </trkpt>
      <trkpt lat="51.0343" lon="2.38983">
        <ele>3.6</ele>
        <time>2020-06-23T11:02:58Z</time>
      </trkpt>
      <trkpt lat="51.0343" lon="2.38989">
        <ele>3.5</ele>
        <time>2020-06-23T11:02:59Z</time>
      </trkpt>
      <trkpt lat="51.03431" lon="2.38995">
        <ele>3.5</ele>
        <time>2020-06-23T11:03:00Z</time>
      </trkpt>
      <trkpt lat="51.03431" lon="2.39001">
        <ele>3.5</ele>
        <time>2020-06-23T11:03:01Z</time>
      </trkpt>
      <trkpt lat="51.03433" lon="2.39006">
        <ele>3.5</ele>
        <time>2020-06-23T11:03:02Z</time>
      </trkpt>
      <trkpt lat="51.03435" lon="2.39012">
        <ele>3.5</ele>
        <time>2020-06-23T11:03:03Z</time>
      </trkpt>
      <trkpt lat="51.03437" lon="2.39016">
        <ele>3.4</ele>
        <time>2020-06-23T11:03:04Z</time>
      </trkpt>
      <trkpt lat="51.03438" lon="2.39021">
        <ele>3.4</ele>
        <time>2020-06-23T11:03:05Z</time>
      </trkpt>
      <trkpt lat="51.0344" lon="2.39027">
        <ele>3.4</ele>
        <time>2020-06-23T11:03:06Z</time>
      </trkpt>
      <trkpt lat="51.03441" lon="2.3903">
        <ele>3.4</ele>
        <time>2020-06-23T11:03:07Z</time>
      </trkpt>
      <trkpt lat="51.03443" lon="2.39034">
        <ele>3.4</ele>
        <time>2020-06-23T11:03:08Z</time>
      </trkpt>
      <trkpt lat="51.03446" lon="2.39038">
        <ele>3.4</ele>
        <time>2020-06-23T11:03:09Z</time>
      </trkpt>
      <trkpt lat="51.03448" lon="2.39043">
        <ele>3.4</ele>
        <time>2020-06-23T11:03:10Z</time>
      </trkpt>
      <trkpt lat="51.03451" lon="2.39046">
        <ele>3.5</ele>
        <time>2020-06-23T11:03:11Z</time>
      </trkpt>
      <trkpt lat="51.03454" lon="2.39049">
        <ele>3.5</ele>
        <time>2020-06-23T11:03:12Z</time>
      </trkpt>
      <trkpt lat="51.03457" lon="2.39054">
        <ele>3.5</ele>
        <time>2020-06-23T11:03:13Z</time>
      </trkpt>
      <trkpt lat="51.03459" lon="2.39058">
        <ele>3.4</ele>
        <time>2020-06-23T11:03:14Z</time>
      </trkpt>
      <trkpt lat="51.03463" lon="2.39063">
        <ele>3.4</ele>
        <time>2020-06-23T11:03:15Z</time>
      </trkpt>
      <trkpt lat="51.03465" lon="2.39067">
        <ele>3.4</ele>
        <time>2020-06-23T11:03:16Z</time>
      </trkpt>
      <trkpt lat="51.03468" lon="2.39072">
        <ele>3.4</ele>
        <time>2020-06-23T11:03:17Z</time>
      </trkpt>
      <trkpt lat="51.03471" lon="2.39079">
        <ele>3.4</ele>
        <time>2020-06-23T11:03:18Z</time>
      </trkpt>
      <trkpt lat="51.03474" lon="2.39086">
        <ele>3.4</ele>
        <time>2020-06-23T11:03:19Z</time>
      </trkpt>
      <trkpt lat="51.03478" lon="2.39095">
        <ele>3.4</ele>
        <time>2020-06-23T11:03:20Z</time>
      </trkpt>
      <trkpt lat="51.03481" lon="2.39101">
        <ele>3.4</ele>
        <time>2020-06-23T11:03:21Z</time>
      </trkpt>
      <trkpt lat="51.03484" lon="2.39109">
        <ele>3.4</ele>
        <time>2020-06-23T11:03:22Z</time>
      </trkpt>
      <trkpt lat="51.03487" lon="2.39116">
        <ele>3.4</ele>
        <time>2020-06-23T11:03:23Z</time>
      </trkpt>
      <trkpt lat="51.0349" lon="2.39123">
        <ele>3.4</ele>
        <time>2020-06-23T11:03:24Z</time>
      </trkpt>
      <trkpt lat="51.03492" lon="2.39131">
        <ele>3.5</ele>
        <time>2020-06-23T11:03:25Z</time>
      </trkpt>
      <trkpt lat="51.03495" lon="2.39138">
        <ele>3.5</ele>
        <time>2020-06-23T11:03:26Z</time>
      </trkpt>
      <trkpt lat="51.03497" lon="2.39145">
        <ele>3.5</ele>
        <time>2020-06-23T11:03:27Z</time>
      </trkpt>
      <trkpt lat="51.035" lon="2.39151">
        <ele>3.5</ele>
        <time>2020-06-23T11:03:28Z</time>
      </trkpt>
      <trkpt lat="51.03502" lon="2.39158">
        <ele>3.5</ele>
        <time>2020-06-23T11:03:29Z</time>
      </trkpt>
      <trkpt lat="51.03504" lon="2.39166">
        <ele>3.5</ele>
        <time>2020-06-23T11:03:30Z</time>
      </trkpt>
      <trkpt lat="51.03507" lon="2.39173">
        <ele>3.5</ele>
        <time>2020-06-23T11:03:31Z</time>
      </trkpt>
      <trkpt lat="51.03509" lon="2.39179">
        <ele>3.5</ele>
        <time>2020-06-23T11:03:32Z</time>
      </trkpt>
      <trkpt lat="51.03512" lon="2.39185">
        <ele>3.6</ele>
        <time>2020-06-23T11:03:33Z</time>
      </trkpt>
      <trkpt lat="51.03516" lon="2.3919">
        <ele>3.6</ele>
        <time>2020-06-23T11:03:34Z</time>
      </trkpt>
      <trkpt lat="51.0352" lon="2.39195">
        <ele>3.6</ele>
        <time>2020-06-23T11:03:35Z</time>
      </trkpt>
      <trkpt lat="51.03525" lon="2.392">
        <ele>3.6</ele>
        <time>2020-06-23T11:03:36Z</time>
      </trkpt>
      <trkpt lat="51.03529" lon="2.39206">
        <ele>3.6</ele>
        <time>2020-06-23T11:03:37Z</time>
      </trkpt>
      <trkpt lat="51.03535" lon="2.39216">
        <ele>3.7</ele>
        <time>2020-06-23T11:03:38Z</time>
      </trkpt>
      <trkpt lat="51.03539" lon="2.39224">
        <ele>3.7</ele>
        <time>2020-06-23T11:03:39Z</time>
      </trkpt>
      <trkpt lat="51.03544" lon="2.39231">
        <ele>3.7</ele>
        <time>2020-06-23T11:03:40Z</time>
      </trkpt>
      <trkpt lat="51.03548" lon="2.39238">
        <ele>3.7</ele>
        <time>2020-06-23T11:03:41Z</time>
      </trkpt>
      <trkpt lat="51.03552" lon="2.39245">
        <ele>3.7</ele>
        <time>2020-06-23T11:03:42Z</time>
      </trkpt>
      <trkpt lat="51.03556" lon="2.39252">
        <ele>3.7</ele>
        <time>2020-06-23T11:03:43Z</time>
      </trkpt>
      <trkpt lat="51.03561" lon="2.39258">
        <ele>3.7</ele>
        <time>2020-06-23T11:03:44Z</time>
      </trkpt>
      <trkpt lat="51.03563" lon="2.39264">
        <ele>3.7</ele>
        <time>2020-06-23T11:03:45Z</time>
      </trkpt>
      <trkpt lat="51.03566" lon="2.39271">
        <ele>3.7</ele>
        <time>2020-06-23T11:03:46Z</time>
      </trkpt>
      <trkpt lat="51.03569" lon="2.39278">
        <ele>3.7</ele>
        <time>2020-06-23T11:03:47Z</time>
      </trkpt>
      <trkpt lat="51.0357" lon="2.39285">
        <ele>3.8</ele>
        <time>2020-06-23T11:03:48Z</time>
      </trkpt>
      <trkpt lat="51.03572" lon="2.39291">
        <ele>3.8</ele>
        <time>2020-06-23T11:03:49Z</time>
      </trkpt>
      <trkpt lat="51.03575" lon="2.39297">
        <ele>3.8</ele>
        <time>2020-06-23T11:03:50Z</time>
      </trkpt>
      <trkpt lat="51.03577" lon="2.39304">
        <ele>3.9</ele>
        <time>2020-06-23T11:03:51Z</time>
      </trkpt>
      <trkpt lat="51.03579" lon="2.39312">
        <ele>4</ele>
        <time>2020-06-23T11:03:52Z</time>
      </trkpt>
      <trkpt lat="51.03581" lon="2.39322">
        <ele>4</ele>
        <time>2020-06-23T11:03:53Z</time>
      </trkpt>
      <trkpt lat="51.03583" lon="2.3933">
        <ele>4</ele>
        <time>2020-06-23T11:03:54Z</time>
      </trkpt>
      <trkpt lat="51.03585" lon="2.39337">
        <ele>4</ele>
        <time>2020-06-23T11:03:55Z</time>
      </trkpt>
      <trkpt lat="51.03587" lon="2.39346">
        <ele>4.1</ele>
        <time>2020-06-23T11:03:56Z</time>
      </trkpt>
      <trkpt lat="51.0359" lon="2.39352">
        <ele>4</ele>
        <time>2020-06-23T11:03:57Z</time>
      </trkpt>
      <trkpt lat="51.03593" lon="2.39359">
        <ele>4</ele>
        <time>2020-06-23T11:03:58Z</time>
      </trkpt>
      <trkpt lat="51.03596" lon="2.39365">
        <ele>4</ele>
        <time>2020-06-23T11:03:59Z</time>
      </trkpt>
      <trkpt lat="51.03599" lon="2.3937">
        <ele>3.9</ele>
        <time>2020-06-23T11:04:00Z</time>
      </trkpt>
      <trkpt lat="51.03602" lon="2.39376">
        <ele>3.9</ele>
        <time>2020-06-23T11:04:01Z</time>
      </trkpt>
      <trkpt lat="51.03606" lon="2.39382">
        <ele>3.9</ele>
        <time>2020-06-23T11:04:02Z</time>
      </trkpt>
      <trkpt lat="51.03609" lon="2.39389">
        <ele>3.8</ele>
        <time>2020-06-23T11:04:03Z</time>
      </trkpt>
      <trkpt lat="51.03612" lon="2.39395">
        <ele>3.8</ele>
        <time>2020-06-23T11:04:04Z</time>
      </trkpt>
      <trkpt lat="51.03615" lon="2.39401">
        <ele>3.8</ele>
        <time>2020-06-23T11:04:05Z</time>
      </trkpt>
      <trkpt lat="51.03618" lon="2.39406">
        <ele>3.8</ele>
        <time>2020-06-23T11:04:06Z</time>
      </trkpt>
      <trkpt lat="51.0362" lon="2.39412">
        <ele>3.8</ele>
        <time>2020-06-23T11:04:07Z</time>
      </trkpt>
      <trkpt lat="51.03622" lon="2.39421">
        <ele>3.8</ele>
        <time>2020-06-23T11:04:08Z</time>
      </trkpt>
      <trkpt lat="51.03625" lon="2.3943">
        <ele>3.8</ele>
        <time>2020-06-23T11:04:09Z</time>
      </trkpt>
      <trkpt lat="51.03628" lon="2.39436">
        <ele>3.8</ele>
        <time>2020-06-23T11:04:10Z</time>
      </trkpt>
      <trkpt lat="51.03629" lon="2.39442">
        <ele>3.8</ele>
        <time>2020-06-23T11:04:11Z</time>
      </trkpt>
      <trkpt lat="51.03631" lon="2.39448">
        <ele>3.9</ele>
        <time>2020-06-23T11:04:12Z</time>
      </trkpt>
      <trkpt lat="51.03632" lon="2.39453">
        <ele>3.9</ele>
        <time>2020-06-23T11:04:13Z</time>
      </trkpt>
      <trkpt lat="51.03634" lon="2.39458">
        <ele>3.9</ele>
        <time>2020-06-23T11:04:14Z</time>
      </trkpt>
      <trkpt lat="51.03637" lon="2.39465">
        <ele>3.9</ele>
        <time>2020-06-23T11:04:15Z</time>
      </trkpt>
      <trkpt lat="51.03641" lon="2.39471">
        <ele>3.9</ele>
        <time>2020-06-23T11:04:16Z</time>
      </trkpt>
      <trkpt lat="51.03644" lon="2.39479">
        <ele>3.9</ele>
        <time>2020-06-23T11:04:17Z</time>
      </trkpt>
      <trkpt lat="51.03647" lon="2.39485">
        <ele>3.9</ele>
        <time>2020-06-23T11:04:18Z</time>
      </trkpt>
      <trkpt lat="51.0365" lon="2.39491">
        <ele>4</ele>
        <time>2020-06-23T11:04:19Z</time>
      </trkpt>
      <trkpt lat="51.03652" lon="2.39497">
        <ele>4.1</ele>
        <time>2020-06-23T11:04:20Z</time>
      </trkpt>
      <trkpt lat="51.03655" lon="2.39505">
        <ele>4.2</ele>
        <time>2020-06-23T11:04:21Z</time>
      </trkpt>
      <trkpt lat="51.03658" lon="2.39512">
        <ele>4.3</ele>
        <time>2020-06-23T11:04:22Z</time>
      </trkpt>
      <trkpt lat="51.03661" lon="2.39519">
        <ele>4.4</ele>
        <time>2020-06-23T11:04:23Z</time>
      </trkpt>
      <trkpt lat="51.03664" lon="2.39526">
        <ele>4.3</ele>
        <time>2020-06-23T11:04:24Z</time>
      </trkpt>
      <trkpt lat="51.03667" lon="2.39532">
        <ele>4.3</ele>
        <time>2020-06-23T11:04:25Z</time>
      </trkpt>
      <trkpt lat="51.0367" lon="2.3954">
        <ele>4.2</ele>
        <time>2020-06-23T11:04:26Z</time>
      </trkpt>
      <trkpt lat="51.03673" lon="2.39548">
        <ele>4.1</ele>
        <time>2020-06-23T11:04:27Z</time>
      </trkpt>
      <trkpt lat="51.03675" lon="2.39557">
        <ele>4.1</ele>
        <time>2020-06-23T11:04:28Z</time>
      </trkpt>
      <trkpt lat="51.03679" lon="2.39565">
        <ele>4.1</ele>
        <time>2020-06-23T11:04:29Z</time>
      </trkpt>
      <trkpt lat="51.03683" lon="2.39573">
        <ele>4.1</ele>
        <time>2020-06-23T11:04:30Z</time>
      </trkpt>
      <trkpt lat="51.03686" lon="2.39581">
        <ele>4.1</ele>
        <time>2020-06-23T11:04:31Z</time>
      </trkpt>
      <trkpt lat="51.03689" lon="2.39589">
        <ele>4.1</ele>
        <time>2020-06-23T11:04:32Z</time>
      </trkpt>
      <trkpt lat="51.03692" lon="2.39596">
        <ele>4.1</ele>
        <time>2020-06-23T11:04:33Z</time>
      </trkpt>
      <trkpt lat="51.03693" lon="2.39603">
        <ele>4.1</ele>
        <time>2020-06-23T11:04:34Z</time>
      </trkpt>
      <trkpt lat="51.03695" lon="2.39609">
        <ele>4.2</ele>
        <time>2020-06-23T11:04:35Z</time>
      </trkpt>
      <trkpt lat="51.037" lon="2.39617">
        <ele>4.2</ele>
        <time>2020-06-23T11:04:36Z</time>
      </trkpt>
      <trkpt lat="51.03703" lon="2.39626">
        <ele>4.2</ele>
        <time>2020-06-23T11:04:37Z</time>
      </trkpt>
      <trkpt lat="51.03706" lon="2.39633">
        <ele>4.3</ele>
        <time>2020-06-23T11:04:38Z</time>
      </trkpt>
      <trkpt lat="51.03709" lon="2.39639">
        <ele>4.3</ele>
        <time>2020-06-23T11:04:39Z</time>
      </trkpt>
      <trkpt lat="51.03712" lon="2.39647">
        <ele>4.4</ele>
        <time>2020-06-23T11:04:40Z</time>
      </trkpt>
      <trkpt lat="51.03714" lon="2.39655">
        <ele>4.4</ele>
        <time>2020-06-23T11:04:41Z</time>
      </trkpt>
      <trkpt lat="51.03717" lon="2.39663">
        <ele>4.5</ele>
        <time>2020-06-23T11:04:42Z</time>
      </trkpt>
      <trkpt lat="51.0372" lon="2.3967">
        <ele>4.5</ele>
        <time>2020-06-23T11:04:43Z</time>
      </trkpt>
      <trkpt lat="51.03722" lon="2.39678">
        <ele>4.6</ele>
        <time>2020-06-23T11:04:44Z</time>
      </trkpt>
      <trkpt lat="51.03722" lon="2.39687">
        <ele>4.6</ele>
        <time>2020-06-23T11:04:45Z</time>
      </trkpt>
      <trkpt lat="51.03721" lon="2.39695">
        <ele>4.5</ele>
        <time>2020-06-23T11:04:46Z</time>
      </trkpt>
      <trkpt lat="51.03724" lon="2.39702">
        <ele>4.5</ele>
        <time>2020-06-23T11:04:47Z</time>
      </trkpt>
      <trkpt lat="51.03726" lon="2.3971">
        <ele>4.4</ele>
        <time>2020-06-23T11:04:48Z</time>
      </trkpt>
      <trkpt lat="51.03729" lon="2.39717">
        <ele>4.3</ele>
        <time>2020-06-23T11:04:49Z</time>
      </trkpt>
      <trkpt lat="51.03732" lon="2.39724">
        <ele>4.3</ele>
        <time>2020-06-23T11:04:50Z</time>
      </trkpt>
      <trkpt lat="51.03735" lon="2.3973">
        <ele>4.2</ele>
        <time>2020-06-23T11:04:51Z</time>
      </trkpt>
      <trkpt lat="51.03736" lon="2.39739">
        <ele>4.1</ele>
        <time>2020-06-23T11:04:52Z</time>
      </trkpt>
      <trkpt lat="51.03738" lon="2.39747">
        <ele>4.1</ele>
        <time>2020-06-23T11:04:53Z</time>
      </trkpt>
      <trkpt lat="51.0374" lon="2.39754">
        <ele>4</ele>
        <time>2020-06-23T11:04:54Z</time>
      </trkpt>
      <trkpt lat="51.03742" lon="2.39761">
        <ele>3.9</ele>
        <time>2020-06-23T11:04:55Z</time>
      </trkpt>
      <trkpt lat="51.03745" lon="2.39769">
        <ele>3.9</ele>
        <time>2020-06-23T11:04:56Z</time>
      </trkpt>
      <trkpt lat="51.03748" lon="2.39776">
        <ele>3.8</ele>
        <time>2020-06-23T11:04:57Z</time>
      </trkpt>
      <trkpt lat="51.03752" lon="2.39785">
        <ele>3.8</ele>
        <time>2020-06-23T11:04:58Z</time>
      </trkpt>
      <trkpt lat="51.03755" lon="2.39791">
        <ele>3.8</ele>
        <time>2020-06-23T11:04:59Z</time>
      </trkpt>
      <trkpt lat="51.03758" lon="2.39801">
        <ele>3.8</ele>
        <time>2020-06-23T11:05:00Z</time>
      </trkpt>
      <trkpt lat="51.03761" lon="2.39809">
        <ele>3.7</ele>
        <time>2020-06-23T11:05:01Z</time>
      </trkpt>
      <trkpt lat="51.03761" lon="2.39815">
        <ele>3.7</ele>
        <time>2020-06-23T11:05:02Z</time>
      </trkpt>
      <trkpt lat="51.03761" lon="2.39822">
        <ele>3.7</ele>
        <time>2020-06-23T11:05:03Z</time>
      </trkpt>
      <trkpt lat="51.0376" lon="2.39829">
        <ele>3.7</ele>
        <time>2020-06-23T11:05:04Z</time>
      </trkpt>
      <trkpt lat="51.03759" lon="2.39836">
        <ele>3.6</ele>
        <time>2020-06-23T11:05:05Z</time>
      </trkpt>
      <trkpt lat="51.03759" lon="2.39841">
        <ele>3.6</ele>
        <time>2020-06-23T11:05:06Z</time>
      </trkpt>
      <trkpt lat="51.03762" lon="2.39849">
        <ele>3.8</ele>
        <time>2020-06-23T11:05:07Z</time>
      </trkpt>
      <trkpt lat="51.03763" lon="2.39855">
        <ele>3.9</ele>
        <time>2020-06-23T11:05:08Z</time>
      </trkpt>
      <trkpt lat="51.03765" lon="2.39858">
        <ele>3.9</ele>
        <time>2020-06-23T11:05:09Z</time>
      </trkpt>
      <trkpt lat="51.03766" lon="2.3986">
        <ele>4</ele>
        <time>2020-06-23T11:05:10Z</time>
      </trkpt>
      <trkpt lat="51.03768" lon="2.39863">
        <ele>4.3</ele>
        <time>2020-06-23T11:05:11Z</time>
      </trkpt>
      <trkpt lat="51.03769" lon="2.39865">
        <ele>4.3</ele>
        <time>2020-06-23T11:05:12Z</time>
      </trkpt>
      <trkpt lat="51.03772" lon="2.39869">
        <ele>4.2</ele>
        <time>2020-06-23T11:05:13Z</time>
      </trkpt>
      <trkpt lat="51.03775" lon="2.39874">
        <ele>4</ele>
        <time>2020-06-23T11:05:14Z</time>
      </trkpt>
      <trkpt lat="51.03777" lon="2.39879">
        <ele>4</ele>
        <time>2020-06-23T11:05:15Z</time>
      </trkpt>
      <trkpt lat="51.0378" lon="2.39884">
        <ele>3.9</ele>
        <time>2020-06-23T11:05:16Z</time>
      </trkpt>
      <trkpt lat="51.03782" lon="2.39889">
        <ele>3.7</ele>
        <time>2020-06-23T11:05:17Z</time>
      </trkpt>
      <trkpt lat="51.03784" lon="2.39894">
        <ele>3.7</ele>
        <time>2020-06-23T11:05:18Z</time>
      </trkpt>
      <trkpt lat="51.03786" lon="2.39899">
        <ele>3.7</ele>
        <time>2020-06-23T11:05:19Z</time>
      </trkpt>
      <trkpt lat="51.03788" lon="2.39906">
        <ele>3.7</ele>
        <time>2020-06-23T11:05:20Z</time>
      </trkpt>
      <trkpt lat="51.0379" lon="2.39915">
        <ele>3.7</ele>
        <time>2020-06-23T11:05:21Z</time>
      </trkpt>
      <trkpt lat="51.03793" lon="2.39923">
        <ele>3.7</ele>
        <time>2020-06-23T11:05:22Z</time>
      </trkpt>
      <trkpt lat="51.03796" lon="2.39931">
        <ele>3.7</ele>
        <time>2020-06-23T11:05:23Z</time>
      </trkpt>
      <trkpt lat="51.03798" lon="2.39938">
        <ele>3.7</ele>
        <time>2020-06-23T11:05:24Z</time>
      </trkpt>
      <trkpt lat="51.038" lon="2.39946">
        <ele>3.6</ele>
        <time>2020-06-23T11:05:25Z</time>
      </trkpt>
      <trkpt lat="51.03802" lon="2.39954">
        <ele>3.6</ele>
        <time>2020-06-23T11:05:26Z</time>
      </trkpt>
      <trkpt lat="51.03805" lon="2.39961">
        <ele>3.6</ele>
        <time>2020-06-23T11:05:27Z</time>
      </trkpt>
      <trkpt lat="51.03807" lon="2.39968">
        <ele>3.6</ele>
        <time>2020-06-23T11:05:28Z</time>
      </trkpt>
      <trkpt lat="51.0381" lon="2.39974">
        <ele>3.6</ele>
        <time>2020-06-23T11:05:29Z</time>
      </trkpt>
      <trkpt lat="51.03812" lon="2.39981">
        <ele>3.6</ele>
        <time>2020-06-23T11:05:30Z</time>
      </trkpt>
      <trkpt lat="51.03814" lon="2.39988">
        <ele>3.6</ele>
        <time>2020-06-23T11:05:31Z</time>
      </trkpt>
      <trkpt lat="51.03816" lon="2.39996">
        <ele>3.6</ele>
        <time>2020-06-23T11:05:32Z</time>
      </trkpt>
      <trkpt lat="51.03817" lon="2.40002">
        <ele>3.6</ele>
        <time>2020-06-23T11:05:33Z</time>
      </trkpt>
      <trkpt lat="51.03819" lon="2.40008">
        <ele>3.6</ele>
        <time>2020-06-23T11:05:34Z</time>
      </trkpt>
      <trkpt lat="51.03822" lon="2.40015">
        <ele>3.6</ele>
        <time>2020-06-23T11:05:35Z</time>
      </trkpt>
      <trkpt lat="51.03824" lon="2.40021">
        <ele>3.6</ele>
        <time>2020-06-23T11:05:36Z</time>
      </trkpt>
      <trkpt lat="51.03828" lon="2.40027">
        <ele>3.6</ele>
        <time>2020-06-23T11:05:37Z</time>
      </trkpt>
      <trkpt lat="51.03831" lon="2.40034">
        <ele>3.6</ele>
        <time>2020-06-23T11:05:38Z</time>
      </trkpt>
      <trkpt lat="51.03834" lon="2.4004">
        <ele>3.6</ele>
        <time>2020-06-23T11:05:39Z</time>
      </trkpt>
      <trkpt lat="51.03838" lon="2.40046">
        <ele>3.6</ele>
        <time>2020-06-23T11:05:40Z</time>
      </trkpt>
      <trkpt lat="51.03841" lon="2.40052">
        <ele>3.6</ele>
        <time>2020-06-23T11:05:41Z</time>
      </trkpt>
      <trkpt lat="51.03845" lon="2.40057">
        <ele>3.6</ele>
        <time>2020-06-23T11:05:42Z</time>
      </trkpt>
      <trkpt lat="51.0385" lon="2.40062">
        <ele>3.6</ele>
        <time>2020-06-23T11:05:43Z</time>
      </trkpt>
      <trkpt lat="51.03855" lon="2.40069">
        <ele>3.6</ele>
        <time>2020-06-23T11:05:44Z</time>
      </trkpt>
      <trkpt lat="51.0386" lon="2.40074">
        <ele>3.7</ele>
        <time>2020-06-23T11:05:45Z</time>
      </trkpt>
      <trkpt lat="51.03866" lon="2.40078">
        <ele>3.7</ele>
        <time>2020-06-23T11:05:46Z</time>
      </trkpt>
      <trkpt lat="51.0387" lon="2.40084">
        <ele>3.7</ele>
        <time>2020-06-23T11:05:47Z</time>
      </trkpt>
      <trkpt lat="51.03875" lon="2.40089">
        <ele>3.8</ele>
        <time>2020-06-23T11:05:48Z</time>
      </trkpt>
      <trkpt lat="51.03879" lon="2.40096">
        <ele>3.8</ele>
        <time>2020-06-23T11:05:49Z</time>
      </trkpt>
      <trkpt lat="51.03884" lon="2.40102">
        <ele>3.9</ele>
        <time>2020-06-23T11:05:50Z</time>
      </trkpt>
      <trkpt lat="51.03887" lon="2.40108">
        <ele>3.9</ele>
        <time>2020-06-23T11:05:51Z</time>
      </trkpt>
      <trkpt lat="51.03892" lon="2.40116">
        <ele>3.9</ele>
        <time>2020-06-23T11:05:52Z</time>
      </trkpt>
      <trkpt lat="51.03896" lon="2.40124">
        <ele>3.9</ele>
        <time>2020-06-23T11:05:53Z</time>
      </trkpt>
      <trkpt lat="51.039" lon="2.40131">
        <ele>3.9</ele>
        <time>2020-06-23T11:05:54Z</time>
      </trkpt>
      <trkpt lat="51.03903" lon="2.40138">
        <ele>3.8</ele>
        <time>2020-06-23T11:05:55Z</time>
      </trkpt>
      <trkpt lat="51.03905" lon="2.40144">
        <ele>3.8</ele>
        <time>2020-06-23T11:05:56Z</time>
      </trkpt>
      <trkpt lat="51.03909" lon="2.4015">
        <ele>3.8</ele>
        <time>2020-06-23T11:05:57Z</time>
      </trkpt>
      <trkpt lat="51.03912" lon="2.40158">
        <ele>3.8</ele>
        <time>2020-06-23T11:05:58Z</time>
      </trkpt>
      <trkpt lat="51.03915" lon="2.40164">
        <ele>3.7</ele>
        <time>2020-06-23T11:05:59Z</time>
      </trkpt>
      <trkpt lat="51.03919" lon="2.4017">
        <ele>3.7</ele>
        <time>2020-06-23T11:06:00Z</time>
      </trkpt>
      <trkpt lat="51.03923" lon="2.40176">
        <ele>3.7</ele>
        <time>2020-06-23T11:06:01Z</time>
      </trkpt>
      <trkpt lat="51.03927" lon="2.40182">
        <ele>3.7</ele>
        <time>2020-06-23T11:06:02Z</time>
      </trkpt>
      <trkpt lat="51.03932" lon="2.40188">
        <ele>3.6</ele>
        <time>2020-06-23T11:06:03Z</time>
      </trkpt>
      <trkpt lat="51.03936" lon="2.40195">
        <ele>3.6</ele>
        <time>2020-06-23T11:06:04Z</time>
      </trkpt>
      <trkpt lat="51.03939" lon="2.402">
        <ele>3.6</ele>
        <time>2020-06-23T11:06:05Z</time>
      </trkpt>
      <trkpt lat="51.03943" lon="2.40207">
        <ele>3.6</ele>
        <time>2020-06-23T11:06:06Z</time>
      </trkpt>
      <trkpt lat="51.03947" lon="2.40213">
        <ele>3.6</ele>
        <time>2020-06-23T11:06:07Z</time>
      </trkpt>
      <trkpt lat="51.03951" lon="2.4022">
        <ele>3.6</ele>
        <time>2020-06-23T11:06:08Z</time>
      </trkpt>
      <trkpt lat="51.03954" lon="2.40225">
        <ele>3.5</ele>
        <time>2020-06-23T11:06:09Z</time>
      </trkpt>
      <trkpt lat="51.03959" lon="2.40231">
        <ele>3.5</ele>
        <time>2020-06-23T11:06:10Z</time>
      </trkpt>
      <trkpt lat="51.03963" lon="2.40237">
        <ele>3.5</ele>
        <time>2020-06-23T11:06:11Z</time>
      </trkpt>
      <trkpt lat="51.03966" lon="2.40242">
        <ele>3.5</ele>
        <time>2020-06-23T11:06:12Z</time>
      </trkpt>
      <trkpt lat="51.03969" lon="2.40249">
        <ele>3.5</ele>
        <time>2020-06-23T11:06:13Z</time>
      </trkpt>
      <trkpt lat="51.03973" lon="2.40256">
        <ele>3.5</ele>
        <time>2020-06-23T11:06:14Z</time>
      </trkpt>
      <trkpt lat="51.03976" lon="2.40262">
        <ele>3.5</ele>
        <time>2020-06-23T11:06:15Z</time>
      </trkpt>
      <trkpt lat="51.0398" lon="2.40266">
        <ele>3.4</ele>
        <time>2020-06-23T11:06:16Z</time>
      </trkpt>
      <trkpt lat="51.03985" lon="2.4027">
        <ele>3.4</ele>
        <time>2020-06-23T11:06:17Z</time>
      </trkpt>
      <trkpt lat="51.03988" lon="2.40275">
        <ele>3.4</ele>
        <time>2020-06-23T11:06:18Z</time>
      </trkpt>
      <trkpt lat="51.03993" lon="2.40279">
        <ele>3.5</ele>
        <time>2020-06-23T11:06:19Z</time>
      </trkpt>
      <trkpt lat="51.03998" lon="2.40285">
        <ele>3.5</ele>
        <time>2020-06-23T11:06:20Z</time>
      </trkpt>
      <trkpt lat="51.04001" lon="2.4029">
        <ele>3.5</ele>
        <time>2020-06-23T11:06:21Z</time>
      </trkpt>
      <trkpt lat="51.04006" lon="2.40296">
        <ele>3.5</ele>
        <time>2020-06-23T11:06:22Z</time>
      </trkpt>
      <trkpt lat="51.0401" lon="2.403">
        <ele>3.5</ele>
        <time>2020-06-23T11:06:23Z</time>
      </trkpt>
      <trkpt lat="51.04015" lon="2.40304">
        <ele>3.5</ele>
        <time>2020-06-23T11:06:24Z</time>
      </trkpt>
      <trkpt lat="51.0402" lon="2.4031">
        <ele>3.5</ele>
        <time>2020-06-23T11:06:25Z</time>
      </trkpt>
      <trkpt lat="51.04023" lon="2.40316">
        <ele>3.5</ele>
        <time>2020-06-23T11:06:26Z</time>
      </trkpt>
      <trkpt lat="51.04027" lon="2.4032">
        <ele>3.5</ele>
        <time>2020-06-23T11:06:27Z</time>
      </trkpt>
      <trkpt lat="51.04032" lon="2.40325">
        <ele>3.5</ele>
        <time>2020-06-23T11:06:28Z</time>
      </trkpt>
      <trkpt lat="51.04035" lon="2.40331">
        <ele>3.5</ele>
        <time>2020-06-23T11:06:29Z</time>
      </trkpt>
      <trkpt lat="51.04039" lon="2.40338">
        <ele>3.6</ele>
        <time>2020-06-23T11:06:30Z</time>
      </trkpt>
      <trkpt lat="51.04043" lon="2.40345">
        <ele>3.6</ele>
        <time>2020-06-23T11:06:31Z</time>
      </trkpt>
      <trkpt lat="51.04048" lon="2.4035">
        <ele>3.7</ele>
        <time>2020-06-23T11:06:32Z</time>
      </trkpt>
      <trkpt lat="51.04051" lon="2.40358">
        <ele>3.7</ele>
        <time>2020-06-23T11:06:33Z</time>
      </trkpt>
      <trkpt lat="51.04055" lon="2.40365">
        <ele>3.8</ele>
        <time>2020-06-23T11:06:34Z</time>
      </trkpt>
      <trkpt lat="51.04059" lon="2.40372">
        <ele>3.8</ele>
        <time>2020-06-23T11:06:35Z</time>
      </trkpt>
      <trkpt lat="51.04063" lon="2.40377">
        <ele>3.9</ele>
        <time>2020-06-23T11:06:36Z</time>
      </trkpt>
      <trkpt lat="51.04066" lon="2.40384">
        <ele>3.9</ele>
        <time>2020-06-23T11:06:37Z</time>
      </trkpt>
      <trkpt lat="51.04068" lon="2.40389">
        <ele>4</ele>
        <time>2020-06-23T11:06:38Z</time>
      </trkpt>
      <trkpt lat="51.04071" lon="2.40396">
        <ele>4</ele>
        <time>2020-06-23T11:06:39Z</time>
      </trkpt>
      <trkpt lat="51.04074" lon="2.40402">
        <ele>4</ele>
        <time>2020-06-23T11:06:40Z</time>
      </trkpt>
      <trkpt lat="51.04078" lon="2.40408">
        <ele>4.1</ele>
        <time>2020-06-23T11:06:41Z</time>
      </trkpt>
      <trkpt lat="51.04081" lon="2.40416">
        <ele>4.1</ele>
        <time>2020-06-23T11:06:42Z</time>
      </trkpt>
      <trkpt lat="51.04084" lon="2.40422">
        <ele>4</ele>
        <time>2020-06-23T11:06:43Z</time>
      </trkpt>
      <trkpt lat="51.04087" lon="2.40428">
        <ele>4</ele>
        <time>2020-06-23T11:06:44Z</time>
      </trkpt>
      <trkpt lat="51.0409" lon="2.40435">
        <ele>4</ele>
        <time>2020-06-23T11:06:45Z</time>
      </trkpt>
      <trkpt lat="51.04094" lon="2.40442">
        <ele>4.1</ele>
        <time>2020-06-23T11:06:46Z</time>
      </trkpt>
      <trkpt lat="51.04096" lon="2.40449">
        <ele>4.1</ele>
        <time>2020-06-23T11:06:47Z</time>
      </trkpt>
      <trkpt lat="51.04099" lon="2.40457">
        <ele>4.1</ele>
        <time>2020-06-23T11:06:48Z</time>
      </trkpt>
      <trkpt lat="51.04101" lon="2.40466">
        <ele>4.1</ele>
        <time>2020-06-23T11:06:49Z</time>
      </trkpt>
      <trkpt lat="51.04103" lon="2.40472">
        <ele>4.2</ele>
        <time>2020-06-23T11:06:50Z</time>
      </trkpt>
      <trkpt lat="51.04105" lon="2.40478">
        <ele>4.2</ele>
        <time>2020-06-23T11:06:51Z</time>
      </trkpt>
      <trkpt lat="51.04107" lon="2.40485">
        <ele>4.2</ele>
        <time>2020-06-23T11:06:52Z</time>
      </trkpt>
      <trkpt lat="51.04107" lon="2.40491">
        <ele>4.2</ele>
        <time>2020-06-23T11:06:53Z</time>
      </trkpt>
      <trkpt lat="51.04109" lon="2.40496">
        <ele>4.2</ele>
        <time>2020-06-23T11:06:54Z</time>
      </trkpt>
      <trkpt lat="51.0411" lon="2.405">
        <ele>4.2</ele>
        <time>2020-06-23T11:06:55Z</time>
      </trkpt>
      <trkpt lat="51.04111" lon="2.40507">
        <ele>4.3</ele>
        <time>2020-06-23T11:06:56Z</time>
      </trkpt>
      <trkpt lat="51.04112" lon="2.4051">
        <ele>4.3</ele>
        <time>2020-06-23T11:06:57Z</time>
      </trkpt>
      <trkpt lat="51.04113" lon="2.40517">
        <ele>4.3</ele>
        <time>2020-06-23T11:06:58Z</time>
      </trkpt>
      <trkpt lat="51.04113" lon="2.40523">
        <ele>4.4</ele>
        <time>2020-06-23T11:06:59Z</time>
      </trkpt>
      <trkpt lat="51.04113" lon="2.40529">
        <ele>4.4</ele>
        <time>2020-06-23T11:07:00Z</time>
      </trkpt>
      <trkpt lat="51.04113" lon="2.40533">
        <ele>4.5</ele>
        <time>2020-06-23T11:07:01Z</time>
      </trkpt>
      <trkpt lat="51.04114" lon="2.40539">
        <ele>4.5</ele>
        <time>2020-06-23T11:07:02Z</time>
      </trkpt>
      <trkpt lat="51.04115" lon="2.40544">
        <ele>4.5</ele>
        <time>2020-06-23T11:07:03Z</time>
      </trkpt>
      <trkpt lat="51.04116" lon="2.40551">
        <ele>4.5</ele>
        <time>2020-06-23T11:07:04Z</time>
      </trkpt>
      <trkpt lat="51.04117" lon="2.40556">
        <ele>4.5</ele>
        <time>2020-06-23T11:07:05Z</time>
      </trkpt>
      <trkpt lat="51.04119" lon="2.40562">
        <ele>4.5</ele>
        <time>2020-06-23T11:07:06Z</time>
      </trkpt>
      <trkpt lat="51.04121" lon="2.4057">
        <ele>4.5</ele>
        <time>2020-06-23T11:07:07Z</time>
      </trkpt>
      <trkpt lat="51.04123" lon="2.40578">
        <ele>4.4</ele>
        <time>2020-06-23T11:07:08Z</time>
      </trkpt>
      <trkpt lat="51.04125" lon="2.40586">
        <ele>4.4</ele>
        <time>2020-06-23T11:07:09Z</time>
      </trkpt>
      <trkpt lat="51.04127" lon="2.40593">
        <ele>4.4</ele>
        <time>2020-06-23T11:07:10Z</time>
      </trkpt>
      <trkpt lat="51.04128" lon="2.40601">
        <ele>4.3</ele>
        <time>2020-06-23T11:07:11Z</time>
      </trkpt>
      <trkpt lat="51.0413" lon="2.40608">
        <ele>4.3</ele>
        <time>2020-06-23T11:07:12Z</time>
      </trkpt>
      <trkpt lat="51.04132" lon="2.40616">
        <ele>4.3</ele>
        <time>2020-06-23T11:07:13Z</time>
      </trkpt>
      <trkpt lat="51.04135" lon="2.40625">
        <ele>4.2</ele>
        <time>2020-06-23T11:07:14Z</time>
      </trkpt>
      <trkpt lat="51.04137" lon="2.40633">
        <ele>4.2</ele>
        <time>2020-06-23T11:07:15Z</time>
      </trkpt>
      <trkpt lat="51.04139" lon="2.4064">
        <ele>4.2</ele>
        <time>2020-06-23T11:07:16Z</time>
      </trkpt>
      <trkpt lat="51.04141" lon="2.40647">
        <ele>4.1</ele>
        <time>2020-06-23T11:07:17Z</time>
      </trkpt>
      <trkpt lat="51.04143" lon="2.40653">
        <ele>4.1</ele>
        <time>2020-06-23T11:07:18Z</time>
      </trkpt>
      <trkpt lat="51.04145" lon="2.4066">
        <ele>4.1</ele>
        <time>2020-06-23T11:07:19Z</time>
      </trkpt>
      <trkpt lat="51.04148" lon="2.40668">
        <ele>4.1</ele>
        <time>2020-06-23T11:07:20Z</time>
      </trkpt>
      <trkpt lat="51.0415" lon="2.40676">
        <ele>4.1</ele>
        <time>2020-06-23T11:07:21Z</time>
      </trkpt>
      <trkpt lat="51.04152" lon="2.40686">
        <ele>4.1</ele>
        <time>2020-06-23T11:07:22Z</time>
      </trkpt>
      <trkpt lat="51.04154" lon="2.40695">
        <ele>4.1</ele>
        <time>2020-06-23T11:07:23Z</time>
      </trkpt>
      <trkpt lat="51.04157" lon="2.40704">
        <ele>4.1</ele>
        <time>2020-06-23T11:07:24Z</time>
      </trkpt>
      <trkpt lat="51.04158" lon="2.40711">
        <ele>4.1</ele>
        <time>2020-06-23T11:07:25Z</time>
      </trkpt>
      <trkpt lat="51.0416" lon="2.40719">
        <ele>4.1</ele>
        <time>2020-06-23T11:07:26Z</time>
      </trkpt>
      <trkpt lat="51.04163" lon="2.40728">
        <ele>4.1</ele>
        <time>2020-06-23T11:07:27Z</time>
      </trkpt>
      <trkpt lat="51.04165" lon="2.40736">
        <ele>4.1</ele>
        <time>2020-06-23T11:07:28Z</time>
      </trkpt>
      <trkpt lat="51.04168" lon="2.40745">
        <ele>4.2</ele>
        <time>2020-06-23T11:07:29Z</time>
      </trkpt>
      <trkpt lat="51.04169" lon="2.40753">
        <ele>4.1</ele>
        <time>2020-06-23T11:07:30Z</time>
      </trkpt>
      <trkpt lat="51.0417" lon="2.40761">
        <ele>4.1</ele>
        <time>2020-06-23T11:07:31Z</time>
      </trkpt>
      <trkpt lat="51.04173" lon="2.40769">
        <ele>4.1</ele>
        <time>2020-06-23T11:07:32Z</time>
      </trkpt>
      <trkpt lat="51.04175" lon="2.40777">
        <ele>4</ele>
        <time>2020-06-23T11:07:33Z</time>
      </trkpt>
      <trkpt lat="51.04178" lon="2.40786">
        <ele>4</ele>
        <time>2020-06-23T11:07:34Z</time>
      </trkpt>
      <trkpt lat="51.0418" lon="2.40795">
        <ele>3.9</ele>
        <time>2020-06-23T11:07:35Z</time>
      </trkpt>
      <trkpt lat="51.04182" lon="2.40802">
        <ele>3.9</ele>
        <time>2020-06-23T11:07:36Z</time>
      </trkpt>
      <trkpt lat="51.04183" lon="2.4081">
        <ele>3.9</ele>
        <time>2020-06-23T11:07:37Z</time>
      </trkpt>
      <trkpt lat="51.04184" lon="2.40818">
        <ele>3.9</ele>
        <time>2020-06-23T11:07:38Z</time>
      </trkpt>
      <trkpt lat="51.04186" lon="2.40824">
        <ele>3.9</ele>
        <time>2020-06-23T11:07:39Z</time>
      </trkpt>
      <trkpt lat="51.04187" lon="2.40832">
        <ele>3.8</ele>
        <time>2020-06-23T11:07:40Z</time>
      </trkpt>
      <trkpt lat="51.0419" lon="2.40839">
        <ele>3.8</ele>
        <time>2020-06-23T11:07:41Z</time>
      </trkpt>
      <trkpt lat="51.04192" lon="2.40847">
        <ele>3.8</ele>
        <time>2020-06-23T11:07:42Z</time>
      </trkpt>
      <trkpt lat="51.04194" lon="2.40855">
        <ele>3.8</ele>
        <time>2020-06-23T11:07:43Z</time>
      </trkpt>
      <trkpt lat="51.04196" lon="2.40862">
        <ele>3.8</ele>
        <time>2020-06-23T11:07:44Z</time>
      </trkpt>
      <trkpt lat="51.04198" lon="2.4087">
        <ele>3.7</ele>
        <time>2020-06-23T11:07:45Z</time>
      </trkpt>
      <trkpt lat="51.042" lon="2.40877">
        <ele>3.7</ele>
        <time>2020-06-23T11:07:46Z</time>
      </trkpt>
      <trkpt lat="51.04201" lon="2.40887">
        <ele>3.7</ele>
        <time>2020-06-23T11:07:47Z</time>
      </trkpt>
      <trkpt lat="51.04204" lon="2.40895">
        <ele>3.7</ele>
        <time>2020-06-23T11:07:48Z</time>
      </trkpt>
      <trkpt lat="51.04206" lon="2.40903">
        <ele>3.7</ele>
        <time>2020-06-23T11:07:49Z</time>
      </trkpt>
      <trkpt lat="51.04208" lon="2.40911">
        <ele>3.7</ele>
        <time>2020-06-23T11:07:50Z</time>
      </trkpt>
      <trkpt lat="51.0421" lon="2.40919">
        <ele>3.7</ele>
        <time>2020-06-23T11:07:51Z</time>
      </trkpt>
      <trkpt lat="51.04212" lon="2.40927">
        <ele>3.7</ele>
        <time>2020-06-23T11:07:52Z</time>
      </trkpt>
      <trkpt lat="51.04214" lon="2.40936">
        <ele>3.7</ele>
        <time>2020-06-23T11:07:53Z</time>
      </trkpt>
      <trkpt lat="51.04216" lon="2.40942">
        <ele>3.7</ele>
        <time>2020-06-23T11:07:54Z</time>
      </trkpt>
      <trkpt lat="51.04218" lon="2.40949">
        <ele>3.8</ele>
        <time>2020-06-23T11:07:55Z</time>
      </trkpt>
      <trkpt lat="51.04221" lon="2.40957">
        <ele>3.8</ele>
        <time>2020-06-23T11:07:56Z</time>
      </trkpt>
      <trkpt lat="51.04222" lon="2.40965">
        <ele>3.8</ele>
        <time>2020-06-23T11:07:57Z</time>
      </trkpt>
      <trkpt lat="51.04225" lon="2.40972">
        <ele>3.8</ele>
        <time>2020-06-23T11:07:58Z</time>
      </trkpt>
      <trkpt lat="51.04228" lon="2.40979">
        <ele>3.9</ele>
        <time>2020-06-23T11:07:59Z</time>
      </trkpt>
      <trkpt lat="51.04231" lon="2.40987">
        <ele>3.9</ele>
        <time>2020-06-23T11:08:00Z</time>
      </trkpt>
      <trkpt lat="51.04233" lon="2.40995">
        <ele>3.9</ele>
        <time>2020-06-23T11:08:01Z</time>
      </trkpt>
      <trkpt lat="51.04235" lon="2.41003">
        <ele>3.9</ele>
        <time>2020-06-23T11:08:02Z</time>
      </trkpt>
      <trkpt lat="51.04238" lon="2.41011">
        <ele>3.9</ele>
        <time>2020-06-23T11:08:03Z</time>
      </trkpt>
      <trkpt lat="51.04241" lon="2.41018">
        <ele>3.9</ele>
        <time>2020-06-23T11:08:04Z</time>
      </trkpt>
      <trkpt lat="51.04243" lon="2.41025">
        <ele>4</ele>
        <time>2020-06-23T11:08:05Z</time>
      </trkpt>
      <trkpt lat="51.04246" lon="2.41032">
        <ele>4</ele>
        <time>2020-06-23T11:08:06Z</time>
      </trkpt>
      <trkpt lat="51.04249" lon="2.4104">
        <ele>4</ele>
        <time>2020-06-23T11:08:07Z</time>
      </trkpt>
      <trkpt lat="51.04253" lon="2.41048">
        <ele>4</ele>
        <time>2020-06-23T11:08:08Z</time>
      </trkpt>
      <trkpt lat="51.04256" lon="2.41057">
        <ele>4</ele>
        <time>2020-06-23T11:08:09Z</time>
      </trkpt>
      <trkpt lat="51.04259" lon="2.41066">
        <ele>4.1</ele>
        <time>2020-06-23T11:08:10Z</time>
      </trkpt>
      <trkpt lat="51.04263" lon="2.41074">
        <ele>4.1</ele>
        <time>2020-06-23T11:08:11Z</time>
      </trkpt>
      <trkpt lat="51.04266" lon="2.41082">
        <ele>4.1</ele>
        <time>2020-06-23T11:08:12Z</time>
      </trkpt>
      <trkpt lat="51.04269" lon="2.41089">
        <ele>4.2</ele>
        <time>2020-06-23T11:08:13Z</time>
      </trkpt>
      <trkpt lat="51.04271" lon="2.41096">
        <ele>4.2</ele>
        <time>2020-06-23T11:08:14Z</time>
      </trkpt>
      <trkpt lat="51.04272" lon="2.41102">
        <ele>4.2</ele>
        <time>2020-06-23T11:08:15Z</time>
      </trkpt>
      <trkpt lat="51.04275" lon="2.4111">
        <ele>4.2</ele>
        <time>2020-06-23T11:08:16Z</time>
      </trkpt>
      <trkpt lat="51.04278" lon="2.41116">
        <ele>4.3</ele>
        <time>2020-06-23T11:08:17Z</time>
      </trkpt>
      <trkpt lat="51.0428" lon="2.41124">
        <ele>4.3</ele>
        <time>2020-06-23T11:08:18Z</time>
      </trkpt>
      <trkpt lat="51.04282" lon="2.41131">
        <ele>4.3</ele>
        <time>2020-06-23T11:08:19Z</time>
      </trkpt>
      <trkpt lat="51.04283" lon="2.41138">
        <ele>4.3</ele>
        <time>2020-06-23T11:08:20Z</time>
      </trkpt>
      <trkpt lat="51.04283" lon="2.41144">
        <ele>4.3</ele>
        <time>2020-06-23T11:08:21Z</time>
      </trkpt>
      <trkpt lat="51.04285" lon="2.4115">
        <ele>4.3</ele>
        <time>2020-06-23T11:08:22Z</time>
      </trkpt>
      <trkpt lat="51.04286" lon="2.41156">
        <ele>4.3</ele>
        <time>2020-06-23T11:08:23Z</time>
      </trkpt>
      <trkpt lat="51.04287" lon="2.41162">
        <ele>4.3</ele>
        <time>2020-06-23T11:08:24Z</time>
      </trkpt>
      <trkpt lat="51.04289" lon="2.41168">
        <ele>4.3</ele>
        <time>2020-06-23T11:08:25Z</time>
      </trkpt>
      <trkpt lat="51.04291" lon="2.41174">
        <ele>4.2</ele>
        <time>2020-06-23T11:08:26Z</time>
      </trkpt>
      <trkpt lat="51.04292" lon="2.41181">
        <ele>4.1</ele>
        <time>2020-06-23T11:08:27Z</time>
      </trkpt>
      <trkpt lat="51.04293" lon="2.41187">
        <ele>4</ele>
        <time>2020-06-23T11:08:28Z</time>
      </trkpt>
      <trkpt lat="51.04294" lon="2.41193">
        <ele>4</ele>
        <time>2020-06-23T11:08:29Z</time>
      </trkpt>
      <trkpt lat="51.04295" lon="2.412">
        <ele>4</ele>
        <time>2020-06-23T11:08:30Z</time>
      </trkpt>
      <trkpt lat="51.04297" lon="2.41207">
        <ele>4</ele>
        <time>2020-06-23T11:08:31Z</time>
      </trkpt>
      <trkpt lat="51.04298" lon="2.41215">
        <ele>4</ele>
        <time>2020-06-23T11:08:32Z</time>
      </trkpt>
      <trkpt lat="51.04299" lon="2.41225">
        <ele>4</ele>
        <time>2020-06-23T11:08:33Z</time>
      </trkpt>
      <trkpt lat="51.04302" lon="2.41233">
        <ele>4</ele>
        <time>2020-06-23T11:08:34Z</time>
      </trkpt>
      <trkpt lat="51.04304" lon="2.4124">
        <ele>3.9</ele>
        <time>2020-06-23T11:08:35Z</time>
      </trkpt>
      <trkpt lat="51.04305" lon="2.41248">
        <ele>3.9</ele>
        <time>2020-06-23T11:08:36Z</time>
      </trkpt>
      <trkpt lat="51.04307" lon="2.41256">
        <ele>3.8</ele>
        <time>2020-06-23T11:08:37Z</time>
      </trkpt>
      <trkpt lat="51.04309" lon="2.41264">
        <ele>3.8</ele>
        <time>2020-06-23T11:08:38Z</time>
      </trkpt>
      <trkpt lat="51.0431" lon="2.41272">
        <ele>3.7</ele>
        <time>2020-06-23T11:08:39Z</time>
      </trkpt>
      <trkpt lat="51.04312" lon="2.4128">
        <ele>3.6</ele>
        <time>2020-06-23T11:08:40Z</time>
      </trkpt>
      <trkpt lat="51.04314" lon="2.41288">
        <ele>3.6</ele>
        <time>2020-06-23T11:08:41Z</time>
      </trkpt>
      <trkpt lat="51.04315" lon="2.41297">
        <ele>3.5</ele>
        <time>2020-06-23T11:08:42Z</time>
      </trkpt>
      <trkpt lat="51.04317" lon="2.41305">
        <ele>3.4</ele>
        <time>2020-06-23T11:08:43Z</time>
      </trkpt>
      <trkpt lat="51.04319" lon="2.41314">
        <ele>3.4</ele>
        <time>2020-06-23T11:08:44Z</time>
      </trkpt>
      <trkpt lat="51.04322" lon="2.41322">
        <ele>3.4</ele>
        <time>2020-06-23T11:08:45Z</time>
      </trkpt>
      <trkpt lat="51.04325" lon="2.4133">
        <ele>3.4</ele>
        <time>2020-06-23T11:08:46Z</time>
      </trkpt>
      <trkpt lat="51.04327" lon="2.41338">
        <ele>3.4</ele>
        <time>2020-06-23T11:08:47Z</time>
      </trkpt>
      <trkpt lat="51.0433" lon="2.41347">
        <ele>3.4</ele>
        <time>2020-06-23T11:08:48Z</time>
      </trkpt>
      <trkpt lat="51.04332" lon="2.41356">
        <ele>3.4</ele>
        <time>2020-06-23T11:08:49Z</time>
      </trkpt>
      <trkpt lat="51.04335" lon="2.41364">
        <ele>3.4</ele>
        <time>2020-06-23T11:08:50Z</time>
      </trkpt>
      <trkpt lat="51.04338" lon="2.41372">
        <ele>3.3</ele>
        <time>2020-06-23T11:08:51Z</time>
      </trkpt>
      <trkpt lat="51.04341" lon="2.4138">
        <ele>3.3</ele>
        <time>2020-06-23T11:08:52Z</time>
      </trkpt>
      <trkpt lat="51.04344" lon="2.41388">
        <ele>3.3</ele>
        <time>2020-06-23T11:08:53Z</time>
      </trkpt>
      <trkpt lat="51.04347" lon="2.41396">
        <ele>3.3</ele>
        <time>2020-06-23T11:08:54Z</time>
      </trkpt>
      <trkpt lat="51.04349" lon="2.41404">
        <ele>3.3</ele>
        <time>2020-06-23T11:08:55Z</time>
      </trkpt>
      <trkpt lat="51.04352" lon="2.41411">
        <ele>3.3</ele>
        <time>2020-06-23T11:08:56Z</time>
      </trkpt>
      <trkpt lat="51.04355" lon="2.4142">
        <ele>3.3</ele>
        <time>2020-06-23T11:08:57Z</time>
      </trkpt>
      <trkpt lat="51.04358" lon="2.41429">
        <ele>3.3</ele>
        <time>2020-06-23T11:08:58Z</time>
      </trkpt>
      <trkpt lat="51.0436" lon="2.41438">
        <ele>3.4</ele>
        <time>2020-06-23T11:08:59Z</time>
      </trkpt>
      <trkpt lat="51.04363" lon="2.41443">
        <ele>3.4</ele>
        <time>2020-06-23T11:09:00Z</time>
      </trkpt>
      <trkpt lat="51.04365" lon="2.4145">
        <ele>3.5</ele>
        <time>2020-06-23T11:09:01Z</time>
      </trkpt>
      <trkpt lat="51.04367" lon="2.41458">
        <ele>3.5</ele>
        <time>2020-06-23T11:09:02Z</time>
      </trkpt>
      <trkpt lat="51.0437" lon="2.41466">
        <ele>3.5</ele>
        <time>2020-06-23T11:09:03Z</time>
      </trkpt>
      <trkpt lat="51.04373" lon="2.41474">
        <ele>3.6</ele>
        <time>2020-06-23T11:09:04Z</time>
      </trkpt>
      <trkpt lat="51.04375" lon="2.41482">
        <ele>3.5</ele>
        <time>2020-06-23T11:09:05Z</time>
      </trkpt>
      <trkpt lat="51.04378" lon="2.4149">
        <ele>3.5</ele>
        <time>2020-06-23T11:09:06Z</time>
      </trkpt>
      <trkpt lat="51.04381" lon="2.41497">
        <ele>3.5</ele>
        <time>2020-06-23T11:09:07Z</time>
      </trkpt>
      <trkpt lat="51.04384" lon="2.41505">
        <ele>3.5</ele>
        <time>2020-06-23T11:09:08Z</time>
      </trkpt>
      <trkpt lat="51.04387" lon="2.41513">
        <ele>3.5</ele>
        <time>2020-06-23T11:09:09Z</time>
      </trkpt>
      <trkpt lat="51.0439" lon="2.41521">
        <ele>3.5</ele>
        <time>2020-06-23T11:09:10Z</time>
      </trkpt>
      <trkpt lat="51.04393" lon="2.41529">
        <ele>3.5</ele>
        <time>2020-06-23T11:09:11Z</time>
      </trkpt>
      <trkpt lat="51.04395" lon="2.41538">
        <ele>3.5</ele>
        <time>2020-06-23T11:09:12Z</time>
      </trkpt>
      <trkpt lat="51.04399" lon="2.41546">
        <ele>3.5</ele>
        <time>2020-06-23T11:09:13Z</time>
      </trkpt>
      <trkpt lat="51.04402" lon="2.41554">
        <ele>3.5</ele>
        <time>2020-06-23T11:09:14Z</time>
      </trkpt>
      <trkpt lat="51.04406" lon="2.41563">
        <ele>3.4</ele>
        <time>2020-06-23T11:09:15Z</time>
      </trkpt>
      <trkpt lat="51.04409" lon="2.41572">
        <ele>3.4</ele>
        <time>2020-06-23T11:09:16Z</time>
      </trkpt>
      <trkpt lat="51.04412" lon="2.41581">
        <ele>3.4</ele>
        <time>2020-06-23T11:09:17Z</time>
      </trkpt>
      <trkpt lat="51.04416" lon="2.41589">
        <ele>3.4</ele>
        <time>2020-06-23T11:09:18Z</time>
      </trkpt>
      <trkpt lat="51.04418" lon="2.41596">
        <ele>3.4</ele>
        <time>2020-06-23T11:09:19Z</time>
      </trkpt>
      <trkpt lat="51.04421" lon="2.41603">
        <ele>3.4</ele>
        <time>2020-06-23T11:09:20Z</time>
      </trkpt>
      <trkpt lat="51.04424" lon="2.41611">
        <ele>3.3</ele>
        <time>2020-06-23T11:09:21Z</time>
      </trkpt>
      <trkpt lat="51.04428" lon="2.41621">
        <ele>3.3</ele>
        <time>2020-06-23T11:09:22Z</time>
      </trkpt>
      <trkpt lat="51.04431" lon="2.41628">
        <ele>3.3</ele>
        <time>2020-06-23T11:09:23Z</time>
      </trkpt>
      <trkpt lat="51.04434" lon="2.41636">
        <ele>3.3</ele>
        <time>2020-06-23T11:09:24Z</time>
      </trkpt>
      <trkpt lat="51.04437" lon="2.41645">
        <ele>3.2</ele>
        <time>2020-06-23T11:09:25Z</time>
      </trkpt>
      <trkpt lat="51.0444" lon="2.41652">
        <ele>3.2</ele>
        <time>2020-06-23T11:09:26Z</time>
      </trkpt>
      <trkpt lat="51.04443" lon="2.4166">
        <ele>3.2</ele>
        <time>2020-06-23T11:09:27Z</time>
      </trkpt>
      <trkpt lat="51.04446" lon="2.41669">
        <ele>3.2</ele>
        <time>2020-06-23T11:09:28Z</time>
      </trkpt>
      <trkpt lat="51.04449" lon="2.41678">
        <ele>3.2</ele>
        <time>2020-06-23T11:09:29Z</time>
      </trkpt>
      <trkpt lat="51.04451" lon="2.41685">
        <ele>3.2</ele>
        <time>2020-06-23T11:09:30Z</time>
      </trkpt>
      <trkpt lat="51.04455" lon="2.41693">
        <ele>3.2</ele>
        <time>2020-06-23T11:09:31Z</time>
      </trkpt>
      <trkpt lat="51.04458" lon="2.41701">
        <ele>3.2</ele>
        <time>2020-06-23T11:09:32Z</time>
      </trkpt>
      <trkpt lat="51.0446" lon="2.41709">
        <ele>3.2</ele>
        <time>2020-06-23T11:09:33Z</time>
      </trkpt>
      <trkpt lat="51.04463" lon="2.41717">
        <ele>3.2</ele>
        <time>2020-06-23T11:09:34Z</time>
      </trkpt>
      <trkpt lat="51.04465" lon="2.41726">
        <ele>3.3</ele>
        <time>2020-06-23T11:09:35Z</time>
      </trkpt>
      <trkpt lat="51.04465" lon="2.41736">
        <ele>3.3</ele>
        <time>2020-06-23T11:09:36Z</time>
      </trkpt>
      <trkpt lat="51.04466" lon="2.41744">
        <ele>3.3</ele>
        <time>2020-06-23T11:09:37Z</time>
      </trkpt>
      <trkpt lat="51.04468" lon="2.41753">
        <ele>3.3</ele>
        <time>2020-06-23T11:09:38Z</time>
      </trkpt>
      <trkpt lat="51.04471" lon="2.41761">
        <ele>3.3</ele>
        <time>2020-06-23T11:09:39Z</time>
      </trkpt>
      <trkpt lat="51.04473" lon="2.41768">
        <ele>3.3</ele>
        <time>2020-06-23T11:09:40Z</time>
      </trkpt>
      <trkpt lat="51.04475" lon="2.41775">
        <ele>3.3</ele>
        <time>2020-06-23T11:09:41Z</time>
      </trkpt>
      <trkpt lat="51.04478" lon="2.41784">
        <ele>3.3</ele>
        <time>2020-06-23T11:09:42Z</time>
      </trkpt>
      <trkpt lat="51.0448" lon="2.41792">
        <ele>3.3</ele>
        <time>2020-06-23T11:09:43Z</time>
      </trkpt>
      <trkpt lat="51.04483" lon="2.41801">
        <ele>3.4</ele>
        <time>2020-06-23T11:09:44Z</time>
      </trkpt>
      <trkpt lat="51.04485" lon="2.41809">
        <ele>3.4</ele>
        <time>2020-06-23T11:09:45Z</time>
      </trkpt>
      <trkpt lat="51.04487" lon="2.41818">
        <ele>3.4</ele>
        <time>2020-06-23T11:09:46Z</time>
      </trkpt>
      <trkpt lat="51.0449" lon="2.41826">
        <ele>3.4</ele>
        <time>2020-06-23T11:09:47Z</time>
      </trkpt>
      <trkpt lat="51.04493" lon="2.41834">
        <ele>3.5</ele>
        <time>2020-06-23T11:09:48Z</time>
      </trkpt>
      <trkpt lat="51.04496" lon="2.41841">
        <ele>3.5</ele>
        <time>2020-06-23T11:09:49Z</time>
      </trkpt>
      <trkpt lat="51.04499" lon="2.41849">
        <ele>3.5</ele>
        <time>2020-06-23T11:09:50Z</time>
      </trkpt>
      <trkpt lat="51.04502" lon="2.41857">
        <ele>3.6</ele>
        <time>2020-06-23T11:09:51Z</time>
      </trkpt>
      <trkpt lat="51.04504" lon="2.41865">
        <ele>3.6</ele>
        <time>2020-06-23T11:09:52Z</time>
      </trkpt>
      <trkpt lat="51.04507" lon="2.41872">
        <ele>3.7</ele>
        <time>2020-06-23T11:09:53Z</time>
      </trkpt>
      <trkpt lat="51.0451" lon="2.4188">
        <ele>3.7</ele>
        <time>2020-06-23T11:09:54Z</time>
      </trkpt>
      <trkpt lat="51.04513" lon="2.4189">
        <ele>3.8</ele>
        <time>2020-06-23T11:09:55Z</time>
      </trkpt>
      <trkpt lat="51.04516" lon="2.41897">
        <ele>3.8</ele>
        <time>2020-06-23T11:09:56Z</time>
      </trkpt>
      <trkpt lat="51.04517" lon="2.41905">
        <ele>3.9</ele>
        <time>2020-06-23T11:09:57Z</time>
      </trkpt>
      <trkpt lat="51.04518" lon="2.41912">
        <ele>3.9</ele>
        <time>2020-06-23T11:09:58Z</time>
      </trkpt>
      <trkpt lat="51.0452" lon="2.4192">
        <ele>4</ele>
        <time>2020-06-23T11:09:59Z</time>
      </trkpt>
      <trkpt lat="51.04523" lon="2.41927">
        <ele>4.1</ele>
        <time>2020-06-23T11:10:00Z</time>
      </trkpt>
      <trkpt lat="51.04526" lon="2.41935">
        <ele>4.2</ele>
        <time>2020-06-23T11:10:01Z</time>
      </trkpt>
      <trkpt lat="51.04528" lon="2.41941">
        <ele>4.3</ele>
        <time>2020-06-23T11:10:02Z</time>
      </trkpt>
      <trkpt lat="51.04529" lon="2.41949">
        <ele>4.4</ele>
        <time>2020-06-23T11:10:03Z</time>
      </trkpt>
      <trkpt lat="51.04531" lon="2.41956">
        <ele>4.3</ele>
        <time>2020-06-23T11:10:04Z</time>
      </trkpt>
      <trkpt lat="51.04533" lon="2.41961">
        <ele>4.3</ele>
        <time>2020-06-23T11:10:05Z</time>
      </trkpt>
      <trkpt lat="51.04536" lon="2.41967">
        <ele>4.3</ele>
        <time>2020-06-23T11:10:06Z</time>
      </trkpt>
      <trkpt lat="51.04539" lon="2.41974">
        <ele>4.3</ele>
        <time>2020-06-23T11:10:07Z</time>
      </trkpt>
      <trkpt lat="51.04543" lon="2.4198">
        <ele>4.3</ele>
        <time>2020-06-23T11:10:08Z</time>
      </trkpt>
      <trkpt lat="51.04546" lon="2.41988">
        <ele>4.4</ele>
        <time>2020-06-23T11:10:09Z</time>
      </trkpt>
      <trkpt lat="51.0455" lon="2.41995">
        <ele>4.5</ele>
        <time>2020-06-23T11:10:10Z</time>
      </trkpt>
      <trkpt lat="51.04552" lon="2.42002">
        <ele>4.5</ele>
        <time>2020-06-23T11:10:11Z</time>
      </trkpt>
      <trkpt lat="51.04554" lon="2.42009">
        <ele>4.5</ele>
        <time>2020-06-23T11:10:12Z</time>
      </trkpt>
      <trkpt lat="51.04557" lon="2.42017">
        <ele>4.5</ele>
        <time>2020-06-23T11:10:13Z</time>
      </trkpt>
      <trkpt lat="51.04559" lon="2.42025">
        <ele>4.5</ele>
        <time>2020-06-23T11:10:14Z</time>
      </trkpt>
      <trkpt lat="51.04561" lon="2.42033">
        <ele>4.5</ele>
        <time>2020-06-23T11:10:15Z</time>
      </trkpt>
      <trkpt lat="51.04563" lon="2.42042">
        <ele>4.5</ele>
        <time>2020-06-23T11:10:16Z</time>
      </trkpt>
      <trkpt lat="51.04565" lon="2.42051">
        <ele>4.5</ele>
        <time>2020-06-23T11:10:17Z</time>
      </trkpt>
      <trkpt lat="51.04566" lon="2.4206">
        <ele>4.6</ele>
        <time>2020-06-23T11:10:18Z</time>
      </trkpt>
      <trkpt lat="51.04568" lon="2.4207">
        <ele>4.6</ele>
        <time>2020-06-23T11:10:19Z</time>
      </trkpt>
      <trkpt lat="51.04568" lon="2.4208">
        <ele>4.7</ele>
        <time>2020-06-23T11:10:20Z</time>
      </trkpt>
      <trkpt lat="51.0457" lon="2.42089">
        <ele>4.8</ele>
        <time>2020-06-23T11:10:21Z</time>
      </trkpt>
      <trkpt lat="51.04572" lon="2.42098">
        <ele>4.8</ele>
        <time>2020-06-23T11:10:22Z</time>
      </trkpt>
      <trkpt lat="51.04575" lon="2.42106">
        <ele>4.8</ele>
        <time>2020-06-23T11:10:23Z</time>
      </trkpt>
      <trkpt lat="51.04576" lon="2.42115">
        <ele>4.9</ele>
        <time>2020-06-23T11:10:24Z</time>
      </trkpt>
      <trkpt lat="51.04579" lon="2.42123">
        <ele>4.9</ele>
        <time>2020-06-23T11:10:25Z</time>
      </trkpt>
      <trkpt lat="51.0458" lon="2.42131">
        <ele>4.9</ele>
        <time>2020-06-23T11:10:26Z</time>
      </trkpt>
      <trkpt lat="51.04582" lon="2.4214">
        <ele>5</ele>
        <time>2020-06-23T11:10:27Z</time>
      </trkpt>
      <trkpt lat="51.04584" lon="2.42148">
        <ele>5</ele>
        <time>2020-06-23T11:10:28Z</time>
      </trkpt>
      <trkpt lat="51.04585" lon="2.42157">
        <ele>5.1</ele>
        <time>2020-06-23T11:10:29Z</time>
      </trkpt>
      <trkpt lat="51.04587" lon="2.42165">
        <ele>5.1</ele>
        <time>2020-06-23T11:10:30Z</time>
      </trkpt>
      <trkpt lat="51.04589" lon="2.42174">
        <ele>5.2</ele>
        <time>2020-06-23T11:10:31Z</time>
      </trkpt>
      <trkpt lat="51.0459" lon="2.42183">
        <ele>5.2</ele>
        <time>2020-06-23T11:10:32Z</time>
      </trkpt>
      <trkpt lat="51.04592" lon="2.42192">
        <ele>5.2</ele>
        <time>2020-06-23T11:10:33Z</time>
      </trkpt>
      <trkpt lat="51.04594" lon="2.422">
        <ele>5.3</ele>
        <time>2020-06-23T11:10:34Z</time>
      </trkpt>
      <trkpt lat="51.04597" lon="2.42208">
        <ele>5.4</ele>
        <time>2020-06-23T11:10:35Z</time>
      </trkpt>
      <trkpt lat="51.04599" lon="2.42216">
        <ele>5.4</ele>
        <time>2020-06-23T11:10:36Z</time>
      </trkpt>
      <trkpt lat="51.046" lon="2.42225">
        <ele>5.5</ele>
        <time>2020-06-23T11:10:37Z</time>
      </trkpt>
      <trkpt lat="51.04602" lon="2.42234">
        <ele>5.6</ele>
        <time>2020-06-23T11:10:38Z</time>
      </trkpt>
      <trkpt lat="51.04604" lon="2.42243">
        <ele>5.7</ele>
        <time>2020-06-23T11:10:39Z</time>
      </trkpt>
      <trkpt lat="51.04606" lon="2.4225">
        <ele>5.7</ele>
        <time>2020-06-23T11:10:40Z</time>
      </trkpt>
      <trkpt lat="51.04608" lon="2.42258">
        <ele>5.8</ele>
        <time>2020-06-23T11:10:41Z</time>
      </trkpt>
      <trkpt lat="51.04611" lon="2.42266">
        <ele>5.8</ele>
        <time>2020-06-23T11:10:42Z</time>
      </trkpt>
      <trkpt lat="51.04613" lon="2.42276">
        <ele>6</ele>
        <time>2020-06-23T11:10:43Z</time>
      </trkpt>
      <trkpt lat="51.04614" lon="2.42285">
        <ele>6.1</ele>
        <time>2020-06-23T11:10:44Z</time>
      </trkpt>
      <trkpt lat="51.04616" lon="2.42292">
        <ele>6.1</ele>
        <time>2020-06-23T11:10:45Z</time>
      </trkpt>
      <trkpt lat="51.04617" lon="2.423">
        <ele>6.2</ele>
        <time>2020-06-23T11:10:46Z</time>
      </trkpt>
      <trkpt lat="51.04618" lon="2.42309">
        <ele>6.3</ele>
        <time>2020-06-23T11:10:47Z</time>
      </trkpt>
      <trkpt lat="51.0462" lon="2.42317">
        <ele>6.3</ele>
        <time>2020-06-23T11:10:48Z</time>
      </trkpt>
      <trkpt lat="51.04622" lon="2.42326">
        <ele>6.4</ele>
        <time>2020-06-23T11:10:49Z</time>
      </trkpt>
      <trkpt lat="51.04624" lon="2.42335">
        <ele>6.4</ele>
        <time>2020-06-23T11:10:50Z</time>
      </trkpt>
      <trkpt lat="51.04626" lon="2.42343">
        <ele>6.5</ele>
        <time>2020-06-23T11:10:51Z</time>
      </trkpt>
      <trkpt lat="51.04629" lon="2.42352">
        <ele>6.5</ele>
        <time>2020-06-23T11:10:52Z</time>
      </trkpt>
      <trkpt lat="51.04632" lon="2.42361">
        <ele>6.6</ele>
        <time>2020-06-23T11:10:53Z</time>
      </trkpt>
      <trkpt lat="51.04633" lon="2.42369">
        <ele>6.7</ele>
        <time>2020-06-23T11:10:54Z</time>
      </trkpt>
      <trkpt lat="51.04635" lon="2.42376">
        <ele>6.7</ele>
        <time>2020-06-23T11:10:55Z</time>
      </trkpt>
      <trkpt lat="51.04636" lon="2.42384">
        <ele>6.8</ele>
        <time>2020-06-23T11:10:56Z</time>
      </trkpt>
      <trkpt lat="51.04638" lon="2.42391">
        <ele>6.9</ele>
        <time>2020-06-23T11:10:57Z</time>
      </trkpt>
      <trkpt lat="51.04641" lon="2.42398">
        <ele>7</ele>
        <time>2020-06-23T11:10:58Z</time>
      </trkpt>
      <trkpt lat="51.04644" lon="2.42409">
        <ele>7</ele>
        <time>2020-06-23T11:10:59Z</time>
      </trkpt>
      <trkpt lat="51.04645" lon="2.42418">
        <ele>7.1</ele>
        <time>2020-06-23T11:11:00Z</time>
      </trkpt>
      <trkpt lat="51.04648" lon="2.42427">
        <ele>7.1</ele>
        <time>2020-06-23T11:11:01Z</time>
      </trkpt>
      <trkpt lat="51.0465" lon="2.42436">
        <ele>7.1</ele>
        <time>2020-06-23T11:11:02Z</time>
      </trkpt>
      <trkpt lat="51.04653" lon="2.42444">
        <ele>7</ele>
        <time>2020-06-23T11:11:03Z</time>
      </trkpt>
      <trkpt lat="51.04655" lon="2.42452">
        <ele>7</ele>
        <time>2020-06-23T11:11:04Z</time>
      </trkpt>
      <trkpt lat="51.04658" lon="2.42461">
        <ele>7</ele>
        <time>2020-06-23T11:11:05Z</time>
      </trkpt>
      <trkpt lat="51.0466" lon="2.42469">
        <ele>7</ele>
        <time>2020-06-23T11:11:06Z</time>
      </trkpt>
      <trkpt lat="51.04663" lon="2.42478">
        <ele>7.1</ele>
        <time>2020-06-23T11:11:07Z</time>
      </trkpt>
      <trkpt lat="51.04666" lon="2.42486">
        <ele>7.1</ele>
        <time>2020-06-23T11:11:08Z</time>
      </trkpt>
      <trkpt lat="51.04668" lon="2.42495">
        <ele>7.1</ele>
        <time>2020-06-23T11:11:09Z</time>
      </trkpt>
      <trkpt lat="51.0467" lon="2.42503">
        <ele>7.1</ele>
        <time>2020-06-23T11:11:10Z</time>
      </trkpt>
      <trkpt lat="51.04672" lon="2.42511">
        <ele>7.1</ele>
        <time>2020-06-23T11:11:11Z</time>
      </trkpt>
      <trkpt lat="51.04673" lon="2.42521">
        <ele>7.1</ele>
        <time>2020-06-23T11:11:12Z</time>
      </trkpt>
      <trkpt lat="51.04675" lon="2.42529">
        <ele>7.1</ele>
        <time>2020-06-23T11:11:13Z</time>
      </trkpt>
      <trkpt lat="51.04677" lon="2.42539">
        <ele>7</ele>
        <time>2020-06-23T11:11:14Z</time>
      </trkpt>
      <trkpt lat="51.0468" lon="2.42547">
        <ele>6.9</ele>
        <time>2020-06-23T11:11:15Z</time>
      </trkpt>
      <trkpt lat="51.04684" lon="2.42556">
        <ele>6.8</ele>
        <time>2020-06-23T11:11:16Z</time>
      </trkpt>
      <trkpt lat="51.04686" lon="2.42564">
        <ele>6.7</ele>
        <time>2020-06-23T11:11:17Z</time>
      </trkpt>
      <trkpt lat="51.04687" lon="2.42574">
        <ele>6.6</ele>
        <time>2020-06-23T11:11:18Z</time>
      </trkpt>
      <trkpt lat="51.04688" lon="2.42584">
        <ele>6.5</ele>
        <time>2020-06-23T11:11:19Z</time>
      </trkpt>
      <trkpt lat="51.04691" lon="2.42592">
        <ele>6.5</ele>
        <time>2020-06-23T11:11:20Z</time>
      </trkpt>
      <trkpt lat="51.04693" lon="2.42601">
        <ele>6.4</ele>
        <time>2020-06-23T11:11:21Z</time>
      </trkpt>
      <trkpt lat="51.04696" lon="2.42611">
        <ele>6.3</ele>
        <time>2020-06-23T11:11:22Z</time>
      </trkpt>
      <trkpt lat="51.04698" lon="2.42621">
        <ele>6.2</ele>
        <time>2020-06-23T11:11:23Z</time>
      </trkpt>
      <trkpt lat="51.04701" lon="2.4263">
        <ele>6.1</ele>
        <time>2020-06-23T11:11:24Z</time>
      </trkpt>
      <trkpt lat="51.04704" lon="2.42641">
        <ele>6</ele>
        <time>2020-06-23T11:11:25Z</time>
      </trkpt>
      <trkpt lat="51.04707" lon="2.42653">
        <ele>6</ele>
        <time>2020-06-23T11:11:26Z</time>
      </trkpt>
      <trkpt lat="51.04709" lon="2.42663">
        <ele>6</ele>
        <time>2020-06-23T11:11:27Z</time>
      </trkpt>
      <trkpt lat="51.04712" lon="2.42672">
        <ele>6</ele>
        <time>2020-06-23T11:11:28Z</time>
      </trkpt>
      <trkpt lat="51.04713" lon="2.42682">
        <ele>5.9</ele>
        <time>2020-06-23T11:11:29Z</time>
      </trkpt>
      <trkpt lat="51.04715" lon="2.42691">
        <ele>5.8</ele>
        <time>2020-06-23T11:11:30Z</time>
      </trkpt>
      <trkpt lat="51.04718" lon="2.42702">
        <ele>5.7</ele>
        <time>2020-06-23T11:11:31Z</time>
      </trkpt>
      <trkpt lat="51.04721" lon="2.42711">
        <ele>5.7</ele>
        <time>2020-06-23T11:11:32Z</time>
      </trkpt>
      <trkpt lat="51.04724" lon="2.4272">
        <ele>5.6</ele>
        <time>2020-06-23T11:11:33Z</time>
      </trkpt>
      <trkpt lat="51.04727" lon="2.42729">
        <ele>5.5</ele>
        <time>2020-06-23T11:11:34Z</time>
      </trkpt>
      <trkpt lat="51.0473" lon="2.42738">
        <ele>5.5</ele>
        <time>2020-06-23T11:11:35Z</time>
      </trkpt>
      <trkpt lat="51.04733" lon="2.42748">
        <ele>5.5</ele>
        <time>2020-06-23T11:11:36Z</time>
      </trkpt>
      <trkpt lat="51.04736" lon="2.42757">
        <ele>5.4</ele>
        <time>2020-06-23T11:11:37Z</time>
      </trkpt>
      <trkpt lat="51.04738" lon="2.42766">
        <ele>5.4</ele>
        <time>2020-06-23T11:11:38Z</time>
      </trkpt>
      <trkpt lat="51.0474" lon="2.42775">
        <ele>5.4</ele>
        <time>2020-06-23T11:11:39Z</time>
      </trkpt>
      <trkpt lat="51.04742" lon="2.42784">
        <ele>5.4</ele>
        <time>2020-06-23T11:11:40Z</time>
      </trkpt>
      <trkpt lat="51.04745" lon="2.42793">
        <ele>5.4</ele>
        <time>2020-06-23T11:11:41Z</time>
      </trkpt>
      <trkpt lat="51.04747" lon="2.42802">
        <ele>5.4</ele>
        <time>2020-06-23T11:11:42Z</time>
      </trkpt>
      <trkpt lat="51.0475" lon="2.42811">
        <ele>5.5</ele>
        <time>2020-06-23T11:11:43Z</time>
      </trkpt>
      <trkpt lat="51.04752" lon="2.42819">
        <ele>5.4</ele>
        <time>2020-06-23T11:11:44Z</time>
      </trkpt>
      <trkpt lat="51.04755" lon="2.42829">
        <ele>5.4</ele>
        <time>2020-06-23T11:11:45Z</time>
      </trkpt>
      <trkpt lat="51.04756" lon="2.4284">
        <ele>5.3</ele>
        <time>2020-06-23T11:11:46Z</time>
      </trkpt>
      <trkpt lat="51.04757" lon="2.42852">
        <ele>5.3</ele>
        <time>2020-06-23T11:11:47Z</time>
      </trkpt>
      <trkpt lat="51.04759" lon="2.42859">
        <ele>5.3</ele>
        <time>2020-06-23T11:11:48Z</time>
      </trkpt>
      <trkpt lat="51.04761" lon="2.42868">
        <ele>5.3</ele>
        <time>2020-06-23T11:11:49Z</time>
      </trkpt>
      <trkpt lat="51.04762" lon="2.42877">
        <ele>5.3</ele>
        <time>2020-06-23T11:11:50Z</time>
      </trkpt>
      <trkpt lat="51.04764" lon="2.42886">
        <ele>5.4</ele>
        <time>2020-06-23T11:11:51Z</time>
      </trkpt>
      <trkpt lat="51.04767" lon="2.42895">
        <ele>5.4</ele>
        <time>2020-06-23T11:11:52Z</time>
      </trkpt>
      <trkpt lat="51.04769" lon="2.42904">
        <ele>5.4</ele>
        <time>2020-06-23T11:11:53Z</time>
      </trkpt>
      <trkpt lat="51.04771" lon="2.42913">
        <ele>5.5</ele>
        <time>2020-06-23T11:11:54Z</time>
      </trkpt>
      <trkpt lat="51.04774" lon="2.42921">
        <ele>5.5</ele>
        <time>2020-06-23T11:11:55Z</time>
      </trkpt>
      <trkpt lat="51.04776" lon="2.4293">
        <ele>5.5</ele>
        <time>2020-06-23T11:11:56Z</time>
      </trkpt>
      <trkpt lat="51.04778" lon="2.4294">
        <ele>5.5</ele>
        <time>2020-06-23T11:11:57Z</time>
      </trkpt>
      <trkpt lat="51.04781" lon="2.42947">
        <ele>5.5</ele>
        <time>2020-06-23T11:11:58Z</time>
      </trkpt>
      <trkpt lat="51.04785" lon="2.42956">
        <ele>5.5</ele>
        <time>2020-06-23T11:11:59Z</time>
      </trkpt>
      <trkpt lat="51.04787" lon="2.42966">
        <ele>5.5</ele>
        <time>2020-06-23T11:12:00Z</time>
      </trkpt>
      <trkpt lat="51.04789" lon="2.42976">
        <ele>5.6</ele>
        <time>2020-06-23T11:12:01Z</time>
      </trkpt>
      <trkpt lat="51.04791" lon="2.42985">
        <ele>5.6</ele>
        <time>2020-06-23T11:12:02Z</time>
      </trkpt>
      <trkpt lat="51.04792" lon="2.42995">
        <ele>5.7</ele>
        <time>2020-06-23T11:12:03Z</time>
      </trkpt>
      <trkpt lat="51.04794" lon="2.43004">
        <ele>5.7</ele>
        <time>2020-06-23T11:12:04Z</time>
      </trkpt>
      <trkpt lat="51.04795" lon="2.43014">
        <ele>5.7</ele>
        <time>2020-06-23T11:12:05Z</time>
      </trkpt>
      <trkpt lat="51.04796" lon="2.43023">
        <ele>5.7</ele>
        <time>2020-06-23T11:12:06Z</time>
      </trkpt>
      <trkpt lat="51.04797" lon="2.43034">
        <ele>5.6</ele>
        <time>2020-06-23T11:12:07Z</time>
      </trkpt>
      <trkpt lat="51.04798" lon="2.43045">
        <ele>5.6</ele>
        <time>2020-06-23T11:12:08Z</time>
      </trkpt>
      <trkpt lat="51.04799" lon="2.43054">
        <ele>5.6</ele>
        <time>2020-06-23T11:12:09Z</time>
      </trkpt>
      <trkpt lat="51.04801" lon="2.43064">
        <ele>5.6</ele>
        <time>2020-06-23T11:12:10Z</time>
      </trkpt>
      <trkpt lat="51.04803" lon="2.43073">
        <ele>5.6</ele>
        <time>2020-06-23T11:12:11Z</time>
      </trkpt>
      <trkpt lat="51.04804" lon="2.43085">
        <ele>5.5</ele>
        <time>2020-06-23T11:12:12Z</time>
      </trkpt>
      <trkpt lat="51.04806" lon="2.43096">
        <ele>5.5</ele>
        <time>2020-06-23T11:12:13Z</time>
      </trkpt>
      <trkpt lat="51.04807" lon="2.43106">
        <ele>5.5</ele>
        <time>2020-06-23T11:12:14Z</time>
      </trkpt>
      <trkpt lat="51.04807" lon="2.43116">
        <ele>5.5</ele>
        <time>2020-06-23T11:12:15Z</time>
      </trkpt>
      <trkpt lat="51.04807" lon="2.43125">
        <ele>5.5</ele>
        <time>2020-06-23T11:12:16Z</time>
      </trkpt>
      <trkpt lat="51.04808" lon="2.43134">
        <ele>5.5</ele>
        <time>2020-06-23T11:12:17Z</time>
      </trkpt>
      <trkpt lat="51.04809" lon="2.43142">
        <ele>5.5</ele>
        <time>2020-06-23T11:12:18Z</time>
      </trkpt>
      <trkpt lat="51.0481" lon="2.43151">
        <ele>5.6</ele>
        <time>2020-06-23T11:12:19Z</time>
      </trkpt>
      <trkpt lat="51.04811" lon="2.43161">
        <ele>5.6</ele>
        <time>2020-06-23T11:12:20Z</time>
      </trkpt>
      <trkpt lat="51.04811" lon="2.4317">
        <ele>5.6</ele>
        <time>2020-06-23T11:12:21Z</time>
      </trkpt>
      <trkpt lat="51.04811" lon="2.43178">
        <ele>5.6</ele>
        <time>2020-06-23T11:12:22Z</time>
      </trkpt>
      <trkpt lat="51.04811" lon="2.43189">
        <ele>5.6</ele>
        <time>2020-06-23T11:12:23Z</time>
      </trkpt>
      <trkpt lat="51.04812" lon="2.43199">
        <ele>5.6</ele>
        <time>2020-06-23T11:12:24Z</time>
      </trkpt>
      <trkpt lat="51.04812" lon="2.43208">
        <ele>5.6</ele>
        <time>2020-06-23T11:12:25Z</time>
      </trkpt>
      <trkpt lat="51.04813" lon="2.43219">
        <ele>5.6</ele>
        <time>2020-06-23T11:12:26Z</time>
      </trkpt>
      <trkpt lat="51.04814" lon="2.43229">
        <ele>5.5</ele>
        <time>2020-06-23T11:12:27Z</time>
      </trkpt>
      <trkpt lat="51.04814" lon="2.4324">
        <ele>5.4</ele>
        <time>2020-06-23T11:12:28Z</time>
      </trkpt>
      <trkpt lat="51.04815" lon="2.4325">
        <ele>5.3</ele>
        <time>2020-06-23T11:12:29Z</time>
      </trkpt>
      <trkpt lat="51.04816" lon="2.4326">
        <ele>5.3</ele>
        <time>2020-06-23T11:12:30Z</time>
      </trkpt>
      <trkpt lat="51.04818" lon="2.43271">
        <ele>5.3</ele>
        <time>2020-06-23T11:12:31Z</time>
      </trkpt>
      <trkpt lat="51.0482" lon="2.4328">
        <ele>5.4</ele>
        <time>2020-06-23T11:12:32Z</time>
      </trkpt>
      <trkpt lat="51.04822" lon="2.43289">
        <ele>5.3</ele>
        <time>2020-06-23T11:12:33Z</time>
      </trkpt>
      <trkpt lat="51.04824" lon="2.43297">
        <ele>5.3</ele>
        <time>2020-06-23T11:12:34Z</time>
      </trkpt>
      <trkpt lat="51.04826" lon="2.43305">
        <ele>5.2</ele>
        <time>2020-06-23T11:12:35Z</time>
      </trkpt>
      <trkpt lat="51.0483" lon="2.43311">
        <ele>5.2</ele>
        <time>2020-06-23T11:12:36Z</time>
      </trkpt>
      <trkpt lat="51.04832" lon="2.43319">
        <ele>5.2</ele>
        <time>2020-06-23T11:12:37Z</time>
      </trkpt>
      <trkpt lat="51.04833" lon="2.43325">
        <ele>5.1</ele>
        <time>2020-06-23T11:12:38Z</time>
      </trkpt>
      <trkpt lat="51.04835" lon="2.43333">
        <ele>5.1</ele>
        <time>2020-06-23T11:12:39Z</time>
      </trkpt>
      <trkpt lat="51.04836" lon="2.43339">
        <ele>5.1</ele>
        <time>2020-06-23T11:12:40Z</time>
      </trkpt>
      <trkpt lat="51.04838" lon="2.43346">
        <ele>5.2</ele>
        <time>2020-06-23T11:12:41Z</time>
      </trkpt>
      <trkpt lat="51.04841" lon="2.43354">
        <ele>5.2</ele>
        <time>2020-06-23T11:12:42Z</time>
      </trkpt>
      <trkpt lat="51.04843" lon="2.43362">
        <ele>5.2</ele>
        <time>2020-06-23T11:12:43Z</time>
      </trkpt>
      <trkpt lat="51.04846" lon="2.43369">
        <ele>5.3</ele>
        <time>2020-06-23T11:12:44Z</time>
      </trkpt>
      <trkpt lat="51.04848" lon="2.43375">
        <ele>5.3</ele>
        <time>2020-06-23T11:12:45Z</time>
      </trkpt>
      <trkpt lat="51.0485" lon="2.43383">
        <ele>5.4</ele>
        <time>2020-06-23T11:12:46Z</time>
      </trkpt>
      <trkpt lat="51.04852" lon="2.43389">
        <ele>5.4</ele>
        <time>2020-06-23T11:12:47Z</time>
      </trkpt>
      <trkpt lat="51.04855" lon="2.43394">
        <ele>5.4</ele>
        <time>2020-06-23T11:12:48Z</time>
      </trkpt>
      <trkpt lat="51.04857" lon="2.434">
        <ele>5.4</ele>
        <time>2020-06-23T11:12:49Z</time>
      </trkpt>
      <trkpt lat="51.0486" lon="2.43407">
        <ele>5.5</ele>
        <time>2020-06-23T11:12:50Z</time>
      </trkpt>
      <trkpt lat="51.04864" lon="2.43413">
        <ele>5.5</ele>
        <time>2020-06-23T11:12:51Z</time>
      </trkpt>
      <trkpt lat="51.04867" lon="2.4342">
        <ele>5.6</ele>
        <time>2020-06-23T11:12:52Z</time>
      </trkpt>
      <trkpt lat="51.04871" lon="2.43427">
        <ele>5.6</ele>
        <time>2020-06-23T11:12:53Z</time>
      </trkpt>
      <trkpt lat="51.04873" lon="2.43432">
        <ele>5.6</ele>
        <time>2020-06-23T11:12:54Z</time>
      </trkpt>
      <trkpt lat="51.04876" lon="2.43438">
        <ele>5.6</ele>
        <time>2020-06-23T11:12:55Z</time>
      </trkpt>
      <trkpt lat="51.04876" lon="2.43447">
        <ele>5.7</ele>
        <time>2020-06-23T11:12:56Z</time>
      </trkpt>
      <trkpt lat="51.04878" lon="2.43454">
        <ele>5.7</ele>
        <time>2020-06-23T11:12:57Z</time>
      </trkpt>
      <trkpt lat="51.04877" lon="2.43463">
        <ele>5.7</ele>
        <time>2020-06-23T11:12:58Z</time>
      </trkpt>
      <trkpt lat="51.04875" lon="2.43472">
        <ele>5.6</ele>
        <time>2020-06-23T11:12:59Z</time>
      </trkpt>
      <trkpt lat="51.04875" lon="2.43482">
        <ele>5.6</ele>
        <time>2020-06-23T11:13:00Z</time>
      </trkpt>
      <trkpt lat="51.04875" lon="2.43492">
        <ele>5.6</ele>
        <time>2020-06-23T11:13:01Z</time>
      </trkpt>
      <trkpt lat="51.04876" lon="2.43502">
        <ele>5.6</ele>
        <time>2020-06-23T11:13:02Z</time>
      </trkpt>
      <trkpt lat="51.04875" lon="2.43512">
        <ele>5.6</ele>
        <time>2020-06-23T11:13:03Z</time>
      </trkpt>
      <trkpt lat="51.04875" lon="2.43522">
        <ele>5.6</ele>
        <time>2020-06-23T11:13:04Z</time>
      </trkpt>
      <trkpt lat="51.04876" lon="2.43529">
        <ele>5.6</ele>
        <time>2020-06-23T11:13:05Z</time>
      </trkpt>
      <trkpt lat="51.04877" lon="2.43539">
        <ele>5.6</ele>
        <time>2020-06-23T11:13:06Z</time>
      </trkpt>
      <trkpt lat="51.04877" lon="2.43549">
        <ele>5.5</ele>
        <time>2020-06-23T11:13:07Z</time>
      </trkpt>
      <trkpt lat="51.04876" lon="2.4356">
        <ele>5.5</ele>
        <time>2020-06-23T11:13:08Z</time>
      </trkpt>
      <trkpt lat="51.04876" lon="2.43571">
        <ele>5.4</ele>
        <time>2020-06-23T11:13:09Z</time>
      </trkpt>
      <trkpt lat="51.04875" lon="2.43581">
        <ele>5.4</ele>
        <time>2020-06-23T11:13:10Z</time>
      </trkpt>
      <trkpt lat="51.04875" lon="2.4359">
        <ele>5.5</ele>
        <time>2020-06-23T11:13:11Z</time>
      </trkpt>
      <trkpt lat="51.04873" lon="2.436">
        <ele>5.5</ele>
        <time>2020-06-23T11:13:12Z</time>
      </trkpt>
      <trkpt lat="51.04872" lon="2.43609">
        <ele>5.5</ele>
        <time>2020-06-23T11:13:13Z</time>
      </trkpt>
      <trkpt lat="51.04871" lon="2.43619">
        <ele>5.5</ele>
        <time>2020-06-23T11:13:14Z</time>
      </trkpt>
      <trkpt lat="51.04869" lon="2.43631">
        <ele>5.5</ele>
        <time>2020-06-23T11:13:15Z</time>
      </trkpt>
      <trkpt lat="51.04869" lon="2.43639">
        <ele>5.4</ele>
        <time>2020-06-23T11:13:16Z</time>
      </trkpt>
      <trkpt lat="51.04869" lon="2.4365">
        <ele>5.3</ele>
        <time>2020-06-23T11:13:17Z</time>
      </trkpt>
      <trkpt lat="51.04869" lon="2.43659">
        <ele>5.3</ele>
        <time>2020-06-23T11:13:18Z</time>
      </trkpt>
      <trkpt lat="51.04868" lon="2.43667">
        <ele>5.3</ele>
        <time>2020-06-23T11:13:19Z</time>
      </trkpt>
      <trkpt lat="51.04869" lon="2.43675">
        <ele>5.3</ele>
        <time>2020-06-23T11:13:20Z</time>
      </trkpt>
      <trkpt lat="51.0487" lon="2.43685">
        <ele>5.2</ele>
        <time>2020-06-23T11:13:21Z</time>
      </trkpt>
      <trkpt lat="51.0487" lon="2.43694">
        <ele>5.2</ele>
        <time>2020-06-23T11:13:22Z</time>
      </trkpt>
      <trkpt lat="51.0487" lon="2.43702">
        <ele>5.2</ele>
        <time>2020-06-23T11:13:23Z</time>
      </trkpt>
      <trkpt lat="51.04869" lon="2.43708">
        <ele>4.8</ele>
        <time>2020-06-23T11:13:24Z</time>
      </trkpt>
      <trkpt lat="51.04868" lon="2.43716">
        <ele>4.5</ele>
        <time>2020-06-23T11:13:25Z</time>
      </trkpt>
      <trkpt lat="51.04867" lon="2.43723">
        <ele>4.2</ele>
        <time>2020-06-23T11:13:26Z</time>
      </trkpt>
      <trkpt lat="51.04862" lon="2.43725">
        <ele>3.8</ele>
        <time>2020-06-23T11:13:27Z</time>
      </trkpt>
      <trkpt lat="51.04858" lon="2.43728">
        <ele>3.5</ele>
        <time>2020-06-23T11:13:28Z</time>
      </trkpt>
      <trkpt lat="51.04855" lon="2.43733">
        <ele>3.2</ele>
        <time>2020-06-23T11:13:29Z</time>
      </trkpt>
      <trkpt lat="51.04852" lon="2.43738">
        <ele>2.9</ele>
        <time>2020-06-23T11:13:30Z</time>
      </trkpt>
      <trkpt lat="51.0485" lon="2.43746">
        <ele>2.9</ele>
        <time>2020-06-23T11:13:31Z</time>
      </trkpt>
      <trkpt lat="51.04849" lon="2.43753">
        <ele>2.9</ele>
        <time>2020-06-23T11:13:32Z</time>
      </trkpt>
      <trkpt lat="51.04849" lon="2.43762">
        <ele>2.9</ele>
        <time>2020-06-23T11:13:33Z</time>
      </trkpt>
      <trkpt lat="51.04849" lon="2.43769">
        <ele>2.9</ele>
        <time>2020-06-23T11:13:34Z</time>
      </trkpt>
      <trkpt lat="51.04849" lon="2.43777">
        <ele>2.9</ele>
        <time>2020-06-23T11:13:35Z</time>
      </trkpt>
      <trkpt lat="51.04848" lon="2.43784">
        <ele>2.9</ele>
        <time>2020-06-23T11:13:36Z</time>
      </trkpt>
      <trkpt lat="51.04847" lon="2.4379">
        <ele>2.9</ele>
        <time>2020-06-23T11:13:37Z</time>
      </trkpt>
      <trkpt lat="51.04847" lon="2.43796">
        <ele>2.9</ele>
        <time>2020-06-23T11:13:38Z</time>
      </trkpt>
      <trkpt lat="51.04846" lon="2.43803">
        <ele>2.9</ele>
        <time>2020-06-23T11:13:39Z</time>
      </trkpt>
      <trkpt lat="51.04846" lon="2.43806">
        <ele>2.9</ele>
        <time>2020-06-23T11:13:40Z</time>
      </trkpt>
      <trkpt lat="51.04847" lon="2.43811">
        <ele>2.9</ele>
        <time>2020-06-23T11:13:41Z</time>
      </trkpt>
      <trkpt lat="51.04849" lon="2.43818">
        <ele>2.9</ele>
        <time>2020-06-23T11:13:42Z</time>
      </trkpt>
      <trkpt lat="51.04852" lon="2.43823">
        <ele>3</ele>
        <time>2020-06-23T11:13:43Z</time>
      </trkpt>
      <trkpt lat="51.04856" lon="2.4383">
        <ele>3</ele>
        <time>2020-06-23T11:13:44Z</time>
      </trkpt>
      <trkpt lat="51.04858" lon="2.43835">
        <ele>3</ele>
        <time>2020-06-23T11:13:45Z</time>
      </trkpt>
      <trkpt lat="51.04862" lon="2.43841">
        <ele>3</ele>
        <time>2020-06-23T11:13:46Z</time>
      </trkpt>
      <trkpt lat="51.04865" lon="2.43848">
        <ele>3</ele>
        <time>2020-06-23T11:13:47Z</time>
      </trkpt>
      <trkpt lat="51.04868" lon="2.43857">
        <ele>3</ele>
        <time>2020-06-23T11:13:48Z</time>
      </trkpt>
      <trkpt lat="51.04869" lon="2.43867">
        <ele>3</ele>
        <time>2020-06-23T11:13:49Z</time>
      </trkpt>
      <trkpt lat="51.04871" lon="2.43876">
        <ele>3</ele>
        <time>2020-06-23T11:13:50Z</time>
      </trkpt>
      <trkpt lat="51.04873" lon="2.43885">
        <ele>3.1</ele>
        <time>2020-06-23T11:13:51Z</time>
      </trkpt>
      <trkpt lat="51.04874" lon="2.43893">
        <ele>3.1</ele>
        <time>2020-06-23T11:13:52Z</time>
      </trkpt>
      <trkpt lat="51.04875" lon="2.43901">
        <ele>3.1</ele>
        <time>2020-06-23T11:13:53Z</time>
      </trkpt>
      <trkpt lat="51.04877" lon="2.4391">
        <ele>3.2</ele>
        <time>2020-06-23T11:13:54Z</time>
      </trkpt>
      <trkpt lat="51.04879" lon="2.43918">
        <ele>3.2</ele>
        <time>2020-06-23T11:13:55Z</time>
      </trkpt>
      <trkpt lat="51.0488" lon="2.43925">
        <ele>3.2</ele>
        <time>2020-06-23T11:13:56Z</time>
      </trkpt>
      <trkpt lat="51.04882" lon="2.43933">
        <ele>3.3</ele>
        <time>2020-06-23T11:13:57Z</time>
      </trkpt>
      <trkpt lat="51.04884" lon="2.4394">
        <ele>3.3</ele>
        <time>2020-06-23T11:13:58Z</time>
      </trkpt>
      <trkpt lat="51.04886" lon="2.43946">
        <ele>3.4</ele>
        <time>2020-06-23T11:13:59Z</time>
      </trkpt>
      <trkpt lat="51.04887" lon="2.43953">
        <ele>3.4</ele>
        <time>2020-06-23T11:14:00Z</time>
      </trkpt>
      <trkpt lat="51.04889" lon="2.43959">
        <ele>3.4</ele>
        <time>2020-06-23T11:14:01Z</time>
      </trkpt>
      <trkpt lat="51.04892" lon="2.43967">
        <ele>3.5</ele>
        <time>2020-06-23T11:14:02Z</time>
      </trkpt>
      <trkpt lat="51.04894" lon="2.43975">
        <ele>3.5</ele>
        <time>2020-06-23T11:14:03Z</time>
      </trkpt>
      <trkpt lat="51.04898" lon="2.43982">
        <ele>3.6</ele>
        <time>2020-06-23T11:14:04Z</time>
      </trkpt>
      <trkpt lat="51.04901" lon="2.43991">
        <ele>3.7</ele>
        <time>2020-06-23T11:14:05Z</time>
      </trkpt>
      <trkpt lat="51.04904" lon="2.43997">
        <ele>3.8</ele>
        <time>2020-06-23T11:14:06Z</time>
      </trkpt>
      <trkpt lat="51.04908" lon="2.44003">
        <ele>3.9</ele>
        <time>2020-06-23T11:14:07Z</time>
      </trkpt>
      <trkpt lat="51.04912" lon="2.4401">
        <ele>3.9</ele>
        <time>2020-06-23T11:14:08Z</time>
      </trkpt>
      <trkpt lat="51.04917" lon="2.44015">
        <ele>4</ele>
        <time>2020-06-23T11:14:09Z</time>
      </trkpt>
      <trkpt lat="51.04921" lon="2.44021">
        <ele>4.1</ele>
        <time>2020-06-23T11:14:10Z</time>
      </trkpt>
      <trkpt lat="51.04925" lon="2.44028">
        <ele>4.1</ele>
        <time>2020-06-23T11:14:11Z</time>
      </trkpt>
      <trkpt lat="51.04928" lon="2.44035">
        <ele>4.2</ele>
        <time>2020-06-23T11:14:12Z</time>
      </trkpt>
      <trkpt lat="51.04931" lon="2.44042">
        <ele>4.3</ele>
        <time>2020-06-23T11:14:13Z</time>
      </trkpt>
      <trkpt lat="51.04935" lon="2.44049">
        <ele>4.4</ele>
        <time>2020-06-23T11:14:14Z</time>
      </trkpt>
      <trkpt lat="51.04939" lon="2.44055">
        <ele>4.4</ele>
        <time>2020-06-23T11:14:15Z</time>
      </trkpt>
      <trkpt lat="51.04943" lon="2.44061">
        <ele>4.5</ele>
        <time>2020-06-23T11:14:16Z</time>
      </trkpt>
      <trkpt lat="51.04946" lon="2.44069">
        <ele>4.5</ele>
        <time>2020-06-23T11:14:17Z</time>
      </trkpt>
      <trkpt lat="51.0495" lon="2.44075">
        <ele>4.5</ele>
        <time>2020-06-23T11:14:18Z</time>
      </trkpt>
      <trkpt lat="51.04954" lon="2.44081">
        <ele>4.6</ele>
        <time>2020-06-23T11:14:19Z</time>
      </trkpt>
      <trkpt lat="51.04957" lon="2.44087">
        <ele>4.6</ele>
        <time>2020-06-23T11:14:20Z</time>
      </trkpt>
      <trkpt lat="51.0496" lon="2.44094">
        <ele>4.6</ele>
        <time>2020-06-23T11:14:21Z</time>
      </trkpt>
      <trkpt lat="51.04962" lon="2.44101">
        <ele>4.6</ele>
        <time>2020-06-23T11:14:22Z</time>
      </trkpt>
      <trkpt lat="51.04965" lon="2.44107">
        <ele>4.6</ele>
        <time>2020-06-23T11:14:23Z</time>
      </trkpt>
      <trkpt lat="51.04968" lon="2.44114">
        <ele>4.6</ele>
        <time>2020-06-23T11:14:24Z</time>
      </trkpt>
      <trkpt lat="51.04971" lon="2.4412">
        <ele>4.5</ele>
        <time>2020-06-23T11:14:25Z</time>
      </trkpt>
      <trkpt lat="51.04974" lon="2.44126">
        <ele>4.5</ele>
        <time>2020-06-23T11:14:26Z</time>
      </trkpt>
      <trkpt lat="51.04978" lon="2.44132">
        <ele>4.5</ele>
        <time>2020-06-23T11:14:27Z</time>
      </trkpt>
      <trkpt lat="51.04981" lon="2.44138">
        <ele>4.5</ele>
        <time>2020-06-23T11:14:28Z</time>
      </trkpt>
      <trkpt lat="51.04984" lon="2.44144">
        <ele>4.6</ele>
        <time>2020-06-23T11:14:29Z</time>
      </trkpt>
      <trkpt lat="51.04987" lon="2.44151">
        <ele>4.6</ele>
        <time>2020-06-23T11:14:30Z</time>
      </trkpt>
      <trkpt lat="51.0499" lon="2.44157">
        <ele>4.7</ele>
        <time>2020-06-23T11:14:31Z</time>
      </trkpt>
      <trkpt lat="51.04993" lon="2.44164">
        <ele>4.7</ele>
        <time>2020-06-23T11:14:32Z</time>
      </trkpt>
      <trkpt lat="51.04997" lon="2.44172">
        <ele>4.7</ele>
        <time>2020-06-23T11:14:33Z</time>
      </trkpt>
      <trkpt lat="51.05" lon="2.44177">
        <ele>4.7</ele>
        <time>2020-06-23T11:14:34Z</time>
      </trkpt>
      <trkpt lat="51.05003" lon="2.44183">
        <ele>4.7</ele>
        <time>2020-06-23T11:14:35Z</time>
      </trkpt>
      <trkpt lat="51.05006" lon="2.44189">
        <ele>4.7</ele>
        <time>2020-06-23T11:14:36Z</time>
      </trkpt>
      <trkpt lat="51.05009" lon="2.44195">
        <ele>4.7</ele>
        <time>2020-06-23T11:14:37Z</time>
      </trkpt>
      <trkpt lat="51.05013" lon="2.44199">
        <ele>4.7</ele>
        <time>2020-06-23T11:14:38Z</time>
      </trkpt>
      <trkpt lat="51.05017" lon="2.44205">
        <ele>4.7</ele>
        <time>2020-06-23T11:14:39Z</time>
      </trkpt>
      <trkpt lat="51.05022" lon="2.4421">
        <ele>4.8</ele>
        <time>2020-06-23T11:14:40Z</time>
      </trkpt>
      <trkpt lat="51.05026" lon="2.44215">
        <ele>4.8</ele>
        <time>2020-06-23T11:14:41Z</time>
      </trkpt>
      <trkpt lat="51.0503" lon="2.44219">
        <ele>4.9</ele>
        <time>2020-06-23T11:14:42Z</time>
      </trkpt>
      <trkpt lat="51.05034" lon="2.44224">
        <ele>5</ele>
        <time>2020-06-23T11:14:43Z</time>
      </trkpt>
      <trkpt lat="51.05038" lon="2.44229">
        <ele>5</ele>
        <time>2020-06-23T11:14:44Z</time>
      </trkpt>
      <trkpt lat="51.05042" lon="2.44234">
        <ele>5</ele>
        <time>2020-06-23T11:14:45Z</time>
      </trkpt>
      <trkpt lat="51.05045" lon="2.44239">
        <ele>5</ele>
        <time>2020-06-23T11:14:46Z</time>
      </trkpt>
      <trkpt lat="51.05049" lon="2.44244">
        <ele>5</ele>
        <time>2020-06-23T11:14:47Z</time>
      </trkpt>
      <trkpt lat="51.05053" lon="2.44248">
        <ele>5</ele>
        <time>2020-06-23T11:14:48Z</time>
      </trkpt>
      <trkpt lat="51.05057" lon="2.44253">
        <ele>5</ele>
        <time>2020-06-23T11:14:49Z</time>
      </trkpt>
      <trkpt lat="51.05061" lon="2.44258">
        <ele>5.1</ele>
        <time>2020-06-23T11:14:50Z</time>
      </trkpt>
      <trkpt lat="51.05065" lon="2.44263">
        <ele>5.2</ele>
        <time>2020-06-23T11:14:51Z</time>
      </trkpt>
      <trkpt lat="51.05069" lon="2.44269">
        <ele>5.3</ele>
        <time>2020-06-23T11:14:52Z</time>
      </trkpt>
      <trkpt lat="51.05074" lon="2.44274">
        <ele>5.4</ele>
        <time>2020-06-23T11:14:53Z</time>
      </trkpt>
      <trkpt lat="51.05078" lon="2.44281">
        <ele>5.5</ele>
        <time>2020-06-23T11:14:54Z</time>
      </trkpt>
      <trkpt lat="51.05082" lon="2.44286">
        <ele>5.5</ele>
        <time>2020-06-23T11:14:55Z</time>
      </trkpt>
      <trkpt lat="51.05085" lon="2.44292">
        <ele>5.6</ele>
        <time>2020-06-23T11:14:56Z</time>
      </trkpt>
      <trkpt lat="51.05088" lon="2.443">
        <ele>5.7</ele>
        <time>2020-06-23T11:14:57Z</time>
      </trkpt>
      <trkpt lat="51.05091" lon="2.44308">
        <ele>5.7</ele>
        <time>2020-06-23T11:14:58Z</time>
      </trkpt>
      <trkpt lat="51.05094" lon="2.44315">
        <ele>5.8</ele>
        <time>2020-06-23T11:14:59Z</time>
      </trkpt>
      <trkpt lat="51.05097" lon="2.44321">
        <ele>5.9</ele>
        <time>2020-06-23T11:15:00Z</time>
      </trkpt>
      <trkpt lat="51.05099" lon="2.44329">
        <ele>5.9</ele>
        <time>2020-06-23T11:15:01Z</time>
      </trkpt>
      <trkpt lat="51.05102" lon="2.44337">
        <ele>5.9</ele>
        <time>2020-06-23T11:15:02Z</time>
      </trkpt>
      <trkpt lat="51.05104" lon="2.44344">
        <ele>5.9</ele>
        <time>2020-06-23T11:15:03Z</time>
      </trkpt>
      <trkpt lat="51.05106" lon="2.44351">
        <ele>5.9</ele>
        <time>2020-06-23T11:15:04Z</time>
      </trkpt>
      <trkpt lat="51.05108" lon="2.44359">
        <ele>5.9</ele>
        <time>2020-06-23T11:15:05Z</time>
      </trkpt>
      <trkpt lat="51.0511" lon="2.44366">
        <ele>5.9</ele>
        <time>2020-06-23T11:15:06Z</time>
      </trkpt>
      <trkpt lat="51.05112" lon="2.44373">
        <ele>5.9</ele>
        <time>2020-06-23T11:15:07Z</time>
      </trkpt>
      <trkpt lat="51.05115" lon="2.44379">
        <ele>5.9</ele>
        <time>2020-06-23T11:15:08Z</time>
      </trkpt>
      <trkpt lat="51.05117" lon="2.44386">
        <ele>5.9</ele>
        <time>2020-06-23T11:15:09Z</time>
      </trkpt>
      <trkpt lat="51.05118" lon="2.44394">
        <ele>5.9</ele>
        <time>2020-06-23T11:15:10Z</time>
      </trkpt>
      <trkpt lat="51.05119" lon="2.44401">
        <ele>5.9</ele>
        <time>2020-06-23T11:15:11Z</time>
      </trkpt>
      <trkpt lat="51.0512" lon="2.44408">
        <ele>6</ele>
        <time>2020-06-23T11:15:12Z</time>
      </trkpt>
      <trkpt lat="51.05122" lon="2.44414">
        <ele>6</ele>
        <time>2020-06-23T11:15:13Z</time>
      </trkpt>
      <trkpt lat="51.05122" lon="2.4442">
        <ele>6.1</ele>
        <time>2020-06-23T11:15:14Z</time>
      </trkpt>
      <trkpt lat="51.05124" lon="2.44426">
        <ele>6.1</ele>
        <time>2020-06-23T11:15:15Z</time>
      </trkpt>
      <trkpt lat="51.05125" lon="2.44432">
        <ele>6.1</ele>
        <time>2020-06-23T11:15:16Z</time>
      </trkpt>
      <trkpt lat="51.05126" lon="2.44437">
        <ele>6.1</ele>
        <time>2020-06-23T11:15:17Z</time>
      </trkpt>
      <trkpt lat="51.05127" lon="2.44444">
        <ele>6.2</ele>
        <time>2020-06-23T11:15:18Z</time>
      </trkpt>
      <trkpt lat="51.05129" lon="2.44452">
        <ele>6.2</ele>
        <time>2020-06-23T11:15:19Z</time>
      </trkpt>
      <trkpt lat="51.0513" lon="2.44459">
        <ele>6.2</ele>
        <time>2020-06-23T11:15:20Z</time>
      </trkpt>
      <trkpt lat="51.05131" lon="2.44467">
        <ele>6.2</ele>
        <time>2020-06-23T11:15:21Z</time>
      </trkpt>
      <trkpt lat="51.05132" lon="2.44475">
        <ele>6.2</ele>
        <time>2020-06-23T11:15:22Z</time>
      </trkpt>
      <trkpt lat="51.05134" lon="2.44481">
        <ele>6.2</ele>
        <time>2020-06-23T11:15:23Z</time>
      </trkpt>
      <trkpt lat="51.05136" lon="2.44487">
        <ele>6.2</ele>
        <time>2020-06-23T11:15:24Z</time>
      </trkpt>
      <trkpt lat="51.05137" lon="2.44492">
        <ele>6.3</ele>
        <time>2020-06-23T11:15:25Z</time>
      </trkpt>
      <trkpt lat="51.05139" lon="2.44497">
        <ele>6.3</ele>
        <time>2020-06-23T11:15:26Z</time>
      </trkpt>
      <trkpt lat="51.05141" lon="2.44502">
        <ele>6.4</ele>
        <time>2020-06-23T11:15:27Z</time>
      </trkpt>
      <trkpt lat="51.05142" lon="2.44508">
        <ele>6.5</ele>
        <time>2020-06-23T11:15:28Z</time>
      </trkpt>
      <trkpt lat="51.05145" lon="2.44511">
        <ele>6.5</ele>
        <time>2020-06-23T11:15:29Z</time>
      </trkpt>
      <trkpt lat="51.05148" lon="2.44512">
        <ele>6.6</ele>
        <time>2020-06-23T11:15:30Z</time>
      </trkpt>
      <trkpt lat="51.05152" lon="2.44512">
        <ele>6.7</ele>
        <time>2020-06-23T11:15:31Z</time>
      </trkpt>
      <trkpt lat="51.05158" lon="2.44509">
        <ele>6.8</ele>
        <time>2020-06-23T11:15:32Z</time>
      </trkpt>
      <trkpt lat="51.05162" lon="2.44508">
        <ele>6.9</ele>
        <time>2020-06-23T11:15:33Z</time>
      </trkpt>
      <trkpt lat="51.05166" lon="2.44506">
        <ele>6.9</ele>
        <time>2020-06-23T11:15:34Z</time>
      </trkpt>
      <trkpt lat="51.05169" lon="2.44506">
        <ele>7</ele>
        <time>2020-06-23T11:15:35Z</time>
      </trkpt>
      <trkpt lat="51.05172" lon="2.44508">
        <ele>7</ele>
        <time>2020-06-23T11:15:36Z</time>
      </trkpt>
      <trkpt lat="51.05175" lon="2.4451">
        <ele>7.1</ele>
        <time>2020-06-23T11:15:37Z</time>
      </trkpt>
      <trkpt lat="51.05176" lon="2.44511">
        <ele>7.1</ele>
        <time>2020-06-23T11:15:38Z</time>
      </trkpt>
      <trkpt lat="51.05176" lon="2.44516">
        <ele>7.2</ele>
        <time>2020-06-23T11:15:39Z</time>
      </trkpt>
      <trkpt lat="51.05175" lon="2.44518">
        <ele>7.2</ele>
        <time>2020-06-23T11:15:40Z</time>
      </trkpt>
      <trkpt lat="51.05174" lon="2.44522">
        <ele>7.3</ele>
        <time>2020-06-23T11:15:41Z</time>
      </trkpt>
      <trkpt lat="51.05172" lon="2.44526">
        <ele>7.3</ele>
        <time>2020-06-23T11:15:42Z</time>
      </trkpt>
      <trkpt lat="51.05173" lon="2.44531">
        <ele>7.6</ele>
        <time>2020-06-23T11:15:43Z</time>
      </trkpt>
      <trkpt lat="51.05173" lon="2.44537">
        <ele>7.4</ele>
        <time>2020-06-23T11:15:44Z</time>
      </trkpt>
      <trkpt lat="51.05176" lon="2.44546">
        <ele>7.1</ele>
        <time>2020-06-23T11:15:45Z</time>
      </trkpt>
      <trkpt lat="51.05178" lon="2.44555">
        <ele>6.9</ele>
        <time>2020-06-23T11:15:46Z</time>
      </trkpt>
      <trkpt lat="51.05181" lon="2.44565">
        <ele>6.8</ele>
        <time>2020-06-23T11:15:47Z</time>
      </trkpt>
      <trkpt lat="51.05183" lon="2.44572">
        <ele>6.7</ele>
        <time>2020-06-23T11:15:48Z</time>
      </trkpt>
      <trkpt lat="51.05184" lon="2.44579">
        <ele>6.7</ele>
        <time>2020-06-23T11:15:49Z</time>
      </trkpt>
      <trkpt lat="51.05185" lon="2.44587">
        <ele>6.6</ele>
        <time>2020-06-23T11:15:50Z</time>
      </trkpt>
      <trkpt lat="51.05185" lon="2.44596">
        <ele>6.6</ele>
        <time>2020-06-23T11:15:51Z</time>
      </trkpt>
      <trkpt lat="51.05185" lon="2.44603">
        <ele>6.5</ele>
        <time>2020-06-23T11:15:52Z</time>
      </trkpt>
      <trkpt lat="51.05185" lon="2.44611">
        <ele>6.4</ele>
        <time>2020-06-23T11:15:53Z</time>
      </trkpt>
      <trkpt lat="51.05183" lon="2.4462">
        <ele>6.4</ele>
        <time>2020-06-23T11:15:54Z</time>
      </trkpt>
      <trkpt lat="51.05183" lon="2.44629">
        <ele>6.4</ele>
        <time>2020-06-23T11:15:55Z</time>
      </trkpt>
      <trkpt lat="51.05181" lon="2.4464">
        <ele>6.3</ele>
        <time>2020-06-23T11:15:56Z</time>
      </trkpt>
      <trkpt lat="51.0518" lon="2.44649">
        <ele>6.2</ele>
        <time>2020-06-23T11:15:57Z</time>
      </trkpt>
      <trkpt lat="51.0518" lon="2.44659">
        <ele>6.1</ele>
        <time>2020-06-23T11:15:58Z</time>
      </trkpt>
      <trkpt lat="51.0518" lon="2.44669">
        <ele>6</ele>
        <time>2020-06-23T11:15:59Z</time>
      </trkpt>
      <trkpt lat="51.0518" lon="2.44679">
        <ele>5.8</ele>
        <time>2020-06-23T11:16:00Z</time>
      </trkpt>
      <trkpt lat="51.05181" lon="2.44689">
        <ele>5.7</ele>
        <time>2020-06-23T11:16:01Z</time>
      </trkpt>
      <trkpt lat="51.05182" lon="2.44699">
        <ele>5.6</ele>
        <time>2020-06-23T11:16:02Z</time>
      </trkpt>
      <trkpt lat="51.05183" lon="2.44709">
        <ele>5.6</ele>
        <time>2020-06-23T11:16:03Z</time>
      </trkpt>
      <trkpt lat="51.05185" lon="2.44718">
        <ele>5.5</ele>
        <time>2020-06-23T11:16:04Z</time>
      </trkpt>
      <trkpt lat="51.05186" lon="2.44728">
        <ele>5.4</ele>
        <time>2020-06-23T11:16:05Z</time>
      </trkpt>
      <trkpt lat="51.05188" lon="2.44737">
        <ele>5.3</ele>
        <time>2020-06-23T11:16:06Z</time>
      </trkpt>
      <trkpt lat="51.05189" lon="2.44747">
        <ele>5.3</ele>
        <time>2020-06-23T11:16:07Z</time>
      </trkpt>
      <trkpt lat="51.05191" lon="2.44756">
        <ele>5.2</ele>
        <time>2020-06-23T11:16:08Z</time>
      </trkpt>
      <trkpt lat="51.05192" lon="2.44765">
        <ele>5.2</ele>
        <time>2020-06-23T11:16:09Z</time>
      </trkpt>
      <trkpt lat="51.05193" lon="2.44774">
        <ele>5.1</ele>
        <time>2020-06-23T11:16:10Z</time>
      </trkpt>
      <trkpt lat="51.05195" lon="2.44782">
        <ele>5.1</ele>
        <time>2020-06-23T11:16:11Z</time>
      </trkpt>
      <trkpt lat="51.05197" lon="2.4479">
        <ele>5</ele>
        <time>2020-06-23T11:16:12Z</time>
      </trkpt>
      <trkpt lat="51.052" lon="2.44798">
        <ele>5</ele>
        <time>2020-06-23T11:16:13Z</time>
      </trkpt>
      <trkpt lat="51.05201" lon="2.44806">
        <ele>5</ele>
        <time>2020-06-23T11:16:14Z</time>
      </trkpt>
      <trkpt lat="51.05203" lon="2.44812">
        <ele>5</ele>
        <time>2020-06-23T11:16:15Z</time>
      </trkpt>
      <trkpt lat="51.05204" lon="2.4482">
        <ele>4.9</ele>
        <time>2020-06-23T11:16:16Z</time>
      </trkpt>
      <trkpt lat="51.05206" lon="2.44828">
        <ele>4.9</ele>
        <time>2020-06-23T11:16:17Z</time>
      </trkpt>
      <trkpt lat="51.05208" lon="2.44837">
        <ele>4.9</ele>
        <time>2020-06-23T11:16:18Z</time>
      </trkpt>
      <trkpt lat="51.0521" lon="2.44846">
        <ele>4.9</ele>
        <time>2020-06-23T11:16:19Z</time>
      </trkpt>
      <trkpt lat="51.05212" lon="2.44855">
        <ele>4.9</ele>
        <time>2020-06-23T11:16:20Z</time>
      </trkpt>
      <trkpt lat="51.05215" lon="2.44863">
        <ele>4.9</ele>
        <time>2020-06-23T11:16:21Z</time>
      </trkpt>
      <trkpt lat="51.05216" lon="2.44872">
        <ele>4.9</ele>
        <time>2020-06-23T11:16:22Z</time>
      </trkpt>
      <trkpt lat="51.05218" lon="2.44881">
        <ele>4.8</ele>
        <time>2020-06-23T11:16:23Z</time>
      </trkpt>
      <trkpt lat="51.0522" lon="2.4489">
        <ele>4.8</ele>
        <time>2020-06-23T11:16:24Z</time>
      </trkpt>
      <trkpt lat="51.05222" lon="2.44898">
        <ele>4.8</ele>
        <time>2020-06-23T11:16:25Z</time>
      </trkpt>
      <trkpt lat="51.05224" lon="2.44906">
        <ele>4.8</ele>
        <time>2020-06-23T11:16:26Z</time>
      </trkpt>
      <trkpt lat="51.05226" lon="2.44914">
        <ele>4.8</ele>
        <time>2020-06-23T11:16:27Z</time>
      </trkpt>
      <trkpt lat="51.05227" lon="2.44924">
        <ele>4.8</ele>
        <time>2020-06-23T11:16:28Z</time>
      </trkpt>
      <trkpt lat="51.05229" lon="2.44932">
        <ele>4.8</ele>
        <time>2020-06-23T11:16:29Z</time>
      </trkpt>
      <trkpt lat="51.05231" lon="2.44942">
        <ele>4.8</ele>
        <time>2020-06-23T11:16:30Z</time>
      </trkpt>
      <trkpt lat="51.05234" lon="2.44952">
        <ele>4.7</ele>
        <time>2020-06-23T11:16:31Z</time>
      </trkpt>
      <trkpt lat="51.05236" lon="2.44963">
        <ele>4.7</ele>
        <time>2020-06-23T11:16:32Z</time>
      </trkpt>
      <trkpt lat="51.05238" lon="2.44972">
        <ele>4.7</ele>
        <time>2020-06-23T11:16:33Z</time>
      </trkpt>
      <trkpt lat="51.0524" lon="2.44983">
        <ele>4.6</ele>
        <time>2020-06-23T11:16:34Z</time>
      </trkpt>
      <trkpt lat="51.05243" lon="2.44993">
        <ele>4.6</ele>
        <time>2020-06-23T11:16:35Z</time>
      </trkpt>
      <trkpt lat="51.05246" lon="2.45002">
        <ele>4.6</ele>
        <time>2020-06-23T11:16:36Z</time>
      </trkpt>
      <trkpt lat="51.05248" lon="2.4501">
        <ele>4.6</ele>
        <time>2020-06-23T11:16:37Z</time>
      </trkpt>
      <trkpt lat="51.0525" lon="2.45021">
        <ele>4.5</ele>
        <time>2020-06-23T11:16:38Z</time>
      </trkpt>
      <trkpt lat="51.05253" lon="2.45031">
        <ele>4.5</ele>
        <time>2020-06-23T11:16:39Z</time>
      </trkpt>
      <trkpt lat="51.05254" lon="2.4504">
        <ele>4.5</ele>
        <time>2020-06-23T11:16:40Z</time>
      </trkpt>
      <trkpt lat="51.05255" lon="2.45051">
        <ele>4.5</ele>
        <time>2020-06-23T11:16:41Z</time>
      </trkpt>
      <trkpt lat="51.05258" lon="2.45059">
        <ele>4.4</ele>
        <time>2020-06-23T11:16:42Z</time>
      </trkpt>
      <trkpt lat="51.0526" lon="2.45068">
        <ele>4.4</ele>
        <time>2020-06-23T11:16:43Z</time>
      </trkpt>
      <trkpt lat="51.05262" lon="2.45076">
        <ele>4.4</ele>
        <time>2020-06-23T11:16:44Z</time>
      </trkpt>
      <trkpt lat="51.05264" lon="2.45084">
        <ele>4.4</ele>
        <time>2020-06-23T11:16:45Z</time>
      </trkpt>
      <trkpt lat="51.05266" lon="2.45095">
        <ele>4.5</ele>
        <time>2020-06-23T11:16:46Z</time>
      </trkpt>
      <trkpt lat="51.05268" lon="2.45104">
        <ele>4.5</ele>
        <time>2020-06-23T11:16:47Z</time>
      </trkpt>
      <trkpt lat="51.05269" lon="2.45112">
        <ele>4.5</ele>
        <time>2020-06-23T11:16:48Z</time>
      </trkpt>
      <trkpt lat="51.05271" lon="2.45121">
        <ele>4.5</ele>
        <time>2020-06-23T11:16:49Z</time>
      </trkpt>
      <trkpt lat="51.05273" lon="2.45129">
        <ele>4.5</ele>
        <time>2020-06-23T11:16:50Z</time>
      </trkpt>
      <trkpt lat="51.05275" lon="2.45136">
        <ele>4.5</ele>
        <time>2020-06-23T11:16:51Z</time>
      </trkpt>
      <trkpt lat="51.05277" lon="2.45144">
        <ele>4.5</ele>
        <time>2020-06-23T11:16:52Z</time>
      </trkpt>
      <trkpt lat="51.0528" lon="2.45152">
        <ele>4.5</ele>
        <time>2020-06-23T11:16:53Z</time>
      </trkpt>
      <trkpt lat="51.05283" lon="2.45158">
        <ele>4.5</ele>
        <time>2020-06-23T11:16:54Z</time>
      </trkpt>
      <trkpt lat="51.05285" lon="2.45165">
        <ele>4.5</ele>
        <time>2020-06-23T11:16:55Z</time>
      </trkpt>
      <trkpt lat="51.05287" lon="2.45173">
        <ele>4.6</ele>
        <time>2020-06-23T11:16:56Z</time>
      </trkpt>
      <trkpt lat="51.05289" lon="2.4518">
        <ele>4.6</ele>
        <time>2020-06-23T11:16:57Z</time>
      </trkpt>
      <trkpt lat="51.05292" lon="2.45189">
        <ele>4.6</ele>
        <time>2020-06-23T11:16:58Z</time>
      </trkpt>
      <trkpt lat="51.05294" lon="2.45197">
        <ele>4.6</ele>
        <time>2020-06-23T11:16:59Z</time>
      </trkpt>
      <trkpt lat="51.05296" lon="2.45206">
        <ele>4.6</ele>
        <time>2020-06-23T11:17:00Z</time>
      </trkpt>
      <trkpt lat="51.05298" lon="2.45214">
        <ele>4.7</ele>
        <time>2020-06-23T11:17:01Z</time>
      </trkpt>
      <trkpt lat="51.053" lon="2.45223">
        <ele>4.7</ele>
        <time>2020-06-23T11:17:02Z</time>
      </trkpt>
      <trkpt lat="51.05302" lon="2.45231">
        <ele>4.7</ele>
        <time>2020-06-23T11:17:03Z</time>
      </trkpt>
      <trkpt lat="51.05304" lon="2.4524">
        <ele>4.8</ele>
        <time>2020-06-23T11:17:04Z</time>
      </trkpt>
      <trkpt lat="51.05305" lon="2.45249">
        <ele>4.8</ele>
        <time>2020-06-23T11:17:05Z</time>
      </trkpt>
      <trkpt lat="51.05306" lon="2.45258">
        <ele>4.9</ele>
        <time>2020-06-23T11:17:06Z</time>
      </trkpt>
      <trkpt lat="51.05308" lon="2.45267">
        <ele>4.9</ele>
        <time>2020-06-23T11:17:07Z</time>
      </trkpt>
      <trkpt lat="51.05309" lon="2.45276">
        <ele>5</ele>
        <time>2020-06-23T11:17:08Z</time>
      </trkpt>
      <trkpt lat="51.05311" lon="2.45283">
        <ele>5</ele>
        <time>2020-06-23T11:17:09Z</time>
      </trkpt>
      <trkpt lat="51.05312" lon="2.45292">
        <ele>5.1</ele>
        <time>2020-06-23T11:17:10Z</time>
      </trkpt>
      <trkpt lat="51.05313" lon="2.45299">
        <ele>5.1</ele>
        <time>2020-06-23T11:17:11Z</time>
      </trkpt>
      <trkpt lat="51.05315" lon="2.45308">
        <ele>5.2</ele>
        <time>2020-06-23T11:17:12Z</time>
      </trkpt>
      <trkpt lat="51.05316" lon="2.45316">
        <ele>5.2</ele>
        <time>2020-06-23T11:17:13Z</time>
      </trkpt>
      <trkpt lat="51.05318" lon="2.45325">
        <ele>5.3</ele>
        <time>2020-06-23T11:17:14Z</time>
      </trkpt>
      <trkpt lat="51.0532" lon="2.45333">
        <ele>5.3</ele>
        <time>2020-06-23T11:17:15Z</time>
      </trkpt>
      <trkpt lat="51.05321" lon="2.45343">
        <ele>5.6</ele>
        <time>2020-06-23T11:17:16Z</time>
      </trkpt>
      <trkpt lat="51.05322" lon="2.45352">
        <ele>5.5</ele>
        <time>2020-06-23T11:17:17Z</time>
      </trkpt>
      <trkpt lat="51.05323" lon="2.45361">
        <ele>5.5</ele>
        <time>2020-06-23T11:17:18Z</time>
      </trkpt>
      <trkpt lat="51.05325" lon="2.45369">
        <ele>5.4</ele>
        <time>2020-06-23T11:17:19Z</time>
      </trkpt>
      <trkpt lat="51.05327" lon="2.45377">
        <ele>5.4</ele>
        <time>2020-06-23T11:17:20Z</time>
      </trkpt>
      <trkpt lat="51.05327" lon="2.45388">
        <ele>5.3</ele>
        <time>2020-06-23T11:17:21Z</time>
      </trkpt>
      <trkpt lat="51.05328" lon="2.45396">
        <ele>5.2</ele>
        <time>2020-06-23T11:17:22Z</time>
      </trkpt>
      <trkpt lat="51.05329" lon="2.45405">
        <ele>5.2</ele>
        <time>2020-06-23T11:17:23Z</time>
      </trkpt>
      <trkpt lat="51.0533" lon="2.45413">
        <ele>5.1</ele>
        <time>2020-06-23T11:17:24Z</time>
      </trkpt>
      <trkpt lat="51.05331" lon="2.45421">
        <ele>5.1</ele>
        <time>2020-06-23T11:17:25Z</time>
      </trkpt>
      <trkpt lat="51.05333" lon="2.45427">
        <ele>5</ele>
        <time>2020-06-23T11:17:26Z</time>
      </trkpt>
      <trkpt lat="51.05334" lon="2.45434">
        <ele>5</ele>
        <time>2020-06-23T11:17:27Z</time>
      </trkpt>
      <trkpt lat="51.05336" lon="2.45443">
        <ele>4.9</ele>
        <time>2020-06-23T11:17:28Z</time>
      </trkpt>
      <trkpt lat="51.05337" lon="2.4545">
        <ele>4.9</ele>
        <time>2020-06-23T11:17:29Z</time>
      </trkpt>
      <trkpt lat="51.05339" lon="2.45457">
        <ele>4.8</ele>
        <time>2020-06-23T11:17:30Z</time>
      </trkpt>
      <trkpt lat="51.05342" lon="2.4546">
        <ele>4.8</ele>
        <time>2020-06-23T11:17:31Z</time>
      </trkpt>
      <trkpt lat="51.05347" lon="2.45461">
        <ele>4.8</ele>
        <time>2020-06-23T11:17:32Z</time>
      </trkpt>
      <trkpt lat="51.05354" lon="2.45459">
        <ele>4.9</ele>
        <time>2020-06-23T11:17:33Z</time>
      </trkpt>
      <trkpt lat="51.05361" lon="2.4546">
        <ele>5</ele>
        <time>2020-06-23T11:17:34Z</time>
      </trkpt>
      <trkpt lat="51.05367" lon="2.45463">
        <ele>5</ele>
        <time>2020-06-23T11:17:35Z</time>
      </trkpt>
      <trkpt lat="51.05373" lon="2.45466">
        <ele>5.1</ele>
        <time>2020-06-23T11:17:36Z</time>
      </trkpt>
      <trkpt lat="51.05378" lon="2.4547">
        <ele>5.1</ele>
        <time>2020-06-23T11:17:37Z</time>
      </trkpt>
      <trkpt lat="51.05384" lon="2.45473">
        <ele>5.2</ele>
        <time>2020-06-23T11:17:38Z</time>
      </trkpt>
      <trkpt lat="51.05389" lon="2.45477">
        <ele>5.2</ele>
        <time>2020-06-23T11:17:39Z</time>
      </trkpt>
      <trkpt lat="51.05396" lon="2.45478">
        <ele>5.2</ele>
        <time>2020-06-23T11:17:40Z</time>
      </trkpt>
      <trkpt lat="51.05402" lon="2.4548">
        <ele>5.2</ele>
        <time>2020-06-23T11:17:41Z</time>
      </trkpt>
      <trkpt lat="51.05407" lon="2.45483">
        <ele>5.3</ele>
        <time>2020-06-23T11:17:42Z</time>
      </trkpt>
      <trkpt lat="51.05412" lon="2.45486">
        <ele>5.3</ele>
        <time>2020-06-23T11:17:43Z</time>
      </trkpt>
      <trkpt lat="51.05417" lon="2.45487">
        <ele>5.3</ele>
        <time>2020-06-23T11:17:44Z</time>
      </trkpt>
      <trkpt lat="51.05422" lon="2.45489">
        <ele>5.3</ele>
        <time>2020-06-23T11:17:45Z</time>
      </trkpt>
      <trkpt lat="51.05428" lon="2.45491">
        <ele>5.3</ele>
        <time>2020-06-23T11:17:46Z</time>
      </trkpt>
      <trkpt lat="51.05433" lon="2.45493">
        <ele>5.3</ele>
        <time>2020-06-23T11:17:47Z</time>
      </trkpt>
      <trkpt lat="51.05439" lon="2.45496">
        <ele>5.4</ele>
        <time>2020-06-23T11:17:48Z</time>
      </trkpt>
      <trkpt lat="51.05444" lon="2.45498">
        <ele>5.4</ele>
        <time>2020-06-23T11:17:49Z</time>
      </trkpt>
      <trkpt lat="51.0545" lon="2.455">
        <ele>5.4</ele>
        <time>2020-06-23T11:17:50Z</time>
      </trkpt>
      <trkpt lat="51.05457" lon="2.45503">
        <ele>5.4</ele>
        <time>2020-06-23T11:17:51Z</time>
      </trkpt>
      <trkpt lat="51.05462" lon="2.45506">
        <ele>5.5</ele>
        <time>2020-06-23T11:17:52Z</time>
      </trkpt>
      <trkpt lat="51.05467" lon="2.45508">
        <ele>5.5</ele>
        <time>2020-06-23T11:17:53Z</time>
      </trkpt>
      <trkpt lat="51.05472" lon="2.45511">
        <ele>5.5</ele>
        <time>2020-06-23T11:17:54Z</time>
      </trkpt>
      <trkpt lat="51.05477" lon="2.45515">
        <ele>5.5</ele>
        <time>2020-06-23T11:17:55Z</time>
      </trkpt>
      <trkpt lat="51.05482" lon="2.45518">
        <ele>5.5</ele>
        <time>2020-06-23T11:17:56Z</time>
      </trkpt>
      <trkpt lat="51.05486" lon="2.4552">
        <ele>5.5</ele>
        <time>2020-06-23T11:17:57Z</time>
      </trkpt>
      <trkpt lat="51.05491" lon="2.45523">
        <ele>5.5</ele>
        <time>2020-06-23T11:17:58Z</time>
      </trkpt>
      <trkpt lat="51.05495" lon="2.45525">
        <ele>5.5</ele>
        <time>2020-06-23T11:17:59Z</time>
      </trkpt>
      <trkpt lat="51.05501" lon="2.45528">
        <ele>5.6</ele>
        <time>2020-06-23T11:18:00Z</time>
      </trkpt>
      <trkpt lat="51.05507" lon="2.45531">
        <ele>5.6</ele>
        <time>2020-06-23T11:18:01Z</time>
      </trkpt>
      <trkpt lat="51.05512" lon="2.45534">
        <ele>5.6</ele>
        <time>2020-06-23T11:18:02Z</time>
      </trkpt>
      <trkpt lat="51.05518" lon="2.45537">
        <ele>5.7</ele>
        <time>2020-06-23T11:18:03Z</time>
      </trkpt>
      <trkpt lat="51.05524" lon="2.45541">
        <ele>5.7</ele>
        <time>2020-06-23T11:18:04Z</time>
      </trkpt>
      <trkpt lat="51.0553" lon="2.45543">
        <ele>5.7</ele>
        <time>2020-06-23T11:18:05Z</time>
      </trkpt>
      <trkpt lat="51.05535" lon="2.45545">
        <ele>5.7</ele>
        <time>2020-06-23T11:18:06Z</time>
      </trkpt>
      <trkpt lat="51.05539" lon="2.45547">
        <ele>5.7</ele>
        <time>2020-06-23T11:18:07Z</time>
      </trkpt>
      <trkpt lat="51.05544" lon="2.4555">
        <ele>5.7</ele>
        <time>2020-06-23T11:18:08Z</time>
      </trkpt>
      <trkpt lat="51.05548" lon="2.45552">
        <ele>5.7</ele>
        <time>2020-06-23T11:18:09Z</time>
      </trkpt>
      <trkpt lat="51.05552" lon="2.45555">
        <ele>5.7</ele>
        <time>2020-06-23T11:18:10Z</time>
      </trkpt>
      <trkpt lat="51.05557" lon="2.45556">
        <ele>5.7</ele>
        <time>2020-06-23T11:18:11Z</time>
      </trkpt>
      <trkpt lat="51.05561" lon="2.45559">
        <ele>5.6</ele>
        <time>2020-06-23T11:18:12Z</time>
      </trkpt>
      <trkpt lat="51.05567" lon="2.45561">
        <ele>5.6</ele>
        <time>2020-06-23T11:18:13Z</time>
      </trkpt>
      <trkpt lat="51.05574" lon="2.45565">
        <ele>5.6</ele>
        <time>2020-06-23T11:18:14Z</time>
      </trkpt>
      <trkpt lat="51.05579" lon="2.45569">
        <ele>5.5</ele>
        <time>2020-06-23T11:18:15Z</time>
      </trkpt>
      <trkpt lat="51.05583" lon="2.45575">
        <ele>5.5</ele>
        <time>2020-06-23T11:18:16Z</time>
      </trkpt>
      <trkpt lat="51.05586" lon="2.45584">
        <ele>5.5</ele>
        <time>2020-06-23T11:18:17Z</time>
      </trkpt>
      <trkpt lat="51.05587" lon="2.45593">
        <ele>5.5</ele>
        <time>2020-06-23T11:18:18Z</time>
      </trkpt>
      <trkpt lat="51.05588" lon="2.45603">
        <ele>5.4</ele>
        <time>2020-06-23T11:18:19Z</time>
      </trkpt>
      <trkpt lat="51.05588" lon="2.45613">
        <ele>5.4</ele>
        <time>2020-06-23T11:18:20Z</time>
      </trkpt>
      <trkpt lat="51.05589" lon="2.45621">
        <ele>5.4</ele>
        <time>2020-06-23T11:18:21Z</time>
      </trkpt>
      <trkpt lat="51.0559" lon="2.45629">
        <ele>5.3</ele>
        <time>2020-06-23T11:18:22Z</time>
      </trkpt>
      <trkpt lat="51.0559" lon="2.45636">
        <ele>5.3</ele>
        <time>2020-06-23T11:18:23Z</time>
      </trkpt>
      <trkpt lat="51.0559" lon="2.45643">
        <ele>5.2</ele>
        <time>2020-06-23T11:18:24Z</time>
      </trkpt>
      <trkpt lat="51.05591" lon="2.45649">
        <ele>5.2</ele>
        <time>2020-06-23T11:18:25Z</time>
      </trkpt>
      <trkpt lat="51.0559" lon="2.45659">
        <ele>5.2</ele>
        <time>2020-06-23T11:18:26Z</time>
      </trkpt>
      <trkpt lat="51.0559" lon="2.45668">
        <ele>5.1</ele>
        <time>2020-06-23T11:18:27Z</time>
      </trkpt>
      <trkpt lat="51.0559" lon="2.45677">
        <ele>5.1</ele>
        <time>2020-06-23T11:18:28Z</time>
      </trkpt>
      <trkpt lat="51.05591" lon="2.45685">
        <ele>5.1</ele>
        <time>2020-06-23T11:18:29Z</time>
      </trkpt>
      <trkpt lat="51.05591" lon="2.45695">
        <ele>5.1</ele>
        <time>2020-06-23T11:18:30Z</time>
      </trkpt>
      <trkpt lat="51.05591" lon="2.45704">
        <ele>5.1</ele>
        <time>2020-06-23T11:18:31Z</time>
      </trkpt>
      <trkpt lat="51.05593" lon="2.45714">
        <ele>5.1</ele>
        <time>2020-06-23T11:18:32Z</time>
      </trkpt>
      <trkpt lat="51.05594" lon="2.45723">
        <ele>5</ele>
        <time>2020-06-23T11:18:33Z</time>
      </trkpt>
      <trkpt lat="51.05595" lon="2.45732">
        <ele>5</ele>
        <time>2020-06-23T11:18:34Z</time>
      </trkpt>
      <trkpt lat="51.05596" lon="2.45742">
        <ele>5</ele>
        <time>2020-06-23T11:18:35Z</time>
      </trkpt>
      <trkpt lat="51.05596" lon="2.45751">
        <ele>5</ele>
        <time>2020-06-23T11:18:36Z</time>
      </trkpt>
      <trkpt lat="51.05597" lon="2.4576">
        <ele>5</ele>
        <time>2020-06-23T11:18:37Z</time>
      </trkpt>
      <trkpt lat="51.05597" lon="2.45768">
        <ele>4.9</ele>
        <time>2020-06-23T11:18:38Z</time>
      </trkpt>
      <trkpt lat="51.05598" lon="2.45777">
        <ele>4.9</ele>
        <time>2020-06-23T11:18:39Z</time>
      </trkpt>
      <trkpt lat="51.05599" lon="2.45785">
        <ele>4.9</ele>
        <time>2020-06-23T11:18:40Z</time>
      </trkpt>
      <trkpt lat="51.056" lon="2.45793">
        <ele>4.8</ele>
        <time>2020-06-23T11:18:41Z</time>
      </trkpt>
      <trkpt lat="51.05601" lon="2.45802">
        <ele>4.8</ele>
        <time>2020-06-23T11:18:42Z</time>
      </trkpt>
      <trkpt lat="51.05602" lon="2.45811">
        <ele>4.8</ele>
        <time>2020-06-23T11:18:43Z</time>
      </trkpt>
      <trkpt lat="51.05603" lon="2.45821">
        <ele>4.8</ele>
        <time>2020-06-23T11:18:44Z</time>
      </trkpt>
      <trkpt lat="51.05605" lon="2.45829">
        <ele>4.8</ele>
        <time>2020-06-23T11:18:45Z</time>
      </trkpt>
      <trkpt lat="51.05605" lon="2.45839">
        <ele>4.8</ele>
        <time>2020-06-23T11:18:46Z</time>
      </trkpt>
      <trkpt lat="51.05606" lon="2.45848">
        <ele>4.8</ele>
        <time>2020-06-23T11:18:47Z</time>
      </trkpt>
      <trkpt lat="51.05607" lon="2.45857">
        <ele>4.8</ele>
        <time>2020-06-23T11:18:48Z</time>
      </trkpt>
      <trkpt lat="51.05608" lon="2.45867">
        <ele>4.7</ele>
        <time>2020-06-23T11:18:49Z</time>
      </trkpt>
      <trkpt lat="51.05609" lon="2.45877">
        <ele>4.7</ele>
        <time>2020-06-23T11:18:50Z</time>
      </trkpt>
      <trkpt lat="51.0561" lon="2.45883">
        <ele>4.7</ele>
        <time>2020-06-23T11:18:51Z</time>
      </trkpt>
      <trkpt lat="51.05612" lon="2.45892">
        <ele>4.7</ele>
        <time>2020-06-23T11:18:52Z</time>
      </trkpt>
      <trkpt lat="51.05613" lon="2.45901">
        <ele>4.7</ele>
        <time>2020-06-23T11:18:53Z</time>
      </trkpt>
      <trkpt lat="51.05613" lon="2.45912">
        <ele>4.6</ele>
        <time>2020-06-23T11:18:54Z</time>
      </trkpt>
      <trkpt lat="51.05615" lon="2.4592">
        <ele>4.6</ele>
        <time>2020-06-23T11:18:55Z</time>
      </trkpt>
      <trkpt lat="51.05616" lon="2.45928">
        <ele>4.6</ele>
        <time>2020-06-23T11:18:56Z</time>
      </trkpt>
      <trkpt lat="51.05618" lon="2.45938">
        <ele>4.6</ele>
        <time>2020-06-23T11:18:57Z</time>
      </trkpt>
      <trkpt lat="51.05619" lon="2.45947">
        <ele>4.6</ele>
        <time>2020-06-23T11:18:58Z</time>
      </trkpt>
      <trkpt lat="51.05619" lon="2.45957">
        <ele>4.6</ele>
        <time>2020-06-23T11:18:59Z</time>
      </trkpt>
      <trkpt lat="51.0562" lon="2.45967">
        <ele>4.6</ele>
        <time>2020-06-23T11:19:00Z</time>
      </trkpt>
      <trkpt lat="51.05622" lon="2.45978">
        <ele>4.6</ele>
        <time>2020-06-23T11:19:01Z</time>
      </trkpt>
      <trkpt lat="51.05622" lon="2.45987">
        <ele>4.6</ele>
        <time>2020-06-23T11:19:02Z</time>
      </trkpt>
      <trkpt lat="51.05623" lon="2.45994">
        <ele>4.5</ele>
        <time>2020-06-23T11:19:03Z</time>
      </trkpt>
      <trkpt lat="51.05623" lon="2.46002">
        <ele>4.5</ele>
        <time>2020-06-23T11:19:04Z</time>
      </trkpt>
      <trkpt lat="51.05624" lon="2.46012">
        <ele>4.5</ele>
        <time>2020-06-23T11:19:05Z</time>
      </trkpt>
      <trkpt lat="51.05626" lon="2.46022">
        <ele>4.5</ele>
        <time>2020-06-23T11:19:06Z</time>
      </trkpt>
      <trkpt lat="51.05627" lon="2.46033">
        <ele>4.4</ele>
        <time>2020-06-23T11:19:07Z</time>
      </trkpt>
      <trkpt lat="51.05628" lon="2.46043">
        <ele>4.4</ele>
        <time>2020-06-23T11:19:08Z</time>
      </trkpt>
      <trkpt lat="51.05629" lon="2.46056">
        <ele>4.4</ele>
        <time>2020-06-23T11:19:09Z</time>
      </trkpt>
      <trkpt lat="51.05631" lon="2.46067">
        <ele>4.4</ele>
        <time>2020-06-23T11:19:10Z</time>
      </trkpt>
      <trkpt lat="51.05631" lon="2.46076">
        <ele>4.4</ele>
        <time>2020-06-23T11:19:11Z</time>
      </trkpt>
      <trkpt lat="51.05632" lon="2.46085">
        <ele>4.3</ele>
        <time>2020-06-23T11:19:12Z</time>
      </trkpt>
      <trkpt lat="51.05633" lon="2.46096">
        <ele>4.3</ele>
        <time>2020-06-23T11:19:13Z</time>
      </trkpt>
      <trkpt lat="51.05634" lon="2.46106">
        <ele>4.3</ele>
        <time>2020-06-23T11:19:14Z</time>
      </trkpt>
      <trkpt lat="51.05635" lon="2.46117">
        <ele>4.3</ele>
        <time>2020-06-23T11:19:15Z</time>
      </trkpt>
      <trkpt lat="51.05637" lon="2.46127">
        <ele>4.3</ele>
        <time>2020-06-23T11:19:16Z</time>
      </trkpt>
      <trkpt lat="51.05639" lon="2.46138">
        <ele>4.3</ele>
        <time>2020-06-23T11:19:17Z</time>
      </trkpt>
      <trkpt lat="51.0564" lon="2.46148">
        <ele>4.3</ele>
        <time>2020-06-23T11:19:18Z</time>
      </trkpt>
      <trkpt lat="51.05641" lon="2.46156">
        <ele>4.3</ele>
        <time>2020-06-23T11:19:19Z</time>
      </trkpt>
      <trkpt lat="51.05643" lon="2.46166">
        <ele>4.3</ele>
        <time>2020-06-23T11:19:20Z</time>
      </trkpt>
      <trkpt lat="51.05644" lon="2.46176">
        <ele>4.3</ele>
        <time>2020-06-23T11:19:21Z</time>
      </trkpt>
      <trkpt lat="51.05646" lon="2.46185">
        <ele>4.3</ele>
        <time>2020-06-23T11:19:22Z</time>
      </trkpt>
      <trkpt lat="51.05647" lon="2.46194">
        <ele>4.2</ele>
        <time>2020-06-23T11:19:23Z</time>
      </trkpt>
      <trkpt lat="51.05649" lon="2.46204">
        <ele>4.2</ele>
        <time>2020-06-23T11:19:24Z</time>
      </trkpt>
      <trkpt lat="51.05651" lon="2.46214">
        <ele>4.2</ele>
        <time>2020-06-23T11:19:25Z</time>
      </trkpt>
      <trkpt lat="51.05653" lon="2.46223">
        <ele>4.2</ele>
        <time>2020-06-23T11:19:26Z</time>
      </trkpt>
      <trkpt lat="51.05655" lon="2.46231">
        <ele>4.1</ele>
        <time>2020-06-23T11:19:27Z</time>
      </trkpt>
      <trkpt lat="51.05657" lon="2.46243">
        <ele>4.1</ele>
        <time>2020-06-23T11:19:28Z</time>
      </trkpt>
      <trkpt lat="51.05658" lon="2.46254">
        <ele>4.1</ele>
        <time>2020-06-23T11:19:29Z</time>
      </trkpt>
      <trkpt lat="51.0566" lon="2.46265">
        <ele>4</ele>
        <time>2020-06-23T11:19:30Z</time>
      </trkpt>
      <trkpt lat="51.05662" lon="2.46276">
        <ele>4.1</ele>
        <time>2020-06-23T11:19:31Z</time>
      </trkpt>
      <trkpt lat="51.05664" lon="2.46285">
        <ele>4.1</ele>
        <time>2020-06-23T11:19:32Z</time>
      </trkpt>
      <trkpt lat="51.05666" lon="2.46294">
        <ele>4.1</ele>
        <time>2020-06-23T11:19:33Z</time>
      </trkpt>
      <trkpt lat="51.05668" lon="2.46303">
        <ele>4.1</ele>
        <time>2020-06-23T11:19:34Z</time>
      </trkpt>
      <trkpt lat="51.0567" lon="2.46312">
        <ele>4.1</ele>
        <time>2020-06-23T11:19:35Z</time>
      </trkpt>
      <trkpt lat="51.05673" lon="2.46322">
        <ele>4.1</ele>
        <time>2020-06-23T11:19:36Z</time>
      </trkpt>
      <trkpt lat="51.05675" lon="2.46331">
        <ele>4.1</ele>
        <time>2020-06-23T11:19:37Z</time>
      </trkpt>
      <trkpt lat="51.05677" lon="2.46341">
        <ele>4.1</ele>
        <time>2020-06-23T11:19:38Z</time>
      </trkpt>
      <trkpt lat="51.05679" lon="2.46351">
        <ele>4.1</ele>
        <time>2020-06-23T11:19:39Z</time>
      </trkpt>
      <trkpt lat="51.05682" lon="2.4636">
        <ele>4.1</ele>
        <time>2020-06-23T11:19:40Z</time>
      </trkpt>
      <trkpt lat="51.05684" lon="2.4637">
        <ele>4.1</ele>
        <time>2020-06-23T11:19:41Z</time>
      </trkpt>
      <trkpt lat="51.05687" lon="2.4638">
        <ele>4.1</ele>
        <time>2020-06-23T11:19:42Z</time>
      </trkpt>
      <trkpt lat="51.05689" lon="2.46389">
        <ele>4.1</ele>
        <time>2020-06-23T11:19:43Z</time>
      </trkpt>
      <trkpt lat="51.05692" lon="2.46398">
        <ele>4.1</ele>
        <time>2020-06-23T11:19:44Z</time>
      </trkpt>
      <trkpt lat="51.05695" lon="2.46407">
        <ele>4.1</ele>
        <time>2020-06-23T11:19:45Z</time>
      </trkpt>
      <trkpt lat="51.05698" lon="2.46415">
        <ele>4.2</ele>
        <time>2020-06-23T11:19:46Z</time>
      </trkpt>
      <trkpt lat="51.05701" lon="2.46424">
        <ele>4.2</ele>
        <time>2020-06-23T11:19:47Z</time>
      </trkpt>
      <trkpt lat="51.05704" lon="2.46433">
        <ele>4.2</ele>
        <time>2020-06-23T11:19:48Z</time>
      </trkpt>
      <trkpt lat="51.05707" lon="2.46442">
        <ele>4.2</ele>
        <time>2020-06-23T11:19:49Z</time>
      </trkpt>
      <trkpt lat="51.0571" lon="2.46452">
        <ele>4.2</ele>
        <time>2020-06-23T11:19:50Z</time>
      </trkpt>
      <trkpt lat="51.05714" lon="2.46461">
        <ele>4.2</ele>
        <time>2020-06-23T11:19:51Z</time>
      </trkpt>
      <trkpt lat="51.05717" lon="2.46471">
        <ele>4.2</ele>
        <time>2020-06-23T11:19:52Z</time>
      </trkpt>
      <trkpt lat="51.0572" lon="2.46479">
        <ele>4.2</ele>
        <time>2020-06-23T11:19:53Z</time>
      </trkpt>
      <trkpt lat="51.05723" lon="2.46488">
        <ele>4.2</ele>
        <time>2020-06-23T11:19:54Z</time>
      </trkpt>
      <trkpt lat="51.05726" lon="2.46497">
        <ele>4.2</ele>
        <time>2020-06-23T11:19:55Z</time>
      </trkpt>
      <trkpt lat="51.0573" lon="2.46506">
        <ele>4.2</ele>
        <time>2020-06-23T11:19:56Z</time>
      </trkpt>
      <trkpt lat="51.05733" lon="2.46515">
        <ele>4.1</ele>
        <time>2020-06-23T11:19:57Z</time>
      </trkpt>
      <trkpt lat="51.05736" lon="2.46524">
        <ele>4.1</ele>
        <time>2020-06-23T11:19:58Z</time>
      </trkpt>
      <trkpt lat="51.0574" lon="2.46533">
        <ele>4.1</ele>
        <time>2020-06-23T11:19:59Z</time>
      </trkpt>
      <trkpt lat="51.05743" lon="2.46543">
        <ele>4.1</ele>
        <time>2020-06-23T11:20:00Z</time>
      </trkpt>
      <trkpt lat="51.05747" lon="2.46553">
        <ele>4.1</ele>
        <time>2020-06-23T11:20:01Z</time>
      </trkpt>
      <trkpt lat="51.0575" lon="2.46562">
        <ele>4.1</ele>
        <time>2020-06-23T11:20:02Z</time>
      </trkpt>
      <trkpt lat="51.05753" lon="2.46571">
        <ele>4.1</ele>
        <time>2020-06-23T11:20:03Z</time>
      </trkpt>
      <trkpt lat="51.05757" lon="2.4658">
        <ele>4.1</ele>
        <time>2020-06-23T11:20:04Z</time>
      </trkpt>
      <trkpt lat="51.0576" lon="2.46588">
        <ele>4.1</ele>
        <time>2020-06-23T11:20:05Z</time>
      </trkpt>
      <trkpt lat="51.05764" lon="2.46598">
        <ele>4.1</ele>
        <time>2020-06-23T11:20:06Z</time>
      </trkpt>
      <trkpt lat="51.05767" lon="2.46607">
        <ele>4.1</ele>
        <time>2020-06-23T11:20:07Z</time>
      </trkpt>
      <trkpt lat="51.0577" lon="2.46616">
        <ele>4.1</ele>
        <time>2020-06-23T11:20:08Z</time>
      </trkpt>
      <trkpt lat="51.05773" lon="2.46624">
        <ele>4.1</ele>
        <time>2020-06-23T11:20:09Z</time>
      </trkpt>
      <trkpt lat="51.05776" lon="2.46631">
        <ele>4.1</ele>
        <time>2020-06-23T11:20:10Z</time>
      </trkpt>
      <trkpt lat="51.05779" lon="2.46639">
        <ele>4.1</ele>
        <time>2020-06-23T11:20:11Z</time>
      </trkpt>
      <trkpt lat="51.05782" lon="2.46648">
        <ele>4.1</ele>
        <time>2020-06-23T11:20:12Z</time>
      </trkpt>
      <trkpt lat="51.05785" lon="2.46656">
        <ele>4.1</ele>
        <time>2020-06-23T11:20:13Z</time>
      </trkpt>
      <trkpt lat="51.05787" lon="2.46664">
        <ele>4.1</ele>
        <time>2020-06-23T11:20:14Z</time>
      </trkpt>
      <trkpt lat="51.0579" lon="2.46672">
        <ele>4.1</ele>
        <time>2020-06-23T11:20:15Z</time>
      </trkpt>
      <trkpt lat="51.05794" lon="2.46678">
        <ele>4.1</ele>
        <time>2020-06-23T11:20:16Z</time>
      </trkpt>
      <trkpt lat="51.05796" lon="2.46685">
        <ele>4.1</ele>
        <time>2020-06-23T11:20:17Z</time>
      </trkpt>
      <trkpt lat="51.05799" lon="2.46693">
        <ele>4.1</ele>
        <time>2020-06-23T11:20:18Z</time>
      </trkpt>
      <trkpt lat="51.05802" lon="2.46702">
        <ele>4.2</ele>
        <time>2020-06-23T11:20:19Z</time>
      </trkpt>
      <trkpt lat="51.05804" lon="2.4671">
        <ele>4.2</ele>
        <time>2020-06-23T11:20:20Z</time>
      </trkpt>
      <trkpt lat="51.05807" lon="2.46717">
        <ele>4.2</ele>
        <time>2020-06-23T11:20:21Z</time>
      </trkpt>
      <trkpt lat="51.0581" lon="2.46724">
        <ele>4.2</ele>
        <time>2020-06-23T11:20:22Z</time>
      </trkpt>
      <trkpt lat="51.05813" lon="2.46731">
        <ele>4.3</ele>
        <time>2020-06-23T11:20:23Z</time>
      </trkpt>
      <trkpt lat="51.05816" lon="2.46738">
        <ele>4.3</ele>
        <time>2020-06-23T11:20:24Z</time>
      </trkpt>
      <trkpt lat="51.05818" lon="2.46746">
        <ele>4.4</ele>
        <time>2020-06-23T11:20:25Z</time>
      </trkpt>
      <trkpt lat="51.0582" lon="2.46753">
        <ele>4.5</ele>
        <time>2020-06-23T11:20:26Z</time>
      </trkpt>
      <trkpt lat="51.05822" lon="2.46759">
        <ele>4.5</ele>
        <time>2020-06-23T11:20:27Z</time>
      </trkpt>
      <trkpt lat="51.05824" lon="2.46766">
        <ele>4.6</ele>
        <time>2020-06-23T11:20:28Z</time>
      </trkpt>
      <trkpt lat="51.05827" lon="2.46772">
        <ele>4.5</ele>
        <time>2020-06-23T11:20:29Z</time>
      </trkpt>
      <trkpt lat="51.05829" lon="2.46778">
        <ele>4.5</ele>
        <time>2020-06-23T11:20:30Z</time>
      </trkpt>
      <trkpt lat="51.05832" lon="2.46784">
        <ele>4.5</ele>
        <time>2020-06-23T11:20:31Z</time>
      </trkpt>
      <trkpt lat="51.05835" lon="2.4679">
        <ele>4.5</ele>
        <time>2020-06-23T11:20:32Z</time>
      </trkpt>
      <trkpt lat="51.05838" lon="2.46798">
        <ele>4.5</ele>
        <time>2020-06-23T11:20:33Z</time>
      </trkpt>
      <trkpt lat="51.0584" lon="2.46804">
        <ele>4.5</ele>
        <time>2020-06-23T11:20:34Z</time>
      </trkpt>
      <trkpt lat="51.05843" lon="2.4681">
        <ele>4.5</ele>
        <time>2020-06-23T11:20:35Z</time>
      </trkpt>
      <trkpt lat="51.05845" lon="2.46818">
        <ele>4.5</ele>
        <time>2020-06-23T11:20:36Z</time>
      </trkpt>
      <trkpt lat="51.05847" lon="2.46826">
        <ele>4.5</ele>
        <time>2020-06-23T11:20:37Z</time>
      </trkpt>
      <trkpt lat="51.05848" lon="2.46832">
        <ele>4.5</ele>
        <time>2020-06-23T11:20:38Z</time>
      </trkpt>
      <trkpt lat="51.05851" lon="2.46838">
        <ele>4.5</ele>
        <time>2020-06-23T11:20:39Z</time>
      </trkpt>
      <trkpt lat="51.05854" lon="2.46841">
        <ele>4.6</ele>
        <time>2020-06-23T11:20:40Z</time>
      </trkpt>
      <trkpt lat="51.05856" lon="2.46844">
        <ele>4.6</ele>
        <time>2020-06-23T11:20:41Z</time>
      </trkpt>
      <trkpt lat="51.05859" lon="2.46848">
        <ele>4.6</ele>
        <time>2020-06-23T11:20:42Z</time>
      </trkpt>
      <trkpt lat="51.05859" lon="2.46849">
        <ele>4.6</ele>
        <time>2020-06-23T11:20:43Z</time>
      </trkpt>
      <trkpt lat="51.05861" lon="2.4685">
        <ele>4.5</ele>
        <time>2020-06-23T11:20:44Z</time>
      </trkpt>
      <trkpt lat="51.05862" lon="2.46851">
        <ele>4.5</ele>
        <time>2020-06-23T11:20:45Z</time>
      </trkpt>
      <trkpt lat="51.05862" lon="2.46851">
        <ele>4.5</ele>
        <time>2020-06-23T11:20:46Z</time>
      </trkpt>
      <trkpt lat="51.05861" lon="2.46852">
        <ele>4.5</ele>
        <time>2020-06-23T11:20:47Z</time>
      </trkpt>
      <trkpt lat="51.05861" lon="2.4685">
        <ele>4.5</ele>
        <time>2020-06-23T11:20:48Z</time>
      </trkpt>
      <trkpt lat="51.05862" lon="2.46851">
        <ele>4.5</ele>
        <time>2020-06-23T11:20:49Z</time>
      </trkpt>
      <trkpt lat="51.05863" lon="2.46853">
        <ele>4.5</ele>
        <time>2020-06-23T11:20:50Z</time>
      </trkpt>
      <trkpt lat="51.05863" lon="2.46854">
        <ele>4.5</ele>
        <time>2020-06-23T11:20:51Z</time>
      </trkpt>
      <trkpt lat="51.05863" lon="2.46855">
        <ele>4.5</ele>
        <time>2020-06-23T11:20:52Z</time>
      </trkpt>
      <trkpt lat="51.05864" lon="2.46857">
        <ele>4.5</ele>
        <time>2020-06-23T11:20:53Z</time>
      </trkpt>
      <trkpt lat="51.05864" lon="2.46858">
        <ele>4.5</ele>
        <time>2020-06-23T11:20:54Z</time>
      </trkpt>
      <trkpt lat="51.05865" lon="2.46858">
        <ele>4.5</ele>
        <time>2020-06-23T11:20:55Z</time>
      </trkpt>
      <trkpt lat="51.05865" lon="2.46859">
        <ele>4.5</ele>
        <time>2020-06-23T11:20:56Z</time>
      </trkpt>
      <trkpt lat="51.05866" lon="2.4686">
        <ele>4.5</ele>
        <time>2020-06-23T11:20:57Z</time>
      </trkpt>
      <trkpt lat="51.05865" lon="2.46861">
        <ele>4.5</ele>
        <time>2020-06-23T11:20:58Z</time>
      </trkpt>
      <trkpt lat="51.05865" lon="2.46861">
        <ele>4.5</ele>
        <time>2020-06-23T11:20:59Z</time>
      </trkpt>
      <trkpt lat="51.05864" lon="2.46862">
        <ele>4.5</ele>
        <time>2020-06-23T11:21:00Z</time>
      </trkpt>
      <trkpt lat="51.05864" lon="2.46863">
        <ele>4.5</ele>
        <time>2020-06-23T11:21:01Z</time>
      </trkpt>
      <trkpt lat="51.05863" lon="2.46864">
        <ele>4.5</ele>
        <time>2020-06-23T11:21:02Z</time>
      </trkpt>
      <trkpt lat="51.05863" lon="2.46865">
        <ele>4.5</ele>
        <time>2020-06-23T11:21:03Z</time>
      </trkpt>
      <trkpt lat="51.05862" lon="2.46865">
        <ele>4.5</ele>
        <time>2020-06-23T11:21:04Z</time>
      </trkpt>
      <trkpt lat="51.05862" lon="2.46866">
        <ele>4.5</ele>
        <time>2020-06-23T11:21:05Z</time>
      </trkpt>
      <trkpt lat="51.05861" lon="2.46867">
        <ele>4.5</ele>
        <time>2020-06-23T11:21:06Z</time>
      </trkpt>
      <trkpt lat="51.05861" lon="2.46868">
        <ele>4.5</ele>
        <time>2020-06-23T11:21:07Z</time>
      </trkpt>
      <trkpt lat="51.0586" lon="2.46869">
        <ele>4.5</ele>
        <time>2020-06-23T11:21:08Z</time>
      </trkpt>
      <trkpt lat="51.0586" lon="2.46869">
        <ele>4.5</ele>
        <time>2020-06-23T11:21:09Z</time>
      </trkpt>
      <trkpt lat="51.05859" lon="2.4687">
        <ele>4.5</ele>
        <time>2020-06-23T11:21:25Z</time>
      </trkpt>
      <trkpt lat="51.05859" lon="2.46871">
        <ele>4.5</ele>
        <time>2020-06-23T11:21:26Z</time>
      </trkpt>
      <trkpt lat="51.05859" lon="2.46878">
        <ele>4.5</ele>
        <time>2020-06-23T11:21:27Z</time>
      </trkpt>
      <trkpt lat="51.05859" lon="2.46883">
        <ele>4.5</ele>
        <time>2020-06-23T11:21:28Z</time>
      </trkpt>
      <trkpt lat="51.05859" lon="2.4689">
        <ele>4.5</ele>
        <time>2020-06-23T11:21:29Z</time>
      </trkpt>
      <trkpt lat="51.0586" lon="2.46897">
        <ele>4.5</ele>
        <time>2020-06-23T11:21:30Z</time>
      </trkpt>
      <trkpt lat="51.0586" lon="2.46905">
        <ele>4.5</ele>
        <time>2020-06-23T11:21:31Z</time>
      </trkpt>
      <trkpt lat="51.0586" lon="2.46912">
        <ele>4.5</ele>
        <time>2020-06-23T11:21:32Z</time>
      </trkpt>
      <trkpt lat="51.05859" lon="2.4692">
        <ele>4.5</ele>
        <time>2020-06-23T11:21:33Z</time>
      </trkpt>
      <trkpt lat="51.05858" lon="2.46928">
        <ele>4.5</ele>
        <time>2020-06-23T11:21:34Z</time>
      </trkpt>
      <trkpt lat="51.05856" lon="2.46936">
        <ele>4.5</ele>
        <time>2020-06-23T11:21:35Z</time>
      </trkpt>
      <trkpt lat="51.05855" lon="2.46944">
        <ele>4.4</ele>
        <time>2020-06-23T11:21:36Z</time>
      </trkpt>
      <trkpt lat="51.05853" lon="2.46952">
        <ele>4.5</ele>
        <time>2020-06-23T11:21:37Z</time>
      </trkpt>
      <trkpt lat="51.0585" lon="2.4696">
        <ele>4.5</ele>
        <time>2020-06-23T11:21:38Z</time>
      </trkpt>
      <trkpt lat="51.05847" lon="2.46968">
        <ele>4.5</ele>
        <time>2020-06-23T11:21:39Z</time>
      </trkpt>
      <trkpt lat="51.05844" lon="2.46975">
        <ele>4.5</ele>
        <time>2020-06-23T11:21:40Z</time>
      </trkpt>
      <trkpt lat="51.0584" lon="2.46983">
        <ele>4.5</ele>
        <time>2020-06-23T11:21:41Z</time>
      </trkpt>
      <trkpt lat="51.05837" lon="2.46989">
        <ele>4.5</ele>
        <time>2020-06-23T11:21:42Z</time>
      </trkpt>
      <trkpt lat="51.05835" lon="2.46996">
        <ele>4.5</ele>
        <time>2020-06-23T11:21:43Z</time>
      </trkpt>
      <trkpt lat="51.05833" lon="2.47002">
        <ele>4.5</ele>
        <time>2020-06-23T11:21:44Z</time>
      </trkpt>
      <trkpt lat="51.05829" lon="2.47011">
        <ele>4.5</ele>
        <time>2020-06-23T11:21:45Z</time>
      </trkpt>
      <trkpt lat="51.05826" lon="2.47018">
        <ele>4.5</ele>
        <time>2020-06-23T11:21:46Z</time>
      </trkpt>
      <trkpt lat="51.05822" lon="2.47026">
        <ele>4.5</ele>
        <time>2020-06-23T11:21:47Z</time>
      </trkpt>
      <trkpt lat="51.05818" lon="2.47033">
        <ele>4.4</ele>
        <time>2020-06-23T11:21:48Z</time>
      </trkpt>
      <trkpt lat="51.05814" lon="2.47041">
        <ele>4.4</ele>
        <time>2020-06-23T11:21:49Z</time>
      </trkpt>
      <trkpt lat="51.05811" lon="2.47048">
        <ele>4.4</ele>
        <time>2020-06-23T11:21:50Z</time>
      </trkpt>
      <trkpt lat="51.05807" lon="2.47054">
        <ele>4.4</ele>
        <time>2020-06-23T11:21:51Z</time>
      </trkpt>
      <trkpt lat="51.05803" lon="2.4706">
        <ele>4.4</ele>
        <time>2020-06-23T11:21:52Z</time>
      </trkpt>
      <trkpt lat="51.05799" lon="2.47066">
        <ele>4.4</ele>
        <time>2020-06-23T11:21:53Z</time>
      </trkpt>
      <trkpt lat="51.05796" lon="2.47073">
        <ele>4.4</ele>
        <time>2020-06-23T11:21:54Z</time>
      </trkpt>
      <trkpt lat="51.05791" lon="2.4708">
        <ele>4.4</ele>
        <time>2020-06-23T11:21:55Z</time>
      </trkpt>
      <trkpt lat="51.05787" lon="2.47087">
        <ele>4.4</ele>
        <time>2020-06-23T11:21:56Z</time>
      </trkpt>
      <trkpt lat="51.05783" lon="2.47095">
        <ele>4.4</ele>
        <time>2020-06-23T11:21:57Z</time>
      </trkpt>
      <trkpt lat="51.05778" lon="2.47103">
        <ele>4.4</ele>
        <time>2020-06-23T11:21:58Z</time>
      </trkpt>
      <trkpt lat="51.05774" lon="2.47109">
        <ele>4.4</ele>
        <time>2020-06-23T11:21:59Z</time>
      </trkpt>
      <trkpt lat="51.05771" lon="2.47117">
        <ele>4.4</ele>
        <time>2020-06-23T11:22:00Z</time>
      </trkpt>
      <trkpt lat="51.05767" lon="2.47126">
        <ele>4.4</ele>
        <time>2020-06-23T11:22:01Z</time>
      </trkpt>
      <trkpt lat="51.05765" lon="2.47132">
        <ele>4.4</ele>
        <time>2020-06-23T11:22:02Z</time>
      </trkpt>
      <trkpt lat="51.05762" lon="2.47141">
        <ele>4.4</ele>
        <time>2020-06-23T11:22:03Z</time>
      </trkpt>
      <trkpt lat="51.05758" lon="2.4715">
        <ele>4.4</ele>
        <time>2020-06-23T11:22:04Z</time>
      </trkpt>
      <trkpt lat="51.05755" lon="2.47158">
        <ele>4.4</ele>
        <time>2020-06-23T11:22:05Z</time>
      </trkpt>
      <trkpt lat="51.05752" lon="2.47167">
        <ele>4.4</ele>
        <time>2020-06-23T11:22:06Z</time>
      </trkpt>
      <trkpt lat="51.0575" lon="2.47176">
        <ele>4.5</ele>
        <time>2020-06-23T11:22:07Z</time>
      </trkpt>
      <trkpt lat="51.05747" lon="2.47186">
        <ele>4.5</ele>
        <time>2020-06-23T11:22:08Z</time>
      </trkpt>
      <trkpt lat="51.05744" lon="2.47196">
        <ele>4.5</ele>
        <time>2020-06-23T11:22:09Z</time>
      </trkpt>
      <trkpt lat="51.05745" lon="2.47202">
        <ele>4.5</ele>
        <time>2020-06-23T11:22:10Z</time>
      </trkpt>
      <trkpt lat="51.05743" lon="2.47212">
        <ele>4.2</ele>
        <time>2020-06-23T11:22:11Z</time>
      </trkpt>
      <trkpt lat="51.05742" lon="2.4722">
        <ele>3.9</ele>
        <time>2020-06-23T11:22:12Z</time>
      </trkpt>
      <trkpt lat="51.05741" lon="2.4723">
        <ele>4.3</ele>
        <time>2020-06-23T11:22:13Z</time>
      </trkpt>
      <trkpt lat="51.05741" lon="2.47238">
        <ele>4.7</ele>
        <time>2020-06-23T11:22:14Z</time>
      </trkpt>
      <trkpt lat="51.05743" lon="2.47245">
        <ele>4.7</ele>
        <time>2020-06-23T11:22:15Z</time>
      </trkpt>
      <trkpt lat="51.05743" lon="2.47256">
        <ele>4.6</ele>
        <time>2020-06-23T11:22:16Z</time>
      </trkpt>
      <trkpt lat="51.05744" lon="2.47266">
        <ele>4.6</ele>
        <time>2020-06-23T11:22:17Z</time>
      </trkpt>
      <trkpt lat="51.05746" lon="2.47279">
        <ele>4.6</ele>
        <time>2020-06-23T11:22:18Z</time>
      </trkpt>
      <trkpt lat="51.05748" lon="2.47291">
        <ele>4.5</ele>
        <time>2020-06-23T11:22:19Z</time>
      </trkpt>
      <trkpt lat="51.05749" lon="2.47302">
        <ele>4.5</ele>
        <time>2020-06-23T11:22:20Z</time>
      </trkpt>
      <trkpt lat="51.05751" lon="2.47313">
        <ele>4.4</ele>
        <time>2020-06-23T11:22:21Z</time>
      </trkpt>
      <trkpt lat="51.05753" lon="2.47323">
        <ele>4.4</ele>
        <time>2020-06-23T11:22:22Z</time>
      </trkpt>
      <trkpt lat="51.05755" lon="2.47335">
        <ele>4.4</ele>
        <time>2020-06-23T11:22:23Z</time>
      </trkpt>
      <trkpt lat="51.05757" lon="2.47345">
        <ele>4.4</ele>
        <time>2020-06-23T11:22:24Z</time>
      </trkpt>
      <trkpt lat="51.05758" lon="2.47354">
        <ele>4.4</ele>
        <time>2020-06-23T11:22:25Z</time>
      </trkpt>
      <trkpt lat="51.0576" lon="2.47364">
        <ele>4.4</ele>
        <time>2020-06-23T11:22:26Z</time>
      </trkpt>
      <trkpt lat="51.05762" lon="2.47375">
        <ele>4.4</ele>
        <time>2020-06-23T11:22:27Z</time>
      </trkpt>
      <trkpt lat="51.05764" lon="2.47385">
        <ele>4.4</ele>
        <time>2020-06-23T11:22:28Z</time>
      </trkpt>
      <trkpt lat="51.05765" lon="2.47394">
        <ele>4.4</ele>
        <time>2020-06-23T11:22:29Z</time>
      </trkpt>
      <trkpt lat="51.05767" lon="2.47405">
        <ele>4.4</ele>
        <time>2020-06-23T11:22:30Z</time>
      </trkpt>
      <trkpt lat="51.05769" lon="2.47416">
        <ele>4.4</ele>
        <time>2020-06-23T11:22:31Z</time>
      </trkpt>
      <trkpt lat="51.05772" lon="2.47426">
        <ele>4.4</ele>
        <time>2020-06-23T11:22:32Z</time>
      </trkpt>
      <trkpt lat="51.05774" lon="2.47436">
        <ele>4.4</ele>
        <time>2020-06-23T11:22:33Z</time>
      </trkpt>
      <trkpt lat="51.05776" lon="2.47448">
        <ele>4.4</ele>
        <time>2020-06-23T11:22:34Z</time>
      </trkpt>
      <trkpt lat="51.05778" lon="2.47458">
        <ele>4.4</ele>
        <time>2020-06-23T11:22:35Z</time>
      </trkpt>
      <trkpt lat="51.05779" lon="2.47468">
        <ele>4.4</ele>
        <time>2020-06-23T11:22:36Z</time>
      </trkpt>
      <trkpt lat="51.05781" lon="2.47479">
        <ele>4.4</ele>
        <time>2020-06-23T11:22:37Z</time>
      </trkpt>
      <trkpt lat="51.05783" lon="2.47489">
        <ele>4.5</ele>
        <time>2020-06-23T11:22:38Z</time>
      </trkpt>
      <trkpt lat="51.05784" lon="2.47499">
        <ele>4.5</ele>
        <time>2020-06-23T11:22:39Z</time>
      </trkpt>
      <trkpt lat="51.05786" lon="2.47508">
        <ele>4.5</ele>
        <time>2020-06-23T11:22:40Z</time>
      </trkpt>
      <trkpt lat="51.05788" lon="2.47518">
        <ele>4.5</ele>
        <time>2020-06-23T11:22:41Z</time>
      </trkpt>
      <trkpt lat="51.0579" lon="2.47528">
        <ele>4.5</ele>
        <time>2020-06-23T11:22:42Z</time>
      </trkpt>
      <trkpt lat="51.05791" lon="2.47538">
        <ele>4.5</ele>
        <time>2020-06-23T11:22:43Z</time>
      </trkpt>
      <trkpt lat="51.05794" lon="2.47548">
        <ele>4.5</ele>
        <time>2020-06-23T11:22:44Z</time>
      </trkpt>
      <trkpt lat="51.05797" lon="2.47557">
        <ele>4.5</ele>
        <time>2020-06-23T11:22:45Z</time>
      </trkpt>
      <trkpt lat="51.05799" lon="2.47567">
        <ele>4.5</ele>
        <time>2020-06-23T11:22:46Z</time>
      </trkpt>
      <trkpt lat="51.058" lon="2.47577">
        <ele>4.5</ele>
        <time>2020-06-23T11:22:47Z</time>
      </trkpt>
      <trkpt lat="51.05802" lon="2.47588">
        <ele>4.5</ele>
        <time>2020-06-23T11:22:48Z</time>
      </trkpt>
      <trkpt lat="51.05804" lon="2.47597">
        <ele>4.5</ele>
        <time>2020-06-23T11:22:49Z</time>
      </trkpt>
      <trkpt lat="51.05807" lon="2.47607">
        <ele>4.5</ele>
        <time>2020-06-23T11:22:50Z</time>
      </trkpt>
      <trkpt lat="51.0581" lon="2.47618">
        <ele>4.5</ele>
        <time>2020-06-23T11:22:51Z</time>
      </trkpt>
      <trkpt lat="51.05813" lon="2.47628">
        <ele>4.4</ele>
        <time>2020-06-23T11:22:52Z</time>
      </trkpt>
      <trkpt lat="51.05815" lon="2.47638">
        <ele>4.4</ele>
        <time>2020-06-23T11:22:53Z</time>
      </trkpt>
      <trkpt lat="51.05817" lon="2.47649">
        <ele>4.5</ele>
        <time>2020-06-23T11:22:54Z</time>
      </trkpt>
      <trkpt lat="51.05819" lon="2.47658">
        <ele>4.5</ele>
        <time>2020-06-23T11:22:55Z</time>
      </trkpt>
      <trkpt lat="51.05822" lon="2.47667">
        <ele>4.5</ele>
        <time>2020-06-23T11:22:56Z</time>
      </trkpt>
      <trkpt lat="51.05824" lon="2.47677">
        <ele>4.5</ele>
        <time>2020-06-23T11:22:57Z</time>
      </trkpt>
      <trkpt lat="51.05826" lon="2.47686">
        <ele>4.5</ele>
        <time>2020-06-23T11:22:58Z</time>
      </trkpt>
      <trkpt lat="51.05829" lon="2.47695">
        <ele>4.5</ele>
        <time>2020-06-23T11:22:59Z</time>
      </trkpt>
      <trkpt lat="51.05831" lon="2.47705">
        <ele>4.6</ele>
        <time>2020-06-23T11:23:00Z</time>
      </trkpt>
      <trkpt lat="51.05833" lon="2.47714">
        <ele>4.6</ele>
        <time>2020-06-23T11:23:01Z</time>
      </trkpt>
      <trkpt lat="51.05835" lon="2.47722">
        <ele>4.7</ele>
        <time>2020-06-23T11:23:02Z</time>
      </trkpt>
      <trkpt lat="51.05838" lon="2.47731">
        <ele>4.8</ele>
        <time>2020-06-23T11:23:03Z</time>
      </trkpt>
      <trkpt lat="51.0584" lon="2.47741">
        <ele>4.8</ele>
        <time>2020-06-23T11:23:04Z</time>
      </trkpt>
      <trkpt lat="51.05844" lon="2.4775">
        <ele>4.8</ele>
        <time>2020-06-23T11:23:05Z</time>
      </trkpt>
      <trkpt lat="51.05847" lon="2.47759">
        <ele>4.8</ele>
        <time>2020-06-23T11:23:06Z</time>
      </trkpt>
      <trkpt lat="51.0585" lon="2.47767">
        <ele>4.8</ele>
        <time>2020-06-23T11:23:07Z</time>
      </trkpt>
      <trkpt lat="51.05854" lon="2.47774">
        <ele>4.9</ele>
        <time>2020-06-23T11:23:08Z</time>
      </trkpt>
      <trkpt lat="51.05857" lon="2.47783">
        <ele>4.9</ele>
        <time>2020-06-23T11:23:09Z</time>
      </trkpt>
      <trkpt lat="51.05861" lon="2.47792">
        <ele>4.9</ele>
        <time>2020-06-23T11:23:10Z</time>
      </trkpt>
      <trkpt lat="51.05865" lon="2.47801">
        <ele>4.9</ele>
        <time>2020-06-23T11:23:11Z</time>
      </trkpt>
      <trkpt lat="51.05869" lon="2.47809">
        <ele>4.9</ele>
        <time>2020-06-23T11:23:12Z</time>
      </trkpt>
      <trkpt lat="51.05874" lon="2.47818">
        <ele>4.9</ele>
        <time>2020-06-23T11:23:13Z</time>
      </trkpt>
      <trkpt lat="51.05878" lon="2.47826">
        <ele>4.9</ele>
        <time>2020-06-23T11:23:14Z</time>
      </trkpt>
      <trkpt lat="51.05882" lon="2.47835">
        <ele>4.9</ele>
        <time>2020-06-23T11:23:15Z</time>
      </trkpt>
      <trkpt lat="51.05886" lon="2.47843">
        <ele>4.9</ele>
        <time>2020-06-23T11:23:16Z</time>
      </trkpt>
      <trkpt lat="51.0589" lon="2.4785">
        <ele>4.9</ele>
        <time>2020-06-23T11:23:17Z</time>
      </trkpt>
      <trkpt lat="51.05894" lon="2.47857">
        <ele>4.9</ele>
        <time>2020-06-23T11:23:18Z</time>
      </trkpt>
      <trkpt lat="51.05899" lon="2.47864">
        <ele>5</ele>
        <time>2020-06-23T11:23:19Z</time>
      </trkpt>
      <trkpt lat="51.05903" lon="2.47871">
        <ele>5</ele>
        <time>2020-06-23T11:23:20Z</time>
      </trkpt>
      <trkpt lat="51.05906" lon="2.47879">
        <ele>5</ele>
        <time>2020-06-23T11:23:21Z</time>
      </trkpt>
      <trkpt lat="51.0591" lon="2.47887">
        <ele>5.1</ele>
        <time>2020-06-23T11:23:22Z</time>
      </trkpt>
      <trkpt lat="51.05914" lon="2.47894">
        <ele>5.1</ele>
        <time>2020-06-23T11:23:23Z</time>
      </trkpt>
      <trkpt lat="51.05918" lon="2.47902">
        <ele>5.1</ele>
        <time>2020-06-23T11:23:24Z</time>
      </trkpt>
      <trkpt lat="51.05922" lon="2.47911">
        <ele>5.1</ele>
        <time>2020-06-23T11:23:25Z</time>
      </trkpt>
      <trkpt lat="51.05926" lon="2.47919">
        <ele>5.1</ele>
        <time>2020-06-23T11:23:26Z</time>
      </trkpt>
      <trkpt lat="51.0593" lon="2.47929">
        <ele>5.1</ele>
        <time>2020-06-23T11:23:27Z</time>
      </trkpt>
      <trkpt lat="51.05935" lon="2.47937">
        <ele>5.1</ele>
        <time>2020-06-23T11:23:28Z</time>
      </trkpt>
      <trkpt lat="51.05939" lon="2.47945">
        <ele>5</ele>
        <time>2020-06-23T11:23:29Z</time>
      </trkpt>
      <trkpt lat="51.05943" lon="2.47953">
        <ele>5</ele>
        <time>2020-06-23T11:23:30Z</time>
      </trkpt>
      <trkpt lat="51.05946" lon="2.4796">
        <ele>5</ele>
        <time>2020-06-23T11:23:31Z</time>
      </trkpt>
      <trkpt lat="51.05949" lon="2.47969">
        <ele>5</ele>
        <time>2020-06-23T11:23:32Z</time>
      </trkpt>
      <trkpt lat="51.05952" lon="2.47978">
        <ele>5</ele>
        <time>2020-06-23T11:23:33Z</time>
      </trkpt>
      <trkpt lat="51.05955" lon="2.47985">
        <ele>5</ele>
        <time>2020-06-23T11:23:34Z</time>
      </trkpt>
      <trkpt lat="51.05958" lon="2.47993">
        <ele>4.9</ele>
        <time>2020-06-23T11:23:35Z</time>
      </trkpt>
      <trkpt lat="51.05961" lon="2.48001">
        <ele>4.9</ele>
        <time>2020-06-23T11:23:36Z</time>
      </trkpt>
      <trkpt lat="51.05965" lon="2.48011">
        <ele>4.9</ele>
        <time>2020-06-23T11:23:37Z</time>
      </trkpt>
      <trkpt lat="51.05969" lon="2.4802">
        <ele>4.9</ele>
        <time>2020-06-23T11:23:38Z</time>
      </trkpt>
      <trkpt lat="51.05972" lon="2.48031">
        <ele>4.9</ele>
        <time>2020-06-23T11:23:39Z</time>
      </trkpt>
      <trkpt lat="51.05975" lon="2.48041">
        <ele>4.9</ele>
        <time>2020-06-23T11:23:40Z</time>
      </trkpt>
      <trkpt lat="51.05978" lon="2.4805">
        <ele>4.9</ele>
        <time>2020-06-23T11:23:41Z</time>
      </trkpt>
      <trkpt lat="51.05981" lon="2.4806">
        <ele>5</ele>
        <time>2020-06-23T11:23:42Z</time>
      </trkpt>
      <trkpt lat="51.05984" lon="2.48071">
        <ele>5</ele>
        <time>2020-06-23T11:23:43Z</time>
      </trkpt>
      <trkpt lat="51.05986" lon="2.48081">
        <ele>5</ele>
        <time>2020-06-23T11:23:44Z</time>
      </trkpt>
      <trkpt lat="51.05988" lon="2.4809">
        <ele>5</ele>
        <time>2020-06-23T11:23:45Z</time>
      </trkpt>
      <trkpt lat="51.05991" lon="2.48098">
        <ele>5.1</ele>
        <time>2020-06-23T11:23:46Z</time>
      </trkpt>
      <trkpt lat="51.05993" lon="2.48106">
        <ele>5.1</ele>
        <time>2020-06-23T11:23:47Z</time>
      </trkpt>
      <trkpt lat="51.05996" lon="2.48114">
        <ele>5.1</ele>
        <time>2020-06-23T11:23:48Z</time>
      </trkpt>
      <trkpt lat="51.05998" lon="2.48122">
        <ele>5.1</ele>
        <time>2020-06-23T11:23:49Z</time>
      </trkpt>
      <trkpt lat="51.06001" lon="2.4813">
        <ele>5.1</ele>
        <time>2020-06-23T11:23:50Z</time>
      </trkpt>
      <trkpt lat="51.06005" lon="2.4814">
        <ele>5.1</ele>
        <time>2020-06-23T11:23:51Z</time>
      </trkpt>
      <trkpt lat="51.06008" lon="2.48148">
        <ele>5.1</ele>
        <time>2020-06-23T11:23:52Z</time>
      </trkpt>
      <trkpt lat="51.06011" lon="2.48157">
        <ele>5.1</ele>
        <time>2020-06-23T11:23:53Z</time>
      </trkpt>
      <trkpt lat="51.06015" lon="2.48166">
        <ele>5.1</ele>
        <time>2020-06-23T11:23:54Z</time>
      </trkpt>
      <trkpt lat="51.06019" lon="2.48174">
        <ele>5.2</ele>
        <time>2020-06-23T11:23:55Z</time>
      </trkpt>
      <trkpt lat="51.06023" lon="2.48183">
        <ele>5.3</ele>
        <time>2020-06-23T11:23:56Z</time>
      </trkpt>
      <trkpt lat="51.06026" lon="2.4819">
        <ele>5.2</ele>
        <time>2020-06-23T11:23:57Z</time>
      </trkpt>
      <trkpt lat="51.0603" lon="2.48198">
        <ele>5.2</ele>
        <time>2020-06-23T11:23:58Z</time>
      </trkpt>
      <trkpt lat="51.06033" lon="2.48205">
        <ele>5.2</ele>
        <time>2020-06-23T11:23:59Z</time>
      </trkpt>
      <trkpt lat="51.06037" lon="2.48213">
        <ele>5.2</ele>
        <time>2020-06-23T11:24:00Z</time>
      </trkpt>
      <trkpt lat="51.06041" lon="2.48221">
        <ele>5.2</ele>
        <time>2020-06-23T11:24:01Z</time>
      </trkpt>
      <trkpt lat="51.06044" lon="2.48229">
        <ele>5.2</ele>
        <time>2020-06-23T11:24:02Z</time>
      </trkpt>
      <trkpt lat="51.06048" lon="2.48237">
        <ele>5.2</ele>
        <time>2020-06-23T11:24:03Z</time>
      </trkpt>
      <trkpt lat="51.06052" lon="2.48244">
        <ele>5.3</ele>
        <time>2020-06-23T11:24:04Z</time>
      </trkpt>
      <trkpt lat="51.06055" lon="2.48251">
        <ele>5.3</ele>
        <time>2020-06-23T11:24:05Z</time>
      </trkpt>
      <trkpt lat="51.06059" lon="2.48258">
        <ele>5.4</ele>
        <time>2020-06-23T11:24:06Z</time>
      </trkpt>
      <trkpt lat="51.06063" lon="2.48266">
        <ele>5.4</ele>
        <time>2020-06-23T11:24:07Z</time>
      </trkpt>
      <trkpt lat="51.06067" lon="2.48274">
        <ele>5.4</ele>
        <time>2020-06-23T11:24:08Z</time>
      </trkpt>
      <trkpt lat="51.06071" lon="2.48281">
        <ele>5.5</ele>
        <time>2020-06-23T11:24:09Z</time>
      </trkpt>
      <trkpt lat="51.06074" lon="2.48289">
        <ele>5.5</ele>
        <time>2020-06-23T11:24:10Z</time>
      </trkpt>
      <trkpt lat="51.06078" lon="2.48297">
        <ele>5.5</ele>
        <time>2020-06-23T11:24:11Z</time>
      </trkpt>
      <trkpt lat="51.06082" lon="2.48305">
        <ele>5.6</ele>
        <time>2020-06-23T11:24:12Z</time>
      </trkpt>
      <trkpt lat="51.06085" lon="2.48312">
        <ele>5.6</ele>
        <time>2020-06-23T11:24:13Z</time>
      </trkpt>
      <trkpt lat="51.06089" lon="2.48319">
        <ele>5.7</ele>
        <time>2020-06-23T11:24:14Z</time>
      </trkpt>
      <trkpt lat="51.06093" lon="2.48327">
        <ele>5.7</ele>
        <time>2020-06-23T11:24:15Z</time>
      </trkpt>
      <trkpt lat="51.06097" lon="2.48335">
        <ele>5.8</ele>
        <time>2020-06-23T11:24:16Z</time>
      </trkpt>
      <trkpt lat="51.06102" lon="2.48345">
        <ele>5.9</ele>
        <time>2020-06-23T11:24:17Z</time>
      </trkpt>
      <trkpt lat="51.06106" lon="2.48352">
        <ele>5.9</ele>
        <time>2020-06-23T11:24:18Z</time>
      </trkpt>
      <trkpt lat="51.0611" lon="2.4836">
        <ele>5.8</ele>
        <time>2020-06-23T11:24:19Z</time>
      </trkpt>
      <trkpt lat="51.06114" lon="2.48366">
        <ele>5.8</ele>
        <time>2020-06-23T11:24:20Z</time>
      </trkpt>
      <trkpt lat="51.06118" lon="2.48374">
        <ele>5.8</ele>
        <time>2020-06-23T11:24:21Z</time>
      </trkpt>
      <trkpt lat="51.06121" lon="2.48382">
        <ele>5.8</ele>
        <time>2020-06-23T11:24:22Z</time>
      </trkpt>
      <trkpt lat="51.06125" lon="2.48391">
        <ele>5.8</ele>
        <time>2020-06-23T11:24:23Z</time>
      </trkpt>
      <trkpt lat="51.06129" lon="2.48397">
        <ele>5.8</ele>
        <time>2020-06-23T11:24:24Z</time>
      </trkpt>
      <trkpt lat="51.06132" lon="2.48404">
        <ele>5.9</ele>
        <time>2020-06-23T11:24:25Z</time>
      </trkpt>
      <trkpt lat="51.06135" lon="2.48409">
        <ele>5.9</ele>
        <time>2020-06-23T11:24:26Z</time>
      </trkpt>
      <trkpt lat="51.06139" lon="2.48417">
        <ele>5.9</ele>
        <time>2020-06-23T11:24:27Z</time>
      </trkpt>
      <trkpt lat="51.06143" lon="2.48425">
        <ele>5.9</ele>
        <time>2020-06-23T11:24:28Z</time>
      </trkpt>
      <trkpt lat="51.06147" lon="2.48433">
        <ele>5.8</ele>
        <time>2020-06-23T11:24:29Z</time>
      </trkpt>
      <trkpt lat="51.06151" lon="2.48439">
        <ele>5.8</ele>
        <time>2020-06-23T11:24:30Z</time>
      </trkpt>
      <trkpt lat="51.06153" lon="2.48446">
        <ele>5.8</ele>
        <time>2020-06-23T11:24:31Z</time>
      </trkpt>
      <trkpt lat="51.06157" lon="2.48453">
        <ele>5.8</ele>
        <time>2020-06-23T11:24:32Z</time>
      </trkpt>
      <trkpt lat="51.0616" lon="2.48461">
        <ele>5.8</ele>
        <time>2020-06-23T11:24:33Z</time>
      </trkpt>
      <trkpt lat="51.06163" lon="2.4847">
        <ele>5.8</ele>
        <time>2020-06-23T11:24:34Z</time>
      </trkpt>
      <trkpt lat="51.06166" lon="2.48478">
        <ele>5.8</ele>
        <time>2020-06-23T11:24:35Z</time>
      </trkpt>
      <trkpt lat="51.06169" lon="2.48485">
        <ele>5.7</ele>
        <time>2020-06-23T11:24:36Z</time>
      </trkpt>
      <trkpt lat="51.06172" lon="2.48494">
        <ele>5.7</ele>
        <time>2020-06-23T11:24:37Z</time>
      </trkpt>
      <trkpt lat="51.06175" lon="2.48503">
        <ele>5.7</ele>
        <time>2020-06-23T11:24:38Z</time>
      </trkpt>
      <trkpt lat="51.06179" lon="2.48513">
        <ele>5.7</ele>
        <time>2020-06-23T11:24:39Z</time>
      </trkpt>
      <trkpt lat="51.06182" lon="2.48523">
        <ele>5.6</ele>
        <time>2020-06-23T11:24:40Z</time>
      </trkpt>
      <trkpt lat="51.06185" lon="2.48532">
        <ele>5.6</ele>
        <time>2020-06-23T11:24:41Z</time>
      </trkpt>
      <trkpt lat="51.06187" lon="2.48541">
        <ele>5.5</ele>
        <time>2020-06-23T11:24:42Z</time>
      </trkpt>
      <trkpt lat="51.0619" lon="2.4855">
        <ele>5.5</ele>
        <time>2020-06-23T11:24:43Z</time>
      </trkpt>
      <trkpt lat="51.06194" lon="2.4856">
        <ele>5.4</ele>
        <time>2020-06-23T11:24:44Z</time>
      </trkpt>
      <trkpt lat="51.06197" lon="2.48569">
        <ele>5.3</ele>
        <time>2020-06-23T11:24:45Z</time>
      </trkpt>
      <trkpt lat="51.06201" lon="2.48579">
        <ele>5.3</ele>
        <time>2020-06-23T11:24:46Z</time>
      </trkpt>
      <trkpt lat="51.06203" lon="2.48588">
        <ele>5.2</ele>
        <time>2020-06-23T11:24:47Z</time>
      </trkpt>
      <trkpt lat="51.06207" lon="2.48597">
        <ele>5.2</ele>
        <time>2020-06-23T11:24:48Z</time>
      </trkpt>
      <trkpt lat="51.06209" lon="2.48605">
        <ele>5.1</ele>
        <time>2020-06-23T11:24:49Z</time>
      </trkpt>
      <trkpt lat="51.06212" lon="2.48613">
        <ele>5.1</ele>
        <time>2020-06-23T11:24:50Z</time>
      </trkpt>
      <trkpt lat="51.06216" lon="2.48622">
        <ele>5.1</ele>
        <time>2020-06-23T11:24:51Z</time>
      </trkpt>
      <trkpt lat="51.06219" lon="2.48632">
        <ele>5</ele>
        <time>2020-06-23T11:24:52Z</time>
      </trkpt>
      <trkpt lat="51.06222" lon="2.4864">
        <ele>5</ele>
        <time>2020-06-23T11:24:53Z</time>
      </trkpt>
      <trkpt lat="51.06224" lon="2.48651">
        <ele>5</ele>
        <time>2020-06-23T11:24:54Z</time>
      </trkpt>
      <trkpt lat="51.06227" lon="2.4866">
        <ele>5.1</ele>
        <time>2020-06-23T11:24:55Z</time>
      </trkpt>
      <trkpt lat="51.0623" lon="2.48668">
        <ele>5.1</ele>
        <time>2020-06-23T11:24:56Z</time>
      </trkpt>
      <trkpt lat="51.06233" lon="2.48676">
        <ele>5.2</ele>
        <time>2020-06-23T11:24:57Z</time>
      </trkpt>
      <trkpt lat="51.06237" lon="2.48683">
        <ele>5.2</ele>
        <time>2020-06-23T11:24:58Z</time>
      </trkpt>
      <trkpt lat="51.06241" lon="2.48689">
        <ele>5.3</ele>
        <time>2020-06-23T11:24:59Z</time>
      </trkpt>
      <trkpt lat="51.06245" lon="2.48695">
        <ele>5.4</ele>
        <time>2020-06-23T11:25:00Z</time>
      </trkpt>
      <trkpt lat="51.06249" lon="2.48701">
        <ele>5.3</ele>
        <time>2020-06-23T11:25:01Z</time>
      </trkpt>
      <trkpt lat="51.06253" lon="2.48708">
        <ele>5.3</ele>
        <time>2020-06-23T11:25:02Z</time>
      </trkpt>
      <trkpt lat="51.06257" lon="2.48715">
        <ele>5.2</ele>
        <time>2020-06-23T11:25:03Z</time>
      </trkpt>
      <trkpt lat="51.06261" lon="2.48721">
        <ele>5.2</ele>
        <time>2020-06-23T11:25:04Z</time>
      </trkpt>
      <trkpt lat="51.06266" lon="2.48727">
        <ele>5.2</ele>
        <time>2020-06-23T11:25:05Z</time>
      </trkpt>
      <trkpt lat="51.0627" lon="2.48732">
        <ele>5.2</ele>
        <time>2020-06-23T11:25:06Z</time>
      </trkpt>
      <trkpt lat="51.06276" lon="2.48737">
        <ele>5.2</ele>
        <time>2020-06-23T11:25:07Z</time>
      </trkpt>
      <trkpt lat="51.06282" lon="2.48743">
        <ele>5.2</ele>
        <time>2020-06-23T11:25:08Z</time>
      </trkpt>
      <trkpt lat="51.06287" lon="2.48749">
        <ele>5.2</ele>
        <time>2020-06-23T11:25:09Z</time>
      </trkpt>
      <trkpt lat="51.06293" lon="2.48755">
        <ele>5.2</ele>
        <time>2020-06-23T11:25:10Z</time>
      </trkpt>
      <trkpt lat="51.06297" lon="2.4876">
        <ele>5.2</ele>
        <time>2020-06-23T11:25:11Z</time>
      </trkpt>
      <trkpt lat="51.06302" lon="2.48765">
        <ele>5.2</ele>
        <time>2020-06-23T11:25:12Z</time>
      </trkpt>
      <trkpt lat="51.06306" lon="2.48771">
        <ele>5.2</ele>
        <time>2020-06-23T11:25:13Z</time>
      </trkpt>
      <trkpt lat="51.06312" lon="2.48777">
        <ele>5.2</ele>
        <time>2020-06-23T11:25:14Z</time>
      </trkpt>
      <trkpt lat="51.06316" lon="2.48783">
        <ele>5.2</ele>
        <time>2020-06-23T11:25:15Z</time>
      </trkpt>
      <trkpt lat="51.0632" lon="2.48789">
        <ele>5.1</ele>
        <time>2020-06-23T11:25:16Z</time>
      </trkpt>
      <trkpt lat="51.06324" lon="2.48797">
        <ele>5</ele>
        <time>2020-06-23T11:25:17Z</time>
      </trkpt>
      <trkpt lat="51.06327" lon="2.48804">
        <ele>4.9</ele>
        <time>2020-06-23T11:25:18Z</time>
      </trkpt>
      <trkpt lat="51.06331" lon="2.48812">
        <ele>4.8</ele>
        <time>2020-06-23T11:25:19Z</time>
      </trkpt>
      <trkpt lat="51.06335" lon="2.4882">
        <ele>4.7</ele>
        <time>2020-06-23T11:25:20Z</time>
      </trkpt>
      <trkpt lat="51.06338" lon="2.48827">
        <ele>4.6</ele>
        <time>2020-06-23T11:25:21Z</time>
      </trkpt>
      <trkpt lat="51.06342" lon="2.48835">
        <ele>4.5</ele>
        <time>2020-06-23T11:25:22Z</time>
      </trkpt>
      <trkpt lat="51.06347" lon="2.48844">
        <ele>4.4</ele>
        <time>2020-06-23T11:25:23Z</time>
      </trkpt>
      <trkpt lat="51.06351" lon="2.48853">
        <ele>4.2</ele>
        <time>2020-06-23T11:25:24Z</time>
      </trkpt>
      <trkpt lat="51.06355" lon="2.48862">
        <ele>4.1</ele>
        <time>2020-06-23T11:25:25Z</time>
      </trkpt>
      <trkpt lat="51.06359" lon="2.48872">
        <ele>4</ele>
        <time>2020-06-23T11:25:26Z</time>
      </trkpt>
      <trkpt lat="51.06363" lon="2.48881">
        <ele>3.9</ele>
        <time>2020-06-23T11:25:27Z</time>
      </trkpt>
      <trkpt lat="51.06368" lon="2.4889">
        <ele>3.9</ele>
        <time>2020-06-23T11:25:28Z</time>
      </trkpt>
      <trkpt lat="51.06372" lon="2.48899">
        <ele>3.8</ele>
        <time>2020-06-23T11:25:29Z</time>
      </trkpt>
      <trkpt lat="51.06376" lon="2.48908">
        <ele>3.7</ele>
        <time>2020-06-23T11:25:30Z</time>
      </trkpt>
      <trkpt lat="51.0638" lon="2.48917">
        <ele>3.7</ele>
        <time>2020-06-23T11:25:31Z</time>
      </trkpt>
      <trkpt lat="51.06385" lon="2.48925">
        <ele>3.7</ele>
        <time>2020-06-23T11:25:32Z</time>
      </trkpt>
      <trkpt lat="51.06388" lon="2.48934">
        <ele>3.7</ele>
        <time>2020-06-23T11:25:33Z</time>
      </trkpt>
      <trkpt lat="51.06391" lon="2.48943">
        <ele>3.8</ele>
        <time>2020-06-23T11:25:34Z</time>
      </trkpt>
      <trkpt lat="51.06395" lon="2.48951">
        <ele>3.8</ele>
        <time>2020-06-23T11:25:35Z</time>
      </trkpt>
      <trkpt lat="51.06398" lon="2.48959">
        <ele>3.9</ele>
        <time>2020-06-23T11:25:36Z</time>
      </trkpt>
      <trkpt lat="51.06401" lon="2.48965">
        <ele>4</ele>
        <time>2020-06-23T11:25:37Z</time>
      </trkpt>
      <trkpt lat="51.06404" lon="2.48971">
        <ele>4</ele>
        <time>2020-06-23T11:25:38Z</time>
      </trkpt>
      <trkpt lat="51.06408" lon="2.48978">
        <ele>4.1</ele>
        <time>2020-06-23T11:25:39Z</time>
      </trkpt>
      <trkpt lat="51.06411" lon="2.48985">
        <ele>4.2</ele>
        <time>2020-06-23T11:25:40Z</time>
      </trkpt>
      <trkpt lat="51.06413" lon="2.48992">
        <ele>4.2</ele>
        <time>2020-06-23T11:25:41Z</time>
      </trkpt>
      <trkpt lat="51.06416" lon="2.48997">
        <ele>4.3</ele>
        <time>2020-06-23T11:25:42Z</time>
      </trkpt>
      <trkpt lat="51.06419" lon="2.49002">
        <ele>4.1</ele>
        <time>2020-06-23T11:25:43Z</time>
      </trkpt>
      <trkpt lat="51.06422" lon="2.49007">
        <ele>4.1</ele>
        <time>2020-06-23T11:25:44Z</time>
      </trkpt>
      <trkpt lat="51.06425" lon="2.49011">
        <ele>4</ele>
        <time>2020-06-23T11:25:45Z</time>
      </trkpt>
      <trkpt lat="51.06428" lon="2.49016">
        <ele>3.9</ele>
        <time>2020-06-23T11:25:46Z</time>
      </trkpt>
      <trkpt lat="51.0643" lon="2.49021">
        <ele>3.8</ele>
        <time>2020-06-23T11:25:47Z</time>
      </trkpt>
      <trkpt lat="51.06433" lon="2.49027">
        <ele>3.8</ele>
        <time>2020-06-23T11:25:48Z</time>
      </trkpt>
      <trkpt lat="51.06436" lon="2.49032">
        <ele>3.7</ele>
        <time>2020-06-23T11:25:49Z</time>
      </trkpt>
      <trkpt lat="51.06438" lon="2.49037">
        <ele>3.6</ele>
        <time>2020-06-23T11:25:50Z</time>
      </trkpt>
      <trkpt lat="51.06441" lon="2.49042">
        <ele>3.6</ele>
        <time>2020-06-23T11:25:51Z</time>
      </trkpt>
      <trkpt lat="51.06444" lon="2.49048">
        <ele>3.5</ele>
        <time>2020-06-23T11:25:52Z</time>
      </trkpt>
      <trkpt lat="51.06447" lon="2.49054">
        <ele>3.5</ele>
        <time>2020-06-23T11:25:53Z</time>
      </trkpt>
      <trkpt lat="51.06449" lon="2.4906">
        <ele>3.4</ele>
        <time>2020-06-23T11:25:54Z</time>
      </trkpt>
      <trkpt lat="51.06452" lon="2.49066">
        <ele>3.4</ele>
        <time>2020-06-23T11:25:55Z</time>
      </trkpt>
      <trkpt lat="51.06455" lon="2.49073">
        <ele>3.3</ele>
        <time>2020-06-23T11:25:56Z</time>
      </trkpt>
      <trkpt lat="51.06459" lon="2.49079">
        <ele>3.3</ele>
        <time>2020-06-23T11:25:57Z</time>
      </trkpt>
      <trkpt lat="51.06462" lon="2.49085">
        <ele>3.3</ele>
        <time>2020-06-23T11:25:58Z</time>
      </trkpt>
      <trkpt lat="51.06466" lon="2.49092">
        <ele>3.2</ele>
        <time>2020-06-23T11:25:59Z</time>
      </trkpt>
      <trkpt lat="51.06469" lon="2.491">
        <ele>3.2</ele>
        <time>2020-06-23T11:26:00Z</time>
      </trkpt>
      <trkpt lat="51.06472" lon="2.49107">
        <ele>3.1</ele>
        <time>2020-06-23T11:26:01Z</time>
      </trkpt>
      <trkpt lat="51.06476" lon="2.49115">
        <ele>3.1</ele>
        <time>2020-06-23T11:26:02Z</time>
      </trkpt>
      <trkpt lat="51.06479" lon="2.49122">
        <ele>3.1</ele>
        <time>2020-06-23T11:26:03Z</time>
      </trkpt>
      <trkpt lat="51.06483" lon="2.49129">
        <ele>3.1</ele>
        <time>2020-06-23T11:26:04Z</time>
      </trkpt>
      <trkpt lat="51.06486" lon="2.49136">
        <ele>3.1</ele>
        <time>2020-06-23T11:26:05Z</time>
      </trkpt>
      <trkpt lat="51.0649" lon="2.49143">
        <ele>3.1</ele>
        <time>2020-06-23T11:26:06Z</time>
      </trkpt>
      <trkpt lat="51.06493" lon="2.4915">
        <ele>3</ele>
        <time>2020-06-23T11:26:07Z</time>
      </trkpt>
      <trkpt lat="51.06496" lon="2.49157">
        <ele>3</ele>
        <time>2020-06-23T11:26:08Z</time>
      </trkpt>
      <trkpt lat="51.06499" lon="2.49165">
        <ele>3</ele>
        <time>2020-06-23T11:26:09Z</time>
      </trkpt>
      <trkpt lat="51.06502" lon="2.49173">
        <ele>2.9</ele>
        <time>2020-06-23T11:26:10Z</time>
      </trkpt>
      <trkpt lat="51.06505" lon="2.49181">
        <ele>2.9</ele>
        <time>2020-06-23T11:26:11Z</time>
      </trkpt>
      <trkpt lat="51.06507" lon="2.49189">
        <ele>2.9</ele>
        <time>2020-06-23T11:26:12Z</time>
      </trkpt>
      <trkpt lat="51.0651" lon="2.49197">
        <ele>2.9</ele>
        <time>2020-06-23T11:26:13Z</time>
      </trkpt>
      <trkpt lat="51.06513" lon="2.49205">
        <ele>2.8</ele>
        <time>2020-06-23T11:26:14Z</time>
      </trkpt>
      <trkpt lat="51.06517" lon="2.49212">
        <ele>2.8</ele>
        <time>2020-06-23T11:26:15Z</time>
      </trkpt>
      <trkpt lat="51.0652" lon="2.4922">
        <ele>2.8</ele>
        <time>2020-06-23T11:26:16Z</time>
      </trkpt>
      <trkpt lat="51.06522" lon="2.49228">
        <ele>2.8</ele>
        <time>2020-06-23T11:26:17Z</time>
      </trkpt>
      <trkpt lat="51.06524" lon="2.49236">
        <ele>2.7</ele>
        <time>2020-06-23T11:26:18Z</time>
      </trkpt>
      <trkpt lat="51.06527" lon="2.49244">
        <ele>2.7</ele>
        <time>2020-06-23T11:26:19Z</time>
      </trkpt>
      <trkpt lat="51.0653" lon="2.49253">
        <ele>2.7</ele>
        <time>2020-06-23T11:26:20Z</time>
      </trkpt>
      <trkpt lat="51.06533" lon="2.49261">
        <ele>2.7</ele>
        <time>2020-06-23T11:26:21Z</time>
      </trkpt>
      <trkpt lat="51.06536" lon="2.49269">
        <ele>2.7</ele>
        <time>2020-06-23T11:26:22Z</time>
      </trkpt>
      <trkpt lat="51.06539" lon="2.49278">
        <ele>2.8</ele>
        <time>2020-06-23T11:26:23Z</time>
      </trkpt>
      <trkpt lat="51.06541" lon="2.49288">
        <ele>2.8</ele>
        <time>2020-06-23T11:26:24Z</time>
      </trkpt>
      <trkpt lat="51.06544" lon="2.49297">
        <ele>2.8</ele>
        <time>2020-06-23T11:26:25Z</time>
      </trkpt>
      <trkpt lat="51.06547" lon="2.49306">
        <ele>2.8</ele>
        <time>2020-06-23T11:26:26Z</time>
      </trkpt>
      <trkpt lat="51.0655" lon="2.49315">
        <ele>2.9</ele>
        <time>2020-06-23T11:26:27Z</time>
      </trkpt>
      <trkpt lat="51.06554" lon="2.49324">
        <ele>2.9</ele>
        <time>2020-06-23T11:26:28Z</time>
      </trkpt>
      <trkpt lat="51.06557" lon="2.49334">
        <ele>2.9</ele>
        <time>2020-06-23T11:26:29Z</time>
      </trkpt>
      <trkpt lat="51.06561" lon="2.49344">
        <ele>2.9</ele>
        <time>2020-06-23T11:26:30Z</time>
      </trkpt>
      <trkpt lat="51.06565" lon="2.49353">
        <ele>2.9</ele>
        <time>2020-06-23T11:26:31Z</time>
      </trkpt>
      <trkpt lat="51.06568" lon="2.49362">
        <ele>2.8</ele>
        <time>2020-06-23T11:26:32Z</time>
      </trkpt>
      <trkpt lat="51.06572" lon="2.49372">
        <ele>2.7</ele>
        <time>2020-06-23T11:26:33Z</time>
      </trkpt>
      <trkpt lat="51.06575" lon="2.49381">
        <ele>2.6</ele>
        <time>2020-06-23T11:26:34Z</time>
      </trkpt>
      <trkpt lat="51.06579" lon="2.4939">
        <ele>2.6</ele>
        <time>2020-06-23T11:26:35Z</time>
      </trkpt>
      <trkpt lat="51.06582" lon="2.49398">
        <ele>2.6</ele>
        <time>2020-06-23T11:26:36Z</time>
      </trkpt>
      <trkpt lat="51.06586" lon="2.49408">
        <ele>2.6</ele>
        <time>2020-06-23T11:26:37Z</time>
      </trkpt>
      <trkpt lat="51.06589" lon="2.49417">
        <ele>2.6</ele>
        <time>2020-06-23T11:26:38Z</time>
      </trkpt>
      <trkpt lat="51.06593" lon="2.49425">
        <ele>2.6</ele>
        <time>2020-06-23T11:26:39Z</time>
      </trkpt>
      <trkpt lat="51.06596" lon="2.49434">
        <ele>2.7</ele>
        <time>2020-06-23T11:26:40Z</time>
      </trkpt>
      <trkpt lat="51.06598" lon="2.49444">
        <ele>2.7</ele>
        <time>2020-06-23T11:26:41Z</time>
      </trkpt>
      <trkpt lat="51.066" lon="2.49455">
        <ele>2.7</ele>
        <time>2020-06-23T11:26:42Z</time>
      </trkpt>
      <trkpt lat="51.06602" lon="2.49465">
        <ele>2.7</ele>
        <time>2020-06-23T11:26:43Z</time>
      </trkpt>
      <trkpt lat="51.06603" lon="2.49475">
        <ele>2.7</ele>
        <time>2020-06-23T11:26:44Z</time>
      </trkpt>
      <trkpt lat="51.06605" lon="2.49484">
        <ele>2.7</ele>
        <time>2020-06-23T11:26:45Z</time>
      </trkpt>
      <trkpt lat="51.06606" lon="2.49494">
        <ele>2.8</ele>
        <time>2020-06-23T11:26:46Z</time>
      </trkpt>
      <trkpt lat="51.06607" lon="2.49504">
        <ele>2.8</ele>
        <time>2020-06-23T11:26:47Z</time>
      </trkpt>
      <trkpt lat="51.06609" lon="2.49514">
        <ele>2.8</ele>
        <time>2020-06-23T11:26:48Z</time>
      </trkpt>
      <trkpt lat="51.0661" lon="2.49524">
        <ele>2.8</ele>
        <time>2020-06-23T11:26:49Z</time>
      </trkpt>
      <trkpt lat="51.06611" lon="2.49533">
        <ele>2.8</ele>
        <time>2020-06-23T11:26:50Z</time>
      </trkpt>
      <trkpt lat="51.06612" lon="2.49541">
        <ele>2.8</ele>
        <time>2020-06-23T11:26:51Z</time>
      </trkpt>
      <trkpt lat="51.06613" lon="2.4955">
        <ele>2.8</ele>
        <time>2020-06-23T11:26:52Z</time>
      </trkpt>
      <trkpt lat="51.06615" lon="2.49561">
        <ele>2.9</ele>
        <time>2020-06-23T11:26:53Z</time>
      </trkpt>
      <trkpt lat="51.06616" lon="2.4957">
        <ele>2.9</ele>
        <time>2020-06-23T11:26:54Z</time>
      </trkpt>
      <trkpt lat="51.06617" lon="2.49579">
        <ele>3</ele>
        <time>2020-06-23T11:26:55Z</time>
      </trkpt>
      <trkpt lat="51.06618" lon="2.49589">
        <ele>3</ele>
        <time>2020-06-23T11:26:56Z</time>
      </trkpt>
      <trkpt lat="51.0662" lon="2.49599">
        <ele>3</ele>
        <time>2020-06-23T11:26:57Z</time>
      </trkpt>
      <trkpt lat="51.06621" lon="2.4961">
        <ele>3</ele>
        <time>2020-06-23T11:26:58Z</time>
      </trkpt>
      <trkpt lat="51.06622" lon="2.49619">
        <ele>3</ele>
        <time>2020-06-23T11:26:59Z</time>
      </trkpt>
      <trkpt lat="51.06623" lon="2.49627">
        <ele>3</ele>
        <time>2020-06-23T11:27:00Z</time>
      </trkpt>
      <trkpt lat="51.06624" lon="2.49637">
        <ele>3</ele>
        <time>2020-06-23T11:27:01Z</time>
      </trkpt>
      <trkpt lat="51.06625" lon="2.49646">
        <ele>3</ele>
        <time>2020-06-23T11:27:02Z</time>
      </trkpt>
      <trkpt lat="51.06627" lon="2.49656">
        <ele>3</ele>
        <time>2020-06-23T11:27:03Z</time>
      </trkpt>
      <trkpt lat="51.06628" lon="2.49666">
        <ele>2.9</ele>
        <time>2020-06-23T11:27:04Z</time>
      </trkpt>
      <trkpt lat="51.06629" lon="2.49677">
        <ele>2.9</ele>
        <time>2020-06-23T11:27:05Z</time>
      </trkpt>
      <trkpt lat="51.06631" lon="2.49687">
        <ele>3</ele>
        <time>2020-06-23T11:27:06Z</time>
      </trkpt>
      <trkpt lat="51.06632" lon="2.49697">
        <ele>3</ele>
        <time>2020-06-23T11:27:07Z</time>
      </trkpt>
      <trkpt lat="51.06635" lon="2.49708">
        <ele>3</ele>
        <time>2020-06-23T11:27:08Z</time>
      </trkpt>
      <trkpt lat="51.06637" lon="2.49718">
        <ele>2.9</ele>
        <time>2020-06-23T11:27:09Z</time>
      </trkpt>
      <trkpt lat="51.06638" lon="2.49728">
        <ele>2.8</ele>
        <time>2020-06-23T11:27:10Z</time>
      </trkpt>
      <trkpt lat="51.0664" lon="2.49738">
        <ele>2.8</ele>
        <time>2020-06-23T11:27:11Z</time>
      </trkpt>
      <trkpt lat="51.06641" lon="2.49749">
        <ele>2.8</ele>
        <time>2020-06-23T11:27:12Z</time>
      </trkpt>
      <trkpt lat="51.06643" lon="2.49758">
        <ele>2.8</ele>
        <time>2020-06-23T11:27:13Z</time>
      </trkpt>
      <trkpt lat="51.06645" lon="2.49768">
        <ele>2.8</ele>
        <time>2020-06-23T11:27:14Z</time>
      </trkpt>
      <trkpt lat="51.06646" lon="2.49778">
        <ele>2.9</ele>
        <time>2020-06-23T11:27:15Z</time>
      </trkpt>
      <trkpt lat="51.06648" lon="2.49787">
        <ele>2.9</ele>
        <time>2020-06-23T11:27:16Z</time>
      </trkpt>
      <trkpt lat="51.06649" lon="2.49798">
        <ele>2.9</ele>
        <time>2020-06-23T11:27:17Z</time>
      </trkpt>
      <trkpt lat="51.06651" lon="2.49808">
        <ele>2.9</ele>
        <time>2020-06-23T11:27:18Z</time>
      </trkpt>
      <trkpt lat="51.06652" lon="2.49818">
        <ele>3</ele>
        <time>2020-06-23T11:27:19Z</time>
      </trkpt>
      <trkpt lat="51.06654" lon="2.49828">
        <ele>3</ele>
        <time>2020-06-23T11:27:20Z</time>
      </trkpt>
      <trkpt lat="51.06655" lon="2.49839">
        <ele>3</ele>
        <time>2020-06-23T11:27:21Z</time>
      </trkpt>
      <trkpt lat="51.06656" lon="2.49849">
        <ele>3</ele>
        <time>2020-06-23T11:27:22Z</time>
      </trkpt>
      <trkpt lat="51.06658" lon="2.49859">
        <ele>2.9</ele>
        <time>2020-06-23T11:27:23Z</time>
      </trkpt>
      <trkpt lat="51.06659" lon="2.49869">
        <ele>2.9</ele>
        <time>2020-06-23T11:27:24Z</time>
      </trkpt>
      <trkpt lat="51.06661" lon="2.4988">
        <ele>2.9</ele>
        <time>2020-06-23T11:27:25Z</time>
      </trkpt>
      <trkpt lat="51.06662" lon="2.49889">
        <ele>2.9</ele>
        <time>2020-06-23T11:27:26Z</time>
      </trkpt>
      <trkpt lat="51.06663" lon="2.49899">
        <ele>2.9</ele>
        <time>2020-06-23T11:27:27Z</time>
      </trkpt>
      <trkpt lat="51.06665" lon="2.4991">
        <ele>2.9</ele>
        <time>2020-06-23T11:27:28Z</time>
      </trkpt>
      <trkpt lat="51.06666" lon="2.4992">
        <ele>2.9</ele>
        <time>2020-06-23T11:27:29Z</time>
      </trkpt>
      <trkpt lat="51.06668" lon="2.49931">
        <ele>2.9</ele>
        <time>2020-06-23T11:27:30Z</time>
      </trkpt>
      <trkpt lat="51.06669" lon="2.49941">
        <ele>2.9</ele>
        <time>2020-06-23T11:27:31Z</time>
      </trkpt>
      <trkpt lat="51.0667" lon="2.49952">
        <ele>2.9</ele>
        <time>2020-06-23T11:27:32Z</time>
      </trkpt>
      <trkpt lat="51.06672" lon="2.49962">
        <ele>2.8</ele>
        <time>2020-06-23T11:27:33Z</time>
      </trkpt>
      <trkpt lat="51.06673" lon="2.49972">
        <ele>2.8</ele>
        <time>2020-06-23T11:27:34Z</time>
      </trkpt>
      <trkpt lat="51.06674" lon="2.49981">
        <ele>2.9</ele>
        <time>2020-06-23T11:27:35Z</time>
      </trkpt>
      <trkpt lat="51.06676" lon="2.49992">
        <ele>2.9</ele>
        <time>2020-06-23T11:27:36Z</time>
      </trkpt>
      <trkpt lat="51.06678" lon="2.50003">
        <ele>2.9</ele>
        <time>2020-06-23T11:27:37Z</time>
      </trkpt>
      <trkpt lat="51.0668" lon="2.50014">
        <ele>2.9</ele>
        <time>2020-06-23T11:27:38Z</time>
      </trkpt>
      <trkpt lat="51.06682" lon="2.50026">
        <ele>3</ele>
        <time>2020-06-23T11:27:39Z</time>
      </trkpt>
      <trkpt lat="51.06683" lon="2.50036">
        <ele>3</ele>
        <time>2020-06-23T11:27:40Z</time>
      </trkpt>
      <trkpt lat="51.06685" lon="2.50046">
        <ele>3</ele>
        <time>2020-06-23T11:27:41Z</time>
      </trkpt>
      <trkpt lat="51.06686" lon="2.50056">
        <ele>3</ele>
        <time>2020-06-23T11:27:42Z</time>
      </trkpt>
      <trkpt lat="51.06687" lon="2.50066">
        <ele>3.1</ele>
        <time>2020-06-23T11:27:43Z</time>
      </trkpt>
      <trkpt lat="51.06689" lon="2.50076">
        <ele>3.1</ele>
        <time>2020-06-23T11:27:44Z</time>
      </trkpt>
      <trkpt lat="51.0669" lon="2.50086">
        <ele>3.1</ele>
        <time>2020-06-23T11:27:45Z</time>
      </trkpt>
      <trkpt lat="51.06692" lon="2.50097">
        <ele>3.2</ele>
        <time>2020-06-23T11:27:46Z</time>
      </trkpt>
      <trkpt lat="51.06693" lon="2.50107">
        <ele>3.2</ele>
        <time>2020-06-23T11:27:47Z</time>
      </trkpt>
      <trkpt lat="51.06693" lon="2.50117">
        <ele>3.2</ele>
        <time>2020-06-23T11:27:48Z</time>
      </trkpt>
      <trkpt lat="51.06695" lon="2.50127">
        <ele>3.2</ele>
        <time>2020-06-23T11:27:49Z</time>
      </trkpt>
      <trkpt lat="51.06696" lon="2.50137">
        <ele>3.2</ele>
        <time>2020-06-23T11:27:50Z</time>
      </trkpt>
      <trkpt lat="51.06698" lon="2.50147">
        <ele>3.3</ele>
        <time>2020-06-23T11:27:51Z</time>
      </trkpt>
      <trkpt lat="51.067" lon="2.50156">
        <ele>3.3</ele>
        <time>2020-06-23T11:27:52Z</time>
      </trkpt>
      <trkpt lat="51.06701" lon="2.50166">
        <ele>3.3</ele>
        <time>2020-06-23T11:27:53Z</time>
      </trkpt>
      <trkpt lat="51.06702" lon="2.50176">
        <ele>3.4</ele>
        <time>2020-06-23T11:27:54Z</time>
      </trkpt>
      <trkpt lat="51.06703" lon="2.50185">
        <ele>3.4</ele>
        <time>2020-06-23T11:27:55Z</time>
      </trkpt>
      <trkpt lat="51.06705" lon="2.50194">
        <ele>3.5</ele>
        <time>2020-06-23T11:27:56Z</time>
      </trkpt>
      <trkpt lat="51.06707" lon="2.50203">
        <ele>3.5</ele>
        <time>2020-06-23T11:27:57Z</time>
      </trkpt>
      <trkpt lat="51.06709" lon="2.50211">
        <ele>3.5</ele>
        <time>2020-06-23T11:27:58Z</time>
      </trkpt>
      <trkpt lat="51.0671" lon="2.50219">
        <ele>3.5</ele>
        <time>2020-06-23T11:27:59Z</time>
      </trkpt>
      <trkpt lat="51.06713" lon="2.50227">
        <ele>3.5</ele>
        <time>2020-06-23T11:28:00Z</time>
      </trkpt>
      <trkpt lat="51.06715" lon="2.50235">
        <ele>3.5</ele>
        <time>2020-06-23T11:28:01Z</time>
      </trkpt>
      <trkpt lat="51.06716" lon="2.50244">
        <ele>3.5</ele>
        <time>2020-06-23T11:28:02Z</time>
      </trkpt>
      <trkpt lat="51.06717" lon="2.50253">
        <ele>3.5</ele>
        <time>2020-06-23T11:28:03Z</time>
      </trkpt>
      <trkpt lat="51.06717" lon="2.50261">
        <ele>3.5</ele>
        <time>2020-06-23T11:28:04Z</time>
      </trkpt>
      <trkpt lat="51.06718" lon="2.5027">
        <ele>3.6</ele>
        <time>2020-06-23T11:28:05Z</time>
      </trkpt>
      <trkpt lat="51.06719" lon="2.50279">
        <ele>3.6</ele>
        <time>2020-06-23T11:28:06Z</time>
      </trkpt>
      <trkpt lat="51.0672" lon="2.50288">
        <ele>3.6</ele>
        <time>2020-06-23T11:28:07Z</time>
      </trkpt>
      <trkpt lat="51.06722" lon="2.50297">
        <ele>3.6</ele>
        <time>2020-06-23T11:28:08Z</time>
      </trkpt>
      <trkpt lat="51.06725" lon="2.50305">
        <ele>3.5</ele>
        <time>2020-06-23T11:28:09Z</time>
      </trkpt>
      <trkpt lat="51.06727" lon="2.50314">
        <ele>3.5</ele>
        <time>2020-06-23T11:28:10Z</time>
      </trkpt>
      <trkpt lat="51.06729" lon="2.50322">
        <ele>3.5</ele>
        <time>2020-06-23T11:28:11Z</time>
      </trkpt>
      <trkpt lat="51.06731" lon="2.50331">
        <ele>3.4</ele>
        <time>2020-06-23T11:28:12Z</time>
      </trkpt>
      <trkpt lat="51.06732" lon="2.5034">
        <ele>3.4</ele>
        <time>2020-06-23T11:28:13Z</time>
      </trkpt>
      <trkpt lat="51.06734" lon="2.50349">
        <ele>3.4</ele>
        <time>2020-06-23T11:28:14Z</time>
      </trkpt>
      <trkpt lat="51.06736" lon="2.50358">
        <ele>3.4</ele>
        <time>2020-06-23T11:28:15Z</time>
      </trkpt>
      <trkpt lat="51.06736" lon="2.50368">
        <ele>3.3</ele>
        <time>2020-06-23T11:28:16Z</time>
      </trkpt>
      <trkpt lat="51.06737" lon="2.50379">
        <ele>3.3</ele>
        <time>2020-06-23T11:28:17Z</time>
      </trkpt>
      <trkpt lat="51.06739" lon="2.50389">
        <ele>3.3</ele>
        <time>2020-06-23T11:28:18Z</time>
      </trkpt>
      <trkpt lat="51.06741" lon="2.504">
        <ele>3.4</ele>
        <time>2020-06-23T11:28:19Z</time>
      </trkpt>
      <trkpt lat="51.06743" lon="2.5041">
        <ele>3.4</ele>
        <time>2020-06-23T11:28:20Z</time>
      </trkpt>
      <trkpt lat="51.06746" lon="2.5042">
        <ele>3.4</ele>
        <time>2020-06-23T11:28:21Z</time>
      </trkpt>
      <trkpt lat="51.06748" lon="2.5043">
        <ele>3.4</ele>
        <time>2020-06-23T11:28:22Z</time>
      </trkpt>
      <trkpt lat="51.06751" lon="2.50439">
        <ele>3.5</ele>
        <time>2020-06-23T11:28:23Z</time>
      </trkpt>
      <trkpt lat="51.06753" lon="2.50449">
        <ele>3.5</ele>
        <time>2020-06-23T11:28:24Z</time>
      </trkpt>
      <trkpt lat="51.06755" lon="2.50458">
        <ele>3.5</ele>
        <time>2020-06-23T11:28:25Z</time>
      </trkpt>
      <trkpt lat="51.06756" lon="2.50466">
        <ele>3.5</ele>
        <time>2020-06-23T11:28:26Z</time>
      </trkpt>
      <trkpt lat="51.06758" lon="2.50474">
        <ele>3.5</ele>
        <time>2020-06-23T11:28:27Z</time>
      </trkpt>
      <trkpt lat="51.06759" lon="2.50482">
        <ele>3.6</ele>
        <time>2020-06-23T11:28:28Z</time>
      </trkpt>
      <trkpt lat="51.06759" lon="2.50488">
        <ele>3.6</ele>
        <time>2020-06-23T11:28:29Z</time>
      </trkpt>
      <trkpt lat="51.06761" lon="2.50493">
        <ele>3.6</ele>
        <time>2020-06-23T11:28:30Z</time>
      </trkpt>
      <trkpt lat="51.06762" lon="2.50498">
        <ele>3.6</ele>
        <time>2020-06-23T11:28:31Z</time>
      </trkpt>
      <trkpt lat="51.06763" lon="2.505">
        <ele>3.6</ele>
        <time>2020-06-23T11:28:32Z</time>
      </trkpt>
      <trkpt lat="51.06762" lon="2.50499">
        <ele>3.6</ele>
        <time>2020-06-23T11:28:33Z</time>
      </trkpt>
      <trkpt lat="51.06762" lon="2.50499">
        <ele>3.6</ele>
        <time>2020-06-23T11:28:34Z</time>
      </trkpt>
      <trkpt lat="51.06762" lon="2.505">
        <ele>3.6</ele>
        <time>2020-06-23T11:28:35Z</time>
      </trkpt>
      <trkpt lat="51.06762" lon="2.505">
        <ele>3.6</ele>
        <time>2020-06-23T11:28:36Z</time>
      </trkpt>
      <trkpt lat="51.06763" lon="2.50501">
        <ele>3.6</ele>
        <time>2020-06-23T11:28:37Z</time>
      </trkpt>
      <trkpt lat="51.06762" lon="2.50502">
        <ele>3.6</ele>
        <time>2020-06-23T11:28:38Z</time>
      </trkpt>
      <trkpt lat="51.06761" lon="2.50503">
        <ele>3.6</ele>
        <time>2020-06-23T11:28:39Z</time>
      </trkpt>
      <trkpt lat="51.06761" lon="2.50503">
        <ele>3.6</ele>
        <time>2020-06-23T11:28:40Z</time>
      </trkpt>
      <trkpt lat="51.0676" lon="2.50505">
        <ele>3.6</ele>
        <time>2020-06-23T11:28:41Z</time>
      </trkpt>
      <trkpt lat="51.06761" lon="2.50506">
        <ele>3.6</ele>
        <time>2020-06-23T11:28:42Z</time>
      </trkpt>
      <trkpt lat="51.06761" lon="2.50507">
        <ele>3.6</ele>
        <time>2020-06-23T11:28:43Z</time>
      </trkpt>
      <trkpt lat="51.06761" lon="2.50508">
        <ele>3.6</ele>
        <time>2020-06-23T11:28:44Z</time>
      </trkpt>
      <trkpt lat="51.06761" lon="2.5051">
        <ele>3.6</ele>
        <time>2020-06-23T11:28:45Z</time>
      </trkpt>
      <trkpt lat="51.06761" lon="2.50511">
        <ele>3.6</ele>
        <time>2020-06-23T11:28:46Z</time>
      </trkpt>
      <trkpt lat="51.06761" lon="2.50512">
        <ele>3.6</ele>
        <time>2020-06-23T11:28:47Z</time>
      </trkpt>
      <trkpt lat="51.06761" lon="2.50513">
        <ele>3.6</ele>
        <time>2020-06-23T11:28:48Z</time>
      </trkpt>
      <trkpt lat="51.06761" lon="2.50514">
        <ele>3.6</ele>
        <time>2020-06-23T11:28:49Z</time>
      </trkpt>
      <trkpt lat="51.06762" lon="2.50516">
        <ele>3.6</ele>
        <time>2020-06-23T11:28:50Z</time>
      </trkpt>
      <trkpt lat="51.06762" lon="2.50517">
        <ele>3.6</ele>
        <time>2020-06-23T11:30:36Z</time>
      </trkpt>
      <trkpt lat="51.06762" lon="2.50518">
        <ele>3.6</ele>
        <time>2020-06-23T11:30:37Z</time>
      </trkpt>
      <trkpt lat="51.06764" lon="2.50523">
        <ele>3.6</ele>
        <time>2020-06-23T11:30:38Z</time>
      </trkpt>
      <trkpt lat="51.06764" lon="2.50525">
        <ele>3.6</ele>
        <time>2020-06-23T11:30:39Z</time>
      </trkpt>
      <trkpt lat="51.06765" lon="2.50529">
        <ele>3.6</ele>
        <time>2020-06-23T11:30:40Z</time>
      </trkpt>
      <trkpt lat="51.06767" lon="2.50534">
        <ele>3.6</ele>
        <time>2020-06-23T11:30:41Z</time>
      </trkpt>
      <trkpt lat="51.06769" lon="2.50538">
        <ele>3.6</ele>
        <time>2020-06-23T11:30:42Z</time>
      </trkpt>
      <trkpt lat="51.06771" lon="2.50544">
        <ele>3.6</ele>
        <time>2020-06-23T11:30:43Z</time>
      </trkpt>
      <trkpt lat="51.06772" lon="2.5055">
        <ele>3.6</ele>
        <time>2020-06-23T11:30:44Z</time>
      </trkpt>
      <trkpt lat="51.06774" lon="2.50557">
        <ele>3.6</ele>
        <time>2020-06-23T11:30:45Z</time>
      </trkpt>
      <trkpt lat="51.06775" lon="2.50563">
        <ele>3.6</ele>
        <time>2020-06-23T11:30:46Z</time>
      </trkpt>
      <trkpt lat="51.06777" lon="2.5057">
        <ele>3.6</ele>
        <time>2020-06-23T11:30:47Z</time>
      </trkpt>
      <trkpt lat="51.06779" lon="2.50578">
        <ele>3.6</ele>
        <time>2020-06-23T11:30:48Z</time>
      </trkpt>
      <trkpt lat="51.0678" lon="2.50585">
        <ele>3.7</ele>
        <time>2020-06-23T11:30:49Z</time>
      </trkpt>
      <trkpt lat="51.06782" lon="2.50593">
        <ele>3.7</ele>
        <time>2020-06-23T11:30:50Z</time>
      </trkpt>
      <trkpt lat="51.06785" lon="2.506">
        <ele>3.6</ele>
        <time>2020-06-23T11:30:51Z</time>
      </trkpt>
      <trkpt lat="51.06787" lon="2.50608">
        <ele>3.6</ele>
        <time>2020-06-23T11:30:52Z</time>
      </trkpt>
      <trkpt lat="51.0679" lon="2.50615">
        <ele>3.6</ele>
        <time>2020-06-23T11:30:53Z</time>
      </trkpt>
      <trkpt lat="51.06792" lon="2.50622">
        <ele>3.7</ele>
        <time>2020-06-23T11:30:54Z</time>
      </trkpt>
      <trkpt lat="51.06794" lon="2.50629">
        <ele>3.8</ele>
        <time>2020-06-23T11:30:55Z</time>
      </trkpt>
      <trkpt lat="51.06796" lon="2.50636">
        <ele>3.8</ele>
        <time>2020-06-23T11:30:56Z</time>
      </trkpt>
      <trkpt lat="51.06798" lon="2.50644">
        <ele>3.9</ele>
        <time>2020-06-23T11:30:57Z</time>
      </trkpt>
      <trkpt lat="51.068" lon="2.50651">
        <ele>3.9</ele>
        <time>2020-06-23T11:30:58Z</time>
      </trkpt>
      <trkpt lat="51.06803" lon="2.50659">
        <ele>4</ele>
        <time>2020-06-23T11:30:59Z</time>
      </trkpt>
      <trkpt lat="51.06806" lon="2.50667">
        <ele>4</ele>
        <time>2020-06-23T11:31:00Z</time>
      </trkpt>
      <trkpt lat="51.06809" lon="2.50675">
        <ele>4.1</ele>
        <time>2020-06-23T11:31:01Z</time>
      </trkpt>
      <trkpt lat="51.06811" lon="2.50683">
        <ele>4.1</ele>
        <time>2020-06-23T11:31:02Z</time>
      </trkpt>
      <trkpt lat="51.06813" lon="2.5069">
        <ele>4.2</ele>
        <time>2020-06-23T11:31:03Z</time>
      </trkpt>
      <trkpt lat="51.06815" lon="2.50698">
        <ele>4.2</ele>
        <time>2020-06-23T11:31:04Z</time>
      </trkpt>
      <trkpt lat="51.06817" lon="2.50705">
        <ele>4.3</ele>
        <time>2020-06-23T11:31:05Z</time>
      </trkpt>
      <trkpt lat="51.0682" lon="2.50712">
        <ele>4.3</ele>
        <time>2020-06-23T11:31:06Z</time>
      </trkpt>
      <trkpt lat="51.06821" lon="2.50719">
        <ele>4.4</ele>
        <time>2020-06-23T11:31:07Z</time>
      </trkpt>
      <trkpt lat="51.06824" lon="2.50727">
        <ele>4.4</ele>
        <time>2020-06-23T11:31:08Z</time>
      </trkpt>
      <trkpt lat="51.06826" lon="2.50734">
        <ele>4.5</ele>
        <time>2020-06-23T11:31:09Z</time>
      </trkpt>
      <trkpt lat="51.06828" lon="2.5074">
        <ele>4.5</ele>
        <time>2020-06-23T11:31:10Z</time>
      </trkpt>
      <trkpt lat="51.0683" lon="2.50746">
        <ele>4.5</ele>
        <time>2020-06-23T11:31:11Z</time>
      </trkpt>
      <trkpt lat="51.06832" lon="2.50754">
        <ele>4.6</ele>
        <time>2020-06-23T11:31:12Z</time>
      </trkpt>
      <trkpt lat="51.06835" lon="2.5076">
        <ele>4.6</ele>
        <time>2020-06-23T11:31:13Z</time>
      </trkpt>
      <trkpt lat="51.06837" lon="2.50766">
        <ele>4.7</ele>
        <time>2020-06-23T11:31:14Z</time>
      </trkpt>
      <trkpt lat="51.06839" lon="2.50773">
        <ele>4.7</ele>
        <time>2020-06-23T11:31:15Z</time>
      </trkpt>
      <trkpt lat="51.06841" lon="2.5078">
        <ele>4.8</ele>
        <time>2020-06-23T11:31:16Z</time>
      </trkpt>
      <trkpt lat="51.06843" lon="2.50788">
        <ele>4.9</ele>
        <time>2020-06-23T11:31:17Z</time>
      </trkpt>
      <trkpt lat="51.06846" lon="2.50795">
        <ele>4.9</ele>
        <time>2020-06-23T11:31:18Z</time>
      </trkpt>
      <trkpt lat="51.06848" lon="2.50803">
        <ele>5</ele>
        <time>2020-06-23T11:31:19Z</time>
      </trkpt>
      <trkpt lat="51.0685" lon="2.50811">
        <ele>5.1</ele>
        <time>2020-06-23T11:31:20Z</time>
      </trkpt>
      <trkpt lat="51.06852" lon="2.50819">
        <ele>5.2</ele>
        <time>2020-06-23T11:31:21Z</time>
      </trkpt>
      <trkpt lat="51.06854" lon="2.50827">
        <ele>5.2</ele>
        <time>2020-06-23T11:31:22Z</time>
      </trkpt>
      <trkpt lat="51.06856" lon="2.50832">
        <ele>5.3</ele>
        <time>2020-06-23T11:31:23Z</time>
      </trkpt>
      <trkpt lat="51.06858" lon="2.50838">
        <ele>5.3</ele>
        <time>2020-06-23T11:31:24Z</time>
      </trkpt>
      <trkpt lat="51.06861" lon="2.50843">
        <ele>5.4</ele>
        <time>2020-06-23T11:31:25Z</time>
      </trkpt>
      <trkpt lat="51.06863" lon="2.50849">
        <ele>5.4</ele>
        <time>2020-06-23T11:31:26Z</time>
      </trkpt>
      <trkpt lat="51.06865" lon="2.50856">
        <ele>5.4</ele>
        <time>2020-06-23T11:31:27Z</time>
      </trkpt>
      <trkpt lat="51.06866" lon="2.50861">
        <ele>5.5</ele>
        <time>2020-06-23T11:31:28Z</time>
      </trkpt>
      <trkpt lat="51.06869" lon="2.50868">
        <ele>5.6</ele>
        <time>2020-06-23T11:31:29Z</time>
      </trkpt>
      <trkpt lat="51.06871" lon="2.50875">
        <ele>5.6</ele>
        <time>2020-06-23T11:31:30Z</time>
      </trkpt>
      <trkpt lat="51.06873" lon="2.50882">
        <ele>5.6</ele>
        <time>2020-06-23T11:31:31Z</time>
      </trkpt>
      <trkpt lat="51.06876" lon="2.50887">
        <ele>5.7</ele>
        <time>2020-06-23T11:31:32Z</time>
      </trkpt>
      <trkpt lat="51.06878" lon="2.50894">
        <ele>5.7</ele>
        <time>2020-06-23T11:31:33Z</time>
      </trkpt>
      <trkpt lat="51.0688" lon="2.50901">
        <ele>5.8</ele>
        <time>2020-06-23T11:31:34Z</time>
      </trkpt>
      <trkpt lat="51.06883" lon="2.50908">
        <ele>5.8</ele>
        <time>2020-06-23T11:31:35Z</time>
      </trkpt>
      <trkpt lat="51.06886" lon="2.50915">
        <ele>5.9</ele>
        <time>2020-06-23T11:31:36Z</time>
      </trkpt>
      <trkpt lat="51.06888" lon="2.50921">
        <ele>5.9</ele>
        <time>2020-06-23T11:31:37Z</time>
      </trkpt>
      <trkpt lat="51.0689" lon="2.50929">
        <ele>6</ele>
        <time>2020-06-23T11:31:38Z</time>
      </trkpt>
      <trkpt lat="51.06892" lon="2.50935">
        <ele>6</ele>
        <time>2020-06-23T11:31:39Z</time>
      </trkpt>
      <trkpt lat="51.06894" lon="2.5094">
        <ele>6</ele>
        <time>2020-06-23T11:31:40Z</time>
      </trkpt>
      <trkpt lat="51.06897" lon="2.50948">
        <ele>6.1</ele>
        <time>2020-06-23T11:31:41Z</time>
      </trkpt>
      <trkpt lat="51.06899" lon="2.50955">
        <ele>6.1</ele>
        <time>2020-06-23T11:31:42Z</time>
      </trkpt>
      <trkpt lat="51.06901" lon="2.50961">
        <ele>6.2</ele>
        <time>2020-06-23T11:31:43Z</time>
      </trkpt>
      <trkpt lat="51.06904" lon="2.50967">
        <ele>6.2</ele>
        <time>2020-06-23T11:31:44Z</time>
      </trkpt>
      <trkpt lat="51.06906" lon="2.50974">
        <ele>6.2</ele>
        <time>2020-06-23T11:31:45Z</time>
      </trkpt>
      <trkpt lat="51.06909" lon="2.50982">
        <ele>6.2</ele>
        <time>2020-06-23T11:31:46Z</time>
      </trkpt>
      <trkpt lat="51.0691" lon="2.50989">
        <ele>6.2</ele>
        <time>2020-06-23T11:31:47Z</time>
      </trkpt>
      <trkpt lat="51.06913" lon="2.50997">
        <ele>6.2</ele>
        <time>2020-06-23T11:31:48Z</time>
      </trkpt>
      <trkpt lat="51.06915" lon="2.51002">
        <ele>6.2</ele>
        <time>2020-06-23T11:31:49Z</time>
      </trkpt>
      <trkpt lat="51.06917" lon="2.51009">
        <ele>6.2</ele>
        <time>2020-06-23T11:31:50Z</time>
      </trkpt>
      <trkpt lat="51.06919" lon="2.51017">
        <ele>6.2</ele>
        <time>2020-06-23T11:31:51Z</time>
      </trkpt>
      <trkpt lat="51.06921" lon="2.51024">
        <ele>6.2</ele>
        <time>2020-06-23T11:31:52Z</time>
      </trkpt>
      <trkpt lat="51.06924" lon="2.51032">
        <ele>6.1</ele>
        <time>2020-06-23T11:31:53Z</time>
      </trkpt>
      <trkpt lat="51.06926" lon="2.5104">
        <ele>6.1</ele>
        <time>2020-06-23T11:31:54Z</time>
      </trkpt>
      <trkpt lat="51.06928" lon="2.51048">
        <ele>6</ele>
        <time>2020-06-23T11:31:55Z</time>
      </trkpt>
      <trkpt lat="51.06929" lon="2.51057">
        <ele>5.9</ele>
        <time>2020-06-23T11:31:56Z</time>
      </trkpt>
      <trkpt lat="51.06932" lon="2.51065">
        <ele>5.9</ele>
        <time>2020-06-23T11:31:57Z</time>
      </trkpt>
      <trkpt lat="51.06933" lon="2.51073">
        <ele>5.8</ele>
        <time>2020-06-23T11:31:58Z</time>
      </trkpt>
      <trkpt lat="51.06935" lon="2.51082">
        <ele>5.8</ele>
        <time>2020-06-23T11:31:59Z</time>
      </trkpt>
      <trkpt lat="51.06937" lon="2.51091">
        <ele>5.8</ele>
        <time>2020-06-23T11:32:00Z</time>
      </trkpt>
      <trkpt lat="51.0694" lon="2.51101">
        <ele>5.8</ele>
        <time>2020-06-23T11:32:01Z</time>
      </trkpt>
      <trkpt lat="51.06942" lon="2.5111">
        <ele>5.8</ele>
        <time>2020-06-23T11:32:02Z</time>
      </trkpt>
      <trkpt lat="51.06944" lon="2.51118">
        <ele>5.9</ele>
        <time>2020-06-23T11:32:03Z</time>
      </trkpt>
      <trkpt lat="51.06945" lon="2.51127">
        <ele>5.9</ele>
        <time>2020-06-23T11:32:04Z</time>
      </trkpt>
      <trkpt lat="51.06948" lon="2.51135">
        <ele>5.9</ele>
        <time>2020-06-23T11:32:05Z</time>
      </trkpt>
      <trkpt lat="51.06949" lon="2.51143">
        <ele>6</ele>
        <time>2020-06-23T11:32:06Z</time>
      </trkpt>
      <trkpt lat="51.06951" lon="2.51151">
        <ele>6</ele>
        <time>2020-06-23T11:32:07Z</time>
      </trkpt>
      <trkpt lat="51.06953" lon="2.5116">
        <ele>6.1</ele>
        <time>2020-06-23T11:32:08Z</time>
      </trkpt>
      <trkpt lat="51.06955" lon="2.51169">
        <ele>6.1</ele>
        <time>2020-06-23T11:32:09Z</time>
      </trkpt>
      <trkpt lat="51.06957" lon="2.51177">
        <ele>6.2</ele>
        <time>2020-06-23T11:32:10Z</time>
      </trkpt>
      <trkpt lat="51.06959" lon="2.51188">
        <ele>6.2</ele>
        <time>2020-06-23T11:32:11Z</time>
      </trkpt>
      <trkpt lat="51.06961" lon="2.51195">
        <ele>6.2</ele>
        <time>2020-06-23T11:32:12Z</time>
      </trkpt>
      <trkpt lat="51.06962" lon="2.51204">
        <ele>6.2</ele>
        <time>2020-06-23T11:32:13Z</time>
      </trkpt>
      <trkpt lat="51.06963" lon="2.51212">
        <ele>6.2</ele>
        <time>2020-06-23T11:32:14Z</time>
      </trkpt>
      <trkpt lat="51.06964" lon="2.51219">
        <ele>6.2</ele>
        <time>2020-06-23T11:32:15Z</time>
      </trkpt>
      <trkpt lat="51.06966" lon="2.51227">
        <ele>6.2</ele>
        <time>2020-06-23T11:32:16Z</time>
      </trkpt>
      <trkpt lat="51.06967" lon="2.51236">
        <ele>6.2</ele>
        <time>2020-06-23T11:32:17Z</time>
      </trkpt>
      <trkpt lat="51.06968" lon="2.51242">
        <ele>6.2</ele>
        <time>2020-06-23T11:32:18Z</time>
      </trkpt>
      <trkpt lat="51.06969" lon="2.51249">
        <ele>6.1</ele>
        <time>2020-06-23T11:32:19Z</time>
      </trkpt>
      <trkpt lat="51.0697" lon="2.51258">
        <ele>6.1</ele>
        <time>2020-06-23T11:32:20Z</time>
      </trkpt>
      <trkpt lat="51.06971" lon="2.51267">
        <ele>6.1</ele>
        <time>2020-06-23T11:32:21Z</time>
      </trkpt>
      <trkpt lat="51.06972" lon="2.51274">
        <ele>6.1</ele>
        <time>2020-06-23T11:32:22Z</time>
      </trkpt>
      <trkpt lat="51.06973" lon="2.51283">
        <ele>6.1</ele>
        <time>2020-06-23T11:32:23Z</time>
      </trkpt>
      <trkpt lat="51.06973" lon="2.51293">
        <ele>6.1</ele>
        <time>2020-06-23T11:32:24Z</time>
      </trkpt>
      <trkpt lat="51.06973" lon="2.51302">
        <ele>6.1</ele>
        <time>2020-06-23T11:32:25Z</time>
      </trkpt>
      <trkpt lat="51.06973" lon="2.51311">
        <ele>6.1</ele>
        <time>2020-06-23T11:32:26Z</time>
      </trkpt>
      <trkpt lat="51.06973" lon="2.51319">
        <ele>6</ele>
        <time>2020-06-23T11:32:27Z</time>
      </trkpt>
      <trkpt lat="51.06973" lon="2.51328">
        <ele>6</ele>
        <time>2020-06-23T11:32:28Z</time>
      </trkpt>
      <trkpt lat="51.06973" lon="2.51336">
        <ele>6</ele>
        <time>2020-06-23T11:32:29Z</time>
      </trkpt>
      <trkpt lat="51.06973" lon="2.51345">
        <ele>6.1</ele>
        <time>2020-06-23T11:32:30Z</time>
      </trkpt>
      <trkpt lat="51.06973" lon="2.51354">
        <ele>6.1</ele>
        <time>2020-06-23T11:32:31Z</time>
      </trkpt>
      <trkpt lat="51.06973" lon="2.51361">
        <ele>6.1</ele>
        <time>2020-06-23T11:32:32Z</time>
      </trkpt>
      <trkpt lat="51.06974" lon="2.51371">
        <ele>6</ele>
        <time>2020-06-23T11:32:33Z</time>
      </trkpt>
      <trkpt lat="51.06974" lon="2.5138">
        <ele>5.9</ele>
        <time>2020-06-23T11:32:34Z</time>
      </trkpt>
      <trkpt lat="51.06974" lon="2.51386">
        <ele>5.9</ele>
        <time>2020-06-23T11:32:35Z</time>
      </trkpt>
      <trkpt lat="51.06975" lon="2.51393">
        <ele>5.8</ele>
        <time>2020-06-23T11:32:36Z</time>
      </trkpt>
      <trkpt lat="51.06976" lon="2.51401">
        <ele>5.8</ele>
        <time>2020-06-23T11:32:37Z</time>
      </trkpt>
      <trkpt lat="51.06977" lon="2.5141">
        <ele>5.7</ele>
        <time>2020-06-23T11:32:38Z</time>
      </trkpt>
      <trkpt lat="51.06978" lon="2.51418">
        <ele>5.7</ele>
        <time>2020-06-23T11:32:39Z</time>
      </trkpt>
      <trkpt lat="51.06979" lon="2.51425">
        <ele>5.7</ele>
        <time>2020-06-23T11:32:40Z</time>
      </trkpt>
      <trkpt lat="51.06979" lon="2.51434">
        <ele>5.6</ele>
        <time>2020-06-23T11:32:41Z</time>
      </trkpt>
      <trkpt lat="51.0698" lon="2.51442">
        <ele>5.6</ele>
        <time>2020-06-23T11:32:42Z</time>
      </trkpt>
      <trkpt lat="51.06981" lon="2.5145">
        <ele>5.5</ele>
        <time>2020-06-23T11:32:43Z</time>
      </trkpt>
      <trkpt lat="51.06981" lon="2.5146">
        <ele>5.5</ele>
        <time>2020-06-23T11:32:44Z</time>
      </trkpt>
      <trkpt lat="51.06982" lon="2.51468">
        <ele>5.5</ele>
        <time>2020-06-23T11:32:45Z</time>
      </trkpt>
      <trkpt lat="51.06982" lon="2.51477">
        <ele>5.5</ele>
        <time>2020-06-23T11:32:46Z</time>
      </trkpt>
      <trkpt lat="51.06983" lon="2.51484">
        <ele>5.5</ele>
        <time>2020-06-23T11:32:47Z</time>
      </trkpt>
      <trkpt lat="51.06984" lon="2.51491">
        <ele>5.5</ele>
        <time>2020-06-23T11:32:48Z</time>
      </trkpt>
      <trkpt lat="51.06984" lon="2.51498">
        <ele>5.5</ele>
        <time>2020-06-23T11:32:49Z</time>
      </trkpt>
      <trkpt lat="51.06984" lon="2.51507">
        <ele>5.4</ele>
        <time>2020-06-23T11:32:50Z</time>
      </trkpt>
      <trkpt lat="51.06985" lon="2.51516">
        <ele>5.4</ele>
        <time>2020-06-23T11:32:51Z</time>
      </trkpt>
      <trkpt lat="51.06986" lon="2.51525">
        <ele>5.4</ele>
        <time>2020-06-23T11:32:52Z</time>
      </trkpt>
      <trkpt lat="51.06986" lon="2.51533">
        <ele>5.4</ele>
        <time>2020-06-23T11:32:53Z</time>
      </trkpt>
      <trkpt lat="51.06986" lon="2.51542">
        <ele>5.4</ele>
        <time>2020-06-23T11:32:54Z</time>
      </trkpt>
      <trkpt lat="51.06987" lon="2.51552">
        <ele>5.4</ele>
        <time>2020-06-23T11:32:55Z</time>
      </trkpt>
      <trkpt lat="51.06988" lon="2.51561">
        <ele>5.4</ele>
        <time>2020-06-23T11:32:56Z</time>
      </trkpt>
      <trkpt lat="51.06988" lon="2.51569">
        <ele>5.4</ele>
        <time>2020-06-23T11:32:57Z</time>
      </trkpt>
      <trkpt lat="51.06988" lon="2.51577">
        <ele>5.4</ele>
        <time>2020-06-23T11:32:58Z</time>
      </trkpt>
      <trkpt lat="51.06988" lon="2.51585">
        <ele>5.4</ele>
        <time>2020-06-23T11:32:59Z</time>
      </trkpt>
      <trkpt lat="51.06989" lon="2.51594">
        <ele>5.5</ele>
        <time>2020-06-23T11:33:00Z</time>
      </trkpt>
      <trkpt lat="51.06989" lon="2.516">
        <ele>5.5</ele>
        <time>2020-06-23T11:33:01Z</time>
      </trkpt>
      <trkpt lat="51.0699" lon="2.51609">
        <ele>5.5</ele>
        <time>2020-06-23T11:33:02Z</time>
      </trkpt>
      <trkpt lat="51.0699" lon="2.51615">
        <ele>5.5</ele>
        <time>2020-06-23T11:33:03Z</time>
      </trkpt>
      <trkpt lat="51.0699" lon="2.5162">
        <ele>5.6</ele>
        <time>2020-06-23T11:33:04Z</time>
      </trkpt>
      <trkpt lat="51.06991" lon="2.51625">
        <ele>5.6</ele>
        <time>2020-06-23T11:33:05Z</time>
      </trkpt>
      <trkpt lat="51.06991" lon="2.51627">
        <ele>5.6</ele>
        <time>2020-06-23T11:33:06Z</time>
      </trkpt>
      <trkpt lat="51.06992" lon="2.51631">
        <ele>5.6</ele>
        <time>2020-06-23T11:33:07Z</time>
      </trkpt>
      <trkpt lat="51.06996" lon="2.51633">
        <ele>5.7</ele>
        <time>2020-06-23T11:33:08Z</time>
      </trkpt>
      <trkpt lat="51.06997" lon="2.51633">
        <ele>5.7</ele>
        <time>2020-06-23T11:33:09Z</time>
      </trkpt>
      <trkpt lat="51.07" lon="2.51632">
        <ele>5.7</ele>
        <time>2020-06-23T11:33:10Z</time>
      </trkpt>
      <trkpt lat="51.07003" lon="2.51631">
        <ele>5.8</ele>
        <time>2020-06-23T11:33:11Z</time>
      </trkpt>
      <trkpt lat="51.07006" lon="2.51631">
        <ele>5.9</ele>
        <time>2020-06-23T11:33:12Z</time>
      </trkpt>
      <trkpt lat="51.07009" lon="2.5163">
        <ele>6</ele>
        <time>2020-06-23T11:33:13Z</time>
      </trkpt>
      <trkpt lat="51.07013" lon="2.51629">
        <ele>6.1</ele>
        <time>2020-06-23T11:33:14Z</time>
      </trkpt>
      <trkpt lat="51.07016" lon="2.51629">
        <ele>6.1</ele>
        <time>2020-06-23T11:33:15Z</time>
      </trkpt>
      <trkpt lat="51.07021" lon="2.51627">
        <ele>6.2</ele>
        <time>2020-06-23T11:33:16Z</time>
      </trkpt>
      <trkpt lat="51.07026" lon="2.51626">
        <ele>6.3</ele>
        <time>2020-06-23T11:33:17Z</time>
      </trkpt>
      <trkpt lat="51.0703" lon="2.51625">
        <ele>6.4</ele>
        <time>2020-06-23T11:33:18Z</time>
      </trkpt>
      <trkpt lat="51.07033" lon="2.51623">
        <ele>6.4</ele>
        <time>2020-06-23T11:33:19Z</time>
      </trkpt>
      <trkpt lat="51.07038" lon="2.51622">
        <ele>6.4</ele>
        <time>2020-06-23T11:33:20Z</time>
      </trkpt>
      <trkpt lat="51.07042" lon="2.5162">
        <ele>6.4</ele>
        <time>2020-06-23T11:33:21Z</time>
      </trkpt>
      <trkpt lat="51.07048" lon="2.51618">
        <ele>6.4</ele>
        <time>2020-06-23T11:33:22Z</time>
      </trkpt>
      <trkpt lat="51.07052" lon="2.51617">
        <ele>6.4</ele>
        <time>2020-06-23T11:33:23Z</time>
      </trkpt>
      <trkpt lat="51.07056" lon="2.51615">
        <ele>6.5</ele>
        <time>2020-06-23T11:33:24Z</time>
      </trkpt>
      <trkpt lat="51.0706" lon="2.51613">
        <ele>6.5</ele>
        <time>2020-06-23T11:33:25Z</time>
      </trkpt>
      <trkpt lat="51.07064" lon="2.51611">
        <ele>6.5</ele>
        <time>2020-06-23T11:33:26Z</time>
      </trkpt>
      <trkpt lat="51.07069" lon="2.5161">
        <ele>6.5</ele>
        <time>2020-06-23T11:33:27Z</time>
      </trkpt>
      <trkpt lat="51.07074" lon="2.51608">
        <ele>6.5</ele>
        <time>2020-06-23T11:33:28Z</time>
      </trkpt>
      <trkpt lat="51.07079" lon="2.51607">
        <ele>6.6</ele>
        <time>2020-06-23T11:33:29Z</time>
      </trkpt>
      <trkpt lat="51.07085" lon="2.51605">
        <ele>6.6</ele>
        <time>2020-06-23T11:33:30Z</time>
      </trkpt>
      <trkpt lat="51.07091" lon="2.51602">
        <ele>6.7</ele>
        <time>2020-06-23T11:33:31Z</time>
      </trkpt>
      <trkpt lat="51.07095" lon="2.516">
        <ele>6.8</ele>
        <time>2020-06-23T11:33:32Z</time>
      </trkpt>
      <trkpt lat="51.071" lon="2.51598">
        <ele>6.9</ele>
        <time>2020-06-23T11:33:33Z</time>
      </trkpt>
      <trkpt lat="51.07105" lon="2.51597">
        <ele>6.9</ele>
        <time>2020-06-23T11:33:34Z</time>
      </trkpt>
      <trkpt lat="51.07109" lon="2.51595">
        <ele>7</ele>
        <time>2020-06-23T11:33:35Z</time>
      </trkpt>
      <trkpt lat="51.07115" lon="2.51593">
        <ele>7.1</ele>
        <time>2020-06-23T11:33:36Z</time>
      </trkpt>
      <trkpt lat="51.0712" lon="2.51591">
        <ele>7.1</ele>
        <time>2020-06-23T11:33:37Z</time>
      </trkpt>
      <trkpt lat="51.07125" lon="2.51589">
        <ele>7.2</ele>
        <time>2020-06-23T11:33:38Z</time>
      </trkpt>
      <trkpt lat="51.07131" lon="2.51586">
        <ele>7.2</ele>
        <time>2020-06-23T11:33:39Z</time>
      </trkpt>
      <trkpt lat="51.07136" lon="2.51584">
        <ele>7.2</ele>
        <time>2020-06-23T11:33:40Z</time>
      </trkpt>
      <trkpt lat="51.07139" lon="2.51583">
        <ele>7.2</ele>
        <time>2020-06-23T11:33:41Z</time>
      </trkpt>
      <trkpt lat="51.07144" lon="2.51581">
        <ele>7.3</ele>
        <time>2020-06-23T11:33:42Z</time>
      </trkpt>
      <trkpt lat="51.07148" lon="2.51579">
        <ele>7.3</ele>
        <time>2020-06-23T11:33:43Z</time>
      </trkpt>
      <trkpt lat="51.07153" lon="2.51577">
        <ele>7.3</ele>
        <time>2020-06-23T11:33:44Z</time>
      </trkpt>
      <trkpt lat="51.07159" lon="2.51575">
        <ele>7.4</ele>
        <time>2020-06-23T11:33:45Z</time>
      </trkpt>
      <trkpt lat="51.07164" lon="2.51573">
        <ele>7.4</ele>
        <time>2020-06-23T11:33:46Z</time>
      </trkpt>
      <trkpt lat="51.07169" lon="2.51571">
        <ele>7.5</ele>
        <time>2020-06-23T11:33:47Z</time>
      </trkpt>
      <trkpt lat="51.07175" lon="2.51568">
        <ele>7.6</ele>
        <time>2020-06-23T11:33:48Z</time>
      </trkpt>
      <trkpt lat="51.0718" lon="2.51567">
        <ele>7.6</ele>
        <time>2020-06-23T11:33:49Z</time>
      </trkpt>
      <trkpt lat="51.07184" lon="2.51565">
        <ele>7.6</ele>
        <time>2020-06-23T11:33:50Z</time>
      </trkpt>
      <trkpt lat="51.07189" lon="2.51564">
        <ele>7.7</ele>
        <time>2020-06-23T11:33:51Z</time>
      </trkpt>
      <trkpt lat="51.07194" lon="2.51562">
        <ele>7.7</ele>
        <time>2020-06-23T11:33:52Z</time>
      </trkpt>
      <trkpt lat="51.07199" lon="2.5156">
        <ele>7.7</ele>
        <time>2020-06-23T11:33:53Z</time>
      </trkpt>
      <trkpt lat="51.07203" lon="2.51559">
        <ele>7.8</ele>
        <time>2020-06-23T11:33:54Z</time>
      </trkpt>
      <trkpt lat="51.07208" lon="2.51557">
        <ele>7.8</ele>
        <time>2020-06-23T11:33:55Z</time>
      </trkpt>
      <trkpt lat="51.07212" lon="2.51555">
        <ele>7.8</ele>
        <time>2020-06-23T11:33:56Z</time>
      </trkpt>
      <trkpt lat="51.07217" lon="2.51553">
        <ele>7.9</ele>
        <time>2020-06-23T11:33:57Z</time>
      </trkpt>
      <trkpt lat="51.07222" lon="2.51551">
        <ele>7.9</ele>
        <time>2020-06-23T11:33:58Z</time>
      </trkpt>
      <trkpt lat="51.07228" lon="2.51548">
        <ele>7.9</ele>
        <time>2020-06-23T11:33:59Z</time>
      </trkpt>
      <trkpt lat="51.07234" lon="2.51545">
        <ele>7.9</ele>
        <time>2020-06-23T11:34:00Z</time>
      </trkpt>
      <trkpt lat="51.07239" lon="2.51543">
        <ele>7.9</ele>
        <time>2020-06-23T11:34:01Z</time>
      </trkpt>
      <trkpt lat="51.07244" lon="2.51541">
        <ele>7.9</ele>
        <time>2020-06-23T11:34:02Z</time>
      </trkpt>
      <trkpt lat="51.0725" lon="2.51539">
        <ele>7.9</ele>
        <time>2020-06-23T11:34:03Z</time>
      </trkpt>
      <trkpt lat="51.07256" lon="2.51537">
        <ele>7.8</ele>
        <time>2020-06-23T11:34:04Z</time>
      </trkpt>
      <trkpt lat="51.07262" lon="2.51535">
        <ele>7.8</ele>
        <time>2020-06-23T11:34:05Z</time>
      </trkpt>
      <trkpt lat="51.07268" lon="2.51533">
        <ele>7.8</ele>
        <time>2020-06-23T11:34:06Z</time>
      </trkpt>
      <trkpt lat="51.07274" lon="2.5153">
        <ele>7.8</ele>
        <time>2020-06-23T11:34:07Z</time>
      </trkpt>
      <trkpt lat="51.0728" lon="2.51528">
        <ele>7.8</ele>
        <time>2020-06-23T11:34:08Z</time>
      </trkpt>
      <trkpt lat="51.07286" lon="2.51526">
        <ele>7.7</ele>
        <time>2020-06-23T11:34:09Z</time>
      </trkpt>
      <trkpt lat="51.07291" lon="2.51523">
        <ele>7.7</ele>
        <time>2020-06-23T11:34:10Z</time>
      </trkpt>
      <trkpt lat="51.07297" lon="2.51521">
        <ele>7.7</ele>
        <time>2020-06-23T11:34:11Z</time>
      </trkpt>
      <trkpt lat="51.07303" lon="2.51519">
        <ele>7.7</ele>
        <time>2020-06-23T11:34:12Z</time>
      </trkpt>
      <trkpt lat="51.07309" lon="2.51517">
        <ele>7.6</ele>
        <time>2020-06-23T11:34:13Z</time>
      </trkpt>
      <trkpt lat="51.07317" lon="2.51514">
        <ele>7.6</ele>
        <time>2020-06-23T11:34:14Z</time>
      </trkpt>
      <trkpt lat="51.07321" lon="2.51513">
        <ele>7.6</ele>
        <time>2020-06-23T11:34:15Z</time>
      </trkpt>
      <trkpt lat="51.07328" lon="2.5151">
        <ele>7.6</ele>
        <time>2020-06-23T11:34:16Z</time>
      </trkpt>
      <trkpt lat="51.07333" lon="2.51507">
        <ele>7.5</ele>
        <time>2020-06-23T11:34:17Z</time>
      </trkpt>
      <trkpt lat="51.07338" lon="2.51505">
        <ele>7.5</ele>
        <time>2020-06-23T11:34:18Z</time>
      </trkpt>
      <trkpt lat="51.07345" lon="2.51502">
        <ele>7.5</ele>
        <time>2020-06-23T11:34:19Z</time>
      </trkpt>
      <trkpt lat="51.07351" lon="2.515">
        <ele>7.5</ele>
        <time>2020-06-23T11:34:20Z</time>
      </trkpt>
      <trkpt lat="51.07357" lon="2.51498">
        <ele>7.4</ele>
        <time>2020-06-23T11:34:21Z</time>
      </trkpt>
      <trkpt lat="51.07363" lon="2.51496">
        <ele>7.4</ele>
        <time>2020-06-23T11:34:22Z</time>
      </trkpt>
      <trkpt lat="51.07369" lon="2.51494">
        <ele>7.4</ele>
        <time>2020-06-23T11:34:23Z</time>
      </trkpt>
      <trkpt lat="51.07375" lon="2.51492">
        <ele>7.3</ele>
        <time>2020-06-23T11:34:24Z</time>
      </trkpt>
      <trkpt lat="51.0738" lon="2.5149">
        <ele>7.3</ele>
        <time>2020-06-23T11:34:25Z</time>
      </trkpt>
      <trkpt lat="51.07386" lon="2.51488">
        <ele>7.2</ele>
        <time>2020-06-23T11:34:26Z</time>
      </trkpt>
      <trkpt lat="51.07392" lon="2.51486">
        <ele>7.1</ele>
        <time>2020-06-23T11:34:27Z</time>
      </trkpt>
      <trkpt lat="51.07399" lon="2.51484">
        <ele>7</ele>
        <time>2020-06-23T11:34:28Z</time>
      </trkpt>
      <trkpt lat="51.07405" lon="2.51482">
        <ele>7</ele>
        <time>2020-06-23T11:34:29Z</time>
      </trkpt>
      <trkpt lat="51.07411" lon="2.51479">
        <ele>6.9</ele>
        <time>2020-06-23T11:34:30Z</time>
      </trkpt>
      <trkpt lat="51.07418" lon="2.51477">
        <ele>6.8</ele>
        <time>2020-06-23T11:34:31Z</time>
      </trkpt>
      <trkpt lat="51.07424" lon="2.51475">
        <ele>6.8</ele>
        <time>2020-06-23T11:34:32Z</time>
      </trkpt>
      <trkpt lat="51.0743" lon="2.51473">
        <ele>6.8</ele>
        <time>2020-06-23T11:34:33Z</time>
      </trkpt>
      <trkpt lat="51.07435" lon="2.5147">
        <ele>6.7</ele>
        <time>2020-06-23T11:34:34Z</time>
      </trkpt>
      <trkpt lat="51.07441" lon="2.51469">
        <ele>6.7</ele>
        <time>2020-06-23T11:34:35Z</time>
      </trkpt>
      <trkpt lat="51.07445" lon="2.51468">
        <ele>6.7</ele>
        <time>2020-06-23T11:34:36Z</time>
      </trkpt>
      <trkpt lat="51.0745" lon="2.51465">
        <ele>6.7</ele>
        <time>2020-06-23T11:34:37Z</time>
      </trkpt>
      <trkpt lat="51.07455" lon="2.51464">
        <ele>6.6</ele>
        <time>2020-06-23T11:34:38Z</time>
      </trkpt>
      <trkpt lat="51.0746" lon="2.51462">
        <ele>6.6</ele>
        <time>2020-06-23T11:34:39Z</time>
      </trkpt>
      <trkpt lat="51.07466" lon="2.5146">
        <ele>6.6</ele>
        <time>2020-06-23T11:34:40Z</time>
      </trkpt>
      <trkpt lat="51.07471" lon="2.51457">
        <ele>6.6</ele>
        <time>2020-06-23T11:34:41Z</time>
      </trkpt>
      <trkpt lat="51.07477" lon="2.51455">
        <ele>6.5</ele>
        <time>2020-06-23T11:34:42Z</time>
      </trkpt>
      <trkpt lat="51.07484" lon="2.51453">
        <ele>6.5</ele>
        <time>2020-06-23T11:34:43Z</time>
      </trkpt>
      <trkpt lat="51.0749" lon="2.5145">
        <ele>6.4</ele>
        <time>2020-06-23T11:34:44Z</time>
      </trkpt>
      <trkpt lat="51.07496" lon="2.51448">
        <ele>6.4</ele>
        <time>2020-06-23T11:34:45Z</time>
      </trkpt>
      <trkpt lat="51.07502" lon="2.51446">
        <ele>6.4</ele>
        <time>2020-06-23T11:34:46Z</time>
      </trkpt>
      <trkpt lat="51.07508" lon="2.51444">
        <ele>6.4</ele>
        <time>2020-06-23T11:34:47Z</time>
      </trkpt>
      <trkpt lat="51.07515" lon="2.51441">
        <ele>6.3</ele>
        <time>2020-06-23T11:34:48Z</time>
      </trkpt>
      <trkpt lat="51.07523" lon="2.51439">
        <ele>6.3</ele>
        <time>2020-06-23T11:34:49Z</time>
      </trkpt>
      <trkpt lat="51.0753" lon="2.51437">
        <ele>6.3</ele>
        <time>2020-06-23T11:34:50Z</time>
      </trkpt>
      <trkpt lat="51.07536" lon="2.51434">
        <ele>6.3</ele>
        <time>2020-06-23T11:34:51Z</time>
      </trkpt>
      <trkpt lat="51.07542" lon="2.51432">
        <ele>6.4</ele>
        <time>2020-06-23T11:34:52Z</time>
      </trkpt>
      <trkpt lat="51.07547" lon="2.5143">
        <ele>6.4</ele>
        <time>2020-06-23T11:34:53Z</time>
      </trkpt>
      <trkpt lat="51.07553" lon="2.51428">
        <ele>6.4</ele>
        <time>2020-06-23T11:34:54Z</time>
      </trkpt>
      <trkpt lat="51.07558" lon="2.51426">
        <ele>6.4</ele>
        <time>2020-06-23T11:34:55Z</time>
      </trkpt>
      <trkpt lat="51.07564" lon="2.51424">
        <ele>6.4</ele>
        <time>2020-06-23T11:34:56Z</time>
      </trkpt>
      <trkpt lat="51.07569" lon="2.51421">
        <ele>6.4</ele>
        <time>2020-06-23T11:34:57Z</time>
      </trkpt>
      <trkpt lat="51.07575" lon="2.51419">
        <ele>6.3</ele>
        <time>2020-06-23T11:34:58Z</time>
      </trkpt>
      <trkpt lat="51.07581" lon="2.51417">
        <ele>6.3</ele>
        <time>2020-06-23T11:34:59Z</time>
      </trkpt>
      <trkpt lat="51.07587" lon="2.51415">
        <ele>6.2</ele>
        <time>2020-06-23T11:35:00Z</time>
      </trkpt>
      <trkpt lat="51.07593" lon="2.51413">
        <ele>6.1</ele>
        <time>2020-06-23T11:35:01Z</time>
      </trkpt>
      <trkpt lat="51.07599" lon="2.5141">
        <ele>6.1</ele>
        <time>2020-06-23T11:35:02Z</time>
      </trkpt>
      <trkpt lat="51.07605" lon="2.51407">
        <ele>6.1</ele>
        <time>2020-06-23T11:35:03Z</time>
      </trkpt>
      <trkpt lat="51.0761" lon="2.51405">
        <ele>6.1</ele>
        <time>2020-06-23T11:35:04Z</time>
      </trkpt>
      <trkpt lat="51.07615" lon="2.51403">
        <ele>6.1</ele>
        <time>2020-06-23T11:35:05Z</time>
      </trkpt>
      <trkpt lat="51.07621" lon="2.51401">
        <ele>6.1</ele>
        <time>2020-06-23T11:35:06Z</time>
      </trkpt>
      <trkpt lat="51.07627" lon="2.51399">
        <ele>6.1</ele>
        <time>2020-06-23T11:35:07Z</time>
      </trkpt>
      <trkpt lat="51.07634" lon="2.51396">
        <ele>6.1</ele>
        <time>2020-06-23T11:35:08Z</time>
      </trkpt>
      <trkpt lat="51.07639" lon="2.51394">
        <ele>6.1</ele>
        <time>2020-06-23T11:35:09Z</time>
      </trkpt>
      <trkpt lat="51.07644" lon="2.51393">
        <ele>6.1</ele>
        <time>2020-06-23T11:35:10Z</time>
      </trkpt>
      <trkpt lat="51.07649" lon="2.51391">
        <ele>6.1</ele>
        <time>2020-06-23T11:35:11Z</time>
      </trkpt>
      <trkpt lat="51.07654" lon="2.51389">
        <ele>6.2</ele>
        <time>2020-06-23T11:35:12Z</time>
      </trkpt>
      <trkpt lat="51.07659" lon="2.51386">
        <ele>6.2</ele>
        <time>2020-06-23T11:35:13Z</time>
      </trkpt>
      <trkpt lat="51.07664" lon="2.51383">
        <ele>6.2</ele>
        <time>2020-06-23T11:35:14Z</time>
      </trkpt>
      <trkpt lat="51.07669" lon="2.51382">
        <ele>6.3</ele>
        <time>2020-06-23T11:35:15Z</time>
      </trkpt>
      <trkpt lat="51.07674" lon="2.5138">
        <ele>6.4</ele>
        <time>2020-06-23T11:35:16Z</time>
      </trkpt>
      <trkpt lat="51.0768" lon="2.51378">
        <ele>6.4</ele>
        <time>2020-06-23T11:35:17Z</time>
      </trkpt>
      <trkpt lat="51.07682" lon="2.51377">
        <ele>6.5</ele>
        <time>2020-06-23T11:35:18Z</time>
      </trkpt>
      <trkpt lat="51.07688" lon="2.51375">
        <ele>6.5</ele>
        <time>2020-06-23T11:35:19Z</time>
      </trkpt>
      <trkpt lat="51.07692" lon="2.51374">
        <ele>6.5</ele>
        <time>2020-06-23T11:35:20Z</time>
      </trkpt>
      <trkpt lat="51.07697" lon="2.51372">
        <ele>6.6</ele>
        <time>2020-06-23T11:35:21Z</time>
      </trkpt>
      <trkpt lat="51.07702" lon="2.5137">
        <ele>6.6</ele>
        <time>2020-06-23T11:35:22Z</time>
      </trkpt>
      <trkpt lat="51.07705" lon="2.51368">
        <ele>6.6</ele>
        <time>2020-06-23T11:35:23Z</time>
      </trkpt>
      <trkpt lat="51.07709" lon="2.51366">
        <ele>6.7</ele>
        <time>2020-06-23T11:35:24Z</time>
      </trkpt>
      <trkpt lat="51.07714" lon="2.51364">
        <ele>6.7</ele>
        <time>2020-06-23T11:35:25Z</time>
      </trkpt>
      <trkpt lat="51.07718" lon="2.51362">
        <ele>6.7</ele>
        <time>2020-06-23T11:35:26Z</time>
      </trkpt>
      <trkpt lat="51.07723" lon="2.5136">
        <ele>6.8</ele>
        <time>2020-06-23T11:35:27Z</time>
      </trkpt>
      <trkpt lat="51.07729" lon="2.51359">
        <ele>6.8</ele>
        <time>2020-06-23T11:35:28Z</time>
      </trkpt>
      <trkpt lat="51.07734" lon="2.51358">
        <ele>6.8</ele>
        <time>2020-06-23T11:35:29Z</time>
      </trkpt>
      <trkpt lat="51.07742" lon="2.51356">
        <ele>6.8</ele>
        <time>2020-06-23T11:35:30Z</time>
      </trkpt>
      <trkpt lat="51.07748" lon="2.51355">
        <ele>6.8</ele>
        <time>2020-06-23T11:35:31Z</time>
      </trkpt>
      <trkpt lat="51.07754" lon="2.51352">
        <ele>6.9</ele>
        <time>2020-06-23T11:35:32Z</time>
      </trkpt>
      <trkpt lat="51.07759" lon="2.5135">
        <ele>6.9</ele>
        <time>2020-06-23T11:35:33Z</time>
      </trkpt>
      <trkpt lat="51.07763" lon="2.51349">
        <ele>6.9</ele>
        <time>2020-06-23T11:35:34Z</time>
      </trkpt>
      <trkpt lat="51.07767" lon="2.51347">
        <ele>7</ele>
        <time>2020-06-23T11:35:35Z</time>
      </trkpt>
      <trkpt lat="51.07772" lon="2.51345">
        <ele>7.1</ele>
        <time>2020-06-23T11:35:36Z</time>
      </trkpt>
      <trkpt lat="51.07776" lon="2.51343">
        <ele>7.1</ele>
        <time>2020-06-23T11:35:37Z</time>
      </trkpt>
      <trkpt lat="51.07781" lon="2.5134">
        <ele>7.3</ele>
        <time>2020-06-23T11:35:38Z</time>
      </trkpt>
      <trkpt lat="51.07786" lon="2.51338">
        <ele>7.4</ele>
        <time>2020-06-23T11:35:39Z</time>
      </trkpt>
      <trkpt lat="51.07792" lon="2.51337">
        <ele>7.5</ele>
        <time>2020-06-23T11:35:40Z</time>
      </trkpt>
      <trkpt lat="51.07798" lon="2.51335">
        <ele>7.7</ele>
        <time>2020-06-23T11:35:41Z</time>
      </trkpt>
      <trkpt lat="51.07804" lon="2.51333">
        <ele>7.8</ele>
        <time>2020-06-23T11:35:42Z</time>
      </trkpt>
      <trkpt lat="51.07809" lon="2.51331">
        <ele>7.9</ele>
        <time>2020-06-23T11:35:43Z</time>
      </trkpt>
      <trkpt lat="51.07813" lon="2.5133">
        <ele>8</ele>
        <time>2020-06-23T11:35:44Z</time>
      </trkpt>
      <trkpt lat="51.07819" lon="2.51328">
        <ele>8.1</ele>
        <time>2020-06-23T11:35:45Z</time>
      </trkpt>
      <trkpt lat="51.07824" lon="2.51327">
        <ele>8.2</ele>
        <time>2020-06-23T11:35:46Z</time>
      </trkpt>
      <trkpt lat="51.07828" lon="2.51327">
        <ele>8.4</ele>
        <time>2020-06-23T11:35:47Z</time>
      </trkpt>
      <trkpt lat="51.07833" lon="2.51328">
        <ele>8.3</ele>
        <time>2020-06-23T11:35:48Z</time>
      </trkpt>
      <trkpt lat="51.07837" lon="2.51328">
        <ele>8.3</ele>
        <time>2020-06-23T11:35:49Z</time>
      </trkpt>
      <trkpt lat="51.07841" lon="2.51328">
        <ele>8.2</ele>
        <time>2020-06-23T11:35:50Z</time>
      </trkpt>
      <trkpt lat="51.07843" lon="2.51327">
        <ele>8.2</ele>
        <time>2020-06-23T11:35:51Z</time>
      </trkpt>
      <trkpt lat="51.07846" lon="2.51326">
        <ele>8.2</ele>
        <time>2020-06-23T11:35:52Z</time>
      </trkpt>
      <trkpt lat="51.07847" lon="2.51325">
        <ele>8.2</ele>
        <time>2020-06-23T11:35:53Z</time>
      </trkpt>
      <trkpt lat="51.0785" lon="2.51323">
        <ele>8.1</ele>
        <time>2020-06-23T11:35:54Z</time>
      </trkpt>
      <trkpt lat="51.07851" lon="2.51321">
        <ele>8.1</ele>
        <time>2020-06-23T11:35:55Z</time>
      </trkpt>
      <trkpt lat="51.07853" lon="2.51317">
        <ele>8.1</ele>
        <time>2020-06-23T11:35:56Z</time>
      </trkpt>
      <trkpt lat="51.07856" lon="2.51316">
        <ele>8</ele>
        <time>2020-06-23T11:35:57Z</time>
      </trkpt>
      <trkpt lat="51.07857" lon="2.51316">
        <ele>8</ele>
        <time>2020-06-23T11:35:58Z</time>
      </trkpt>
      <trkpt lat="51.07861" lon="2.51314">
        <ele>8</ele>
        <time>2020-06-23T11:35:59Z</time>
      </trkpt>
      <trkpt lat="51.07862" lon="2.51313">
        <ele>8</ele>
        <time>2020-06-23T11:36:00Z</time>
      </trkpt>
      <trkpt lat="51.07866" lon="2.51312">
        <ele>8</ele>
        <time>2020-06-23T11:36:01Z</time>
      </trkpt>
      <trkpt lat="51.07867" lon="2.51311">
        <ele>8</ele>
        <time>2020-06-23T11:36:02Z</time>
      </trkpt>
      <trkpt lat="51.0787" lon="2.51311">
        <ele>8</ele>
        <time>2020-06-23T11:36:03Z</time>
      </trkpt>
      <trkpt lat="51.0787" lon="2.51311">
        <ele>8</ele>
        <time>2020-06-23T11:36:04Z</time>
      </trkpt>
      <trkpt lat="51.07873" lon="2.5131">
        <ele>8</ele>
        <time>2020-06-23T11:36:05Z</time>
      </trkpt>
      <trkpt lat="51.07877" lon="2.51307">
        <ele>8</ele>
        <time>2020-06-23T11:36:06Z</time>
      </trkpt>
      <trkpt lat="51.07879" lon="2.51306">
        <ele>7.9</ele>
        <time>2020-06-23T11:36:07Z</time>
      </trkpt>
      <trkpt lat="51.07882" lon="2.51303">
        <ele>7.9</ele>
        <time>2020-06-23T11:36:08Z</time>
      </trkpt>
      <trkpt lat="51.07886" lon="2.51301">
        <ele>7.9</ele>
        <time>2020-06-23T11:36:09Z</time>
      </trkpt>
      <trkpt lat="51.07889" lon="2.51298">
        <ele>7.9</ele>
        <time>2020-06-23T11:36:10Z</time>
      </trkpt>
      <trkpt lat="51.07891" lon="2.51297">
        <ele>7.9</ele>
        <time>2020-06-23T11:36:11Z</time>
      </trkpt>
      <trkpt lat="51.07892" lon="2.51296">
        <ele>7.9</ele>
        <time>2020-06-23T11:36:12Z</time>
      </trkpt>
      <trkpt lat="51.07892" lon="2.51295">
        <ele>7.9</ele>
        <time>2020-06-23T11:36:13Z</time>
      </trkpt>
      <trkpt lat="51.07894" lon="2.51295">
        <ele>7.9</ele>
        <time>2020-06-23T11:36:14Z</time>
      </trkpt>
      <trkpt lat="51.07896" lon="2.51295">
        <ele>7.9</ele>
        <time>2020-06-23T11:36:15Z</time>
      </trkpt>
      <trkpt lat="51.07897" lon="2.51295">
        <ele>7.9</ele>
        <time>2020-06-23T11:36:16Z</time>
      </trkpt>
      <trkpt lat="51.079" lon="2.51295">
        <ele>7.9</ele>
        <time>2020-06-23T11:36:17Z</time>
      </trkpt>
      <trkpt lat="51.07901" lon="2.51295">
        <ele>7.8</ele>
        <time>2020-06-23T11:36:18Z</time>
      </trkpt>
      <trkpt lat="51.07902" lon="2.51295">
        <ele>7.8</ele>
        <time>2020-06-23T11:36:19Z</time>
      </trkpt>
      <trkpt lat="51.07904" lon="2.51293">
        <ele>7.8</ele>
        <time>2020-06-23T11:36:20Z</time>
      </trkpt>
      <trkpt lat="51.07904" lon="2.51293">
        <ele>7.8</ele>
        <time>2020-06-23T11:36:21Z</time>
      </trkpt>
      <trkpt lat="51.07905" lon="2.51292">
        <ele>7.8</ele>
        <time>2020-06-23T11:36:22Z</time>
      </trkpt>
      <trkpt lat="51.07907" lon="2.5129">
        <ele>7.8</ele>
        <time>2020-06-23T11:36:23Z</time>
      </trkpt>
      <trkpt lat="51.07908" lon="2.51289">
        <ele>7.8</ele>
        <time>2020-06-23T11:36:24Z</time>
      </trkpt>
      <trkpt lat="51.07909" lon="2.51288">
        <ele>7.8</ele>
        <time>2020-06-23T11:36:25Z</time>
      </trkpt>
      <trkpt lat="51.07911" lon="2.51286">
        <ele>7.8</ele>
        <time>2020-06-23T11:36:26Z</time>
      </trkpt>
      <trkpt lat="51.07912" lon="2.51285">
        <ele>7.8</ele>
        <time>2020-06-23T11:36:27Z</time>
      </trkpt>
      <trkpt lat="51.07913" lon="2.51285">
        <ele>7.8</ele>
        <time>2020-06-23T11:36:28Z</time>
      </trkpt>
      <trkpt lat="51.07915" lon="2.51283">
        <ele>7.8</ele>
        <time>2020-06-23T11:36:29Z</time>
      </trkpt>
      <trkpt lat="51.07915" lon="2.51282">
        <ele>7.8</ele>
        <time>2020-06-23T11:36:30Z</time>
      </trkpt>
      <trkpt lat="51.07916" lon="2.51281">
        <ele>7.8</ele>
        <time>2020-06-23T11:36:31Z</time>
      </trkpt>
      <trkpt lat="51.07917" lon="2.5128">
        <ele>7.8</ele>
        <time>2020-06-23T11:36:32Z</time>
      </trkpt>
      <trkpt lat="51.07917" lon="2.5128">
        <ele>7.7</ele>
        <time>2020-06-23T11:36:33Z</time>
      </trkpt>
      <trkpt lat="51.07917" lon="2.5128">
        <ele>7.7</ele>
        <time>2020-06-23T11:36:34Z</time>
      </trkpt>
      <trkpt lat="51.07916" lon="2.51281">
        <ele>7.7</ele>
        <time>2020-06-23T11:36:35Z</time>
      </trkpt>
      <trkpt lat="51.07916" lon="2.51281">
        <ele>7.7</ele>
        <time>2020-06-23T11:36:36Z</time>
      </trkpt>
      <trkpt lat="51.07917" lon="2.5128">
        <ele>7.7</ele>
        <time>2020-06-23T11:36:37Z</time>
      </trkpt>
      <trkpt lat="51.07917" lon="2.5128">
        <ele>7.7</ele>
        <time>2020-06-23T11:36:38Z</time>
      </trkpt>
      <trkpt lat="51.07917" lon="2.51279">
        <ele>7.7</ele>
        <time>2020-06-23T11:36:39Z</time>
      </trkpt>
      <trkpt lat="51.07917" lon="2.5128">
        <ele>7.7</ele>
        <time>2020-06-23T11:36:40Z</time>
      </trkpt>
      <trkpt lat="51.07917" lon="2.5128">
        <ele>7.7</ele>
        <time>2020-06-23T11:36:41Z</time>
      </trkpt>
      <trkpt lat="51.07917" lon="2.5128">
        <ele>7.7</ele>
        <time>2020-06-23T11:36:42Z</time>
      </trkpt>
      <trkpt lat="51.07917" lon="2.5128">
        <ele>7.7</ele>
        <time>2020-06-23T11:36:43Z</time>
      </trkpt>
      <trkpt lat="51.07917" lon="2.51279">
        <ele>7.7</ele>
        <time>2020-06-23T11:36:44Z</time>
      </trkpt>
      <trkpt lat="51.07917" lon="2.51279">
        <ele>7.7</ele>
        <time>2020-06-23T11:36:45Z</time>
      </trkpt>
      <trkpt lat="51.07917" lon="2.51279">
        <ele>7.7</ele>
        <time>2020-06-23T11:36:46Z</time>
      </trkpt>
      <trkpt lat="51.07917" lon="2.51279">
        <ele>7.7</ele>
        <time>2020-06-23T11:36:47Z</time>
      </trkpt>
      <trkpt lat="51.07917" lon="2.51279">
        <ele>7.7</ele>
        <time>2020-06-23T11:36:48Z</time>
      </trkpt>
      <trkpt lat="51.07917" lon="2.51279">
        <ele>7.7</ele>
        <time>2020-06-23T11:36:49Z</time>
      </trkpt>
      <trkpt lat="51.07912" lon="2.51279">
        <ele>7.7</ele>
        <time>2020-06-23T11:43:38Z</time>
      </trkpt>
      <trkpt lat="51.0791" lon="2.5128">
        <ele>7.7</ele>
        <time>2020-06-23T11:43:39Z</time>
      </trkpt>
      <trkpt lat="51.07907" lon="2.51281">
        <ele>7.8</ele>
        <time>2020-06-23T11:43:40Z</time>
      </trkpt>
      <trkpt lat="51.07905" lon="2.51281">
        <ele>7.7</ele>
        <time>2020-06-23T11:43:41Z</time>
      </trkpt>
      <trkpt lat="51.07902" lon="2.51285">
        <ele>7.7</ele>
        <time>2020-06-23T11:43:42Z</time>
      </trkpt>
      <trkpt lat="51.07898" lon="2.51288">
        <ele>7.7</ele>
        <time>2020-06-23T11:43:43Z</time>
      </trkpt>
      <trkpt lat="51.07895" lon="2.51289">
        <ele>7.7</ele>
        <time>2020-06-23T11:43:44Z</time>
      </trkpt>
      <trkpt lat="51.07892" lon="2.51291">
        <ele>7.8</ele>
        <time>2020-06-23T11:43:45Z</time>
      </trkpt>
      <trkpt lat="51.07888" lon="2.51293">
        <ele>7.8</ele>
        <time>2020-06-23T11:43:46Z</time>
      </trkpt>
      <trkpt lat="51.07887" lon="2.51293">
        <ele>7.8</ele>
        <time>2020-06-23T11:43:47Z</time>
      </trkpt>
      <trkpt lat="51.07884" lon="2.51295">
        <ele>7.9</ele>
        <time>2020-06-23T11:43:48Z</time>
      </trkpt>
      <trkpt lat="51.07883" lon="2.51296">
        <ele>7.9</ele>
        <time>2020-06-23T11:43:49Z</time>
      </trkpt>
      <trkpt lat="51.07879" lon="2.51297">
        <ele>7.9</ele>
        <time>2020-06-23T11:43:50Z</time>
      </trkpt>
      <trkpt lat="51.07878" lon="2.51297">
        <ele>7.9</ele>
        <time>2020-06-23T11:43:51Z</time>
      </trkpt>
      <trkpt lat="51.07875" lon="2.51299">
        <ele>7.9</ele>
        <time>2020-06-23T11:43:52Z</time>
      </trkpt>
      <trkpt lat="51.07871" lon="2.51299">
        <ele>7.9</ele>
        <time>2020-06-23T11:43:53Z</time>
      </trkpt>
      <trkpt lat="51.0787" lon="2.51299">
        <ele>7.9</ele>
        <time>2020-06-23T11:43:54Z</time>
      </trkpt>
      <trkpt lat="51.07866" lon="2.51301">
        <ele>8</ele>
        <time>2020-06-23T11:43:55Z</time>
      </trkpt>
      <trkpt lat="51.07863" lon="2.51302">
        <ele>8</ele>
        <time>2020-06-23T11:43:56Z</time>
      </trkpt>
      <trkpt lat="51.07859" lon="2.51304">
        <ele>8</ele>
        <time>2020-06-23T11:43:57Z</time>
      </trkpt>
      <trkpt lat="51.07855" lon="2.51305">
        <ele>8</ele>
        <time>2020-06-23T11:43:58Z</time>
      </trkpt>
      <trkpt lat="51.07852" lon="2.51307">
        <ele>8</ele>
        <time>2020-06-23T11:43:59Z</time>
      </trkpt>
      <trkpt lat="51.07848" lon="2.51309">
        <ele>8.1</ele>
        <time>2020-06-23T11:44:00Z</time>
      </trkpt>
      <trkpt lat="51.07843" lon="2.51309">
        <ele>8.2</ele>
        <time>2020-06-23T11:44:01Z</time>
      </trkpt>
      <trkpt lat="51.07841" lon="2.5131">
        <ele>8.2</ele>
        <time>2020-06-23T11:44:02Z</time>
      </trkpt>
      <trkpt lat="51.07838" lon="2.51311">
        <ele>8.2</ele>
        <time>2020-06-23T11:44:03Z</time>
      </trkpt>
      <trkpt lat="51.07837" lon="2.51311">
        <ele>8.3</ele>
        <time>2020-06-23T11:44:04Z</time>
      </trkpt>
      <trkpt lat="51.07835" lon="2.51311">
        <ele>8.3</ele>
        <time>2020-06-23T11:44:05Z</time>
      </trkpt>
      <trkpt lat="51.07834" lon="2.5131">
        <ele>8.3</ele>
        <time>2020-06-23T11:44:06Z</time>
      </trkpt>
      <trkpt lat="51.07832" lon="2.5131">
        <ele>8.4</ele>
        <time>2020-06-23T11:44:07Z</time>
      </trkpt>
      <trkpt lat="51.07831" lon="2.5131">
        <ele>8.4</ele>
        <time>2020-06-23T11:44:08Z</time>
      </trkpt>
      <trkpt lat="51.0783" lon="2.5131">
        <ele>8.4</ele>
        <time>2020-06-23T11:44:09Z</time>
      </trkpt>
      <trkpt lat="51.07828" lon="2.51311">
        <ele>8.4</ele>
        <time>2020-06-23T11:44:10Z</time>
      </trkpt>
      <trkpt lat="51.07825" lon="2.51312">
        <ele>8.4</ele>
        <time>2020-06-23T11:44:11Z</time>
      </trkpt>
      <trkpt lat="51.07821" lon="2.51313">
        <ele>8.2</ele>
        <time>2020-06-23T11:44:12Z</time>
      </trkpt>
      <trkpt lat="51.07817" lon="2.51314">
        <ele>8.1</ele>
        <time>2020-06-23T11:44:13Z</time>
      </trkpt>
      <trkpt lat="51.07814" lon="2.51316">
        <ele>8</ele>
        <time>2020-06-23T11:44:14Z</time>
      </trkpt>
      <trkpt lat="51.07809" lon="2.51318">
        <ele>7.9</ele>
        <time>2020-06-23T11:44:15Z</time>
      </trkpt>
      <trkpt lat="51.07806" lon="2.5132">
        <ele>7.9</ele>
        <time>2020-06-23T11:44:16Z</time>
      </trkpt>
      <trkpt lat="51.07803" lon="2.51322">
        <ele>7.8</ele>
        <time>2020-06-23T11:44:17Z</time>
      </trkpt>
      <trkpt lat="51.07799" lon="2.51325">
        <ele>7.7</ele>
        <time>2020-06-23T11:44:18Z</time>
      </trkpt>
      <trkpt lat="51.07795" lon="2.51327">
        <ele>7.6</ele>
        <time>2020-06-23T11:44:19Z</time>
      </trkpt>
      <trkpt lat="51.07791" lon="2.51329">
        <ele>7.5</ele>
        <time>2020-06-23T11:44:20Z</time>
      </trkpt>
      <trkpt lat="51.07786" lon="2.51333">
        <ele>7.4</ele>
        <time>2020-06-23T11:44:21Z</time>
      </trkpt>
      <trkpt lat="51.07782" lon="2.51334">
        <ele>7.3</ele>
        <time>2020-06-23T11:44:22Z</time>
      </trkpt>
      <trkpt lat="51.07778" lon="2.51336">
        <ele>7.2</ele>
        <time>2020-06-23T11:44:23Z</time>
      </trkpt>
      <trkpt lat="51.07774" lon="2.51337">
        <ele>7.1</ele>
        <time>2020-06-23T11:44:24Z</time>
      </trkpt>
      <trkpt lat="51.07772" lon="2.5134">
        <ele>7.1</ele>
        <time>2020-06-23T11:44:25Z</time>
      </trkpt>
      <trkpt lat="51.07768" lon="2.51344">
        <ele>7</ele>
        <time>2020-06-23T11:44:26Z</time>
      </trkpt>
      <trkpt lat="51.07765" lon="2.51344">
        <ele>6.9</ele>
        <time>2020-06-23T11:44:27Z</time>
      </trkpt>
      <trkpt lat="51.07761" lon="2.51344">
        <ele>6.9</ele>
        <time>2020-06-23T11:44:28Z</time>
      </trkpt>
      <trkpt lat="51.07757" lon="2.51346">
        <ele>6.9</ele>
        <time>2020-06-23T11:44:29Z</time>
      </trkpt>
      <trkpt lat="51.07753" lon="2.51347">
        <ele>6.9</ele>
        <time>2020-06-23T11:44:30Z</time>
      </trkpt>
      <trkpt lat="51.07749" lon="2.51349">
        <ele>6.9</ele>
        <time>2020-06-23T11:44:31Z</time>
      </trkpt>
      <trkpt lat="51.07744" lon="2.5135">
        <ele>6.8</ele>
        <time>2020-06-23T11:44:32Z</time>
      </trkpt>
      <trkpt lat="51.0774" lon="2.51351">
        <ele>6.8</ele>
        <time>2020-06-23T11:44:33Z</time>
      </trkpt>
      <trkpt lat="51.07736" lon="2.51352">
        <ele>6.8</ele>
        <time>2020-06-23T11:44:34Z</time>
      </trkpt>
      <trkpt lat="51.07732" lon="2.51353">
        <ele>6.8</ele>
        <time>2020-06-23T11:44:35Z</time>
      </trkpt>
      <trkpt lat="51.07727" lon="2.51354">
        <ele>6.8</ele>
        <time>2020-06-23T11:44:36Z</time>
      </trkpt>
      <trkpt lat="51.07723" lon="2.51356">
        <ele>6.8</ele>
        <time>2020-06-23T11:44:37Z</time>
      </trkpt>
      <trkpt lat="51.07719" lon="2.51358">
        <ele>6.8</ele>
        <time>2020-06-23T11:44:38Z</time>
      </trkpt>
      <trkpt lat="51.07715" lon="2.51359">
        <ele>6.7</ele>
        <time>2020-06-23T11:44:39Z</time>
      </trkpt>
      <trkpt lat="51.07711" lon="2.51363">
        <ele>6.7</ele>
        <time>2020-06-23T11:44:40Z</time>
      </trkpt>
      <trkpt lat="51.07705" lon="2.51367">
        <ele>6.6</ele>
        <time>2020-06-23T11:44:41Z</time>
      </trkpt>
      <trkpt lat="51.07701" lon="2.51369">
        <ele>6.6</ele>
        <time>2020-06-23T11:44:42Z</time>
      </trkpt>
      <trkpt lat="51.07696" lon="2.5137">
        <ele>6.6</ele>
        <time>2020-06-23T11:44:43Z</time>
      </trkpt>
      <trkpt lat="51.07692" lon="2.51373">
        <ele>6.5</ele>
        <time>2020-06-23T11:44:44Z</time>
      </trkpt>
      <trkpt lat="51.07688" lon="2.51374">
        <ele>6.5</ele>
        <time>2020-06-23T11:44:45Z</time>
      </trkpt>
      <trkpt lat="51.07684" lon="2.51375">
        <ele>6.5</ele>
        <time>2020-06-23T11:44:46Z</time>
      </trkpt>
      <trkpt lat="51.0768" lon="2.51378">
        <ele>6.4</ele>
        <time>2020-06-23T11:44:47Z</time>
      </trkpt>
      <trkpt lat="51.07675" lon="2.5138">
        <ele>6.4</ele>
        <time>2020-06-23T11:44:48Z</time>
      </trkpt>
      <trkpt lat="51.0767" lon="2.51381">
        <ele>6.3</ele>
        <time>2020-06-23T11:44:49Z</time>
      </trkpt>
      <trkpt lat="51.07665" lon="2.51382">
        <ele>6.3</ele>
        <time>2020-06-23T11:44:50Z</time>
      </trkpt>
      <trkpt lat="51.0766" lon="2.51383">
        <ele>6.2</ele>
        <time>2020-06-23T11:44:51Z</time>
      </trkpt>
      <trkpt lat="51.07657" lon="2.51385">
        <ele>6.2</ele>
        <time>2020-06-23T11:44:52Z</time>
      </trkpt>
      <trkpt lat="51.07653" lon="2.51387">
        <ele>6.1</ele>
        <time>2020-06-23T11:44:53Z</time>
      </trkpt>
      <trkpt lat="51.07649" lon="2.51389">
        <ele>6.1</ele>
        <time>2020-06-23T11:44:54Z</time>
      </trkpt>
      <trkpt lat="51.07646" lon="2.51391">
        <ele>6.1</ele>
        <time>2020-06-23T11:44:55Z</time>
      </trkpt>
      <trkpt lat="51.07642" lon="2.51391">
        <ele>6.1</ele>
        <time>2020-06-23T11:44:56Z</time>
      </trkpt>
      <trkpt lat="51.07637" lon="2.51391">
        <ele>6.1</ele>
        <time>2020-06-23T11:44:57Z</time>
      </trkpt>
      <trkpt lat="51.07633" lon="2.51393">
        <ele>6.1</ele>
        <time>2020-06-23T11:44:58Z</time>
      </trkpt>
      <trkpt lat="51.07629" lon="2.51393">
        <ele>6.1</ele>
        <time>2020-06-23T11:44:59Z</time>
      </trkpt>
      <trkpt lat="51.07625" lon="2.51394">
        <ele>6.1</ele>
        <time>2020-06-23T11:45:00Z</time>
      </trkpt>
      <trkpt lat="51.07622" lon="2.51395">
        <ele>6.1</ele>
        <time>2020-06-23T11:45:01Z</time>
      </trkpt>
      <trkpt lat="51.07618" lon="2.51396">
        <ele>6.1</ele>
        <time>2020-06-23T11:45:02Z</time>
      </trkpt>
      <trkpt lat="51.07614" lon="2.51397">
        <ele>6.1</ele>
        <time>2020-06-23T11:45:03Z</time>
      </trkpt>
      <trkpt lat="51.07611" lon="2.51399">
        <ele>6.1</ele>
        <time>2020-06-23T11:45:04Z</time>
      </trkpt>
      <trkpt lat="51.07607" lon="2.51399">
        <ele>6.1</ele>
        <time>2020-06-23T11:45:05Z</time>
      </trkpt>
      <trkpt lat="51.07604" lon="2.514">
        <ele>6.1</ele>
        <time>2020-06-23T11:45:06Z</time>
      </trkpt>
      <trkpt lat="51.07602" lon="2.51402">
        <ele>6.1</ele>
        <time>2020-06-23T11:45:07Z</time>
      </trkpt>
      <trkpt lat="51.07598" lon="2.51403">
        <ele>6.1</ele>
        <time>2020-06-23T11:45:08Z</time>
      </trkpt>
      <trkpt lat="51.07594" lon="2.51404">
        <ele>6.1</ele>
        <time>2020-06-23T11:45:09Z</time>
      </trkpt>
      <trkpt lat="51.0759" lon="2.51403">
        <ele>6.1</ele>
        <time>2020-06-23T11:45:10Z</time>
      </trkpt>
      <trkpt lat="51.07586" lon="2.51404">
        <ele>6.2</ele>
        <time>2020-06-23T11:45:11Z</time>
      </trkpt>
      <trkpt lat="51.07583" lon="2.51405">
        <ele>6.2</ele>
        <time>2020-06-23T11:45:12Z</time>
      </trkpt>
      <trkpt lat="51.0758" lon="2.51406">
        <ele>6.2</ele>
        <time>2020-06-23T11:45:13Z</time>
      </trkpt>
      <trkpt lat="51.07577" lon="2.51409">
        <ele>6.3</ele>
        <time>2020-06-23T11:45:14Z</time>
      </trkpt>
      <trkpt lat="51.07575" lon="2.51411">
        <ele>6.3</ele>
        <time>2020-06-23T11:45:15Z</time>
      </trkpt>
      <trkpt lat="51.07571" lon="2.51413">
        <ele>6.3</ele>
        <time>2020-06-23T11:45:16Z</time>
      </trkpt>
      <trkpt lat="51.0757" lon="2.51415">
        <ele>6.4</ele>
        <time>2020-06-23T11:45:17Z</time>
      </trkpt>
      <trkpt lat="51.07568" lon="2.51416">
        <ele>6.4</ele>
        <time>2020-06-23T11:45:18Z</time>
      </trkpt>
      <trkpt lat="51.07568" lon="2.51416">
        <ele>6.4</ele>
        <time>2020-06-23T11:45:19Z</time>
      </trkpt>
      <trkpt lat="51.07567" lon="2.51416">
        <ele>6.4</ele>
        <time>2020-06-23T11:45:20Z</time>
      </trkpt>
      <trkpt lat="51.07567" lon="2.51416">
        <ele>6.4</ele>
        <time>2020-06-23T11:45:21Z</time>
      </trkpt>
      <trkpt lat="51.07564" lon="2.51415">
        <ele>6.4</ele>
        <time>2020-06-23T11:45:22Z</time>
      </trkpt>
      <trkpt lat="51.07562" lon="2.51415">
        <ele>6.4</ele>
        <time>2020-06-23T11:45:23Z</time>
      </trkpt>
      <trkpt lat="51.07561" lon="2.51415">
        <ele>6.4</ele>
        <time>2020-06-23T11:45:24Z</time>
      </trkpt>
      <trkpt lat="51.07561" lon="2.51415">
        <ele>6.4</ele>
        <time>2020-06-23T11:45:25Z</time>
      </trkpt>
      <trkpt lat="51.07561" lon="2.51415">
        <ele>6.4</ele>
        <time>2020-06-23T11:45:26Z</time>
      </trkpt>
      <trkpt lat="51.0756" lon="2.51415">
        <ele>6.4</ele>
        <time>2020-06-23T11:45:27Z</time>
      </trkpt>
      <trkpt lat="51.0756" lon="2.51415">
        <ele>6.4</ele>
        <time>2020-06-23T11:45:28Z</time>
      </trkpt>
      <trkpt lat="51.0756" lon="2.51415">
        <ele>6.4</ele>
        <time>2020-06-23T11:45:29Z</time>
      </trkpt>
      <trkpt lat="51.07559" lon="2.51416">
        <ele>6.4</ele>
        <time>2020-06-23T11:45:30Z</time>
      </trkpt>
      <trkpt lat="51.07559" lon="2.51417">
        <ele>6.4</ele>
        <time>2020-06-23T11:45:31Z</time>
      </trkpt>
      <trkpt lat="51.07559" lon="2.51418">
        <ele>6.4</ele>
        <time>2020-06-23T11:45:32Z</time>
      </trkpt>
      <trkpt lat="51.07559" lon="2.51419">
        <ele>6.4</ele>
        <time>2020-06-23T11:45:33Z</time>
      </trkpt>
      <trkpt lat="51.07559" lon="2.5142">
        <ele>6.4</ele>
        <time>2020-06-23T11:45:34Z</time>
      </trkpt>
      <trkpt lat="51.07558" lon="2.51421">
        <ele>6.4</ele>
        <time>2020-06-23T11:45:35Z</time>
      </trkpt>
      <trkpt lat="51.07558" lon="2.51422">
        <ele>6.4</ele>
        <time>2020-06-23T11:45:36Z</time>
      </trkpt>
      <trkpt lat="51.07558" lon="2.51428">
        <ele>6.3</ele>
        <time>2020-06-23T11:45:37Z</time>
      </trkpt>
      <trkpt lat="51.07558" lon="2.51429">
        <ele>6.3</ele>
        <time>2020-06-23T11:45:38Z</time>
      </trkpt>
      <trkpt lat="51.0756" lon="2.51437">
        <ele>6.1</ele>
        <time>2020-06-23T11:45:39Z</time>
      </trkpt>
      <trkpt lat="51.0756" lon="2.51442">
        <ele>6.1</ele>
        <time>2020-06-23T11:45:40Z</time>
      </trkpt>
      <trkpt lat="51.07561" lon="2.51451">
        <ele>5.9</ele>
        <time>2020-06-23T11:45:41Z</time>
      </trkpt>
      <trkpt lat="51.07564" lon="2.51459">
        <ele>5.8</ele>
        <time>2020-06-23T11:45:42Z</time>
      </trkpt>
      <trkpt lat="51.07566" lon="2.51465">
        <ele>5.6</ele>
        <time>2020-06-23T11:45:43Z</time>
      </trkpt>
      <trkpt lat="51.07569" lon="2.51473">
        <ele>5.5</ele>
        <time>2020-06-23T11:45:44Z</time>
      </trkpt>
      <trkpt lat="51.07571" lon="2.5148">
        <ele>5.4</ele>
        <time>2020-06-23T11:45:45Z</time>
      </trkpt>
      <trkpt lat="51.0757" lon="2.5149">
        <ele>5.3</ele>
        <time>2020-06-23T11:45:46Z</time>
      </trkpt>
      <trkpt lat="51.07572" lon="2.51497">
        <ele>5.2</ele>
        <time>2020-06-23T11:45:47Z</time>
      </trkpt>
      <trkpt lat="51.07574" lon="2.51503">
        <ele>5.2</ele>
        <time>2020-06-23T11:45:48Z</time>
      </trkpt>
      <trkpt lat="51.07576" lon="2.5151">
        <ele>5.2</ele>
        <time>2020-06-23T11:45:49Z</time>
      </trkpt>
      <trkpt lat="51.07577" lon="2.51517">
        <ele>5.2</ele>
        <time>2020-06-23T11:45:50Z</time>
      </trkpt>
      <trkpt lat="51.07579" lon="2.51524">
        <ele>5.2</ele>
        <time>2020-06-23T11:45:51Z</time>
      </trkpt>
      <trkpt lat="51.0758" lon="2.51531">
        <ele>5.2</ele>
        <time>2020-06-23T11:45:52Z</time>
      </trkpt>
      <trkpt lat="51.07581" lon="2.51538">
        <ele>5.2</ele>
        <time>2020-06-23T11:45:53Z</time>
      </trkpt>
      <trkpt lat="51.07583" lon="2.51545">
        <ele>5.2</ele>
        <time>2020-06-23T11:45:54Z</time>
      </trkpt>
      <trkpt lat="51.07583" lon="2.51552">
        <ele>5.2</ele>
        <time>2020-06-23T11:45:55Z</time>
      </trkpt>
      <trkpt lat="51.07586" lon="2.51556">
        <ele>5.2</ele>
        <time>2020-06-23T11:45:56Z</time>
      </trkpt>
      <trkpt lat="51.07587" lon="2.51561">
        <ele>5.2</ele>
        <time>2020-06-23T11:45:57Z</time>
      </trkpt>
      <trkpt lat="51.07588" lon="2.51567">
        <ele>5.2</ele>
        <time>2020-06-23T11:45:58Z</time>
      </trkpt>
      <trkpt lat="51.07589" lon="2.51572">
        <ele>5.2</ele>
        <time>2020-06-23T11:45:59Z</time>
      </trkpt>
      <trkpt lat="51.07589" lon="2.5158">
        <ele>5.2</ele>
        <time>2020-06-23T11:46:00Z</time>
      </trkpt>
      <trkpt lat="51.07591" lon="2.51585">
        <ele>5.2</ele>
        <time>2020-06-23T11:46:01Z</time>
      </trkpt>
      <trkpt lat="51.07591" lon="2.51591">
        <ele>5.2</ele>
        <time>2020-06-23T11:46:02Z</time>
      </trkpt>
      <trkpt lat="51.07592" lon="2.51599">
        <ele>5.3</ele>
        <time>2020-06-23T11:46:03Z</time>
      </trkpt>
      <trkpt lat="51.07594" lon="2.51603">
        <ele>5.3</ele>
        <time>2020-06-23T11:46:04Z</time>
      </trkpt>
      <trkpt lat="51.07595" lon="2.51608">
        <ele>5.3</ele>
        <time>2020-06-23T11:46:05Z</time>
      </trkpt>
      <trkpt lat="51.07596" lon="2.51614">
        <ele>5.3</ele>
        <time>2020-06-23T11:46:06Z</time>
      </trkpt>
      <trkpt lat="51.07597" lon="2.51618">
        <ele>5.3</ele>
        <time>2020-06-23T11:46:07Z</time>
      </trkpt>
      <trkpt lat="51.07597" lon="2.51623">
        <ele>5.3</ele>
        <time>2020-06-23T11:46:08Z</time>
      </trkpt>
      <trkpt lat="51.07597" lon="2.51624">
        <ele>5.3</ele>
        <time>2020-06-23T11:46:09Z</time>
      </trkpt>
      <trkpt lat="51.07596" lon="2.51627">
        <ele>5.3</ele>
        <time>2020-06-23T11:46:10Z</time>
      </trkpt>
      <trkpt lat="51.07595" lon="2.51628">
        <ele>5.3</ele>
        <time>2020-06-23T11:46:11Z</time>
      </trkpt>
      <trkpt lat="51.07592" lon="2.51628">
        <ele>5.3</ele>
        <time>2020-06-23T11:46:12Z</time>
      </trkpt>
      <trkpt lat="51.07589" lon="2.51625">
        <ele>5.3</ele>
        <time>2020-06-23T11:46:13Z</time>
      </trkpt>
      <trkpt lat="51.07587" lon="2.51624">
        <ele>5.3</ele>
        <time>2020-06-23T11:46:14Z</time>
      </trkpt>
      <trkpt lat="51.07585" lon="2.51621">
        <ele>5.4</ele>
        <time>2020-06-23T11:46:15Z</time>
      </trkpt>
      <trkpt lat="51.07581" lon="2.51619">
        <ele>5.4</ele>
        <time>2020-06-23T11:46:16Z</time>
      </trkpt>
      <trkpt lat="51.07579" lon="2.51617">
        <ele>5.4</ele>
        <time>2020-06-23T11:46:17Z</time>
      </trkpt>
      <trkpt lat="51.07575" lon="2.51615">
        <ele>5.4</ele>
        <time>2020-06-23T11:46:18Z</time>
      </trkpt>
      <trkpt lat="51.07574" lon="2.51615">
        <ele>5.4</ele>
        <time>2020-06-23T11:46:19Z</time>
      </trkpt>
      <trkpt lat="51.07574" lon="2.51615">
        <ele>5.4</ele>
        <time>2020-06-23T11:46:20Z</time>
      </trkpt>
      <trkpt lat="51.07574" lon="2.51616">
        <ele>5.4</ele>
        <time>2020-06-23T11:46:21Z</time>
      </trkpt>
      <trkpt lat="51.07575" lon="2.51616">
        <ele>5.4</ele>
        <time>2020-06-23T11:46:22Z</time>
      </trkpt>
      <trkpt lat="51.07575" lon="2.51617">
        <ele>5.4</ele>
        <time>2020-06-23T11:46:23Z</time>
      </trkpt>
      <trkpt lat="51.07576" lon="2.51618">
        <ele>5.4</ele>
        <time>2020-06-23T11:46:24Z</time>
      </trkpt>
      <trkpt lat="51.07576" lon="2.51618">
        <ele>5.4</ele>
        <time>2020-06-23T11:46:25Z</time>
      </trkpt>
      <trkpt lat="51.07577" lon="2.51619">
        <ele>5.5</ele>
        <time>2020-06-23T11:46:26Z</time>
      </trkpt>
      <trkpt lat="51.07578" lon="2.51619">
        <ele>5.5</ele>
        <time>2020-06-23T11:46:27Z</time>
      </trkpt>
      <trkpt lat="51.07578" lon="2.5162">
        <ele>5.5</ele>
        <time>2020-06-23T11:46:28Z</time>
      </trkpt>
      <trkpt lat="51.07579" lon="2.51621">
        <ele>5.5</ele>
        <time>2020-06-23T11:46:29Z</time>
      </trkpt>
      <trkpt lat="51.07579" lon="2.51621">
        <ele>5.5</ele>
        <time>2020-06-23T11:46:30Z</time>
      </trkpt>
      <trkpt lat="51.0758" lon="2.51622">
        <ele>5.5</ele>
        <time>2020-06-23T11:46:31Z</time>
      </trkpt>
      <trkpt lat="51.0758" lon="2.51622">
        <ele>5.5</ele>
        <time>2020-06-23T11:47:27Z</time>
      </trkpt>
      <trkpt lat="51.07581" lon="2.51623">
        <ele>5.5</ele>
        <time>2020-06-23T11:47:28Z</time>
      </trkpt>
      <trkpt lat="51.07584" lon="2.51624">
        <ele>5.5</ele>
        <time>2020-06-23T11:47:29Z</time>
      </trkpt>
      <trkpt lat="51.07586" lon="2.51625">
        <ele>5.5</ele>
        <time>2020-06-23T11:47:30Z</time>
      </trkpt>
      <trkpt lat="51.07588" lon="2.51626">
        <ele>5.5</ele>
        <time>2020-06-23T11:47:31Z</time>
      </trkpt>
      <trkpt lat="51.07588" lon="2.51628">
        <ele>5.5</ele>
        <time>2020-06-23T11:47:32Z</time>
      </trkpt>
      <trkpt lat="51.07589" lon="2.51631">
        <ele>5.5</ele>
        <time>2020-06-23T11:47:33Z</time>
      </trkpt>
      <trkpt lat="51.07589" lon="2.51631">
        <ele>5.6</ele>
        <time>2020-06-23T11:47:34Z</time>
      </trkpt>
      <trkpt lat="51.07589" lon="2.51632">
        <ele>5.6</ele>
        <time>2020-06-23T11:47:35Z</time>
      </trkpt>
      <trkpt lat="51.07589" lon="2.51633">
        <ele>5.6</ele>
        <time>2020-06-23T11:47:36Z</time>
      </trkpt>
      <trkpt lat="51.07589" lon="2.51634">
        <ele>5.6</ele>
        <time>2020-06-23T11:47:37Z</time>
      </trkpt>
      <trkpt lat="51.07589" lon="2.51635">
        <ele>5.6</ele>
        <time>2020-06-23T11:47:38Z</time>
      </trkpt>
      <trkpt lat="51.07589" lon="2.51636">
        <ele>5.7</ele>
        <time>2020-06-23T11:47:39Z</time>
      </trkpt>
      <trkpt lat="51.07589" lon="2.51637">
        <ele>5.7</ele>
        <time>2020-06-23T11:47:40Z</time>
      </trkpt>
      <trkpt lat="51.07589" lon="2.51638">
        <ele>5.7</ele>
        <time>2020-06-23T11:47:41Z</time>
      </trkpt>
      <trkpt lat="51.07589" lon="2.51639">
        <ele>5.7</ele>
        <time>2020-06-23T11:47:42Z</time>
      </trkpt>
      <trkpt lat="51.07589" lon="2.5164">
        <ele>5.7</ele>
        <time>2020-06-23T11:47:43Z</time>
      </trkpt>
      <trkpt lat="51.07589" lon="2.51641">
        <ele>5.7</ele>
        <time>2020-06-23T11:47:44Z</time>
      </trkpt>
      <trkpt lat="51.07589" lon="2.51642">
        <ele>5.7</ele>
        <time>2020-06-23T11:48:33Z</time>
      </trkpt>
      <trkpt lat="51.07589" lon="2.51643">
        <ele>5.7</ele>
        <time>2020-06-23T11:48:34Z</time>
      </trkpt>
      <trkpt lat="51.07586" lon="2.51647">
        <ele>5.7</ele>
        <time>2020-06-23T11:48:35Z</time>
      </trkpt>
      <trkpt lat="51.07582" lon="2.5165">
        <ele>5.7</ele>
        <time>2020-06-23T11:48:36Z</time>
      </trkpt>
      <trkpt lat="51.07579" lon="2.51653">
        <ele>5.7</ele>
        <time>2020-06-23T11:48:37Z</time>
      </trkpt>
      <trkpt lat="51.07575" lon="2.51656">
        <ele>5.7</ele>
        <time>2020-06-23T11:48:38Z</time>
      </trkpt>
      <trkpt lat="51.07572" lon="2.51657">
        <ele>5.8</ele>
        <time>2020-06-23T11:48:39Z</time>
      </trkpt>
      <trkpt lat="51.07568" lon="2.5166">
        <ele>5.8</ele>
        <time>2020-06-23T11:48:40Z</time>
      </trkpt>
      <trkpt lat="51.07566" lon="2.51664">
        <ele>5.9</ele>
        <time>2020-06-23T11:48:41Z</time>
      </trkpt>
      <trkpt lat="51.07564" lon="2.51668">
        <ele>5.9</ele>
        <time>2020-06-23T11:48:42Z</time>
      </trkpt>
      <trkpt lat="51.07562" lon="2.51673">
        <ele>6</ele>
        <time>2020-06-23T11:48:43Z</time>
      </trkpt>
      <trkpt lat="51.0756" lon="2.51678">
        <ele>6</ele>
        <time>2020-06-23T11:48:44Z</time>
      </trkpt>
      <trkpt lat="51.07557" lon="2.51682">
        <ele>6.1</ele>
        <time>2020-06-23T11:48:45Z</time>
      </trkpt>
      <trkpt lat="51.07554" lon="2.51686">
        <ele>6.1</ele>
        <time>2020-06-23T11:48:46Z</time>
      </trkpt>
      <trkpt lat="51.0755" lon="2.51691">
        <ele>6.2</ele>
        <time>2020-06-23T11:48:47Z</time>
      </trkpt>
      <trkpt lat="51.07546" lon="2.51695">
        <ele>6.3</ele>
        <time>2020-06-23T11:48:48Z</time>
      </trkpt>
      <trkpt lat="51.07542" lon="2.51698">
        <ele>6.3</ele>
        <time>2020-06-23T11:48:49Z</time>
      </trkpt>
      <trkpt lat="51.07538" lon="2.51701">
        <ele>6.4</ele>
        <time>2020-06-23T11:48:50Z</time>
      </trkpt>
      <trkpt lat="51.07534" lon="2.51704">
        <ele>6.4</ele>
        <time>2020-06-23T11:48:51Z</time>
      </trkpt>
      <trkpt lat="51.07529" lon="2.51707">
        <ele>6.4</ele>
        <time>2020-06-23T11:48:52Z</time>
      </trkpt>
      <trkpt lat="51.07525" lon="2.51711">
        <ele>6.5</ele>
        <time>2020-06-23T11:48:53Z</time>
      </trkpt>
      <trkpt lat="51.07516" lon="2.51708">
        <ele>6.5</ele>
        <time>2020-06-23T11:48:54Z</time>
      </trkpt>
      <trkpt lat="51.07511" lon="2.51711">
        <ele>6.6</ele>
        <time>2020-06-23T11:48:55Z</time>
      </trkpt>
      <trkpt lat="51.07506" lon="2.51715">
        <ele>6.6</ele>
        <time>2020-06-23T11:48:56Z</time>
      </trkpt>
      <trkpt lat="51.07501" lon="2.51718">
        <ele>6.7</ele>
        <time>2020-06-23T11:48:57Z</time>
      </trkpt>
      <trkpt lat="51.07497" lon="2.51721">
        <ele>6.7</ele>
        <time>2020-06-23T11:48:58Z</time>
      </trkpt>
      <trkpt lat="51.07492" lon="2.51723">
        <ele>6.8</ele>
        <time>2020-06-23T11:48:59Z</time>
      </trkpt>
      <trkpt lat="51.07487" lon="2.51726">
        <ele>6.9</ele>
        <time>2020-06-23T11:49:00Z</time>
      </trkpt>
      <trkpt lat="51.07482" lon="2.51728">
        <ele>6.9</ele>
        <time>2020-06-23T11:49:01Z</time>
      </trkpt>
      <trkpt lat="51.07477" lon="2.5173">
        <ele>7</ele>
        <time>2020-06-23T11:49:02Z</time>
      </trkpt>
      <trkpt lat="51.07473" lon="2.51734">
        <ele>7.1</ele>
        <time>2020-06-23T11:49:03Z</time>
      </trkpt>
      <trkpt lat="51.07467" lon="2.51737">
        <ele>7.2</ele>
        <time>2020-06-23T11:49:04Z</time>
      </trkpt>
      <trkpt lat="51.07462" lon="2.51739">
        <ele>7.3</ele>
        <time>2020-06-23T11:49:05Z</time>
      </trkpt>
      <trkpt lat="51.07457" lon="2.51743">
        <ele>7.3</ele>
        <time>2020-06-23T11:49:06Z</time>
      </trkpt>
      <trkpt lat="51.07452" lon="2.51745">
        <ele>7.4</ele>
        <time>2020-06-23T11:49:07Z</time>
      </trkpt>
      <trkpt lat="51.07447" lon="2.51748">
        <ele>7.4</ele>
        <time>2020-06-23T11:49:08Z</time>
      </trkpt>
      <trkpt lat="51.07442" lon="2.51751">
        <ele>7.5</ele>
        <time>2020-06-23T11:49:09Z</time>
      </trkpt>
      <trkpt lat="51.07437" lon="2.51754">
        <ele>7.5</ele>
        <time>2020-06-23T11:49:10Z</time>
      </trkpt>
      <trkpt lat="51.07432" lon="2.51756">
        <ele>7.6</ele>
        <time>2020-06-23T11:49:11Z</time>
      </trkpt>
      <trkpt lat="51.07426" lon="2.51759">
        <ele>7.6</ele>
        <time>2020-06-23T11:49:12Z</time>
      </trkpt>
      <trkpt lat="51.07415" lon="2.5175">
        <ele>7.8</ele>
        <time>2020-06-23T11:49:13Z</time>
      </trkpt>
      <trkpt lat="51.0741" lon="2.51753">
        <ele>7.8</ele>
        <time>2020-06-23T11:49:14Z</time>
      </trkpt>
      <trkpt lat="51.07403" lon="2.51755">
        <ele>7.9</ele>
        <time>2020-06-23T11:49:15Z</time>
      </trkpt>
      <trkpt lat="51.07397" lon="2.51758">
        <ele>8</ele>
        <time>2020-06-23T11:49:16Z</time>
      </trkpt>
      <trkpt lat="51.07391" lon="2.5176">
        <ele>8</ele>
        <time>2020-06-23T11:49:17Z</time>
      </trkpt>
      <trkpt lat="51.07385" lon="2.51764">
        <ele>8.1</ele>
        <time>2020-06-23T11:49:18Z</time>
      </trkpt>
      <trkpt lat="51.07379" lon="2.51768">
        <ele>8.2</ele>
        <time>2020-06-23T11:49:19Z</time>
      </trkpt>
      <trkpt lat="51.07373" lon="2.51771">
        <ele>8.3</ele>
        <time>2020-06-23T11:49:20Z</time>
      </trkpt>
      <trkpt lat="51.07368" lon="2.51775">
        <ele>8.4</ele>
        <time>2020-06-23T11:49:21Z</time>
      </trkpt>
      <trkpt lat="51.07362" lon="2.51778">
        <ele>8.4</ele>
        <time>2020-06-23T11:49:22Z</time>
      </trkpt>
      <trkpt lat="51.07356" lon="2.51781">
        <ele>8.5</ele>
        <time>2020-06-23T11:49:23Z</time>
      </trkpt>
      <trkpt lat="51.07349" lon="2.51784">
        <ele>8.7</ele>
        <time>2020-06-23T11:49:24Z</time>
      </trkpt>
      <trkpt lat="51.07343" lon="2.51787">
        <ele>8.9</ele>
        <time>2020-06-23T11:49:25Z</time>
      </trkpt>
      <trkpt lat="51.07337" lon="2.51789">
        <ele>9</ele>
        <time>2020-06-23T11:49:26Z</time>
      </trkpt>
      <trkpt lat="51.07332" lon="2.51793">
        <ele>9.2</ele>
        <time>2020-06-23T11:49:27Z</time>
      </trkpt>
      <trkpt lat="51.07327" lon="2.51796">
        <ele>9.3</ele>
        <time>2020-06-23T11:49:28Z</time>
      </trkpt>
      <trkpt lat="51.07323" lon="2.518">
        <ele>9.5</ele>
        <time>2020-06-23T11:49:29Z</time>
      </trkpt>
      <trkpt lat="51.07318" lon="2.51804">
        <ele>9.6</ele>
        <time>2020-06-23T11:49:30Z</time>
      </trkpt>
      <trkpt lat="51.07312" lon="2.51807">
        <ele>9.7</ele>
        <time>2020-06-23T11:49:31Z</time>
      </trkpt>
      <trkpt lat="51.07307" lon="2.51809">
        <ele>9.8</ele>
        <time>2020-06-23T11:49:32Z</time>
      </trkpt>
      <trkpt lat="51.07301" lon="2.51813">
        <ele>9.8</ele>
        <time>2020-06-23T11:49:33Z</time>
      </trkpt>
      <trkpt lat="51.07297" lon="2.51817">
        <ele>10</ele>
        <time>2020-06-23T11:49:34Z</time>
      </trkpt>
      <trkpt lat="51.07292" lon="2.5182">
        <ele>10.1</ele>
        <time>2020-06-23T11:49:35Z</time>
      </trkpt>
      <trkpt lat="51.07287" lon="2.51824">
        <ele>10.2</ele>
        <time>2020-06-23T11:49:36Z</time>
      </trkpt>
      <trkpt lat="51.07282" lon="2.51827">
        <ele>10.4</ele>
        <time>2020-06-23T11:49:37Z</time>
      </trkpt>
      <trkpt lat="51.07277" lon="2.5183">
        <ele>10.5</ele>
        <time>2020-06-23T11:49:38Z</time>
      </trkpt>
      <trkpt lat="51.07271" lon="2.51832">
        <ele>10.7</ele>
        <time>2020-06-23T11:49:39Z</time>
      </trkpt>
      <trkpt lat="51.07266" lon="2.51835">
        <ele>10.8</ele>
        <time>2020-06-23T11:49:40Z</time>
      </trkpt>
      <trkpt lat="51.07262" lon="2.51837">
        <ele>10.8</ele>
        <time>2020-06-23T11:49:41Z</time>
      </trkpt>
      <trkpt lat="51.07256" lon="2.5184">
        <ele>10.9</ele>
        <time>2020-06-23T11:49:42Z</time>
      </trkpt>
      <trkpt lat="51.07251" lon="2.51843">
        <ele>10.9</ele>
        <time>2020-06-23T11:49:43Z</time>
      </trkpt>
      <trkpt lat="51.07246" lon="2.51844">
        <ele>10.9</ele>
        <time>2020-06-23T11:49:44Z</time>
      </trkpt>
      <trkpt lat="51.07241" lon="2.51846">
        <ele>10.9</ele>
        <time>2020-06-23T11:49:45Z</time>
      </trkpt>
      <trkpt lat="51.07237" lon="2.5185">
        <ele>10.9</ele>
        <time>2020-06-23T11:49:46Z</time>
      </trkpt>
      <trkpt lat="51.07232" lon="2.51852">
        <ele>10.9</ele>
        <time>2020-06-23T11:49:47Z</time>
      </trkpt>
      <trkpt lat="51.07226" lon="2.51854">
        <ele>10.9</ele>
        <time>2020-06-23T11:49:48Z</time>
      </trkpt>
      <trkpt lat="51.07221" lon="2.51856">
        <ele>10.9</ele>
        <time>2020-06-23T11:49:49Z</time>
      </trkpt>
      <trkpt lat="51.07217" lon="2.51858">
        <ele>10.9</ele>
        <time>2020-06-23T11:49:50Z</time>
      </trkpt>
      <trkpt lat="51.07213" lon="2.51861">
        <ele>10.8</ele>
        <time>2020-06-23T11:49:51Z</time>
      </trkpt>
      <trkpt lat="51.07208" lon="2.51864">
        <ele>10.8</ele>
        <time>2020-06-23T11:49:52Z</time>
      </trkpt>
      <trkpt lat="51.07203" lon="2.51865">
        <ele>10.7</ele>
        <time>2020-06-23T11:49:53Z</time>
      </trkpt>
      <trkpt lat="51.07197" lon="2.51867">
        <ele>10.6</ele>
        <time>2020-06-23T11:49:54Z</time>
      </trkpt>
      <trkpt lat="51.07192" lon="2.51869">
        <ele>10.5</ele>
        <time>2020-06-23T11:49:55Z</time>
      </trkpt>
      <trkpt lat="51.07187" lon="2.51872">
        <ele>10.4</ele>
        <time>2020-06-23T11:49:56Z</time>
      </trkpt>
      <trkpt lat="51.07183" lon="2.51876">
        <ele>10.2</ele>
        <time>2020-06-23T11:49:57Z</time>
      </trkpt>
      <trkpt lat="51.07178" lon="2.51881">
        <ele>10</ele>
        <time>2020-06-23T11:49:58Z</time>
      </trkpt>
      <trkpt lat="51.07172" lon="2.51886">
        <ele>9.7</ele>
        <time>2020-06-23T11:49:59Z</time>
      </trkpt>
      <trkpt lat="51.07166" lon="2.51889">
        <ele>9.4</ele>
        <time>2020-06-23T11:50:00Z</time>
      </trkpt>
      <trkpt lat="51.0716" lon="2.51892">
        <ele>9.1</ele>
        <time>2020-06-23T11:50:01Z</time>
      </trkpt>
      <trkpt lat="51.07155" lon="2.51895">
        <ele>8.9</ele>
        <time>2020-06-23T11:50:02Z</time>
      </trkpt>
      <trkpt lat="51.07151" lon="2.51897">
        <ele>8.7</ele>
        <time>2020-06-23T11:50:03Z</time>
      </trkpt>
      <trkpt lat="51.07147" lon="2.51899">
        <ele>8.5</ele>
        <time>2020-06-23T11:50:04Z</time>
      </trkpt>
      <trkpt lat="51.07143" lon="2.51901">
        <ele>8.4</ele>
        <time>2020-06-23T11:50:05Z</time>
      </trkpt>
      <trkpt lat="51.0714" lon="2.51903">
        <ele>8.2</ele>
        <time>2020-06-23T11:50:06Z</time>
      </trkpt>
      <trkpt lat="51.07137" lon="2.51905">
        <ele>8.1</ele>
        <time>2020-06-23T11:50:07Z</time>
      </trkpt>
      <trkpt lat="51.07134" lon="2.51908">
        <ele>8</ele>
        <time>2020-06-23T11:50:08Z</time>
      </trkpt>
      <trkpt lat="51.07131" lon="2.5191">
        <ele>7.8</ele>
        <time>2020-06-23T11:50:09Z</time>
      </trkpt>
      <trkpt lat="51.07129" lon="2.51913">
        <ele>7.3</ele>
        <time>2020-06-23T11:50:10Z</time>
      </trkpt>
      <trkpt lat="51.07126" lon="2.51917">
        <ele>7.2</ele>
        <time>2020-06-23T11:50:11Z</time>
      </trkpt>
      <trkpt lat="51.07123" lon="2.51919">
        <ele>7.1</ele>
        <time>2020-06-23T11:50:12Z</time>
      </trkpt>
      <trkpt lat="51.0712" lon="2.51921">
        <ele>7.1</ele>
        <time>2020-06-23T11:50:13Z</time>
      </trkpt>
      <trkpt lat="51.07117" lon="2.51923">
        <ele>7</ele>
        <time>2020-06-23T11:50:14Z</time>
      </trkpt>
      <trkpt lat="51.07114" lon="2.51926">
        <ele>6.9</ele>
        <time>2020-06-23T11:50:15Z</time>
      </trkpt>
      <trkpt lat="51.0711" lon="2.51928">
        <ele>6.8</ele>
        <time>2020-06-23T11:50:16Z</time>
      </trkpt>
      <trkpt lat="51.07106" lon="2.51931">
        <ele>6.7</ele>
        <time>2020-06-23T11:50:17Z</time>
      </trkpt>
      <trkpt lat="51.07103" lon="2.51934">
        <ele>6.7</ele>
        <time>2020-06-23T11:50:18Z</time>
      </trkpt>
      <trkpt lat="51.07099" lon="2.51937">
        <ele>6.6</ele>
        <time>2020-06-23T11:50:19Z</time>
      </trkpt>
      <trkpt lat="51.07095" lon="2.51939">
        <ele>6.6</ele>
        <time>2020-06-23T11:50:20Z</time>
      </trkpt>
      <trkpt lat="51.07091" lon="2.5194">
        <ele>6.5</ele>
        <time>2020-06-23T11:50:21Z</time>
      </trkpt>
      <trkpt lat="51.07088" lon="2.5194">
        <ele>6.5</ele>
        <time>2020-06-23T11:50:22Z</time>
      </trkpt>
      <trkpt lat="51.07085" lon="2.51941">
        <ele>6.5</ele>
        <time>2020-06-23T11:50:23Z</time>
      </trkpt>
      <trkpt lat="51.07083" lon="2.51941">
        <ele>6.5</ele>
        <time>2020-06-23T11:50:24Z</time>
      </trkpt>
      <trkpt lat="51.07081" lon="2.51942">
        <ele>6.4</ele>
        <time>2020-06-23T11:50:25Z</time>
      </trkpt>
      <trkpt lat="51.0708" lon="2.51946">
        <ele>6.4</ele>
        <time>2020-06-23T11:50:26Z</time>
      </trkpt>
      <trkpt lat="51.07079" lon="2.51948">
        <ele>6.4</ele>
        <time>2020-06-23T11:50:27Z</time>
      </trkpt>
      <trkpt lat="51.07079" lon="2.51954">
        <ele>6.4</ele>
        <time>2020-06-23T11:50:28Z</time>
      </trkpt>
      <trkpt lat="51.07078" lon="2.51955">
        <ele>6.4</ele>
        <time>2020-06-23T11:50:29Z</time>
      </trkpt>
      <trkpt lat="51.07079" lon="2.51958">
        <ele>6.4</ele>
        <time>2020-06-23T11:50:30Z</time>
      </trkpt>
      <trkpt lat="51.07081" lon="2.51959">
        <ele>6.4</ele>
        <time>2020-06-23T11:50:31Z</time>
      </trkpt>
      <trkpt lat="51.07082" lon="2.51958">
        <ele>6.4</ele>
        <time>2020-06-23T11:50:32Z</time>
      </trkpt>
      <trkpt lat="51.07082" lon="2.51956">
        <ele>6.4</ele>
        <time>2020-06-23T11:50:33Z</time>
      </trkpt>
      <trkpt lat="51.07082" lon="2.51955">
        <ele>6.4</ele>
        <time>2020-06-23T11:50:34Z</time>
      </trkpt>
      <trkpt lat="51.07082" lon="2.51953">
        <ele>6.4</ele>
        <time>2020-06-23T11:50:35Z</time>
      </trkpt>
      <trkpt lat="51.07082" lon="2.51952">
        <ele>6.4</ele>
        <time>2020-06-23T11:50:36Z</time>
      </trkpt>
      <trkpt lat="51.07081" lon="2.51947">
        <ele>6.3</ele>
        <time>2020-06-23T11:50:37Z</time>
      </trkpt>
      <trkpt lat="51.07081" lon="2.51941">
        <ele>6.3</ele>
        <time>2020-06-23T11:50:38Z</time>
      </trkpt>
      <trkpt lat="51.0708" lon="2.51936">
        <ele>6.3</ele>
        <time>2020-06-23T11:50:39Z</time>
      </trkpt>
      <trkpt lat="51.07079" lon="2.5193">
        <ele>6.2</ele>
        <time>2020-06-23T11:50:40Z</time>
      </trkpt>
      <trkpt lat="51.07078" lon="2.51924">
        <ele>6.2</ele>
        <time>2020-06-23T11:50:41Z</time>
      </trkpt>
      <trkpt lat="51.07077" lon="2.51918">
        <ele>6.1</ele>
        <time>2020-06-23T11:50:42Z</time>
      </trkpt>
      <trkpt lat="51.07076" lon="2.51912">
        <ele>6</ele>
        <time>2020-06-23T11:50:43Z</time>
      </trkpt>
      <trkpt lat="51.07075" lon="2.51906">
        <ele>6</ele>
        <time>2020-06-23T11:50:44Z</time>
      </trkpt>
      <trkpt lat="51.07074" lon="2.51901">
        <ele>5.9</ele>
        <time>2020-06-23T11:50:45Z</time>
      </trkpt>
      <trkpt lat="51.07072" lon="2.51896">
        <ele>5.9</ele>
        <time>2020-06-23T11:50:46Z</time>
      </trkpt>
      <trkpt lat="51.07069" lon="2.51891">
        <ele>5.8</ele>
        <time>2020-06-23T11:50:47Z</time>
      </trkpt>
      <trkpt lat="51.07066" lon="2.51886">
        <ele>5.7</ele>
        <time>2020-06-23T11:50:48Z</time>
      </trkpt>
      <trkpt lat="51.07063" lon="2.5188">
        <ele>5.7</ele>
        <time>2020-06-23T11:50:49Z</time>
      </trkpt>
      <trkpt lat="51.0706" lon="2.51875">
        <ele>5.6</ele>
        <time>2020-06-23T11:50:50Z</time>
      </trkpt>
      <trkpt lat="51.07058" lon="2.5187">
        <ele>5.6</ele>
        <time>2020-06-23T11:50:51Z</time>
      </trkpt>
      <trkpt lat="51.07056" lon="2.51865">
        <ele>5.5</ele>
        <time>2020-06-23T11:50:52Z</time>
      </trkpt>
      <trkpt lat="51.07055" lon="2.51859">
        <ele>5.5</ele>
        <time>2020-06-23T11:50:53Z</time>
      </trkpt>
      <trkpt lat="51.07054" lon="2.51853">
        <ele>5.4</ele>
        <time>2020-06-23T11:50:54Z</time>
      </trkpt>
      <trkpt lat="51.07053" lon="2.51847">
        <ele>5.4</ele>
        <time>2020-06-23T11:50:55Z</time>
      </trkpt>
      <trkpt lat="51.07052" lon="2.51841">
        <ele>5.3</ele>
        <time>2020-06-23T11:50:56Z</time>
      </trkpt>
      <trkpt lat="51.07051" lon="2.51836">
        <ele>5.3</ele>
        <time>2020-06-23T11:50:57Z</time>
      </trkpt>
      <trkpt lat="51.0705" lon="2.51831">
        <ele>5.3</ele>
        <time>2020-06-23T11:50:58Z</time>
      </trkpt>
      <trkpt lat="51.07048" lon="2.51825">
        <ele>5.2</ele>
        <time>2020-06-23T11:50:59Z</time>
      </trkpt>
      <trkpt lat="51.07047" lon="2.51823">
        <ele>5.2</ele>
        <time>2020-06-23T11:51:00Z</time>
      </trkpt>
      <trkpt lat="51.07043" lon="2.5182">
        <ele>5.1</ele>
        <time>2020-06-23T11:51:01Z</time>
      </trkpt>
      <trkpt lat="51.07039" lon="2.51819">
        <ele>5.1</ele>
        <time>2020-06-23T11:51:02Z</time>
      </trkpt>
      <trkpt lat="51.07037" lon="2.51819">
        <ele>5.1</ele>
        <time>2020-06-23T11:51:03Z</time>
      </trkpt>
      <trkpt lat="51.07034" lon="2.51821">
        <ele>5.1</ele>
        <time>2020-06-23T11:51:04Z</time>
      </trkpt>
      <trkpt lat="51.07031" lon="2.5182">
        <ele>5.1</ele>
        <time>2020-06-23T11:51:05Z</time>
      </trkpt>
      <trkpt lat="51.0703" lon="2.5182">
        <ele>5.1</ele>
        <time>2020-06-23T11:51:06Z</time>
      </trkpt>
      <trkpt lat="51.07029" lon="2.5182">
        <ele>5.1</ele>
        <time>2020-06-23T11:51:07Z</time>
      </trkpt>
      <trkpt lat="51.07029" lon="2.5182">
        <ele>5.1</ele>
        <time>2020-06-23T11:51:08Z</time>
      </trkpt>
      <trkpt lat="51.07029" lon="2.51819">
        <ele>5.1</ele>
        <time>2020-06-23T11:51:09Z</time>
      </trkpt>
      <trkpt lat="51.07028" lon="2.51819">
        <ele>4.7</ele>
        <time>2020-06-23T11:51:10Z</time>
      </trkpt>
      <trkpt lat="51.07027" lon="2.51819">
        <ele>4.7</ele>
        <time>2020-06-23T11:51:11Z</time>
      </trkpt>
      <trkpt lat="51.07026" lon="2.51819">
        <ele>4.7</ele>
        <time>2020-06-23T11:51:12Z</time>
      </trkpt>
      <trkpt lat="51.07026" lon="2.51819">
        <ele>4.7</ele>
        <time>2020-06-23T11:51:13Z</time>
      </trkpt>
      <trkpt lat="51.07025" lon="2.5182">
        <ele>4.7</ele>
        <time>2020-06-23T11:51:14Z</time>
      </trkpt>
      <trkpt lat="51.07025" lon="2.51822">
        <ele>4.7</ele>
        <time>2020-06-23T11:51:15Z</time>
      </trkpt>
      <trkpt lat="51.07025" lon="2.51823">
        <ele>4.7</ele>
        <time>2020-06-23T11:51:16Z</time>
      </trkpt>
      <trkpt lat="51.07025" lon="2.51825">
        <ele>4.7</ele>
        <time>2020-06-23T11:51:17Z</time>
      </trkpt>
      <trkpt lat="51.07025" lon="2.51827">
        <ele>4.7</ele>
        <time>2020-06-23T11:51:18Z</time>
      </trkpt>
      <trkpt lat="51.07025" lon="2.51833">
        <ele>4.7</ele>
        <time>2020-06-23T11:51:19Z</time>
      </trkpt>
      <trkpt lat="51.07025" lon="2.51836">
        <ele>4.7</ele>
        <time>2020-06-23T11:51:20Z</time>
      </trkpt>
      <trkpt lat="51.07026" lon="2.51842">
        <ele>4.7</ele>
        <time>2020-06-23T11:51:21Z</time>
      </trkpt>
      <trkpt lat="51.07025" lon="2.51848">
        <ele>4.6</ele>
        <time>2020-06-23T11:51:22Z</time>
      </trkpt>
      <trkpt lat="51.07025" lon="2.51853">
        <ele>4.6</ele>
        <time>2020-06-23T11:51:23Z</time>
      </trkpt>
      <trkpt lat="51.07025" lon="2.51858">
        <ele>4.6</ele>
        <time>2020-06-23T11:51:24Z</time>
      </trkpt>
      <trkpt lat="51.07026" lon="2.51863">
        <ele>4.6</ele>
        <time>2020-06-23T11:51:25Z</time>
      </trkpt>
      <trkpt lat="51.07027" lon="2.51868">
        <ele>4.6</ele>
        <time>2020-06-23T11:51:26Z</time>
      </trkpt>
      <trkpt lat="51.07028" lon="2.51874">
        <ele>4.6</ele>
        <time>2020-06-23T11:51:27Z</time>
      </trkpt>
      <trkpt lat="51.07028" lon="2.51876">
        <ele>4.6</ele>
        <time>2020-06-23T11:51:28Z</time>
      </trkpt>
      <trkpt lat="51.07029" lon="2.51882">
        <ele>4.6</ele>
        <time>2020-06-23T11:51:29Z</time>
      </trkpt>
      <trkpt lat="51.0703" lon="2.51884">
        <ele>4.6</ele>
        <time>2020-06-23T11:51:30Z</time>
      </trkpt>
      <trkpt lat="51.07032" lon="2.51889">
        <ele>4.7</ele>
        <time>2020-06-23T11:51:31Z</time>
      </trkpt>
      <trkpt lat="51.07032" lon="2.51892">
        <ele>4.7</ele>
        <time>2020-06-23T11:51:32Z</time>
      </trkpt>
      <trkpt lat="51.07034" lon="2.51896">
        <ele>4.7</ele>
        <time>2020-06-23T11:51:33Z</time>
      </trkpt>
      <trkpt lat="51.07035" lon="2.51901">
        <ele>4.6</ele>
        <time>2020-06-23T11:51:34Z</time>
      </trkpt>
      <trkpt lat="51.07036" lon="2.51906">
        <ele>4.6</ele>
        <time>2020-06-23T11:51:35Z</time>
      </trkpt>
      <trkpt lat="51.07037" lon="2.5191">
        <ele>4.6</ele>
        <time>2020-06-23T11:51:36Z</time>
      </trkpt>
      <trkpt lat="51.07038" lon="2.51916">
        <ele>4.6</ele>
        <time>2020-06-23T11:51:37Z</time>
      </trkpt>
      <trkpt lat="51.07039" lon="2.51921">
        <ele>4.6</ele>
        <time>2020-06-23T11:51:38Z</time>
      </trkpt>
      <trkpt lat="51.07041" lon="2.51927">
        <ele>4.6</ele>
        <time>2020-06-23T11:51:39Z</time>
      </trkpt>
      <trkpt lat="51.07043" lon="2.51934">
        <ele>4.6</ele>
        <time>2020-06-23T11:51:40Z</time>
      </trkpt>
      <trkpt lat="51.07044" lon="2.5194">
        <ele>4.6</ele>
        <time>2020-06-23T11:51:41Z</time>
      </trkpt>
      <trkpt lat="51.07045" lon="2.51947">
        <ele>4.6</ele>
        <time>2020-06-23T11:51:42Z</time>
      </trkpt>
      <trkpt lat="51.07047" lon="2.51953">
        <ele>4.6</ele>
        <time>2020-06-23T11:51:43Z</time>
      </trkpt>
      <trkpt lat="51.07048" lon="2.51958">
        <ele>4.6</ele>
        <time>2020-06-23T11:51:44Z</time>
      </trkpt>
      <trkpt lat="51.07049" lon="2.51966">
        <ele>4.6</ele>
        <time>2020-06-23T11:51:45Z</time>
      </trkpt>
      <trkpt lat="51.07051" lon="2.51974">
        <ele>4.6</ele>
        <time>2020-06-23T11:51:46Z</time>
      </trkpt>
      <trkpt lat="51.07051" lon="2.51981">
        <ele>4.7</ele>
        <time>2020-06-23T11:51:47Z</time>
      </trkpt>
      <trkpt lat="51.07052" lon="2.51992">
        <ele>4.7</ele>
        <time>2020-06-23T11:51:48Z</time>
      </trkpt>
      <trkpt lat="51.07054" lon="2.51999">
        <ele>4.7</ele>
        <time>2020-06-23T11:51:49Z</time>
      </trkpt>
      <trkpt lat="51.07054" lon="2.52008">
        <ele>4.7</ele>
        <time>2020-06-23T11:51:50Z</time>
      </trkpt>
      <trkpt lat="51.07055" lon="2.52013">
        <ele>4.7</ele>
        <time>2020-06-23T11:51:51Z</time>
      </trkpt>
      <trkpt lat="51.07054" lon="2.52021">
        <ele>4.7</ele>
        <time>2020-06-23T11:51:52Z</time>
      </trkpt>
      <trkpt lat="51.07053" lon="2.52027">
        <ele>4.7</ele>
        <time>2020-06-23T11:51:53Z</time>
      </trkpt>
      <trkpt lat="51.07053" lon="2.52037">
        <ele>4.7</ele>
        <time>2020-06-23T11:51:54Z</time>
      </trkpt>
      <trkpt lat="51.07053" lon="2.52043">
        <ele>4.7</ele>
        <time>2020-06-23T11:51:55Z</time>
      </trkpt>
      <trkpt lat="51.07053" lon="2.52053">
        <ele>4.7</ele>
        <time>2020-06-23T11:51:56Z</time>
      </trkpt>
      <trkpt lat="51.07053" lon="2.52059">
        <ele>4.7</ele>
        <time>2020-06-23T11:51:57Z</time>
      </trkpt>
      <trkpt lat="51.07053" lon="2.52068">
        <ele>4.7</ele>
        <time>2020-06-23T11:51:58Z</time>
      </trkpt>
      <trkpt lat="51.07054" lon="2.52074">
        <ele>4.7</ele>
        <time>2020-06-23T11:51:59Z</time>
      </trkpt>
      <trkpt lat="51.07054" lon="2.52081">
        <ele>4.7</ele>
        <time>2020-06-23T11:52:00Z</time>
      </trkpt>
      <trkpt lat="51.07054" lon="2.52087">
        <ele>4.7</ele>
        <time>2020-06-23T11:52:01Z</time>
      </trkpt>
      <trkpt lat="51.07055" lon="2.52095">
        <ele>4.6</ele>
        <time>2020-06-23T11:52:02Z</time>
      </trkpt>
      <trkpt lat="51.07056" lon="2.521">
        <ele>4.6</ele>
        <time>2020-06-23T11:52:03Z</time>
      </trkpt>
      <trkpt lat="51.07057" lon="2.5211">
        <ele>4.6</ele>
        <time>2020-06-23T11:52:04Z</time>
      </trkpt>
      <trkpt lat="51.07058" lon="2.52117">
        <ele>4.6</ele>
        <time>2020-06-23T11:52:05Z</time>
      </trkpt>
      <trkpt lat="51.07059" lon="2.52125">
        <ele>4.6</ele>
        <time>2020-06-23T11:52:06Z</time>
      </trkpt>
      <trkpt lat="51.07059" lon="2.52132">
        <ele>4.6</ele>
        <time>2020-06-23T11:52:07Z</time>
      </trkpt>
      <trkpt lat="51.0706" lon="2.52139">
        <ele>4.6</ele>
        <time>2020-06-23T11:52:08Z</time>
      </trkpt>
      <trkpt lat="51.07062" lon="2.52147">
        <ele>4.6</ele>
        <time>2020-06-23T11:52:09Z</time>
      </trkpt>
      <trkpt lat="51.07064" lon="2.52155">
        <ele>4.6</ele>
        <time>2020-06-23T11:52:10Z</time>
      </trkpt>
      <trkpt lat="51.07065" lon="2.52161">
        <ele>4.6</ele>
        <time>2020-06-23T11:52:11Z</time>
      </trkpt>
      <trkpt lat="51.07066" lon="2.52168">
        <ele>4.6</ele>
        <time>2020-06-23T11:52:12Z</time>
      </trkpt>
      <trkpt lat="51.07067" lon="2.52173">
        <ele>4.6</ele>
        <time>2020-06-23T11:52:13Z</time>
      </trkpt>
      <trkpt lat="51.07067" lon="2.52179">
        <ele>4.6</ele>
        <time>2020-06-23T11:52:14Z</time>
      </trkpt>
      <trkpt lat="51.07068" lon="2.52182">
        <ele>4.6</ele>
        <time>2020-06-23T11:52:15Z</time>
      </trkpt>
      <trkpt lat="51.0707" lon="2.52187">
        <ele>4.7</ele>
        <time>2020-06-23T11:52:16Z</time>
      </trkpt>
      <trkpt lat="51.07071" lon="2.52191">
        <ele>4.7</ele>
        <time>2020-06-23T11:52:17Z</time>
      </trkpt>
      <trkpt lat="51.07073" lon="2.52197">
        <ele>4.8</ele>
        <time>2020-06-23T11:52:18Z</time>
      </trkpt>
      <trkpt lat="51.07074" lon="2.52202">
        <ele>4.8</ele>
        <time>2020-06-23T11:52:19Z</time>
      </trkpt>
      <trkpt lat="51.07074" lon="2.52206">
        <ele>4.8</ele>
        <time>2020-06-23T11:52:20Z</time>
      </trkpt>
      <trkpt lat="51.07075" lon="2.52211">
        <ele>4.7</ele>
        <time>2020-06-23T11:52:21Z</time>
      </trkpt>
      <trkpt lat="51.07075" lon="2.52218">
        <ele>4.7</ele>
        <time>2020-06-23T11:52:22Z</time>
      </trkpt>
      <trkpt lat="51.07076" lon="2.52222">
        <ele>4.7</ele>
        <time>2020-06-23T11:52:23Z</time>
      </trkpt>
      <trkpt lat="51.07077" lon="2.52229">
        <ele>4.7</ele>
        <time>2020-06-23T11:52:24Z</time>
      </trkpt>
      <trkpt lat="51.07077" lon="2.52236">
        <ele>4.7</ele>
        <time>2020-06-23T11:52:25Z</time>
      </trkpt>
      <trkpt lat="51.07077" lon="2.52239">
        <ele>4.7</ele>
        <time>2020-06-23T11:52:26Z</time>
      </trkpt>
      <trkpt lat="51.07078" lon="2.52244">
        <ele>4.7</ele>
        <time>2020-06-23T11:52:27Z</time>
      </trkpt>
      <trkpt lat="51.0708" lon="2.52252">
        <ele>4.7</ele>
        <time>2020-06-23T11:52:28Z</time>
      </trkpt>
      <trkpt lat="51.07081" lon="2.52258">
        <ele>4.7</ele>
        <time>2020-06-23T11:52:29Z</time>
      </trkpt>
      <trkpt lat="51.07081" lon="2.52261">
        <ele>4.7</ele>
        <time>2020-06-23T11:52:30Z</time>
      </trkpt>
      <trkpt lat="51.07082" lon="2.52265">
        <ele>4.7</ele>
        <time>2020-06-23T11:52:31Z</time>
      </trkpt>
      <trkpt lat="51.07083" lon="2.52267">
        <ele>4.7</ele>
        <time>2020-06-23T11:52:32Z</time>
      </trkpt>
      <trkpt lat="51.07083" lon="2.52268">
        <ele>4.7</ele>
        <time>2020-06-23T11:52:33Z</time>
      </trkpt>
      <trkpt lat="51.07083" lon="2.52269">
        <ele>4.7</ele>
        <time>2020-06-23T11:52:34Z</time>
      </trkpt>
      <trkpt lat="51.07084" lon="2.52271">
        <ele>4.7</ele>
        <time>2020-06-23T11:52:35Z</time>
      </trkpt>
      <trkpt lat="51.07085" lon="2.52276">
        <ele>4.7</ele>
        <time>2020-06-23T11:52:36Z</time>
      </trkpt>
      <trkpt lat="51.07086" lon="2.52277">
        <ele>4.7</ele>
        <time>2020-06-23T11:52:37Z</time>
      </trkpt>
      <trkpt lat="51.07087" lon="2.52282">
        <ele>4.7</ele>
        <time>2020-06-23T11:52:38Z</time>
      </trkpt>
      <trkpt lat="51.07088" lon="2.52284">
        <ele>4.7</ele>
        <time>2020-06-23T11:52:39Z</time>
      </trkpt>
      <trkpt lat="51.07088" lon="2.52289">
        <ele>4.7</ele>
        <time>2020-06-23T11:52:40Z</time>
      </trkpt>
      <trkpt lat="51.07089" lon="2.52295">
        <ele>4.7</ele>
        <time>2020-06-23T11:52:41Z</time>
      </trkpt>
      <trkpt lat="51.07089" lon="2.52298">
        <ele>4.7</ele>
        <time>2020-06-23T11:52:42Z</time>
      </trkpt>
      <trkpt lat="51.07089" lon="2.52303">
        <ele>4.7</ele>
        <time>2020-06-23T11:52:43Z</time>
      </trkpt>
      <trkpt lat="51.07089" lon="2.52305">
        <ele>4.7</ele>
        <time>2020-06-23T11:52:44Z</time>
      </trkpt>
      <trkpt lat="51.07089" lon="2.5231">
        <ele>4.7</ele>
        <time>2020-06-23T11:52:45Z</time>
      </trkpt>
      <trkpt lat="51.07089" lon="2.52317">
        <ele>4.7</ele>
        <time>2020-06-23T11:52:46Z</time>
      </trkpt>
      <trkpt lat="51.0709" lon="2.52324">
        <ele>4.7</ele>
        <time>2020-06-23T11:52:47Z</time>
      </trkpt>
      <trkpt lat="51.07091" lon="2.52329">
        <ele>4.7</ele>
        <time>2020-06-23T11:52:48Z</time>
      </trkpt>
      <trkpt lat="51.07092" lon="2.52335">
        <ele>4.6</ele>
        <time>2020-06-23T11:52:49Z</time>
      </trkpt>
      <trkpt lat="51.07092" lon="2.5234">
        <ele>4.6</ele>
        <time>2020-06-23T11:52:50Z</time>
      </trkpt>
      <trkpt lat="51.07092" lon="2.52345">
        <ele>4.6</ele>
        <time>2020-06-23T11:52:51Z</time>
      </trkpt>
      <trkpt lat="51.0709" lon="2.52351">
        <ele>4.6</ele>
        <time>2020-06-23T11:52:52Z</time>
      </trkpt>
      <trkpt lat="51.07089" lon="2.52353">
        <ele>4.5</ele>
        <time>2020-06-23T11:52:53Z</time>
      </trkpt>
      <trkpt lat="51.07088" lon="2.5236">
        <ele>4.5</ele>
        <time>2020-06-23T11:52:54Z</time>
      </trkpt>
      <trkpt lat="51.07088" lon="2.52362">
        <ele>4.5</ele>
        <time>2020-06-23T11:52:55Z</time>
      </trkpt>
      <trkpt lat="51.07087" lon="2.52367">
        <ele>4.5</ele>
        <time>2020-06-23T11:52:56Z</time>
      </trkpt>
      <trkpt lat="51.07087" lon="2.52374">
        <ele>4.5</ele>
        <time>2020-06-23T11:52:57Z</time>
      </trkpt>
      <trkpt lat="51.07086" lon="2.52379">
        <ele>4.5</ele>
        <time>2020-06-23T11:52:58Z</time>
      </trkpt>
      <trkpt lat="51.07086" lon="2.52387">
        <ele>4.4</ele>
        <time>2020-06-23T11:52:59Z</time>
      </trkpt>
      <trkpt lat="51.07086" lon="2.52394">
        <ele>4.4</ele>
        <time>2020-06-23T11:53:00Z</time>
      </trkpt>
      <trkpt lat="51.07086" lon="2.52402">
        <ele>4.4</ele>
        <time>2020-06-23T11:53:01Z</time>
      </trkpt>
      <trkpt lat="51.07086" lon="2.52409">
        <ele>4.4</ele>
        <time>2020-06-23T11:53:02Z</time>
      </trkpt>
      <trkpt lat="51.07087" lon="2.52417">
        <ele>4.3</ele>
        <time>2020-06-23T11:53:03Z</time>
      </trkpt>
      <trkpt lat="51.07089" lon="2.52424">
        <ele>4.3</ele>
        <time>2020-06-23T11:53:04Z</time>
      </trkpt>
      <trkpt lat="51.0709" lon="2.52432">
        <ele>4.3</ele>
        <time>2020-06-23T11:53:05Z</time>
      </trkpt>
      <trkpt lat="51.0709" lon="2.52438">
        <ele>4.3</ele>
        <time>2020-06-23T11:53:06Z</time>
      </trkpt>
      <trkpt lat="51.0709" lon="2.52445">
        <ele>4.3</ele>
        <time>2020-06-23T11:53:07Z</time>
      </trkpt>
      <trkpt lat="51.07091" lon="2.52451">
        <ele>4.3</ele>
        <time>2020-06-23T11:53:08Z</time>
      </trkpt>
      <trkpt lat="51.07091" lon="2.52459">
        <ele>4.3</ele>
        <time>2020-06-23T11:53:09Z</time>
      </trkpt>
      <trkpt lat="51.07092" lon="2.52464">
        <ele>4.2</ele>
        <time>2020-06-23T11:53:10Z</time>
      </trkpt>
      <trkpt lat="51.07093" lon="2.52469">
        <ele>4.2</ele>
        <time>2020-06-23T11:53:11Z</time>
      </trkpt>
      <trkpt lat="51.07095" lon="2.52475">
        <ele>4.2</ele>
        <time>2020-06-23T11:53:12Z</time>
      </trkpt>
      <trkpt lat="51.07098" lon="2.52481">
        <ele>4.2</ele>
        <time>2020-06-23T11:53:13Z</time>
      </trkpt>
      <trkpt lat="51.07102" lon="2.52488">
        <ele>4.1</ele>
        <time>2020-06-23T11:53:14Z</time>
      </trkpt>
      <trkpt lat="51.07105" lon="2.52491">
        <ele>4.1</ele>
        <time>2020-06-23T11:53:15Z</time>
      </trkpt>
      <trkpt lat="51.07108" lon="2.52493">
        <ele>4.1</ele>
        <time>2020-06-23T11:53:16Z</time>
      </trkpt>
      <trkpt lat="51.0711" lon="2.52498">
        <ele>4.1</ele>
        <time>2020-06-23T11:53:17Z</time>
      </trkpt>
      <trkpt lat="51.07112" lon="2.52501">
        <ele>4.1</ele>
        <time>2020-06-23T11:53:18Z</time>
      </trkpt>
      <trkpt lat="51.07115" lon="2.52505">
        <ele>4.1</ele>
        <time>2020-06-23T11:53:19Z</time>
      </trkpt>
      <trkpt lat="51.07116" lon="2.52506">
        <ele>4.1</ele>
        <time>2020-06-23T11:53:20Z</time>
      </trkpt>
      <trkpt lat="51.07118" lon="2.52509">
        <ele>4.1</ele>
        <time>2020-06-23T11:53:21Z</time>
      </trkpt>
      <trkpt lat="51.07119" lon="2.5251">
        <ele>4.1</ele>
        <time>2020-06-23T11:53:22Z</time>
      </trkpt>
      <trkpt lat="51.07121" lon="2.52514">
        <ele>4.1</ele>
        <time>2020-06-23T11:53:23Z</time>
      </trkpt>
      <trkpt lat="51.07121" lon="2.52515">
        <ele>4.1</ele>
        <time>2020-06-23T11:53:24Z</time>
      </trkpt>
      <trkpt lat="51.07121" lon="2.52542">
        <ele>4.1</ele>
        <time>2020-06-23T11:53:25Z</time>
      </trkpt>
      <trkpt lat="51.07122" lon="2.52544">
        <ele>4.1</ele>
        <time>2020-06-23T11:53:26Z</time>
      </trkpt>
      <trkpt lat="51.07123" lon="2.52546">
        <ele>4.1</ele>
        <time>2020-06-23T11:53:27Z</time>
      </trkpt>
      <trkpt lat="51.07123" lon="2.52547">
        <ele>4.2</ele>
        <time>2020-06-23T11:53:28Z</time>
      </trkpt>
      <trkpt lat="51.07123" lon="2.52549">
        <ele>4.2</ele>
        <time>2020-06-23T11:53:29Z</time>
      </trkpt>
      <trkpt lat="51.07125" lon="2.52553">
        <ele>4.2</ele>
        <time>2020-06-23T11:53:30Z</time>
      </trkpt>
      <trkpt lat="51.07127" lon="2.52556">
        <ele>4.2</ele>
        <time>2020-06-23T11:53:31Z</time>
      </trkpt>
      <trkpt lat="51.0713" lon="2.5256">
        <ele>4.2</ele>
        <time>2020-06-23T11:53:32Z</time>
      </trkpt>
      <trkpt lat="51.07131" lon="2.52561">
        <ele>4.2</ele>
        <time>2020-06-23T11:53:33Z</time>
      </trkpt>
      <trkpt lat="51.07133" lon="2.52565">
        <ele>4.2</ele>
        <time>2020-06-23T11:53:34Z</time>
      </trkpt>
      <trkpt lat="51.07133" lon="2.52566">
        <ele>4.2</ele>
        <time>2020-06-23T11:53:35Z</time>
      </trkpt>
      <trkpt lat="51.07135" lon="2.5257">
        <ele>4.2</ele>
        <time>2020-06-23T11:53:36Z</time>
      </trkpt>
      <trkpt lat="51.07136" lon="2.52572">
        <ele>4.2</ele>
        <time>2020-06-23T11:53:37Z</time>
      </trkpt>
      <trkpt lat="51.07138" lon="2.52576">
        <ele>4.2</ele>
        <time>2020-06-23T11:53:38Z</time>
      </trkpt>
      <trkpt lat="51.0714" lon="2.52578">
        <ele>4.2</ele>
        <time>2020-06-23T11:53:39Z</time>
      </trkpt>
      <trkpt lat="51.0714" lon="2.5258">
        <ele>4.2</ele>
        <time>2020-06-23T11:53:40Z</time>
      </trkpt>
      <trkpt lat="51.07141" lon="2.52582">
        <ele>4.3</ele>
        <time>2020-06-23T11:53:41Z</time>
      </trkpt>
      <trkpt lat="51.07142" lon="2.52584">
        <ele>4.3</ele>
        <time>2020-06-23T11:53:42Z</time>
      </trkpt>
      <trkpt lat="51.07143" lon="2.52586">
        <ele>4.3</ele>
        <time>2020-06-23T11:53:43Z</time>
      </trkpt>
      <trkpt lat="51.07144" lon="2.52587">
        <ele>4.3</ele>
        <time>2020-06-23T11:53:44Z</time>
      </trkpt>
      <trkpt lat="51.07146" lon="2.52588">
        <ele>4.3</ele>
        <time>2020-06-23T11:53:45Z</time>
      </trkpt>
      <trkpt lat="51.07147" lon="2.52586">
        <ele>4.3</ele>
        <time>2020-06-23T11:53:46Z</time>
      </trkpt>
      <trkpt lat="51.07148" lon="2.52585">
        <ele>4.3</ele>
        <time>2020-06-23T11:53:47Z</time>
      </trkpt>
      <trkpt lat="51.07149" lon="2.52584">
        <ele>4.3</ele>
        <time>2020-06-23T11:53:48Z</time>
      </trkpt>
      <trkpt lat="51.07149" lon="2.52584">
        <ele>4.3</ele>
        <time>2020-06-23T11:53:49Z</time>
      </trkpt>
      <trkpt lat="51.0715" lon="2.52585">
        <ele>4.2</ele>
        <time>2020-06-23T11:53:50Z</time>
      </trkpt>
      <trkpt lat="51.0715" lon="2.52584">
        <ele>4.2</ele>
        <time>2020-06-23T11:53:51Z</time>
      </trkpt>
      <trkpt lat="51.0715" lon="2.52583">
        <ele>4.2</ele>
        <time>2020-06-23T11:53:52Z</time>
      </trkpt>
      <trkpt lat="51.07148" lon="2.5258">
        <ele>4.2</ele>
        <time>2020-06-23T11:53:53Z</time>
      </trkpt>
      <trkpt lat="51.07135" lon="2.52583">
        <ele>4.2</ele>
        <time>2020-06-23T11:53:54Z</time>
      </trkpt>
      <trkpt lat="51.07125" lon="2.52586">
        <ele>4.2</ele>
        <time>2020-06-23T11:53:55Z</time>
      </trkpt>
      <trkpt lat="51.07115" lon="2.5259">
        <ele>4.2</ele>
        <time>2020-06-23T11:53:56Z</time>
      </trkpt>
      <trkpt lat="51.07114" lon="2.52586">
        <ele>4.2</ele>
        <time>2020-06-23T11:53:57Z</time>
      </trkpt>
      <trkpt lat="51.07113" lon="2.52584">
        <ele>4.2</ele>
        <time>2020-06-23T11:53:58Z</time>
      </trkpt>
      <trkpt lat="51.07113" lon="2.52579">
        <ele>4.2</ele>
        <time>2020-06-23T11:53:59Z</time>
      </trkpt>
      <trkpt lat="51.07113" lon="2.52576">
        <ele>4.2</ele>
        <time>2020-06-23T11:54:00Z</time>
      </trkpt>
      <trkpt lat="51.07112" lon="2.52571">
        <ele>4.2</ele>
        <time>2020-06-23T11:54:01Z</time>
      </trkpt>
      <trkpt lat="51.07112" lon="2.52569">
        <ele>4.2</ele>
        <time>2020-06-23T11:54:02Z</time>
      </trkpt>
      <trkpt lat="51.07111" lon="2.52563">
        <ele>4.2</ele>
        <time>2020-06-23T11:54:03Z</time>
      </trkpt>
      <trkpt lat="51.0711" lon="2.52562">
        <ele>4.2</ele>
        <time>2020-06-23T11:54:04Z</time>
      </trkpt>
      <trkpt lat="51.0711" lon="2.52559">
        <ele>4.2</ele>
        <time>2020-06-23T11:54:05Z</time>
      </trkpt>
      <trkpt lat="51.07109" lon="2.52559">
        <ele>4.2</ele>
        <time>2020-06-23T11:54:06Z</time>
      </trkpt>
      <trkpt lat="51.07107" lon="2.5256">
        <ele>4.2</ele>
        <time>2020-06-23T11:54:07Z</time>
      </trkpt>
      <trkpt lat="51.07107" lon="2.52563">
        <ele>4.2</ele>
        <time>2020-06-23T11:54:08Z</time>
      </trkpt>
      <trkpt lat="51.07107" lon="2.52564">
        <ele>4.2</ele>
        <time>2020-06-23T11:54:09Z</time>
      </trkpt>
      <trkpt lat="51.07107" lon="2.52567">
        <ele>4.2</ele>
        <time>2020-06-23T11:54:10Z</time>
      </trkpt>
      <trkpt lat="51.07108" lon="2.52569">
        <ele>4.2</ele>
        <time>2020-06-23T11:54:11Z</time>
      </trkpt>
      <trkpt lat="51.07109" lon="2.52569">
        <ele>4.2</ele>
        <time>2020-06-23T11:54:12Z</time>
      </trkpt>
      <trkpt lat="51.07109" lon="2.5257">
        <ele>4.2</ele>
        <time>2020-06-23T11:54:13Z</time>
      </trkpt>
      <trkpt lat="51.07109" lon="2.5257">
        <ele>4.2</ele>
        <time>2020-06-23T11:54:14Z</time>
      </trkpt>
      <trkpt lat="51.0711" lon="2.52571">
        <ele>4.2</ele>
        <time>2020-06-23T11:54:15Z</time>
      </trkpt>
      <trkpt lat="51.0711" lon="2.52572">
        <ele>4.2</ele>
        <time>2020-06-23T11:54:16Z</time>
      </trkpt>
      <trkpt lat="51.0711" lon="2.52572">
        <ele>4.2</ele>
        <time>2020-06-23T11:54:17Z</time>
      </trkpt>
      <trkpt lat="51.0711" lon="2.52571">
        <ele>4.2</ele>
        <time>2020-06-23T11:54:18Z</time>
      </trkpt>
      <trkpt lat="51.0711" lon="2.5257">
        <ele>4.2</ele>
        <time>2020-06-23T11:54:19Z</time>
      </trkpt>
      <trkpt lat="51.07111" lon="2.52569">
        <ele>4.2</ele>
        <time>2020-06-23T11:54:20Z</time>
      </trkpt>
      <trkpt lat="51.07111" lon="2.52567">
        <ele>4.2</ele>
        <time>2020-06-23T11:54:21Z</time>
      </trkpt>
      <trkpt lat="51.07111" lon="2.52566">
        <ele>4.2</ele>
        <time>2020-06-23T11:54:22Z</time>
      </trkpt>
      <trkpt lat="51.07111" lon="2.52565">
        <ele>4.2</ele>
        <time>2020-06-23T11:54:23Z</time>
      </trkpt>
      <trkpt lat="51.0711" lon="2.5256">
        <ele>4.2</ele>
        <time>2020-06-23T11:54:24Z</time>
      </trkpt>
      <trkpt lat="51.07109" lon="2.52555">
        <ele>4.1</ele>
        <time>2020-06-23T11:54:25Z</time>
      </trkpt>
      <trkpt lat="51.07108" lon="2.52551">
        <ele>4.1</ele>
        <time>2020-06-23T11:54:26Z</time>
      </trkpt>
      <trkpt lat="51.07106" lon="2.52546">
        <ele>4.1</ele>
        <time>2020-06-23T11:54:27Z</time>
      </trkpt>
      <trkpt lat="51.07105" lon="2.52541">
        <ele>4.1</ele>
        <time>2020-06-23T11:54:28Z</time>
      </trkpt>
      <trkpt lat="51.07105" lon="2.52533">
        <ele>4.1</ele>
        <time>2020-06-23T11:54:29Z</time>
      </trkpt>
      <trkpt lat="51.07104" lon="2.52526">
        <ele>4.1</ele>
        <time>2020-06-23T11:54:30Z</time>
      </trkpt>
      <trkpt lat="51.07103" lon="2.52518">
        <ele>4.1</ele>
        <time>2020-06-23T11:54:31Z</time>
      </trkpt>
      <trkpt lat="51.07102" lon="2.5251">
        <ele>4.1</ele>
        <time>2020-06-23T11:54:32Z</time>
      </trkpt>
      <trkpt lat="51.07101" lon="2.52502">
        <ele>4.1</ele>
        <time>2020-06-23T11:54:33Z</time>
      </trkpt>
      <trkpt lat="51.07099" lon="2.52493">
        <ele>4.1</ele>
        <time>2020-06-23T11:54:34Z</time>
      </trkpt>
      <trkpt lat="51.07097" lon="2.52485">
        <ele>4.1</ele>
        <time>2020-06-23T11:54:35Z</time>
      </trkpt>
      <trkpt lat="51.07096" lon="2.52477">
        <ele>4.2</ele>
        <time>2020-06-23T11:54:36Z</time>
      </trkpt>
      <trkpt lat="51.07095" lon="2.52468">
        <ele>4.2</ele>
        <time>2020-06-23T11:54:37Z</time>
      </trkpt>
      <trkpt lat="51.07094" lon="2.52459">
        <ele>4.2</ele>
        <time>2020-06-23T11:54:38Z</time>
      </trkpt>
      <trkpt lat="51.07092" lon="2.5245">
        <ele>4.3</ele>
        <time>2020-06-23T11:54:39Z</time>
      </trkpt>
      <trkpt lat="51.07091" lon="2.52441">
        <ele>4.3</ele>
        <time>2020-06-23T11:54:40Z</time>
      </trkpt>
      <trkpt lat="51.0709" lon="2.52431">
        <ele>4.3</ele>
        <time>2020-06-23T11:54:41Z</time>
      </trkpt>
      <trkpt lat="51.07089" lon="2.52421">
        <ele>4.3</ele>
        <time>2020-06-23T11:54:42Z</time>
      </trkpt>
      <trkpt lat="51.07087" lon="2.52411">
        <ele>4.3</ele>
        <time>2020-06-23T11:54:43Z</time>
      </trkpt>
      <trkpt lat="51.07086" lon="2.52402">
        <ele>4.4</ele>
        <time>2020-06-23T11:54:44Z</time>
      </trkpt>
      <trkpt lat="51.07085" lon="2.52394">
        <ele>4.4</ele>
        <time>2020-06-23T11:54:45Z</time>
      </trkpt>
      <trkpt lat="51.07084" lon="2.52384">
        <ele>4.4</ele>
        <time>2020-06-23T11:54:46Z</time>
      </trkpt>
      <trkpt lat="51.07084" lon="2.52375">
        <ele>4.5</ele>
        <time>2020-06-23T11:54:47Z</time>
      </trkpt>
      <trkpt lat="51.07083" lon="2.52367">
        <ele>4.5</ele>
        <time>2020-06-23T11:54:48Z</time>
      </trkpt>
      <trkpt lat="51.07082" lon="2.52359">
        <ele>4.5</ele>
        <time>2020-06-23T11:54:49Z</time>
      </trkpt>
      <trkpt lat="51.07082" lon="2.52351">
        <ele>4.6</ele>
        <time>2020-06-23T11:54:50Z</time>
      </trkpt>
      <trkpt lat="51.07081" lon="2.52344">
        <ele>4.6</ele>
        <time>2020-06-23T11:54:51Z</time>
      </trkpt>
      <trkpt lat="51.07081" lon="2.52336">
        <ele>4.6</ele>
        <time>2020-06-23T11:54:52Z</time>
      </trkpt>
      <trkpt lat="51.07081" lon="2.52327">
        <ele>4.7</ele>
        <time>2020-06-23T11:54:53Z</time>
      </trkpt>
      <trkpt lat="51.0708" lon="2.52319">
        <ele>4.7</ele>
        <time>2020-06-23T11:54:54Z</time>
      </trkpt>
      <trkpt lat="51.07079" lon="2.5231">
        <ele>4.7</ele>
        <time>2020-06-23T11:54:55Z</time>
      </trkpt>
      <trkpt lat="51.07078" lon="2.52301">
        <ele>4.7</ele>
        <time>2020-06-23T11:54:56Z</time>
      </trkpt>
      <trkpt lat="51.07078" lon="2.52293">
        <ele>4.7</ele>
        <time>2020-06-23T11:54:57Z</time>
      </trkpt>
      <trkpt lat="51.07077" lon="2.52285">
        <ele>4.7</ele>
        <time>2020-06-23T11:54:58Z</time>
      </trkpt>
      <trkpt lat="51.07077" lon="2.52278">
        <ele>4.7</ele>
        <time>2020-06-23T11:54:59Z</time>
      </trkpt>
      <trkpt lat="51.07076" lon="2.5227">
        <ele>4.7</ele>
        <time>2020-06-23T11:55:00Z</time>
      </trkpt>
      <trkpt lat="51.07076" lon="2.52263">
        <ele>4.7</ele>
        <time>2020-06-23T11:55:01Z</time>
      </trkpt>
      <trkpt lat="51.07076" lon="2.52256">
        <ele>4.7</ele>
        <time>2020-06-23T11:55:02Z</time>
      </trkpt>
      <trkpt lat="51.07076" lon="2.5225">
        <ele>4.7</ele>
        <time>2020-06-23T11:55:03Z</time>
      </trkpt>
      <trkpt lat="51.07074" lon="2.52243">
        <ele>4.7</ele>
        <time>2020-06-23T11:55:04Z</time>
      </trkpt>
      <trkpt lat="51.07074" lon="2.52238">
        <ele>4.7</ele>
        <time>2020-06-23T11:55:05Z</time>
      </trkpt>
      <trkpt lat="51.07074" lon="2.52231">
        <ele>4.7</ele>
        <time>2020-06-23T11:55:06Z</time>
      </trkpt>
      <trkpt lat="51.07074" lon="2.52224">
        <ele>4.7</ele>
        <time>2020-06-23T11:55:07Z</time>
      </trkpt>
      <trkpt lat="51.07073" lon="2.52218">
        <ele>4.7</ele>
        <time>2020-06-23T11:55:08Z</time>
      </trkpt>
      <trkpt lat="51.07072" lon="2.52213">
        <ele>4.7</ele>
        <time>2020-06-23T11:55:09Z</time>
      </trkpt>
      <trkpt lat="51.07069" lon="2.52208">
        <ele>4.8</ele>
        <time>2020-06-23T11:55:10Z</time>
      </trkpt>
      <trkpt lat="51.07068" lon="2.52201">
        <ele>4.8</ele>
        <time>2020-06-23T11:55:11Z</time>
      </trkpt>
      <trkpt lat="51.07068" lon="2.52194">
        <ele>4.7</ele>
        <time>2020-06-23T11:55:12Z</time>
      </trkpt>
      <trkpt lat="51.07067" lon="2.52187">
        <ele>4.7</ele>
        <time>2020-06-23T11:55:13Z</time>
      </trkpt>
      <trkpt lat="51.07066" lon="2.5218">
        <ele>4.7</ele>
        <time>2020-06-23T11:55:14Z</time>
      </trkpt>
      <trkpt lat="51.07066" lon="2.52174">
        <ele>4.7</ele>
        <time>2020-06-23T11:55:15Z</time>
      </trkpt>
      <trkpt lat="51.07066" lon="2.52165">
        <ele>4.6</ele>
        <time>2020-06-23T11:55:16Z</time>
      </trkpt>
      <trkpt lat="51.07066" lon="2.52158">
        <ele>4.6</ele>
        <time>2020-06-23T11:55:17Z</time>
      </trkpt>
      <trkpt lat="51.07065" lon="2.52152">
        <ele>4.6</ele>
        <time>2020-06-23T11:55:18Z</time>
      </trkpt>
      <trkpt lat="51.07064" lon="2.52146">
        <ele>4.6</ele>
        <time>2020-06-23T11:55:19Z</time>
      </trkpt>
      <trkpt lat="51.07064" lon="2.5214">
        <ele>4.6</ele>
        <time>2020-06-23T11:55:20Z</time>
      </trkpt>
      <trkpt lat="51.07063" lon="2.52135">
        <ele>4.6</ele>
        <time>2020-06-23T11:55:21Z</time>
      </trkpt>
      <trkpt lat="51.07062" lon="2.5213">
        <ele>4.6</ele>
        <time>2020-06-23T11:55:22Z</time>
      </trkpt>
      <trkpt lat="51.07062" lon="2.52124">
        <ele>4.6</ele>
        <time>2020-06-23T11:55:23Z</time>
      </trkpt>
      <trkpt lat="51.07061" lon="2.5212">
        <ele>4.6</ele>
        <time>2020-06-23T11:55:24Z</time>
      </trkpt>
      <trkpt lat="51.07061" lon="2.52115">
        <ele>4.6</ele>
        <time>2020-06-23T11:55:25Z</time>
      </trkpt>
      <trkpt lat="51.07061" lon="2.52114">
        <ele>4.6</ele>
        <time>2020-06-23T11:55:26Z</time>
      </trkpt>
      <trkpt lat="51.07062" lon="2.5211">
        <ele>4.6</ele>
        <time>2020-06-23T11:55:27Z</time>
      </trkpt>
      <trkpt lat="51.07062" lon="2.52108">
        <ele>4.6</ele>
        <time>2020-06-23T11:55:28Z</time>
      </trkpt>
      <trkpt lat="51.07063" lon="2.52107">
        <ele>4.6</ele>
        <time>2020-06-23T11:55:29Z</time>
      </trkpt>
      <trkpt lat="51.07064" lon="2.52107">
        <ele>4.6</ele>
        <time>2020-06-23T11:55:30Z</time>
      </trkpt>
      <trkpt lat="51.07064" lon="2.52106">
        <ele>4.6</ele>
        <time>2020-06-23T11:55:31Z</time>
      </trkpt>
      <trkpt lat="51.07065" lon="2.52104">
        <ele>4.6</ele>
        <time>2020-06-23T11:55:32Z</time>
      </trkpt>
      <trkpt lat="51.07066" lon="2.52103">
        <ele>4.6</ele>
        <time>2020-06-23T11:55:33Z</time>
      </trkpt>
      <trkpt lat="51.07066" lon="2.52104">
        <ele>4.6</ele>
        <time>2020-06-23T11:55:34Z</time>
      </trkpt>
      <trkpt lat="51.07067" lon="2.52104">
        <ele>4.6</ele>
        <time>2020-06-23T11:55:35Z</time>
      </trkpt>
      <trkpt lat="51.07067" lon="2.52104">
        <ele>4.6</ele>
        <time>2020-06-23T11:55:36Z</time>
      </trkpt>
      <trkpt lat="51.07067" lon="2.52102">
        <ele>4.6</ele>
        <time>2020-06-23T11:55:37Z</time>
      </trkpt>
      <trkpt lat="51.07067" lon="2.52101">
        <ele>4.6</ele>
        <time>2020-06-23T11:55:38Z</time>
      </trkpt>
      <trkpt lat="51.07067" lon="2.52101">
        <ele>4.6</ele>
        <time>2020-06-23T11:55:39Z</time>
      </trkpt>
      <trkpt lat="51.07068" lon="2.521">
        <ele>4.6</ele>
        <time>2020-06-23T11:55:40Z</time>
      </trkpt>
      <trkpt lat="51.07068" lon="2.52099">
        <ele>4.6</ele>
        <time>2020-06-23T11:55:41Z</time>
      </trkpt>
      <trkpt lat="51.07068" lon="2.52099">
        <ele>4.6</ele>
        <time>2020-06-23T11:55:42Z</time>
      </trkpt>
      <trkpt lat="51.07069" lon="2.52098">
        <ele>4.6</ele>
        <time>2020-06-23T11:55:43Z</time>
      </trkpt>
      <trkpt lat="51.07068" lon="2.52098">
        <ele>4.6</ele>
        <time>2020-06-23T11:55:44Z</time>
      </trkpt>
      <trkpt lat="51.07068" lon="2.52097">
        <ele>4.6</ele>
        <time>2020-06-23T11:55:45Z</time>
      </trkpt>
      <trkpt lat="51.07068" lon="2.52096">
        <ele>4.6</ele>
        <time>2020-06-23T11:55:46Z</time>
      </trkpt>
      <trkpt lat="51.07068" lon="2.52096">
        <ele>4.6</ele>
        <time>2020-06-23T11:55:47Z</time>
      </trkpt>
      <trkpt lat="51.07068" lon="2.52095">
        <ele>4.6</ele>
        <time>2020-06-23T11:55:48Z</time>
      </trkpt>
      <trkpt lat="51.07068" lon="2.52095">
        <ele>4.6</ele>
        <time>2020-06-23T11:55:49Z</time>
      </trkpt>
      <trkpt lat="51.07068" lon="2.52097">
        <ele>4.6</ele>
        <time>2020-06-23T11:55:50Z</time>
      </trkpt>
      <trkpt lat="51.07068" lon="2.52099">
        <ele>4.6</ele>
        <time>2020-06-23T11:55:51Z</time>
      </trkpt>
      <trkpt lat="51.07068" lon="2.521">
        <ele>4.6</ele>
        <time>2020-06-23T11:55:52Z</time>
      </trkpt>
      <trkpt lat="51.07068" lon="2.52102">
        <ele>4.6</ele>
        <time>2020-06-23T11:55:53Z</time>
      </trkpt>
      <trkpt lat="51.07067" lon="2.52103">
        <ele>4.6</ele>
        <time>2020-06-23T11:55:54Z</time>
      </trkpt>
      <trkpt lat="51.07068" lon="2.52103">
        <ele>4.6</ele>
        <time>2020-06-23T11:55:55Z</time>
      </trkpt>
      <trkpt lat="51.07068" lon="2.52103">
        <ele>4.6</ele>
        <time>2020-06-23T11:55:56Z</time>
      </trkpt>
      <trkpt lat="51.07068" lon="2.52104">
        <ele>4.6</ele>
        <time>2020-06-23T11:55:57Z</time>
      </trkpt>
      <trkpt lat="51.07069" lon="2.52104">
        <ele>4.6</ele>
        <time>2020-06-23T11:55:58Z</time>
      </trkpt>
      <trkpt lat="51.07069" lon="2.52104">
        <ele>4.6</ele>
        <time>2020-06-23T11:55:59Z</time>
      </trkpt>
      <trkpt lat="51.0707" lon="2.52105">
        <ele>4.6</ele>
        <time>2020-06-23T11:56:00Z</time>
      </trkpt>
      <trkpt lat="51.07069" lon="2.52105">
        <ele>4.6</ele>
        <time>2020-06-23T11:56:01Z</time>
      </trkpt>
      <trkpt lat="51.07069" lon="2.52106">
        <ele>4.6</ele>
        <time>2020-06-23T11:56:02Z</time>
      </trkpt>
      <trkpt lat="51.07069" lon="2.52107">
        <ele>4.6</ele>
        <time>2020-06-23T11:56:03Z</time>
      </trkpt>
      <trkpt lat="51.07068" lon="2.52108">
        <ele>4.6</ele>
        <time>2020-06-23T11:56:04Z</time>
      </trkpt>
      <trkpt lat="51.07068" lon="2.52108">
        <ele>4.6</ele>
        <time>2020-06-23T11:56:05Z</time>
      </trkpt>
      <trkpt lat="51.07068" lon="2.52107">
        <ele>4.6</ele>
        <time>2020-06-23T11:56:06Z</time>
      </trkpt>
      <trkpt lat="51.07068" lon="2.52107">
        <ele>4.6</ele>
        <time>2020-06-23T11:56:07Z</time>
      </trkpt>
      <trkpt lat="51.07067" lon="2.52106">
        <ele>4.6</ele>
        <time>2020-06-23T11:56:08Z</time>
      </trkpt>
      <trkpt lat="51.07067" lon="2.52105">
        <ele>4.6</ele>
        <time>2020-06-23T11:56:09Z</time>
      </trkpt>
      <trkpt lat="51.07067" lon="2.52103">
        <ele>4.6</ele>
        <time>2020-06-23T11:56:10Z</time>
      </trkpt>
      <trkpt lat="51.07067" lon="2.52103">
        <ele>4.6</ele>
        <time>2020-06-23T11:56:11Z</time>
      </trkpt>
      <trkpt lat="51.07068" lon="2.52102">
        <ele>4.6</ele>
        <time>2020-06-23T11:56:12Z</time>
      </trkpt>
      <trkpt lat="51.07068" lon="2.52101">
        <ele>4.6</ele>
        <time>2020-06-23T11:56:13Z</time>
      </trkpt>
      <trkpt lat="51.07069" lon="2.52101">
        <ele>4.6</ele>
        <time>2020-06-23T11:56:14Z</time>
      </trkpt>
      <trkpt lat="51.07069" lon="2.52101">
        <ele>4.6</ele>
        <time>2020-06-23T11:56:15Z</time>
      </trkpt>
      <trkpt lat="51.0707" lon="2.521">
        <ele>4.6</ele>
        <time>2020-06-23T11:56:16Z</time>
      </trkpt>
      <trkpt lat="51.07071" lon="2.52099">
        <ele>4.6</ele>
        <time>2020-06-23T11:56:17Z</time>
      </trkpt>
      <trkpt lat="51.07071" lon="2.52099">
        <ele>4.6</ele>
        <time>2020-06-23T11:56:18Z</time>
      </trkpt>
      <trkpt lat="51.07072" lon="2.52099">
        <ele>4.6</ele>
        <time>2020-06-23T11:56:19Z</time>
      </trkpt>
      <trkpt lat="51.07072" lon="2.52098">
        <ele>4.6</ele>
        <time>2020-06-23T11:56:20Z</time>
      </trkpt>
      <trkpt lat="51.07073" lon="2.52099">
        <ele>4.6</ele>
        <time>2020-06-23T11:56:21Z</time>
      </trkpt>
      <trkpt lat="51.07073" lon="2.521">
        <ele>4.6</ele>
        <time>2020-06-23T11:56:22Z</time>
      </trkpt>
      <trkpt lat="51.07073" lon="2.52101">
        <ele>4.6</ele>
        <time>2020-06-23T11:56:23Z</time>
      </trkpt>
      <trkpt lat="51.07075" lon="2.521">
        <ele>4.6</ele>
        <time>2020-06-23T11:56:24Z</time>
      </trkpt>
      <trkpt lat="51.07075" lon="2.52099">
        <ele>4.6</ele>
        <time>2020-06-23T11:56:25Z</time>
      </trkpt>
      <trkpt lat="51.07076" lon="2.52099">
        <ele>4.6</ele>
        <time>2020-06-23T11:56:26Z</time>
      </trkpt>
      <trkpt lat="51.07076" lon="2.52099">
        <ele>4.6</ele>
        <time>2020-06-23T11:56:27Z</time>
      </trkpt>
      <trkpt lat="51.07076" lon="2.52099">
        <ele>4.6</ele>
        <time>2020-06-23T11:56:28Z</time>
      </trkpt>
      <trkpt lat="51.07076" lon="2.52098">
        <ele>4.6</ele>
        <time>2020-06-23T11:56:29Z</time>
      </trkpt>
      <trkpt lat="51.0707" lon="2.52099">
        <ele>4.6</ele>
        <time>2020-06-23T11:57:36Z</time>
      </trkpt>
      <trkpt lat="51.07069" lon="2.52099">
        <ele>4.6</ele>
        <time>2020-06-23T11:57:37Z</time>
      </trkpt>
      <trkpt lat="51.07068" lon="2.52101">
        <ele>4.6</ele>
        <time>2020-06-23T11:57:38Z</time>
      </trkpt>
      <trkpt lat="51.07068" lon="2.52101">
        <ele>4.6</ele>
        <time>2020-06-23T11:57:39Z</time>
      </trkpt>
      <trkpt lat="51.07068" lon="2.52101">
        <ele>4.6</ele>
        <time>2020-06-23T11:57:40Z</time>
      </trkpt>
      <trkpt lat="51.07068" lon="2.52102">
        <ele>4.6</ele>
        <time>2020-06-23T11:57:41Z</time>
      </trkpt>
      <trkpt lat="51.07067" lon="2.52102">
        <ele>4.6</ele>
        <time>2020-06-23T11:57:42Z</time>
      </trkpt>
      <trkpt lat="51.07068" lon="2.52102">
        <ele>4.6</ele>
        <time>2020-06-23T11:57:43Z</time>
      </trkpt>
      <trkpt lat="51.07068" lon="2.52101">
        <ele>4.6</ele>
        <time>2020-06-23T11:57:44Z</time>
      </trkpt>
      <trkpt lat="51.07068" lon="2.52101">
        <ele>4.6</ele>
        <time>2020-06-23T11:57:45Z</time>
      </trkpt>
      <trkpt lat="51.07068" lon="2.52101">
        <ele>4.6</ele>
        <time>2020-06-23T11:57:46Z</time>
      </trkpt>
      <trkpt lat="51.07068" lon="2.52101">
        <ele>4.6</ele>
        <time>2020-06-23T11:57:47Z</time>
      </trkpt>
      <trkpt lat="51.07068" lon="2.52101">
        <ele>4.6</ele>
        <time>2020-06-23T11:57:48Z</time>
      </trkpt>
      <trkpt lat="51.07068" lon="2.52101">
        <ele>4.6</ele>
        <time>2020-06-23T11:57:49Z</time>
      </trkpt>
      <trkpt lat="51.07068" lon="2.52101">
        <ele>4.6</ele>
        <time>2020-06-23T11:57:50Z</time>
      </trkpt>
      <trkpt lat="51.07067" lon="2.52101">
        <ele>4.6</ele>
        <time>2020-06-23T11:57:51Z</time>
      </trkpt>
      <trkpt lat="51.07068" lon="2.52101">
        <ele>4.6</ele>
        <time>2020-06-23T11:57:52Z</time>
      </trkpt>
      <trkpt lat="51.0709" lon="2.52099">
        <ele>4.6</ele>
        <time>2020-06-23T11:59:26Z</time>
      </trkpt>
      <trkpt lat="51.07091" lon="2.52098">
        <ele>4.6</ele>
        <time>2020-06-23T11:59:27Z</time>
      </trkpt>
      <trkpt lat="51.0709" lon="2.52098">
        <ele>4.6</ele>
        <time>2020-06-23T11:59:28Z</time>
      </trkpt>
      <trkpt lat="51.0709" lon="2.52097">
        <ele>4.6</ele>
        <time>2020-06-23T11:59:29Z</time>
      </trkpt>
      <trkpt lat="51.0709" lon="2.52097">
        <ele>4.6</ele>
        <time>2020-06-23T11:59:30Z</time>
      </trkpt>
      <trkpt lat="51.0709" lon="2.52098">
        <ele>4.6</ele>
        <time>2020-06-23T11:59:31Z</time>
      </trkpt>
      <trkpt lat="51.0709" lon="2.52098">
        <ele>4.6</ele>
        <time>2020-06-23T11:59:32Z</time>
      </trkpt>
      <trkpt lat="51.0709" lon="2.52098">
        <ele>4.6</ele>
        <time>2020-06-23T11:59:33Z</time>
      </trkpt>
      <trkpt lat="51.0709" lon="2.52099">
        <ele>4.6</ele>
        <time>2020-06-23T11:59:34Z</time>
      </trkpt>
      <trkpt lat="51.0709" lon="2.521">
        <ele>4.6</ele>
        <time>2020-06-23T11:59:35Z</time>
      </trkpt>
      <trkpt lat="51.0709" lon="2.52101">
        <ele>4.6</ele>
        <time>2020-06-23T11:59:36Z</time>
      </trkpt>
      <trkpt lat="51.07089" lon="2.52103">
        <ele>4.7</ele>
        <time>2020-06-23T11:59:37Z</time>
      </trkpt>
      <trkpt lat="51.07089" lon="2.52104">
        <ele>4.7</ele>
        <time>2020-06-23T11:59:38Z</time>
      </trkpt>
      <trkpt lat="51.07089" lon="2.52104">
        <ele>4.7</ele>
        <time>2020-06-23T11:59:39Z</time>
      </trkpt>
      <trkpt lat="51.0709" lon="2.52104">
        <ele>4.7</ele>
        <time>2020-06-23T11:59:40Z</time>
      </trkpt>
      <trkpt lat="51.0709" lon="2.52104">
        <ele>4.7</ele>
        <time>2020-06-23T11:59:41Z</time>
      </trkpt>
      <trkpt lat="51.0709" lon="2.52104">
        <ele>4.7</ele>
        <time>2020-06-23T11:59:42Z</time>
      </trkpt>
      <trkpt lat="51.0709" lon="2.52104">
        <ele>4.7</ele>
        <time>2020-06-23T11:59:43Z</time>
      </trkpt>
      <trkpt lat="51.0709" lon="2.52104">
        <ele>4.7</ele>
        <time>2020-06-23T11:59:44Z</time>
      </trkpt>
      <trkpt lat="51.0709" lon="2.52104">
        <ele>4.7</ele>
        <time>2020-06-23T11:59:45Z</time>
      </trkpt>
      <trkpt lat="51.0709" lon="2.52104">
        <ele>4.7</ele>
        <time>2020-06-23T11:59:46Z</time>
      </trkpt>
      <trkpt lat="51.0709" lon="2.52105">
        <ele>4.7</ele>
        <time>2020-06-23T11:59:47Z</time>
      </trkpt>
      <trkpt lat="51.0709" lon="2.52106">
        <ele>4.7</ele>
        <time>2020-06-23T11:59:48Z</time>
      </trkpt>
      <trkpt lat="51.07089" lon="2.52107">
        <ele>4.7</ele>
        <time>2020-06-23T11:59:49Z</time>
      </trkpt>
      <trkpt lat="51.07088" lon="2.52106">
        <ele>4.7</ele>
        <time>2020-06-23T11:59:50Z</time>
      </trkpt>
      <trkpt lat="51.07087" lon="2.52106">
        <ele>4.7</ele>
        <time>2020-06-23T11:59:51Z</time>
      </trkpt>
      <trkpt lat="51.07086" lon="2.52107">
        <ele>4.7</ele>
        <time>2020-06-23T11:59:52Z</time>
      </trkpt>
      <trkpt lat="51.07086" lon="2.52107">
        <ele>4.7</ele>
        <time>2020-06-23T11:59:53Z</time>
      </trkpt>
      <trkpt lat="51.07085" lon="2.52109">
        <ele>4.7</ele>
        <time>2020-06-23T11:59:54Z</time>
      </trkpt>
      <trkpt lat="51.07084" lon="2.52109">
        <ele>4.7</ele>
        <time>2020-06-23T11:59:55Z</time>
      </trkpt>
      <trkpt lat="51.07083" lon="2.52109">
        <ele>4.7</ele>
        <time>2020-06-23T11:59:56Z</time>
      </trkpt>
      <trkpt lat="51.07082" lon="2.5211">
        <ele>4.7</ele>
        <time>2020-06-23T11:59:57Z</time>
      </trkpt>
      <trkpt lat="51.07081" lon="2.52109">
        <ele>4.7</ele>
        <time>2020-06-23T11:59:58Z</time>
      </trkpt>
      <trkpt lat="51.07081" lon="2.52109">
        <ele>4.7</ele>
        <time>2020-06-23T11:59:59Z</time>
      </trkpt>
      <trkpt lat="51.0708" lon="2.52108">
        <ele>4.7</ele>
        <time>2020-06-23T12:00:00Z</time>
      </trkpt>
      <trkpt lat="51.0708" lon="2.52108">
        <ele>4.7</ele>
        <time>2020-06-23T12:00:01Z</time>
      </trkpt>
      <trkpt lat="51.0708" lon="2.52107">
        <ele>4.7</ele>
        <time>2020-06-23T12:00:02Z</time>
      </trkpt>
      <trkpt lat="51.0708" lon="2.52107">
        <ele>4.7</ele>
        <time>2020-06-23T12:00:03Z</time>
      </trkpt>
      <trkpt lat="51.0708" lon="2.52107">
        <ele>4.7</ele>
        <time>2020-06-23T12:00:04Z</time>
      </trkpt>
      <trkpt lat="51.0708" lon="2.52107">
        <ele>4.7</ele>
        <time>2020-06-23T12:00:05Z</time>
      </trkpt>
      <trkpt lat="51.07079" lon="2.52106">
        <ele>4.7</ele>
        <time>2020-06-23T12:00:06Z</time>
      </trkpt>
      <trkpt lat="51.07078" lon="2.52105">
        <ele>4.7</ele>
        <time>2020-06-23T12:00:07Z</time>
      </trkpt>
      <trkpt lat="51.07077" lon="2.52106">
        <ele>4.7</ele>
        <time>2020-06-23T12:00:08Z</time>
      </trkpt>
      <trkpt lat="51.07075" lon="2.52106">
        <ele>4.7</ele>
        <time>2020-06-23T12:00:09Z</time>
      </trkpt>
      <trkpt lat="51.07073" lon="2.52106">
        <ele>4.7</ele>
        <time>2020-06-23T12:00:10Z</time>
      </trkpt>
      <trkpt lat="51.07072" lon="2.52106">
        <ele>4.7</ele>
        <time>2020-06-23T12:00:11Z</time>
      </trkpt>
      <trkpt lat="51.07071" lon="2.52107">
        <ele>4.7</ele>
        <time>2020-06-23T12:00:12Z</time>
      </trkpt>
      <trkpt lat="51.0707" lon="2.52107">
        <ele>4.7</ele>
        <time>2020-06-23T12:00:13Z</time>
      </trkpt>
      <trkpt lat="51.0707" lon="2.52108">
        <ele>4.7</ele>
        <time>2020-06-23T12:00:14Z</time>
      </trkpt>
      <trkpt lat="51.0707" lon="2.52107">
        <ele>4.7</ele>
        <time>2020-06-23T12:00:15Z</time>
      </trkpt>
      <trkpt lat="51.0707" lon="2.52107">
        <ele>4.7</ele>
        <time>2020-06-23T12:00:16Z</time>
      </trkpt>
      <trkpt lat="51.0707" lon="2.52107">
        <ele>4.7</ele>
        <time>2020-06-23T12:00:17Z</time>
      </trkpt>
      <trkpt lat="51.0707" lon="2.52106">
        <ele>4.7</ele>
        <time>2020-06-23T12:00:18Z</time>
      </trkpt>
      <trkpt lat="51.0707" lon="2.52106">
        <ele>4.7</ele>
        <time>2020-06-23T12:00:19Z</time>
      </trkpt>
      <trkpt lat="51.07069" lon="2.52106">
        <ele>4.7</ele>
        <time>2020-06-23T12:00:20Z</time>
      </trkpt>
      <trkpt lat="51.07069" lon="2.52106">
        <ele>4.7</ele>
        <time>2020-06-23T12:00:21Z</time>
      </trkpt>
      <trkpt lat="51.07069" lon="2.52106">
        <ele>4.7</ele>
        <time>2020-06-23T12:00:22Z</time>
      </trkpt>
      <trkpt lat="51.07069" lon="2.52106">
        <ele>4.7</ele>
        <time>2020-06-23T12:00:23Z</time>
      </trkpt>
      <trkpt lat="51.07069" lon="2.52106">
        <ele>4.7</ele>
        <time>2020-06-23T12:00:24Z</time>
      </trkpt>
      <trkpt lat="51.07069" lon="2.52107">
        <ele>4.7</ele>
        <time>2020-06-23T12:00:25Z</time>
      </trkpt>
      <trkpt lat="51.07069" lon="2.52107">
        <ele>4.7</ele>
        <time>2020-06-23T12:00:26Z</time>
      </trkpt>
      <trkpt lat="51.07069" lon="2.52108">
        <ele>4.7</ele>
        <time>2020-06-23T12:00:27Z</time>
      </trkpt>
      <trkpt lat="51.07068" lon="2.52108">
        <ele>4.7</ele>
        <time>2020-06-23T12:00:28Z</time>
      </trkpt>
      <trkpt lat="51.07068" lon="2.52108">
        <ele>4.7</ele>
        <time>2020-06-23T12:00:29Z</time>
      </trkpt>
      <trkpt lat="51.07068" lon="2.52109">
        <ele>4.7</ele>
        <time>2020-06-23T12:00:30Z</time>
      </trkpt>
      <trkpt lat="51.07068" lon="2.52109">
        <ele>4.7</ele>
        <time>2020-06-23T12:00:31Z</time>
      </trkpt>
      <trkpt lat="51.07068" lon="2.52109">
        <ele>4.7</ele>
        <time>2020-06-23T12:00:32Z</time>
      </trkpt>
      <trkpt lat="51.07068" lon="2.5211">
        <ele>4.7</ele>
        <time>2020-06-23T12:00:33Z</time>
      </trkpt>
      <trkpt lat="51.07067" lon="2.5211">
        <ele>4.7</ele>
        <time>2020-06-23T12:00:45Z</time>
      </trkpt>
      <trkpt lat="51.07067" lon="2.5211">
        <ele>4.7</ele>
        <time>2020-06-23T12:00:46Z</time>
      </trkpt>
      <trkpt lat="51.07067" lon="2.52111">
        <ele>4.7</ele>
        <time>2020-06-23T12:00:47Z</time>
      </trkpt>
      <trkpt lat="51.07067" lon="2.52111">
        <ele>4.7</ele>
        <time>2020-06-23T12:00:48Z</time>
      </trkpt>
      <trkpt lat="51.07066" lon="2.52111">
        <ele>4.7</ele>
        <time>2020-06-23T12:00:49Z</time>
      </trkpt>
      <trkpt lat="51.07066" lon="2.52111">
        <ele>4.7</ele>
        <time>2020-06-23T12:00:50Z</time>
      </trkpt>
      <trkpt lat="51.07065" lon="2.5211">
        <ele>4.7</ele>
        <time>2020-06-23T12:00:51Z</time>
      </trkpt>
      <trkpt lat="51.07065" lon="2.52109">
        <ele>4.7</ele>
        <time>2020-06-23T12:00:52Z</time>
      </trkpt>
      <trkpt lat="51.07065" lon="2.52108">
        <ele>4.7</ele>
        <time>2020-06-23T12:00:53Z</time>
      </trkpt>
      <trkpt lat="51.07065" lon="2.52107">
        <ele>4.7</ele>
        <time>2020-06-23T12:00:54Z</time>
      </trkpt>
      <trkpt lat="51.07064" lon="2.52106">
        <ele>4.7</ele>
        <time>2020-06-23T12:00:55Z</time>
      </trkpt>
      <trkpt lat="51.07064" lon="2.52105">
        <ele>4.7</ele>
        <time>2020-06-23T12:00:56Z</time>
      </trkpt>
      <trkpt lat="51.07064" lon="2.521">
        <ele>4.7</ele>
        <time>2020-06-23T12:00:57Z</time>
      </trkpt>
      <trkpt lat="51.07064" lon="2.52095">
        <ele>4.7</ele>
        <time>2020-06-23T12:00:58Z</time>
      </trkpt>
      <trkpt lat="51.07063" lon="2.5209">
        <ele>4.7</ele>
        <time>2020-06-23T12:00:59Z</time>
      </trkpt>
      <trkpt lat="51.07062" lon="2.52085">
        <ele>4.7</ele>
        <time>2020-06-23T12:01:00Z</time>
      </trkpt>
      <trkpt lat="51.07062" lon="2.5208">
        <ele>4.7</ele>
        <time>2020-06-23T12:01:01Z</time>
      </trkpt>
      <trkpt lat="51.07062" lon="2.52075">
        <ele>4.7</ele>
        <time>2020-06-23T12:01:02Z</time>
      </trkpt>
      <trkpt lat="51.07061" lon="2.5207">
        <ele>4.7</ele>
        <time>2020-06-23T12:01:03Z</time>
      </trkpt>
      <trkpt lat="51.07061" lon="2.52064">
        <ele>4.7</ele>
        <time>2020-06-23T12:01:04Z</time>
      </trkpt>
      <trkpt lat="51.07061" lon="2.52059">
        <ele>4.7</ele>
        <time>2020-06-23T12:01:05Z</time>
      </trkpt>
      <trkpt lat="51.0706" lon="2.52054">
        <ele>4.7</ele>
        <time>2020-06-23T12:01:06Z</time>
      </trkpt>
      <trkpt lat="51.0706" lon="2.52048">
        <ele>4.7</ele>
        <time>2020-06-23T12:01:07Z</time>
      </trkpt>
      <trkpt lat="51.0706" lon="2.52043">
        <ele>4.7</ele>
        <time>2020-06-23T12:01:08Z</time>
      </trkpt>
      <trkpt lat="51.0706" lon="2.52038">
        <ele>4.7</ele>
        <time>2020-06-23T12:01:09Z</time>
      </trkpt>
      <trkpt lat="51.0706" lon="2.52033">
        <ele>4.7</ele>
        <time>2020-06-23T12:01:10Z</time>
      </trkpt>
      <trkpt lat="51.0706" lon="2.52028">
        <ele>4.7</ele>
        <time>2020-06-23T12:01:11Z</time>
      </trkpt>
      <trkpt lat="51.0706" lon="2.52023">
        <ele>4.7</ele>
        <time>2020-06-23T12:01:12Z</time>
      </trkpt>
      <trkpt lat="51.0706" lon="2.52018">
        <ele>4.7</ele>
        <time>2020-06-23T12:01:13Z</time>
      </trkpt>
      <trkpt lat="51.0706" lon="2.52013">
        <ele>4.7</ele>
        <time>2020-06-23T12:01:14Z</time>
      </trkpt>
      <trkpt lat="51.0706" lon="2.52008">
        <ele>4.7</ele>
        <time>2020-06-23T12:01:15Z</time>
      </trkpt>
      <trkpt lat="51.0706" lon="2.52003">
        <ele>4.7</ele>
        <time>2020-06-23T12:01:16Z</time>
      </trkpt>
      <trkpt lat="51.07061" lon="2.51997">
        <ele>4.7</ele>
        <time>2020-06-23T12:01:17Z</time>
      </trkpt>
      <trkpt lat="51.07061" lon="2.51994">
        <ele>4.7</ele>
        <time>2020-06-23T12:01:18Z</time>
      </trkpt>
      <trkpt lat="51.07061" lon="2.5199">
        <ele>4.7</ele>
        <time>2020-06-23T12:01:19Z</time>
      </trkpt>
      <trkpt lat="51.07062" lon="2.51985">
        <ele>4.7</ele>
        <time>2020-06-23T12:01:20Z</time>
      </trkpt>
      <trkpt lat="51.07063" lon="2.51981">
        <ele>4.7</ele>
        <time>2020-06-23T12:01:21Z</time>
      </trkpt>
      <trkpt lat="51.07064" lon="2.51975">
        <ele>4.6</ele>
        <time>2020-06-23T12:01:22Z</time>
      </trkpt>
      <trkpt lat="51.07064" lon="2.51969">
        <ele>4.6</ele>
        <time>2020-06-23T12:01:23Z</time>
      </trkpt>
      <trkpt lat="51.07064" lon="2.51964">
        <ele>4.6</ele>
        <time>2020-06-23T12:01:24Z</time>
      </trkpt>
      <trkpt lat="51.07063" lon="2.51959">
        <ele>4.6</ele>
        <time>2020-06-23T12:01:25Z</time>
      </trkpt>
      <trkpt lat="51.07062" lon="2.51953">
        <ele>4.6</ele>
        <time>2020-06-23T12:01:26Z</time>
      </trkpt>
      <trkpt lat="51.0706" lon="2.51947">
        <ele>4.6</ele>
        <time>2020-06-23T12:01:27Z</time>
      </trkpt>
      <trkpt lat="51.07059" lon="2.51942">
        <ele>4.6</ele>
        <time>2020-06-23T12:01:28Z</time>
      </trkpt>
      <trkpt lat="51.07058" lon="2.51936">
        <ele>4.6</ele>
        <time>2020-06-23T12:01:29Z</time>
      </trkpt>
      <trkpt lat="51.07058" lon="2.51931">
        <ele>4.6</ele>
        <time>2020-06-23T12:01:30Z</time>
      </trkpt>
      <trkpt lat="51.07057" lon="2.51925">
        <ele>4.6</ele>
        <time>2020-06-23T12:01:31Z</time>
      </trkpt>
      <trkpt lat="51.07056" lon="2.51919">
        <ele>4.6</ele>
        <time>2020-06-23T12:01:32Z</time>
      </trkpt>
      <trkpt lat="51.07056" lon="2.51913">
        <ele>4.6</ele>
        <time>2020-06-23T12:01:33Z</time>
      </trkpt>
      <trkpt lat="51.07056" lon="2.51907">
        <ele>4.6</ele>
        <time>2020-06-23T12:01:34Z</time>
      </trkpt>
      <trkpt lat="51.07056" lon="2.51899">
        <ele>4.6</ele>
        <time>2020-06-23T12:01:35Z</time>
      </trkpt>
      <trkpt lat="51.07055" lon="2.51892">
        <ele>4.7</ele>
        <time>2020-06-23T12:01:36Z</time>
      </trkpt>
      <trkpt lat="51.07054" lon="2.51884">
        <ele>4.7</ele>
        <time>2020-06-23T12:01:37Z</time>
      </trkpt>
      <trkpt lat="51.07054" lon="2.51875">
        <ele>4.6</ele>
        <time>2020-06-23T12:01:38Z</time>
      </trkpt>
      <trkpt lat="51.07053" lon="2.51867">
        <ele>4.6</ele>
        <time>2020-06-23T12:01:39Z</time>
      </trkpt>
      <trkpt lat="51.07051" lon="2.5186">
        <ele>4.6</ele>
        <time>2020-06-23T12:01:40Z</time>
      </trkpt>
      <trkpt lat="51.0705" lon="2.51853">
        <ele>4.6</ele>
        <time>2020-06-23T12:01:41Z</time>
      </trkpt>
      <trkpt lat="51.07048" lon="2.51846">
        <ele>4.6</ele>
        <time>2020-06-23T12:01:42Z</time>
      </trkpt>
      <trkpt lat="51.07046" lon="2.51838">
        <ele>4.6</ele>
        <time>2020-06-23T12:01:43Z</time>
      </trkpt>
      <trkpt lat="51.07045" lon="2.51831">
        <ele>4.7</ele>
        <time>2020-06-23T12:01:44Z</time>
      </trkpt>
      <trkpt lat="51.07042" lon="2.51823">
        <ele>4.7</ele>
        <time>2020-06-23T12:01:45Z</time>
      </trkpt>
      <trkpt lat="51.07041" lon="2.51814">
        <ele>4.7</ele>
        <time>2020-06-23T12:01:46Z</time>
      </trkpt>
      <trkpt lat="51.0704" lon="2.51808">
        <ele>4.7</ele>
        <time>2020-06-23T12:01:47Z</time>
      </trkpt>
      <trkpt lat="51.07038" lon="2.51801">
        <ele>4.7</ele>
        <time>2020-06-23T12:01:48Z</time>
      </trkpt>
      <trkpt lat="51.07037" lon="2.51795">
        <ele>4.8</ele>
        <time>2020-06-23T12:01:49Z</time>
      </trkpt>
      <trkpt lat="51.07035" lon="2.51789">
        <ele>4.8</ele>
        <time>2020-06-23T12:01:50Z</time>
      </trkpt>
      <trkpt lat="51.07034" lon="2.51783">
        <ele>4.8</ele>
        <time>2020-06-23T12:01:51Z</time>
      </trkpt>
      <trkpt lat="51.07033" lon="2.51778">
        <ele>4.8</ele>
        <time>2020-06-23T12:01:52Z</time>
      </trkpt>
      <trkpt lat="51.07032" lon="2.51772">
        <ele>4.8</ele>
        <time>2020-06-23T12:01:53Z</time>
      </trkpt>
      <trkpt lat="51.07031" lon="2.51764">
        <ele>4.9</ele>
        <time>2020-06-23T12:01:54Z</time>
      </trkpt>
      <trkpt lat="51.0703" lon="2.51757">
        <ele>4.9</ele>
        <time>2020-06-23T12:01:55Z</time>
      </trkpt>
      <trkpt lat="51.07029" lon="2.51749">
        <ele>4.9</ele>
        <time>2020-06-23T12:01:56Z</time>
      </trkpt>
      <trkpt lat="51.07027" lon="2.51741">
        <ele>5</ele>
        <time>2020-06-23T12:01:57Z</time>
      </trkpt>
      <trkpt lat="51.07026" lon="2.51734">
        <ele>5</ele>
        <time>2020-06-23T12:01:58Z</time>
      </trkpt>
      <trkpt lat="51.07025" lon="2.51728">
        <ele>5.1</ele>
        <time>2020-06-23T12:01:59Z</time>
      </trkpt>
      <trkpt lat="51.07023" lon="2.51724">
        <ele>5.1</ele>
        <time>2020-06-23T12:02:00Z</time>
      </trkpt>
      <trkpt lat="51.07022" lon="2.51718">
        <ele>5.1</ele>
        <time>2020-06-23T12:02:01Z</time>
      </trkpt>
      <trkpt lat="51.07021" lon="2.51716">
        <ele>5.2</ele>
        <time>2020-06-23T12:02:02Z</time>
      </trkpt>
      <trkpt lat="51.0702" lon="2.51711">
        <ele>5.2</ele>
        <time>2020-06-23T12:02:03Z</time>
      </trkpt>
      <trkpt lat="51.07019" lon="2.51706">
        <ele>5.2</ele>
        <time>2020-06-23T12:02:04Z</time>
      </trkpt>
      <trkpt lat="51.07019" lon="2.51701">
        <ele>5.3</ele>
        <time>2020-06-23T12:02:05Z</time>
      </trkpt>
      <trkpt lat="51.07018" lon="2.51695">
        <ele>5.3</ele>
        <time>2020-06-23T12:02:06Z</time>
      </trkpt>
      <trkpt lat="51.07017" lon="2.51689">
        <ele>5.3</ele>
        <time>2020-06-23T12:02:07Z</time>
      </trkpt>
      <trkpt lat="51.07017" lon="2.51685">
        <ele>5.4</ele>
        <time>2020-06-23T12:02:08Z</time>
      </trkpt>
      <trkpt lat="51.07016" lon="2.51679">
        <ele>5.4</ele>
        <time>2020-06-23T12:02:09Z</time>
      </trkpt>
      <trkpt lat="51.07016" lon="2.51677">
        <ele>5.4</ele>
        <time>2020-06-23T12:02:10Z</time>
      </trkpt>
      <trkpt lat="51.07014" lon="2.51673">
        <ele>5.4</ele>
        <time>2020-06-23T12:02:11Z</time>
      </trkpt>
      <trkpt lat="51.07013" lon="2.51672">
        <ele>5.5</ele>
        <time>2020-06-23T12:02:12Z</time>
      </trkpt>
      <trkpt lat="51.07011" lon="2.5167">
        <ele>5.5</ele>
        <time>2020-06-23T12:02:13Z</time>
      </trkpt>
      <trkpt lat="51.0701" lon="2.51669">
        <ele>5.5</ele>
        <time>2020-06-23T12:02:14Z</time>
      </trkpt>
      <trkpt lat="51.07007" lon="2.51667">
        <ele>5.5</ele>
        <time>2020-06-23T12:02:15Z</time>
      </trkpt>
      <trkpt lat="51.07006" lon="2.51666">
        <ele>5.6</ele>
        <time>2020-06-23T12:02:16Z</time>
      </trkpt>
      <trkpt lat="51.07004" lon="2.51665">
        <ele>5.6</ele>
        <time>2020-06-23T12:02:17Z</time>
      </trkpt>
      <trkpt lat="51.07004" lon="2.51663">
        <ele>5.6</ele>
        <time>2020-06-23T12:02:18Z</time>
      </trkpt>
      <trkpt lat="51.07002" lon="2.51659">
        <ele>5.6</ele>
        <time>2020-06-23T12:02:19Z</time>
      </trkpt>
      <trkpt lat="51.07001" lon="2.51657">
        <ele>5.6</ele>
        <time>2020-06-23T12:02:20Z</time>
      </trkpt>
      <trkpt lat="51.07001" lon="2.51655">
        <ele>5.6</ele>
        <time>2020-06-23T12:02:21Z</time>
      </trkpt>
      <trkpt lat="51.07" lon="2.51654">
        <ele>5.6</ele>
        <time>2020-06-23T12:02:22Z</time>
      </trkpt>
      <trkpt lat="51.06999" lon="2.51655">
        <ele>5.7</ele>
        <time>2020-06-23T12:02:23Z</time>
      </trkpt>
      <trkpt lat="51.06999" lon="2.51655">
        <ele>5.7</ele>
        <time>2020-06-23T12:02:24Z</time>
      </trkpt>
      <trkpt lat="51.06998" lon="2.51656">
        <ele>5.7</ele>
        <time>2020-06-23T12:02:25Z</time>
      </trkpt>
      <trkpt lat="51.06998" lon="2.51656">
        <ele>5.7</ele>
        <time>2020-06-23T12:02:26Z</time>
      </trkpt>
      <trkpt lat="51.06997" lon="2.51655">
        <ele>5.7</ele>
        <time>2020-06-23T12:02:27Z</time>
      </trkpt>
      <trkpt lat="51.06997" lon="2.51655">
        <ele>5.7</ele>
        <time>2020-06-23T12:02:28Z</time>
      </trkpt>
      <trkpt lat="51.06996" lon="2.51653">
        <ele>5.7</ele>
        <time>2020-06-23T12:02:29Z</time>
      </trkpt>
      <trkpt lat="51.06996" lon="2.51652">
        <ele>5.7</ele>
        <time>2020-06-23T12:02:30Z</time>
      </trkpt>
      <trkpt lat="51.06996" lon="2.51652">
        <ele>5.7</ele>
        <time>2020-06-23T12:02:31Z</time>
      </trkpt>
      <trkpt lat="51.0699" lon="2.51648">
        <ele>5.5</ele>
        <time>2020-06-23T12:02:51Z</time>
      </trkpt>
      <trkpt lat="51.06988" lon="2.51649">
        <ele>5.4</ele>
        <time>2020-06-23T12:02:52Z</time>
      </trkpt>
      <trkpt lat="51.06986" lon="2.51651">
        <ele>5.2</ele>
        <time>2020-06-23T12:02:53Z</time>
      </trkpt>
      <trkpt lat="51.06985" lon="2.51652">
        <ele>5.1</ele>
        <time>2020-06-23T12:02:54Z</time>
      </trkpt>
      <trkpt lat="51.06982" lon="2.51653">
        <ele>4.9</ele>
        <time>2020-06-23T12:02:55Z</time>
      </trkpt>
      <trkpt lat="51.06978" lon="2.51654">
        <ele>4.7</ele>
        <time>2020-06-23T12:02:56Z</time>
      </trkpt>
      <trkpt lat="51.06974" lon="2.51655">
        <ele>4.4</ele>
        <time>2020-06-23T12:02:57Z</time>
      </trkpt>
      <trkpt lat="51.0697" lon="2.51656">
        <ele>4.2</ele>
        <time>2020-06-23T12:02:58Z</time>
      </trkpt>
      <trkpt lat="51.06966" lon="2.51657">
        <ele>4.1</ele>
        <time>2020-06-23T12:02:59Z</time>
      </trkpt>
      <trkpt lat="51.06962" lon="2.51659">
        <ele>4</ele>
        <time>2020-06-23T12:03:00Z</time>
      </trkpt>
      <trkpt lat="51.06958" lon="2.5166">
        <ele>3.8</ele>
        <time>2020-06-23T12:03:01Z</time>
      </trkpt>
      <trkpt lat="51.06954" lon="2.5166">
        <ele>3.7</ele>
        <time>2020-06-23T12:03:02Z</time>
      </trkpt>
      <trkpt lat="51.06952" lon="2.51661">
        <ele>3.7</ele>
        <time>2020-06-23T12:03:03Z</time>
      </trkpt>
      <trkpt lat="51.06949" lon="2.51663">
        <ele>3.6</ele>
        <time>2020-06-23T12:03:04Z</time>
      </trkpt>
      <trkpt lat="51.06948" lon="2.51663">
        <ele>3.6</ele>
        <time>2020-06-23T12:03:05Z</time>
      </trkpt>
      <trkpt lat="51.06944" lon="2.51665">
        <ele>3.5</ele>
        <time>2020-06-23T12:03:06Z</time>
      </trkpt>
      <trkpt lat="51.06943" lon="2.51665">
        <ele>3.5</ele>
        <time>2020-06-23T12:03:07Z</time>
      </trkpt>
      <trkpt lat="51.0694" lon="2.51666">
        <ele>3.4</ele>
        <time>2020-06-23T12:03:08Z</time>
      </trkpt>
      <trkpt lat="51.06939" lon="2.51666">
        <ele>3.4</ele>
        <time>2020-06-23T12:03:09Z</time>
      </trkpt>
      <trkpt lat="51.06937" lon="2.51666">
        <ele>3.4</ele>
        <time>2020-06-23T12:03:10Z</time>
      </trkpt>
      <trkpt lat="51.06936" lon="2.51665">
        <ele>3.3</ele>
        <time>2020-06-23T12:03:11Z</time>
      </trkpt>
      <trkpt lat="51.06934" lon="2.51665">
        <ele>3.3</ele>
        <time>2020-06-23T12:03:12Z</time>
      </trkpt>
      <trkpt lat="51.06933" lon="2.51666">
        <ele>3.3</ele>
        <time>2020-06-23T12:03:13Z</time>
      </trkpt>
      <trkpt lat="51.06932" lon="2.51666">
        <ele>3.3</ele>
        <time>2020-06-23T12:03:14Z</time>
      </trkpt>
      <trkpt lat="51.06931" lon="2.51666">
        <ele>3.2</ele>
        <time>2020-06-23T12:03:15Z</time>
      </trkpt>
      <trkpt lat="51.06928" lon="2.51663">
        <ele>3.1</ele>
        <time>2020-06-23T12:03:16Z</time>
      </trkpt>
      <trkpt lat="51.06926" lon="2.51662">
        <ele>3.1</ele>
        <time>2020-06-23T12:03:17Z</time>
      </trkpt>
      <trkpt lat="51.06925" lon="2.51664">
        <ele>3.1</ele>
        <time>2020-06-23T12:03:18Z</time>
      </trkpt>
      <trkpt lat="51.06924" lon="2.51663">
        <ele>3.1</ele>
        <time>2020-06-23T12:03:19Z</time>
      </trkpt>
      <trkpt lat="51.06924" lon="2.51663">
        <ele>3.1</ele>
        <time>2020-06-23T12:03:20Z</time>
      </trkpt>
      <trkpt lat="51.06924" lon="2.51663">
        <ele>3.1</ele>
        <time>2020-06-23T12:03:21Z</time>
      </trkpt>
      <trkpt lat="51.06924" lon="2.51663">
        <ele>3.1</ele>
        <time>2020-06-23T12:03:22Z</time>
      </trkpt>
      <trkpt lat="51.06924" lon="2.51663">
        <ele>3</ele>
        <time>2020-06-23T12:03:23Z</time>
      </trkpt>
      <trkpt lat="51.06924" lon="2.51663">
        <ele>3</ele>
        <time>2020-06-23T12:03:24Z</time>
      </trkpt>
      <trkpt lat="51.06924" lon="2.51663">
        <ele>3</ele>
        <time>2020-06-23T12:03:25Z</time>
      </trkpt>
      <trkpt lat="51.06924" lon="2.51661">
        <ele>3</ele>
        <time>2020-06-23T12:03:26Z</time>
      </trkpt>
      <trkpt lat="51.06924" lon="2.51659">
        <ele>3</ele>
        <time>2020-06-23T12:03:27Z</time>
      </trkpt>
      <trkpt lat="51.06924" lon="2.51657">
        <ele>3</ele>
        <time>2020-06-23T12:04:04Z</time>
      </trkpt>
      <trkpt lat="51.06925" lon="2.51655">
        <ele>2.9</ele>
        <time>2020-06-23T12:04:05Z</time>
      </trkpt>
      <trkpt lat="51.06928" lon="2.51654">
        <ele>2.9</ele>
        <time>2020-06-23T12:04:06Z</time>
      </trkpt>
      <trkpt lat="51.06929" lon="2.51653">
        <ele>2.9</ele>
        <time>2020-06-23T12:04:07Z</time>
      </trkpt>
      <trkpt lat="51.06933" lon="2.51654">
        <ele>3</ele>
        <time>2020-06-23T12:04:08Z</time>
      </trkpt>
      <trkpt lat="51.06934" lon="2.51654">
        <ele>3.1</ele>
        <time>2020-06-23T12:04:09Z</time>
      </trkpt>
      <trkpt lat="51.06938" lon="2.51654">
        <ele>3.2</ele>
        <time>2020-06-23T12:04:10Z</time>
      </trkpt>
      <trkpt lat="51.06942" lon="2.51654">
        <ele>3.3</ele>
        <time>2020-06-23T12:04:11Z</time>
      </trkpt>
      <trkpt lat="51.06946" lon="2.51653">
        <ele>3.5</ele>
        <time>2020-06-23T12:04:12Z</time>
      </trkpt>
      <trkpt lat="51.0695" lon="2.51652">
        <ele>3.6</ele>
        <time>2020-06-23T12:04:13Z</time>
      </trkpt>
      <trkpt lat="51.06954" lon="2.5165">
        <ele>3.7</ele>
        <time>2020-06-23T12:04:14Z</time>
      </trkpt>
      <trkpt lat="51.06958" lon="2.51649">
        <ele>3.8</ele>
        <time>2020-06-23T12:04:15Z</time>
      </trkpt>
      <trkpt lat="51.06963" lon="2.51648">
        <ele>4.2</ele>
        <time>2020-06-23T12:04:16Z</time>
      </trkpt>
      <trkpt lat="51.06968" lon="2.51644">
        <ele>4.3</ele>
        <time>2020-06-23T12:04:17Z</time>
      </trkpt>
      <trkpt lat="51.06973" lon="2.51638">
        <ele>4.4</ele>
        <time>2020-06-23T12:04:18Z</time>
      </trkpt>
      <trkpt lat="51.06976" lon="2.51637">
        <ele>4.6</ele>
        <time>2020-06-23T12:04:19Z</time>
      </trkpt>
      <trkpt lat="51.06979" lon="2.51636">
        <ele>4.8</ele>
        <time>2020-06-23T12:04:20Z</time>
      </trkpt>
      <trkpt lat="51.06985" lon="2.51638">
        <ele>5.1</ele>
        <time>2020-06-23T12:04:21Z</time>
      </trkpt>
      <trkpt lat="51.06988" lon="2.51637">
        <ele>5.2</ele>
        <time>2020-06-23T12:04:22Z</time>
      </trkpt>
      <trkpt lat="51.0699" lon="2.51637">
        <ele>5.4</ele>
        <time>2020-06-23T12:04:23Z</time>
      </trkpt>
      <trkpt lat="51.06993" lon="2.51639">
        <ele>5.5</ele>
        <time>2020-06-23T12:04:24Z</time>
      </trkpt>
      <trkpt lat="51.06994" lon="2.51638">
        <ele>5.6</ele>
        <time>2020-06-23T12:04:25Z</time>
      </trkpt>
      <trkpt lat="51.06997" lon="2.51637">
        <ele>5.6</ele>
        <time>2020-06-23T12:04:26Z</time>
      </trkpt>
      <trkpt lat="51.07001" lon="2.51634">
        <ele>5.6</ele>
        <time>2020-06-23T12:04:27Z</time>
      </trkpt>
      <trkpt lat="51.07005" lon="2.51632">
        <ele>5.7</ele>
        <time>2020-06-23T12:04:28Z</time>
      </trkpt>
      <trkpt lat="51.07009" lon="2.51627">
        <ele>5.7</ele>
        <time>2020-06-23T12:04:29Z</time>
      </trkpt>
      <trkpt lat="51.0701" lon="2.51625">
        <ele>5.7</ele>
        <time>2020-06-23T12:04:30Z</time>
      </trkpt>
      <trkpt lat="51.07014" lon="2.51624">
        <ele>5.8</ele>
        <time>2020-06-23T12:04:31Z</time>
      </trkpt>
      <trkpt lat="51.07018" lon="2.51623">
        <ele>5.8</ele>
        <time>2020-06-23T12:04:32Z</time>
      </trkpt>
      <trkpt lat="51.07021" lon="2.51622">
        <ele>5.8</ele>
        <time>2020-06-23T12:04:33Z</time>
      </trkpt>
      <trkpt lat="51.07025" lon="2.5162">
        <ele>5.9</ele>
        <time>2020-06-23T12:04:34Z</time>
      </trkpt>
      <trkpt lat="51.07027" lon="2.51619">
        <ele>5.9</ele>
        <time>2020-06-23T12:04:35Z</time>
      </trkpt>
      <trkpt lat="51.0703" lon="2.51618">
        <ele>5.9</ele>
        <time>2020-06-23T12:04:36Z</time>
      </trkpt>
      <trkpt lat="51.07034" lon="2.51616">
        <ele>6</ele>
        <time>2020-06-23T12:04:37Z</time>
      </trkpt>
      <trkpt lat="51.07037" lon="2.51614">
        <ele>6.1</ele>
        <time>2020-06-23T12:04:38Z</time>
      </trkpt>
      <trkpt lat="51.0704" lon="2.51614">
        <ele>6.2</ele>
        <time>2020-06-23T12:04:39Z</time>
      </trkpt>
      <trkpt lat="51.07043" lon="2.51612">
        <ele>6.3</ele>
        <time>2020-06-23T12:04:40Z</time>
      </trkpt>
      <trkpt lat="51.07046" lon="2.51612">
        <ele>6.4</ele>
        <time>2020-06-23T12:04:41Z</time>
      </trkpt>
      <trkpt lat="51.0705" lon="2.51611">
        <ele>6.4</ele>
        <time>2020-06-23T12:04:42Z</time>
      </trkpt>
      <trkpt lat="51.07051" lon="2.51611">
        <ele>6.4</ele>
        <time>2020-06-23T12:04:43Z</time>
      </trkpt>
      <trkpt lat="51.07054" lon="2.51611">
        <ele>6.5</ele>
        <time>2020-06-23T12:04:44Z</time>
      </trkpt>
      <trkpt lat="51.07057" lon="2.51608">
        <ele>6.5</ele>
        <time>2020-06-23T12:04:45Z</time>
      </trkpt>
      <trkpt lat="51.0706" lon="2.51606">
        <ele>6.5</ele>
        <time>2020-06-23T12:04:46Z</time>
      </trkpt>
      <trkpt lat="51.07063" lon="2.51605">
        <ele>6.5</ele>
        <time>2020-06-23T12:04:47Z</time>
      </trkpt>
      <trkpt lat="51.07066" lon="2.51604">
        <ele>6.5</ele>
        <time>2020-06-23T12:04:48Z</time>
      </trkpt>
      <trkpt lat="51.0707" lon="2.51602">
        <ele>6.5</ele>
        <time>2020-06-23T12:04:49Z</time>
      </trkpt>
      <trkpt lat="51.07074" lon="2.51601">
        <ele>6.6</ele>
        <time>2020-06-23T12:04:50Z</time>
      </trkpt>
      <trkpt lat="51.07078" lon="2.51599">
        <ele>6.6</ele>
        <time>2020-06-23T12:04:51Z</time>
      </trkpt>
      <trkpt lat="51.07082" lon="2.51598">
        <ele>6.6</ele>
        <time>2020-06-23T12:04:52Z</time>
      </trkpt>
      <trkpt lat="51.07087" lon="2.51596">
        <ele>6.7</ele>
        <time>2020-06-23T12:04:53Z</time>
      </trkpt>
      <trkpt lat="51.07093" lon="2.51593">
        <ele>6.8</ele>
        <time>2020-06-23T12:04:54Z</time>
      </trkpt>
      <trkpt lat="51.07098" lon="2.51592">
        <ele>6.9</ele>
        <time>2020-06-23T12:04:55Z</time>
      </trkpt>
      <trkpt lat="51.07102" lon="2.51591">
        <ele>6.9</ele>
        <time>2020-06-23T12:04:56Z</time>
      </trkpt>
      <trkpt lat="51.07107" lon="2.5159">
        <ele>7</ele>
        <time>2020-06-23T12:04:57Z</time>
      </trkpt>
      <trkpt lat="51.07111" lon="2.51588">
        <ele>7.1</ele>
        <time>2020-06-23T12:04:58Z</time>
      </trkpt>
      <trkpt lat="51.07115" lon="2.51587">
        <ele>7.1</ele>
        <time>2020-06-23T12:04:59Z</time>
      </trkpt>
      <trkpt lat="51.07118" lon="2.51586">
        <ele>7.1</ele>
        <time>2020-06-23T12:05:00Z</time>
      </trkpt>
      <trkpt lat="51.07122" lon="2.51585">
        <ele>7.2</ele>
        <time>2020-06-23T12:05:01Z</time>
      </trkpt>
      <trkpt lat="51.07125" lon="2.51584">
        <ele>7.2</ele>
        <time>2020-06-23T12:05:02Z</time>
      </trkpt>
      <trkpt lat="51.07129" lon="2.51579">
        <ele>7.2</ele>
        <time>2020-06-23T12:05:03Z</time>
      </trkpt>
      <trkpt lat="51.07133" lon="2.51578">
        <ele>7.2</ele>
        <time>2020-06-23T12:05:04Z</time>
      </trkpt>
      <trkpt lat="51.07138" lon="2.51577">
        <ele>7.3</ele>
        <time>2020-06-23T12:05:05Z</time>
      </trkpt>
      <trkpt lat="51.07143" lon="2.51576">
        <ele>7.3</ele>
        <time>2020-06-23T12:05:06Z</time>
      </trkpt>
      <trkpt lat="51.07148" lon="2.51575">
        <ele>7.3</ele>
        <time>2020-06-23T12:05:07Z</time>
      </trkpt>
      <trkpt lat="51.07152" lon="2.51573">
        <ele>7.3</ele>
        <time>2020-06-23T12:05:08Z</time>
      </trkpt>
      <trkpt lat="51.07156" lon="2.51572">
        <ele>7.4</ele>
        <time>2020-06-23T12:05:09Z</time>
      </trkpt>
      <trkpt lat="51.07161" lon="2.5157">
        <ele>7.4</ele>
        <time>2020-06-23T12:05:10Z</time>
      </trkpt>
      <trkpt lat="51.07165" lon="2.51568">
        <ele>7.5</ele>
        <time>2020-06-23T12:05:11Z</time>
      </trkpt>
      <trkpt lat="51.07169" lon="2.51566">
        <ele>7.5</ele>
        <time>2020-06-23T12:05:12Z</time>
      </trkpt>
      <trkpt lat="51.07173" lon="2.51564">
        <ele>7.6</ele>
        <time>2020-06-23T12:05:13Z</time>
      </trkpt>
      <trkpt lat="51.07178" lon="2.51561">
        <ele>7.6</ele>
        <time>2020-06-23T12:05:14Z</time>
      </trkpt>
      <trkpt lat="51.07183" lon="2.51559">
        <ele>7.7</ele>
        <time>2020-06-23T12:05:15Z</time>
      </trkpt>
      <trkpt lat="51.07188" lon="2.51557">
        <ele>7.7</ele>
        <time>2020-06-23T12:05:16Z</time>
      </trkpt>
      <trkpt lat="51.07193" lon="2.51555">
        <ele>7.7</ele>
        <time>2020-06-23T12:05:17Z</time>
      </trkpt>
      <trkpt lat="51.07198" lon="2.51554">
        <ele>7.8</ele>
        <time>2020-06-23T12:05:18Z</time>
      </trkpt>
      <trkpt lat="51.07204" lon="2.51552">
        <ele>7.8</ele>
        <time>2020-06-23T12:05:19Z</time>
      </trkpt>
      <trkpt lat="51.07209" lon="2.51551">
        <ele>7.8</ele>
        <time>2020-06-23T12:05:20Z</time>
      </trkpt>
      <trkpt lat="51.07214" lon="2.51549">
        <ele>7.8</ele>
        <time>2020-06-23T12:05:21Z</time>
      </trkpt>
      <trkpt lat="51.07219" lon="2.51547">
        <ele>7.9</ele>
        <time>2020-06-23T12:05:22Z</time>
      </trkpt>
      <trkpt lat="51.07223" lon="2.51544">
        <ele>7.9</ele>
        <time>2020-06-23T12:05:23Z</time>
      </trkpt>
      <trkpt lat="51.07228" lon="2.51542">
        <ele>7.9</ele>
        <time>2020-06-23T12:05:24Z</time>
      </trkpt>
      <trkpt lat="51.07233" lon="2.51541">
        <ele>7.9</ele>
        <time>2020-06-23T12:05:25Z</time>
      </trkpt>
      <trkpt lat="51.07238" lon="2.5154">
        <ele>7.9</ele>
        <time>2020-06-23T12:05:26Z</time>
      </trkpt>
      <trkpt lat="51.07243" lon="2.51538">
        <ele>7.9</ele>
        <time>2020-06-23T12:05:27Z</time>
      </trkpt>
      <trkpt lat="51.07248" lon="2.51537">
        <ele>7.9</ele>
        <time>2020-06-23T12:05:28Z</time>
      </trkpt>
      <trkpt lat="51.07254" lon="2.51536">
        <ele>7.9</ele>
        <time>2020-06-23T12:05:29Z</time>
      </trkpt>
      <trkpt lat="51.07259" lon="2.51534">
        <ele>7.8</ele>
        <time>2020-06-23T12:05:30Z</time>
      </trkpt>
      <trkpt lat="51.07264" lon="2.51531">
        <ele>7.8</ele>
        <time>2020-06-23T12:05:31Z</time>
      </trkpt>
      <trkpt lat="51.07269" lon="2.51529">
        <ele>7.8</ele>
        <time>2020-06-23T12:05:32Z</time>
      </trkpt>
      <trkpt lat="51.07274" lon="2.51527">
        <ele>7.8</ele>
        <time>2020-06-23T12:05:33Z</time>
      </trkpt>
      <trkpt lat="51.07279" lon="2.51524">
        <ele>7.8</ele>
        <time>2020-06-23T12:05:34Z</time>
      </trkpt>
      <trkpt lat="51.07284" lon="2.51521">
        <ele>7.7</ele>
        <time>2020-06-23T12:05:35Z</time>
      </trkpt>
      <trkpt lat="51.07291" lon="2.51517">
        <ele>7.7</ele>
        <time>2020-06-23T12:05:36Z</time>
      </trkpt>
      <trkpt lat="51.07297" lon="2.51514">
        <ele>7.7</ele>
        <time>2020-06-23T12:05:37Z</time>
      </trkpt>
      <trkpt lat="51.07302" lon="2.51511">
        <ele>7.7</ele>
        <time>2020-06-23T12:05:38Z</time>
      </trkpt>
      <trkpt lat="51.07308" lon="2.51509">
        <ele>7.6</ele>
        <time>2020-06-23T12:05:39Z</time>
      </trkpt>
      <trkpt lat="51.07314" lon="2.51507">
        <ele>7.6</ele>
        <time>2020-06-23T12:05:40Z</time>
      </trkpt>
      <trkpt lat="51.0732" lon="2.51506">
        <ele>7.6</ele>
        <time>2020-06-23T12:05:41Z</time>
      </trkpt>
      <trkpt lat="51.07326" lon="2.51504">
        <ele>7.6</ele>
        <time>2020-06-23T12:05:42Z</time>
      </trkpt>
      <trkpt lat="51.07332" lon="2.51503">
        <ele>7.5</ele>
        <time>2020-06-23T12:05:43Z</time>
      </trkpt>
      <trkpt lat="51.07338" lon="2.51502">
        <ele>7.5</ele>
        <time>2020-06-23T12:05:44Z</time>
      </trkpt>
      <trkpt lat="51.07344" lon="2.51501">
        <ele>7.5</ele>
        <time>2020-06-23T12:05:45Z</time>
      </trkpt>
      <trkpt lat="51.07349" lon="2.515">
        <ele>7.5</ele>
        <time>2020-06-23T12:05:46Z</time>
      </trkpt>
      <trkpt lat="51.07355" lon="2.51498">
        <ele>7.4</ele>
        <time>2020-06-23T12:05:47Z</time>
      </trkpt>
      <trkpt lat="51.07361" lon="2.51496">
        <ele>7.4</ele>
        <time>2020-06-23T12:05:48Z</time>
      </trkpt>
      <trkpt lat="51.07367" lon="2.51495">
        <ele>7.4</ele>
        <time>2020-06-23T12:05:49Z</time>
      </trkpt>
      <trkpt lat="51.07373" lon="2.51493">
        <ele>7.3</ele>
        <time>2020-06-23T12:05:50Z</time>
      </trkpt>
      <trkpt lat="51.07378" lon="2.51492">
        <ele>7.3</ele>
        <time>2020-06-23T12:05:51Z</time>
      </trkpt>
      <trkpt lat="51.07384" lon="2.5149">
        <ele>7.2</ele>
        <time>2020-06-23T12:05:52Z</time>
      </trkpt>
      <trkpt lat="51.0739" lon="2.51489">
        <ele>7.2</ele>
        <time>2020-06-23T12:05:53Z</time>
      </trkpt>
      <trkpt lat="51.07395" lon="2.51488">
        <ele>7.1</ele>
        <time>2020-06-23T12:05:54Z</time>
      </trkpt>
      <trkpt lat="51.07399" lon="2.51486">
        <ele>7</ele>
        <time>2020-06-23T12:05:55Z</time>
      </trkpt>
      <trkpt lat="51.07405" lon="2.51484">
        <ele>7</ele>
        <time>2020-06-23T12:05:56Z</time>
      </trkpt>
      <trkpt lat="51.0741" lon="2.51483">
        <ele>6.9</ele>
        <time>2020-06-23T12:05:57Z</time>
      </trkpt>
      <trkpt lat="51.07415" lon="2.51481">
        <ele>6.9</ele>
        <time>2020-06-23T12:05:58Z</time>
      </trkpt>
      <trkpt lat="51.0742" lon="2.51479">
        <ele>6.8</ele>
        <time>2020-06-23T12:05:59Z</time>
      </trkpt>
      <trkpt lat="51.07425" lon="2.51476">
        <ele>6.8</ele>
        <time>2020-06-23T12:06:00Z</time>
      </trkpt>
      <trkpt lat="51.0743" lon="2.51475">
        <ele>6.8</ele>
        <time>2020-06-23T12:06:01Z</time>
      </trkpt>
      <trkpt lat="51.07435" lon="2.51474">
        <ele>6.7</ele>
        <time>2020-06-23T12:06:02Z</time>
      </trkpt>
      <trkpt lat="51.07439" lon="2.51472">
        <ele>6.7</ele>
        <time>2020-06-23T12:06:03Z</time>
      </trkpt>
      <trkpt lat="51.07443" lon="2.51471">
        <ele>6.7</ele>
        <time>2020-06-23T12:06:04Z</time>
      </trkpt>
      <trkpt lat="51.07447" lon="2.5147">
        <ele>6.7</ele>
        <time>2020-06-23T12:06:05Z</time>
      </trkpt>
      <trkpt lat="51.07451" lon="2.51468">
        <ele>6.7</ele>
        <time>2020-06-23T12:06:06Z</time>
      </trkpt>
      <trkpt lat="51.07455" lon="2.51466">
        <ele>6.6</ele>
        <time>2020-06-23T12:06:07Z</time>
      </trkpt>
      <trkpt lat="51.0746" lon="2.51464">
        <ele>6.6</ele>
        <time>2020-06-23T12:06:08Z</time>
      </trkpt>
      <trkpt lat="51.07466" lon="2.51462">
        <ele>6.6</ele>
        <time>2020-06-23T12:06:09Z</time>
      </trkpt>
      <trkpt lat="51.07473" lon="2.5146">
        <ele>6.5</ele>
        <time>2020-06-23T12:06:10Z</time>
      </trkpt>
      <trkpt lat="51.07478" lon="2.51459">
        <ele>6.5</ele>
        <time>2020-06-23T12:06:11Z</time>
      </trkpt>
      <trkpt lat="51.07484" lon="2.51456">
        <ele>6.5</ele>
        <time>2020-06-23T12:06:12Z</time>
      </trkpt>
      <trkpt lat="51.07491" lon="2.51454">
        <ele>6.4</ele>
        <time>2020-06-23T12:06:13Z</time>
      </trkpt>
      <trkpt lat="51.07497" lon="2.51451">
        <ele>6.4</ele>
        <time>2020-06-23T12:06:14Z</time>
      </trkpt>
      <trkpt lat="51.07503" lon="2.51449">
        <ele>6.4</ele>
        <time>2020-06-23T12:06:15Z</time>
      </trkpt>
      <trkpt lat="51.0751" lon="2.51447">
        <ele>6.4</ele>
        <time>2020-06-23T12:06:16Z</time>
      </trkpt>
      <trkpt lat="51.07515" lon="2.51445">
        <ele>6.3</ele>
        <time>2020-06-23T12:06:17Z</time>
      </trkpt>
      <trkpt lat="51.07521" lon="2.51442">
        <ele>6.3</ele>
        <time>2020-06-23T12:06:18Z</time>
      </trkpt>
      <trkpt lat="51.07526" lon="2.5144">
        <ele>6.3</ele>
        <time>2020-06-23T12:06:19Z</time>
      </trkpt>
      <trkpt lat="51.07531" lon="2.51438">
        <ele>6.3</ele>
        <time>2020-06-23T12:06:20Z</time>
      </trkpt>
      <trkpt lat="51.07536" lon="2.51436">
        <ele>6.3</ele>
        <time>2020-06-23T12:06:21Z</time>
      </trkpt>
      <trkpt lat="51.07541" lon="2.51434">
        <ele>6.4</ele>
        <time>2020-06-23T12:06:22Z</time>
      </trkpt>
      <trkpt lat="51.07545" lon="2.51433">
        <ele>6.4</ele>
        <time>2020-06-23T12:06:23Z</time>
      </trkpt>
      <trkpt lat="51.07549" lon="2.51433">
        <ele>6.4</ele>
        <time>2020-06-23T12:06:24Z</time>
      </trkpt>
      <trkpt lat="51.07552" lon="2.51435">
        <ele>6.4</ele>
        <time>2020-06-23T12:06:25Z</time>
      </trkpt>
      <trkpt lat="51.07553" lon="2.51435">
        <ele>6.3</ele>
        <time>2020-06-23T12:06:26Z</time>
      </trkpt>
      <trkpt lat="51.07557" lon="2.51435">
        <ele>6.2</ele>
        <time>2020-06-23T12:06:27Z</time>
      </trkpt>
      <trkpt lat="51.07558" lon="2.5144">
        <ele>6.1</ele>
        <time>2020-06-23T12:06:28Z</time>
      </trkpt>
      <trkpt lat="51.0756" lon="2.51445">
        <ele>6</ele>
        <time>2020-06-23T12:06:29Z</time>
      </trkpt>
      <trkpt lat="51.07562" lon="2.5145">
        <ele>5.9</ele>
        <time>2020-06-23T12:06:30Z</time>
      </trkpt>
      <trkpt lat="51.07563" lon="2.51455">
        <ele>5.8</ele>
        <time>2020-06-23T12:06:31Z</time>
      </trkpt>
      <trkpt lat="51.07565" lon="2.5146">
        <ele>5.7</ele>
        <time>2020-06-23T12:06:32Z</time>
      </trkpt>
      <trkpt lat="51.07566" lon="2.51466">
        <ele>5.7</ele>
        <time>2020-06-23T12:06:33Z</time>
      </trkpt>
      <trkpt lat="51.07568" lon="2.51472">
        <ele>5.6</ele>
        <time>2020-06-23T12:06:34Z</time>
      </trkpt>
      <trkpt lat="51.07571" lon="2.51478">
        <ele>5.5</ele>
        <time>2020-06-23T12:06:35Z</time>
      </trkpt>
      <trkpt lat="51.07573" lon="2.51484">
        <ele>5.4</ele>
        <time>2020-06-23T12:06:36Z</time>
      </trkpt>
      <trkpt lat="51.07575" lon="2.51489">
        <ele>5.3</ele>
        <time>2020-06-23T12:06:37Z</time>
      </trkpt>
      <trkpt lat="51.07576" lon="2.51495">
        <ele>5.3</ele>
        <time>2020-06-23T12:06:38Z</time>
      </trkpt>
      <trkpt lat="51.07578" lon="2.51501">
        <ele>5.2</ele>
        <time>2020-06-23T12:06:39Z</time>
      </trkpt>
      <trkpt lat="51.07579" lon="2.51507">
        <ele>5.2</ele>
        <time>2020-06-23T12:06:40Z</time>
      </trkpt>
      <trkpt lat="51.0758" lon="2.51513">
        <ele>5.2</ele>
        <time>2020-06-23T12:06:41Z</time>
      </trkpt>
      <trkpt lat="51.0758" lon="2.51519">
        <ele>5.2</ele>
        <time>2020-06-23T12:06:42Z</time>
      </trkpt>
      <trkpt lat="51.07581" lon="2.51525">
        <ele>5.2</ele>
        <time>2020-06-23T12:06:43Z</time>
      </trkpt>
      <trkpt lat="51.07581" lon="2.51531">
        <ele>5.2</ele>
        <time>2020-06-23T12:06:44Z</time>
      </trkpt>
      <trkpt lat="51.07582" lon="2.51537">
        <ele>5.2</ele>
        <time>2020-06-23T12:06:45Z</time>
      </trkpt>
      <trkpt lat="51.07583" lon="2.51542">
        <ele>5.2</ele>
        <time>2020-06-23T12:06:46Z</time>
      </trkpt>
      <trkpt lat="51.07584" lon="2.51546">
        <ele>5.2</ele>
        <time>2020-06-23T12:06:47Z</time>
      </trkpt>
      <trkpt lat="51.07584" lon="2.51552">
        <ele>5.2</ele>
        <time>2020-06-23T12:06:48Z</time>
      </trkpt>
      <trkpt lat="51.07584" lon="2.51553">
        <ele>5.2</ele>
        <time>2020-06-23T12:06:49Z</time>
      </trkpt>
      <trkpt lat="51.07583" lon="2.51559">
        <ele>5.2</ele>
        <time>2020-06-23T12:06:50Z</time>
      </trkpt>
      <trkpt lat="51.07582" lon="2.5156">
        <ele>5.2</ele>
        <time>2020-06-23T12:06:51Z</time>
      </trkpt>
      <trkpt lat="51.0758" lon="2.51565">
        <ele>5.2</ele>
        <time>2020-06-23T12:06:52Z</time>
      </trkpt>
      <trkpt lat="51.07579" lon="2.51568">
        <ele>5.2</ele>
        <time>2020-06-23T12:06:53Z</time>
      </trkpt>
      <trkpt lat="51.07578" lon="2.51573">
        <ele>5.2</ele>
        <time>2020-06-23T12:06:54Z</time>
      </trkpt>
      <trkpt lat="51.07577" lon="2.51577">
        <ele>5.2</ele>
        <time>2020-06-23T12:06:55Z</time>
      </trkpt>
      <trkpt lat="51.07577" lon="2.51582">
        <ele>5.3</ele>
        <time>2020-06-23T12:06:56Z</time>
      </trkpt>
      <trkpt lat="51.07577" lon="2.51583">
        <ele>5.3</ele>
        <time>2020-06-23T12:06:57Z</time>
      </trkpt>
      <trkpt lat="51.07578" lon="2.51589">
        <ele>5.3</ele>
        <time>2020-06-23T12:06:58Z</time>
      </trkpt>
      <trkpt lat="51.07578" lon="2.5159">
        <ele>5.3</ele>
        <time>2020-06-23T12:06:59Z</time>
      </trkpt>
      <trkpt lat="51.07578" lon="2.51596">
        <ele>5.3</ele>
        <time>2020-06-23T12:07:00Z</time>
      </trkpt>
      <trkpt lat="51.07579" lon="2.51599">
        <ele>5.3</ele>
        <time>2020-06-23T12:07:01Z</time>
      </trkpt>
      <trkpt lat="51.07578" lon="2.51604">
        <ele>5.3</ele>
        <time>2020-06-23T12:07:02Z</time>
      </trkpt>
      <trkpt lat="51.07578" lon="2.51609">
        <ele>5.2</ele>
        <time>2020-06-23T12:07:03Z</time>
      </trkpt>
      <trkpt lat="51.07578" lon="2.51614">
        <ele>5.2</ele>
        <time>2020-06-23T12:07:04Z</time>
      </trkpt>
      <trkpt lat="51.07578" lon="2.51615">
        <ele>5.2</ele>
        <time>2020-06-23T12:07:05Z</time>
      </trkpt>
      <trkpt lat="51.07577" lon="2.51618">
        <ele>5.2</ele>
        <time>2020-06-23T12:07:06Z</time>
      </trkpt>
      <trkpt lat="51.07577" lon="2.5162">
        <ele>5.2</ele>
        <time>2020-06-23T12:07:07Z</time>
      </trkpt>
      <trkpt lat="51.07576" lon="2.5162">
        <ele>5.2</ele>
        <time>2020-06-23T12:07:08Z</time>
      </trkpt>
      <trkpt lat="51.07576" lon="2.51621">
        <ele>5.2</ele>
        <time>2020-06-23T12:07:09Z</time>
      </trkpt>
      <trkpt lat="51.07576" lon="2.51622">
        <ele>5.1</ele>
        <time>2020-06-23T12:07:10Z</time>
      </trkpt>
      <trkpt lat="51.07576" lon="2.51623">
        <ele>5.1</ele>
        <time>2020-06-23T12:07:11Z</time>
      </trkpt>
      <trkpt lat="51.07576" lon="2.51625">
        <ele>5.1</ele>
        <time>2020-06-23T12:07:12Z</time>
      </trkpt>
      <trkpt lat="51.07575" lon="2.51626">
        <ele>5.1</ele>
        <time>2020-06-23T12:07:13Z</time>
      </trkpt>
      <trkpt lat="51.07575" lon="2.51626">
        <ele>5.1</ele>
        <time>2020-06-23T12:07:14Z</time>
      </trkpt>
      <trkpt lat="51.07575" lon="2.51627">
        <ele>5.1</ele>
        <time>2020-06-23T12:07:15Z</time>
      </trkpt>
      <trkpt lat="51.07575" lon="2.51628">
        <ele>5.1</ele>
        <time>2020-06-23T12:07:16Z</time>
      </trkpt>
      <trkpt lat="51.07575" lon="2.51628">
        <ele>5.1</ele>
        <time>2020-06-23T12:07:17Z</time>
      </trkpt>
      <trkpt lat="51.07574" lon="2.51629">
        <ele>5.1</ele>
        <time>2020-06-23T12:07:18Z</time>
      </trkpt>
      <trkpt lat="51.0757" lon="2.51637">
        <ele>5.1</ele>
        <time>2020-06-23T12:07:31Z</time>
      </trkpt>
      <trkpt lat="51.07569" lon="2.51638">
        <ele>5.1</ele>
        <time>2020-06-23T12:07:32Z</time>
      </trkpt>
      <trkpt lat="51.07569" lon="2.51639">
        <ele>5</ele>
        <time>2020-06-23T12:07:33Z</time>
      </trkpt>
      <trkpt lat="51.07569" lon="2.5164">
        <ele>5</ele>
        <time>2020-06-23T12:07:34Z</time>
      </trkpt>
      <trkpt lat="51.07568" lon="2.51641">
        <ele>5</ele>
        <time>2020-06-23T12:07:35Z</time>
      </trkpt>
      <trkpt lat="51.07568" lon="2.51642">
        <ele>5</ele>
        <time>2020-06-23T12:07:36Z</time>
      </trkpt>
      <trkpt lat="51.07567" lon="2.51644">
        <ele>5</ele>
        <time>2020-06-23T12:07:37Z</time>
      </trkpt>
      <trkpt lat="51.07473" lon="2.51619">
        <ele>6</ele>
        <time>2020-06-23T12:11:23Z</time>
      </trkpt>
      <trkpt lat="51.07474" lon="2.51623">
        <ele>6</ele>
        <time>2020-06-23T12:11:24Z</time>
      </trkpt>
      <trkpt lat="51.07474" lon="2.51625">
        <ele>6</ele>
        <time>2020-06-23T12:11:25Z</time>
      </trkpt>
      <trkpt lat="51.07475" lon="2.51626">
        <ele>5.9</ele>
        <time>2020-06-23T12:11:26Z</time>
      </trkpt>
      <trkpt lat="51.07476" lon="2.51627">
        <ele>5.9</ele>
        <time>2020-06-23T12:11:27Z</time>
      </trkpt>
      <trkpt lat="51.07477" lon="2.51626">
        <ele>5.9</ele>
        <time>2020-06-23T12:11:28Z</time>
      </trkpt>
      <trkpt lat="51.07479" lon="2.51625">
        <ele>6</ele>
        <time>2020-06-23T12:11:29Z</time>
      </trkpt>
      <trkpt lat="51.07481" lon="2.51623">
        <ele>6</ele>
        <time>2020-06-23T12:11:30Z</time>
      </trkpt>
      <trkpt lat="51.07481" lon="2.51623">
        <ele>6</ele>
        <time>2020-06-23T12:11:31Z</time>
      </trkpt>
      <trkpt lat="51.07482" lon="2.51622">
        <ele>6</ele>
        <time>2020-06-23T12:11:32Z</time>
      </trkpt>
      <trkpt lat="51.07483" lon="2.51621">
        <ele>6</ele>
        <time>2020-06-23T12:11:33Z</time>
      </trkpt>
      <trkpt lat="51.07483" lon="2.51621">
        <ele>6</ele>
        <time>2020-06-23T12:11:34Z</time>
      </trkpt>
      <trkpt lat="51.07484" lon="2.51621">
        <ele>6</ele>
        <time>2020-06-23T12:11:35Z</time>
      </trkpt>
      <trkpt lat="51.07485" lon="2.51621">
        <ele>6</ele>
        <time>2020-06-23T12:11:36Z</time>
      </trkpt>
      <trkpt lat="51.07487" lon="2.51619">
        <ele>6</ele>
        <time>2020-06-23T12:11:37Z</time>
      </trkpt>
      <trkpt lat="51.07487" lon="2.51619">
        <ele>6</ele>
        <time>2020-06-23T12:11:38Z</time>
      </trkpt>
      <trkpt lat="51.07498" lon="2.51629">
        <ele>5.8</ele>
        <time>2020-06-23T12:11:55Z</time>
      </trkpt>
      <trkpt lat="51.07498" lon="2.5163">
        <ele>5.8</ele>
        <time>2020-06-23T12:11:56Z</time>
      </trkpt>
      <trkpt lat="51.07499" lon="2.5163">
        <ele>5.8</ele>
        <time>2020-06-23T12:11:57Z</time>
      </trkpt>
      <trkpt lat="51.075" lon="2.5163">
        <ele>5.8</ele>
        <time>2020-06-23T12:11:58Z</time>
      </trkpt>
      <trkpt lat="51.07501" lon="2.51629">
        <ele>5.8</ele>
        <time>2020-06-23T12:11:59Z</time>
      </trkpt>
      <trkpt lat="51.07502" lon="2.5163">
        <ele>5.8</ele>
        <time>2020-06-23T12:12:00Z</time>
      </trkpt>
      <trkpt lat="51.07502" lon="2.5163">
        <ele>5.8</ele>
        <time>2020-06-23T12:12:01Z</time>
      </trkpt>
      <trkpt lat="51.07503" lon="2.5163">
        <ele>5.8</ele>
        <time>2020-06-23T12:12:02Z</time>
      </trkpt>
      <trkpt lat="51.07505" lon="2.5163">
        <ele>5.8</ele>
        <time>2020-06-23T12:12:03Z</time>
      </trkpt>
      <trkpt lat="51.07506" lon="2.51631">
        <ele>5.7</ele>
        <time>2020-06-23T12:12:04Z</time>
      </trkpt>
      <trkpt lat="51.07508" lon="2.5163">
        <ele>5.7</ele>
        <time>2020-06-23T12:12:05Z</time>
      </trkpt>
      <trkpt lat="51.0751" lon="2.51628">
        <ele>5.8</ele>
        <time>2020-06-23T12:12:06Z</time>
      </trkpt>
      <trkpt lat="51.0751" lon="2.51628">
        <ele>5.8</ele>
        <time>2020-06-23T12:12:07Z</time>
      </trkpt>
      <trkpt lat="51.07511" lon="2.51628">
        <ele>5.8</ele>
        <time>2020-06-23T12:12:08Z</time>
      </trkpt>
      <trkpt lat="51.07512" lon="2.51627">
        <ele>5.7</ele>
        <time>2020-06-23T12:12:09Z</time>
      </trkpt>
      <trkpt lat="51.07513" lon="2.51626">
        <ele>5.7</ele>
        <time>2020-06-23T12:12:10Z</time>
      </trkpt>
      <trkpt lat="51.07515" lon="2.51621">
        <ele>5.8</ele>
        <time>2020-06-23T12:12:11Z</time>
      </trkpt>
      <trkpt lat="51.07517" lon="2.51617">
        <ele>5.8</ele>
        <time>2020-06-23T12:12:12Z</time>
      </trkpt>
      <trkpt lat="51.07518" lon="2.51615">
        <ele>5.8</ele>
        <time>2020-06-23T12:12:13Z</time>
      </trkpt>
      <trkpt lat="51.0752" lon="2.51611">
        <ele>5.8</ele>
        <time>2020-06-23T12:12:14Z</time>
      </trkpt>
      <trkpt lat="51.0752" lon="2.51609">
        <ele>5.9</ele>
        <time>2020-06-23T12:12:15Z</time>
      </trkpt>
      <trkpt lat="51.07524" lon="2.51606">
        <ele>5.9</ele>
        <time>2020-06-23T12:12:16Z</time>
      </trkpt>
      <trkpt lat="51.07525" lon="2.51602">
        <ele>5.9</ele>
        <time>2020-06-23T12:12:17Z</time>
      </trkpt>
      <trkpt lat="51.07525" lon="2.51597">
        <ele>5.9</ele>
        <time>2020-06-23T12:12:18Z</time>
      </trkpt>
      <trkpt lat="51.07526" lon="2.51592">
        <ele>6</ele>
        <time>2020-06-23T12:12:19Z</time>
      </trkpt>
      <trkpt lat="51.07526" lon="2.51589">
        <ele>6</ele>
        <time>2020-06-23T12:12:20Z</time>
      </trkpt>
      <trkpt lat="51.07527" lon="2.51583">
        <ele>6.1</ele>
        <time>2020-06-23T12:12:21Z</time>
      </trkpt>
      <trkpt lat="51.07527" lon="2.51581">
        <ele>6.1</ele>
        <time>2020-06-23T12:12:22Z</time>
      </trkpt>
      <trkpt lat="51.07527" lon="2.51576">
        <ele>6.1</ele>
        <time>2020-06-23T12:12:23Z</time>
      </trkpt>
      <trkpt lat="51.07527" lon="2.51574">
        <ele>6.2</ele>
        <time>2020-06-23T12:12:24Z</time>
      </trkpt>
      <trkpt lat="51.07528" lon="2.51569">
        <ele>6.2</ele>
        <time>2020-06-23T12:12:25Z</time>
      </trkpt>
      <trkpt lat="51.07529" lon="2.51565">
        <ele>6.2</ele>
        <time>2020-06-23T12:12:26Z</time>
      </trkpt>
      <trkpt lat="51.07528" lon="2.5156">
        <ele>6.2</ele>
        <time>2020-06-23T12:12:27Z</time>
      </trkpt>
      <trkpt lat="51.07527" lon="2.51554">
        <ele>6.2</ele>
        <time>2020-06-23T12:12:28Z</time>
      </trkpt>
      <trkpt lat="51.07527" lon="2.5155">
        <ele>6.3</ele>
        <time>2020-06-23T12:12:29Z</time>
      </trkpt>
      <trkpt lat="51.07527" lon="2.51543">
        <ele>6.4</ele>
        <time>2020-06-23T12:12:30Z</time>
      </trkpt>
      <trkpt lat="51.07527" lon="2.51541">
        <ele>6.4</ele>
        <time>2020-06-23T12:12:31Z</time>
      </trkpt>
      <trkpt lat="51.07526" lon="2.51535">
        <ele>6.4</ele>
        <time>2020-06-23T12:12:32Z</time>
      </trkpt>
      <trkpt lat="51.07526" lon="2.5153">
        <ele>6.4</ele>
        <time>2020-06-23T12:12:33Z</time>
      </trkpt>
      <trkpt lat="51.07526" lon="2.51525">
        <ele>6.5</ele>
        <time>2020-06-23T12:12:34Z</time>
      </trkpt>
      <trkpt lat="51.07525" lon="2.5152">
        <ele>6.5</ele>
        <time>2020-06-23T12:12:35Z</time>
      </trkpt>
      <trkpt lat="51.07524" lon="2.51514">
        <ele>6.5</ele>
        <time>2020-06-23T12:12:36Z</time>
      </trkpt>
      <trkpt lat="51.07523" lon="2.51508">
        <ele>6.6</ele>
        <time>2020-06-23T12:12:37Z</time>
      </trkpt>
      <trkpt lat="51.07523" lon="2.51502">
        <ele>6.6</ele>
        <time>2020-06-23T12:12:38Z</time>
      </trkpt>
      <trkpt lat="51.07524" lon="2.51495">
        <ele>6.6</ele>
        <time>2020-06-23T12:12:39Z</time>
      </trkpt>
      <trkpt lat="51.07525" lon="2.51486">
        <ele>6.5</ele>
        <time>2020-06-23T12:12:40Z</time>
      </trkpt>
      <trkpt lat="51.07528" lon="2.51478">
        <ele>6.5</ele>
        <time>2020-06-23T12:12:41Z</time>
      </trkpt>
      <trkpt lat="51.07531" lon="2.51471">
        <ele>6.5</ele>
        <time>2020-06-23T12:12:42Z</time>
      </trkpt>
      <trkpt lat="51.07537" lon="2.51461">
        <ele>6.5</ele>
        <time>2020-06-23T12:12:43Z</time>
      </trkpt>
      <trkpt lat="51.07546" lon="2.51449">
        <ele>6.4</ele>
        <time>2020-06-23T12:12:44Z</time>
      </trkpt>
      <trkpt lat="51.07552" lon="2.51442">
        <ele>6.4</ele>
        <time>2020-06-23T12:12:45Z</time>
      </trkpt>
      <trkpt lat="51.07558" lon="2.51435">
        <ele>6.5</ele>
        <time>2020-06-23T12:12:46Z</time>
      </trkpt>
      <trkpt lat="51.07562" lon="2.5143">
        <ele>6.4</ele>
        <time>2020-06-23T12:12:47Z</time>
      </trkpt>
      <trkpt lat="51.07568" lon="2.51424">
        <ele>6.4</ele>
        <time>2020-06-23T12:12:48Z</time>
      </trkpt>
      <trkpt lat="51.07573" lon="2.51419">
        <ele>6.3</ele>
        <time>2020-06-23T12:12:49Z</time>
      </trkpt>
      <trkpt lat="51.07577" lon="2.51414">
        <ele>6.3</ele>
        <time>2020-06-23T12:12:50Z</time>
      </trkpt>
      <trkpt lat="51.07582" lon="2.5141">
        <ele>6.2</ele>
        <time>2020-06-23T12:12:51Z</time>
      </trkpt>
      <trkpt lat="51.07586" lon="2.51408">
        <ele>6.2</ele>
        <time>2020-06-23T12:12:52Z</time>
      </trkpt>
      <trkpt lat="51.0759" lon="2.51406">
        <ele>6.1</ele>
        <time>2020-06-23T12:12:53Z</time>
      </trkpt>
      <trkpt lat="51.07595" lon="2.51406">
        <ele>6.1</ele>
        <time>2020-06-23T12:12:54Z</time>
      </trkpt>
      <trkpt lat="51.076" lon="2.51404">
        <ele>6.1</ele>
        <time>2020-06-23T12:12:55Z</time>
      </trkpt>
      <trkpt lat="51.07604" lon="2.51403">
        <ele>6.1</ele>
        <time>2020-06-23T12:12:56Z</time>
      </trkpt>
      <trkpt lat="51.07608" lon="2.51402">
        <ele>6.1</ele>
        <time>2020-06-23T12:12:57Z</time>
      </trkpt>
      <trkpt lat="51.07613" lon="2.514">
        <ele>6.1</ele>
        <time>2020-06-23T12:12:58Z</time>
      </trkpt>
      <trkpt lat="51.07617" lon="2.51399">
        <ele>6.1</ele>
        <time>2020-06-23T12:12:59Z</time>
      </trkpt>
      <trkpt lat="51.07623" lon="2.51397">
        <ele>6.1</ele>
        <time>2020-06-23T12:13:00Z</time>
      </trkpt>
      <trkpt lat="51.07627" lon="2.51396">
        <ele>6.1</ele>
        <time>2020-06-23T12:13:01Z</time>
      </trkpt>
      <trkpt lat="51.07632" lon="2.51394">
        <ele>6.1</ele>
        <time>2020-06-23T12:13:02Z</time>
      </trkpt>
      <trkpt lat="51.07637" lon="2.51393">
        <ele>6.1</ele>
        <time>2020-06-23T12:13:03Z</time>
      </trkpt>
      <trkpt lat="51.07642" lon="2.51391">
        <ele>6.1</ele>
        <time>2020-06-23T12:13:04Z</time>
      </trkpt>
      <trkpt lat="51.07647" lon="2.5139">
        <ele>6.1</ele>
        <time>2020-06-23T12:13:05Z</time>
      </trkpt>
      <trkpt lat="51.07652" lon="2.51389">
        <ele>6.1</ele>
        <time>2020-06-23T12:13:06Z</time>
      </trkpt>
      <trkpt lat="51.07658" lon="2.51388">
        <ele>6.2</ele>
        <time>2020-06-23T12:13:07Z</time>
      </trkpt>
      <trkpt lat="51.07664" lon="2.51388">
        <ele>6.2</ele>
        <time>2020-06-23T12:13:08Z</time>
      </trkpt>
      <trkpt lat="51.07669" lon="2.51387">
        <ele>6.3</ele>
        <time>2020-06-23T12:13:09Z</time>
      </trkpt>
      <trkpt lat="51.07674" lon="2.51387">
        <ele>6.3</ele>
        <time>2020-06-23T12:13:10Z</time>
      </trkpt>
      <trkpt lat="51.07678" lon="2.51387">
        <ele>6.4</ele>
        <time>2020-06-23T12:13:11Z</time>
      </trkpt>
      <trkpt lat="51.07682" lon="2.51387">
        <ele>6.4</ele>
        <time>2020-06-23T12:13:12Z</time>
      </trkpt>
      <trkpt lat="51.07686" lon="2.51387">
        <ele>6.5</ele>
        <time>2020-06-23T12:13:13Z</time>
      </trkpt>
      <trkpt lat="51.07691" lon="2.51386">
        <ele>6.5</ele>
        <time>2020-06-23T12:13:14Z</time>
      </trkpt>
      <trkpt lat="51.07696" lon="2.51386">
        <ele>6.5</ele>
        <time>2020-06-23T12:13:15Z</time>
      </trkpt>
      <trkpt lat="51.07701" lon="2.51386">
        <ele>6.6</ele>
        <time>2020-06-23T12:13:16Z</time>
      </trkpt>
      <trkpt lat="51.07706" lon="2.51387">
        <ele>6.6</ele>
        <time>2020-06-23T12:13:17Z</time>
      </trkpt>
      <trkpt lat="51.07712" lon="2.51386">
        <ele>6.7</ele>
        <time>2020-06-23T12:13:18Z</time>
      </trkpt>
      <trkpt lat="51.07717" lon="2.51386">
        <ele>6.7</ele>
        <time>2020-06-23T12:13:19Z</time>
      </trkpt>
      <trkpt lat="51.07723" lon="2.51385">
        <ele>6.7</ele>
        <time>2020-06-23T12:13:20Z</time>
      </trkpt>
      <trkpt lat="51.07727" lon="2.51383">
        <ele>6.8</ele>
        <time>2020-06-23T12:13:21Z</time>
      </trkpt>
      <trkpt lat="51.07732" lon="2.51382">
        <ele>6.8</ele>
        <time>2020-06-23T12:13:22Z</time>
      </trkpt>
      <trkpt lat="51.07737" lon="2.51381">
        <ele>6.8</ele>
        <time>2020-06-23T12:13:23Z</time>
      </trkpt>
      <trkpt lat="51.07741" lon="2.51379">
        <ele>6.8</ele>
        <time>2020-06-23T12:13:24Z</time>
      </trkpt>
      <trkpt lat="51.07747" lon="2.51379">
        <ele>6.8</ele>
        <time>2020-06-23T12:13:25Z</time>
      </trkpt>
      <trkpt lat="51.07752" lon="2.51378">
        <ele>6.8</ele>
        <time>2020-06-23T12:13:26Z</time>
      </trkpt>
      <trkpt lat="51.07756" lon="2.51377">
        <ele>6.9</ele>
        <time>2020-06-23T12:13:27Z</time>
      </trkpt>
      <trkpt lat="51.07761" lon="2.51376">
        <ele>6.9</ele>
        <time>2020-06-23T12:13:28Z</time>
      </trkpt>
      <trkpt lat="51.07766" lon="2.51375">
        <ele>6.9</ele>
        <time>2020-06-23T12:13:29Z</time>
      </trkpt>
      <trkpt lat="51.07771" lon="2.51375">
        <ele>7</ele>
        <time>2020-06-23T12:13:30Z</time>
      </trkpt>
      <trkpt lat="51.07777" lon="2.51375">
        <ele>7</ele>
        <time>2020-06-23T12:13:31Z</time>
      </trkpt>
      <trkpt lat="51.07781" lon="2.51373">
        <ele>7.1</ele>
        <time>2020-06-23T12:13:32Z</time>
      </trkpt>
      <trkpt lat="51.07788" lon="2.5137">
        <ele>7.3</ele>
        <time>2020-06-23T12:13:33Z</time>
      </trkpt>
      <trkpt lat="51.07794" lon="2.51366">
        <ele>7.4</ele>
        <time>2020-06-23T12:13:34Z</time>
      </trkpt>
      <trkpt lat="51.07798" lon="2.51359">
        <ele>7.5</ele>
        <time>2020-06-23T12:13:35Z</time>
      </trkpt>
      <trkpt lat="51.07803" lon="2.51354">
        <ele>7.7</ele>
        <time>2020-06-23T12:13:36Z</time>
      </trkpt>
      <trkpt lat="51.07807" lon="2.5135">
        <ele>7.7</ele>
        <time>2020-06-23T12:13:37Z</time>
      </trkpt>
      <trkpt lat="51.0781" lon="2.51345">
        <ele>7.8</ele>
        <time>2020-06-23T12:13:38Z</time>
      </trkpt>
      <trkpt lat="51.07813" lon="2.51343">
        <ele>7.9</ele>
        <time>2020-06-23T12:13:39Z</time>
      </trkpt>
      <trkpt lat="51.07815" lon="2.51338">
        <ele>8</ele>
        <time>2020-06-23T12:13:40Z</time>
      </trkpt>
      <trkpt lat="51.07816" lon="2.51336">
        <ele>8</ele>
        <time>2020-06-23T12:13:41Z</time>
      </trkpt>
      <trkpt lat="51.07819" lon="2.51332">
        <ele>8.1</ele>
        <time>2020-06-23T12:13:42Z</time>
      </trkpt>
      <trkpt lat="51.07822" lon="2.5133">
        <ele>8.1</ele>
        <time>2020-06-23T12:13:43Z</time>
      </trkpt>
      <trkpt lat="51.07823" lon="2.51329">
        <ele>8.2</ele>
        <time>2020-06-23T12:13:44Z</time>
      </trkpt>
      <trkpt lat="51.07827" lon="2.51327">
        <ele>8.2</ele>
        <time>2020-06-23T12:13:45Z</time>
      </trkpt>
      <trkpt lat="51.0783" lon="2.51326">
        <ele>8.4</ele>
        <time>2020-06-23T12:13:46Z</time>
      </trkpt>
      <trkpt lat="51.07832" lon="2.51324">
        <ele>8.3</ele>
        <time>2020-06-23T12:13:47Z</time>
      </trkpt>
      <trkpt lat="51.07833" lon="2.51324">
        <ele>8.3</ele>
        <time>2020-06-23T12:13:48Z</time>
      </trkpt>
      <trkpt lat="51.07836" lon="2.51322">
        <ele>8.3</ele>
        <time>2020-06-23T12:13:49Z</time>
      </trkpt>
      <trkpt lat="51.07837" lon="2.51321">
        <ele>8.2</ele>
        <time>2020-06-23T12:13:50Z</time>
      </trkpt>
      <trkpt lat="51.07841" lon="2.51318">
        <ele>8.2</ele>
        <time>2020-06-23T12:13:51Z</time>
      </trkpt>
      <trkpt lat="51.07842" lon="2.51317">
        <ele>8.2</ele>
        <time>2020-06-23T12:13:52Z</time>
      </trkpt>
      <trkpt lat="51.07845" lon="2.51314">
        <ele>8.1</ele>
        <time>2020-06-23T12:13:53Z</time>
      </trkpt>
      <trkpt lat="51.07846" lon="2.51314">
        <ele>8.1</ele>
        <time>2020-06-23T12:13:54Z</time>
      </trkpt>
      <trkpt lat="51.07849" lon="2.51311">
        <ele>8.1</ele>
        <time>2020-06-23T12:13:55Z</time>
      </trkpt>
      <trkpt lat="51.0785" lon="2.5131">
        <ele>8.1</ele>
        <time>2020-06-23T12:13:56Z</time>
      </trkpt>
      <trkpt lat="51.07852" lon="2.5131">
        <ele>8</ele>
        <time>2020-06-23T12:13:57Z</time>
      </trkpt>
      <trkpt lat="51.07855" lon="2.51309">
        <ele>8</ele>
        <time>2020-06-23T12:13:58Z</time>
      </trkpt>
      <trkpt lat="51.07858" lon="2.51308">
        <ele>8</ele>
        <time>2020-06-23T12:13:59Z</time>
      </trkpt>
      <trkpt lat="51.07859" lon="2.51306">
        <ele>8</ele>
        <time>2020-06-23T12:14:00Z</time>
      </trkpt>
      <trkpt lat="51.07861" lon="2.51305">
        <ele>8</ele>
        <time>2020-06-23T12:14:01Z</time>
      </trkpt>
      <trkpt lat="51.07864" lon="2.51302">
        <ele>8</ele>
        <time>2020-06-23T12:14:02Z</time>
      </trkpt>
      <trkpt lat="51.07865" lon="2.51301">
        <ele>8</ele>
        <time>2020-06-23T12:14:03Z</time>
      </trkpt>
      <trkpt lat="51.07867" lon="2.51298">
        <ele>7.9</ele>
        <time>2020-06-23T12:14:04Z</time>
      </trkpt>
      <trkpt lat="51.07868" lon="2.51297">
        <ele>7.9</ele>
        <time>2020-06-23T12:14:05Z</time>
      </trkpt>
      <trkpt lat="51.0787" lon="2.51295">
        <ele>7.9</ele>
        <time>2020-06-23T12:14:06Z</time>
      </trkpt>
      <trkpt lat="51.07871" lon="2.51294">
        <ele>7.9</ele>
        <time>2020-06-23T12:14:07Z</time>
      </trkpt>
      <trkpt lat="51.07872" lon="2.51293">
        <ele>7.9</ele>
        <time>2020-06-23T12:14:08Z</time>
      </trkpt>
      <trkpt lat="51.07873" lon="2.51289">
        <ele>7.9</ele>
        <time>2020-06-23T12:14:09Z</time>
      </trkpt>
      <trkpt lat="51.07874" lon="2.51287">
        <ele>7.9</ele>
        <time>2020-06-23T12:14:10Z</time>
      </trkpt>
      <trkpt lat="51.07877" lon="2.51286">
        <ele>7.9</ele>
        <time>2020-06-23T12:14:11Z</time>
      </trkpt>
      <trkpt lat="51.0788" lon="2.51285">
        <ele>7.9</ele>
        <time>2020-06-23T12:14:12Z</time>
      </trkpt>
      <trkpt lat="51.07881" lon="2.51285">
        <ele>7.9</ele>
        <time>2020-06-23T12:14:13Z</time>
      </trkpt>
      <trkpt lat="51.07883" lon="2.51283">
        <ele>7.8</ele>
        <time>2020-06-23T12:14:14Z</time>
      </trkpt>
      <trkpt lat="51.07884" lon="2.51283">
        <ele>7.8</ele>
        <time>2020-06-23T12:14:15Z</time>
      </trkpt>
      <trkpt lat="51.07885" lon="2.51282">
        <ele>7.8</ele>
        <time>2020-06-23T12:14:16Z</time>
      </trkpt>
      <trkpt lat="51.07887" lon="2.5128">
        <ele>7.8</ele>
        <time>2020-06-23T12:14:17Z</time>
      </trkpt>
      <trkpt lat="51.07888" lon="2.51279">
        <ele>7.8</ele>
        <time>2020-06-23T12:14:18Z</time>
      </trkpt>
      <trkpt lat="51.0789" lon="2.51279">
        <ele>7.8</ele>
        <time>2020-06-23T12:14:19Z</time>
      </trkpt>
      <trkpt lat="51.07891" lon="2.51279">
        <ele>7.8</ele>
        <time>2020-06-23T12:14:20Z</time>
      </trkpt>
      <trkpt lat="51.07895" lon="2.51279">
        <ele>7.8</ele>
        <time>2020-06-23T12:14:21Z</time>
      </trkpt>
      <trkpt lat="51.07897" lon="2.51279">
        <ele>7.8</ele>
        <time>2020-06-23T12:14:22Z</time>
      </trkpt>
      <trkpt lat="51.07899" lon="2.51279">
        <ele>7.8</ele>
        <time>2020-06-23T12:14:23Z</time>
      </trkpt>
      <trkpt lat="51.079" lon="2.51279">
        <ele>7.6</ele>
        <time>2020-06-23T12:14:24Z</time>
      </trkpt>
      <trkpt lat="51.07903" lon="2.5128">
        <ele>7.5</ele>
        <time>2020-06-23T12:14:25Z</time>
      </trkpt>
      <trkpt lat="51.07904" lon="2.5128">
        <ele>7.5</ele>
        <time>2020-06-23T12:14:26Z</time>
      </trkpt>
      <trkpt lat="51.07925" lon="2.5128">
        <ele>6.4</ele>
        <time>2020-06-23T12:15:49Z</time>
      </trkpt>
      <trkpt lat="51.07925" lon="2.5128">
        <ele>6.4</ele>
        <time>2020-06-23T12:15:50Z</time>
      </trkpt>
      <trkpt lat="51.07925" lon="2.5128">
        <ele>6.4</ele>
        <time>2020-06-23T12:15:51Z</time>
      </trkpt>
      <trkpt lat="51.07925" lon="2.51281">
        <ele>6.4</ele>
        <time>2020-06-23T12:15:52Z</time>
      </trkpt>
      <trkpt lat="51.07925" lon="2.51281">
        <ele>6.4</ele>
        <time>2020-06-23T12:15:53Z</time>
      </trkpt>
      <trkpt lat="51.07925" lon="2.51282">
        <ele>6.4</ele>
        <time>2020-06-23T12:15:54Z</time>
      </trkpt>
      <trkpt lat="51.07925" lon="2.51282">
        <ele>6.6</ele>
        <time>2020-06-23T12:15:55Z</time>
      </trkpt>
      <trkpt lat="51.07925" lon="2.51283">
        <ele>6.6</ele>
        <time>2020-06-23T12:15:56Z</time>
      </trkpt>
      <trkpt lat="51.07925" lon="2.51283">
        <ele>6.6</ele>
        <time>2020-06-23T12:15:57Z</time>
      </trkpt>
      <trkpt lat="51.07925" lon="2.51284">
        <ele>6.6</ele>
        <time>2020-06-23T12:15:58Z</time>
      </trkpt>
      <trkpt lat="51.07925" lon="2.51283">
        <ele>6.6</ele>
        <time>2020-06-23T12:15:59Z</time>
      </trkpt>
      <trkpt lat="51.07925" lon="2.51282">
        <ele>6.6</ele>
        <time>2020-06-23T12:16:00Z</time>
      </trkpt>
      <trkpt lat="51.07924" lon="2.51282">
        <ele>6.6</ele>
        <time>2020-06-23T12:16:01Z</time>
      </trkpt>
      <trkpt lat="51.07924" lon="2.51282">
        <ele>6.4</ele>
        <time>2020-06-23T12:16:02Z</time>
      </trkpt>
      <trkpt lat="51.07924" lon="2.51283">
        <ele>6.6</ele>
        <time>2020-06-23T12:16:03Z</time>
      </trkpt>
      <trkpt lat="51.07924" lon="2.51283">
        <ele>6.6</ele>
        <time>2020-06-23T12:16:04Z</time>
      </trkpt>
      <trkpt lat="51.07924" lon="2.51283">
        <ele>6.6</ele>
        <time>2020-06-23T12:16:05Z</time>
      </trkpt>
      <trkpt lat="51.07924" lon="2.51284">
        <ele>6.7</ele>
        <time>2020-06-23T12:16:06Z</time>
      </trkpt>
      <trkpt lat="51.07924" lon="2.51283">
        <ele>6.7</ele>
        <time>2020-06-23T12:16:07Z</time>
      </trkpt>
      <trkpt lat="51.07924" lon="2.51285">
        <ele>6.6</ele>
        <time>2020-06-23T12:16:08Z</time>
      </trkpt>
      <trkpt lat="51.07923" lon="2.51286">
        <ele>6.7</ele>
        <time>2020-06-23T12:16:09Z</time>
      </trkpt>
      <trkpt lat="51.07922" lon="2.51286">
        <ele>6.7</ele>
        <time>2020-06-23T12:16:10Z</time>
      </trkpt>
      <trkpt lat="51.07922" lon="2.51287">
        <ele>6.7</ele>
        <time>2020-06-23T12:16:11Z</time>
      </trkpt>
      <trkpt lat="51.07922" lon="2.51286">
        <ele>6.7</ele>
        <time>2020-06-23T12:16:12Z</time>
      </trkpt>
      <trkpt lat="51.07921" lon="2.51286">
        <ele>6.7</ele>
        <time>2020-06-23T12:16:13Z</time>
      </trkpt>
      <trkpt lat="51.0792" lon="2.51286">
        <ele>6.8</ele>
        <time>2020-06-23T12:16:14Z</time>
      </trkpt>
      <trkpt lat="51.0792" lon="2.51285">
        <ele>6.8</ele>
        <time>2020-06-23T12:16:15Z</time>
      </trkpt>
      <trkpt lat="51.0792" lon="2.51285">
        <ele>6.8</ele>
        <time>2020-06-23T12:16:16Z</time>
      </trkpt>
      <trkpt lat="51.0792" lon="2.51286">
        <ele>6.8</ele>
        <time>2020-06-23T12:16:17Z</time>
      </trkpt>
      <trkpt lat="51.0792" lon="2.51286">
        <ele>6.8</ele>
        <time>2020-06-23T12:16:18Z</time>
      </trkpt>
      <trkpt lat="51.0792" lon="2.51286">
        <ele>6.8</ele>
        <time>2020-06-23T12:16:19Z</time>
      </trkpt>
      <trkpt lat="51.0792" lon="2.51287">
        <ele>7</ele>
        <time>2020-06-23T12:16:20Z</time>
      </trkpt>
      <trkpt lat="51.0792" lon="2.51287">
        <ele>7</ele>
        <time>2020-06-23T12:16:21Z</time>
      </trkpt>
      <trkpt lat="51.0792" lon="2.51287">
        <ele>7</ele>
        <time>2020-06-23T12:16:22Z</time>
      </trkpt>
      <trkpt lat="51.0792" lon="2.51287">
        <ele>7</ele>
        <time>2020-06-23T12:16:23Z</time>
      </trkpt>
      <trkpt lat="51.0792" lon="2.51287">
        <ele>7</ele>
        <time>2020-06-23T12:16:24Z</time>
      </trkpt>
      <trkpt lat="51.07926" lon="2.51285">
        <ele>6.6</ele>
        <time>2020-06-23T12:16:52Z</time>
      </trkpt>
      <trkpt lat="51.07925" lon="2.51285">
        <ele>6.6</ele>
        <time>2020-06-23T12:16:53Z</time>
      </trkpt>
      <trkpt lat="51.07925" lon="2.51285">
        <ele>6.6</ele>
        <time>2020-06-23T12:16:54Z</time>
      </trkpt>
      <trkpt lat="51.07924" lon="2.51285">
        <ele>6.6</ele>
        <time>2020-06-23T12:16:55Z</time>
      </trkpt>
      <trkpt lat="51.07923" lon="2.51285">
        <ele>6.7</ele>
        <time>2020-06-23T12:16:56Z</time>
      </trkpt>
      <trkpt lat="51.07923" lon="2.51285">
        <ele>6.7</ele>
        <time>2020-06-23T12:16:57Z</time>
      </trkpt>
      <trkpt lat="51.07923" lon="2.51285">
        <ele>6.7</ele>
        <time>2020-06-23T12:16:58Z</time>
      </trkpt>
      <trkpt lat="51.07923" lon="2.51284">
        <ele>6.7</ele>
        <time>2020-06-23T12:16:59Z</time>
      </trkpt>
      <trkpt lat="51.07923" lon="2.51284">
        <ele>6.7</ele>
        <time>2020-06-23T12:17:00Z</time>
      </trkpt>
      <trkpt lat="51.07923" lon="2.51285">
        <ele>6.7</ele>
        <time>2020-06-23T12:17:01Z</time>
      </trkpt>
      <trkpt lat="51.07923" lon="2.51284">
        <ele>6.7</ele>
        <time>2020-06-23T12:17:02Z</time>
      </trkpt>
      <trkpt lat="51.07923" lon="2.51284">
        <ele>6.7</ele>
        <time>2020-06-23T12:17:03Z</time>
      </trkpt>
      <trkpt lat="51.07923" lon="2.51284">
        <ele>6.7</ele>
        <time>2020-06-23T12:17:04Z</time>
      </trkpt>
      <trkpt lat="51.07924" lon="2.51285">
        <ele>6.6</ele>
        <time>2020-06-23T12:17:05Z</time>
      </trkpt>
      <trkpt lat="51.07924" lon="2.51285">
        <ele>6.6</ele>
        <time>2020-06-23T12:17:06Z</time>
      </trkpt>
      <trkpt lat="51.07924" lon="2.51286">
        <ele>6.6</ele>
        <time>2020-06-23T12:17:07Z</time>
      </trkpt>
      <trkpt lat="51.07925" lon="2.51286">
        <ele>6.6</ele>
        <time>2020-06-23T12:17:08Z</time>
      </trkpt>
      <trkpt lat="51.07925" lon="2.51286">
        <ele>6.6</ele>
        <time>2020-06-23T12:17:09Z</time>
      </trkpt>
      <trkpt lat="51.07925" lon="2.51287">
        <ele>6.7</ele>
        <time>2020-06-23T12:17:10Z</time>
      </trkpt>
      <trkpt lat="51.07926" lon="2.51287">
        <ele>6.7</ele>
        <time>2020-06-23T12:17:11Z</time>
      </trkpt>
      <trkpt lat="51.07926" lon="2.51288">
        <ele>6.7</ele>
        <time>2020-06-23T12:17:12Z</time>
      </trkpt>
      <trkpt lat="51.07926" lon="2.51288">
        <ele>6.7</ele>
        <time>2020-06-23T12:17:13Z</time>
      </trkpt>
      <trkpt lat="51.07927" lon="2.51289">
        <ele>6.6</ele>
        <time>2020-06-23T12:17:14Z</time>
      </trkpt>
      <trkpt lat="51.07927" lon="2.51289">
        <ele>6.6</ele>
        <time>2020-06-23T12:17:15Z</time>
      </trkpt>
      <trkpt lat="51.07927" lon="2.51289">
        <ele>6.6</ele>
        <time>2020-06-23T12:17:16Z</time>
      </trkpt>
      <trkpt lat="51.07928" lon="2.5129">
        <ele>6.6</ele>
        <time>2020-06-23T12:17:17Z</time>
      </trkpt>
      <trkpt lat="51.07928" lon="2.5129">
        <ele>6.6</ele>
        <time>2020-06-23T12:17:18Z</time>
      </trkpt>
      <trkpt lat="51.07928" lon="2.51291">
        <ele>6.6</ele>
        <time>2020-06-23T12:17:19Z</time>
      </trkpt>
      <trkpt lat="51.07929" lon="2.51291">
        <ele>6.7</ele>
        <time>2020-06-23T12:17:20Z</time>
      </trkpt>
      <trkpt lat="51.07929" lon="2.51292">
        <ele>6.7</ele>
        <time>2020-06-23T12:17:21Z</time>
      </trkpt>
      <trkpt lat="51.07929" lon="2.51292">
        <ele>6.6</ele>
        <time>2020-06-23T12:17:22Z</time>
      </trkpt>
      <trkpt lat="51.0793" lon="2.51292">
        <ele>6.6</ele>
        <time>2020-06-23T12:17:23Z</time>
      </trkpt>
      <trkpt lat="51.0793" lon="2.51293">
        <ele>6.6</ele>
        <time>2020-06-23T12:18:05Z</time>
      </trkpt>
      <trkpt lat="51.0793" lon="2.51293">
        <ele>6.6</ele>
        <time>2020-06-23T12:18:06Z</time>
      </trkpt>
      <trkpt lat="51.07931" lon="2.51294">
        <ele>6.6</ele>
        <time>2020-06-23T12:18:07Z</time>
      </trkpt>
      <trkpt lat="51.07931" lon="2.51294">
        <ele>6.6</ele>
        <time>2020-06-23T12:18:08Z</time>
      </trkpt>
      <trkpt lat="51.07933" lon="2.51296">
        <ele>6.5</ele>
        <time>2020-06-23T12:18:09Z</time>
      </trkpt>
      <trkpt lat="51.07934" lon="2.51296">
        <ele>6.5</ele>
        <time>2020-06-23T12:18:10Z</time>
      </trkpt>
      <trkpt lat="51.07934" lon="2.51297">
        <ele>6.5</ele>
        <time>2020-06-23T12:18:11Z</time>
      </trkpt>
      <trkpt lat="51.07934" lon="2.51297">
        <ele>6.5</ele>
        <time>2020-06-23T12:18:12Z</time>
      </trkpt>
      <trkpt lat="51.07934" lon="2.51298">
        <ele>6.5</ele>
        <time>2020-06-23T12:18:13Z</time>
      </trkpt>
      <trkpt lat="51.07934" lon="2.51298">
        <ele>6.5</ele>
        <time>2020-06-23T12:18:14Z</time>
      </trkpt>
      <trkpt lat="51.07935" lon="2.51297">
        <ele>6.4</ele>
        <time>2020-06-23T12:18:15Z</time>
      </trkpt>
      <trkpt lat="51.07935" lon="2.51296">
        <ele>6.4</ele>
        <time>2020-06-23T12:18:16Z</time>
      </trkpt>
      <trkpt lat="51.07936" lon="2.51296">
        <ele>6.4</ele>
        <time>2020-06-23T12:18:17Z</time>
      </trkpt>
      <trkpt lat="51.07936" lon="2.51296">
        <ele>6.4</ele>
        <time>2020-06-23T12:18:18Z</time>
      </trkpt>
      <trkpt lat="51.07937" lon="2.51296">
        <ele>6.4</ele>
        <time>2020-06-23T12:18:19Z</time>
      </trkpt>
      <trkpt lat="51.07937" lon="2.51296">
        <ele>6.4</ele>
        <time>2020-06-23T12:18:20Z</time>
      </trkpt>
      <trkpt lat="51.07937" lon="2.51296">
        <ele>6.3</ele>
        <time>2020-06-23T12:18:21Z</time>
      </trkpt>
      <trkpt lat="51.07938" lon="2.51295">
        <ele>6.1</ele>
        <time>2020-06-23T12:18:22Z</time>
      </trkpt>
      <trkpt lat="51.07938" lon="2.51295">
        <ele>6.1</ele>
        <time>2020-06-23T12:18:23Z</time>
      </trkpt>
      <trkpt lat="51.07939" lon="2.51296">
        <ele>6.3</ele>
        <time>2020-06-23T12:18:24Z</time>
      </trkpt>
      <trkpt lat="51.07936" lon="2.51296">
        <ele>6.4</ele>
        <time>2020-06-23T12:18:25Z</time>
      </trkpt>
      <trkpt lat="51.07935" lon="2.51296">
        <ele>6.4</ele>
        <time>2020-06-23T12:18:26Z</time>
      </trkpt>
      <trkpt lat="51.07933" lon="2.51296">
        <ele>6.5</ele>
        <time>2020-06-23T12:18:27Z</time>
      </trkpt>
      <trkpt lat="51.07933" lon="2.51295">
        <ele>6.5</ele>
        <time>2020-06-23T12:18:28Z</time>
      </trkpt>
      <trkpt lat="51.07932" lon="2.51294">
        <ele>6.4</ele>
        <time>2020-06-23T12:18:29Z</time>
      </trkpt>
      <trkpt lat="51.07932" lon="2.51294">
        <ele>6.4</ele>
        <time>2020-06-23T12:18:30Z</time>
      </trkpt>
      <trkpt lat="51.07932" lon="2.51294">
        <ele>6.4</ele>
        <time>2020-06-23T12:18:31Z</time>
      </trkpt>
      <trkpt lat="51.07932" lon="2.51294">
        <ele>6.4</ele>
        <time>2020-06-23T12:18:32Z</time>
      </trkpt>
      <trkpt lat="51.07932" lon="2.51294">
        <ele>6.4</ele>
        <time>2020-06-23T12:18:33Z</time>
      </trkpt>
      <trkpt lat="51.07933" lon="2.51294">
        <ele>6.4</ele>
        <time>2020-06-23T12:18:34Z</time>
      </trkpt>
      <trkpt lat="51.07933" lon="2.51294">
        <ele>6.4</ele>
        <time>2020-06-23T12:18:35Z</time>
      </trkpt>
      <trkpt lat="51.07933" lon="2.51294">
        <ele>6.4</ele>
        <time>2020-06-23T12:18:36Z</time>
      </trkpt>
      <trkpt lat="51.07933" lon="2.51294">
        <ele>6.4</ele>
        <time>2020-06-23T12:18:37Z</time>
      </trkpt>
      <trkpt lat="51.07933" lon="2.51294">
        <ele>6.4</ele>
        <time>2020-06-23T12:18:38Z</time>
      </trkpt>
      <trkpt lat="51.07933" lon="2.51294">
        <ele>6.4</ele>
        <time>2020-06-23T12:18:39Z</time>
      </trkpt>
      <trkpt lat="51.07933" lon="2.51294">
        <ele>6.4</ele>
        <time>2020-06-23T12:18:40Z</time>
      </trkpt>
      <trkpt lat="51.07933" lon="2.51294">
        <ele>6.4</ele>
        <time>2020-06-23T12:18:41Z</time>
      </trkpt>
      <trkpt lat="51.07933" lon="2.51294">
        <ele>6.4</ele>
        <time>2020-06-23T12:18:42Z</time>
      </trkpt>
      <trkpt lat="51.07933" lon="2.51294">
        <ele>6.4</ele>
        <time>2020-06-23T12:18:43Z</time>
      </trkpt>
      <trkpt lat="51.07933" lon="2.51294">
        <ele>6.4</ele>
        <time>2020-06-23T12:18:44Z</time>
      </trkpt>
      <trkpt lat="51.07933" lon="2.51294">
        <ele>6.4</ele>
        <time>2020-06-23T12:18:45Z</time>
      </trkpt>
      <trkpt lat="51.07931" lon="2.51289">
        <ele>6.4</ele>
        <time>2020-06-23T12:19:22Z</time>
      </trkpt>
      <trkpt lat="51.07932" lon="2.51289">
        <ele>6.3</ele>
        <time>2020-06-23T12:19:23Z</time>
      </trkpt>
      <trkpt lat="51.07933" lon="2.51289">
        <ele>6.3</ele>
        <time>2020-06-23T12:19:24Z</time>
      </trkpt>
      <trkpt lat="51.07934" lon="2.51289">
        <ele>6.3</ele>
        <time>2020-06-23T12:19:25Z</time>
      </trkpt>
      <trkpt lat="51.07935" lon="2.51288">
        <ele>6.2</ele>
        <time>2020-06-23T12:19:26Z</time>
      </trkpt>
      <trkpt lat="51.07936" lon="2.51289">
        <ele>6.2</ele>
        <time>2020-06-23T12:19:27Z</time>
      </trkpt>
      <trkpt lat="51.07937" lon="2.5129">
        <ele>6.2</ele>
        <time>2020-06-23T12:19:28Z</time>
      </trkpt>
      <trkpt lat="51.07937" lon="2.5129">
        <ele>6.2</ele>
        <time>2020-06-23T12:19:29Z</time>
      </trkpt>
      <trkpt lat="51.07937" lon="2.5129">
        <ele>6.2</ele>
        <time>2020-06-23T12:19:30Z</time>
      </trkpt>
      <trkpt lat="51.07937" lon="2.5129">
        <ele>6.2</ele>
        <time>2020-06-23T12:19:31Z</time>
      </trkpt>
      <trkpt lat="51.07937" lon="2.51291">
        <ele>6.1</ele>
        <time>2020-06-23T12:19:32Z</time>
      </trkpt>
      <trkpt lat="51.07937" lon="2.51292">
        <ele>6.1</ele>
        <time>2020-06-23T12:19:33Z</time>
      </trkpt>
      <trkpt lat="51.07937" lon="2.51292">
        <ele>6.1</ele>
        <time>2020-06-23T12:19:34Z</time>
      </trkpt>
      <trkpt lat="51.07937" lon="2.51292">
        <ele>6.1</ele>
        <time>2020-06-23T12:19:35Z</time>
      </trkpt>
      <trkpt lat="51.07937" lon="2.51292">
        <ele>6.3</ele>
        <time>2020-06-23T12:19:36Z</time>
      </trkpt>
      <trkpt lat="51.07937" lon="2.51292">
        <ele>6.3</ele>
        <time>2020-06-23T12:19:37Z</time>
      </trkpt>
      <trkpt lat="51.07937" lon="2.51292">
        <ele>6.3</ele>
        <time>2020-06-23T12:19:38Z</time>
      </trkpt>
      <trkpt lat="51.07935" lon="2.51291">
        <ele>6.2</ele>
        <time>2020-06-23T12:19:39Z</time>
      </trkpt>
      <trkpt lat="51.07935" lon="2.51291">
        <ele>6.3</ele>
        <time>2020-06-23T12:19:40Z</time>
      </trkpt>
      <trkpt lat="51.07935" lon="2.51291">
        <ele>6.3</ele>
        <time>2020-06-23T12:19:41Z</time>
      </trkpt>
      <trkpt lat="51.07935" lon="2.51291">
        <ele>6.3</ele>
        <time>2020-06-23T12:19:42Z</time>
      </trkpt>
      <trkpt lat="51.07935" lon="2.51291">
        <ele>6.2</ele>
        <time>2020-06-23T12:19:43Z</time>
      </trkpt>
      <trkpt lat="51.07935" lon="2.51291">
        <ele>6.2</ele>
        <time>2020-06-23T12:19:44Z</time>
      </trkpt>
      <trkpt lat="51.07935" lon="2.51291">
        <ele>6.2</ele>
        <time>2020-06-23T12:19:45Z</time>
      </trkpt>
      <trkpt lat="51.07932" lon="2.51291">
        <ele>6.4</ele>
        <time>2020-06-23T12:20:29Z</time>
      </trkpt>
      <trkpt lat="51.07931" lon="2.51293">
        <ele>6.6</ele>
        <time>2020-06-23T12:20:30Z</time>
      </trkpt>
      <trkpt lat="51.07931" lon="2.51293">
        <ele>6.6</ele>
        <time>2020-06-23T12:20:31Z</time>
      </trkpt>
      <trkpt lat="51.07931" lon="2.51294">
        <ele>6.6</ele>
        <time>2020-06-23T12:20:32Z</time>
      </trkpt>
      <trkpt lat="51.07932" lon="2.51294">
        <ele>6.4</ele>
        <time>2020-06-23T12:20:33Z</time>
      </trkpt>
      <trkpt lat="51.07932" lon="2.51295">
        <ele>6.4</ele>
        <time>2020-06-23T12:20:34Z</time>
      </trkpt>
      <trkpt lat="51.07933" lon="2.51295">
        <ele>6.5</ele>
        <time>2020-06-23T12:20:35Z</time>
      </trkpt>
      <trkpt lat="51.07933" lon="2.51295">
        <ele>6.5</ele>
        <time>2020-06-23T12:20:36Z</time>
      </trkpt>
      <trkpt lat="51.07933" lon="2.51295">
        <ele>6.5</ele>
        <time>2020-06-23T12:20:37Z</time>
      </trkpt>
      <trkpt lat="51.07933" lon="2.51295">
        <ele>6.4</ele>
        <time>2020-06-23T12:20:38Z</time>
      </trkpt>
      <trkpt lat="51.07933" lon="2.51295">
        <ele>6.4</ele>
        <time>2020-06-23T12:20:39Z</time>
      </trkpt>
      <trkpt lat="51.07933" lon="2.51294">
        <ele>6.4</ele>
        <time>2020-06-23T12:20:40Z</time>
      </trkpt>
      <trkpt lat="51.07932" lon="2.51294">
        <ele>6.4</ele>
        <time>2020-06-23T12:20:41Z</time>
      </trkpt>
      <trkpt lat="51.07932" lon="2.51294">
        <ele>6.4</ele>
        <time>2020-06-23T12:20:42Z</time>
      </trkpt>
      <trkpt lat="51.07933" lon="2.51294">
        <ele>6.4</ele>
        <time>2020-06-23T12:20:43Z</time>
      </trkpt>
      <trkpt lat="51.07932" lon="2.51294">
        <ele>6.4</ele>
        <time>2020-06-23T12:20:44Z</time>
      </trkpt>
      <trkpt lat="51.07932" lon="2.51293">
        <ele>6.6</ele>
        <time>2020-06-23T12:20:45Z</time>
      </trkpt>
      <trkpt lat="51.07932" lon="2.513">
        <ele>6.8</ele>
        <time>2020-06-23T12:20:58Z</time>
      </trkpt>
      <trkpt lat="51.07932" lon="2.51301">
        <ele>6.7</ele>
        <time>2020-06-23T12:20:59Z</time>
      </trkpt>
      <trkpt lat="51.07933" lon="2.51302">
        <ele>6.7</ele>
        <time>2020-06-23T12:21:00Z</time>
      </trkpt>
      <trkpt lat="51.07933" lon="2.51302">
        <ele>6.7</ele>
        <time>2020-06-23T12:21:01Z</time>
      </trkpt>
      <trkpt lat="51.07933" lon="2.51302">
        <ele>6.7</ele>
        <time>2020-06-23T12:21:02Z</time>
      </trkpt>
      <trkpt lat="51.07933" lon="2.51301">
        <ele>6.6</ele>
        <time>2020-06-23T12:21:03Z</time>
      </trkpt>
      <trkpt lat="51.07933" lon="2.51301">
        <ele>6.6</ele>
        <time>2020-06-23T12:21:04Z</time>
      </trkpt>
      <trkpt lat="51.07934" lon="2.51302">
        <ele>6.6</ele>
        <time>2020-06-23T12:21:05Z</time>
      </trkpt>
      <trkpt lat="51.07935" lon="2.51303">
        <ele>6.3</ele>
        <time>2020-06-23T12:21:06Z</time>
      </trkpt>
      <trkpt lat="51.07936" lon="2.51303">
        <ele>6.3</ele>
        <time>2020-06-23T12:21:07Z</time>
      </trkpt>
      <trkpt lat="51.07937" lon="2.51302">
        <ele>6.3</ele>
        <time>2020-06-23T12:21:08Z</time>
      </trkpt>
      <trkpt lat="51.07937" lon="2.51302">
        <ele>6.1</ele>
        <time>2020-06-23T12:21:09Z</time>
      </trkpt>
      <trkpt lat="51.07937" lon="2.51302">
        <ele>6.1</ele>
        <time>2020-06-23T12:21:10Z</time>
      </trkpt>
      <trkpt lat="51.07938" lon="2.51301">
        <ele>6.1</ele>
        <time>2020-06-23T12:21:11Z</time>
      </trkpt>
      <trkpt lat="51.07938" lon="2.513">
        <ele>6</ele>
        <time>2020-06-23T12:21:12Z</time>
      </trkpt>
      <trkpt lat="51.07936" lon="2.51298">
        <ele>6</ele>
        <time>2020-06-23T12:21:13Z</time>
      </trkpt>
      <trkpt lat="51.07934" lon="2.51294">
        <ele>5.9</ele>
        <time>2020-06-23T12:21:14Z</time>
      </trkpt>
      <trkpt lat="51.07934" lon="2.51292">
        <ele>5.9</ele>
        <time>2020-06-23T12:21:15Z</time>
      </trkpt>
      <trkpt lat="51.07934" lon="2.51286">
        <ele>5.7</ele>
        <time>2020-06-23T12:21:16Z</time>
      </trkpt>
      <trkpt lat="51.07933" lon="2.51283">
        <ele>5.7</ele>
        <time>2020-06-23T12:21:17Z</time>
      </trkpt>
      <trkpt lat="51.07932" lon="2.51277">
        <ele>5.6</ele>
        <time>2020-06-23T12:21:18Z</time>
      </trkpt>
      <trkpt lat="51.07929" lon="2.51272">
        <ele>5.4</ele>
        <time>2020-06-23T12:21:19Z</time>
      </trkpt>
      <trkpt lat="51.07929" lon="2.51267">
        <ele>5.4</ele>
        <time>2020-06-23T12:21:20Z</time>
      </trkpt>
      <trkpt lat="51.07929" lon="2.51265">
        <ele>5.3</ele>
        <time>2020-06-23T12:21:21Z</time>
      </trkpt>
      <trkpt lat="51.07929" lon="2.51263">
        <ele>5.2</ele>
        <time>2020-06-23T12:21:22Z</time>
      </trkpt>
      <trkpt lat="51.07929" lon="2.51258">
        <ele>5.1</ele>
        <time>2020-06-23T12:21:23Z</time>
      </trkpt>
      <trkpt lat="51.07931" lon="2.51255">
        <ele>4.9</ele>
        <time>2020-06-23T12:21:24Z</time>
      </trkpt>
      <trkpt lat="51.0793" lon="2.51253">
        <ele>4.9</ele>
        <time>2020-06-23T12:21:25Z</time>
      </trkpt>
      <trkpt lat="51.07931" lon="2.51249">
        <ele>4.8</ele>
        <time>2020-06-23T12:21:26Z</time>
      </trkpt>
      <trkpt lat="51.07931" lon="2.51248">
        <ele>4.7</ele>
        <time>2020-06-23T12:21:27Z</time>
      </trkpt>
      <trkpt lat="51.07931" lon="2.51246">
        <ele>4.7</ele>
        <time>2020-06-23T12:21:28Z</time>
      </trkpt>
      <trkpt lat="51.0793" lon="2.51245">
        <ele>4.7</ele>
        <time>2020-06-23T12:21:29Z</time>
      </trkpt>
      <trkpt lat="51.0793" lon="2.51245">
        <ele>4.7</ele>
        <time>2020-06-23T12:21:30Z</time>
      </trkpt>
      <trkpt lat="51.0793" lon="2.51244">
        <ele>4.6</ele>
        <time>2020-06-23T12:21:31Z</time>
      </trkpt>
      <trkpt lat="51.0793" lon="2.51243">
        <ele>4.5</ele>
        <time>2020-06-23T12:21:32Z</time>
      </trkpt>
      <trkpt lat="51.0793" lon="2.51243">
        <ele>4.5</ele>
        <time>2020-06-23T12:21:33Z</time>
      </trkpt>
      <trkpt lat="51.0793" lon="2.51243">
        <ele>4.5</ele>
        <time>2020-06-23T12:21:34Z</time>
      </trkpt>
      <trkpt lat="51.0793" lon="2.51244">
        <ele>4.6</ele>
        <time>2020-06-23T12:21:35Z</time>
      </trkpt>
      <trkpt lat="51.0793" lon="2.51245">
        <ele>4.5</ele>
        <time>2020-06-23T12:21:36Z</time>
      </trkpt>
      <trkpt lat="51.07929" lon="2.51247">
        <ele>4.5</ele>
        <time>2020-06-23T12:21:37Z</time>
      </trkpt>
      <trkpt lat="51.07929" lon="2.51249">
        <ele>4.6</ele>
        <time>2020-06-23T12:21:38Z</time>
      </trkpt>
      <trkpt lat="51.07929" lon="2.51251">
        <ele>4.6</ele>
        <time>2020-06-23T12:21:39Z</time>
      </trkpt>
      <trkpt lat="51.07928" lon="2.51252">
        <ele>4.6</ele>
        <time>2020-06-23T12:21:40Z</time>
      </trkpt>
      <trkpt lat="51.07928" lon="2.51253">
        <ele>4.6</ele>
        <time>2020-06-23T12:21:41Z</time>
      </trkpt>
      <trkpt lat="51.07928" lon="2.51254">
        <ele>4.6</ele>
        <time>2020-06-23T12:21:42Z</time>
      </trkpt>
      <trkpt lat="51.07929" lon="2.51254">
        <ele>4.5</ele>
        <time>2020-06-23T12:21:43Z</time>
      </trkpt>
      <trkpt lat="51.0793" lon="2.51257">
        <ele>4.5</ele>
        <time>2020-06-23T12:21:44Z</time>
      </trkpt>
      <trkpt lat="51.0793" lon="2.51259">
        <ele>4.5</ele>
        <time>2020-06-23T12:21:45Z</time>
      </trkpt>
      <trkpt lat="51.0793" lon="2.51261">
        <ele>4.5</ele>
        <time>2020-06-23T12:21:46Z</time>
      </trkpt>
      <trkpt lat="51.0793" lon="2.51261">
        <ele>4.5</ele>
        <time>2020-06-23T12:21:47Z</time>
      </trkpt>
      <trkpt lat="51.0793" lon="2.51262">
        <ele>4.5</ele>
        <time>2020-06-23T12:21:48Z</time>
      </trkpt>
      <trkpt lat="51.0793" lon="2.51263">
        <ele>4.5</ele>
        <time>2020-06-23T12:21:49Z</time>
      </trkpt>
      <trkpt lat="51.07929" lon="2.51263">
        <ele>4.4</ele>
        <time>2020-06-23T12:21:50Z</time>
      </trkpt>
      <trkpt lat="51.07929" lon="2.51263">
        <ele>4.4</ele>
        <time>2020-06-23T12:21:51Z</time>
      </trkpt>
      <trkpt lat="51.07929" lon="2.51263">
        <ele>4.4</ele>
        <time>2020-06-23T12:21:52Z</time>
      </trkpt>
      <trkpt lat="51.07929" lon="2.51263">
        <ele>4.3</ele>
        <time>2020-06-23T12:21:53Z</time>
      </trkpt>
      <trkpt lat="51.07929" lon="2.51263">
        <ele>4.3</ele>
        <time>2020-06-23T12:21:54Z</time>
      </trkpt>
      <trkpt lat="51.07929" lon="2.51263">
        <ele>4.3</ele>
        <time>2020-06-23T12:21:55Z</time>
      </trkpt>
      <trkpt lat="51.07929" lon="2.51265">
        <ele>4.3</ele>
        <time>2020-06-23T12:21:56Z</time>
      </trkpt>
      <trkpt lat="51.07928" lon="2.51267">
        <ele>4.3</ele>
        <time>2020-06-23T12:21:57Z</time>
      </trkpt>
      <trkpt lat="51.07928" lon="2.51267">
        <ele>4.3</ele>
        <time>2020-06-23T12:21:58Z</time>
      </trkpt>
      <trkpt lat="51.07928" lon="2.51268">
        <ele>4.3</ele>
        <time>2020-06-23T12:21:59Z</time>
      </trkpt>
      <trkpt lat="51.07928" lon="2.51268">
        <ele>4.2</ele>
        <time>2020-06-23T12:22:00Z</time>
      </trkpt>
      <trkpt lat="51.07928" lon="2.51268">
        <ele>4.2</ele>
        <time>2020-06-23T12:22:01Z</time>
      </trkpt>
      <trkpt lat="51.07928" lon="2.51268">
        <ele>4.2</ele>
        <time>2020-06-23T12:22:02Z</time>
      </trkpt>
      <trkpt lat="51.07927" lon="2.51268">
        <ele>4.2</ele>
        <time>2020-06-23T12:22:03Z</time>
      </trkpt>
      <trkpt lat="51.07927" lon="2.51267">
        <ele>4.1</ele>
        <time>2020-06-23T12:22:04Z</time>
      </trkpt>
      <trkpt lat="51.07926" lon="2.51267">
        <ele>4.1</ele>
        <time>2020-06-23T12:22:05Z</time>
      </trkpt>
      <trkpt lat="51.07926" lon="2.51267">
        <ele>4.1</ele>
        <time>2020-06-23T12:22:06Z</time>
      </trkpt>
      <trkpt lat="51.07926" lon="2.51266">
        <ele>4.1</ele>
        <time>2020-06-23T12:22:07Z</time>
      </trkpt>
      <trkpt lat="51.07926" lon="2.51266">
        <ele>4</ele>
        <time>2020-06-23T12:22:08Z</time>
      </trkpt>
      <trkpt lat="51.07926" lon="2.51268">
        <ele>4.1</ele>
        <time>2020-06-23T12:22:09Z</time>
      </trkpt>
      <trkpt lat="51.07926" lon="2.51269">
        <ele>4</ele>
        <time>2020-06-23T12:22:10Z</time>
      </trkpt>
      <trkpt lat="51.07926" lon="2.51269">
        <ele>4</ele>
        <time>2020-06-23T12:22:11Z</time>
      </trkpt>
      <trkpt lat="51.07924" lon="2.51276">
        <ele>4</ele>
        <time>2020-06-23T12:22:27Z</time>
      </trkpt>
      <trkpt lat="51.07924" lon="2.51277">
        <ele>4</ele>
        <time>2020-06-23T12:22:28Z</time>
      </trkpt>
      <trkpt lat="51.07923" lon="2.51278">
        <ele>4</ele>
        <time>2020-06-23T12:22:29Z</time>
      </trkpt>
      <trkpt lat="51.07922" lon="2.51278">
        <ele>4</ele>
        <time>2020-06-23T12:22:30Z</time>
      </trkpt>
      <trkpt lat="51.07922" lon="2.51279">
        <ele>4</ele>
        <time>2020-06-23T12:22:31Z</time>
      </trkpt>
      <trkpt lat="51.07921" lon="2.51279">
        <ele>4</ele>
        <time>2020-06-23T12:22:32Z</time>
      </trkpt>
      <trkpt lat="51.0792" lon="2.51279">
        <ele>3.9</ele>
        <time>2020-06-23T12:22:33Z</time>
      </trkpt>
      <trkpt lat="51.0792" lon="2.5128">
        <ele>3.9</ele>
        <time>2020-06-23T12:22:34Z</time>
      </trkpt>
      <trkpt lat="51.07919" lon="2.5128">
        <ele>3.9</ele>
        <time>2020-06-23T12:22:35Z</time>
      </trkpt>
      <trkpt lat="51.07919" lon="2.5128">
        <ele>3.8</ele>
        <time>2020-06-23T12:22:36Z</time>
      </trkpt>
      <trkpt lat="51.0792" lon="2.5128">
        <ele>3.8</ele>
        <time>2020-06-23T12:22:37Z</time>
      </trkpt>
      <trkpt lat="51.0792" lon="2.5128">
        <ele>3.7</ele>
        <time>2020-06-23T12:22:38Z</time>
      </trkpt>
      <trkpt lat="51.07921" lon="2.5128">
        <ele>3.7</ele>
        <time>2020-06-23T12:22:39Z</time>
      </trkpt>
      <trkpt lat="51.07921" lon="2.51281">
        <ele>3.7</ele>
        <time>2020-06-23T12:22:40Z</time>
      </trkpt>
      <trkpt lat="51.07922" lon="2.5128">
        <ele>3.6</ele>
        <time>2020-06-23T12:22:41Z</time>
      </trkpt>
      <trkpt lat="51.07922" lon="2.5128">
        <ele>3.6</ele>
        <time>2020-06-23T12:22:42Z</time>
      </trkpt>
      <trkpt lat="51.07922" lon="2.5128">
        <ele>3.6</ele>
        <time>2020-06-23T12:22:43Z</time>
      </trkpt>
      <trkpt lat="51.07925" lon="2.51279">
        <ele>3.5</ele>
        <time>2020-06-23T12:24:28Z</time>
      </trkpt>
      <trkpt lat="51.07925" lon="2.51279">
        <ele>3.5</ele>
        <time>2020-06-23T12:24:29Z</time>
      </trkpt>
      <trkpt lat="51.07924" lon="2.51279">
        <ele>3.4</ele>
        <time>2020-06-23T12:24:30Z</time>
      </trkpt>
      <trkpt lat="51.07924" lon="2.5128">
        <ele>3.4</ele>
        <time>2020-06-23T12:24:31Z</time>
      </trkpt>
      <trkpt lat="51.07924" lon="2.5128">
        <ele>3.4</ele>
        <time>2020-06-23T12:24:32Z</time>
      </trkpt>
      <trkpt lat="51.07925" lon="2.5128">
        <ele>3.3</ele>
        <time>2020-06-23T12:24:33Z</time>
      </trkpt>
      <trkpt lat="51.07924" lon="2.5128">
        <ele>3.3</ele>
        <time>2020-06-23T12:24:34Z</time>
      </trkpt>
      <trkpt lat="51.07924" lon="2.51281">
        <ele>3.3</ele>
        <time>2020-06-23T12:24:35Z</time>
      </trkpt>
      <trkpt lat="51.07923" lon="2.51281">
        <ele>3.2</ele>
        <time>2020-06-23T12:24:36Z</time>
      </trkpt>
      <trkpt lat="51.07923" lon="2.51282">
        <ele>3.2</ele>
        <time>2020-06-23T12:24:37Z</time>
      </trkpt>
      <trkpt lat="51.07922" lon="2.51282">
        <ele>3.2</ele>
        <time>2020-06-23T12:24:38Z</time>
      </trkpt>
      <trkpt lat="51.07922" lon="2.51282">
        <ele>3.1</ele>
        <time>2020-06-23T12:24:39Z</time>
      </trkpt>
      <trkpt lat="51.07922" lon="2.51282">
        <ele>3.1</ele>
        <time>2020-06-23T12:24:40Z</time>
      </trkpt>
      <trkpt lat="51.07922" lon="2.51282">
        <ele>3.1</ele>
        <time>2020-06-23T12:24:41Z</time>
      </trkpt>
      <trkpt lat="51.07922" lon="2.51282">
        <ele>3.1</ele>
        <time>2020-06-23T12:24:42Z</time>
      </trkpt>
      <trkpt lat="51.07922" lon="2.51282">
        <ele>3.1</ele>
        <time>2020-06-23T12:24:43Z</time>
      </trkpt>
      <trkpt lat="51.07925" lon="2.51279">
        <ele>3.1</ele>
        <time>2020-06-23T12:26:45Z</time>
      </trkpt>
      <trkpt lat="51.07925" lon="2.51279">
        <ele>3.1</ele>
        <time>2020-06-23T12:26:46Z</time>
      </trkpt>
      <trkpt lat="51.07926" lon="2.51279">
        <ele>3.1</ele>
        <time>2020-06-23T12:26:47Z</time>
      </trkpt>
      <trkpt lat="51.07926" lon="2.51279">
        <ele>3.1</ele>
        <time>2020-06-23T12:26:48Z</time>
      </trkpt>
      <trkpt lat="51.07926" lon="2.51279">
        <ele>3.1</ele>
        <time>2020-06-23T12:26:49Z</time>
      </trkpt>
      <trkpt lat="51.07925" lon="2.51279">
        <ele>3.1</ele>
        <time>2020-06-23T12:26:50Z</time>
      </trkpt>
      <trkpt lat="51.07925" lon="2.51279">
        <ele>3.1</ele>
        <time>2020-06-23T12:26:51Z</time>
      </trkpt>
      <trkpt lat="51.07925" lon="2.51279">
        <ele>3.1</ele>
        <time>2020-06-23T12:26:52Z</time>
      </trkpt>
      <trkpt lat="51.07925" lon="2.51281">
        <ele>3.1</ele>
        <time>2020-06-23T12:26:53Z</time>
      </trkpt>
      <trkpt lat="51.07926" lon="2.51283">
        <ele>3.1</ele>
        <time>2020-06-23T12:26:54Z</time>
      </trkpt>
      <trkpt lat="51.07926" lon="2.51285">
        <ele>3.1</ele>
        <time>2020-06-23T12:26:55Z</time>
      </trkpt>
      <trkpt lat="51.07926" lon="2.51287">
        <ele>3.1</ele>
        <time>2020-06-23T12:26:56Z</time>
      </trkpt>
      <trkpt lat="51.07926" lon="2.51288">
        <ele>3.1</ele>
        <time>2020-06-23T12:26:57Z</time>
      </trkpt>
      <trkpt lat="51.07926" lon="2.51288">
        <ele>3.1</ele>
        <time>2020-06-23T12:26:58Z</time>
      </trkpt>
      <trkpt lat="51.07926" lon="2.51288">
        <ele>3.1</ele>
        <time>2020-06-23T12:26:59Z</time>
      </trkpt>
      <trkpt lat="51.07925" lon="2.51287">
        <ele>3.1</ele>
        <time>2020-06-23T12:27:00Z</time>
      </trkpt>
      <trkpt lat="51.07925" lon="2.51288">
        <ele>3.1</ele>
        <time>2020-06-23T12:27:01Z</time>
      </trkpt>
      <trkpt lat="51.07925" lon="2.51288">
        <ele>3.1</ele>
        <time>2020-06-23T12:27:02Z</time>
      </trkpt>
      <trkpt lat="51.07925" lon="2.51288">
        <ele>3.1</ele>
        <time>2020-06-23T12:27:03Z</time>
      </trkpt>
      <trkpt lat="51.07924" lon="2.51288">
        <ele>3.1</ele>
        <time>2020-06-23T12:27:04Z</time>
      </trkpt>
      <trkpt lat="51.07924" lon="2.51288">
        <ele>3.1</ele>
        <time>2020-06-23T12:27:05Z</time>
      </trkpt>
      <trkpt lat="51.07924" lon="2.51288">
        <ele>3.1</ele>
        <time>2020-06-23T12:27:06Z</time>
      </trkpt>
      <trkpt lat="51.07924" lon="2.51288">
        <ele>3.1</ele>
        <time>2020-06-23T12:27:07Z</time>
      </trkpt>
      <trkpt lat="51.07924" lon="2.51288">
        <ele>3.1</ele>
        <time>2020-06-23T12:27:08Z</time>
      </trkpt>
      <trkpt lat="51.07918" lon="2.51278">
        <ele>3.1</ele>
        <time>2020-06-23T12:29:05Z</time>
      </trkpt>
      <trkpt lat="51.07919" lon="2.51277">
        <ele>3.1</ele>
        <time>2020-06-23T12:29:06Z</time>
      </trkpt>
      <trkpt lat="51.0792" lon="2.51277">
        <ele>3.1</ele>
        <time>2020-06-23T12:29:07Z</time>
      </trkpt>
      <trkpt lat="51.0792" lon="2.51277">
        <ele>3.1</ele>
        <time>2020-06-23T12:29:08Z</time>
      </trkpt>
      <trkpt lat="51.07921" lon="2.51276">
        <ele>3.1</ele>
        <time>2020-06-23T12:29:09Z</time>
      </trkpt>
      <trkpt lat="51.07921" lon="2.51276">
        <ele>3.1</ele>
        <time>2020-06-23T12:29:10Z</time>
      </trkpt>
      <trkpt lat="51.07921" lon="2.51276">
        <ele>3.1</ele>
        <time>2020-06-23T12:29:11Z</time>
      </trkpt>
      <trkpt lat="51.07921" lon="2.51276">
        <ele>3.1</ele>
        <time>2020-06-23T12:29:12Z</time>
      </trkpt>
      <trkpt lat="51.07921" lon="2.51276">
        <ele>3.1</ele>
        <time>2020-06-23T12:29:13Z</time>
      </trkpt>
      <trkpt lat="51.07921" lon="2.51277">
        <ele>3.1</ele>
        <time>2020-06-23T12:29:14Z</time>
      </trkpt>
      <trkpt lat="51.07921" lon="2.51276">
        <ele>3.1</ele>
        <time>2020-06-23T12:29:15Z</time>
      </trkpt>
      <trkpt lat="51.07921" lon="2.51276">
        <ele>3.1</ele>
        <time>2020-06-23T12:29:16Z</time>
      </trkpt>
      <trkpt lat="51.07921" lon="2.51276">
        <ele>3.1</ele>
        <time>2020-06-23T12:29:17Z</time>
      </trkpt>
      <trkpt lat="51.07921" lon="2.51276">
        <ele>3.1</ele>
        <time>2020-06-23T12:29:18Z</time>
      </trkpt>
      <trkpt lat="51.07921" lon="2.51276">
        <ele>3.1</ele>
        <time>2020-06-23T12:29:19Z</time>
      </trkpt>
      <trkpt lat="51.0792" lon="2.51277">
        <ele>3.1</ele>
        <time>2020-06-23T12:29:20Z</time>
      </trkpt>
      <trkpt lat="51.07921" lon="2.51277">
        <ele>3.1</ele>
        <time>2020-06-23T12:29:21Z</time>
      </trkpt>
      <trkpt lat="51.07921" lon="2.51278">
        <ele>3.1</ele>
        <time>2020-06-23T12:29:22Z</time>
      </trkpt>
      <trkpt lat="51.07921" lon="2.51278">
        <ele>3.1</ele>
        <time>2020-06-23T12:29:23Z</time>
      </trkpt>
      <trkpt lat="51.07921" lon="2.51278">
        <ele>3.1</ele>
        <time>2020-06-23T12:29:24Z</time>
      </trkpt>
      <trkpt lat="51.07922" lon="2.51279">
        <ele>3.1</ele>
        <time>2020-06-23T12:29:25Z</time>
      </trkpt>
      <trkpt lat="51.07919" lon="2.51279">
        <ele>3.1</ele>
        <time>2020-06-23T12:30:18Z</time>
      </trkpt>
      <trkpt lat="51.07918" lon="2.51279">
        <ele>3.1</ele>
        <time>2020-06-23T12:30:19Z</time>
      </trkpt>
      <trkpt lat="51.07918" lon="2.51279">
        <ele>3.1</ele>
        <time>2020-06-23T12:30:20Z</time>
      </trkpt>
      <trkpt lat="51.07918" lon="2.51279">
        <ele>3.1</ele>
        <time>2020-06-23T12:30:21Z</time>
      </trkpt>
      <trkpt lat="51.07917" lon="2.5128">
        <ele>3.1</ele>
        <time>2020-06-23T12:30:22Z</time>
      </trkpt>
      <trkpt lat="51.07918" lon="2.5128">
        <ele>3.1</ele>
        <time>2020-06-23T12:30:23Z</time>
      </trkpt>
      <trkpt lat="51.07918" lon="2.5128">
        <ele>3.1</ele>
        <time>2020-06-23T12:30:24Z</time>
      </trkpt>
      <trkpt lat="51.07918" lon="2.5128">
        <ele>3.1</ele>
        <time>2020-06-23T12:30:25Z</time>
      </trkpt>
      <trkpt lat="51.07918" lon="2.5128">
        <ele>3.1</ele>
        <time>2020-06-23T12:30:26Z</time>
      </trkpt>
      <trkpt lat="51.07918" lon="2.51281">
        <ele>3.1</ele>
        <time>2020-06-23T12:30:27Z</time>
      </trkpt>
      <trkpt lat="51.07919" lon="2.5128">
        <ele>3.1</ele>
        <time>2020-06-23T12:30:28Z</time>
      </trkpt>
      <trkpt lat="51.07919" lon="2.5128">
        <ele>3.1</ele>
        <time>2020-06-23T12:30:29Z</time>
      </trkpt>
      <trkpt lat="51.07919" lon="2.5128">
        <ele>3.1</ele>
        <time>2020-06-23T12:30:30Z</time>
      </trkpt>
      <trkpt lat="51.07919" lon="2.5128">
        <ele>3.1</ele>
        <time>2020-06-23T12:30:31Z</time>
      </trkpt>
      <trkpt lat="51.07918" lon="2.5128">
        <ele>3.1</ele>
        <time>2020-06-23T12:30:32Z</time>
      </trkpt>
      <trkpt lat="51.07918" lon="2.51275">
        <ele>3.1</ele>
        <time>2020-06-23T12:31:12Z</time>
      </trkpt>
      <trkpt lat="51.07917" lon="2.51274">
        <ele>3.1</ele>
        <time>2020-06-23T12:31:13Z</time>
      </trkpt>
      <trkpt lat="51.07917" lon="2.51274">
        <ele>3.1</ele>
        <time>2020-06-23T12:31:14Z</time>
      </trkpt>
      <trkpt lat="51.07917" lon="2.51274">
        <ele>3.1</ele>
        <time>2020-06-23T12:31:15Z</time>
      </trkpt>
      <trkpt lat="51.07917" lon="2.51274">
        <ele>3.1</ele>
        <time>2020-06-23T12:31:16Z</time>
      </trkpt>
      <trkpt lat="51.07917" lon="2.51275">
        <ele>3.1</ele>
        <time>2020-06-23T12:31:17Z</time>
      </trkpt>
      <trkpt lat="51.07917" lon="2.51275">
        <ele>3.1</ele>
        <time>2020-06-23T12:31:18Z</time>
      </trkpt>
      <trkpt lat="51.07916" lon="2.51275">
        <ele>3.1</ele>
        <time>2020-06-23T12:31:19Z</time>
      </trkpt>
      <trkpt lat="51.07915" lon="2.51276">
        <ele>3.1</ele>
        <time>2020-06-23T12:31:20Z</time>
      </trkpt>
      <trkpt lat="51.07914" lon="2.51276">
        <ele>3.1</ele>
        <time>2020-06-23T12:31:21Z</time>
      </trkpt>
      <trkpt lat="51.07914" lon="2.51276">
        <ele>3.1</ele>
        <time>2020-06-23T12:31:22Z</time>
      </trkpt>
      <trkpt lat="51.07913" lon="2.51276">
        <ele>3.1</ele>
        <time>2020-06-23T12:31:23Z</time>
      </trkpt>
      <trkpt lat="51.07913" lon="2.51276">
        <ele>3.1</ele>
        <time>2020-06-23T12:31:24Z</time>
      </trkpt>
      <trkpt lat="51.07913" lon="2.51276">
        <ele>3.1</ele>
        <time>2020-06-23T12:31:25Z</time>
      </trkpt>
      <trkpt lat="51.07912" lon="2.51276">
        <ele>3.1</ele>
        <time>2020-06-23T12:31:26Z</time>
      </trkpt>
      <trkpt lat="51.07913" lon="2.51277">
        <ele>3.1</ele>
        <time>2020-06-23T12:31:27Z</time>
      </trkpt>
      <trkpt lat="51.07912" lon="2.5128">
        <ele>3.1</ele>
        <time>2020-06-23T12:31:28Z</time>
      </trkpt>
      <trkpt lat="51.07913" lon="2.5128">
        <ele>3.1</ele>
        <time>2020-06-23T12:31:29Z</time>
      </trkpt>
      <trkpt lat="51.07913" lon="2.51281">
        <ele>3.1</ele>
        <time>2020-06-23T12:31:30Z</time>
      </trkpt>
      <trkpt lat="51.07913" lon="2.51283">
        <ele>3.1</ele>
        <time>2020-06-23T12:31:31Z</time>
      </trkpt>
      <trkpt lat="51.07913" lon="2.51284">
        <ele>3.1</ele>
        <time>2020-06-23T12:31:32Z</time>
      </trkpt>
      <trkpt lat="51.07913" lon="2.51286">
        <ele>3.1</ele>
        <time>2020-06-23T12:31:33Z</time>
      </trkpt>
      <trkpt lat="51.07914" lon="2.51287">
        <ele>3.1</ele>
        <time>2020-06-23T12:31:34Z</time>
      </trkpt>
      <trkpt lat="51.07914" lon="2.51288">
        <ele>3.1</ele>
        <time>2020-06-23T12:31:35Z</time>
      </trkpt>
      <trkpt lat="51.07914" lon="2.51288">
        <ele>3.1</ele>
        <time>2020-06-23T12:31:36Z</time>
      </trkpt>
      <trkpt lat="51.07913" lon="2.51289">
        <ele>3.1</ele>
        <time>2020-06-23T12:31:37Z</time>
      </trkpt>
      <trkpt lat="51.07913" lon="2.51289">
        <ele>3.1</ele>
        <time>2020-06-23T12:31:38Z</time>
      </trkpt>
      <trkpt lat="51.07913" lon="2.5129">
        <ele>3.1</ele>
        <time>2020-06-23T12:31:39Z</time>
      </trkpt>
      <trkpt lat="51.07914" lon="2.5129">
        <ele>3.1</ele>
        <time>2020-06-23T12:31:40Z</time>
      </trkpt>
      <trkpt lat="51.07914" lon="2.5129">
        <ele>3.1</ele>
        <time>2020-06-23T12:31:41Z</time>
      </trkpt>
      <trkpt lat="51.07915" lon="2.5129">
        <ele>3.1</ele>
        <time>2020-06-23T12:31:42Z</time>
      </trkpt>
      <trkpt lat="51.07916" lon="2.5129">
        <ele>3.1</ele>
        <time>2020-06-23T12:31:43Z</time>
      </trkpt>
      <trkpt lat="51.07916" lon="2.5129">
        <ele>3.1</ele>
        <time>2020-06-23T12:31:44Z</time>
      </trkpt>
      <trkpt lat="51.07916" lon="2.5129">
        <ele>3.1</ele>
        <time>2020-06-23T12:31:45Z</time>
      </trkpt>
      <trkpt lat="51.07913" lon="2.51287">
        <ele>3.1</ele>
        <time>2020-06-23T12:31:59Z</time>
      </trkpt>
      <trkpt lat="51.07913" lon="2.51287">
        <ele>3.1</ele>
        <time>2020-06-23T12:32:00Z</time>
      </trkpt>
      <trkpt lat="51.07913" lon="2.51287">
        <ele>3.1</ele>
        <time>2020-06-23T12:32:01Z</time>
      </trkpt>
      <trkpt lat="51.07913" lon="2.51287">
        <ele>3.1</ele>
        <time>2020-06-23T12:32:02Z</time>
      </trkpt>
      <trkpt lat="51.07912" lon="2.51287">
        <ele>3.1</ele>
        <time>2020-06-23T12:32:03Z</time>
      </trkpt>
      <trkpt lat="51.07912" lon="2.51288">
        <ele>3.1</ele>
        <time>2020-06-23T12:32:04Z</time>
      </trkpt>
      <trkpt lat="51.07911" lon="2.51288">
        <ele>3.1</ele>
        <time>2020-06-23T12:32:05Z</time>
      </trkpt>
      <trkpt lat="51.07911" lon="2.51288">
        <ele>3.1</ele>
        <time>2020-06-23T12:32:06Z</time>
      </trkpt>
      <trkpt lat="51.07911" lon="2.51287">
        <ele>3.1</ele>
        <time>2020-06-23T12:32:07Z</time>
      </trkpt>
      <trkpt lat="51.07911" lon="2.51288">
        <ele>3.1</ele>
        <time>2020-06-23T12:32:08Z</time>
      </trkpt>
      <trkpt lat="51.07911" lon="2.51288">
        <ele>3.1</ele>
        <time>2020-06-23T12:32:09Z</time>
      </trkpt>
      <trkpt lat="51.07912" lon="2.51287">
        <ele>3.1</ele>
        <time>2020-06-23T12:32:10Z</time>
      </trkpt>
      <trkpt lat="51.07911" lon="2.51287">
        <ele>3.1</ele>
        <time>2020-06-23T12:32:11Z</time>
      </trkpt>
      <trkpt lat="51.07912" lon="2.51287">
        <ele>3.1</ele>
        <time>2020-06-23T12:32:12Z</time>
      </trkpt>
      <trkpt lat="51.07914" lon="2.51287">
        <ele>3.1</ele>
        <time>2020-06-23T12:32:13Z</time>
      </trkpt>
      <trkpt lat="51.07914" lon="2.51286">
        <ele>3.1</ele>
        <time>2020-06-23T12:32:14Z</time>
      </trkpt>
      <trkpt lat="51.07914" lon="2.51286">
        <ele>3.1</ele>
        <time>2020-06-23T12:32:15Z</time>
      </trkpt>
      <trkpt lat="51.07914" lon="2.51286">
        <ele>3.1</ele>
        <time>2020-06-23T12:32:16Z</time>
      </trkpt>
      <trkpt lat="51.07914" lon="2.51286">
        <ele>3.1</ele>
        <time>2020-06-23T12:32:17Z</time>
      </trkpt>
      <trkpt lat="51.07913" lon="2.51286">
        <ele>3.1</ele>
        <time>2020-06-23T12:32:18Z</time>
      </trkpt>
      <trkpt lat="51.07913" lon="2.51286">
        <ele>3.1</ele>
        <time>2020-06-23T12:32:19Z</time>
      </trkpt>
      <trkpt lat="51.07912" lon="2.51285">
        <ele>3.1</ele>
        <time>2020-06-23T12:32:20Z</time>
      </trkpt>
      <trkpt lat="51.07911" lon="2.51286">
        <ele>3.1</ele>
        <time>2020-06-23T12:32:21Z</time>
      </trkpt>
      <trkpt lat="51.07912" lon="2.51286">
        <ele>3.1</ele>
        <time>2020-06-23T12:32:22Z</time>
      </trkpt>
      <trkpt lat="51.07912" lon="2.51286">
        <ele>3.1</ele>
        <time>2020-06-23T12:32:23Z</time>
      </trkpt>
      <trkpt lat="51.07912" lon="2.51286">
        <ele>3.1</ele>
        <time>2020-06-23T12:32:24Z</time>
      </trkpt>
      <trkpt lat="51.07912" lon="2.51286">
        <ele>3.1</ele>
        <time>2020-06-23T12:32:25Z</time>
      </trkpt>
      <trkpt lat="51.07912" lon="2.51286">
        <ele>3.1</ele>
        <time>2020-06-23T12:32:26Z</time>
      </trkpt>
      <trkpt lat="51.07912" lon="2.51286">
        <ele>3.1</ele>
        <time>2020-06-23T12:32:27Z</time>
      </trkpt>
      <trkpt lat="51.07912" lon="2.51286">
        <ele>3.1</ele>
        <time>2020-06-23T12:32:28Z</time>
      </trkpt>
      <trkpt lat="51.07912" lon="2.51286">
        <ele>3.1</ele>
        <time>2020-06-23T12:32:29Z</time>
      </trkpt>
      <trkpt lat="51.07912" lon="2.51286">
        <ele>3.1</ele>
        <time>2020-06-23T12:32:30Z</time>
      </trkpt>
      <trkpt lat="51.07912" lon="2.51286">
        <ele>3.1</ele>
        <time>2020-06-23T12:32:31Z</time>
      </trkpt>
      <trkpt lat="51.07912" lon="2.51286">
        <ele>3.1</ele>
        <time>2020-06-23T12:32:32Z</time>
      </trkpt>
      <trkpt lat="51.07917" lon="2.51281">
        <ele>3.1</ele>
        <time>2020-06-23T12:33:02Z</time>
      </trkpt>
      <trkpt lat="51.07918" lon="2.51283">
        <ele>3.1</ele>
        <time>2020-06-23T12:33:03Z</time>
      </trkpt>
      <trkpt lat="51.07918" lon="2.51283">
        <ele>3.1</ele>
        <time>2020-06-23T12:33:04Z</time>
      </trkpt>
      <trkpt lat="51.07918" lon="2.51283">
        <ele>3.1</ele>
        <time>2020-06-23T12:33:05Z</time>
      </trkpt>
      <trkpt lat="51.07918" lon="2.51283">
        <ele>3.1</ele>
        <time>2020-06-23T12:33:06Z</time>
      </trkpt>
      <trkpt lat="51.07918" lon="2.51282">
        <ele>3.1</ele>
        <time>2020-06-23T12:33:07Z</time>
      </trkpt>
      <trkpt lat="51.07918" lon="2.51281">
        <ele>3.1</ele>
        <time>2020-06-23T12:33:08Z</time>
      </trkpt>
      <trkpt lat="51.07917" lon="2.5128">
        <ele>3.1</ele>
        <time>2020-06-23T12:33:09Z</time>
      </trkpt>
      <trkpt lat="51.07917" lon="2.5128">
        <ele>3.1</ele>
        <time>2020-06-23T12:33:10Z</time>
      </trkpt>
      <trkpt lat="51.07917" lon="2.5128">
        <ele>3.1</ele>
        <time>2020-06-23T12:33:11Z</time>
      </trkpt>
      <trkpt lat="51.07917" lon="2.51281">
        <ele>3.1</ele>
        <time>2020-06-23T12:33:12Z</time>
      </trkpt>
      <trkpt lat="51.07917" lon="2.5128">
        <ele>3.1</ele>
        <time>2020-06-23T12:33:13Z</time>
      </trkpt>
      <trkpt lat="51.07917" lon="2.51281">
        <ele>3.1</ele>
        <time>2020-06-23T12:33:14Z</time>
      </trkpt>
      <trkpt lat="51.07917" lon="2.51281">
        <ele>3.1</ele>
        <time>2020-06-23T12:33:15Z</time>
      </trkpt>
      <trkpt lat="51.07928" lon="2.51279">
        <ele>3.1</ele>
        <time>2020-06-23T12:33:56Z</time>
      </trkpt>
      <trkpt lat="51.07928" lon="2.51279">
        <ele>3.1</ele>
        <time>2020-06-23T12:33:57Z</time>
      </trkpt>
      <trkpt lat="51.07927" lon="2.51279">
        <ele>3.1</ele>
        <time>2020-06-23T12:33:58Z</time>
      </trkpt>
      <trkpt lat="51.07927" lon="2.5128">
        <ele>3.1</ele>
        <time>2020-06-23T12:33:59Z</time>
      </trkpt>
      <trkpt lat="51.07927" lon="2.5128">
        <ele>3.1</ele>
        <time>2020-06-23T12:34:00Z</time>
      </trkpt>
      <trkpt lat="51.07927" lon="2.51279">
        <ele>3.1</ele>
        <time>2020-06-23T12:34:01Z</time>
      </trkpt>
      <trkpt lat="51.07928" lon="2.51279">
        <ele>3.1</ele>
        <time>2020-06-23T12:34:02Z</time>
      </trkpt>
      <trkpt lat="51.07928" lon="2.5128">
        <ele>3.1</ele>
        <time>2020-06-23T12:34:03Z</time>
      </trkpt>
      <trkpt lat="51.07928" lon="2.5128">
        <ele>3.1</ele>
        <time>2020-06-23T12:34:04Z</time>
      </trkpt>
      <trkpt lat="51.07928" lon="2.5128">
        <ele>3.1</ele>
        <time>2020-06-23T12:34:05Z</time>
      </trkpt>
      <trkpt lat="51.07928" lon="2.5128">
        <ele>3.1</ele>
        <time>2020-06-23T12:34:06Z</time>
      </trkpt>
      <trkpt lat="51.07928" lon="2.5128">
        <ele>3.1</ele>
        <time>2020-06-23T12:34:07Z</time>
      </trkpt>
      <trkpt lat="51.07928" lon="2.5128">
        <ele>3.1</ele>
        <time>2020-06-23T12:34:08Z</time>
      </trkpt>
      <trkpt lat="51.07922" lon="2.51276">
        <ele>3.1</ele>
        <time>2020-06-23T12:39:12Z</time>
      </trkpt>
      <trkpt lat="51.07923" lon="2.51275">
        <ele>3.1</ele>
        <time>2020-06-23T12:39:13Z</time>
      </trkpt>
      <trkpt lat="51.07923" lon="2.51275">
        <ele>3.1</ele>
        <time>2020-06-23T12:39:14Z</time>
      </trkpt>
      <trkpt lat="51.07923" lon="2.51275">
        <ele>3.1</ele>
        <time>2020-06-23T12:39:15Z</time>
      </trkpt>
      <trkpt lat="51.07924" lon="2.51275">
        <ele>3.1</ele>
        <time>2020-06-23T12:39:16Z</time>
      </trkpt>
      <trkpt lat="51.07924" lon="2.51275">
        <ele>3.1</ele>
        <time>2020-06-23T12:39:17Z</time>
      </trkpt>
      <trkpt lat="51.07925" lon="2.51275">
        <ele>3.1</ele>
        <time>2020-06-23T12:39:18Z</time>
      </trkpt>
      <trkpt lat="51.07925" lon="2.51275">
        <ele>3.1</ele>
        <time>2020-06-23T12:39:19Z</time>
      </trkpt>
      <trkpt lat="51.07925" lon="2.51275">
        <ele>3.1</ele>
        <time>2020-06-23T12:39:20Z</time>
      </trkpt>
      <trkpt lat="51.07925" lon="2.51275">
        <ele>3.1</ele>
        <time>2020-06-23T12:39:21Z</time>
      </trkpt>
      <trkpt lat="51.07925" lon="2.51275">
        <ele>3.1</ele>
        <time>2020-06-23T12:39:22Z</time>
      </trkpt>
      <trkpt lat="51.07925" lon="2.51275">
        <ele>3.1</ele>
        <time>2020-06-23T12:39:23Z</time>
      </trkpt>
      <trkpt lat="51.07925" lon="2.51275">
        <ele>3.1</ele>
        <time>2020-06-23T12:39:24Z</time>
      </trkpt>
      <trkpt lat="51.07925" lon="2.51275">
        <ele>3.1</ele>
        <time>2020-06-23T12:39:25Z</time>
      </trkpt>
      <trkpt lat="51.07925" lon="2.51275">
        <ele>3.1</ele>
        <time>2020-06-23T12:39:26Z</time>
      </trkpt>
      <trkpt lat="51.07925" lon="2.51275">
        <ele>3.1</ele>
        <time>2020-06-23T12:39:27Z</time>
      </trkpt>
      <trkpt lat="51.07925" lon="2.51275">
        <ele>3.1</ele>
        <time>2020-06-23T12:39:28Z</time>
      </trkpt>
      <trkpt lat="51.07924" lon="2.51275">
        <ele>3.1</ele>
        <time>2020-06-23T12:39:29Z</time>
      </trkpt>
      <trkpt lat="51.05758" lon="2.52442">
        <ele>1.8</ele>
        <time>2020-06-23T13:07:56Z</time>
      </trkpt>
      <trkpt lat="51.0575" lon="2.52443">
        <ele>1.8</ele>
        <time>2020-06-23T13:07:57Z</time>
      </trkpt>
      <trkpt lat="51.05747" lon="2.52444">
        <ele>1.8</ele>
        <time>2020-06-23T13:07:58Z</time>
      </trkpt>
      <trkpt lat="51.05742" lon="2.52444">
        <ele>1.9</ele>
        <time>2020-06-23T13:07:59Z</time>
      </trkpt>
      <trkpt lat="51.05737" lon="2.52445">
        <ele>1.9</ele>
        <time>2020-06-23T13:08:00Z</time>
      </trkpt>
      <trkpt lat="51.05732" lon="2.52445">
        <ele>1.9</ele>
        <time>2020-06-23T13:08:01Z</time>
      </trkpt>
      <trkpt lat="51.05727" lon="2.52445">
        <ele>1.9</ele>
        <time>2020-06-23T13:08:02Z</time>
      </trkpt>
      <trkpt lat="51.05723" lon="2.52446">
        <ele>1.9</ele>
        <time>2020-06-23T13:08:03Z</time>
      </trkpt>
      <trkpt lat="51.05719" lon="2.52446">
        <ele>2</ele>
        <time>2020-06-23T13:08:04Z</time>
      </trkpt>
      <trkpt lat="51.05715" lon="2.52445">
        <ele>2</ele>
        <time>2020-06-23T13:08:05Z</time>
      </trkpt>
      <trkpt lat="51.05711" lon="2.52445">
        <ele>2</ele>
        <time>2020-06-23T13:08:06Z</time>
      </trkpt>
      <trkpt lat="51.05706" lon="2.52445">
        <ele>2</ele>
        <time>2020-06-23T13:08:07Z</time>
      </trkpt>
      <trkpt lat="51.057" lon="2.52445">
        <ele>2.1</ele>
        <time>2020-06-23T13:08:08Z</time>
      </trkpt>
      <trkpt lat="51.05696" lon="2.52447">
        <ele>2.1</ele>
        <time>2020-06-23T13:08:09Z</time>
      </trkpt>
      <trkpt lat="51.05692" lon="2.52448">
        <ele>2.1</ele>
        <time>2020-06-23T13:08:10Z</time>
      </trkpt>
      <trkpt lat="51.05687" lon="2.52448">
        <ele>2.1</ele>
        <time>2020-06-23T13:08:11Z</time>
      </trkpt>
      <trkpt lat="51.05683" lon="2.52448">
        <ele>2.1</ele>
        <time>2020-06-23T13:08:12Z</time>
      </trkpt>
      <trkpt lat="51.05679" lon="2.52449">
        <ele>2.2</ele>
        <time>2020-06-23T13:08:13Z</time>
      </trkpt>
      <trkpt lat="51.05674" lon="2.52449">
        <ele>2.2</ele>
        <time>2020-06-23T13:08:14Z</time>
      </trkpt>
      <trkpt lat="51.05669" lon="2.52448">
        <ele>2.2</ele>
        <time>2020-06-23T13:08:15Z</time>
      </trkpt>
      <trkpt lat="51.05665" lon="2.52448">
        <ele>2.3</ele>
        <time>2020-06-23T13:08:16Z</time>
      </trkpt>
      <trkpt lat="51.05659" lon="2.52448">
        <ele>2.3</ele>
        <time>2020-06-23T13:08:17Z</time>
      </trkpt>
      <trkpt lat="51.05654" lon="2.52448">
        <ele>2.3</ele>
        <time>2020-06-23T13:08:18Z</time>
      </trkpt>
      <trkpt lat="51.05649" lon="2.52449">
        <ele>2.4</ele>
        <time>2020-06-23T13:08:19Z</time>
      </trkpt>
      <trkpt lat="51.05645" lon="2.52449">
        <ele>2.4</ele>
        <time>2020-06-23T13:08:20Z</time>
      </trkpt>
      <trkpt lat="51.0564" lon="2.5245">
        <ele>2.4</ele>
        <time>2020-06-23T13:08:21Z</time>
      </trkpt>
      <trkpt lat="51.05635" lon="2.52451">
        <ele>2.5</ele>
        <time>2020-06-23T13:08:22Z</time>
      </trkpt>
      <trkpt lat="51.05631" lon="2.52452">
        <ele>2.5</ele>
        <time>2020-06-23T13:08:23Z</time>
      </trkpt>
      <trkpt lat="51.05626" lon="2.52453">
        <ele>2.6</ele>
        <time>2020-06-23T13:08:24Z</time>
      </trkpt>
      <trkpt lat="51.0562" lon="2.52453">
        <ele>2.6</ele>
        <time>2020-06-23T13:08:25Z</time>
      </trkpt>
      <trkpt lat="51.05614" lon="2.52453">
        <ele>2.7</ele>
        <time>2020-06-23T13:08:26Z</time>
      </trkpt>
      <trkpt lat="51.05608" lon="2.52453">
        <ele>2.7</ele>
        <time>2020-06-23T13:08:27Z</time>
      </trkpt>
      <trkpt lat="51.05603" lon="2.52453">
        <ele>2.7</ele>
        <time>2020-06-23T13:08:28Z</time>
      </trkpt>
      <trkpt lat="51.05597" lon="2.52452">
        <ele>2.8</ele>
        <time>2020-06-23T13:08:29Z</time>
      </trkpt>
      <trkpt lat="51.05591" lon="2.52452">
        <ele>2.8</ele>
        <time>2020-06-23T13:08:30Z</time>
      </trkpt>
      <trkpt lat="51.05585" lon="2.52451">
        <ele>2.8</ele>
        <time>2020-06-23T13:08:31Z</time>
      </trkpt>
      <trkpt lat="51.0558" lon="2.5245">
        <ele>2.9</ele>
        <time>2020-06-23T13:08:32Z</time>
      </trkpt>
      <trkpt lat="51.05574" lon="2.52449">
        <ele>2.9</ele>
        <time>2020-06-23T13:08:33Z</time>
      </trkpt>
      <trkpt lat="51.05569" lon="2.52449">
        <ele>3</ele>
        <time>2020-06-23T13:08:34Z</time>
      </trkpt>
      <trkpt lat="51.05564" lon="2.52449">
        <ele>3</ele>
        <time>2020-06-23T13:08:35Z</time>
      </trkpt>
      <trkpt lat="51.0556" lon="2.5245">
        <ele>3</ele>
        <time>2020-06-23T13:08:36Z</time>
      </trkpt>
      <trkpt lat="51.05555" lon="2.52449">
        <ele>3</ele>
        <time>2020-06-23T13:08:37Z</time>
      </trkpt>
      <trkpt lat="51.0555" lon="2.52449">
        <ele>3</ele>
        <time>2020-06-23T13:08:38Z</time>
      </trkpt>
      <trkpt lat="51.05545" lon="2.52448">
        <ele>3</ele>
        <time>2020-06-23T13:08:39Z</time>
      </trkpt>
      <trkpt lat="51.0554" lon="2.52448">
        <ele>3</ele>
        <time>2020-06-23T13:08:40Z</time>
      </trkpt>
      <trkpt lat="51.05534" lon="2.52447">
        <ele>3</ele>
        <time>2020-06-23T13:08:41Z</time>
      </trkpt>
      <trkpt lat="51.05528" lon="2.52447">
        <ele>3</ele>
        <time>2020-06-23T13:08:42Z</time>
      </trkpt>
      <trkpt lat="51.05523" lon="2.52447">
        <ele>3</ele>
        <time>2020-06-23T13:08:43Z</time>
      </trkpt>
      <trkpt lat="51.05519" lon="2.52447">
        <ele>3.1</ele>
        <time>2020-06-23T13:08:44Z</time>
      </trkpt>
      <trkpt lat="51.05514" lon="2.52445">
        <ele>3.1</ele>
        <time>2020-06-23T13:08:45Z</time>
      </trkpt>
      <trkpt lat="51.05508" lon="2.52445">
        <ele>3.2</ele>
        <time>2020-06-23T13:08:46Z</time>
      </trkpt>
      <trkpt lat="51.05503" lon="2.52445">
        <ele>3.3</ele>
        <time>2020-06-23T13:08:47Z</time>
      </trkpt>
      <trkpt lat="51.05499" lon="2.52445">
        <ele>3.3</ele>
        <time>2020-06-23T13:08:48Z</time>
      </trkpt>
      <trkpt lat="51.05494" lon="2.52444">
        <ele>3.4</ele>
        <time>2020-06-23T13:08:49Z</time>
      </trkpt>
      <trkpt lat="51.05489" lon="2.52446">
        <ele>3.4</ele>
        <time>2020-06-23T13:08:50Z</time>
      </trkpt>
      <trkpt lat="51.05484" lon="2.52446">
        <ele>3.5</ele>
        <time>2020-06-23T13:08:51Z</time>
      </trkpt>
      <trkpt lat="51.05479" lon="2.52447">
        <ele>3.6</ele>
        <time>2020-06-23T13:08:52Z</time>
      </trkpt>
      <trkpt lat="51.05474" lon="2.52447">
        <ele>3.7</ele>
        <time>2020-06-23T13:08:53Z</time>
      </trkpt>
      <trkpt lat="51.05469" lon="2.52447">
        <ele>3.7</ele>
        <time>2020-06-23T13:08:54Z</time>
      </trkpt>
      <trkpt lat="51.05463" lon="2.52447">
        <ele>3.7</ele>
        <time>2020-06-23T13:08:55Z</time>
      </trkpt>
      <trkpt lat="51.05458" lon="2.52447">
        <ele>3.5</ele>
        <time>2020-06-23T13:08:56Z</time>
      </trkpt>
      <trkpt lat="51.05452" lon="2.52447">
        <ele>3.4</ele>
        <time>2020-06-23T13:08:57Z</time>
      </trkpt>
      <trkpt lat="51.05446" lon="2.52448">
        <ele>3.3</ele>
        <time>2020-06-23T13:08:58Z</time>
      </trkpt>
      <trkpt lat="51.0544" lon="2.52448">
        <ele>3.1</ele>
        <time>2020-06-23T13:08:59Z</time>
      </trkpt>
      <trkpt lat="51.05435" lon="2.52449">
        <ele>3</ele>
        <time>2020-06-23T13:09:00Z</time>
      </trkpt>
      <trkpt lat="51.0543" lon="2.52449">
        <ele>2.9</ele>
        <time>2020-06-23T13:09:01Z</time>
      </trkpt>
      <trkpt lat="51.05424" lon="2.5245">
        <ele>2.8</ele>
        <time>2020-06-23T13:09:02Z</time>
      </trkpt>
      <trkpt lat="51.05418" lon="2.52451">
        <ele>2.7</ele>
        <time>2020-06-23T13:09:03Z</time>
      </trkpt>
      <trkpt lat="51.05412" lon="2.52451">
        <ele>2.6</ele>
        <time>2020-06-23T13:09:04Z</time>
      </trkpt>
      <trkpt lat="51.05406" lon="2.52451">
        <ele>2.5</ele>
        <time>2020-06-23T13:09:05Z</time>
      </trkpt>
      <trkpt lat="51.05401" lon="2.52452">
        <ele>2.4</ele>
        <time>2020-06-23T13:09:06Z</time>
      </trkpt>
      <trkpt lat="51.05395" lon="2.52451">
        <ele>2.4</ele>
        <time>2020-06-23T13:09:07Z</time>
      </trkpt>
      <trkpt lat="51.05388" lon="2.5245">
        <ele>2.4</ele>
        <time>2020-06-23T13:09:08Z</time>
      </trkpt>
      <trkpt lat="51.05383" lon="2.5245">
        <ele>2.4</ele>
        <time>2020-06-23T13:09:09Z</time>
      </trkpt>
      <trkpt lat="51.05377" lon="2.5245">
        <ele>2.4</ele>
        <time>2020-06-23T13:09:10Z</time>
      </trkpt>
      <trkpt lat="51.05371" lon="2.5245">
        <ele>2.3</ele>
        <time>2020-06-23T13:09:11Z</time>
      </trkpt>
      <trkpt lat="51.05364" lon="2.52451">
        <ele>2.3</ele>
        <time>2020-06-23T13:09:12Z</time>
      </trkpt>
      <trkpt lat="51.05358" lon="2.52451">
        <ele>2.3</ele>
        <time>2020-06-23T13:09:13Z</time>
      </trkpt>
      <trkpt lat="51.05353" lon="2.52453">
        <ele>2.3</ele>
        <time>2020-06-23T13:09:14Z</time>
      </trkpt>
      <trkpt lat="51.05347" lon="2.52454">
        <ele>2.3</ele>
        <time>2020-06-23T13:09:15Z</time>
      </trkpt>
      <trkpt lat="51.05342" lon="2.52457">
        <ele>2.3</ele>
        <time>2020-06-23T13:09:16Z</time>
      </trkpt>
      <trkpt lat="51.05337" lon="2.52461">
        <ele>2.2</ele>
        <time>2020-06-23T13:09:17Z</time>
      </trkpt>
      <trkpt lat="51.05331" lon="2.52465">
        <ele>2.2</ele>
        <time>2020-06-23T13:09:18Z</time>
      </trkpt>
      <trkpt lat="51.05326" lon="2.5247">
        <ele>2.2</ele>
        <time>2020-06-23T13:09:19Z</time>
      </trkpt>
      <trkpt lat="51.05322" lon="2.52477">
        <ele>2.2</ele>
        <time>2020-06-23T13:09:20Z</time>
      </trkpt>
      <trkpt lat="51.05317" lon="2.52482">
        <ele>2.1</ele>
        <time>2020-06-23T13:09:21Z</time>
      </trkpt>
      <trkpt lat="51.05312" lon="2.52489">
        <ele>2</ele>
        <time>2020-06-23T13:09:22Z</time>
      </trkpt>
      <trkpt lat="51.05307" lon="2.52497">
        <ele>2</ele>
        <time>2020-06-23T13:09:23Z</time>
      </trkpt>
      <trkpt lat="51.05302" lon="2.52503">
        <ele>1.9</ele>
        <time>2020-06-23T13:09:24Z</time>
      </trkpt>
      <trkpt lat="51.05297" lon="2.52509">
        <ele>1.9</ele>
        <time>2020-06-23T13:09:25Z</time>
      </trkpt>
      <trkpt lat="51.05292" lon="2.52515">
        <ele>1.9</ele>
        <time>2020-06-23T13:09:26Z</time>
      </trkpt>
      <trkpt lat="51.05287" lon="2.52522">
        <ele>1.9</ele>
        <time>2020-06-23T13:09:27Z</time>
      </trkpt>
      <trkpt lat="51.05283" lon="2.52529">
        <ele>2</ele>
        <time>2020-06-23T13:09:28Z</time>
      </trkpt>
      <trkpt lat="51.05278" lon="2.52536">
        <ele>2</ele>
        <time>2020-06-23T13:09:29Z</time>
      </trkpt>
      <trkpt lat="51.05274" lon="2.52541">
        <ele>2</ele>
        <time>2020-06-23T13:09:30Z</time>
      </trkpt>
      <trkpt lat="51.0527" lon="2.52546">
        <ele>2.1</ele>
        <time>2020-06-23T13:09:31Z</time>
      </trkpt>
      <trkpt lat="51.05266" lon="2.5255">
        <ele>2.2</ele>
        <time>2020-06-23T13:09:32Z</time>
      </trkpt>
      <trkpt lat="51.05262" lon="2.52554">
        <ele>2.2</ele>
        <time>2020-06-23T13:09:33Z</time>
      </trkpt>
      <trkpt lat="51.05258" lon="2.5256">
        <ele>2.3</ele>
        <time>2020-06-23T13:09:34Z</time>
      </trkpt>
      <trkpt lat="51.05255" lon="2.52565">
        <ele>2.4</ele>
        <time>2020-06-23T13:09:35Z</time>
      </trkpt>
      <trkpt lat="51.05251" lon="2.52569">
        <ele>2.4</ele>
        <time>2020-06-23T13:09:36Z</time>
      </trkpt>
      <trkpt lat="51.05249" lon="2.52574">
        <ele>2.3</ele>
        <time>2020-06-23T13:09:37Z</time>
      </trkpt>
      <trkpt lat="51.05246" lon="2.52578">
        <ele>2.3</ele>
        <time>2020-06-23T13:09:38Z</time>
      </trkpt>
      <trkpt lat="51.05243" lon="2.52583">
        <ele>2.3</ele>
        <time>2020-06-23T13:09:39Z</time>
      </trkpt>
      <trkpt lat="51.05241" lon="2.52589">
        <ele>2.2</ele>
        <time>2020-06-23T13:09:40Z</time>
      </trkpt>
      <trkpt lat="51.05237" lon="2.52594">
        <ele>2.2</ele>
        <time>2020-06-23T13:09:41Z</time>
      </trkpt>
      <trkpt lat="51.05234" lon="2.52599">
        <ele>2.1</ele>
        <time>2020-06-23T13:09:42Z</time>
      </trkpt>
      <trkpt lat="51.0523" lon="2.52604">
        <ele>2.2</ele>
        <time>2020-06-23T13:09:43Z</time>
      </trkpt>
      <trkpt lat="51.05227" lon="2.52609">
        <ele>2.2</ele>
        <time>2020-06-23T13:09:44Z</time>
      </trkpt>
      <trkpt lat="51.05224" lon="2.52613">
        <ele>2.2</ele>
        <time>2020-06-23T13:09:45Z</time>
      </trkpt>
      <trkpt lat="51.05221" lon="2.52618">
        <ele>2.2</ele>
        <time>2020-06-23T13:09:46Z</time>
      </trkpt>
      <trkpt lat="51.05219" lon="2.52622">
        <ele>2.2</ele>
        <time>2020-06-23T13:09:47Z</time>
      </trkpt>
      <trkpt lat="51.05217" lon="2.52626">
        <ele>2.3</ele>
        <time>2020-06-23T13:09:48Z</time>
      </trkpt>
      <trkpt lat="51.05214" lon="2.52629">
        <ele>2.3</ele>
        <time>2020-06-23T13:09:49Z</time>
      </trkpt>
      <trkpt lat="51.05211" lon="2.52632">
        <ele>2.3</ele>
        <time>2020-06-23T13:09:50Z</time>
      </trkpt>
      <trkpt lat="51.05208" lon="2.52634">
        <ele>2.3</ele>
        <time>2020-06-23T13:09:51Z</time>
      </trkpt>
      <trkpt lat="51.05205" lon="2.52635">
        <ele>2.4</ele>
        <time>2020-06-23T13:09:52Z</time>
      </trkpt>
      <trkpt lat="51.05202" lon="2.52638">
        <ele>2.4</ele>
        <time>2020-06-23T13:09:53Z</time>
      </trkpt>
      <trkpt lat="51.052" lon="2.52641">
        <ele>2.4</ele>
        <time>2020-06-23T13:09:54Z</time>
      </trkpt>
      <trkpt lat="51.05198" lon="2.52644">
        <ele>2.5</ele>
        <time>2020-06-23T13:09:55Z</time>
      </trkpt>
      <trkpt lat="51.05195" lon="2.52648">
        <ele>2.5</ele>
        <time>2020-06-23T13:09:56Z</time>
      </trkpt>
      <trkpt lat="51.05192" lon="2.52651">
        <ele>2.6</ele>
        <time>2020-06-23T13:09:57Z</time>
      </trkpt>
      <trkpt lat="51.0519" lon="2.52652">
        <ele>2.6</ele>
        <time>2020-06-23T13:09:58Z</time>
      </trkpt>
      <trkpt lat="51.05187" lon="2.52654">
        <ele>2.6</ele>
        <time>2020-06-23T13:09:59Z</time>
      </trkpt>
      <trkpt lat="51.05184" lon="2.52654">
        <ele>2.7</ele>
        <time>2020-06-23T13:10:00Z</time>
      </trkpt>
      <trkpt lat="51.05183" lon="2.52654">
        <ele>2.7</ele>
        <time>2020-06-23T13:10:01Z</time>
      </trkpt>
      <trkpt lat="51.0518" lon="2.52653">
        <ele>2.7</ele>
        <time>2020-06-23T13:10:02Z</time>
      </trkpt>
      <trkpt lat="51.05178" lon="2.52654">
        <ele>2.8</ele>
        <time>2020-06-23T13:10:03Z</time>
      </trkpt>
      <trkpt lat="51.05178" lon="2.52656">
        <ele>2.8</ele>
        <time>2020-06-23T13:10:04Z</time>
      </trkpt>
      <trkpt lat="51.05179" lon="2.52656">
        <ele>2.8</ele>
        <time>2020-06-23T13:10:05Z</time>
      </trkpt>
      <trkpt lat="51.05178" lon="2.52654">
        <ele>2.8</ele>
        <time>2020-06-23T13:10:06Z</time>
      </trkpt>
      <trkpt lat="51.05178" lon="2.52654">
        <ele>2.8</ele>
        <time>2020-06-23T13:10:07Z</time>
      </trkpt>
      <trkpt lat="51.05177" lon="2.52653">
        <ele>2.8</ele>
        <time>2020-06-23T13:10:08Z</time>
      </trkpt>
      <trkpt lat="51.05177" lon="2.52654">
        <ele>2.8</ele>
        <time>2020-06-23T13:10:09Z</time>
      </trkpt>
      <trkpt lat="51.05178" lon="2.52652">
        <ele>2.9</ele>
        <time>2020-06-23T13:10:10Z</time>
      </trkpt>
      <trkpt lat="51.05179" lon="2.5265">
        <ele>2.9</ele>
        <time>2020-06-23T13:10:11Z</time>
      </trkpt>
      <trkpt lat="51.0518" lon="2.52647">
        <ele>2.9</ele>
        <time>2020-06-23T13:10:12Z</time>
      </trkpt>
      <trkpt lat="51.05181" lon="2.52645">
        <ele>2.8</ele>
        <time>2020-06-23T13:10:13Z</time>
      </trkpt>
      <trkpt lat="51.05182" lon="2.52642">
        <ele>2.8</ele>
        <time>2020-06-23T13:10:48Z</time>
      </trkpt>
      <trkpt lat="51.05183" lon="2.5264">
        <ele>2.7</ele>
        <time>2020-06-23T13:10:49Z</time>
      </trkpt>
      <trkpt lat="51.05184" lon="2.52637">
        <ele>2.7</ele>
        <time>2020-06-23T13:10:50Z</time>
      </trkpt>
      <trkpt lat="51.05187" lon="2.52632">
        <ele>2.6</ele>
        <time>2020-06-23T13:10:51Z</time>
      </trkpt>
      <trkpt lat="51.05188" lon="2.52631">
        <ele>2.5</ele>
        <time>2020-06-23T13:10:52Z</time>
      </trkpt>
      <trkpt lat="51.05188" lon="2.52626">
        <ele>2.5</ele>
        <time>2020-06-23T13:10:53Z</time>
      </trkpt>
      <trkpt lat="51.05189" lon="2.52621">
        <ele>2.4</ele>
        <time>2020-06-23T13:10:54Z</time>
      </trkpt>
      <trkpt lat="51.05189" lon="2.5262">
        <ele>2.3</ele>
        <time>2020-06-23T13:10:55Z</time>
      </trkpt>
      <trkpt lat="51.0519" lon="2.52614">
        <ele>2.3</ele>
        <time>2020-06-23T13:10:56Z</time>
      </trkpt>
      <trkpt lat="51.0519" lon="2.52613">
        <ele>2.2</ele>
        <time>2020-06-23T13:10:57Z</time>
      </trkpt>
      <trkpt lat="51.05192" lon="2.52607">
        <ele>2.2</ele>
        <time>2020-06-23T13:10:58Z</time>
      </trkpt>
      <trkpt lat="51.05192" lon="2.52605">
        <ele>2.1</ele>
        <time>2020-06-23T13:10:59Z</time>
      </trkpt>
      <trkpt lat="51.05192" lon="2.52603">
        <ele>2.1</ele>
        <time>2020-06-23T13:11:00Z</time>
      </trkpt>
      <trkpt lat="51.05192" lon="2.52603">
        <ele>2.1</ele>
        <time>2020-06-23T13:11:01Z</time>
      </trkpt>
      <trkpt lat="51.05191" lon="2.52603">
        <ele>2.1</ele>
        <time>2020-06-23T13:11:02Z</time>
      </trkpt>
      <trkpt lat="51.05191" lon="2.52603">
        <ele>2.1</ele>
        <time>2020-06-23T13:11:03Z</time>
      </trkpt>
      <trkpt lat="51.05191" lon="2.52602">
        <ele>2</ele>
        <time>2020-06-23T13:11:04Z</time>
      </trkpt>
      <trkpt lat="51.05191" lon="2.52602">
        <ele>2</ele>
        <time>2020-06-23T13:11:05Z</time>
      </trkpt>
      <trkpt lat="51.05191" lon="2.52602">
        <ele>2</ele>
        <time>2020-06-23T13:11:06Z</time>
      </trkpt>
      <trkpt lat="51.05191" lon="2.52602">
        <ele>2</ele>
        <time>2020-06-23T13:11:07Z</time>
      </trkpt>
      <trkpt lat="51.05191" lon="2.52601">
        <ele>2</ele>
        <time>2020-06-23T13:11:08Z</time>
      </trkpt>
      <trkpt lat="51.05192" lon="2.52601">
        <ele>1.9</ele>
        <time>2020-06-23T13:11:09Z</time>
      </trkpt>
      <trkpt lat="51.05193" lon="2.526">
        <ele>1.9</ele>
        <time>2020-06-23T13:11:10Z</time>
      </trkpt>
      <trkpt lat="51.05194" lon="2.52599">
        <ele>1.9</ele>
        <time>2020-06-23T13:11:11Z</time>
      </trkpt>
      <trkpt lat="51.05196" lon="2.52596">
        <ele>1.8</ele>
        <time>2020-06-23T13:11:12Z</time>
      </trkpt>
      <trkpt lat="51.05199" lon="2.52594">
        <ele>1.8</ele>
        <time>2020-06-23T13:11:13Z</time>
      </trkpt>
      <trkpt lat="51.05199" lon="2.52589">
        <ele>1.7</ele>
        <time>2020-06-23T13:11:14Z</time>
      </trkpt>
      <trkpt lat="51.05199" lon="2.52587">
        <ele>1.7</ele>
        <time>2020-06-23T13:11:15Z</time>
      </trkpt>
      <trkpt lat="51.05198" lon="2.52583">
        <ele>1.7</ele>
        <time>2020-06-23T13:11:16Z</time>
      </trkpt>
      <trkpt lat="51.05198" lon="2.52582">
        <ele>1.6</ele>
        <time>2020-06-23T13:11:17Z</time>
      </trkpt>
      <trkpt lat="51.05197" lon="2.52577">
        <ele>1.6</ele>
        <time>2020-06-23T13:11:18Z</time>
      </trkpt>
      <trkpt lat="51.05196" lon="2.52575">
        <ele>1.6</ele>
        <time>2020-06-23T13:11:19Z</time>
      </trkpt>
      <trkpt lat="51.05194" lon="2.52569">
        <ele>1.6</ele>
        <time>2020-06-23T13:11:20Z</time>
      </trkpt>
      <trkpt lat="51.05193" lon="2.52567">
        <ele>1.6</ele>
        <time>2020-06-23T13:11:21Z</time>
      </trkpt>
      <trkpt lat="51.05192" lon="2.52563">
        <ele>1.6</ele>
        <time>2020-06-23T13:11:22Z</time>
      </trkpt>
      <trkpt lat="51.0519" lon="2.52557">
        <ele>1.6</ele>
        <time>2020-06-23T13:11:23Z</time>
      </trkpt>
      <trkpt lat="51.0519" lon="2.52554">
        <ele>1.6</ele>
        <time>2020-06-23T13:11:24Z</time>
      </trkpt>
      <trkpt lat="51.05189" lon="2.52549">
        <ele>1.6</ele>
        <time>2020-06-23T13:11:25Z</time>
      </trkpt>
      <trkpt lat="51.05188" lon="2.52544">
        <ele>1.6</ele>
        <time>2020-06-23T13:11:26Z</time>
      </trkpt>
      <trkpt lat="51.05188" lon="2.52538">
        <ele>1.5</ele>
        <time>2020-06-23T13:11:27Z</time>
      </trkpt>
      <trkpt lat="51.05186" lon="2.52534">
        <ele>1.5</ele>
        <time>2020-06-23T13:11:28Z</time>
      </trkpt>
      <trkpt lat="51.05185" lon="2.52529">
        <ele>1.5</ele>
        <time>2020-06-23T13:11:29Z</time>
      </trkpt>
      <trkpt lat="51.05185" lon="2.52524">
        <ele>1.5</ele>
        <time>2020-06-23T13:11:30Z</time>
      </trkpt>
      <trkpt lat="51.05185" lon="2.52517">
        <ele>1.5</ele>
        <time>2020-06-23T13:11:31Z</time>
      </trkpt>
      <trkpt lat="51.05186" lon="2.52511">
        <ele>1.5</ele>
        <time>2020-06-23T13:11:32Z</time>
      </trkpt>
      <trkpt lat="51.05186" lon="2.52505">
        <ele>1.4</ele>
        <time>2020-06-23T13:11:33Z</time>
      </trkpt>
      <trkpt lat="51.05186" lon="2.525">
        <ele>1.4</ele>
        <time>2020-06-23T13:11:34Z</time>
      </trkpt>
      <trkpt lat="51.05187" lon="2.52494">
        <ele>1.4</ele>
        <time>2020-06-23T13:11:35Z</time>
      </trkpt>
      <trkpt lat="51.05188" lon="2.52488">
        <ele>1.3</ele>
        <time>2020-06-23T13:11:36Z</time>
      </trkpt>
      <trkpt lat="51.0519" lon="2.52484">
        <ele>1.3</ele>
        <time>2020-06-23T13:11:37Z</time>
      </trkpt>
      <trkpt lat="51.05191" lon="2.52479">
        <ele>1.3</ele>
        <time>2020-06-23T13:11:38Z</time>
      </trkpt>
      <trkpt lat="51.05193" lon="2.52474">
        <ele>1.3</ele>
        <time>2020-06-23T13:11:39Z</time>
      </trkpt>
      <trkpt lat="51.05194" lon="2.5247">
        <ele>1.2</ele>
        <time>2020-06-23T13:11:40Z</time>
      </trkpt>
      <trkpt lat="51.05196" lon="2.52466">
        <ele>1.2</ele>
        <time>2020-06-23T13:11:41Z</time>
      </trkpt>
      <trkpt lat="51.05198" lon="2.52463">
        <ele>1.2</ele>
        <time>2020-06-23T13:11:42Z</time>
      </trkpt>
      <trkpt lat="51.052" lon="2.52457">
        <ele>1.2</ele>
        <time>2020-06-23T13:11:43Z</time>
      </trkpt>
      <trkpt lat="51.052" lon="2.52455">
        <ele>1.2</ele>
        <time>2020-06-23T13:11:44Z</time>
      </trkpt>
      <trkpt lat="51.05199" lon="2.52449">
        <ele>1.2</ele>
        <time>2020-06-23T13:11:45Z</time>
      </trkpt>
      <trkpt lat="51.05197" lon="2.52444">
        <ele>1.2</ele>
        <time>2020-06-23T13:11:46Z</time>
      </trkpt>
      <trkpt lat="51.05196" lon="2.52438">
        <ele>1.1</ele>
        <time>2020-06-23T13:11:47Z</time>
      </trkpt>
      <trkpt lat="51.05194" lon="2.52432">
        <ele>1.1</ele>
        <time>2020-06-23T13:11:48Z</time>
      </trkpt>
      <trkpt lat="51.05192" lon="2.52426">
        <ele>1.1</ele>
        <time>2020-06-23T13:11:49Z</time>
      </trkpt>
      <trkpt lat="51.05191" lon="2.52421">
        <ele>1.1</ele>
        <time>2020-06-23T13:11:50Z</time>
      </trkpt>
      <trkpt lat="51.05188" lon="2.52414">
        <ele>1.1</ele>
        <time>2020-06-23T13:11:51Z</time>
      </trkpt>
      <trkpt lat="51.05186" lon="2.52406">
        <ele>1</ele>
        <time>2020-06-23T13:11:52Z</time>
      </trkpt>
      <trkpt lat="51.05184" lon="2.524">
        <ele>1</ele>
        <time>2020-06-23T13:11:53Z</time>
      </trkpt>
      <trkpt lat="51.05182" lon="2.52393">
        <ele>1</ele>
        <time>2020-06-23T13:11:54Z</time>
      </trkpt>
      <trkpt lat="51.0518" lon="2.52386">
        <ele>1</ele>
        <time>2020-06-23T13:11:55Z</time>
      </trkpt>
      <trkpt lat="51.05178" lon="2.52378">
        <ele>1</ele>
        <time>2020-06-23T13:11:56Z</time>
      </trkpt>
      <trkpt lat="51.05175" lon="2.52371">
        <ele>1</ele>
        <time>2020-06-23T13:11:57Z</time>
      </trkpt>
      <trkpt lat="51.05173" lon="2.52363">
        <ele>1</ele>
        <time>2020-06-23T13:11:58Z</time>
      </trkpt>
      <trkpt lat="51.05171" lon="2.52356">
        <ele>1</ele>
        <time>2020-06-23T13:11:59Z</time>
      </trkpt>
      <trkpt lat="51.05168" lon="2.52349">
        <ele>0.9</ele>
        <time>2020-06-23T13:12:00Z</time>
      </trkpt>
      <trkpt lat="51.05166" lon="2.52342">
        <ele>0.9</ele>
        <time>2020-06-23T13:12:01Z</time>
      </trkpt>
      <trkpt lat="51.05162" lon="2.52335">
        <ele>0.9</ele>
        <time>2020-06-23T13:12:02Z</time>
      </trkpt>
      <trkpt lat="51.05159" lon="2.52327">
        <ele>1</ele>
        <time>2020-06-23T13:12:03Z</time>
      </trkpt>
      <trkpt lat="51.05156" lon="2.52319">
        <ele>0.9</ele>
        <time>2020-06-23T13:12:04Z</time>
      </trkpt>
      <trkpt lat="51.05153" lon="2.5231">
        <ele>0.9</ele>
        <time>2020-06-23T13:12:05Z</time>
      </trkpt>
      <trkpt lat="51.05151" lon="2.52303">
        <ele>0.8</ele>
        <time>2020-06-23T13:12:06Z</time>
      </trkpt>
      <trkpt lat="51.05148" lon="2.52295">
        <ele>0.8</ele>
        <time>2020-06-23T13:12:07Z</time>
      </trkpt>
      <trkpt lat="51.05146" lon="2.52286">
        <ele>0.8</ele>
        <time>2020-06-23T13:12:08Z</time>
      </trkpt>
      <trkpt lat="51.05145" lon="2.52278">
        <ele>0.8</ele>
        <time>2020-06-23T13:12:09Z</time>
      </trkpt>
      <trkpt lat="51.05143" lon="2.52269">
        <ele>0.8</ele>
        <time>2020-06-23T13:12:10Z</time>
      </trkpt>
      <trkpt lat="51.05141" lon="2.5226">
        <ele>0.8</ele>
        <time>2020-06-23T13:12:11Z</time>
      </trkpt>
      <trkpt lat="51.05139" lon="2.52251">
        <ele>0.8</ele>
        <time>2020-06-23T13:12:12Z</time>
      </trkpt>
      <trkpt lat="51.05137" lon="2.52243">
        <ele>0.8</ele>
        <time>2020-06-23T13:12:13Z</time>
      </trkpt>
      <trkpt lat="51.05135" lon="2.52235">
        <ele>0.8</ele>
        <time>2020-06-23T13:12:14Z</time>
      </trkpt>
      <trkpt lat="51.05133" lon="2.52227">
        <ele>0.8</ele>
        <time>2020-06-23T13:12:15Z</time>
      </trkpt>
      <trkpt lat="51.05131" lon="2.5222">
        <ele>0.8</ele>
        <time>2020-06-23T13:12:16Z</time>
      </trkpt>
      <trkpt lat="51.05129" lon="2.52211">
        <ele>0.8</ele>
        <time>2020-06-23T13:12:17Z</time>
      </trkpt>
      <trkpt lat="51.05127" lon="2.52204">
        <ele>0.8</ele>
        <time>2020-06-23T13:12:18Z</time>
      </trkpt>
      <trkpt lat="51.05126" lon="2.52196">
        <ele>0.8</ele>
        <time>2020-06-23T13:12:19Z</time>
      </trkpt>
      <trkpt lat="51.05124" lon="2.52189">
        <ele>0.8</ele>
        <time>2020-06-23T13:12:20Z</time>
      </trkpt>
      <trkpt lat="51.05123" lon="2.52182">
        <ele>0.9</ele>
        <time>2020-06-23T13:12:21Z</time>
      </trkpt>
      <trkpt lat="51.05122" lon="2.52175">
        <ele>0.9</ele>
        <time>2020-06-23T13:12:22Z</time>
      </trkpt>
      <trkpt lat="51.0512" lon="2.5217">
        <ele>0.9</ele>
        <time>2020-06-23T13:12:23Z</time>
      </trkpt>
      <trkpt lat="51.05117" lon="2.52164">
        <ele>0.9</ele>
        <time>2020-06-23T13:12:24Z</time>
      </trkpt>
      <trkpt lat="51.05113" lon="2.5216">
        <ele>1</ele>
        <time>2020-06-23T13:12:25Z</time>
      </trkpt>
      <trkpt lat="51.05108" lon="2.52158">
        <ele>0.9</ele>
        <time>2020-06-23T13:12:26Z</time>
      </trkpt>
      <trkpt lat="51.05102" lon="2.5216">
        <ele>0.9</ele>
        <time>2020-06-23T13:12:27Z</time>
      </trkpt>
      <trkpt lat="51.05098" lon="2.52163">
        <ele>0.9</ele>
        <time>2020-06-23T13:12:28Z</time>
      </trkpt>
      <trkpt lat="51.05093" lon="2.52166">
        <ele>0.9</ele>
        <time>2020-06-23T13:12:29Z</time>
      </trkpt>
      <trkpt lat="51.05088" lon="2.5217">
        <ele>0.9</ele>
        <time>2020-06-23T13:12:30Z</time>
      </trkpt>
      <trkpt lat="51.05083" lon="2.52173">
        <ele>0.9</ele>
        <time>2020-06-23T13:12:31Z</time>
      </trkpt>
      <trkpt lat="51.05077" lon="2.52176">
        <ele>0.9</ele>
        <time>2020-06-23T13:12:32Z</time>
      </trkpt>
      <trkpt lat="51.05071" lon="2.52179">
        <ele>0.9</ele>
        <time>2020-06-23T13:12:33Z</time>
      </trkpt>
      <trkpt lat="51.05065" lon="2.52182">
        <ele>0.9</ele>
        <time>2020-06-23T13:12:34Z</time>
      </trkpt>
      <trkpt lat="51.05059" lon="2.52186">
        <ele>0.9</ele>
        <time>2020-06-23T13:12:35Z</time>
      </trkpt>
      <trkpt lat="51.05055" lon="2.52191">
        <ele>0.9</ele>
        <time>2020-06-23T13:12:36Z</time>
      </trkpt>
      <trkpt lat="51.0505" lon="2.52194">
        <ele>1</ele>
        <time>2020-06-23T13:12:37Z</time>
      </trkpt>
      <trkpt lat="51.05046" lon="2.52197">
        <ele>1</ele>
        <time>2020-06-23T13:12:38Z</time>
      </trkpt>
      <trkpt lat="51.05041" lon="2.52201">
        <ele>1</ele>
        <time>2020-06-23T13:12:39Z</time>
      </trkpt>
      <trkpt lat="51.05036" lon="2.52205">
        <ele>1</ele>
        <time>2020-06-23T13:12:40Z</time>
      </trkpt>
      <trkpt lat="51.05033" lon="2.52209">
        <ele>1</ele>
        <time>2020-06-23T13:12:41Z</time>
      </trkpt>
      <trkpt lat="51.05028" lon="2.52212">
        <ele>0.9</ele>
        <time>2020-06-23T13:12:42Z</time>
      </trkpt>
      <trkpt lat="51.05024" lon="2.52215">
        <ele>0.9</ele>
        <time>2020-06-23T13:12:43Z</time>
      </trkpt>
      <trkpt lat="51.0502" lon="2.52219">
        <ele>0.9</ele>
        <time>2020-06-23T13:12:44Z</time>
      </trkpt>
      <trkpt lat="51.05016" lon="2.52222">
        <ele>0.9</ele>
        <time>2020-06-23T13:12:45Z</time>
      </trkpt>
      <trkpt lat="51.05012" lon="2.52225">
        <ele>0.9</ele>
        <time>2020-06-23T13:12:46Z</time>
      </trkpt>
      <trkpt lat="51.05008" lon="2.52228">
        <ele>0.9</ele>
        <time>2020-06-23T13:12:47Z</time>
      </trkpt>
      <trkpt lat="51.05004" lon="2.52231">
        <ele>0.9</ele>
        <time>2020-06-23T13:12:48Z</time>
      </trkpt>
      <trkpt lat="51.05001" lon="2.52234">
        <ele>0.9</ele>
        <time>2020-06-23T13:12:49Z</time>
      </trkpt>
      <trkpt lat="51.04997" lon="2.52237">
        <ele>0.9</ele>
        <time>2020-06-23T13:12:50Z</time>
      </trkpt>
      <trkpt lat="51.04993" lon="2.5224">
        <ele>0.9</ele>
        <time>2020-06-23T13:12:51Z</time>
      </trkpt>
      <trkpt lat="51.04989" lon="2.52243">
        <ele>0.9</ele>
        <time>2020-06-23T13:12:52Z</time>
      </trkpt>
      <trkpt lat="51.04986" lon="2.52246">
        <ele>0.9</ele>
        <time>2020-06-23T13:12:53Z</time>
      </trkpt>
      <trkpt lat="51.04983" lon="2.52249">
        <ele>0.9</ele>
        <time>2020-06-23T13:12:54Z</time>
      </trkpt>
      <trkpt lat="51.04979" lon="2.5225">
        <ele>0.9</ele>
        <time>2020-06-23T13:12:55Z</time>
      </trkpt>
      <trkpt lat="51.04976" lon="2.52252">
        <ele>1</ele>
        <time>2020-06-23T13:12:56Z</time>
      </trkpt>
      <trkpt lat="51.04972" lon="2.52255">
        <ele>1</ele>
        <time>2020-06-23T13:12:57Z</time>
      </trkpt>
      <trkpt lat="51.04968" lon="2.52258">
        <ele>1.1</ele>
        <time>2020-06-23T13:12:58Z</time>
      </trkpt>
      <trkpt lat="51.04964" lon="2.52261">
        <ele>1.2</ele>
        <time>2020-06-23T13:12:59Z</time>
      </trkpt>
      <trkpt lat="51.0496" lon="2.52264">
        <ele>1.2</ele>
        <time>2020-06-23T13:13:00Z</time>
      </trkpt>
      <trkpt lat="51.04956" lon="2.52267">
        <ele>1.3</ele>
        <time>2020-06-23T13:13:01Z</time>
      </trkpt>
      <trkpt lat="51.04953" lon="2.52268">
        <ele>1.4</ele>
        <time>2020-06-23T13:13:02Z</time>
      </trkpt>
      <trkpt lat="51.0495" lon="2.5227">
        <ele>1.4</ele>
        <time>2020-06-23T13:13:03Z</time>
      </trkpt>
      <trkpt lat="51.04947" lon="2.5227">
        <ele>1.5</ele>
        <time>2020-06-23T13:13:04Z</time>
      </trkpt>
      <trkpt lat="51.04944" lon="2.52269">
        <ele>1.5</ele>
        <time>2020-06-23T13:13:05Z</time>
      </trkpt>
      <trkpt lat="51.04941" lon="2.52267">
        <ele>1.6</ele>
        <time>2020-06-23T13:13:06Z</time>
      </trkpt>
      <trkpt lat="51.0494" lon="2.52267">
        <ele>1.6</ele>
        <time>2020-06-23T13:13:07Z</time>
      </trkpt>
      <trkpt lat="51.04938" lon="2.52263">
        <ele>1.6</ele>
        <time>2020-06-23T13:13:08Z</time>
      </trkpt>
      <trkpt lat="51.04936" lon="2.52259">
        <ele>1.6</ele>
        <time>2020-06-23T13:13:09Z</time>
      </trkpt>
      <trkpt lat="51.04933" lon="2.52255">
        <ele>1.5</ele>
        <time>2020-06-23T13:13:10Z</time>
      </trkpt>
      <trkpt lat="51.04932" lon="2.52254">
        <ele>1.5</ele>
        <time>2020-06-23T13:13:11Z</time>
      </trkpt>
      <trkpt lat="51.0493" lon="2.52249">
        <ele>1.5</ele>
        <time>2020-06-23T13:13:12Z</time>
      </trkpt>
      <trkpt lat="51.04928" lon="2.52244">
        <ele>1.5</ele>
        <time>2020-06-23T13:13:13Z</time>
      </trkpt>
      <trkpt lat="51.04926" lon="2.5224">
        <ele>1.5</ele>
        <time>2020-06-23T13:13:14Z</time>
      </trkpt>
      <trkpt lat="51.04924" lon="2.52235">
        <ele>1.5</ele>
        <time>2020-06-23T13:13:15Z</time>
      </trkpt>
      <trkpt lat="51.04922" lon="2.52231">
        <ele>1.5</ele>
        <time>2020-06-23T13:13:16Z</time>
      </trkpt>
      <trkpt lat="51.0492" lon="2.52226">
        <ele>1.5</ele>
        <time>2020-06-23T13:13:17Z</time>
      </trkpt>
      <trkpt lat="51.04918" lon="2.5222">
        <ele>1.5</ele>
        <time>2020-06-23T13:13:18Z</time>
      </trkpt>
      <trkpt lat="51.04915" lon="2.52214">
        <ele>1.5</ele>
        <time>2020-06-23T13:13:19Z</time>
      </trkpt>
      <trkpt lat="51.04913" lon="2.5221">
        <ele>1.5</ele>
        <time>2020-06-23T13:13:20Z</time>
      </trkpt>
      <trkpt lat="51.04912" lon="2.52206">
        <ele>1.5</ele>
        <time>2020-06-23T13:13:21Z</time>
      </trkpt>
      <trkpt lat="51.04911" lon="2.52205">
        <ele>1.5</ele>
        <time>2020-06-23T13:13:22Z</time>
      </trkpt>
      <trkpt lat="51.04909" lon="2.52204">
        <ele>1.5</ele>
        <time>2020-06-23T13:13:23Z</time>
      </trkpt>
      <trkpt lat="51.04907" lon="2.52204">
        <ele>1.5</ele>
        <time>2020-06-23T13:13:24Z</time>
      </trkpt>
      <trkpt lat="51.04907" lon="2.52203">
        <ele>1.5</ele>
        <time>2020-06-23T13:13:25Z</time>
      </trkpt>
      <trkpt lat="51.04907" lon="2.522">
        <ele>1.5</ele>
        <time>2020-06-23T13:13:26Z</time>
      </trkpt>
      <trkpt lat="51.04907" lon="2.522">
        <ele>1.5</ele>
        <time>2020-06-23T13:13:27Z</time>
      </trkpt>
      <trkpt lat="51.04907" lon="2.52199">
        <ele>1.5</ele>
        <time>2020-06-23T13:13:28Z</time>
      </trkpt>
      <trkpt lat="51.04907" lon="2.52199">
        <ele>1.5</ele>
        <time>2020-06-23T13:13:29Z</time>
      </trkpt>
      <trkpt lat="51.04907" lon="2.52199">
        <ele>1.5</ele>
        <time>2020-06-23T13:13:30Z</time>
      </trkpt>
      <trkpt lat="51.04907" lon="2.52199">
        <ele>1.4</ele>
        <time>2020-06-23T13:13:31Z</time>
      </trkpt>
      <trkpt lat="51.04907" lon="2.52199">
        <ele>1.4</ele>
        <time>2020-06-23T13:13:32Z</time>
      </trkpt>
      <trkpt lat="51.04901" lon="2.52192">
        <ele>1.4</ele>
        <time>2020-06-23T13:13:51Z</time>
      </trkpt>
      <trkpt lat="51.04899" lon="2.5219">
        <ele>1.4</ele>
        <time>2020-06-23T13:13:52Z</time>
      </trkpt>
      <trkpt lat="51.04897" lon="2.52185">
        <ele>1.4</ele>
        <time>2020-06-23T13:13:53Z</time>
      </trkpt>
      <trkpt lat="51.04896" lon="2.52183">
        <ele>1.4</ele>
        <time>2020-06-23T13:13:54Z</time>
      </trkpt>
      <trkpt lat="51.04893" lon="2.52178">
        <ele>1.4</ele>
        <time>2020-06-23T13:13:55Z</time>
      </trkpt>
      <trkpt lat="51.0489" lon="2.52173">
        <ele>1.4</ele>
        <time>2020-06-23T13:13:56Z</time>
      </trkpt>
      <trkpt lat="51.04888" lon="2.52165">
        <ele>1.3</ele>
        <time>2020-06-23T13:13:57Z</time>
      </trkpt>
      <trkpt lat="51.04885" lon="2.52158">
        <ele>1.3</ele>
        <time>2020-06-23T13:13:58Z</time>
      </trkpt>
      <trkpt lat="51.04882" lon="2.52152">
        <ele>1.3</ele>
        <time>2020-06-23T13:13:59Z</time>
      </trkpt>
      <trkpt lat="51.04878" lon="2.52147">
        <ele>1.3</ele>
        <time>2020-06-23T13:14:00Z</time>
      </trkpt>
      <trkpt lat="51.04875" lon="2.52141">
        <ele>1.3</ele>
        <time>2020-06-23T13:14:01Z</time>
      </trkpt>
      <trkpt lat="51.04872" lon="2.52135">
        <ele>1.3</ele>
        <time>2020-06-23T13:14:02Z</time>
      </trkpt>
      <trkpt lat="51.04869" lon="2.52128">
        <ele>1.3</ele>
        <time>2020-06-23T13:14:03Z</time>
      </trkpt>
      <trkpt lat="51.04868" lon="2.52122">
        <ele>1.3</ele>
        <time>2020-06-23T13:14:04Z</time>
      </trkpt>
      <trkpt lat="51.04866" lon="2.52116">
        <ele>1.4</ele>
        <time>2020-06-23T13:14:05Z</time>
      </trkpt>
      <trkpt lat="51.04863" lon="2.52111">
        <ele>1.4</ele>
        <time>2020-06-23T13:14:06Z</time>
      </trkpt>
      <trkpt lat="51.04861" lon="2.52106">
        <ele>1.4</ele>
        <time>2020-06-23T13:14:07Z</time>
      </trkpt>
      <trkpt lat="51.04859" lon="2.52103">
        <ele>1.4</ele>
        <time>2020-06-23T13:14:08Z</time>
      </trkpt>
      <trkpt lat="51.04857" lon="2.52098">
        <ele>1.4</ele>
        <time>2020-06-23T13:14:09Z</time>
      </trkpt>
      <trkpt lat="51.04854" lon="2.52093">
        <ele>1.4</ele>
        <time>2020-06-23T13:14:10Z</time>
      </trkpt>
      <trkpt lat="51.04851" lon="2.52088">
        <ele>1.4</ele>
        <time>2020-06-23T13:14:11Z</time>
      </trkpt>
      <trkpt lat="51.0485" lon="2.52083">
        <ele>1.4</ele>
        <time>2020-06-23T13:14:12Z</time>
      </trkpt>
      <trkpt lat="51.04848" lon="2.52078">
        <ele>1.4</ele>
        <time>2020-06-23T13:14:13Z</time>
      </trkpt>
      <trkpt lat="51.04845" lon="2.52073">
        <ele>1.4</ele>
        <time>2020-06-23T13:14:14Z</time>
      </trkpt>
      <trkpt lat="51.04843" lon="2.52068">
        <ele>1.4</ele>
        <time>2020-06-23T13:14:15Z</time>
      </trkpt>
      <trkpt lat="51.04841" lon="2.52062">
        <ele>1.4</ele>
        <time>2020-06-23T13:14:16Z</time>
      </trkpt>
      <trkpt lat="51.04837" lon="2.52055">
        <ele>1.4</ele>
        <time>2020-06-23T13:14:17Z</time>
      </trkpt>
      <trkpt lat="51.04833" lon="2.52049">
        <ele>1.4</ele>
        <time>2020-06-23T13:14:18Z</time>
      </trkpt>
      <trkpt lat="51.04829" lon="2.52042">
        <ele>1.4</ele>
        <time>2020-06-23T13:14:19Z</time>
      </trkpt>
      <trkpt lat="51.04826" lon="2.52036">
        <ele>1.5</ele>
        <time>2020-06-23T13:14:20Z</time>
      </trkpt>
      <trkpt lat="51.04823" lon="2.5203">
        <ele>1.5</ele>
        <time>2020-06-23T13:14:21Z</time>
      </trkpt>
      <trkpt lat="51.04819" lon="2.52023">
        <ele>1.5</ele>
        <time>2020-06-23T13:14:22Z</time>
      </trkpt>
      <trkpt lat="51.04816" lon="2.52016">
        <ele>1.5</ele>
        <time>2020-06-23T13:14:23Z</time>
      </trkpt>
      <trkpt lat="51.04813" lon="2.5201">
        <ele>1.6</ele>
        <time>2020-06-23T13:14:24Z</time>
      </trkpt>
      <trkpt lat="51.04809" lon="2.52005">
        <ele>1.6</ele>
        <time>2020-06-23T13:14:25Z</time>
      </trkpt>
      <trkpt lat="51.04807" lon="2.51999">
        <ele>1.6</ele>
        <time>2020-06-23T13:14:26Z</time>
      </trkpt>
      <trkpt lat="51.04805" lon="2.51995">
        <ele>1.7</ele>
        <time>2020-06-23T13:14:27Z</time>
      </trkpt>
      <trkpt lat="51.04803" lon="2.51991">
        <ele>1.7</ele>
        <time>2020-06-23T13:14:28Z</time>
      </trkpt>
      <trkpt lat="51.04803" lon="2.51989">
        <ele>1.7</ele>
        <time>2020-06-23T13:14:29Z</time>
      </trkpt>
      <trkpt lat="51.04802" lon="2.51987">
        <ele>1.7</ele>
        <time>2020-06-23T13:14:30Z</time>
      </trkpt>
      <trkpt lat="51.04802" lon="2.51984">
        <ele>1.7</ele>
        <time>2020-06-23T13:14:31Z</time>
      </trkpt>
      <trkpt lat="51.04802" lon="2.51984">
        <ele>1.7</ele>
        <time>2020-06-23T13:14:32Z</time>
      </trkpt>
      <trkpt lat="51.04803" lon="2.51983">
        <ele>2.5</ele>
        <time>2020-06-23T13:14:33Z</time>
      </trkpt>
      <trkpt lat="51.04803" lon="2.51981">
        <ele>2.6</ele>
        <time>2020-06-23T13:14:34Z</time>
      </trkpt>
      <trkpt lat="51.04803" lon="2.5198">
        <ele>2.7</ele>
        <time>2020-06-23T13:14:35Z</time>
      </trkpt>
      <trkpt lat="51.04804" lon="2.51979">
        <ele>2.7</ele>
        <time>2020-06-23T13:14:36Z</time>
      </trkpt>
      <trkpt lat="51.04806" lon="2.51976">
        <ele>2.9</ele>
        <time>2020-06-23T13:14:37Z</time>
      </trkpt>
      <trkpt lat="51.04809" lon="2.51974">
        <ele>3</ele>
        <time>2020-06-23T13:14:38Z</time>
      </trkpt>
      <trkpt lat="51.04812" lon="2.5197">
        <ele>3.1</ele>
        <time>2020-06-23T13:14:39Z</time>
      </trkpt>
      <trkpt lat="51.04815" lon="2.51967">
        <ele>3.1</ele>
        <time>2020-06-23T13:14:40Z</time>
      </trkpt>
      <trkpt lat="51.04819" lon="2.51963">
        <ele>3</ele>
        <time>2020-06-23T13:14:41Z</time>
      </trkpt>
      <trkpt lat="51.04823" lon="2.51958">
        <ele>2.9</ele>
        <time>2020-06-23T13:14:42Z</time>
      </trkpt>
      <trkpt lat="51.04827" lon="2.51955">
        <ele>2.8</ele>
        <time>2020-06-23T13:14:43Z</time>
      </trkpt>
      <trkpt lat="51.04831" lon="2.5195">
        <ele>2.7</ele>
        <time>2020-06-23T13:14:44Z</time>
      </trkpt>
      <trkpt lat="51.04834" lon="2.51946">
        <ele>2.5</ele>
        <time>2020-06-23T13:14:45Z</time>
      </trkpt>
      <trkpt lat="51.04839" lon="2.51941">
        <ele>2.3</ele>
        <time>2020-06-23T13:14:46Z</time>
      </trkpt>
      <trkpt lat="51.04843" lon="2.51937">
        <ele>2.2</ele>
        <time>2020-06-23T13:14:47Z</time>
      </trkpt>
      <trkpt lat="51.04847" lon="2.51932">
        <ele>1.9</ele>
        <time>2020-06-23T13:14:48Z</time>
      </trkpt>
      <trkpt lat="51.04851" lon="2.51927">
        <ele>1.7</ele>
        <time>2020-06-23T13:14:49Z</time>
      </trkpt>
      <trkpt lat="51.04855" lon="2.51923">
        <ele>1.6</ele>
        <time>2020-06-23T13:14:50Z</time>
      </trkpt>
      <trkpt lat="51.0486" lon="2.5192">
        <ele>1.4</ele>
        <time>2020-06-23T13:14:51Z</time>
      </trkpt>
      <trkpt lat="51.04865" lon="2.5192">
        <ele>1.3</ele>
        <time>2020-06-23T13:14:52Z</time>
      </trkpt>
      <trkpt lat="51.0487" lon="2.5192">
        <ele>1.2</ele>
        <time>2020-06-23T13:14:53Z</time>
      </trkpt>
      <trkpt lat="51.04875" lon="2.51921">
        <ele>1.1</ele>
        <time>2020-06-23T13:14:54Z</time>
      </trkpt>
      <trkpt lat="51.04881" lon="2.51922">
        <ele>0.9</ele>
        <time>2020-06-23T13:14:55Z</time>
      </trkpt>
      <trkpt lat="51.04887" lon="2.51923">
        <ele>0.9</ele>
        <time>2020-06-23T13:14:56Z</time>
      </trkpt>
      <trkpt lat="51.04892" lon="2.51923">
        <ele>0.8</ele>
        <time>2020-06-23T13:14:57Z</time>
      </trkpt>
      <trkpt lat="51.04898" lon="2.51924">
        <ele>0.7</ele>
        <time>2020-06-23T13:14:58Z</time>
      </trkpt>
      <trkpt lat="51.04903" lon="2.51924">
        <ele>0.6</ele>
        <time>2020-06-23T13:14:59Z</time>
      </trkpt>
      <trkpt lat="51.04908" lon="2.51922">
        <ele>0.4</ele>
        <time>2020-06-23T13:15:00Z</time>
      </trkpt>
      <trkpt lat="51.04912" lon="2.51917">
        <ele>0.2</ele>
        <time>2020-06-23T13:15:01Z</time>
      </trkpt>
      <trkpt lat="51.04916" lon="2.51914">
        <ele>4</ele>
        <time>2020-06-23T13:15:02Z</time>
      </trkpt>
      <trkpt lat="51.04919" lon="2.51911">
        <ele>-0.2</ele>
        <time>2020-06-23T13:15:03Z</time>
      </trkpt>
      <trkpt lat="51.04922" lon="2.51908">
        <ele>-0.7</ele>
        <time>2020-06-23T13:15:04Z</time>
      </trkpt>
      <trkpt lat="51.04926" lon="2.51904">
        <ele>-0.7</ele>
        <time>2020-06-23T13:15:05Z</time>
      </trkpt>
      <trkpt lat="51.0493" lon="2.51899">
        <ele>-0.8</ele>
        <time>2020-06-23T13:15:06Z</time>
      </trkpt>
      <trkpt lat="51.04934" lon="2.51896">
        <ele>-0.8</ele>
        <time>2020-06-23T13:15:07Z</time>
      </trkpt>
      <trkpt lat="51.04938" lon="2.51892">
        <ele>-0.8</ele>
        <time>2020-06-23T13:15:08Z</time>
      </trkpt>
      <trkpt lat="51.04941" lon="2.51889">
        <ele>-0.8</ele>
        <time>2020-06-23T13:15:09Z</time>
      </trkpt>
      <trkpt lat="51.04944" lon="2.51887">
        <ele>-0.8</ele>
        <time>2020-06-23T13:15:10Z</time>
      </trkpt>
      <trkpt lat="51.04948" lon="2.51883">
        <ele>-0.8</ele>
        <time>2020-06-23T13:15:11Z</time>
      </trkpt>
      <trkpt lat="51.0495" lon="2.5188">
        <ele>-0.8</ele>
        <time>2020-06-23T13:15:12Z</time>
      </trkpt>
      <trkpt lat="51.04954" lon="2.51878">
        <ele>-0.8</ele>
        <time>2020-06-23T13:15:13Z</time>
      </trkpt>
      <trkpt lat="51.04958" lon="2.51876">
        <ele>-0.7</ele>
        <time>2020-06-23T13:15:14Z</time>
      </trkpt>
      <trkpt lat="51.04962" lon="2.51875">
        <ele>-0.7</ele>
        <time>2020-06-23T13:15:15Z</time>
      </trkpt>
      <trkpt lat="51.04966" lon="2.51874">
        <ele>-0.7</ele>
        <time>2020-06-23T13:15:16Z</time>
      </trkpt>
      <trkpt lat="51.0497" lon="2.51873">
        <ele>-0.6</ele>
        <time>2020-06-23T13:15:17Z</time>
      </trkpt>
      <trkpt lat="51.04974" lon="2.51871">
        <ele>-0.3</ele>
        <time>2020-06-23T13:15:18Z</time>
      </trkpt>
      <trkpt lat="51.04978" lon="2.5187">
        <ele>3.9</ele>
        <time>2020-06-23T13:15:19Z</time>
      </trkpt>
      <trkpt lat="51.04981" lon="2.51868">
        <ele>0.1</ele>
        <time>2020-06-23T13:15:20Z</time>
      </trkpt>
      <trkpt lat="51.04986" lon="2.51864">
        <ele>0.3</ele>
        <time>2020-06-23T13:15:21Z</time>
      </trkpt>
      <trkpt lat="51.04992" lon="2.51861">
        <ele>0.6</ele>
        <time>2020-06-23T13:15:22Z</time>
      </trkpt>
      <trkpt lat="51.04997" lon="2.51858">
        <ele>0.8</ele>
        <time>2020-06-23T13:15:23Z</time>
      </trkpt>
      <trkpt lat="51.05002" lon="2.51856">
        <ele>1.1</ele>
        <time>2020-06-23T13:15:24Z</time>
      </trkpt>
      <trkpt lat="51.05006" lon="2.51853">
        <ele>1.3</ele>
        <time>2020-06-23T13:15:25Z</time>
      </trkpt>
      <trkpt lat="51.05011" lon="2.5185">
        <ele>1.6</ele>
        <time>2020-06-23T13:15:26Z</time>
      </trkpt>
      <trkpt lat="51.05015" lon="2.51847">
        <ele>1.8</ele>
        <time>2020-06-23T13:15:27Z</time>
      </trkpt>
      <trkpt lat="51.0502" lon="2.51844">
        <ele>1.9</ele>
        <time>2020-06-23T13:15:28Z</time>
      </trkpt>
      <trkpt lat="51.05024" lon="2.51842">
        <ele>2</ele>
        <time>2020-06-23T13:15:29Z</time>
      </trkpt>
      <trkpt lat="51.05028" lon="2.5184">
        <ele>2.1</ele>
        <time>2020-06-23T13:15:30Z</time>
      </trkpt>
      <trkpt lat="51.05032" lon="2.51837">
        <ele>2.1</ele>
        <time>2020-06-23T13:15:31Z</time>
      </trkpt>
      <trkpt lat="51.05035" lon="2.51835">
        <ele>2</ele>
        <time>2020-06-23T13:15:32Z</time>
      </trkpt>
      <trkpt lat="51.05038" lon="2.51832">
        <ele>1.9</ele>
        <time>2020-06-23T13:15:33Z</time>
      </trkpt>
      <trkpt lat="51.05041" lon="2.5183">
        <ele>1.8</ele>
        <time>2020-06-23T13:15:34Z</time>
      </trkpt>
      <trkpt lat="51.05044" lon="2.51828">
        <ele>1.7</ele>
        <time>2020-06-23T13:15:35Z</time>
      </trkpt>
      <trkpt lat="51.05047" lon="2.51824">
        <ele>1.5</ele>
        <time>2020-06-23T13:15:36Z</time>
      </trkpt>
      <trkpt lat="51.0505" lon="2.5182">
        <ele>1.3</ele>
        <time>2020-06-23T13:15:37Z</time>
      </trkpt>
      <trkpt lat="51.05054" lon="2.51817">
        <ele>1.1</ele>
        <time>2020-06-23T13:15:38Z</time>
      </trkpt>
      <trkpt lat="51.05059" lon="2.51813">
        <ele>0.6</ele>
        <time>2020-06-23T13:15:39Z</time>
      </trkpt>
      <trkpt lat="51.05061" lon="2.51809">
        <ele>0.6</ele>
        <time>2020-06-23T13:15:40Z</time>
      </trkpt>
      <trkpt lat="51.05063" lon="2.51805">
        <ele>0.6</ele>
        <time>2020-06-23T13:15:41Z</time>
      </trkpt>
      <trkpt lat="51.05064" lon="2.51801">
        <ele>0.6</ele>
        <time>2020-06-23T13:15:42Z</time>
      </trkpt>
      <trkpt lat="51.05064" lon="2.51801">
        <ele>0.6</ele>
        <time>2020-06-23T13:15:43Z</time>
      </trkpt>
      <trkpt lat="51.05064" lon="2.518">
        <ele>0.6</ele>
        <time>2020-06-23T13:15:44Z</time>
      </trkpt>
      <trkpt lat="51.05063" lon="2.51799">
        <ele>0.6</ele>
        <time>2020-06-23T13:15:45Z</time>
      </trkpt>
      <trkpt lat="51.05063" lon="2.518">
        <ele>0.6</ele>
        <time>2020-06-23T13:15:46Z</time>
      </trkpt>
      <trkpt lat="51.05063" lon="2.51799">
        <ele>0.6</ele>
        <time>2020-06-23T13:15:47Z</time>
      </trkpt>
      <trkpt lat="51.05063" lon="2.51797">
        <ele>0.6</ele>
        <time>2020-06-23T13:15:48Z</time>
      </trkpt>
      <trkpt lat="51.05063" lon="2.51796">
        <ele>0.6</ele>
        <time>2020-06-23T13:15:49Z</time>
      </trkpt>
      <trkpt lat="51.05063" lon="2.51797">
        <ele>0.6</ele>
        <time>2020-06-23T13:15:50Z</time>
      </trkpt>
      <trkpt lat="51.05063" lon="2.51796">
        <ele>0.6</ele>
        <time>2020-06-23T13:15:51Z</time>
      </trkpt>
      <trkpt lat="51.05063" lon="2.51795">
        <ele>0.6</ele>
        <time>2020-06-23T13:15:52Z</time>
      </trkpt>
      <trkpt lat="51.05063" lon="2.51795">
        <ele>0.6</ele>
        <time>2020-06-23T13:15:53Z</time>
      </trkpt>
      <trkpt lat="51.05063" lon="2.51795">
        <ele>0.6</ele>
        <time>2020-06-23T13:15:54Z</time>
      </trkpt>
      <trkpt lat="51.05064" lon="2.51795">
        <ele>0.6</ele>
        <time>2020-06-23T13:15:55Z</time>
      </trkpt>
      <trkpt lat="51.05063" lon="2.51796">
        <ele>0.6</ele>
        <time>2020-06-23T13:15:56Z</time>
      </trkpt>
      <trkpt lat="51.05064" lon="2.51796">
        <ele>0.6</ele>
        <time>2020-06-23T13:15:57Z</time>
      </trkpt>
      <trkpt lat="51.05063" lon="2.51796">
        <ele>0.6</ele>
        <time>2020-06-23T13:15:58Z</time>
      </trkpt>
      <trkpt lat="51.05063" lon="2.51796">
        <ele>0.6</ele>
        <time>2020-06-23T13:15:59Z</time>
      </trkpt>
      <trkpt lat="51.05062" lon="2.51796">
        <ele>0.6</ele>
        <time>2020-06-23T13:16:00Z</time>
      </trkpt>
      <trkpt lat="51.05062" lon="2.51795">
        <ele>0.6</ele>
        <time>2020-06-23T13:16:01Z</time>
      </trkpt>
      <trkpt lat="51.05062" lon="2.51794">
        <ele>0.6</ele>
        <time>2020-06-23T13:16:02Z</time>
      </trkpt>
      <trkpt lat="51.05062" lon="2.51794">
        <ele>0.6</ele>
        <time>2020-06-23T13:16:03Z</time>
      </trkpt>
      <trkpt lat="51.05062" lon="2.51794">
        <ele>0.6</ele>
        <time>2020-06-23T13:16:04Z</time>
      </trkpt>
      <trkpt lat="51.05063" lon="2.51793">
        <ele>0.6</ele>
        <time>2020-06-23T13:16:05Z</time>
      </trkpt>
      <trkpt lat="51.05063" lon="2.51792">
        <ele>0.6</ele>
        <time>2020-06-23T13:16:06Z</time>
      </trkpt>
      <trkpt lat="51.05063" lon="2.51791">
        <ele>0.6</ele>
        <time>2020-06-23T13:16:07Z</time>
      </trkpt>
      <trkpt lat="51.05063" lon="2.5179">
        <ele>0.6</ele>
        <time>2020-06-23T13:16:08Z</time>
      </trkpt>
      <trkpt lat="51.05064" lon="2.5179">
        <ele>0.6</ele>
        <time>2020-06-23T13:16:09Z</time>
      </trkpt>
      <trkpt lat="51.05064" lon="2.51789">
        <ele>0.7</ele>
        <time>2020-06-23T13:16:10Z</time>
      </trkpt>
      <trkpt lat="51.05064" lon="2.51788">
        <ele>0.7</ele>
        <time>2020-06-23T13:16:11Z</time>
      </trkpt>
      <trkpt lat="51.05064" lon="2.51787">
        <ele>0.7</ele>
        <time>2020-06-23T13:16:12Z</time>
      </trkpt>
      <trkpt lat="51.05064" lon="2.51788">
        <ele>0.7</ele>
        <time>2020-06-23T13:16:13Z</time>
      </trkpt>
      <trkpt lat="51.05065" lon="2.51787">
        <ele>0.7</ele>
        <time>2020-06-23T13:16:14Z</time>
      </trkpt>
      <trkpt lat="51.05065" lon="2.51786">
        <ele>0.7</ele>
        <time>2020-06-23T13:16:15Z</time>
      </trkpt>
      <trkpt lat="51.05065" lon="2.51785">
        <ele>0.7</ele>
        <time>2020-06-23T13:16:16Z</time>
      </trkpt>
      <trkpt lat="51.05065" lon="2.51783">
        <ele>0.7</ele>
        <time>2020-06-23T13:16:17Z</time>
      </trkpt>
      <trkpt lat="51.05066" lon="2.51783">
        <ele>0.7</ele>
        <time>2020-06-23T13:16:18Z</time>
      </trkpt>
      <trkpt lat="51.05065" lon="2.51785">
        <ele>0.7</ele>
        <time>2020-06-23T13:16:19Z</time>
      </trkpt>
      <trkpt lat="51.05064" lon="2.51788">
        <ele>0.7</ele>
        <time>2020-06-23T13:16:20Z</time>
      </trkpt>
      <trkpt lat="51.05062" lon="2.5179">
        <ele>0.7</ele>
        <time>2020-06-23T13:16:21Z</time>
      </trkpt>
      <trkpt lat="51.05061" lon="2.51793">
        <ele>0.7</ele>
        <time>2020-06-23T13:16:22Z</time>
      </trkpt>
      <trkpt lat="51.0506" lon="2.51796">
        <ele>0.7</ele>
        <time>2020-06-23T13:16:23Z</time>
      </trkpt>
      <trkpt lat="51.05059" lon="2.51798">
        <ele>0.7</ele>
        <time>2020-06-23T13:16:24Z</time>
      </trkpt>
      <trkpt lat="51.05058" lon="2.51801">
        <ele>0.7</ele>
        <time>2020-06-23T13:16:25Z</time>
      </trkpt>
      <trkpt lat="51.05057" lon="2.51804">
        <ele>0.7</ele>
        <time>2020-06-23T13:16:26Z</time>
      </trkpt>
      <trkpt lat="51.05056" lon="2.51807">
        <ele>0.7</ele>
        <time>2020-06-23T13:16:27Z</time>
      </trkpt>
      <trkpt lat="51.05055" lon="2.51809">
        <ele>0.7</ele>
        <time>2020-06-23T13:16:28Z</time>
      </trkpt>
      <trkpt lat="51.05054" lon="2.51812">
        <ele>0.7</ele>
        <time>2020-06-23T13:16:29Z</time>
      </trkpt>
      <trkpt lat="51.05052" lon="2.51815">
        <ele>0.7</ele>
        <time>2020-06-23T13:16:30Z</time>
      </trkpt>
      <trkpt lat="51.05051" lon="2.51818">
        <ele>0.7</ele>
        <time>2020-06-23T13:16:31Z</time>
      </trkpt>
      <trkpt lat="51.0505" lon="2.5182">
        <ele>0.7</ele>
        <time>2020-06-23T13:16:32Z</time>
      </trkpt>
      <trkpt lat="51.05049" lon="2.51823">
        <ele>0.7</ele>
        <time>2020-06-23T13:16:33Z</time>
      </trkpt>
      <trkpt lat="51.05048" lon="2.51826">
        <ele>0.7</ele>
        <time>2020-06-23T13:16:34Z</time>
      </trkpt>
      <trkpt lat="51.05047" lon="2.51828">
        <ele>0.7</ele>
        <time>2020-06-23T13:16:35Z</time>
      </trkpt>
      <trkpt lat="51.05046" lon="2.51831">
        <ele>0.7</ele>
        <time>2020-06-23T13:16:36Z</time>
      </trkpt>
      <trkpt lat="51.05045" lon="2.51834">
        <ele>0.7</ele>
        <time>2020-06-23T13:16:37Z</time>
      </trkpt>
      <trkpt lat="51.05044" lon="2.51837">
        <ele>0.7</ele>
        <time>2020-06-23T13:17:52Z</time>
      </trkpt>
      <trkpt lat="51.05042" lon="2.51839">
        <ele>0.7</ele>
        <time>2020-06-23T13:17:53Z</time>
      </trkpt>
      <trkpt lat="51.05043" lon="2.51835">
        <ele>0.7</ele>
        <time>2020-06-23T13:17:54Z</time>
      </trkpt>
      <trkpt lat="51.05041" lon="2.5183">
        <ele>0.7</ele>
        <time>2020-06-23T13:17:55Z</time>
      </trkpt>
      <trkpt lat="51.05041" lon="2.51828">
        <ele>0.7</ele>
        <time>2020-06-23T13:17:56Z</time>
      </trkpt>
      <trkpt lat="51.05041" lon="2.51824">
        <ele>0.7</ele>
        <time>2020-06-23T13:17:57Z</time>
      </trkpt>
      <trkpt lat="51.05041" lon="2.51822">
        <ele>0.7</ele>
        <time>2020-06-23T13:17:58Z</time>
      </trkpt>
      <trkpt lat="51.05041" lon="2.51821">
        <ele>0.7</ele>
        <time>2020-06-23T13:17:59Z</time>
      </trkpt>
      <trkpt lat="51.0504" lon="2.5182">
        <ele>0.8</ele>
        <time>2020-06-23T13:18:00Z</time>
      </trkpt>
      <trkpt lat="51.0504" lon="2.51818">
        <ele>0.8</ele>
        <time>2020-06-23T13:18:01Z</time>
      </trkpt>
      <trkpt lat="51.05038" lon="2.51815">
        <ele>0.8</ele>
        <time>2020-06-23T13:18:02Z</time>
      </trkpt>
      <trkpt lat="51.05037" lon="2.51811">
        <ele>0.8</ele>
        <time>2020-06-23T13:18:03Z</time>
      </trkpt>
      <trkpt lat="51.05037" lon="2.51809">
        <ele>0.8</ele>
        <time>2020-06-23T13:18:04Z</time>
      </trkpt>
      <trkpt lat="51.05039" lon="2.51808">
        <ele>0.8</ele>
        <time>2020-06-23T13:18:05Z</time>
      </trkpt>
      <trkpt lat="51.0504" lon="2.51808">
        <ele>0.8</ele>
        <time>2020-06-23T13:18:06Z</time>
      </trkpt>
      <trkpt lat="51.05041" lon="2.51807">
        <ele>0.8</ele>
        <time>2020-06-23T13:18:07Z</time>
      </trkpt>
      <trkpt lat="51.05042" lon="2.51806">
        <ele>0.8</ele>
        <time>2020-06-23T13:18:08Z</time>
      </trkpt>
      <trkpt lat="51.05043" lon="2.51805">
        <ele>0.8</ele>
        <time>2020-06-23T13:18:09Z</time>
      </trkpt>
      <trkpt lat="51.05045" lon="2.51804">
        <ele>0.8</ele>
        <time>2020-06-23T13:18:10Z</time>
      </trkpt>
      <trkpt lat="51.05046" lon="2.51803">
        <ele>0.8</ele>
        <time>2020-06-23T13:24:40Z</time>
      </trkpt>
      <trkpt lat="51.05047" lon="2.51802">
        <ele>0.8</ele>
        <time>2020-06-23T13:24:41Z</time>
      </trkpt>
      <trkpt lat="51.05048" lon="2.51802">
        <ele>0.8</ele>
        <time>2020-06-23T13:24:42Z</time>
      </trkpt>
      <trkpt lat="51.05049" lon="2.51801">
        <ele>0.8</ele>
        <time>2020-06-23T13:24:43Z</time>
      </trkpt>
      <trkpt lat="51.05051" lon="2.518">
        <ele>0.8</ele>
        <time>2020-06-23T13:24:44Z</time>
      </trkpt>
      <trkpt lat="51.05052" lon="2.51799">
        <ele>0.8</ele>
        <time>2020-06-23T13:24:45Z</time>
      </trkpt>
      <trkpt lat="51.05053" lon="2.51798">
        <ele>0.8</ele>
        <time>2020-06-23T13:24:46Z</time>
      </trkpt>
      <trkpt lat="51.05054" lon="2.51797">
        <ele>0.8</ele>
        <time>2020-06-23T13:24:47Z</time>
      </trkpt>
      <trkpt lat="51.05055" lon="2.51796">
        <ele>0.8</ele>
        <time>2020-06-23T13:24:48Z</time>
      </trkpt>
      <trkpt lat="51.05057" lon="2.51795">
        <ele>0.8</ele>
        <time>2020-06-23T13:24:49Z</time>
      </trkpt>
      <trkpt lat="51.05057" lon="2.51794">
        <ele>0.8</ele>
        <time>2020-06-23T13:24:50Z</time>
      </trkpt>
      <trkpt lat="51.05058" lon="2.51792">
        <ele>0.8</ele>
        <time>2020-06-23T13:24:51Z</time>
      </trkpt>
      <trkpt lat="51.05059" lon="2.5179">
        <ele>0.8</ele>
        <time>2020-06-23T13:24:52Z</time>
      </trkpt>
      <trkpt lat="51.0506" lon="2.51789">
        <ele>0.8</ele>
        <time>2020-06-23T13:24:53Z</time>
      </trkpt>
      <trkpt lat="51.0506" lon="2.51787">
        <ele>0.8</ele>
        <time>2020-06-23T13:24:54Z</time>
      </trkpt>
      <trkpt lat="51.05061" lon="2.51785">
        <ele>0.8</ele>
        <time>2020-06-23T13:24:55Z</time>
      </trkpt>
      <trkpt lat="51.05062" lon="2.51783">
        <ele>0.8</ele>
        <time>2020-06-23T13:24:56Z</time>
      </trkpt>
      <trkpt lat="51.05063" lon="2.51781">
        <ele>0.8</ele>
        <time>2020-06-23T13:24:57Z</time>
      </trkpt>
      <trkpt lat="51.05064" lon="2.51779">
        <ele>0.8</ele>
        <time>2020-06-23T13:24:58Z</time>
      </trkpt>
      <trkpt lat="51.05065" lon="2.51777">
        <ele>0.8</ele>
        <time>2020-06-23T13:24:59Z</time>
      </trkpt>
      <trkpt lat="51.05066" lon="2.51775">
        <ele>0.8</ele>
        <time>2020-06-23T13:25:00Z</time>
      </trkpt>
      <trkpt lat="51.05067" lon="2.51773">
        <ele>0.8</ele>
        <time>2020-06-23T13:25:01Z</time>
      </trkpt>
      <trkpt lat="51.05068" lon="2.51771">
        <ele>0.8</ele>
        <time>2020-06-23T13:25:02Z</time>
      </trkpt>
      <trkpt lat="51.05069" lon="2.51769">
        <ele>0.8</ele>
        <time>2020-06-23T13:25:03Z</time>
      </trkpt>
      <trkpt lat="51.0507" lon="2.51767">
        <ele>0.8</ele>
        <time>2020-06-23T13:25:04Z</time>
      </trkpt>
      <trkpt lat="51.0507" lon="2.51765">
        <ele>0.8</ele>
        <time>2020-06-23T13:25:05Z</time>
      </trkpt>
      <trkpt lat="51.05071" lon="2.51764">
        <ele>0.8</ele>
        <time>2020-06-23T13:25:06Z</time>
      </trkpt>
      <trkpt lat="51.05072" lon="2.51762">
        <ele>0.8</ele>
        <time>2020-06-23T13:32:43Z</time>
      </trkpt>
      <trkpt lat="51.05073" lon="2.5176">
        <ele>0.8</ele>
        <time>2020-06-23T13:32:44Z</time>
      </trkpt>
      <trkpt lat="51.05074" lon="2.51758">
        <ele>0.8</ele>
        <time>2020-06-23T13:32:45Z</time>
      </trkpt>
      <trkpt lat="51.05075" lon="2.51756">
        <ele>0.9</ele>
        <time>2020-06-23T13:32:46Z</time>
      </trkpt>
      <trkpt lat="51.05076" lon="2.51754">
        <ele>0.9</ele>
        <time>2020-06-23T13:32:47Z</time>
      </trkpt>
      <trkpt lat="51.05076" lon="2.51753">
        <ele>0.9</ele>
        <time>2020-06-23T13:32:48Z</time>
      </trkpt>
      <trkpt lat="51.05077" lon="2.51753">
        <ele>0.9</ele>
        <time>2020-06-23T13:32:49Z</time>
      </trkpt>
      <trkpt lat="51.05077" lon="2.51752">
        <ele>0.9</ele>
        <time>2020-06-23T13:32:50Z</time>
      </trkpt>
      <trkpt lat="51.05077" lon="2.51752">
        <ele>0.9</ele>
        <time>2020-06-23T13:32:51Z</time>
      </trkpt>
      <trkpt lat="51.05077" lon="2.51752">
        <ele>0.9</ele>
        <time>2020-06-23T13:32:52Z</time>
      </trkpt>
      <trkpt lat="51.05077" lon="2.51752">
        <ele>0.9</ele>
        <time>2020-06-23T13:32:53Z</time>
      </trkpt>
      <trkpt lat="51.05077" lon="2.51751">
        <ele>0.9</ele>
        <time>2020-06-23T13:32:54Z</time>
      </trkpt>
      <trkpt lat="51.05075" lon="2.5175">
        <ele>0.9</ele>
        <time>2020-06-23T13:32:55Z</time>
      </trkpt>
      <trkpt lat="51.05074" lon="2.51747">
        <ele>0.9</ele>
        <time>2020-06-23T13:32:56Z</time>
      </trkpt>
      <trkpt lat="51.05074" lon="2.51746">
        <ele>0.9</ele>
        <time>2020-06-23T13:32:57Z</time>
      </trkpt>
      <trkpt lat="51.05073" lon="2.51745">
        <ele>0.9</ele>
        <time>2020-06-23T13:32:58Z</time>
      </trkpt>
      <trkpt lat="51.05073" lon="2.51744">
        <ele>0.9</ele>
        <time>2020-06-23T13:32:59Z</time>
      </trkpt>
      <trkpt lat="51.05071" lon="2.51741">
        <ele>0.9</ele>
        <time>2020-06-23T13:33:00Z</time>
      </trkpt>
      <trkpt lat="51.05069" lon="2.51739">
        <ele>0.9</ele>
        <time>2020-06-23T13:33:01Z</time>
      </trkpt>
      <trkpt lat="51.05068" lon="2.51738">
        <ele>0.9</ele>
        <time>2020-06-23T13:33:02Z</time>
      </trkpt>
      <trkpt lat="51.05068" lon="2.51737">
        <ele>0.9</ele>
        <time>2020-06-23T13:33:03Z</time>
      </trkpt>
      <trkpt lat="51.05067" lon="2.51735">
        <ele>0.9</ele>
        <time>2020-06-23T13:33:04Z</time>
      </trkpt>
      <trkpt lat="51.05067" lon="2.51736">
        <ele>0.9</ele>
        <time>2020-06-23T13:33:05Z</time>
      </trkpt>
      <trkpt lat="51.05066" lon="2.51736">
        <ele>0.9</ele>
        <time>2020-06-23T13:33:06Z</time>
      </trkpt>
      <trkpt lat="51.05066" lon="2.51736">
        <ele>0.9</ele>
        <time>2020-06-23T13:33:07Z</time>
      </trkpt>
      <trkpt lat="51.05065" lon="2.51735">
        <ele>0.9</ele>
        <time>2020-06-23T13:33:08Z</time>
      </trkpt>
      <trkpt lat="51.05064" lon="2.51732">
        <ele>0.9</ele>
        <time>2020-06-23T13:33:09Z</time>
      </trkpt>
      <trkpt lat="51.05063" lon="2.51731">
        <ele>0.9</ele>
        <time>2020-06-23T13:33:10Z</time>
      </trkpt>
      <trkpt lat="51.05062" lon="2.51728">
        <ele>0.9</ele>
        <time>2020-06-23T13:33:11Z</time>
      </trkpt>
      <trkpt lat="51.05061" lon="2.51726">
        <ele>0.9</ele>
        <time>2020-06-23T13:33:12Z</time>
      </trkpt>
      <trkpt lat="51.05061" lon="2.51725">
        <ele>0.9</ele>
        <time>2020-06-23T13:33:13Z</time>
      </trkpt>
      <trkpt lat="51.05062" lon="2.51725">
        <ele>0.8</ele>
        <time>2020-06-23T13:33:14Z</time>
      </trkpt>
      <trkpt lat="51.05062" lon="2.51725">
        <ele>0.8</ele>
        <time>2020-06-23T13:33:15Z</time>
      </trkpt>
      <trkpt lat="51.05063" lon="2.51726">
        <ele>0.8</ele>
        <time>2020-06-23T13:33:16Z</time>
      </trkpt>
      <trkpt lat="51.05063" lon="2.51726">
        <ele>0.8</ele>
        <time>2020-06-23T13:33:17Z</time>
      </trkpt>
      <trkpt lat="51.05064" lon="2.51727">
        <ele>0.8</ele>
        <time>2020-06-23T13:33:18Z</time>
      </trkpt>
      <trkpt lat="51.05065" lon="2.51727">
        <ele>0.8</ele>
        <time>2020-06-23T13:33:19Z</time>
      </trkpt>
      <trkpt lat="51.05065" lon="2.51728">
        <ele>0.8</ele>
        <time>2020-06-23T13:33:20Z</time>
      </trkpt>
      <trkpt lat="51.05066" lon="2.51729">
        <ele>0.8</ele>
        <time>2020-06-23T13:33:21Z</time>
      </trkpt>
      <trkpt lat="51.05066" lon="2.51729">
        <ele>0.8</ele>
        <time>2020-06-23T13:33:22Z</time>
      </trkpt>
      <trkpt lat="51.05066" lon="2.51729">
        <ele>0.8</ele>
        <time>2020-06-23T13:33:23Z</time>
      </trkpt>
      <trkpt lat="51.05066" lon="2.51729">
        <ele>0.8</ele>
        <time>2020-06-23T13:33:24Z</time>
      </trkpt>
      <trkpt lat="51.05066" lon="2.51729">
        <ele>0.8</ele>
        <time>2020-06-23T13:33:25Z</time>
      </trkpt>
      <trkpt lat="51.05066" lon="2.51729">
        <ele>0.8</ele>
        <time>2020-06-23T13:33:26Z</time>
      </trkpt>
      <trkpt lat="51.05066" lon="2.51729">
        <ele>0.8</ele>
        <time>2020-06-23T13:33:27Z</time>
      </trkpt>
      <trkpt lat="51.05067" lon="2.5173">
        <ele>0.8</ele>
        <time>2020-06-23T13:33:28Z</time>
      </trkpt>
      <trkpt lat="51.05067" lon="2.5173">
        <ele>0.8</ele>
        <time>2020-06-23T13:33:29Z</time>
      </trkpt>
      <trkpt lat="51.05049" lon="2.51814">
        <ele>0.6</ele>
        <time>2020-06-23T13:40:43Z</time>
      </trkpt>
      <trkpt lat="51.05048" lon="2.51814">
        <ele>0.6</ele>
        <time>2020-06-23T13:40:44Z</time>
      </trkpt>
      <trkpt lat="51.05047" lon="2.51814">
        <ele>1.2</ele>
        <time>2020-06-23T13:40:45Z</time>
      </trkpt>
      <trkpt lat="51.05047" lon="2.51814">
        <ele>1.2</ele>
        <time>2020-06-23T13:40:46Z</time>
      </trkpt>
      <trkpt lat="51.05046" lon="2.51815">
        <ele>1.3</ele>
        <time>2020-06-23T13:40:47Z</time>
      </trkpt>
      <trkpt lat="51.05044" lon="2.51816">
        <ele>1.4</ele>
        <time>2020-06-23T13:40:48Z</time>
      </trkpt>
      <trkpt lat="51.05041" lon="2.51819">
        <ele>1.5</ele>
        <time>2020-06-23T13:40:49Z</time>
      </trkpt>
      <trkpt lat="51.0504" lon="2.5182">
        <ele>1.6</ele>
        <time>2020-06-23T13:40:50Z</time>
      </trkpt>
      <trkpt lat="51.05039" lon="2.51821">
        <ele>1.6</ele>
        <time>2020-06-23T13:40:51Z</time>
      </trkpt>
      <trkpt lat="51.05038" lon="2.51824">
        <ele>1.7</ele>
        <time>2020-06-23T13:40:52Z</time>
      </trkpt>
      <trkpt lat="51.05037" lon="2.51826">
        <ele>1.8</ele>
        <time>2020-06-23T13:40:53Z</time>
      </trkpt>
      <trkpt lat="51.05036" lon="2.51827">
        <ele>1.8</ele>
        <time>2020-06-23T13:40:54Z</time>
      </trkpt>
      <trkpt lat="51.05036" lon="2.51828">
        <ele>1.9</ele>
        <time>2020-06-23T13:40:55Z</time>
      </trkpt>
      <trkpt lat="51.05034" lon="2.5183">
        <ele>1.9</ele>
        <time>2020-06-23T13:40:56Z</time>
      </trkpt>
      <trkpt lat="51.05033" lon="2.51831">
        <ele>1.9</ele>
        <time>2020-06-23T13:40:57Z</time>
      </trkpt>
      <trkpt lat="51.05032" lon="2.51832">
        <ele>2</ele>
        <time>2020-06-23T13:40:58Z</time>
      </trkpt>
      <trkpt lat="51.05033" lon="2.51836">
        <ele>2</ele>
        <time>2020-06-23T13:40:59Z</time>
      </trkpt>
      <trkpt lat="51.0503" lon="2.51837">
        <ele>2.1</ele>
        <time>2020-06-23T13:41:00Z</time>
      </trkpt>
      <trkpt lat="51.05029" lon="2.51838">
        <ele>2.1</ele>
        <time>2020-06-23T13:41:01Z</time>
      </trkpt>
      <trkpt lat="51.05027" lon="2.5184">
        <ele>2.1</ele>
        <time>2020-06-23T13:41:02Z</time>
      </trkpt>
      <trkpt lat="51.05026" lon="2.51841">
        <ele>2.1</ele>
        <time>2020-06-23T13:41:03Z</time>
      </trkpt>
      <trkpt lat="51.05023" lon="2.51842">
        <ele>2</ele>
        <time>2020-06-23T13:41:04Z</time>
      </trkpt>
      <trkpt lat="51.05022" lon="2.51842">
        <ele>2</ele>
        <time>2020-06-23T13:41:05Z</time>
      </trkpt>
      <trkpt lat="51.05019" lon="2.51844">
        <ele>1.9</ele>
        <time>2020-06-23T13:41:06Z</time>
      </trkpt>
      <trkpt lat="51.05018" lon="2.51844">
        <ele>1.9</ele>
        <time>2020-06-23T13:41:07Z</time>
      </trkpt>
      <trkpt lat="51.05016" lon="2.51847">
        <ele>1.8</ele>
        <time>2020-06-23T13:41:08Z</time>
      </trkpt>
      <trkpt lat="51.05015" lon="2.51848">
        <ele>1.8</ele>
        <time>2020-06-23T13:41:09Z</time>
      </trkpt>
      <trkpt lat="51.05014" lon="2.5185">
        <ele>1.7</ele>
        <time>2020-06-23T13:41:10Z</time>
      </trkpt>
      <trkpt lat="51.05012" lon="2.5185">
        <ele>1.6</ele>
        <time>2020-06-23T13:41:11Z</time>
      </trkpt>
      <trkpt lat="51.05008" lon="2.51852">
        <ele>1.5</ele>
        <time>2020-06-23T13:41:12Z</time>
      </trkpt>
      <trkpt lat="51.05007" lon="2.51853">
        <ele>1.4</ele>
        <time>2020-06-23T13:41:13Z</time>
      </trkpt>
      <trkpt lat="51.05004" lon="2.51855">
        <ele>1.2</ele>
        <time>2020-06-23T13:41:14Z</time>
      </trkpt>
      <trkpt lat="51.05001" lon="2.51858">
        <ele>1</ele>
        <time>2020-06-23T13:41:15Z</time>
      </trkpt>
      <trkpt lat="51.04998" lon="2.5186">
        <ele>0.8</ele>
        <time>2020-06-23T13:41:16Z</time>
      </trkpt>
      <trkpt lat="51.04995" lon="2.51863">
        <ele>0.7</ele>
        <time>2020-06-23T13:41:17Z</time>
      </trkpt>
      <trkpt lat="51.04992" lon="2.51864">
        <ele>0.5</ele>
        <time>2020-06-23T13:41:18Z</time>
      </trkpt>
      <trkpt lat="51.04988" lon="2.51866">
        <ele>0.4</ele>
        <time>2020-06-23T13:41:19Z</time>
      </trkpt>
      <trkpt lat="51.04984" lon="2.51868">
        <ele>0.3</ele>
        <time>2020-06-23T13:41:20Z</time>
      </trkpt>
      <trkpt lat="51.0498" lon="2.51869">
        <ele>0.1</ele>
        <time>2020-06-23T13:41:21Z</time>
      </trkpt>
      <trkpt lat="51.04976" lon="2.51869">
        <ele>-0.1</ele>
        <time>2020-06-23T13:41:22Z</time>
      </trkpt>
      <trkpt lat="51.04972" lon="2.51869">
        <ele>-0.5</ele>
        <time>2020-06-23T13:41:23Z</time>
      </trkpt>
      <trkpt lat="51.04968" lon="2.51871">
        <ele>-0.6</ele>
        <time>2020-06-23T13:41:24Z</time>
      </trkpt>
      <trkpt lat="51.04965" lon="2.51873">
        <ele>-0.7</ele>
        <time>2020-06-23T13:41:25Z</time>
      </trkpt>
      <trkpt lat="51.0496" lon="2.51877">
        <ele>-0.7</ele>
        <time>2020-06-23T13:41:26Z</time>
      </trkpt>
      <trkpt lat="51.04956" lon="2.51879">
        <ele>-0.8</ele>
        <time>2020-06-23T13:41:27Z</time>
      </trkpt>
      <trkpt lat="51.04953" lon="2.51883">
        <ele>-0.8</ele>
        <time>2020-06-23T13:41:28Z</time>
      </trkpt>
      <trkpt lat="51.04949" lon="2.51885">
        <ele>-0.8</ele>
        <time>2020-06-23T13:41:29Z</time>
      </trkpt>
      <trkpt lat="51.04946" lon="2.51888">
        <ele>-0.8</ele>
        <time>2020-06-23T13:41:30Z</time>
      </trkpt>
      <trkpt lat="51.04943" lon="2.51891">
        <ele>-0.8</ele>
        <time>2020-06-23T13:41:31Z</time>
      </trkpt>
      <trkpt lat="51.0494" lon="2.51894">
        <ele>-0.8</ele>
        <time>2020-06-23T13:41:32Z</time>
      </trkpt>
      <trkpt lat="51.04937" lon="2.51896">
        <ele>-0.8</ele>
        <time>2020-06-23T13:41:33Z</time>
      </trkpt>
      <trkpt lat="51.04934" lon="2.51898">
        <ele>-0.8</ele>
        <time>2020-06-23T13:41:34Z</time>
      </trkpt>
      <trkpt lat="51.04932" lon="2.51901">
        <ele>-0.8</ele>
        <time>2020-06-23T13:41:35Z</time>
      </trkpt>
      <trkpt lat="51.04929" lon="2.51904">
        <ele>-0.7</ele>
        <time>2020-06-23T13:41:36Z</time>
      </trkpt>
      <trkpt lat="51.04925" lon="2.51907">
        <ele>-0.4</ele>
        <time>2020-06-23T13:41:37Z</time>
      </trkpt>
      <trkpt lat="51.04921" lon="2.5191">
        <ele>-0.1</ele>
        <time>2020-06-23T13:41:38Z</time>
      </trkpt>
      <trkpt lat="51.04917" lon="2.51913">
        <ele>0.1</ele>
        <time>2020-06-23T13:41:39Z</time>
      </trkpt>
      <trkpt lat="51.04914" lon="2.51917">
        <ele>0.3</ele>
        <time>2020-06-23T13:41:40Z</time>
      </trkpt>
      <trkpt lat="51.0491" lon="2.51921">
        <ele>0.4</ele>
        <time>2020-06-23T13:41:41Z</time>
      </trkpt>
      <trkpt lat="51.04907" lon="2.51924">
        <ele>0.5</ele>
        <time>2020-06-23T13:41:42Z</time>
      </trkpt>
      <trkpt lat="51.04903" lon="2.51927">
        <ele>0.6</ele>
        <time>2020-06-23T13:41:43Z</time>
      </trkpt>
      <trkpt lat="51.04899" lon="2.51927">
        <ele>0.7</ele>
        <time>2020-06-23T13:41:44Z</time>
      </trkpt>
      <trkpt lat="51.04894" lon="2.51926">
        <ele>0.8</ele>
        <time>2020-06-23T13:41:45Z</time>
      </trkpt>
      <trkpt lat="51.04889" lon="2.51923">
        <ele>0.9</ele>
        <time>2020-06-23T13:41:46Z</time>
      </trkpt>
      <trkpt lat="51.04883" lon="2.51921">
        <ele>1</ele>
        <time>2020-06-23T13:41:47Z</time>
      </trkpt>
      <trkpt lat="51.04878" lon="2.51919">
        <ele>1.1</ele>
        <time>2020-06-23T13:41:48Z</time>
      </trkpt>
      <trkpt lat="51.04873" lon="2.51918">
        <ele>1.2</ele>
        <time>2020-06-23T13:41:49Z</time>
      </trkpt>
      <trkpt lat="51.04868" lon="2.5192">
        <ele>1.3</ele>
        <time>2020-06-23T13:41:50Z</time>
      </trkpt>
      <trkpt lat="51.04862" lon="2.51922">
        <ele>1.4</ele>
        <time>2020-06-23T13:41:51Z</time>
      </trkpt>
      <trkpt lat="51.04858" lon="2.51924">
        <ele>1.6</ele>
        <time>2020-06-23T13:41:52Z</time>
      </trkpt>
      <trkpt lat="51.04854" lon="2.51926">
        <ele>1.7</ele>
        <time>2020-06-23T13:41:53Z</time>
      </trkpt>
      <trkpt lat="51.04849" lon="2.51931">
        <ele>1.9</ele>
        <time>2020-06-23T13:41:54Z</time>
      </trkpt>
      <trkpt lat="51.04846" lon="2.51935">
        <ele>2.1</ele>
        <time>2020-06-23T13:41:55Z</time>
      </trkpt>
      <trkpt lat="51.04843" lon="2.51939">
        <ele>2.2</ele>
        <time>2020-06-23T13:41:56Z</time>
      </trkpt>
      <trkpt lat="51.04841" lon="2.51944">
        <ele>2.4</ele>
        <time>2020-06-23T13:41:57Z</time>
      </trkpt>
      <trkpt lat="51.04838" lon="2.51948">
        <ele>2.5</ele>
        <time>2020-06-23T13:41:58Z</time>
      </trkpt>
      <trkpt lat="51.04835" lon="2.51953">
        <ele>2.6</ele>
        <time>2020-06-23T13:41:59Z</time>
      </trkpt>
      <trkpt lat="51.04831" lon="2.51957">
        <ele>2.8</ele>
        <time>2020-06-23T13:42:00Z</time>
      </trkpt>
      <trkpt lat="51.04826" lon="2.51962">
        <ele>2.9</ele>
        <time>2020-06-23T13:42:01Z</time>
      </trkpt>
      <trkpt lat="51.04822" lon="2.51967">
        <ele>3</ele>
        <time>2020-06-23T13:42:02Z</time>
      </trkpt>
      <trkpt lat="51.04819" lon="2.51971">
        <ele>3</ele>
        <time>2020-06-23T13:42:03Z</time>
      </trkpt>
      <trkpt lat="51.04815" lon="2.51974">
        <ele>3.1</ele>
        <time>2020-06-23T13:42:04Z</time>
      </trkpt>
      <trkpt lat="51.04812" lon="2.51978">
        <ele>3</ele>
        <time>2020-06-23T13:42:05Z</time>
      </trkpt>
      <trkpt lat="51.04808" lon="2.51982">
        <ele>2.9</ele>
        <time>2020-06-23T13:42:06Z</time>
      </trkpt>
      <trkpt lat="51.04805" lon="2.51987">
        <ele>2.6</ele>
        <time>2020-06-23T13:42:07Z</time>
      </trkpt>
      <trkpt lat="51.04804" lon="2.51991">
        <ele>2.3</ele>
        <time>2020-06-23T13:42:08Z</time>
      </trkpt>
      <trkpt lat="51.04801" lon="2.51996">
        <ele>1.8</ele>
        <time>2020-06-23T13:42:09Z</time>
      </trkpt>
      <trkpt lat="51.04801" lon="2.51998">
        <ele>1.7</ele>
        <time>2020-06-23T13:42:10Z</time>
      </trkpt>
      <trkpt lat="51.04801" lon="2.52004">
        <ele>1.7</ele>
        <time>2020-06-23T13:42:11Z</time>
      </trkpt>
      <trkpt lat="51.04801" lon="2.52006">
        <ele>1.7</ele>
        <time>2020-06-23T13:42:12Z</time>
      </trkpt>
      <trkpt lat="51.04804" lon="2.52012">
        <ele>1.6</ele>
        <time>2020-06-23T13:42:13Z</time>
      </trkpt>
      <trkpt lat="51.04808" lon="2.52018">
        <ele>1.6</ele>
        <time>2020-06-23T13:42:14Z</time>
      </trkpt>
      <trkpt lat="51.04811" lon="2.52026">
        <ele>1.6</ele>
        <time>2020-06-23T13:42:15Z</time>
      </trkpt>
      <trkpt lat="51.04815" lon="2.52032">
        <ele>1.5</ele>
        <time>2020-06-23T13:42:16Z</time>
      </trkpt>
      <trkpt lat="51.04819" lon="2.52038">
        <ele>1.5</ele>
        <time>2020-06-23T13:42:17Z</time>
      </trkpt>
      <trkpt lat="51.04825" lon="2.52045">
        <ele>1.5</ele>
        <time>2020-06-23T13:42:18Z</time>
      </trkpt>
      <trkpt lat="51.04829" lon="2.52052">
        <ele>1.4</ele>
        <time>2020-06-23T13:42:19Z</time>
      </trkpt>
      <trkpt lat="51.04832" lon="2.52059">
        <ele>1.4</ele>
        <time>2020-06-23T13:42:20Z</time>
      </trkpt>
      <trkpt lat="51.04836" lon="2.52067">
        <ele>1.4</ele>
        <time>2020-06-23T13:42:21Z</time>
      </trkpt>
      <trkpt lat="51.04839" lon="2.52075">
        <ele>1.4</ele>
        <time>2020-06-23T13:42:22Z</time>
      </trkpt>
      <trkpt lat="51.04842" lon="2.52082">
        <ele>1.4</ele>
        <time>2020-06-23T13:42:23Z</time>
      </trkpt>
      <trkpt lat="51.04846" lon="2.52088">
        <ele>1.4</ele>
        <time>2020-06-23T13:42:24Z</time>
      </trkpt>
      <trkpt lat="51.0485" lon="2.52094">
        <ele>1.4</ele>
        <time>2020-06-23T13:42:25Z</time>
      </trkpt>
      <trkpt lat="51.04853" lon="2.52102">
        <ele>1.4</ele>
        <time>2020-06-23T13:42:26Z</time>
      </trkpt>
      <trkpt lat="51.04857" lon="2.52109">
        <ele>1.4</ele>
        <time>2020-06-23T13:42:27Z</time>
      </trkpt>
      <trkpt lat="51.0486" lon="2.52116">
        <ele>1.4</ele>
        <time>2020-06-23T13:42:28Z</time>
      </trkpt>
      <trkpt lat="51.04863" lon="2.52122">
        <ele>1.3</ele>
        <time>2020-06-23T13:42:29Z</time>
      </trkpt>
      <trkpt lat="51.04866" lon="2.52129">
        <ele>1.3</ele>
        <time>2020-06-23T13:42:30Z</time>
      </trkpt>
      <trkpt lat="51.04869" lon="2.52134">
        <ele>1.3</ele>
        <time>2020-06-23T13:42:31Z</time>
      </trkpt>
      <trkpt lat="51.04874" lon="2.52139">
        <ele>1.3</ele>
        <time>2020-06-23T13:42:32Z</time>
      </trkpt>
      <trkpt lat="51.04877" lon="2.52145">
        <ele>1.3</ele>
        <time>2020-06-23T13:42:33Z</time>
      </trkpt>
      <trkpt lat="51.0488" lon="2.52152">
        <ele>1.3</ele>
        <time>2020-06-23T13:42:34Z</time>
      </trkpt>
      <trkpt lat="51.04883" lon="2.52159">
        <ele>1.3</ele>
        <time>2020-06-23T13:42:35Z</time>
      </trkpt>
      <trkpt lat="51.04887" lon="2.52166">
        <ele>1.3</ele>
        <time>2020-06-23T13:42:36Z</time>
      </trkpt>
      <trkpt lat="51.0489" lon="2.52174">
        <ele>1.4</ele>
        <time>2020-06-23T13:42:37Z</time>
      </trkpt>
      <trkpt lat="51.04893" lon="2.52182">
        <ele>1.4</ele>
        <time>2020-06-23T13:42:38Z</time>
      </trkpt>
      <trkpt lat="51.04896" lon="2.5219">
        <ele>1.4</ele>
        <time>2020-06-23T13:42:39Z</time>
      </trkpt>
      <trkpt lat="51.049" lon="2.52198">
        <ele>1.4</ele>
        <time>2020-06-23T13:42:40Z</time>
      </trkpt>
      <trkpt lat="51.04903" lon="2.52206">
        <ele>1.5</ele>
        <time>2020-06-23T13:42:41Z</time>
      </trkpt>
      <trkpt lat="51.04907" lon="2.52213">
        <ele>1.5</ele>
        <time>2020-06-23T13:42:42Z</time>
      </trkpt>
      <trkpt lat="51.0491" lon="2.52221">
        <ele>1.5</ele>
        <time>2020-06-23T13:42:43Z</time>
      </trkpt>
      <trkpt lat="51.04913" lon="2.52228">
        <ele>1.5</ele>
        <time>2020-06-23T13:42:44Z</time>
      </trkpt>
      <trkpt lat="51.04916" lon="2.52235">
        <ele>1.5</ele>
        <time>2020-06-23T13:42:45Z</time>
      </trkpt>
      <trkpt lat="51.0492" lon="2.52241">
        <ele>1.5</ele>
        <time>2020-06-23T13:42:46Z</time>
      </trkpt>
      <trkpt lat="51.04923" lon="2.52248">
        <ele>1.5</ele>
        <time>2020-06-23T13:42:47Z</time>
      </trkpt>
      <trkpt lat="51.04926" lon="2.52257">
        <ele>1.5</ele>
        <time>2020-06-23T13:42:48Z</time>
      </trkpt>
      <trkpt lat="51.04929" lon="2.52264">
        <ele>1.5</ele>
        <time>2020-06-23T13:42:49Z</time>
      </trkpt>
      <trkpt lat="51.04933" lon="2.52271">
        <ele>1.6</ele>
        <time>2020-06-23T13:42:50Z</time>
      </trkpt>
      <trkpt lat="51.04935" lon="2.52277">
        <ele>1.6</ele>
        <time>2020-06-23T13:42:51Z</time>
      </trkpt>
      <trkpt lat="51.0494" lon="2.52283">
        <ele>1.6</ele>
        <time>2020-06-23T13:42:52Z</time>
      </trkpt>
      <trkpt lat="51.04943" lon="2.5229">
        <ele>1.6</ele>
        <time>2020-06-23T13:42:53Z</time>
      </trkpt>
      <trkpt lat="51.04948" lon="2.52297">
        <ele>1.5</ele>
        <time>2020-06-23T13:42:54Z</time>
      </trkpt>
      <trkpt lat="51.0495" lon="2.52304">
        <ele>1.5</ele>
        <time>2020-06-23T13:42:55Z</time>
      </trkpt>
      <trkpt lat="51.04953" lon="2.52311">
        <ele>1.5</ele>
        <time>2020-06-23T13:42:56Z</time>
      </trkpt>
      <trkpt lat="51.04957" lon="2.52319">
        <ele>1.5</ele>
        <time>2020-06-23T13:42:57Z</time>
      </trkpt>
      <trkpt lat="51.0496" lon="2.52328">
        <ele>1.5</ele>
        <time>2020-06-23T13:42:58Z</time>
      </trkpt>
      <trkpt lat="51.04963" lon="2.52337">
        <ele>1.5</ele>
        <time>2020-06-23T13:42:59Z</time>
      </trkpt>
      <trkpt lat="51.04965" lon="2.52345">
        <ele>1.5</ele>
        <time>2020-06-23T13:43:00Z</time>
      </trkpt>
      <trkpt lat="51.04968" lon="2.52352">
        <ele>1.5</ele>
        <time>2020-06-23T13:43:01Z</time>
      </trkpt>
      <trkpt lat="51.0497" lon="2.5236">
        <ele>1.5</ele>
        <time>2020-06-23T13:43:02Z</time>
      </trkpt>
      <trkpt lat="51.04973" lon="2.52369">
        <ele>1.6</ele>
        <time>2020-06-23T13:43:03Z</time>
      </trkpt>
      <trkpt lat="51.04975" lon="2.52378">
        <ele>1.6</ele>
        <time>2020-06-23T13:43:04Z</time>
      </trkpt>
      <trkpt lat="51.04978" lon="2.52388">
        <ele>1.6</ele>
        <time>2020-06-23T13:43:05Z</time>
      </trkpt>
      <trkpt lat="51.04981" lon="2.52396">
        <ele>1.6</ele>
        <time>2020-06-23T13:43:06Z</time>
      </trkpt>
      <trkpt lat="51.04985" lon="2.52405">
        <ele>1.6</ele>
        <time>2020-06-23T13:43:07Z</time>
      </trkpt>
      <trkpt lat="51.04987" lon="2.52413">
        <ele>1.6</ele>
        <time>2020-06-23T13:43:08Z</time>
      </trkpt>
      <trkpt lat="51.0499" lon="2.52422">
        <ele>1.5</ele>
        <time>2020-06-23T13:43:09Z</time>
      </trkpt>
      <trkpt lat="51.04992" lon="2.52431">
        <ele>1.5</ele>
        <time>2020-06-23T13:43:10Z</time>
      </trkpt>
      <trkpt lat="51.04995" lon="2.5244">
        <ele>1.4</ele>
        <time>2020-06-23T13:43:11Z</time>
      </trkpt>
      <trkpt lat="51.04997" lon="2.5245">
        <ele>1.4</ele>
        <time>2020-06-23T13:43:12Z</time>
      </trkpt>
      <trkpt lat="51.04999" lon="2.52459">
        <ele>1.4</ele>
        <time>2020-06-23T13:43:13Z</time>
      </trkpt>
      <trkpt lat="51.05001" lon="2.52467">
        <ele>1.4</ele>
        <time>2020-06-23T13:43:14Z</time>
      </trkpt>
      <trkpt lat="51.05003" lon="2.52476">
        <ele>1.4</ele>
        <time>2020-06-23T13:43:15Z</time>
      </trkpt>
      <trkpt lat="51.05005" lon="2.52484">
        <ele>1.4</ele>
        <time>2020-06-23T13:43:16Z</time>
      </trkpt>
      <trkpt lat="51.05007" lon="2.52492">
        <ele>1.4</ele>
        <time>2020-06-23T13:43:17Z</time>
      </trkpt>
      <trkpt lat="51.0501" lon="2.525">
        <ele>1.4</ele>
        <time>2020-06-23T13:43:18Z</time>
      </trkpt>
      <trkpt lat="51.05011" lon="2.52509">
        <ele>1.4</ele>
        <time>2020-06-23T13:43:19Z</time>
      </trkpt>
      <trkpt lat="51.05014" lon="2.52517">
        <ele>1.4</ele>
        <time>2020-06-23T13:43:20Z</time>
      </trkpt>
      <trkpt lat="51.05017" lon="2.52525">
        <ele>1.4</ele>
        <time>2020-06-23T13:43:21Z</time>
      </trkpt>
      <trkpt lat="51.05019" lon="2.52533">
        <ele>1.5</ele>
        <time>2020-06-23T13:43:22Z</time>
      </trkpt>
      <trkpt lat="51.0502" lon="2.52541">
        <ele>1.5</ele>
        <time>2020-06-23T13:43:23Z</time>
      </trkpt>
      <trkpt lat="51.05021" lon="2.5255">
        <ele>1.5</ele>
        <time>2020-06-23T13:43:24Z</time>
      </trkpt>
      <trkpt lat="51.05023" lon="2.52559">
        <ele>1.5</ele>
        <time>2020-06-23T13:43:25Z</time>
      </trkpt>
      <trkpt lat="51.05027" lon="2.52567">
        <ele>1.4</ele>
        <time>2020-06-23T13:43:26Z</time>
      </trkpt>
      <trkpt lat="51.0503" lon="2.52575">
        <ele>1.3</ele>
        <time>2020-06-23T13:43:27Z</time>
      </trkpt>
      <trkpt lat="51.05033" lon="2.52583">
        <ele>1.3</ele>
        <time>2020-06-23T13:43:28Z</time>
      </trkpt>
      <trkpt lat="51.05035" lon="2.52591">
        <ele>1.2</ele>
        <time>2020-06-23T13:43:29Z</time>
      </trkpt>
      <trkpt lat="51.05037" lon="2.52599">
        <ele>1.2</ele>
        <time>2020-06-23T13:43:30Z</time>
      </trkpt>
      <trkpt lat="51.0504" lon="2.52608">
        <ele>1.2</ele>
        <time>2020-06-23T13:43:31Z</time>
      </trkpt>
      <trkpt lat="51.05042" lon="2.52615">
        <ele>1.2</ele>
        <time>2020-06-23T13:43:32Z</time>
      </trkpt>
      <trkpt lat="51.05043" lon="2.52622">
        <ele>1.2</ele>
        <time>2020-06-23T13:43:33Z</time>
      </trkpt>
      <trkpt lat="51.05046" lon="2.52629">
        <ele>1.2</ele>
        <time>2020-06-23T13:43:34Z</time>
      </trkpt>
      <trkpt lat="51.05048" lon="2.52639">
        <ele>1.2</ele>
        <time>2020-06-23T13:43:35Z</time>
      </trkpt>
      <trkpt lat="51.0505" lon="2.52647">
        <ele>1.3</ele>
        <time>2020-06-23T13:43:36Z</time>
      </trkpt>
      <trkpt lat="51.05053" lon="2.52654">
        <ele>1.3</ele>
        <time>2020-06-23T13:43:37Z</time>
      </trkpt>
      <trkpt lat="51.05054" lon="2.52662">
        <ele>1.3</ele>
        <time>2020-06-23T13:43:38Z</time>
      </trkpt>
      <trkpt lat="51.05056" lon="2.5267">
        <ele>1.4</ele>
        <time>2020-06-23T13:43:39Z</time>
      </trkpt>
      <trkpt lat="51.05059" lon="2.52676">
        <ele>1.5</ele>
        <time>2020-06-23T13:43:40Z</time>
      </trkpt>
      <trkpt lat="51.05061" lon="2.52681">
        <ele>1.5</ele>
        <time>2020-06-23T13:43:41Z</time>
      </trkpt>
      <trkpt lat="51.05062" lon="2.52687">
        <ele>1.6</ele>
        <time>2020-06-23T13:43:42Z</time>
      </trkpt>
      <trkpt lat="51.05064" lon="2.52691">
        <ele>1.7</ele>
        <time>2020-06-23T13:43:43Z</time>
      </trkpt>
      <trkpt lat="51.05065" lon="2.52696">
        <ele>1.8</ele>
        <time>2020-06-23T13:43:44Z</time>
      </trkpt>
      <trkpt lat="51.05066" lon="2.527">
        <ele>1.8</ele>
        <time>2020-06-23T13:43:45Z</time>
      </trkpt>
      <trkpt lat="51.05067" lon="2.52702">
        <ele>2</ele>
        <time>2020-06-23T13:43:46Z</time>
      </trkpt>
      <trkpt lat="51.05066" lon="2.52703">
        <ele>2</ele>
        <time>2020-06-23T13:43:47Z</time>
      </trkpt>
      <trkpt lat="51.05067" lon="2.52704">
        <ele>2</ele>
        <time>2020-06-23T13:43:48Z</time>
      </trkpt>
      <trkpt lat="51.05066" lon="2.52706">
        <ele>2</ele>
        <time>2020-06-23T13:43:49Z</time>
      </trkpt>
      <trkpt lat="51.05067" lon="2.52707">
        <ele>2</ele>
        <time>2020-06-23T13:43:50Z</time>
      </trkpt>
      <trkpt lat="51.05068" lon="2.52709">
        <ele>1.9</ele>
        <time>2020-06-23T13:43:51Z</time>
      </trkpt>
      <trkpt lat="51.05066" lon="2.52711">
        <ele>1.9</ele>
        <time>2020-06-23T13:43:52Z</time>
      </trkpt>
      <trkpt lat="51.05065" lon="2.52712">
        <ele>1.9</ele>
        <time>2020-06-23T13:43:53Z</time>
      </trkpt>
      <trkpt lat="51.05065" lon="2.52714">
        <ele>1.9</ele>
        <time>2020-06-23T13:43:54Z</time>
      </trkpt>
      <trkpt lat="51.05062" lon="2.52716">
        <ele>1.8</ele>
        <time>2020-06-23T13:43:55Z</time>
      </trkpt>
      <trkpt lat="51.05059" lon="2.5272">
        <ele>1.8</ele>
        <time>2020-06-23T13:43:56Z</time>
      </trkpt>
      <trkpt lat="51.05055" lon="2.52723">
        <ele>1.7</ele>
        <time>2020-06-23T13:43:57Z</time>
      </trkpt>
      <trkpt lat="51.05051" lon="2.52727">
        <ele>1.6</ele>
        <time>2020-06-23T13:43:58Z</time>
      </trkpt>
      <trkpt lat="51.05047" lon="2.52732">
        <ele>1.6</ele>
        <time>2020-06-23T13:43:59Z</time>
      </trkpt>
      <trkpt lat="51.05041" lon="2.52736">
        <ele>1.5</ele>
        <time>2020-06-23T13:44:00Z</time>
      </trkpt>
      <trkpt lat="51.05037" lon="2.5274">
        <ele>1.4</ele>
        <time>2020-06-23T13:44:01Z</time>
      </trkpt>
      <trkpt lat="51.05032" lon="2.52746">
        <ele>1.3</ele>
        <time>2020-06-23T13:44:02Z</time>
      </trkpt>
      <trkpt lat="51.05028" lon="2.52751">
        <ele>1.3</ele>
        <time>2020-06-23T13:44:03Z</time>
      </trkpt>
      <trkpt lat="51.05024" lon="2.52756">
        <ele>1.2</ele>
        <time>2020-06-23T13:44:04Z</time>
      </trkpt>
      <trkpt lat="51.05019" lon="2.52762">
        <ele>1.2</ele>
        <time>2020-06-23T13:44:05Z</time>
      </trkpt>
      <trkpt lat="51.05014" lon="2.52767">
        <ele>1.2</ele>
        <time>2020-06-23T13:44:06Z</time>
      </trkpt>
      <trkpt lat="51.05008" lon="2.52773">
        <ele>1.2</ele>
        <time>2020-06-23T13:44:07Z</time>
      </trkpt>
      <trkpt lat="51.05003" lon="2.52779">
        <ele>1.2</ele>
        <time>2020-06-23T13:44:08Z</time>
      </trkpt>
      <trkpt lat="51.04999" lon="2.52786">
        <ele>1.2</ele>
        <time>2020-06-23T13:44:09Z</time>
      </trkpt>
      <trkpt lat="51.04995" lon="2.52793">
        <ele>1.2</ele>
        <time>2020-06-23T13:44:10Z</time>
      </trkpt>
      <trkpt lat="51.04991" lon="2.52799">
        <ele>1.2</ele>
        <time>2020-06-23T13:44:11Z</time>
      </trkpt>
      <trkpt lat="51.04987" lon="2.52804">
        <ele>1.1</ele>
        <time>2020-06-23T13:44:12Z</time>
      </trkpt>
      <trkpt lat="51.04983" lon="2.5281">
        <ele>1.1</ele>
        <time>2020-06-23T13:44:13Z</time>
      </trkpt>
      <trkpt lat="51.04979" lon="2.52818">
        <ele>1.1</ele>
        <time>2020-06-23T13:44:14Z</time>
      </trkpt>
      <trkpt lat="51.04974" lon="2.52824">
        <ele>1</ele>
        <time>2020-06-23T13:44:15Z</time>
      </trkpt>
      <trkpt lat="51.0497" lon="2.52831">
        <ele>1</ele>
        <time>2020-06-23T13:44:16Z</time>
      </trkpt>
      <trkpt lat="51.04965" lon="2.52837">
        <ele>1</ele>
        <time>2020-06-23T13:44:17Z</time>
      </trkpt>
      <trkpt lat="51.04961" lon="2.52843">
        <ele>1</ele>
        <time>2020-06-23T13:44:18Z</time>
      </trkpt>
      <trkpt lat="51.04957" lon="2.5285">
        <ele>0.9</ele>
        <time>2020-06-23T13:44:19Z</time>
      </trkpt>
      <trkpt lat="51.04952" lon="2.52856">
        <ele>0.9</ele>
        <time>2020-06-23T13:44:20Z</time>
      </trkpt>
      <trkpt lat="51.04948" lon="2.52864">
        <ele>0.9</ele>
        <time>2020-06-23T13:44:21Z</time>
      </trkpt>
      <trkpt lat="51.04943" lon="2.52871">
        <ele>0.8</ele>
        <time>2020-06-23T13:44:22Z</time>
      </trkpt>
      <trkpt lat="51.04938" lon="2.52878">
        <ele>0.7</ele>
        <time>2020-06-23T13:44:23Z</time>
      </trkpt>
      <trkpt lat="51.04933" lon="2.52886">
        <ele>0.7</ele>
        <time>2020-06-23T13:44:24Z</time>
      </trkpt>
      <trkpt lat="51.04928" lon="2.52893">
        <ele>0.6</ele>
        <time>2020-06-23T13:44:25Z</time>
      </trkpt>
      <trkpt lat="51.04923" lon="2.52901">
        <ele>0.6</ele>
        <time>2020-06-23T13:44:26Z</time>
      </trkpt>
      <trkpt lat="51.04918" lon="2.52907">
        <ele>0.6</ele>
        <time>2020-06-23T13:44:27Z</time>
      </trkpt>
      <trkpt lat="51.04914" lon="2.52918">
        <ele>0.6</ele>
        <time>2020-06-23T13:44:28Z</time>
      </trkpt>
      <trkpt lat="51.04909" lon="2.52924">
        <ele>0.5</ele>
        <time>2020-06-23T13:44:29Z</time>
      </trkpt>
      <trkpt lat="51.04904" lon="2.52931">
        <ele>0.5</ele>
        <time>2020-06-23T13:44:30Z</time>
      </trkpt>
      <trkpt lat="51.04899" lon="2.52939">
        <ele>0.5</ele>
        <time>2020-06-23T13:44:31Z</time>
      </trkpt>
      <trkpt lat="51.04894" lon="2.52945">
        <ele>0.4</ele>
        <time>2020-06-23T13:44:32Z</time>
      </trkpt>
      <trkpt lat="51.04888" lon="2.52953">
        <ele>0.4</ele>
        <time>2020-06-23T13:44:33Z</time>
      </trkpt>
      <trkpt lat="51.04884" lon="2.5296">
        <ele>0.4</ele>
        <time>2020-06-23T13:44:34Z</time>
      </trkpt>
      <trkpt lat="51.04879" lon="2.52967">
        <ele>0.5</ele>
        <time>2020-06-23T13:44:35Z</time>
      </trkpt>
      <trkpt lat="51.04875" lon="2.52975">
        <ele>0.5</ele>
        <time>2020-06-23T13:44:36Z</time>
      </trkpt>
      <trkpt lat="51.04871" lon="2.52983">
        <ele>0.6</ele>
        <time>2020-06-23T13:44:37Z</time>
      </trkpt>
      <trkpt lat="51.04867" lon="2.52989">
        <ele>0.7</ele>
        <time>2020-06-23T13:44:38Z</time>
      </trkpt>
      <trkpt lat="51.04864" lon="2.52997">
        <ele>0.8</ele>
        <time>2020-06-23T13:44:39Z</time>
      </trkpt>
      <trkpt lat="51.0486" lon="2.53004">
        <ele>0.6</ele>
        <time>2020-06-23T13:44:40Z</time>
      </trkpt>
      <trkpt lat="51.04855" lon="2.53013">
        <ele>0.3</ele>
        <time>2020-06-23T13:44:41Z</time>
      </trkpt>
      <trkpt lat="51.0485" lon="2.53022">
        <ele>0.1</ele>
        <time>2020-06-23T13:44:42Z</time>
      </trkpt>
      <trkpt lat="51.04846" lon="2.5303">
        <ele>-0.1</ele>
        <time>2020-06-23T13:44:43Z</time>
      </trkpt>
      <trkpt lat="51.04843" lon="2.53039">
        <ele>-0.3</ele>
        <time>2020-06-23T13:44:44Z</time>
      </trkpt>
      <trkpt lat="51.04839" lon="2.53046">
        <ele>-0.4</ele>
        <time>2020-06-23T13:44:45Z</time>
      </trkpt>
      <trkpt lat="51.04834" lon="2.53054">
        <ele>-0.5</ele>
        <time>2020-06-23T13:44:46Z</time>
      </trkpt>
      <trkpt lat="51.04831" lon="2.53064">
        <ele>-0.7</ele>
        <time>2020-06-23T13:44:47Z</time>
      </trkpt>
      <trkpt lat="51.04827" lon="2.53073">
        <ele>-0.8</ele>
        <time>2020-06-23T13:44:48Z</time>
      </trkpt>
      <trkpt lat="51.04823" lon="2.53083">
        <ele>-0.9</ele>
        <time>2020-06-23T13:44:49Z</time>
      </trkpt>
      <trkpt lat="51.04819" lon="2.53092">
        <ele>-1</ele>
        <time>2020-06-23T13:44:50Z</time>
      </trkpt>
      <trkpt lat="51.04814" lon="2.53102">
        <ele>-1.1</ele>
        <time>2020-06-23T13:44:51Z</time>
      </trkpt>
      <trkpt lat="51.0481" lon="2.53112">
        <ele>-1.2</ele>
        <time>2020-06-23T13:44:52Z</time>
      </trkpt>
      <trkpt lat="51.04806" lon="2.53121">
        <ele>-1.3</ele>
        <time>2020-06-23T13:44:53Z</time>
      </trkpt>
      <trkpt lat="51.04802" lon="2.5313">
        <ele>-1.4</ele>
        <time>2020-06-23T13:44:54Z</time>
      </trkpt>
      <trkpt lat="51.04798" lon="2.53138">
        <ele>-1.5</ele>
        <time>2020-06-23T13:44:55Z</time>
      </trkpt>
      <trkpt lat="51.04793" lon="2.53147">
        <ele>-1.6</ele>
        <time>2020-06-23T13:44:56Z</time>
      </trkpt>
      <trkpt lat="51.04788" lon="2.53155">
        <ele>-1.7</ele>
        <time>2020-06-23T13:44:57Z</time>
      </trkpt>
      <trkpt lat="51.04783" lon="2.53163">
        <ele>-1.7</ele>
        <time>2020-06-23T13:44:58Z</time>
      </trkpt>
      <trkpt lat="51.04778" lon="2.53171">
        <ele>-1.7</ele>
        <time>2020-06-23T13:44:59Z</time>
      </trkpt>
      <trkpt lat="51.04773" lon="2.53178">
        <ele>-1.7</ele>
        <time>2020-06-23T13:45:00Z</time>
      </trkpt>
      <trkpt lat="51.04767" lon="2.53184">
        <ele>-1.7</ele>
        <time>2020-06-23T13:45:01Z</time>
      </trkpt>
      <trkpt lat="51.04761" lon="2.53188">
        <ele>-1.7</ele>
        <time>2020-06-23T13:45:02Z</time>
      </trkpt>
      <trkpt lat="51.04755" lon="2.53193">
        <ele>-1.7</ele>
        <time>2020-06-23T13:45:03Z</time>
      </trkpt>
      <trkpt lat="51.04749" lon="2.53197">
        <ele>-1.6</ele>
        <time>2020-06-23T13:45:04Z</time>
      </trkpt>
      <trkpt lat="51.04743" lon="2.53202">
        <ele>-1.6</ele>
        <time>2020-06-23T13:45:05Z</time>
      </trkpt>
      <trkpt lat="51.04737" lon="2.53206">
        <ele>-1.6</ele>
        <time>2020-06-23T13:45:06Z</time>
      </trkpt>
      <trkpt lat="51.04731" lon="2.5321">
        <ele>-1.6</ele>
        <time>2020-06-23T13:45:07Z</time>
      </trkpt>
      <trkpt lat="51.04725" lon="2.53215">
        <ele>-1.6</ele>
        <time>2020-06-23T13:45:08Z</time>
      </trkpt>
      <trkpt lat="51.04719" lon="2.53218">
        <ele>-1.6</ele>
        <time>2020-06-23T13:45:09Z</time>
      </trkpt>
      <trkpt lat="51.04713" lon="2.53222">
        <ele>-1.6</ele>
        <time>2020-06-23T13:45:10Z</time>
      </trkpt>
      <trkpt lat="51.04707" lon="2.53226">
        <ele>-1.6</ele>
        <time>2020-06-23T13:45:11Z</time>
      </trkpt>
      <trkpt lat="51.04701" lon="2.5323">
        <ele>-1.6</ele>
        <time>2020-06-23T13:45:12Z</time>
      </trkpt>
      <trkpt lat="51.04695" lon="2.53233">
        <ele>-1.6</ele>
        <time>2020-06-23T13:45:13Z</time>
      </trkpt>
      <trkpt lat="51.0469" lon="2.53237">
        <ele>-1.5</ele>
        <time>2020-06-23T13:45:14Z</time>
      </trkpt>
      <trkpt lat="51.04684" lon="2.5324">
        <ele>-1.4</ele>
        <time>2020-06-23T13:45:15Z</time>
      </trkpt>
      <trkpt lat="51.04678" lon="2.53243">
        <ele>-1.2</ele>
        <time>2020-06-23T13:45:16Z</time>
      </trkpt>
      <trkpt lat="51.04672" lon="2.53247">
        <ele>-1.1</ele>
        <time>2020-06-23T13:45:17Z</time>
      </trkpt>
      <trkpt lat="51.04666" lon="2.53251">
        <ele>-1.1</ele>
        <time>2020-06-23T13:45:18Z</time>
      </trkpt>
      <trkpt lat="51.04654" lon="2.53258">
        <ele>-1.1</ele>
        <time>2020-06-23T13:45:19Z</time>
      </trkpt>
      <trkpt lat="51.0465" lon="2.53261">
        <ele>-1.1</ele>
        <time>2020-06-23T13:45:20Z</time>
      </trkpt>
      <trkpt lat="51.04645" lon="2.53265">
        <ele>-1.1</ele>
        <time>2020-06-23T13:45:21Z</time>
      </trkpt>
      <trkpt lat="51.0464" lon="2.53268">
        <ele>-1</ele>
        <time>2020-06-23T13:45:22Z</time>
      </trkpt>
      <trkpt lat="51.04635" lon="2.53271">
        <ele>-1</ele>
        <time>2020-06-23T13:45:23Z</time>
      </trkpt>
      <trkpt lat="51.0463" lon="2.53274">
        <ele>-1</ele>
        <time>2020-06-23T13:45:24Z</time>
      </trkpt>
      <trkpt lat="51.04623" lon="2.53279">
        <ele>-1</ele>
        <time>2020-06-23T13:45:25Z</time>
      </trkpt>
      <trkpt lat="51.04617" lon="2.53283">
        <ele>-1</ele>
        <time>2020-06-23T13:45:26Z</time>
      </trkpt>
      <trkpt lat="51.0461" lon="2.53288">
        <ele>-1</ele>
        <time>2020-06-23T13:45:27Z</time>
      </trkpt>
      <trkpt lat="51.04603" lon="2.53291">
        <ele>-1.1</ele>
        <time>2020-06-23T13:45:28Z</time>
      </trkpt>
      <trkpt lat="51.04596" lon="2.53295">
        <ele>-1.1</ele>
        <time>2020-06-23T13:45:29Z</time>
      </trkpt>
      <trkpt lat="51.0459" lon="2.53299">
        <ele>-1.1</ele>
        <time>2020-06-23T13:45:30Z</time>
      </trkpt>
      <trkpt lat="51.04584" lon="2.53303">
        <ele>-1.1</ele>
        <time>2020-06-23T13:45:31Z</time>
      </trkpt>
      <trkpt lat="51.04579" lon="2.53305">
        <ele>-1</ele>
        <time>2020-06-23T13:45:32Z</time>
      </trkpt>
      <trkpt lat="51.04573" lon="2.53308">
        <ele>-1</ele>
        <time>2020-06-23T13:45:33Z</time>
      </trkpt>
      <trkpt lat="51.04566" lon="2.53312">
        <ele>-1</ele>
        <time>2020-06-23T13:45:34Z</time>
      </trkpt>
      <trkpt lat="51.0456" lon="2.53314">
        <ele>-1</ele>
        <time>2020-06-23T13:45:35Z</time>
      </trkpt>
      <trkpt lat="51.04554" lon="2.53315">
        <ele>-1</ele>
        <time>2020-06-23T13:45:36Z</time>
      </trkpt>
      <trkpt lat="51.04549" lon="2.53316">
        <ele>-1</ele>
        <time>2020-06-23T13:45:37Z</time>
      </trkpt>
      <trkpt lat="51.04545" lon="2.53316">
        <ele>-1</ele>
        <time>2020-06-23T13:45:38Z</time>
      </trkpt>
      <trkpt lat="51.04541" lon="2.53311">
        <ele>-1.1</ele>
        <time>2020-06-23T13:45:39Z</time>
      </trkpt>
      <trkpt lat="51.04537" lon="2.53303">
        <ele>-1.2</ele>
        <time>2020-06-23T13:45:40Z</time>
      </trkpt>
      <trkpt lat="51.04534" lon="2.53296">
        <ele>-1.2</ele>
        <time>2020-06-23T13:45:41Z</time>
      </trkpt>
      <trkpt lat="51.0453" lon="2.53289">
        <ele>-1.3</ele>
        <time>2020-06-23T13:45:42Z</time>
      </trkpt>
      <trkpt lat="51.04525" lon="2.53285">
        <ele>-1.3</ele>
        <time>2020-06-23T13:45:43Z</time>
      </trkpt>
      <trkpt lat="51.0452" lon="2.53281">
        <ele>-1.4</ele>
        <time>2020-06-23T13:45:44Z</time>
      </trkpt>
      <trkpt lat="51.04514" lon="2.5328">
        <ele>-1.4</ele>
        <time>2020-06-23T13:45:45Z</time>
      </trkpt>
      <trkpt lat="51.04508" lon="2.53279">
        <ele>-1.4</ele>
        <time>2020-06-23T13:45:46Z</time>
      </trkpt>
      <trkpt lat="51.04502" lon="2.53282">
        <ele>-1.4</ele>
        <time>2020-06-23T13:45:47Z</time>
      </trkpt>
      <trkpt lat="51.04496" lon="2.53286">
        <ele>-1.3</ele>
        <time>2020-06-23T13:45:48Z</time>
      </trkpt>
      <trkpt lat="51.04491" lon="2.53291">
        <ele>-1.3</ele>
        <time>2020-06-23T13:45:49Z</time>
      </trkpt>
      <trkpt lat="51.04486" lon="2.53297">
        <ele>-1.2</ele>
        <time>2020-06-23T13:45:50Z</time>
      </trkpt>
      <trkpt lat="51.04482" lon="2.53305">
        <ele>-1.1</ele>
        <time>2020-06-23T13:45:51Z</time>
      </trkpt>
      <trkpt lat="51.0448" lon="2.53314">
        <ele>-1.1</ele>
        <time>2020-06-23T13:45:52Z</time>
      </trkpt>
      <trkpt lat="51.04477" lon="2.53323">
        <ele>-1.1</ele>
        <time>2020-06-23T13:45:53Z</time>
      </trkpt>
      <trkpt lat="51.04475" lon="2.53332">
        <ele>-1.2</ele>
        <time>2020-06-23T13:45:54Z</time>
      </trkpt>
      <trkpt lat="51.04471" lon="2.5334">
        <ele>-1.3</ele>
        <time>2020-06-23T13:45:55Z</time>
      </trkpt>
      <trkpt lat="51.04466" lon="2.53347">
        <ele>-1.3</ele>
        <time>2020-06-23T13:45:56Z</time>
      </trkpt>
      <trkpt lat="51.04461" lon="2.53352">
        <ele>-1.4</ele>
        <time>2020-06-23T13:45:57Z</time>
      </trkpt>
      <trkpt lat="51.04455" lon="2.53357">
        <ele>-1.4</ele>
        <time>2020-06-23T13:45:58Z</time>
      </trkpt>
      <trkpt lat="51.04449" lon="2.53363">
        <ele>-1.5</ele>
        <time>2020-06-23T13:45:59Z</time>
      </trkpt>
      <trkpt lat="51.04444" lon="2.53368">
        <ele>-1.5</ele>
        <time>2020-06-23T13:46:00Z</time>
      </trkpt>
      <trkpt lat="51.04438" lon="2.53374">
        <ele>-1.5</ele>
        <time>2020-06-23T13:46:01Z</time>
      </trkpt>
      <trkpt lat="51.04433" lon="2.5338">
        <ele>-1.6</ele>
        <time>2020-06-23T13:46:02Z</time>
      </trkpt>
      <trkpt lat="51.04427" lon="2.53385">
        <ele>-1.6</ele>
        <time>2020-06-23T13:46:03Z</time>
      </trkpt>
      <trkpt lat="51.04422" lon="2.53391">
        <ele>-1.6</ele>
        <time>2020-06-23T13:46:04Z</time>
      </trkpt>
      <trkpt lat="51.04416" lon="2.53397">
        <ele>-1.6</ele>
        <time>2020-06-23T13:46:05Z</time>
      </trkpt>
      <trkpt lat="51.0441" lon="2.53403">
        <ele>-1.6</ele>
        <time>2020-06-23T13:46:06Z</time>
      </trkpt>
      <trkpt lat="51.04404" lon="2.53408">
        <ele>-1.5</ele>
        <time>2020-06-23T13:46:07Z</time>
      </trkpt>
      <trkpt lat="51.04398" lon="2.53414">
        <ele>-1.4</ele>
        <time>2020-06-23T13:46:08Z</time>
      </trkpt>
      <trkpt lat="51.04392" lon="2.5342">
        <ele>-1.2</ele>
        <time>2020-06-23T13:46:09Z</time>
      </trkpt>
      <trkpt lat="51.04386" lon="2.53425">
        <ele>-0.9</ele>
        <time>2020-06-23T13:46:10Z</time>
      </trkpt>
      <trkpt lat="51.04379" lon="2.53431">
        <ele>-1</ele>
        <time>2020-06-23T13:46:11Z</time>
      </trkpt>
      <trkpt lat="51.04373" lon="2.53436">
        <ele>-1.1</ele>
        <time>2020-06-23T13:46:12Z</time>
      </trkpt>
      <trkpt lat="51.04367" lon="2.53441">
        <ele>-1.1</ele>
        <time>2020-06-23T13:46:13Z</time>
      </trkpt>
      <trkpt lat="51.04361" lon="2.53445">
        <ele>-1.2</ele>
        <time>2020-06-23T13:46:14Z</time>
      </trkpt>
      <trkpt lat="51.04355" lon="2.5345">
        <ele>-1.2</ele>
        <time>2020-06-23T13:46:15Z</time>
      </trkpt>
      <trkpt lat="51.04349" lon="2.53454">
        <ele>-1.2</ele>
        <time>2020-06-23T13:46:16Z</time>
      </trkpt>
      <trkpt lat="51.04343" lon="2.53458">
        <ele>-1.2</ele>
        <time>2020-06-23T13:46:17Z</time>
      </trkpt>
      <trkpt lat="51.04338" lon="2.53462">
        <ele>-1.2</ele>
        <time>2020-06-23T13:46:18Z</time>
      </trkpt>
      <trkpt lat="51.04332" lon="2.53465">
        <ele>-1.2</ele>
        <time>2020-06-23T13:46:19Z</time>
      </trkpt>
      <trkpt lat="51.04326" lon="2.53468">
        <ele>-1.2</ele>
        <time>2020-06-23T13:46:20Z</time>
      </trkpt>
      <trkpt lat="51.0432" lon="2.53473">
        <ele>-1.2</ele>
        <time>2020-06-23T13:46:21Z</time>
      </trkpt>
      <trkpt lat="51.04314" lon="2.53478">
        <ele>-1.2</ele>
        <time>2020-06-23T13:46:22Z</time>
      </trkpt>
      <trkpt lat="51.04307" lon="2.53482">
        <ele>-1.2</ele>
        <time>2020-06-23T13:46:23Z</time>
      </trkpt>
      <trkpt lat="51.04301" lon="2.53486">
        <ele>-1.2</ele>
        <time>2020-06-23T13:46:24Z</time>
      </trkpt>
      <trkpt lat="51.04295" lon="2.5349">
        <ele>-1.2</ele>
        <time>2020-06-23T13:46:25Z</time>
      </trkpt>
      <trkpt lat="51.04289" lon="2.53494">
        <ele>-1.2</ele>
        <time>2020-06-23T13:46:26Z</time>
      </trkpt>
      <trkpt lat="51.04283" lon="2.53497">
        <ele>-1.2</ele>
        <time>2020-06-23T13:46:27Z</time>
      </trkpt>
      <trkpt lat="51.04276" lon="2.53501">
        <ele>-1.2</ele>
        <time>2020-06-23T13:46:28Z</time>
      </trkpt>
      <trkpt lat="51.0427" lon="2.53505">
        <ele>-1.2</ele>
        <time>2020-06-23T13:46:29Z</time>
      </trkpt>
      <trkpt lat="51.04263" lon="2.53509">
        <ele>-1.2</ele>
        <time>2020-06-23T13:46:30Z</time>
      </trkpt>
      <trkpt lat="51.04257" lon="2.53513">
        <ele>-1.2</ele>
        <time>2020-06-23T13:46:31Z</time>
      </trkpt>
      <trkpt lat="51.0425" lon="2.53518">
        <ele>-1.2</ele>
        <time>2020-06-23T13:46:32Z</time>
      </trkpt>
      <trkpt lat="51.04243" lon="2.53522">
        <ele>-1.2</ele>
        <time>2020-06-23T13:46:33Z</time>
      </trkpt>
      <trkpt lat="51.04237" lon="2.53527">
        <ele>-1.2</ele>
        <time>2020-06-23T13:46:34Z</time>
      </trkpt>
      <trkpt lat="51.0423" lon="2.53531">
        <ele>-1.2</ele>
        <time>2020-06-23T13:46:35Z</time>
      </trkpt>
      <trkpt lat="51.04223" lon="2.53536">
        <ele>-1.2</ele>
        <time>2020-06-23T13:46:36Z</time>
      </trkpt>
      <trkpt lat="51.04216" lon="2.53541">
        <ele>-1.2</ele>
        <time>2020-06-23T13:46:37Z</time>
      </trkpt>
      <trkpt lat="51.04209" lon="2.53545">
        <ele>-1.2</ele>
        <time>2020-06-23T13:46:38Z</time>
      </trkpt>
      <trkpt lat="51.04202" lon="2.5355">
        <ele>-1.2</ele>
        <time>2020-06-23T13:46:39Z</time>
      </trkpt>
      <trkpt lat="51.04195" lon="2.53554">
        <ele>-1.2</ele>
        <time>2020-06-23T13:46:40Z</time>
      </trkpt>
      <trkpt lat="51.04188" lon="2.53559">
        <ele>-1.3</ele>
        <time>2020-06-23T13:46:41Z</time>
      </trkpt>
      <trkpt lat="51.04181" lon="2.53563">
        <ele>-1.3</ele>
        <time>2020-06-23T13:46:42Z</time>
      </trkpt>
      <trkpt lat="51.04175" lon="2.53567">
        <ele>-1.3</ele>
        <time>2020-06-23T13:46:43Z</time>
      </trkpt>
      <trkpt lat="51.04168" lon="2.53572">
        <ele>-1.3</ele>
        <time>2020-06-23T13:46:44Z</time>
      </trkpt>
      <trkpt lat="51.04161" lon="2.53576">
        <ele>-1.4</ele>
        <time>2020-06-23T13:46:45Z</time>
      </trkpt>
      <trkpt lat="51.04154" lon="2.5358">
        <ele>-1.4</ele>
        <time>2020-06-23T13:46:46Z</time>
      </trkpt>
      <trkpt lat="51.04147" lon="2.53584">
        <ele>-1.4</ele>
        <time>2020-06-23T13:46:47Z</time>
      </trkpt>
      <trkpt lat="51.0414" lon="2.53588">
        <ele>-1.4</ele>
        <time>2020-06-23T13:46:48Z</time>
      </trkpt>
      <trkpt lat="51.04133" lon="2.53593">
        <ele>-1.3</ele>
        <time>2020-06-23T13:46:49Z</time>
      </trkpt>
      <trkpt lat="51.04126" lon="2.53598">
        <ele>-1.1</ele>
        <time>2020-06-23T13:46:50Z</time>
      </trkpt>
      <trkpt lat="51.04119" lon="2.53602">
        <ele>-0.8</ele>
        <time>2020-06-23T13:46:51Z</time>
      </trkpt>
      <trkpt lat="51.04112" lon="2.53607">
        <ele>-1</ele>
        <time>2020-06-23T13:46:52Z</time>
      </trkpt>
      <trkpt lat="51.04105" lon="2.53611">
        <ele>-1.1</ele>
        <time>2020-06-23T13:46:53Z</time>
      </trkpt>
      <trkpt lat="51.04098" lon="2.53616">
        <ele>-1.2</ele>
        <time>2020-06-23T13:46:54Z</time>
      </trkpt>
      <trkpt lat="51.04091" lon="2.5362">
        <ele>-1.2</ele>
        <time>2020-06-23T13:46:55Z</time>
      </trkpt>
      <trkpt lat="51.04085" lon="2.53625">
        <ele>-1.2</ele>
        <time>2020-06-23T13:46:56Z</time>
      </trkpt>
      <trkpt lat="51.04078" lon="2.53629">
        <ele>-1.3</ele>
        <time>2020-06-23T13:46:57Z</time>
      </trkpt>
      <trkpt lat="51.04071" lon="2.53633">
        <ele>-1.3</ele>
        <time>2020-06-23T13:46:58Z</time>
      </trkpt>
      <trkpt lat="51.04064" lon="2.53638">
        <ele>-1.3</ele>
        <time>2020-06-23T13:46:59Z</time>
      </trkpt>
      <trkpt lat="51.04057" lon="2.53642">
        <ele>-1.2</ele>
        <time>2020-06-23T13:47:00Z</time>
      </trkpt>
      <trkpt lat="51.0405" lon="2.53647">
        <ele>-1.2</ele>
        <time>2020-06-23T13:47:01Z</time>
      </trkpt>
      <trkpt lat="51.04043" lon="2.53652">
        <ele>-1.2</ele>
        <time>2020-06-23T13:47:02Z</time>
      </trkpt>
      <trkpt lat="51.04035" lon="2.53657">
        <ele>-1.2</ele>
        <time>2020-06-23T13:47:03Z</time>
      </trkpt>
      <trkpt lat="51.04028" lon="2.53662">
        <ele>-1.2</ele>
        <time>2020-06-23T13:47:04Z</time>
      </trkpt>
      <trkpt lat="51.04021" lon="2.53666">
        <ele>-1.3</ele>
        <time>2020-06-23T13:47:05Z</time>
      </trkpt>
      <trkpt lat="51.04013" lon="2.53671">
        <ele>-1.3</ele>
        <time>2020-06-23T13:47:06Z</time>
      </trkpt>
      <trkpt lat="51.04006" lon="2.53676">
        <ele>-1.3</ele>
        <time>2020-06-23T13:47:07Z</time>
      </trkpt>
      <trkpt lat="51.03998" lon="2.53681">
        <ele>-1.4</ele>
        <time>2020-06-23T13:47:08Z</time>
      </trkpt>
      <trkpt lat="51.0399" lon="2.53686">
        <ele>-1.4</ele>
        <time>2020-06-23T13:47:09Z</time>
      </trkpt>
      <trkpt lat="51.03983" lon="2.5369">
        <ele>-1.4</ele>
        <time>2020-06-23T13:47:10Z</time>
      </trkpt>
      <trkpt lat="51.03975" lon="2.53695">
        <ele>-1.4</ele>
        <time>2020-06-23T13:47:11Z</time>
      </trkpt>
      <trkpt lat="51.03967" lon="2.537">
        <ele>-1.4</ele>
        <time>2020-06-23T13:47:12Z</time>
      </trkpt>
      <trkpt lat="51.0396" lon="2.53705">
        <ele>-1.4</ele>
        <time>2020-06-23T13:47:13Z</time>
      </trkpt>
      <trkpt lat="51.03952" lon="2.53709">
        <ele>-1.4</ele>
        <time>2020-06-23T13:47:14Z</time>
      </trkpt>
      <trkpt lat="51.03944" lon="2.53714">
        <ele>-1.4</ele>
        <time>2020-06-23T13:47:15Z</time>
      </trkpt>
      <trkpt lat="51.03937" lon="2.53718">
        <ele>-1.4</ele>
        <time>2020-06-23T13:47:16Z</time>
      </trkpt>
      <trkpt lat="51.03929" lon="2.53723">
        <ele>-1.4</ele>
        <time>2020-06-23T13:47:17Z</time>
      </trkpt>
      <trkpt lat="51.03921" lon="2.53729">
        <ele>-1.4</ele>
        <time>2020-06-23T13:47:18Z</time>
      </trkpt>
      <trkpt lat="51.03913" lon="2.53734">
        <ele>-1.4</ele>
        <time>2020-06-23T13:47:19Z</time>
      </trkpt>
      <trkpt lat="51.03905" lon="2.53739">
        <ele>-1.4</ele>
        <time>2020-06-23T13:47:20Z</time>
      </trkpt>
      <trkpt lat="51.03897" lon="2.53744">
        <ele>-1.4</ele>
        <time>2020-06-23T13:47:21Z</time>
      </trkpt>
      <trkpt lat="51.0389" lon="2.53749">
        <ele>-1.4</ele>
        <time>2020-06-23T13:47:22Z</time>
      </trkpt>
      <trkpt lat="51.03882" lon="2.53754">
        <ele>-1.5</ele>
        <time>2020-06-23T13:47:23Z</time>
      </trkpt>
      <trkpt lat="51.03874" lon="2.53759">
        <ele>-1.5</ele>
        <time>2020-06-23T13:47:24Z</time>
      </trkpt>
      <trkpt lat="51.03866" lon="2.53764">
        <ele>-1.5</ele>
        <time>2020-06-23T13:47:25Z</time>
      </trkpt>
      <trkpt lat="51.03859" lon="2.53769">
        <ele>-1.6</ele>
        <time>2020-06-23T13:47:26Z</time>
      </trkpt>
      <trkpt lat="51.03851" lon="2.53774">
        <ele>-1.6</ele>
        <time>2020-06-23T13:47:27Z</time>
      </trkpt>
      <trkpt lat="51.03844" lon="2.53779">
        <ele>-1.7</ele>
        <time>2020-06-23T13:47:28Z</time>
      </trkpt>
      <trkpt lat="51.03836" lon="2.53784">
        <ele>-1.7</ele>
        <time>2020-06-23T13:47:29Z</time>
      </trkpt>
      <trkpt lat="51.03829" lon="2.53789">
        <ele>-1.7</ele>
        <time>2020-06-23T13:47:30Z</time>
      </trkpt>
      <trkpt lat="51.03821" lon="2.53794">
        <ele>-1.7</ele>
        <time>2020-06-23T13:47:31Z</time>
      </trkpt>
      <trkpt lat="51.03814" lon="2.53798">
        <ele>-1.6</ele>
        <time>2020-06-23T13:47:32Z</time>
      </trkpt>
      <trkpt lat="51.03807" lon="2.53802">
        <ele>-1.6</ele>
        <time>2020-06-23T13:47:33Z</time>
      </trkpt>
      <trkpt lat="51.038" lon="2.53807">
        <ele>-1.6</ele>
        <time>2020-06-23T13:47:34Z</time>
      </trkpt>
      <trkpt lat="51.03792" lon="2.53811">
        <ele>-1.6</ele>
        <time>2020-06-23T13:47:35Z</time>
      </trkpt>
      <trkpt lat="51.03785" lon="2.53816">
        <ele>-1.6</ele>
        <time>2020-06-23T13:47:36Z</time>
      </trkpt>
      <trkpt lat="51.03778" lon="2.53821">
        <ele>-1.6</ele>
        <time>2020-06-23T13:47:37Z</time>
      </trkpt>
      <trkpt lat="51.03771" lon="2.53826">
        <ele>-1.6</ele>
        <time>2020-06-23T13:47:38Z</time>
      </trkpt>
      <trkpt lat="51.03764" lon="2.5383">
        <ele>-1.6</ele>
        <time>2020-06-23T13:47:39Z</time>
      </trkpt>
      <trkpt lat="51.03758" lon="2.53835">
        <ele>-1.6</ele>
        <time>2020-06-23T13:47:40Z</time>
      </trkpt>
      <trkpt lat="51.03751" lon="2.5384">
        <ele>-1.6</ele>
        <time>2020-06-23T13:47:41Z</time>
      </trkpt>
      <trkpt lat="51.03745" lon="2.53844">
        <ele>-1.6</ele>
        <time>2020-06-23T13:47:42Z</time>
      </trkpt>
      <trkpt lat="51.03738" lon="2.53849">
        <ele>-1.6</ele>
        <time>2020-06-23T13:47:43Z</time>
      </trkpt>
      <trkpt lat="51.03731" lon="2.53853">
        <ele>-1.6</ele>
        <time>2020-06-23T13:47:44Z</time>
      </trkpt>
      <trkpt lat="51.03724" lon="2.53858">
        <ele>-1.6</ele>
        <time>2020-06-23T13:47:45Z</time>
      </trkpt>
      <trkpt lat="51.03717" lon="2.53862">
        <ele>-1.6</ele>
        <time>2020-06-23T13:47:46Z</time>
      </trkpt>
      <trkpt lat="51.0371" lon="2.53867">
        <ele>-1.6</ele>
        <time>2020-06-23T13:47:47Z</time>
      </trkpt>
      <trkpt lat="51.03703" lon="2.53872">
        <ele>-1.6</ele>
        <time>2020-06-23T13:47:48Z</time>
      </trkpt>
      <trkpt lat="51.03696" lon="2.53877">
        <ele>-1.6</ele>
        <time>2020-06-23T13:47:49Z</time>
      </trkpt>
      <trkpt lat="51.03689" lon="2.53881">
        <ele>-1.6</ele>
        <time>2020-06-23T13:47:50Z</time>
      </trkpt>
      <trkpt lat="51.03682" lon="2.53886">
        <ele>-1.6</ele>
        <time>2020-06-23T13:47:51Z</time>
      </trkpt>
      <trkpt lat="51.03675" lon="2.53891">
        <ele>-1.5</ele>
        <time>2020-06-23T13:47:52Z</time>
      </trkpt>
      <trkpt lat="51.03667" lon="2.53896">
        <ele>-1.5</ele>
        <time>2020-06-23T13:47:53Z</time>
      </trkpt>
      <trkpt lat="51.0366" lon="2.539">
        <ele>-1.6</ele>
        <time>2020-06-23T13:47:54Z</time>
      </trkpt>
      <trkpt lat="51.03653" lon="2.53905">
        <ele>-1.6</ele>
        <time>2020-06-23T13:47:55Z</time>
      </trkpt>
      <trkpt lat="51.03646" lon="2.5391">
        <ele>-1.6</ele>
        <time>2020-06-23T13:47:56Z</time>
      </trkpt>
      <trkpt lat="51.03639" lon="2.53914">
        <ele>-1.6</ele>
        <time>2020-06-23T13:47:57Z</time>
      </trkpt>
      <trkpt lat="51.03632" lon="2.53919">
        <ele>-1.6</ele>
        <time>2020-06-23T13:47:58Z</time>
      </trkpt>
      <trkpt lat="51.03625" lon="2.53924">
        <ele>-1.7</ele>
        <time>2020-06-23T13:47:59Z</time>
      </trkpt>
      <trkpt lat="51.03618" lon="2.53928">
        <ele>-1.7</ele>
        <time>2020-06-23T13:48:00Z</time>
      </trkpt>
      <trkpt lat="51.0361" lon="2.53933">
        <ele>-1.7</ele>
        <time>2020-06-23T13:48:01Z</time>
      </trkpt>
      <trkpt lat="51.03603" lon="2.53938">
        <ele>-1.7</ele>
        <time>2020-06-23T13:48:02Z</time>
      </trkpt>
      <trkpt lat="51.03596" lon="2.53943">
        <ele>-1.7</ele>
        <time>2020-06-23T13:48:03Z</time>
      </trkpt>
      <trkpt lat="51.03588" lon="2.53947">
        <ele>-1.7</ele>
        <time>2020-06-23T13:48:04Z</time>
      </trkpt>
      <trkpt lat="51.03581" lon="2.53952">
        <ele>-1.7</ele>
        <time>2020-06-23T13:48:05Z</time>
      </trkpt>
      <trkpt lat="51.03574" lon="2.53957">
        <ele>-1.7</ele>
        <time>2020-06-23T13:48:06Z</time>
      </trkpt>
      <trkpt lat="51.03567" lon="2.53962">
        <ele>-1.7</ele>
        <time>2020-06-23T13:48:07Z</time>
      </trkpt>
      <trkpt lat="51.0356" lon="2.53966">
        <ele>-1.8</ele>
        <time>2020-06-23T13:48:08Z</time>
      </trkpt>
      <trkpt lat="51.03552" lon="2.53971">
        <ele>-1.8</ele>
        <time>2020-06-23T13:48:09Z</time>
      </trkpt>
      <trkpt lat="51.03545" lon="2.53976">
        <ele>-1.8</ele>
        <time>2020-06-23T13:48:10Z</time>
      </trkpt>
      <trkpt lat="51.03538" lon="2.5398">
        <ele>-1.8</ele>
        <time>2020-06-23T13:48:11Z</time>
      </trkpt>
      <trkpt lat="51.0353" lon="2.53985">
        <ele>-1.8</ele>
        <time>2020-06-23T13:48:12Z</time>
      </trkpt>
      <trkpt lat="51.03523" lon="2.5399">
        <ele>-1.8</ele>
        <time>2020-06-23T13:48:13Z</time>
      </trkpt>
      <trkpt lat="51.03516" lon="2.53994">
        <ele>-1.8</ele>
        <time>2020-06-23T13:48:14Z</time>
      </trkpt>
      <trkpt lat="51.03508" lon="2.53999">
        <ele>-1.8</ele>
        <time>2020-06-23T13:48:15Z</time>
      </trkpt>
      <trkpt lat="51.03501" lon="2.54004">
        <ele>-1.8</ele>
        <time>2020-06-23T13:48:16Z</time>
      </trkpt>
      <trkpt lat="51.03494" lon="2.54008">
        <ele>-1.7</ele>
        <time>2020-06-23T13:48:17Z</time>
      </trkpt>
      <trkpt lat="51.03487" lon="2.54013">
        <ele>-1.6</ele>
        <time>2020-06-23T13:48:18Z</time>
      </trkpt>
      <trkpt lat="51.0348" lon="2.54018">
        <ele>-1.5</ele>
        <time>2020-06-23T13:48:19Z</time>
      </trkpt>
      <trkpt lat="51.03473" lon="2.54023">
        <ele>-1.2</ele>
        <time>2020-06-23T13:48:20Z</time>
      </trkpt>
      <trkpt lat="51.03466" lon="2.54027">
        <ele>-0.9</ele>
        <time>2020-06-23T13:48:21Z</time>
      </trkpt>
      <trkpt lat="51.03459" lon="2.54031">
        <ele>-1</ele>
        <time>2020-06-23T13:48:22Z</time>
      </trkpt>
      <trkpt lat="51.03452" lon="2.54036">
        <ele>-1.1</ele>
        <time>2020-06-23T13:48:23Z</time>
      </trkpt>
      <trkpt lat="51.03445" lon="2.5404">
        <ele>-1.2</ele>
        <time>2020-06-23T13:48:24Z</time>
      </trkpt>
      <trkpt lat="51.03438" lon="2.54045">
        <ele>-1.2</ele>
        <time>2020-06-23T13:48:25Z</time>
      </trkpt>
      <trkpt lat="51.03431" lon="2.54049">
        <ele>-1.2</ele>
        <time>2020-06-23T13:48:26Z</time>
      </trkpt>
      <trkpt lat="51.03424" lon="2.54054">
        <ele>-1.3</ele>
        <time>2020-06-23T13:48:27Z</time>
      </trkpt>
      <trkpt lat="51.03417" lon="2.54059">
        <ele>-1.3</ele>
        <time>2020-06-23T13:48:28Z</time>
      </trkpt>
      <trkpt lat="51.0341" lon="2.54063">
        <ele>-1.3</ele>
        <time>2020-06-23T13:48:29Z</time>
      </trkpt>
      <trkpt lat="51.03403" lon="2.54068">
        <ele>-1.3</ele>
        <time>2020-06-23T13:48:30Z</time>
      </trkpt>
      <trkpt lat="51.03395" lon="2.54073">
        <ele>-1.3</ele>
        <time>2020-06-23T13:48:31Z</time>
      </trkpt>
      <trkpt lat="51.03388" lon="2.54078">
        <ele>-1.4</ele>
        <time>2020-06-23T13:48:32Z</time>
      </trkpt>
      <trkpt lat="51.03381" lon="2.54083">
        <ele>-1.4</ele>
        <time>2020-06-23T13:48:33Z</time>
      </trkpt>
      <trkpt lat="51.03373" lon="2.54087">
        <ele>-1.4</ele>
        <time>2020-06-23T13:48:34Z</time>
      </trkpt>
      <trkpt lat="51.03366" lon="2.54092">
        <ele>-1.4</ele>
        <time>2020-06-23T13:48:35Z</time>
      </trkpt>
      <trkpt lat="51.03359" lon="2.54096">
        <ele>-1.5</ele>
        <time>2020-06-23T13:48:36Z</time>
      </trkpt>
      <trkpt lat="51.03351" lon="2.54101">
        <ele>-1.5</ele>
        <time>2020-06-23T13:48:37Z</time>
      </trkpt>
      <trkpt lat="51.03344" lon="2.54106">
        <ele>-1.5</ele>
        <time>2020-06-23T13:48:38Z</time>
      </trkpt>
      <trkpt lat="51.03337" lon="2.5411">
        <ele>-1.6</ele>
        <time>2020-06-23T13:48:39Z</time>
      </trkpt>
      <trkpt lat="51.0333" lon="2.54114">
        <ele>-1.6</ele>
        <time>2020-06-23T13:48:40Z</time>
      </trkpt>
      <trkpt lat="51.03323" lon="2.54119">
        <ele>-1.7</ele>
        <time>2020-06-23T13:48:41Z</time>
      </trkpt>
      <trkpt lat="51.03316" lon="2.54124">
        <ele>-1.7</ele>
        <time>2020-06-23T13:48:42Z</time>
      </trkpt>
      <trkpt lat="51.03309" lon="2.54129">
        <ele>-1.7</ele>
        <time>2020-06-23T13:48:43Z</time>
      </trkpt>
      <trkpt lat="51.03301" lon="2.54133">
        <ele>-1.7</ele>
        <time>2020-06-23T13:48:44Z</time>
      </trkpt>
      <trkpt lat="51.03294" lon="2.54138">
        <ele>-1.7</ele>
        <time>2020-06-23T13:48:45Z</time>
      </trkpt>
      <trkpt lat="51.03287" lon="2.54142">
        <ele>-1.7</ele>
        <time>2020-06-23T13:48:46Z</time>
      </trkpt>
      <trkpt lat="51.0328" lon="2.54147">
        <ele>-1.7</ele>
        <time>2020-06-23T13:48:47Z</time>
      </trkpt>
      <trkpt lat="51.03272" lon="2.54152">
        <ele>-1.7</ele>
        <time>2020-06-23T13:48:48Z</time>
      </trkpt>
      <trkpt lat="51.03265" lon="2.54156">
        <ele>-1.8</ele>
        <time>2020-06-23T13:48:49Z</time>
      </trkpt>
      <trkpt lat="51.03258" lon="2.54161">
        <ele>-1.8</ele>
        <time>2020-06-23T13:48:50Z</time>
      </trkpt>
      <trkpt lat="51.03251" lon="2.54166">
        <ele>-1.8</ele>
        <time>2020-06-23T13:48:51Z</time>
      </trkpt>
      <trkpt lat="51.03244" lon="2.54171">
        <ele>-1.8</ele>
        <time>2020-06-23T13:48:52Z</time>
      </trkpt>
      <trkpt lat="51.03237" lon="2.54175">
        <ele>-1.9</ele>
        <time>2020-06-23T13:48:53Z</time>
      </trkpt>
      <trkpt lat="51.0323" lon="2.54179">
        <ele>-1.9</ele>
        <time>2020-06-23T13:48:54Z</time>
      </trkpt>
      <trkpt lat="51.03223" lon="2.54184">
        <ele>-1.9</ele>
        <time>2020-06-23T13:48:55Z</time>
      </trkpt>
      <trkpt lat="51.03216" lon="2.54189">
        <ele>-1.8</ele>
        <time>2020-06-23T13:48:56Z</time>
      </trkpt>
      <trkpt lat="51.03209" lon="2.54194">
        <ele>-1.8</ele>
        <time>2020-06-23T13:48:57Z</time>
      </trkpt>
      <trkpt lat="51.03202" lon="2.54198">
        <ele>-1.8</ele>
        <time>2020-06-23T13:48:58Z</time>
      </trkpt>
      <trkpt lat="51.03195" lon="2.54203">
        <ele>-1.8</ele>
        <time>2020-06-23T13:48:59Z</time>
      </trkpt>
      <trkpt lat="51.03188" lon="2.54208">
        <ele>-1.8</ele>
        <time>2020-06-23T13:49:00Z</time>
      </trkpt>
      <trkpt lat="51.03181" lon="2.54212">
        <ele>-1.8</ele>
        <time>2020-06-23T13:49:01Z</time>
      </trkpt>
      <trkpt lat="51.03174" lon="2.54216">
        <ele>-1.8</ele>
        <time>2020-06-23T13:49:02Z</time>
      </trkpt>
      <trkpt lat="51.03167" lon="2.54221">
        <ele>-1.8</ele>
        <time>2020-06-23T13:49:03Z</time>
      </trkpt>
      <trkpt lat="51.0316" lon="2.54226">
        <ele>-1.8</ele>
        <time>2020-06-23T13:49:04Z</time>
      </trkpt>
      <trkpt lat="51.03153" lon="2.5423">
        <ele>-1.8</ele>
        <time>2020-06-23T13:49:05Z</time>
      </trkpt>
      <trkpt lat="51.03146" lon="2.54234">
        <ele>-1.8</ele>
        <time>2020-06-23T13:49:06Z</time>
      </trkpt>
      <trkpt lat="51.03139" lon="2.54239">
        <ele>-1.8</ele>
        <time>2020-06-23T13:49:07Z</time>
      </trkpt>
      <trkpt lat="51.03131" lon="2.54243">
        <ele>-1.8</ele>
        <time>2020-06-23T13:49:08Z</time>
      </trkpt>
      <trkpt lat="51.03124" lon="2.54248">
        <ele>-1.8</ele>
        <time>2020-06-23T13:49:09Z</time>
      </trkpt>
      <trkpt lat="51.03117" lon="2.54253">
        <ele>-1.8</ele>
        <time>2020-06-23T13:49:10Z</time>
      </trkpt>
      <trkpt lat="51.0311" lon="2.54258">
        <ele>-1.8</ele>
        <time>2020-06-23T13:49:11Z</time>
      </trkpt>
      <trkpt lat="51.03103" lon="2.54262">
        <ele>-1.8</ele>
        <time>2020-06-23T13:49:12Z</time>
      </trkpt>
      <trkpt lat="51.03096" lon="2.54267">
        <ele>-1.8</ele>
        <time>2020-06-23T13:49:13Z</time>
      </trkpt>
      <trkpt lat="51.03089" lon="2.54271">
        <ele>-1.8</ele>
        <time>2020-06-23T13:49:14Z</time>
      </trkpt>
      <trkpt lat="51.03081" lon="2.54276">
        <ele>-1.8</ele>
        <time>2020-06-23T13:49:15Z</time>
      </trkpt>
      <trkpt lat="51.03074" lon="2.54281">
        <ele>-1.8</ele>
        <time>2020-06-23T13:49:16Z</time>
      </trkpt>
      <trkpt lat="51.03067" lon="2.54285">
        <ele>-1.8</ele>
        <time>2020-06-23T13:49:17Z</time>
      </trkpt>
      <trkpt lat="51.0306" lon="2.5429">
        <ele>-1.8</ele>
        <time>2020-06-23T13:49:18Z</time>
      </trkpt>
      <trkpt lat="51.03053" lon="2.54295">
        <ele>-1.8</ele>
        <time>2020-06-23T13:49:19Z</time>
      </trkpt>
      <trkpt lat="51.03046" lon="2.54299">
        <ele>-1.8</ele>
        <time>2020-06-23T13:49:20Z</time>
      </trkpt>
      <trkpt lat="51.03039" lon="2.54304">
        <ele>-1.8</ele>
        <time>2020-06-23T13:49:21Z</time>
      </trkpt>
      <trkpt lat="51.03031" lon="2.54308">
        <ele>-1.8</ele>
        <time>2020-06-23T13:49:22Z</time>
      </trkpt>
      <trkpt lat="51.03024" lon="2.54313">
        <ele>-1.8</ele>
        <time>2020-06-23T13:49:23Z</time>
      </trkpt>
      <trkpt lat="51.03017" lon="2.54318">
        <ele>-1.8</ele>
        <time>2020-06-23T13:49:24Z</time>
      </trkpt>
      <trkpt lat="51.0301" lon="2.54323">
        <ele>-1.8</ele>
        <time>2020-06-23T13:49:25Z</time>
      </trkpt>
      <trkpt lat="51.03002" lon="2.54327">
        <ele>-1.8</ele>
        <time>2020-06-23T13:49:26Z</time>
      </trkpt>
      <trkpt lat="51.02995" lon="2.54332">
        <ele>-1.8</ele>
        <time>2020-06-23T13:49:27Z</time>
      </trkpt>
      <trkpt lat="51.02988" lon="2.54337">
        <ele>-1.8</ele>
        <time>2020-06-23T13:49:28Z</time>
      </trkpt>
      <trkpt lat="51.02981" lon="2.5434">
        <ele>-1.9</ele>
        <time>2020-06-23T13:49:29Z</time>
      </trkpt>
      <trkpt lat="51.02974" lon="2.54344">
        <ele>-1.9</ele>
        <time>2020-06-23T13:49:30Z</time>
      </trkpt>
      <trkpt lat="51.02967" lon="2.54349">
        <ele>-1.9</ele>
        <time>2020-06-23T13:49:31Z</time>
      </trkpt>
      <trkpt lat="51.0296" lon="2.54354">
        <ele>-1.9</ele>
        <time>2020-06-23T13:49:32Z</time>
      </trkpt>
      <trkpt lat="51.02953" lon="2.54358">
        <ele>-1.8</ele>
        <time>2020-06-23T13:49:33Z</time>
      </trkpt>
      <trkpt lat="51.02946" lon="2.54363">
        <ele>-1.8</ele>
        <time>2020-06-23T13:49:34Z</time>
      </trkpt>
      <trkpt lat="51.0294" lon="2.54368">
        <ele>-1.8</ele>
        <time>2020-06-23T13:49:35Z</time>
      </trkpt>
      <trkpt lat="51.02933" lon="2.54372">
        <ele>-1.8</ele>
        <time>2020-06-23T13:49:36Z</time>
      </trkpt>
      <trkpt lat="51.02927" lon="2.54376">
        <ele>-1.8</ele>
        <time>2020-06-23T13:49:37Z</time>
      </trkpt>
      <trkpt lat="51.02921" lon="2.5438">
        <ele>-1.8</ele>
        <time>2020-06-23T13:49:38Z</time>
      </trkpt>
      <trkpt lat="51.02915" lon="2.54384">
        <ele>-1.8</ele>
        <time>2020-06-23T13:49:39Z</time>
      </trkpt>
      <trkpt lat="51.0291" lon="2.54388">
        <ele>-1.8</ele>
        <time>2020-06-23T13:49:40Z</time>
      </trkpt>
      <trkpt lat="51.02904" lon="2.54392">
        <ele>-1.8</ele>
        <time>2020-06-23T13:49:41Z</time>
      </trkpt>
      <trkpt lat="51.02899" lon="2.54396">
        <ele>-1.8</ele>
        <time>2020-06-23T13:49:42Z</time>
      </trkpt>
      <trkpt lat="51.02894" lon="2.544">
        <ele>-1.8</ele>
        <time>2020-06-23T13:49:43Z</time>
      </trkpt>
      <trkpt lat="51.02888" lon="2.54403">
        <ele>-1.7</ele>
        <time>2020-06-23T13:49:44Z</time>
      </trkpt>
      <trkpt lat="51.02883" lon="2.54406">
        <ele>-1.7</ele>
        <time>2020-06-23T13:49:45Z</time>
      </trkpt>
      <trkpt lat="51.02878" lon="2.5441">
        <ele>-1.6</ele>
        <time>2020-06-23T13:49:46Z</time>
      </trkpt>
      <trkpt lat="51.02873" lon="2.54414">
        <ele>-1.5</ele>
        <time>2020-06-23T13:49:47Z</time>
      </trkpt>
      <trkpt lat="51.02868" lon="2.54417">
        <ele>-1.3</ele>
        <time>2020-06-23T13:49:48Z</time>
      </trkpt>
      <trkpt lat="51.02864" lon="2.54421">
        <ele>-1.2</ele>
        <time>2020-06-23T13:49:49Z</time>
      </trkpt>
      <trkpt lat="51.0286" lon="2.54424">
        <ele>-1.1</ele>
        <time>2020-06-23T13:49:50Z</time>
      </trkpt>
      <trkpt lat="51.02857" lon="2.5443">
        <ele>-0.9</ele>
        <time>2020-06-23T13:49:51Z</time>
      </trkpt>
      <trkpt lat="51.02857" lon="2.54438">
        <ele>-1.1</ele>
        <time>2020-06-23T13:49:52Z</time>
      </trkpt>
      <trkpt lat="51.02858" lon="2.54446">
        <ele>-1.3</ele>
        <time>2020-06-23T13:49:53Z</time>
      </trkpt>
      <trkpt lat="51.02861" lon="2.54454">
        <ele>-1.5</ele>
        <time>2020-06-23T13:49:54Z</time>
      </trkpt>
      <trkpt lat="51.02863" lon="2.54463">
        <ele>-1.7</ele>
        <time>2020-06-23T13:49:55Z</time>
      </trkpt>
      <trkpt lat="51.02866" lon="2.54473">
        <ele>-2</ele>
        <time>2020-06-23T13:49:56Z</time>
      </trkpt>
      <trkpt lat="51.02868" lon="2.54483">
        <ele>-2.1</ele>
        <time>2020-06-23T13:49:57Z</time>
      </trkpt>
      <trkpt lat="51.02871" lon="2.54493">
        <ele>-2.2</ele>
        <time>2020-06-23T13:49:58Z</time>
      </trkpt>
      <trkpt lat="51.02873" lon="2.54504">
        <ele>-2.3</ele>
        <time>2020-06-23T13:49:59Z</time>
      </trkpt>
      <trkpt lat="51.02876" lon="2.54513">
        <ele>-2.4</ele>
        <time>2020-06-23T13:50:00Z</time>
      </trkpt>
      <trkpt lat="51.02879" lon="2.54523">
        <ele>-2.5</ele>
        <time>2020-06-23T13:50:01Z</time>
      </trkpt>
      <trkpt lat="51.02882" lon="2.54533">
        <ele>-2.5</ele>
        <time>2020-06-23T13:50:02Z</time>
      </trkpt>
      <trkpt lat="51.02885" lon="2.54543">
        <ele>-2.6</ele>
        <time>2020-06-23T13:50:03Z</time>
      </trkpt>
      <trkpt lat="51.02887" lon="2.54552">
        <ele>-2.6</ele>
        <time>2020-06-23T13:50:04Z</time>
      </trkpt>
      <trkpt lat="51.0289" lon="2.54562">
        <ele>-2.6</ele>
        <time>2020-06-23T13:50:05Z</time>
      </trkpt>
      <trkpt lat="51.02892" lon="2.54571">
        <ele>-2.6</ele>
        <time>2020-06-23T13:50:06Z</time>
      </trkpt>
      <trkpt lat="51.02894" lon="2.54581">
        <ele>-2.6</ele>
        <time>2020-06-23T13:50:07Z</time>
      </trkpt>
      <trkpt lat="51.02897" lon="2.5459">
        <ele>-2.6</ele>
        <time>2020-06-23T13:50:08Z</time>
      </trkpt>
      <trkpt lat="51.029" lon="2.54599">
        <ele>-2.6</ele>
        <time>2020-06-23T13:50:09Z</time>
      </trkpt>
      <trkpt lat="51.02902" lon="2.54609">
        <ele>-2.6</ele>
        <time>2020-06-23T13:50:10Z</time>
      </trkpt>
      <trkpt lat="51.02905" lon="2.54618">
        <ele>-2.6</ele>
        <time>2020-06-23T13:50:11Z</time>
      </trkpt>
      <trkpt lat="51.02908" lon="2.54627">
        <ele>-2.6</ele>
        <time>2020-06-23T13:50:12Z</time>
      </trkpt>
      <trkpt lat="51.0291" lon="2.54636">
        <ele>-2.6</ele>
        <time>2020-06-23T13:50:13Z</time>
      </trkpt>
      <trkpt lat="51.02913" lon="2.54645">
        <ele>-2.6</ele>
        <time>2020-06-23T13:50:14Z</time>
      </trkpt>
      <trkpt lat="51.02916" lon="2.54655">
        <ele>-2.6</ele>
        <time>2020-06-23T13:50:15Z</time>
      </trkpt>
      <trkpt lat="51.02919" lon="2.54664">
        <ele>-2.6</ele>
        <time>2020-06-23T13:50:16Z</time>
      </trkpt>
      <trkpt lat="51.02921" lon="2.54674">
        <ele>-2.6</ele>
        <time>2020-06-23T13:50:17Z</time>
      </trkpt>
      <trkpt lat="51.02924" lon="2.54683">
        <ele>-2.6</ele>
        <time>2020-06-23T13:50:18Z</time>
      </trkpt>
      <trkpt lat="51.02927" lon="2.54694">
        <ele>-2.5</ele>
        <time>2020-06-23T13:50:19Z</time>
      </trkpt>
      <trkpt lat="51.0293" lon="2.54705">
        <ele>-2.5</ele>
        <time>2020-06-23T13:50:20Z</time>
      </trkpt>
      <trkpt lat="51.02932" lon="2.54716">
        <ele>-2.5</ele>
        <time>2020-06-23T13:50:21Z</time>
      </trkpt>
      <trkpt lat="51.02935" lon="2.54725">
        <ele>-2.5</ele>
        <time>2020-06-23T13:50:22Z</time>
      </trkpt>
      <trkpt lat="51.02938" lon="2.54735">
        <ele>-2.5</ele>
        <time>2020-06-23T13:50:23Z</time>
      </trkpt>
      <trkpt lat="51.02941" lon="2.54746">
        <ele>-2.5</ele>
        <time>2020-06-23T13:50:24Z</time>
      </trkpt>
      <trkpt lat="51.02943" lon="2.54756">
        <ele>-2.5</ele>
        <time>2020-06-23T13:50:25Z</time>
      </trkpt>
      <trkpt lat="51.02945" lon="2.54765">
        <ele>-2.5</ele>
        <time>2020-06-23T13:50:26Z</time>
      </trkpt>
      <trkpt lat="51.02948" lon="2.54775">
        <ele>-2.5</ele>
        <time>2020-06-23T13:50:27Z</time>
      </trkpt>
      <trkpt lat="51.02951" lon="2.54785">
        <ele>-2.5</ele>
        <time>2020-06-23T13:50:28Z</time>
      </trkpt>
      <trkpt lat="51.02954" lon="2.54794">
        <ele>-2.5</ele>
        <time>2020-06-23T13:50:29Z</time>
      </trkpt>
      <trkpt lat="51.02957" lon="2.54803">
        <ele>-2.4</ele>
        <time>2020-06-23T13:50:30Z</time>
      </trkpt>
      <trkpt lat="51.02959" lon="2.54813">
        <ele>-2.4</ele>
        <time>2020-06-23T13:50:31Z</time>
      </trkpt>
      <trkpt lat="51.02962" lon="2.54823">
        <ele>-2.4</ele>
        <time>2020-06-23T13:50:32Z</time>
      </trkpt>
      <trkpt lat="51.02964" lon="2.54832">
        <ele>-2.4</ele>
        <time>2020-06-23T13:50:33Z</time>
      </trkpt>
      <trkpt lat="51.02966" lon="2.5484">
        <ele>-2.4</ele>
        <time>2020-06-23T13:50:34Z</time>
      </trkpt>
      <trkpt lat="51.02969" lon="2.5485">
        <ele>-2.4</ele>
        <time>2020-06-23T13:50:35Z</time>
      </trkpt>
      <trkpt lat="51.02971" lon="2.54859">
        <ele>-2.4</ele>
        <time>2020-06-23T13:50:36Z</time>
      </trkpt>
      <trkpt lat="51.02973" lon="2.54869">
        <ele>-2.4</ele>
        <time>2020-06-23T13:50:37Z</time>
      </trkpt>
      <trkpt lat="51.02976" lon="2.54878">
        <ele>-2.4</ele>
        <time>2020-06-23T13:50:38Z</time>
      </trkpt>
      <trkpt lat="51.02979" lon="2.54887">
        <ele>-2.4</ele>
        <time>2020-06-23T13:50:39Z</time>
      </trkpt>
      <trkpt lat="51.02981" lon="2.54896">
        <ele>-2.4</ele>
        <time>2020-06-23T13:50:40Z</time>
      </trkpt>
      <trkpt lat="51.02983" lon="2.54906">
        <ele>-2.3</ele>
        <time>2020-06-23T13:50:41Z</time>
      </trkpt>
      <trkpt lat="51.02986" lon="2.54914">
        <ele>-2.2</ele>
        <time>2020-06-23T13:50:42Z</time>
      </trkpt>
      <trkpt lat="51.02988" lon="2.54923">
        <ele>-2.1</ele>
        <time>2020-06-23T13:50:43Z</time>
      </trkpt>
      <trkpt lat="51.02991" lon="2.54933">
        <ele>-2</ele>
        <time>2020-06-23T13:50:44Z</time>
      </trkpt>
      <trkpt lat="51.02993" lon="2.54942">
        <ele>-1.8</ele>
        <time>2020-06-23T13:50:45Z</time>
      </trkpt>
      <trkpt lat="51.02996" lon="2.54952">
        <ele>-1.9</ele>
        <time>2020-06-23T13:50:46Z</time>
      </trkpt>
      <trkpt lat="51.02999" lon="2.54962">
        <ele>-2</ele>
        <time>2020-06-23T13:50:47Z</time>
      </trkpt>
      <trkpt lat="51.03001" lon="2.54972">
        <ele>-2</ele>
        <time>2020-06-23T13:50:48Z</time>
      </trkpt>
      <trkpt lat="51.03004" lon="2.54982">
        <ele>-2.1</ele>
        <time>2020-06-23T13:50:49Z</time>
      </trkpt>
      <trkpt lat="51.03007" lon="2.54993">
        <ele>-2.1</ele>
        <time>2020-06-23T13:50:50Z</time>
      </trkpt>
      <trkpt lat="51.0301" lon="2.55003">
        <ele>-2.1</ele>
        <time>2020-06-23T13:50:51Z</time>
      </trkpt>
      <trkpt lat="51.03012" lon="2.55012">
        <ele>-2.1</ele>
        <time>2020-06-23T13:50:52Z</time>
      </trkpt>
      <trkpt lat="51.03015" lon="2.55022">
        <ele>-2.1</ele>
        <time>2020-06-23T13:50:53Z</time>
      </trkpt>
      <trkpt lat="51.03017" lon="2.5503">
        <ele>-2.1</ele>
        <time>2020-06-23T13:50:54Z</time>
      </trkpt>
      <trkpt lat="51.03019" lon="2.55038">
        <ele>-2.1</ele>
        <time>2020-06-23T13:50:55Z</time>
      </trkpt>
      <trkpt lat="51.03021" lon="2.55047">
        <ele>-2.1</ele>
        <time>2020-06-23T13:50:56Z</time>
      </trkpt>
      <trkpt lat="51.03023" lon="2.55056">
        <ele>-2.1</ele>
        <time>2020-06-23T13:50:57Z</time>
      </trkpt>
      <trkpt lat="51.03025" lon="2.55065">
        <ele>-2.1</ele>
        <time>2020-06-23T13:50:58Z</time>
      </trkpt>
      <trkpt lat="51.03027" lon="2.55074">
        <ele>-2.1</ele>
        <time>2020-06-23T13:50:59Z</time>
      </trkpt>
      <trkpt lat="51.03029" lon="2.55083">
        <ele>-2.1</ele>
        <time>2020-06-23T13:51:00Z</time>
      </trkpt>
      <trkpt lat="51.03032" lon="2.55093">
        <ele>-2.1</ele>
        <time>2020-06-23T13:51:01Z</time>
      </trkpt>
      <trkpt lat="51.03035" lon="2.55102">
        <ele>-2.1</ele>
        <time>2020-06-23T13:51:02Z</time>
      </trkpt>
      <trkpt lat="51.03038" lon="2.55112">
        <ele>-2.1</ele>
        <time>2020-06-23T13:51:03Z</time>
      </trkpt>
      <trkpt lat="51.0304" lon="2.55121">
        <ele>-2.1</ele>
        <time>2020-06-23T13:51:04Z</time>
      </trkpt>
      <trkpt lat="51.03043" lon="2.55129">
        <ele>-2.1</ele>
        <time>2020-06-23T13:51:05Z</time>
      </trkpt>
      <trkpt lat="51.03046" lon="2.55138">
        <ele>-2.1</ele>
        <time>2020-06-23T13:51:06Z</time>
      </trkpt>
      <trkpt lat="51.03048" lon="2.55147">
        <ele>-2.1</ele>
        <time>2020-06-23T13:51:07Z</time>
      </trkpt>
      <trkpt lat="51.03051" lon="2.55155">
        <ele>-2.1</ele>
        <time>2020-06-23T13:51:08Z</time>
      </trkpt>
      <trkpt lat="51.03054" lon="2.55163">
        <ele>-2.1</ele>
        <time>2020-06-23T13:51:09Z</time>
      </trkpt>
      <trkpt lat="51.03056" lon="2.55172">
        <ele>-2.1</ele>
        <time>2020-06-23T13:51:10Z</time>
      </trkpt>
      <trkpt lat="51.03059" lon="2.55181">
        <ele>-2.1</ele>
        <time>2020-06-23T13:51:11Z</time>
      </trkpt>
      <trkpt lat="51.03061" lon="2.55191">
        <ele>-2.1</ele>
        <time>2020-06-23T13:51:12Z</time>
      </trkpt>
      <trkpt lat="51.03065" lon="2.55201">
        <ele>-2.1</ele>
        <time>2020-06-23T13:51:13Z</time>
      </trkpt>
      <trkpt lat="51.03067" lon="2.5521">
        <ele>-2.1</ele>
        <time>2020-06-23T13:51:14Z</time>
      </trkpt>
      <trkpt lat="51.0307" lon="2.55219">
        <ele>-2.1</ele>
        <time>2020-06-23T13:51:15Z</time>
      </trkpt>
      <trkpt lat="51.03072" lon="2.55227">
        <ele>-2.1</ele>
        <time>2020-06-23T13:51:16Z</time>
      </trkpt>
      <trkpt lat="51.03074" lon="2.55236">
        <ele>-2.1</ele>
        <time>2020-06-23T13:51:17Z</time>
      </trkpt>
      <trkpt lat="51.03077" lon="2.55246">
        <ele>-2.1</ele>
        <time>2020-06-23T13:51:18Z</time>
      </trkpt>
      <trkpt lat="51.0308" lon="2.55255">
        <ele>-2.1</ele>
        <time>2020-06-23T13:51:19Z</time>
      </trkpt>
      <trkpt lat="51.03082" lon="2.55265">
        <ele>-2.1</ele>
        <time>2020-06-23T13:51:20Z</time>
      </trkpt>
      <trkpt lat="51.03084" lon="2.55275">
        <ele>-2.2</ele>
        <time>2020-06-23T13:51:21Z</time>
      </trkpt>
      <trkpt lat="51.03086" lon="2.55283">
        <ele>-2.2</ele>
        <time>2020-06-23T13:51:22Z</time>
      </trkpt>
      <trkpt lat="51.03088" lon="2.55291">
        <ele>-2.2</ele>
        <time>2020-06-23T13:51:23Z</time>
      </trkpt>
      <trkpt lat="51.0309" lon="2.553">
        <ele>-2.2</ele>
        <time>2020-06-23T13:51:24Z</time>
      </trkpt>
      <trkpt lat="51.03093" lon="2.5531">
        <ele>-2.2</ele>
        <time>2020-06-23T13:51:25Z</time>
      </trkpt>
      <trkpt lat="51.03096" lon="2.55319">
        <ele>-2.2</ele>
        <time>2020-06-23T13:51:26Z</time>
      </trkpt>
      <trkpt lat="51.03098" lon="2.55328">
        <ele>-2.2</ele>
        <time>2020-06-23T13:51:27Z</time>
      </trkpt>
      <trkpt lat="51.03101" lon="2.55336">
        <ele>-2.2</ele>
        <time>2020-06-23T13:51:28Z</time>
      </trkpt>
      <trkpt lat="51.03103" lon="2.55346">
        <ele>-2.2</ele>
        <time>2020-06-23T13:51:29Z</time>
      </trkpt>
      <trkpt lat="51.03105" lon="2.55355">
        <ele>-2.2</ele>
        <time>2020-06-23T13:51:30Z</time>
      </trkpt>
      <trkpt lat="51.03108" lon="2.55364">
        <ele>-2.2</ele>
        <time>2020-06-23T13:51:31Z</time>
      </trkpt>
      <trkpt lat="51.0311" lon="2.55374">
        <ele>-2.2</ele>
        <time>2020-06-23T13:51:32Z</time>
      </trkpt>
      <trkpt lat="51.03113" lon="2.55383">
        <ele>-2.2</ele>
        <time>2020-06-23T13:51:33Z</time>
      </trkpt>
      <trkpt lat="51.03116" lon="2.55393">
        <ele>-2.1</ele>
        <time>2020-06-23T13:51:34Z</time>
      </trkpt>
      <trkpt lat="51.03118" lon="2.55403">
        <ele>-2.1</ele>
        <time>2020-06-23T13:51:35Z</time>
      </trkpt>
      <trkpt lat="51.03121" lon="2.55411">
        <ele>-2.1</ele>
        <time>2020-06-23T13:51:36Z</time>
      </trkpt>
      <trkpt lat="51.03123" lon="2.55421">
        <ele>-2.1</ele>
        <time>2020-06-23T13:51:37Z</time>
      </trkpt>
      <trkpt lat="51.03125" lon="2.5543">
        <ele>-2.1</ele>
        <time>2020-06-23T13:51:38Z</time>
      </trkpt>
      <trkpt lat="51.03128" lon="2.5544">
        <ele>-2.1</ele>
        <time>2020-06-23T13:51:39Z</time>
      </trkpt>
      <trkpt lat="51.03129" lon="2.55449">
        <ele>-2.1</ele>
        <time>2020-06-23T13:51:40Z</time>
      </trkpt>
      <trkpt lat="51.03132" lon="2.5546">
        <ele>-2.1</ele>
        <time>2020-06-23T13:51:41Z</time>
      </trkpt>
      <trkpt lat="51.03135" lon="2.5547">
        <ele>-2.1</ele>
        <time>2020-06-23T13:51:42Z</time>
      </trkpt>
      <trkpt lat="51.03138" lon="2.55479">
        <ele>-2.2</ele>
        <time>2020-06-23T13:51:43Z</time>
      </trkpt>
      <trkpt lat="51.03139" lon="2.55487">
        <ele>-2.2</ele>
        <time>2020-06-23T13:51:44Z</time>
      </trkpt>
      <trkpt lat="51.03141" lon="2.55495">
        <ele>-2.2</ele>
        <time>2020-06-23T13:51:45Z</time>
      </trkpt>
      <trkpt lat="51.03143" lon="2.55503">
        <ele>-2.2</ele>
        <time>2020-06-23T13:51:46Z</time>
      </trkpt>
      <trkpt lat="51.03145" lon="2.55511">
        <ele>-2.2</ele>
        <time>2020-06-23T13:51:47Z</time>
      </trkpt>
      <trkpt lat="51.03147" lon="2.55519">
        <ele>-2.2</ele>
        <time>2020-06-23T13:51:48Z</time>
      </trkpt>
      <trkpt lat="51.03151" lon="2.55528">
        <ele>-2.2</ele>
        <time>2020-06-23T13:51:49Z</time>
      </trkpt>
      <trkpt lat="51.03153" lon="2.55536">
        <ele>-2.2</ele>
        <time>2020-06-23T13:51:50Z</time>
      </trkpt>
      <trkpt lat="51.03156" lon="2.55545">
        <ele>-2.2</ele>
        <time>2020-06-23T13:51:51Z</time>
      </trkpt>
      <trkpt lat="51.03159" lon="2.55554">
        <ele>-2.2</ele>
        <time>2020-06-23T13:51:52Z</time>
      </trkpt>
      <trkpt lat="51.03163" lon="2.55565">
        <ele>-2.2</ele>
        <time>2020-06-23T13:51:53Z</time>
      </trkpt>
      <trkpt lat="51.03165" lon="2.55575">
        <ele>-2.2</ele>
        <time>2020-06-23T13:51:54Z</time>
      </trkpt>
      <trkpt lat="51.03167" lon="2.55584">
        <ele>-2.2</ele>
        <time>2020-06-23T13:51:55Z</time>
      </trkpt>
      <trkpt lat="51.03169" lon="2.55593">
        <ele>-2.2</ele>
        <time>2020-06-23T13:51:56Z</time>
      </trkpt>
      <trkpt lat="51.03171" lon="2.55602">
        <ele>-2.2</ele>
        <time>2020-06-23T13:51:57Z</time>
      </trkpt>
      <trkpt lat="51.03175" lon="2.55612">
        <ele>-2.2</ele>
        <time>2020-06-23T13:51:58Z</time>
      </trkpt>
      <trkpt lat="51.03176" lon="2.55622">
        <ele>-2.2</ele>
        <time>2020-06-23T13:51:59Z</time>
      </trkpt>
      <trkpt lat="51.03178" lon="2.55631">
        <ele>-2.2</ele>
        <time>2020-06-23T13:52:00Z</time>
      </trkpt>
      <trkpt lat="51.03181" lon="2.55641">
        <ele>-2.2</ele>
        <time>2020-06-23T13:52:01Z</time>
      </trkpt>
      <trkpt lat="51.03183" lon="2.5565">
        <ele>-2.2</ele>
        <time>2020-06-23T13:52:02Z</time>
      </trkpt>
      <trkpt lat="51.03186" lon="2.55659">
        <ele>-2.2</ele>
        <time>2020-06-23T13:52:03Z</time>
      </trkpt>
      <trkpt lat="51.03188" lon="2.55667">
        <ele>-2.2</ele>
        <time>2020-06-23T13:52:04Z</time>
      </trkpt>
      <trkpt lat="51.03191" lon="2.55675">
        <ele>-2.3</ele>
        <time>2020-06-23T13:52:05Z</time>
      </trkpt>
      <trkpt lat="51.03193" lon="2.55684">
        <ele>-2.3</ele>
        <time>2020-06-23T13:52:06Z</time>
      </trkpt>
      <trkpt lat="51.03196" lon="2.55694">
        <ele>-2.3</ele>
        <time>2020-06-23T13:52:07Z</time>
      </trkpt>
      <trkpt lat="51.03198" lon="2.55703">
        <ele>-2.3</ele>
        <time>2020-06-23T13:52:08Z</time>
      </trkpt>
      <trkpt lat="51.03201" lon="2.55713">
        <ele>-2.3</ele>
        <time>2020-06-23T13:52:09Z</time>
      </trkpt>
      <trkpt lat="51.03203" lon="2.55723">
        <ele>-2.2</ele>
        <time>2020-06-23T13:52:10Z</time>
      </trkpt>
      <trkpt lat="51.03206" lon="2.55733">
        <ele>-2.2</ele>
        <time>2020-06-23T13:52:11Z</time>
      </trkpt>
      <trkpt lat="51.03209" lon="2.55742">
        <ele>-2.2</ele>
        <time>2020-06-23T13:52:12Z</time>
      </trkpt>
      <trkpt lat="51.03212" lon="2.55751">
        <ele>-2.2</ele>
        <time>2020-06-23T13:52:13Z</time>
      </trkpt>
      <trkpt lat="51.03215" lon="2.55761">
        <ele>-2.2</ele>
        <time>2020-06-23T13:52:14Z</time>
      </trkpt>
      <trkpt lat="51.03217" lon="2.55771">
        <ele>-2.2</ele>
        <time>2020-06-23T13:52:15Z</time>
      </trkpt>
      <trkpt lat="51.0322" lon="2.5578">
        <ele>-2.2</ele>
        <time>2020-06-23T13:52:16Z</time>
      </trkpt>
      <trkpt lat="51.03222" lon="2.55789">
        <ele>-2.2</ele>
        <time>2020-06-23T13:52:17Z</time>
      </trkpt>
      <trkpt lat="51.03223" lon="2.558">
        <ele>-2.2</ele>
        <time>2020-06-23T13:52:18Z</time>
      </trkpt>
      <trkpt lat="51.03225" lon="2.55809">
        <ele>-2.2</ele>
        <time>2020-06-23T13:52:19Z</time>
      </trkpt>
      <trkpt lat="51.03228" lon="2.55818">
        <ele>-2.2</ele>
        <time>2020-06-23T13:52:20Z</time>
      </trkpt>
      <trkpt lat="51.03229" lon="2.55827">
        <ele>-2.2</ele>
        <time>2020-06-23T13:52:21Z</time>
      </trkpt>
      <trkpt lat="51.03232" lon="2.55835">
        <ele>-2.2</ele>
        <time>2020-06-23T13:52:22Z</time>
      </trkpt>
      <trkpt lat="51.03234" lon="2.55843">
        <ele>-2.2</ele>
        <time>2020-06-23T13:52:23Z</time>
      </trkpt>
      <trkpt lat="51.03237" lon="2.55854">
        <ele>-2.2</ele>
        <time>2020-06-23T13:52:24Z</time>
      </trkpt>
      <trkpt lat="51.03239" lon="2.55862">
        <ele>-2.2</ele>
        <time>2020-06-23T13:52:25Z</time>
      </trkpt>
      <trkpt lat="51.03242" lon="2.55872">
        <ele>-2.2</ele>
        <time>2020-06-23T13:52:26Z</time>
      </trkpt>
      <trkpt lat="51.03245" lon="2.55881">
        <ele>-2.2</ele>
        <time>2020-06-23T13:52:27Z</time>
      </trkpt>
      <trkpt lat="51.03247" lon="2.5589">
        <ele>-2.2</ele>
        <time>2020-06-23T13:52:28Z</time>
      </trkpt>
      <trkpt lat="51.03249" lon="2.55899">
        <ele>-2.2</ele>
        <time>2020-06-23T13:52:29Z</time>
      </trkpt>
      <trkpt lat="51.03251" lon="2.55908">
        <ele>-2.2</ele>
        <time>2020-06-23T13:52:30Z</time>
      </trkpt>
      <trkpt lat="51.03254" lon="2.55917">
        <ele>-2.2</ele>
        <time>2020-06-23T13:52:31Z</time>
      </trkpt>
      <trkpt lat="51.03256" lon="2.55925">
        <ele>-2.2</ele>
        <time>2020-06-23T13:52:32Z</time>
      </trkpt>
      <trkpt lat="51.03259" lon="2.55934">
        <ele>-2.2</ele>
        <time>2020-06-23T13:52:33Z</time>
      </trkpt>
      <trkpt lat="51.03262" lon="2.55942">
        <ele>-2.2</ele>
        <time>2020-06-23T13:52:34Z</time>
      </trkpt>
      <trkpt lat="51.03264" lon="2.55952">
        <ele>-2.1</ele>
        <time>2020-06-23T13:52:35Z</time>
      </trkpt>
      <trkpt lat="51.03266" lon="2.5596">
        <ele>-2.1</ele>
        <time>2020-06-23T13:52:36Z</time>
      </trkpt>
      <trkpt lat="51.03268" lon="2.55967">
        <ele>-2.1</ele>
        <time>2020-06-23T13:52:37Z</time>
      </trkpt>
      <trkpt lat="51.03271" lon="2.55976">
        <ele>-2</ele>
        <time>2020-06-23T13:52:38Z</time>
      </trkpt>
      <trkpt lat="51.03273" lon="2.55984">
        <ele>-1.9</ele>
        <time>2020-06-23T13:52:39Z</time>
      </trkpt>
      <trkpt lat="51.03275" lon="2.5599">
        <ele>-1.9</ele>
        <time>2020-06-23T13:52:40Z</time>
      </trkpt>
      <trkpt lat="51.03274" lon="2.55993">
        <ele>-1.8</ele>
        <time>2020-06-23T13:52:41Z</time>
      </trkpt>
      <trkpt lat="51.03271" lon="2.55999">
        <ele>-1.8</ele>
        <time>2020-06-23T13:52:42Z</time>
      </trkpt>
      <trkpt lat="51.03266" lon="2.56001">
        <ele>-1.9</ele>
        <time>2020-06-23T13:52:43Z</time>
      </trkpt>
      <trkpt lat="51.0326" lon="2.56004">
        <ele>-2</ele>
        <time>2020-06-23T13:52:44Z</time>
      </trkpt>
      <trkpt lat="51.03254" lon="2.56006">
        <ele>-2</ele>
        <time>2020-06-23T13:52:45Z</time>
      </trkpt>
      <trkpt lat="51.03249" lon="2.56009">
        <ele>-2.1</ele>
        <time>2020-06-23T13:52:46Z</time>
      </trkpt>
      <trkpt lat="51.03244" lon="2.56011">
        <ele>-2.1</ele>
        <time>2020-06-23T13:52:47Z</time>
      </trkpt>
      <trkpt lat="51.03237" lon="2.56014">
        <ele>-2.1</ele>
        <time>2020-06-23T13:52:48Z</time>
      </trkpt>
      <trkpt lat="51.03231" lon="2.56019">
        <ele>-2.1</ele>
        <time>2020-06-23T13:52:49Z</time>
      </trkpt>
      <trkpt lat="51.03225" lon="2.56023">
        <ele>-2.1</ele>
        <time>2020-06-23T13:52:50Z</time>
      </trkpt>
      <trkpt lat="51.03218" lon="2.56026">
        <ele>-2.1</ele>
        <time>2020-06-23T13:52:51Z</time>
      </trkpt>
      <trkpt lat="51.03211" lon="2.56029">
        <ele>-2.1</ele>
        <time>2020-06-23T13:52:52Z</time>
      </trkpt>
      <trkpt lat="51.03205" lon="2.56033">
        <ele>-2.1</ele>
        <time>2020-06-23T13:52:53Z</time>
      </trkpt>
      <trkpt lat="51.03199" lon="2.56038">
        <ele>-2.1</ele>
        <time>2020-06-23T13:52:54Z</time>
      </trkpt>
      <trkpt lat="51.03192" lon="2.56042">
        <ele>-2.1</ele>
        <time>2020-06-23T13:52:55Z</time>
      </trkpt>
      <trkpt lat="51.03185" lon="2.56046">
        <ele>-2.1</ele>
        <time>2020-06-23T13:52:56Z</time>
      </trkpt>
      <trkpt lat="51.03178" lon="2.5605">
        <ele>-2.1</ele>
        <time>2020-06-23T13:52:57Z</time>
      </trkpt>
      <trkpt lat="51.03171" lon="2.56055">
        <ele>-2.1</ele>
        <time>2020-06-23T13:52:58Z</time>
      </trkpt>
      <trkpt lat="51.03163" lon="2.56059">
        <ele>-2.1</ele>
        <time>2020-06-23T13:52:59Z</time>
      </trkpt>
      <trkpt lat="51.03156" lon="2.56064">
        <ele>-2.1</ele>
        <time>2020-06-23T13:53:00Z</time>
      </trkpt>
      <trkpt lat="51.03149" lon="2.56069">
        <ele>-2.1</ele>
        <time>2020-06-23T13:53:01Z</time>
      </trkpt>
      <trkpt lat="51.03142" lon="2.56073">
        <ele>-2.1</ele>
        <time>2020-06-23T13:53:02Z</time>
      </trkpt>
      <trkpt lat="51.03135" lon="2.56078">
        <ele>-2</ele>
        <time>2020-06-23T13:53:03Z</time>
      </trkpt>
      <trkpt lat="51.03129" lon="2.56082">
        <ele>-1.9</ele>
        <time>2020-06-23T13:53:04Z</time>
      </trkpt>
      <trkpt lat="51.03122" lon="2.56087">
        <ele>-2</ele>
        <time>2020-06-23T13:53:05Z</time>
      </trkpt>
      <trkpt lat="51.03116" lon="2.56091">
        <ele>-2.1</ele>
        <time>2020-06-23T13:53:06Z</time>
      </trkpt>
      <trkpt lat="51.0311" lon="2.56095">
        <ele>-2.2</ele>
        <time>2020-06-23T13:53:07Z</time>
      </trkpt>
      <trkpt lat="51.03104" lon="2.56099">
        <ele>-2.3</ele>
        <time>2020-06-23T13:53:08Z</time>
      </trkpt>
      <trkpt lat="51.03097" lon="2.56103">
        <ele>-2.3</ele>
        <time>2020-06-23T13:53:09Z</time>
      </trkpt>
      <trkpt lat="51.03091" lon="2.56107">
        <ele>-2.3</ele>
        <time>2020-06-23T13:53:10Z</time>
      </trkpt>
      <trkpt lat="51.03085" lon="2.56111">
        <ele>-2.3</ele>
        <time>2020-06-23T13:53:11Z</time>
      </trkpt>
      <trkpt lat="51.03079" lon="2.56115">
        <ele>-2.3</ele>
        <time>2020-06-23T13:53:12Z</time>
      </trkpt>
      <trkpt lat="51.03073" lon="2.56119">
        <ele>-2.3</ele>
        <time>2020-06-23T13:53:13Z</time>
      </trkpt>
      <trkpt lat="51.03067" lon="2.56123">
        <ele>-2.3</ele>
        <time>2020-06-23T13:53:14Z</time>
      </trkpt>
      <trkpt lat="51.03061" lon="2.56127">
        <ele>-2.3</ele>
        <time>2020-06-23T13:53:15Z</time>
      </trkpt>
      <trkpt lat="51.03055" lon="2.56131">
        <ele>-2.3</ele>
        <time>2020-06-23T13:53:16Z</time>
      </trkpt>
      <trkpt lat="51.0305" lon="2.56135">
        <ele>-2.3</ele>
        <time>2020-06-23T13:53:17Z</time>
      </trkpt>
      <trkpt lat="51.03044" lon="2.56138">
        <ele>-2.3</ele>
        <time>2020-06-23T13:53:18Z</time>
      </trkpt>
      <trkpt lat="51.03038" lon="2.56142">
        <ele>-2.3</ele>
        <time>2020-06-23T13:53:19Z</time>
      </trkpt>
      <trkpt lat="51.03032" lon="2.56146">
        <ele>-2.4</ele>
        <time>2020-06-23T13:53:20Z</time>
      </trkpt>
      <trkpt lat="51.03025" lon="2.56149">
        <ele>-2.4</ele>
        <time>2020-06-23T13:53:21Z</time>
      </trkpt>
      <trkpt lat="51.03019" lon="2.56153">
        <ele>-2.4</ele>
        <time>2020-06-23T13:53:22Z</time>
      </trkpt>
      <trkpt lat="51.03013" lon="2.56157">
        <ele>-2.4</ele>
        <time>2020-06-23T13:53:23Z</time>
      </trkpt>
      <trkpt lat="51.03007" lon="2.5616">
        <ele>-2.4</ele>
        <time>2020-06-23T13:53:24Z</time>
      </trkpt>
      <trkpt lat="51.03001" lon="2.56164">
        <ele>-2.4</ele>
        <time>2020-06-23T13:53:25Z</time>
      </trkpt>
      <trkpt lat="51.02995" lon="2.56168">
        <ele>-2.4</ele>
        <time>2020-06-23T13:53:26Z</time>
      </trkpt>
      <trkpt lat="51.02989" lon="2.56171">
        <ele>-2.4</ele>
        <time>2020-06-23T13:53:27Z</time>
      </trkpt>
      <trkpt lat="51.02983" lon="2.56175">
        <ele>-2.5</ele>
        <time>2020-06-23T13:53:28Z</time>
      </trkpt>
      <trkpt lat="51.02977" lon="2.56179">
        <ele>-2.5</ele>
        <time>2020-06-23T13:53:29Z</time>
      </trkpt>
      <trkpt lat="51.02971" lon="2.56183">
        <ele>-2.5</ele>
        <time>2020-06-23T13:53:30Z</time>
      </trkpt>
      <trkpt lat="51.02965" lon="2.56188">
        <ele>-2.5</ele>
        <time>2020-06-23T13:53:31Z</time>
      </trkpt>
      <trkpt lat="51.02959" lon="2.56192">
        <ele>-2.5</ele>
        <time>2020-06-23T13:53:32Z</time>
      </trkpt>
      <trkpt lat="51.02952" lon="2.56197">
        <ele>-2.5</ele>
        <time>2020-06-23T13:53:33Z</time>
      </trkpt>
      <trkpt lat="51.02946" lon="2.56201">
        <ele>-2.6</ele>
        <time>2020-06-23T13:53:34Z</time>
      </trkpt>
      <trkpt lat="51.0294" lon="2.56204">
        <ele>-2.6</ele>
        <time>2020-06-23T13:53:35Z</time>
      </trkpt>
      <trkpt lat="51.02934" lon="2.56208">
        <ele>-2.6</ele>
        <time>2020-06-23T13:53:36Z</time>
      </trkpt>
      <trkpt lat="51.02928" lon="2.56212">
        <ele>-2.6</ele>
        <time>2020-06-23T13:53:37Z</time>
      </trkpt>
      <trkpt lat="51.02922" lon="2.56216">
        <ele>-2.6</ele>
        <time>2020-06-23T13:53:38Z</time>
      </trkpt>
      <trkpt lat="51.02915" lon="2.5622">
        <ele>-2.6</ele>
        <time>2020-06-23T13:53:39Z</time>
      </trkpt>
      <trkpt lat="51.02909" lon="2.56224">
        <ele>-2.6</ele>
        <time>2020-06-23T13:53:40Z</time>
      </trkpt>
      <trkpt lat="51.02903" lon="2.56229">
        <ele>-2.6</ele>
        <time>2020-06-23T13:53:41Z</time>
      </trkpt>
      <trkpt lat="51.02896" lon="2.56233">
        <ele>-2.6</ele>
        <time>2020-06-23T13:53:42Z</time>
      </trkpt>
      <trkpt lat="51.0289" lon="2.56236">
        <ele>-2.5</ele>
        <time>2020-06-23T13:53:43Z</time>
      </trkpt>
      <trkpt lat="51.02883" lon="2.5624">
        <ele>-2.5</ele>
        <time>2020-06-23T13:53:44Z</time>
      </trkpt>
      <trkpt lat="51.02877" lon="2.56245">
        <ele>-2.5</ele>
        <time>2020-06-23T13:53:45Z</time>
      </trkpt>
      <trkpt lat="51.0287" lon="2.56249">
        <ele>-2.5</ele>
        <time>2020-06-23T13:53:46Z</time>
      </trkpt>
      <trkpt lat="51.02864" lon="2.56253">
        <ele>-2.5</ele>
        <time>2020-06-23T13:53:47Z</time>
      </trkpt>
      <trkpt lat="51.02858" lon="2.56258">
        <ele>-2.4</ele>
        <time>2020-06-23T13:53:48Z</time>
      </trkpt>
      <trkpt lat="51.02851" lon="2.56262">
        <ele>-2.4</ele>
        <time>2020-06-23T13:53:49Z</time>
      </trkpt>
      <trkpt lat="51.02845" lon="2.56266">
        <ele>-2.4</ele>
        <time>2020-06-23T13:53:50Z</time>
      </trkpt>
      <trkpt lat="51.02839" lon="2.5627">
        <ele>-2.4</ele>
        <time>2020-06-23T13:53:51Z</time>
      </trkpt>
      <trkpt lat="51.02833" lon="2.56274">
        <ele>-2.3</ele>
        <time>2020-06-23T13:53:52Z</time>
      </trkpt>
      <trkpt lat="51.02826" lon="2.56279">
        <ele>-2.3</ele>
        <time>2020-06-23T13:53:53Z</time>
      </trkpt>
      <trkpt lat="51.0282" lon="2.56282">
        <ele>-2.3</ele>
        <time>2020-06-23T13:53:54Z</time>
      </trkpt>
      <trkpt lat="51.02813" lon="2.56286">
        <ele>-2.3</ele>
        <time>2020-06-23T13:53:55Z</time>
      </trkpt>
      <trkpt lat="51.02807" lon="2.5629">
        <ele>-2.3</ele>
        <time>2020-06-23T13:53:56Z</time>
      </trkpt>
      <trkpt lat="51.028" lon="2.56295">
        <ele>-2.3</ele>
        <time>2020-06-23T13:53:57Z</time>
      </trkpt>
      <trkpt lat="51.02794" lon="2.56299">
        <ele>-2.2</ele>
        <time>2020-06-23T13:53:58Z</time>
      </trkpt>
      <trkpt lat="51.02788" lon="2.56303">
        <ele>-2.2</ele>
        <time>2020-06-23T13:53:59Z</time>
      </trkpt>
      <trkpt lat="51.02781" lon="2.56307">
        <ele>-2.2</ele>
        <time>2020-06-23T13:54:00Z</time>
      </trkpt>
      <trkpt lat="51.02775" lon="2.56312">
        <ele>-2.2</ele>
        <time>2020-06-23T13:54:01Z</time>
      </trkpt>
      <trkpt lat="51.02768" lon="2.56316">
        <ele>-2.1</ele>
        <time>2020-06-23T13:54:02Z</time>
      </trkpt>
      <trkpt lat="51.02761" lon="2.5632">
        <ele>-2.1</ele>
        <time>2020-06-23T13:54:03Z</time>
      </trkpt>
      <trkpt lat="51.02755" lon="2.56323">
        <ele>-2.1</ele>
        <time>2020-06-23T13:54:04Z</time>
      </trkpt>
      <trkpt lat="51.02748" lon="2.56328">
        <ele>-2</ele>
        <time>2020-06-23T13:54:05Z</time>
      </trkpt>
      <trkpt lat="51.02742" lon="2.56333">
        <ele>-2</ele>
        <time>2020-06-23T13:54:06Z</time>
      </trkpt>
      <trkpt lat="51.02735" lon="2.56337">
        <ele>-1.9</ele>
        <time>2020-06-23T13:54:07Z</time>
      </trkpt>
      <trkpt lat="51.02729" lon="2.56342">
        <ele>-1.9</ele>
        <time>2020-06-23T13:54:08Z</time>
      </trkpt>
      <trkpt lat="51.02722" lon="2.56346">
        <ele>-1.9</ele>
        <time>2020-06-23T13:54:09Z</time>
      </trkpt>
      <trkpt lat="51.02715" lon="2.5635">
        <ele>-1.9</ele>
        <time>2020-06-23T13:54:10Z</time>
      </trkpt>
      <trkpt lat="51.02709" lon="2.56355">
        <ele>-1.9</ele>
        <time>2020-06-23T13:54:11Z</time>
      </trkpt>
      <trkpt lat="51.02702" lon="2.56359">
        <ele>-1.9</ele>
        <time>2020-06-23T13:54:12Z</time>
      </trkpt>
      <trkpt lat="51.02695" lon="2.56363">
        <ele>-2</ele>
        <time>2020-06-23T13:54:13Z</time>
      </trkpt>
      <trkpt lat="51.02689" lon="2.56367">
        <ele>-2</ele>
        <time>2020-06-23T13:54:14Z</time>
      </trkpt>
      <trkpt lat="51.02683" lon="2.56371">
        <ele>-2</ele>
        <time>2020-06-23T13:54:15Z</time>
      </trkpt>
      <trkpt lat="51.02676" lon="2.56375">
        <ele>-2</ele>
        <time>2020-06-23T13:54:16Z</time>
      </trkpt>
      <trkpt lat="51.0267" lon="2.5638">
        <ele>-2</ele>
        <time>2020-06-23T13:54:17Z</time>
      </trkpt>
      <trkpt lat="51.02664" lon="2.56384">
        <ele>-2</ele>
        <time>2020-06-23T13:54:18Z</time>
      </trkpt>
      <trkpt lat="51.02657" lon="2.56387">
        <ele>-2</ele>
        <time>2020-06-23T13:54:19Z</time>
      </trkpt>
      <trkpt lat="51.02651" lon="2.5639">
        <ele>-2</ele>
        <time>2020-06-23T13:54:20Z</time>
      </trkpt>
      <trkpt lat="51.02644" lon="2.56394">
        <ele>-2</ele>
        <time>2020-06-23T13:54:21Z</time>
      </trkpt>
      <trkpt lat="51.02637" lon="2.56397">
        <ele>-2</ele>
        <time>2020-06-23T13:54:22Z</time>
      </trkpt>
      <trkpt lat="51.02631" lon="2.56399">
        <ele>-1.9</ele>
        <time>2020-06-23T13:54:23Z</time>
      </trkpt>
      <trkpt lat="51.02624" lon="2.56401">
        <ele>-1.9</ele>
        <time>2020-06-23T13:54:24Z</time>
      </trkpt>
      <trkpt lat="51.02617" lon="2.56402">
        <ele>-1.9</ele>
        <time>2020-06-23T13:54:25Z</time>
      </trkpt>
      <trkpt lat="51.0261" lon="2.56404">
        <ele>-1.8</ele>
        <time>2020-06-23T13:54:26Z</time>
      </trkpt>
      <trkpt lat="51.02604" lon="2.56407">
        <ele>-1.8</ele>
        <time>2020-06-23T13:54:27Z</time>
      </trkpt>
      <trkpt lat="51.02597" lon="2.56411">
        <ele>-1.8</ele>
        <time>2020-06-23T13:54:28Z</time>
      </trkpt>
      <trkpt lat="51.02591" lon="2.56415">
        <ele>-1.8</ele>
        <time>2020-06-23T13:54:29Z</time>
      </trkpt>
      <trkpt lat="51.02584" lon="2.56419">
        <ele>-1.7</ele>
        <time>2020-06-23T13:54:30Z</time>
      </trkpt>
      <trkpt lat="51.02578" lon="2.56424">
        <ele>-1.7</ele>
        <time>2020-06-23T13:54:31Z</time>
      </trkpt>
      <trkpt lat="51.02572" lon="2.56428">
        <ele>-1.8</ele>
        <time>2020-06-23T13:54:32Z</time>
      </trkpt>
      <trkpt lat="51.02565" lon="2.56433">
        <ele>-1.8</ele>
        <time>2020-06-23T13:54:33Z</time>
      </trkpt>
      <trkpt lat="51.02559" lon="2.56437">
        <ele>-1.8</ele>
        <time>2020-06-23T13:54:34Z</time>
      </trkpt>
      <trkpt lat="51.02553" lon="2.56442">
        <ele>-1.8</ele>
        <time>2020-06-23T13:54:35Z</time>
      </trkpt>
      <trkpt lat="51.02546" lon="2.56446">
        <ele>-1.8</ele>
        <time>2020-06-23T13:54:36Z</time>
      </trkpt>
      <trkpt lat="51.0254" lon="2.5645">
        <ele>-1.8</ele>
        <time>2020-06-23T13:54:37Z</time>
      </trkpt>
      <trkpt lat="51.02533" lon="2.56453">
        <ele>-1.8</ele>
        <time>2020-06-23T13:54:38Z</time>
      </trkpt>
      <trkpt lat="51.02527" lon="2.56458">
        <ele>-1.9</ele>
        <time>2020-06-23T13:54:39Z</time>
      </trkpt>
      <trkpt lat="51.02521" lon="2.56462">
        <ele>-1.9</ele>
        <time>2020-06-23T13:54:40Z</time>
      </trkpt>
      <trkpt lat="51.02514" lon="2.56466">
        <ele>-1.9</ele>
        <time>2020-06-23T13:54:41Z</time>
      </trkpt>
      <trkpt lat="51.02508" lon="2.56471">
        <ele>-1.9</ele>
        <time>2020-06-23T13:54:42Z</time>
      </trkpt>
      <trkpt lat="51.02502" lon="2.56475">
        <ele>-2</ele>
        <time>2020-06-23T13:54:43Z</time>
      </trkpt>
      <trkpt lat="51.02495" lon="2.5648">
        <ele>-2</ele>
        <time>2020-06-23T13:54:44Z</time>
      </trkpt>
      <trkpt lat="51.02489" lon="2.56483">
        <ele>-2</ele>
        <time>2020-06-23T13:54:45Z</time>
      </trkpt>
      <trkpt lat="51.02482" lon="2.56487">
        <ele>-2</ele>
        <time>2020-06-23T13:54:46Z</time>
      </trkpt>
      <trkpt lat="51.02476" lon="2.56491">
        <ele>-2</ele>
        <time>2020-06-23T13:54:47Z</time>
      </trkpt>
      <trkpt lat="51.02469" lon="2.56496">
        <ele>-2</ele>
        <time>2020-06-23T13:54:48Z</time>
      </trkpt>
      <trkpt lat="51.02463" lon="2.565">
        <ele>-2</ele>
        <time>2020-06-23T13:54:49Z</time>
      </trkpt>
      <trkpt lat="51.02456" lon="2.56503">
        <ele>-1.9</ele>
        <time>2020-06-23T13:54:50Z</time>
      </trkpt>
      <trkpt lat="51.0245" lon="2.56507">
        <ele>-1.9</ele>
        <time>2020-06-23T13:54:51Z</time>
      </trkpt>
      <trkpt lat="51.02443" lon="2.56511">
        <ele>-1.9</ele>
        <time>2020-06-23T13:54:52Z</time>
      </trkpt>
      <trkpt lat="51.02437" lon="2.56515">
        <ele>-1.9</ele>
        <time>2020-06-23T13:54:53Z</time>
      </trkpt>
      <trkpt lat="51.0243" lon="2.5652">
        <ele>-2</ele>
        <time>2020-06-23T13:54:54Z</time>
      </trkpt>
      <trkpt lat="51.02424" lon="2.56524">
        <ele>-2</ele>
        <time>2020-06-23T13:54:55Z</time>
      </trkpt>
      <trkpt lat="51.02417" lon="2.56528">
        <ele>-2</ele>
        <time>2020-06-23T13:54:56Z</time>
      </trkpt>
      <trkpt lat="51.0241" lon="2.56531">
        <ele>-2</ele>
        <time>2020-06-23T13:54:57Z</time>
      </trkpt>
      <trkpt lat="51.02404" lon="2.56536">
        <ele>-2</ele>
        <time>2020-06-23T13:54:58Z</time>
      </trkpt>
      <trkpt lat="51.02397" lon="2.5654">
        <ele>-2.1</ele>
        <time>2020-06-23T13:54:59Z</time>
      </trkpt>
      <trkpt lat="51.0239" lon="2.56544">
        <ele>-2.1</ele>
        <time>2020-06-23T13:55:00Z</time>
      </trkpt>
      <trkpt lat="51.02384" lon="2.56548">
        <ele>-2.1</ele>
        <time>2020-06-23T13:55:01Z</time>
      </trkpt>
      <trkpt lat="51.02377" lon="2.56552">
        <ele>-2.1</ele>
        <time>2020-06-23T13:55:02Z</time>
      </trkpt>
      <trkpt lat="51.02371" lon="2.56556">
        <ele>-2.1</ele>
        <time>2020-06-23T13:55:03Z</time>
      </trkpt>
      <trkpt lat="51.02364" lon="2.5656">
        <ele>-2</ele>
        <time>2020-06-23T13:55:04Z</time>
      </trkpt>
      <trkpt lat="51.02357" lon="2.56564">
        <ele>-2</ele>
        <time>2020-06-23T13:55:05Z</time>
      </trkpt>
      <trkpt lat="51.02351" lon="2.56568">
        <ele>-2</ele>
        <time>2020-06-23T13:55:06Z</time>
      </trkpt>
      <trkpt lat="51.02344" lon="2.56572">
        <ele>-1.9</ele>
        <time>2020-06-23T13:55:07Z</time>
      </trkpt>
      <trkpt lat="51.02338" lon="2.56577">
        <ele>-1.9</ele>
        <time>2020-06-23T13:55:08Z</time>
      </trkpt>
      <trkpt lat="51.02331" lon="2.5658">
        <ele>-2</ele>
        <time>2020-06-23T13:55:09Z</time>
      </trkpt>
      <trkpt lat="51.02325" lon="2.56585">
        <ele>-2.2</ele>
        <time>2020-06-23T13:55:10Z</time>
      </trkpt>
      <trkpt lat="51.02318" lon="2.56589">
        <ele>-2.3</ele>
        <time>2020-06-23T13:55:11Z</time>
      </trkpt>
      <trkpt lat="51.02312" lon="2.56594">
        <ele>-2.4</ele>
        <time>2020-06-23T13:55:12Z</time>
      </trkpt>
      <trkpt lat="51.02306" lon="2.56598">
        <ele>-2.4</ele>
        <time>2020-06-23T13:55:13Z</time>
      </trkpt>
      <trkpt lat="51.02299" lon="2.56603">
        <ele>-2.4</ele>
        <time>2020-06-23T13:55:14Z</time>
      </trkpt>
      <trkpt lat="51.02293" lon="2.56608">
        <ele>-2.5</ele>
        <time>2020-06-23T13:55:15Z</time>
      </trkpt>
      <trkpt lat="51.02286" lon="2.56612">
        <ele>-2.5</ele>
        <time>2020-06-23T13:55:16Z</time>
      </trkpt>
      <trkpt lat="51.02279" lon="2.56616">
        <ele>-2.5</ele>
        <time>2020-06-23T13:55:17Z</time>
      </trkpt>
      <trkpt lat="51.02272" lon="2.5662">
        <ele>-2.5</ele>
        <time>2020-06-23T13:55:18Z</time>
      </trkpt>
      <trkpt lat="51.02266" lon="2.56624">
        <ele>-2.5</ele>
        <time>2020-06-23T13:55:19Z</time>
      </trkpt>
      <trkpt lat="51.02259" lon="2.56629">
        <ele>-2.5</ele>
        <time>2020-06-23T13:55:20Z</time>
      </trkpt>
      <trkpt lat="51.02253" lon="2.56633">
        <ele>-2.5</ele>
        <time>2020-06-23T13:55:21Z</time>
      </trkpt>
      <trkpt lat="51.02246" lon="2.56637">
        <ele>-2.5</ele>
        <time>2020-06-23T13:55:22Z</time>
      </trkpt>
      <trkpt lat="51.0224" lon="2.5664">
        <ele>-2.5</ele>
        <time>2020-06-23T13:55:23Z</time>
      </trkpt>
      <trkpt lat="51.02233" lon="2.56644">
        <ele>-2.5</ele>
        <time>2020-06-23T13:55:24Z</time>
      </trkpt>
      <trkpt lat="51.02227" lon="2.56649">
        <ele>-2.5</ele>
        <time>2020-06-23T13:55:25Z</time>
      </trkpt>
      <trkpt lat="51.02222" lon="2.56653">
        <ele>-2.5</ele>
        <time>2020-06-23T13:55:26Z</time>
      </trkpt>
      <trkpt lat="51.02216" lon="2.56657">
        <ele>-2.5</ele>
        <time>2020-06-23T13:55:27Z</time>
      </trkpt>
      <trkpt lat="51.0221" lon="2.56661">
        <ele>-2.5</ele>
        <time>2020-06-23T13:55:28Z</time>
      </trkpt>
      <trkpt lat="51.02204" lon="2.56665">
        <ele>-2.5</ele>
        <time>2020-06-23T13:55:29Z</time>
      </trkpt>
      <trkpt lat="51.02198" lon="2.5667">
        <ele>-2.5</ele>
        <time>2020-06-23T13:55:30Z</time>
      </trkpt>
      <trkpt lat="51.02192" lon="2.56674">
        <ele>-2.5</ele>
        <time>2020-06-23T13:55:31Z</time>
      </trkpt>
      <trkpt lat="51.02186" lon="2.56678">
        <ele>-2.5</ele>
        <time>2020-06-23T13:55:32Z</time>
      </trkpt>
      <trkpt lat="51.02179" lon="2.56682">
        <ele>-2.5</ele>
        <time>2020-06-23T13:55:33Z</time>
      </trkpt>
      <trkpt lat="51.02173" lon="2.56687">
        <ele>-2.6</ele>
        <time>2020-06-23T13:55:34Z</time>
      </trkpt>
      <trkpt lat="51.02167" lon="2.56691">
        <ele>-2.6</ele>
        <time>2020-06-23T13:55:35Z</time>
      </trkpt>
      <trkpt lat="51.02161" lon="2.56695">
        <ele>-2.6</ele>
        <time>2020-06-23T13:55:36Z</time>
      </trkpt>
      <trkpt lat="51.02155" lon="2.56699">
        <ele>-2.6</ele>
        <time>2020-06-23T13:55:37Z</time>
      </trkpt>
      <trkpt lat="51.02149" lon="2.56703">
        <ele>-2.6</ele>
        <time>2020-06-23T13:55:38Z</time>
      </trkpt>
      <trkpt lat="51.02143" lon="2.56707">
        <ele>-2.6</ele>
        <time>2020-06-23T13:55:39Z</time>
      </trkpt>
      <trkpt lat="51.02137" lon="2.56711">
        <ele>-2.6</ele>
        <time>2020-06-23T13:55:40Z</time>
      </trkpt>
      <trkpt lat="51.02131" lon="2.56715">
        <ele>-2.6</ele>
        <time>2020-06-23T13:55:41Z</time>
      </trkpt>
      <trkpt lat="51.02124" lon="2.56719">
        <ele>-2.6</ele>
        <time>2020-06-23T13:55:42Z</time>
      </trkpt>
      <trkpt lat="51.02118" lon="2.56723">
        <ele>-2.6</ele>
        <time>2020-06-23T13:55:43Z</time>
      </trkpt>
      <trkpt lat="51.02112" lon="2.56727">
        <ele>-2.6</ele>
        <time>2020-06-23T13:55:44Z</time>
      </trkpt>
      <trkpt lat="51.02105" lon="2.56729">
        <ele>-2.6</ele>
        <time>2020-06-23T13:55:45Z</time>
      </trkpt>
      <trkpt lat="51.02099" lon="2.56732">
        <ele>-2.6</ele>
        <time>2020-06-23T13:55:46Z</time>
      </trkpt>
      <trkpt lat="51.02093" lon="2.56736">
        <ele>-2.6</ele>
        <time>2020-06-23T13:55:47Z</time>
      </trkpt>
      <trkpt lat="51.02086" lon="2.56739">
        <ele>-2.6</ele>
        <time>2020-06-23T13:55:48Z</time>
      </trkpt>
      <trkpt lat="51.0208" lon="2.56743">
        <ele>-2.5</ele>
        <time>2020-06-23T13:55:49Z</time>
      </trkpt>
      <trkpt lat="51.02073" lon="2.56745">
        <ele>-2.5</ele>
        <time>2020-06-23T13:55:50Z</time>
      </trkpt>
      <trkpt lat="51.02067" lon="2.56749">
        <ele>-2.5</ele>
        <time>2020-06-23T13:55:51Z</time>
      </trkpt>
      <trkpt lat="51.02061" lon="2.56753">
        <ele>-2.5</ele>
        <time>2020-06-23T13:55:52Z</time>
      </trkpt>
      <trkpt lat="51.02055" lon="2.56755">
        <ele>-2.5</ele>
        <time>2020-06-23T13:55:53Z</time>
      </trkpt>
      <trkpt lat="51.02048" lon="2.56759">
        <ele>-2.4</ele>
        <time>2020-06-23T13:55:54Z</time>
      </trkpt>
      <trkpt lat="51.02042" lon="2.56763">
        <ele>-2.4</ele>
        <time>2020-06-23T13:55:55Z</time>
      </trkpt>
      <trkpt lat="51.02036" lon="2.56767">
        <ele>-2.4</ele>
        <time>2020-06-23T13:55:56Z</time>
      </trkpt>
      <trkpt lat="51.02031" lon="2.56771">
        <ele>-2.3</ele>
        <time>2020-06-23T13:55:57Z</time>
      </trkpt>
      <trkpt lat="51.02025" lon="2.56775">
        <ele>-2.3</ele>
        <time>2020-06-23T13:55:58Z</time>
      </trkpt>
      <trkpt lat="51.0202" lon="2.56778">
        <ele>-2.2</ele>
        <time>2020-06-23T13:55:59Z</time>
      </trkpt>
      <trkpt lat="51.02015" lon="2.56782">
        <ele>-2.2</ele>
        <time>2020-06-23T13:56:00Z</time>
      </trkpt>
      <trkpt lat="51.0201" lon="2.56785">
        <ele>-2.1</ele>
        <time>2020-06-23T13:56:01Z</time>
      </trkpt>
      <trkpt lat="51.02005" lon="2.56789">
        <ele>-2</ele>
        <time>2020-06-23T13:56:02Z</time>
      </trkpt>
      <trkpt lat="51.02" lon="2.56793">
        <ele>-2</ele>
        <time>2020-06-23T13:56:03Z</time>
      </trkpt>
      <trkpt lat="51.01995" lon="2.56794">
        <ele>-1.9</ele>
        <time>2020-06-23T13:56:04Z</time>
      </trkpt>
      <trkpt lat="51.01991" lon="2.56796">
        <ele>-1.8</ele>
        <time>2020-06-23T13:56:05Z</time>
      </trkpt>
      <trkpt lat="51.01988" lon="2.568">
        <ele>-1.7</ele>
        <time>2020-06-23T13:56:06Z</time>
      </trkpt>
      <trkpt lat="51.01984" lon="2.56803">
        <ele>-1.6</ele>
        <time>2020-06-23T13:56:07Z</time>
      </trkpt>
      <trkpt lat="51.01982" lon="2.56807">
        <ele>-1.5</ele>
        <time>2020-06-23T13:56:08Z</time>
      </trkpt>
      <trkpt lat="51.0198" lon="2.56812">
        <ele>-1.4</ele>
        <time>2020-06-23T13:56:09Z</time>
      </trkpt>
      <trkpt lat="51.01981" lon="2.56817">
        <ele>-1.5</ele>
        <time>2020-06-23T13:56:10Z</time>
      </trkpt>
      <trkpt lat="51.01983" lon="2.56823">
        <ele>-1.6</ele>
        <time>2020-06-23T13:56:11Z</time>
      </trkpt>
      <trkpt lat="51.01985" lon="2.5683">
        <ele>-1.7</ele>
        <time>2020-06-23T13:56:12Z</time>
      </trkpt>
      <trkpt lat="51.01987" lon="2.56838">
        <ele>-1.7</ele>
        <time>2020-06-23T13:56:13Z</time>
      </trkpt>
      <trkpt lat="51.01988" lon="2.56847">
        <ele>-1.8</ele>
        <time>2020-06-23T13:56:14Z</time>
      </trkpt>
      <trkpt lat="51.01991" lon="2.56855">
        <ele>-1.9</ele>
        <time>2020-06-23T13:56:15Z</time>
      </trkpt>
      <trkpt lat="51.01994" lon="2.56864">
        <ele>-1.9</ele>
        <time>2020-06-23T13:56:16Z</time>
      </trkpt>
      <trkpt lat="51.01997" lon="2.56872">
        <ele>-2</ele>
        <time>2020-06-23T13:56:17Z</time>
      </trkpt>
      <trkpt lat="51.01999" lon="2.56881">
        <ele>-2</ele>
        <time>2020-06-23T13:56:18Z</time>
      </trkpt>
      <trkpt lat="51.02002" lon="2.56889">
        <ele>-2</ele>
        <time>2020-06-23T13:56:19Z</time>
      </trkpt>
      <trkpt lat="51.02004" lon="2.56897">
        <ele>-2</ele>
        <time>2020-06-23T13:56:20Z</time>
      </trkpt>
      <trkpt lat="51.02007" lon="2.56906">
        <ele>-2.1</ele>
        <time>2020-06-23T13:56:21Z</time>
      </trkpt>
      <trkpt lat="51.0201" lon="2.56915">
        <ele>-2.1</ele>
        <time>2020-06-23T13:56:22Z</time>
      </trkpt>
      <trkpt lat="51.02012" lon="2.56924">
        <ele>-2.1</ele>
        <time>2020-06-23T13:56:23Z</time>
      </trkpt>
      <trkpt lat="51.02015" lon="2.56934">
        <ele>-2.1</ele>
        <time>2020-06-23T13:56:24Z</time>
      </trkpt>
      <trkpt lat="51.02018" lon="2.56943">
        <ele>-2.1</ele>
        <time>2020-06-23T13:56:25Z</time>
      </trkpt>
      <trkpt lat="51.0202" lon="2.56953">
        <ele>-2</ele>
        <time>2020-06-23T13:56:26Z</time>
      </trkpt>
      <trkpt lat="51.02023" lon="2.56962">
        <ele>-2</ele>
        <time>2020-06-23T13:56:27Z</time>
      </trkpt>
      <trkpt lat="51.02025" lon="2.56972">
        <ele>-2</ele>
        <time>2020-06-23T13:56:28Z</time>
      </trkpt>
      <trkpt lat="51.02028" lon="2.56981">
        <ele>-1.9</ele>
        <time>2020-06-23T13:56:29Z</time>
      </trkpt>
      <trkpt lat="51.0203" lon="2.56991">
        <ele>-1.9</ele>
        <time>2020-06-23T13:56:30Z</time>
      </trkpt>
      <trkpt lat="51.02033" lon="2.57">
        <ele>-1.9</ele>
        <time>2020-06-23T13:56:31Z</time>
      </trkpt>
      <trkpt lat="51.02035" lon="2.57009">
        <ele>-1.9</ele>
        <time>2020-06-23T13:56:32Z</time>
      </trkpt>
      <trkpt lat="51.02039" lon="2.57019">
        <ele>-1.9</ele>
        <time>2020-06-23T13:56:33Z</time>
      </trkpt>
      <trkpt lat="51.02041" lon="2.57029">
        <ele>-1.9</ele>
        <time>2020-06-23T13:56:34Z</time>
      </trkpt>
      <trkpt lat="51.02043" lon="2.57037">
        <ele>-1.9</ele>
        <time>2020-06-23T13:56:35Z</time>
      </trkpt>
      <trkpt lat="51.02045" lon="2.57045">
        <ele>-1.9</ele>
        <time>2020-06-23T13:56:36Z</time>
      </trkpt>
      <trkpt lat="51.02048" lon="2.57053">
        <ele>-1.9</ele>
        <time>2020-06-23T13:56:37Z</time>
      </trkpt>
      <trkpt lat="51.0205" lon="2.57062">
        <ele>-1.9</ele>
        <time>2020-06-23T13:56:38Z</time>
      </trkpt>
      <trkpt lat="51.02052" lon="2.57071">
        <ele>-1.9</ele>
        <time>2020-06-23T13:56:39Z</time>
      </trkpt>
      <trkpt lat="51.02055" lon="2.5708">
        <ele>-1.9</ele>
        <time>2020-06-23T13:56:40Z</time>
      </trkpt>
      <trkpt lat="51.02057" lon="2.57089">
        <ele>-1.9</ele>
        <time>2020-06-23T13:56:41Z</time>
      </trkpt>
      <trkpt lat="51.0206" lon="2.57098">
        <ele>-1.9</ele>
        <time>2020-06-23T13:56:42Z</time>
      </trkpt>
      <trkpt lat="51.02062" lon="2.57107">
        <ele>-1.9</ele>
        <time>2020-06-23T13:56:43Z</time>
      </trkpt>
      <trkpt lat="51.02065" lon="2.57116">
        <ele>-1.9</ele>
        <time>2020-06-23T13:56:44Z</time>
      </trkpt>
      <trkpt lat="51.02067" lon="2.57123">
        <ele>-1.9</ele>
        <time>2020-06-23T13:56:45Z</time>
      </trkpt>
      <trkpt lat="51.0207" lon="2.57132">
        <ele>-1.9</ele>
        <time>2020-06-23T13:56:46Z</time>
      </trkpt>
      <trkpt lat="51.02073" lon="2.5714">
        <ele>-1.9</ele>
        <time>2020-06-23T13:56:47Z</time>
      </trkpt>
      <trkpt lat="51.02075" lon="2.57148">
        <ele>-1.9</ele>
        <time>2020-06-23T13:56:48Z</time>
      </trkpt>
      <trkpt lat="51.02078" lon="2.57156">
        <ele>-1.9</ele>
        <time>2020-06-23T13:56:49Z</time>
      </trkpt>
      <trkpt lat="51.0208" lon="2.57163">
        <ele>-1.9</ele>
        <time>2020-06-23T13:56:50Z</time>
      </trkpt>
      <trkpt lat="51.02082" lon="2.57171">
        <ele>-1.9</ele>
        <time>2020-06-23T13:56:51Z</time>
      </trkpt>
      <trkpt lat="51.02084" lon="2.57179">
        <ele>-1.9</ele>
        <time>2020-06-23T13:56:52Z</time>
      </trkpt>
      <trkpt lat="51.02087" lon="2.57187">
        <ele>-1.8</ele>
        <time>2020-06-23T13:56:53Z</time>
      </trkpt>
      <trkpt lat="51.02089" lon="2.57195">
        <ele>-1.8</ele>
        <time>2020-06-23T13:56:54Z</time>
      </trkpt>
      <trkpt lat="51.02091" lon="2.57203">
        <ele>-1.8</ele>
        <time>2020-06-23T13:56:55Z</time>
      </trkpt>
      <trkpt lat="51.02094" lon="2.57212">
        <ele>-1.8</ele>
        <time>2020-06-23T13:56:56Z</time>
      </trkpt>
      <trkpt lat="51.02096" lon="2.57219">
        <ele>-1.7</ele>
        <time>2020-06-23T13:56:57Z</time>
      </trkpt>
      <trkpt lat="51.02098" lon="2.57227">
        <ele>-1.7</ele>
        <time>2020-06-23T13:56:58Z</time>
      </trkpt>
      <trkpt lat="51.02101" lon="2.57234">
        <ele>-1.7</ele>
        <time>2020-06-23T13:56:59Z</time>
      </trkpt>
      <trkpt lat="51.02103" lon="2.57242">
        <ele>-1.7</ele>
        <time>2020-06-23T13:57:00Z</time>
      </trkpt>
      <trkpt lat="51.02106" lon="2.57252">
        <ele>-1.6</ele>
        <time>2020-06-23T13:57:01Z</time>
      </trkpt>
      <trkpt lat="51.02108" lon="2.57259">
        <ele>-1.6</ele>
        <time>2020-06-23T13:57:02Z</time>
      </trkpt>
      <trkpt lat="51.02111" lon="2.57267">
        <ele>-1.6</ele>
        <time>2020-06-23T13:57:03Z</time>
      </trkpt>
      <trkpt lat="51.02113" lon="2.57276">
        <ele>-1.5</ele>
        <time>2020-06-23T13:57:04Z</time>
      </trkpt>
      <trkpt lat="51.02115" lon="2.57284">
        <ele>-1.5</ele>
        <time>2020-06-23T13:57:05Z</time>
      </trkpt>
      <trkpt lat="51.02117" lon="2.57292">
        <ele>-1.5</ele>
        <time>2020-06-23T13:57:06Z</time>
      </trkpt>
      <trkpt lat="51.02119" lon="2.573">
        <ele>-1.5</ele>
        <time>2020-06-23T13:57:07Z</time>
      </trkpt>
      <trkpt lat="51.02121" lon="2.57308">
        <ele>-1.4</ele>
        <time>2020-06-23T13:57:08Z</time>
      </trkpt>
      <trkpt lat="51.02123" lon="2.57314">
        <ele>-1.4</ele>
        <time>2020-06-23T13:57:09Z</time>
      </trkpt>
      <trkpt lat="51.02125" lon="2.57322">
        <ele>-1.4</ele>
        <time>2020-06-23T13:57:10Z</time>
      </trkpt>
      <trkpt lat="51.02127" lon="2.5733">
        <ele>-1.4</ele>
        <time>2020-06-23T13:57:11Z</time>
      </trkpt>
      <trkpt lat="51.02129" lon="2.57337">
        <ele>-1.4</ele>
        <time>2020-06-23T13:57:12Z</time>
      </trkpt>
      <trkpt lat="51.0213" lon="2.57343">
        <ele>-1.4</ele>
        <time>2020-06-23T13:57:13Z</time>
      </trkpt>
      <trkpt lat="51.02132" lon="2.57349">
        <ele>-1.5</ele>
        <time>2020-06-23T13:57:14Z</time>
      </trkpt>
      <trkpt lat="51.02134" lon="2.57355">
        <ele>-1.5</ele>
        <time>2020-06-23T13:57:15Z</time>
      </trkpt>
      <trkpt lat="51.02135" lon="2.57361">
        <ele>-1.5</ele>
        <time>2020-06-23T13:57:16Z</time>
      </trkpt>
      <trkpt lat="51.02137" lon="2.57366">
        <ele>-1.5</ele>
        <time>2020-06-23T13:57:17Z</time>
      </trkpt>
      <trkpt lat="51.02137" lon="2.57368">
        <ele>-1.5</ele>
        <time>2020-06-23T13:57:18Z</time>
      </trkpt>
      <trkpt lat="51.02138" lon="2.57373">
        <ele>-1.4</ele>
        <time>2020-06-23T13:57:19Z</time>
      </trkpt>
      <trkpt lat="51.02139" lon="2.57375">
        <ele>-1.4</ele>
        <time>2020-06-23T13:57:20Z</time>
      </trkpt>
      <trkpt lat="51.0214" lon="2.5738">
        <ele>-1.4</ele>
        <time>2020-06-23T13:57:21Z</time>
      </trkpt>
      <trkpt lat="51.02141" lon="2.57382">
        <ele>-1.4</ele>
        <time>2020-06-23T13:57:22Z</time>
      </trkpt>
      <trkpt lat="51.02142" lon="2.57385">
        <ele>-1.5</ele>
        <time>2020-06-23T13:57:23Z</time>
      </trkpt>
      <trkpt lat="51.02142" lon="2.57387">
        <ele>-1.5</ele>
        <time>2020-06-23T13:57:24Z</time>
      </trkpt>
      <trkpt lat="51.02144" lon="2.57392">
        <ele>-1.5</ele>
        <time>2020-06-23T13:57:25Z</time>
      </trkpt>
      <trkpt lat="51.02144" lon="2.57393">
        <ele>-1.5</ele>
        <time>2020-06-23T13:57:26Z</time>
      </trkpt>
      <trkpt lat="51.02145" lon="2.57396">
        <ele>-1.5</ele>
        <time>2020-06-23T13:57:27Z</time>
      </trkpt>
      <trkpt lat="51.02145" lon="2.57398">
        <ele>-1.5</ele>
        <time>2020-06-23T13:57:28Z</time>
      </trkpt>
      <trkpt lat="51.02145" lon="2.574">
        <ele>-1.5</ele>
        <time>2020-06-23T13:57:29Z</time>
      </trkpt>
      <trkpt lat="51.02145" lon="2.57402">
        <ele>-1.5</ele>
        <time>2020-06-23T13:57:30Z</time>
      </trkpt>
      <trkpt lat="51.02146" lon="2.57405">
        <ele>-1.6</ele>
        <time>2020-06-23T13:57:31Z</time>
      </trkpt>
      <trkpt lat="51.02146" lon="2.57406">
        <ele>-1.6</ele>
        <time>2020-06-23T13:57:32Z</time>
      </trkpt>
      <trkpt lat="51.02145" lon="2.57405">
        <ele>-1.6</ele>
        <time>2020-06-23T13:57:33Z</time>
      </trkpt>
      <trkpt lat="51.02145" lon="2.57405">
        <ele>-1.6</ele>
        <time>2020-06-23T13:57:34Z</time>
      </trkpt>
      <trkpt lat="51.02145" lon="2.57405">
        <ele>-1.6</ele>
        <time>2020-06-23T13:57:35Z</time>
      </trkpt>
      <trkpt lat="51.02145" lon="2.57404">
        <ele>-1.6</ele>
        <time>2020-06-23T13:57:36Z</time>
      </trkpt>
      <trkpt lat="51.02145" lon="2.57404">
        <ele>-1.6</ele>
        <time>2020-06-23T13:57:37Z</time>
      </trkpt>
      <trkpt lat="51.02145" lon="2.57405">
        <ele>-1.6</ele>
        <time>2020-06-23T13:57:38Z</time>
      </trkpt>
      <trkpt lat="51.02145" lon="2.57404">
        <ele>-1.6</ele>
        <time>2020-06-23T13:57:39Z</time>
      </trkpt>
      <trkpt lat="51.02145" lon="2.57404">
        <ele>-1.6</ele>
        <time>2020-06-23T13:57:40Z</time>
      </trkpt>
      <trkpt lat="51.02145" lon="2.57404">
        <ele>-1.6</ele>
        <time>2020-06-23T13:57:41Z</time>
      </trkpt>
      <trkpt lat="51.02145" lon="2.57406">
        <ele>-1.6</ele>
        <time>2020-06-23T13:57:42Z</time>
      </trkpt>
      <trkpt lat="51.02145" lon="2.57406">
        <ele>-1.6</ele>
        <time>2020-06-23T13:57:43Z</time>
      </trkpt>
      <trkpt lat="51.02155" lon="2.57448">
        <ele>-1.5</ele>
        <time>2020-06-23T13:58:54Z</time>
      </trkpt>
      <trkpt lat="51.02156" lon="2.57454">
        <ele>-1.5</ele>
        <time>2020-06-23T13:58:55Z</time>
      </trkpt>
      <trkpt lat="51.02157" lon="2.57459">
        <ele>-1.5</ele>
        <time>2020-06-23T13:58:56Z</time>
      </trkpt>
      <trkpt lat="51.02159" lon="2.57466">
        <ele>-1.5</ele>
        <time>2020-06-23T13:58:57Z</time>
      </trkpt>
      <trkpt lat="51.02161" lon="2.57473">
        <ele>-1.5</ele>
        <time>2020-06-23T13:58:58Z</time>
      </trkpt>
      <trkpt lat="51.02164" lon="2.57479">
        <ele>-1.5</ele>
        <time>2020-06-23T13:58:59Z</time>
      </trkpt>
      <trkpt lat="51.02165" lon="2.57487">
        <ele>-1.5</ele>
        <time>2020-06-23T13:59:00Z</time>
      </trkpt>
      <trkpt lat="51.02167" lon="2.57494">
        <ele>-1.6</ele>
        <time>2020-06-23T13:59:01Z</time>
      </trkpt>
      <trkpt lat="51.0217" lon="2.575">
        <ele>-1.6</ele>
        <time>2020-06-23T13:59:02Z</time>
      </trkpt>
      <trkpt lat="51.02172" lon="2.57507">
        <ele>-1.6</ele>
        <time>2020-06-23T13:59:03Z</time>
      </trkpt>
      <trkpt lat="51.02174" lon="2.57514">
        <ele>-1.6</ele>
        <time>2020-06-23T13:59:04Z</time>
      </trkpt>
      <trkpt lat="51.02175" lon="2.57519">
        <ele>-1.6</ele>
        <time>2020-06-23T13:59:05Z</time>
      </trkpt>
      <trkpt lat="51.02176" lon="2.57525">
        <ele>-1.6</ele>
        <time>2020-06-23T13:59:06Z</time>
      </trkpt>
      <trkpt lat="51.02178" lon="2.57532">
        <ele>-1.7</ele>
        <time>2020-06-23T13:59:07Z</time>
      </trkpt>
      <trkpt lat="51.02179" lon="2.5754">
        <ele>-1.7</ele>
        <time>2020-06-23T13:59:08Z</time>
      </trkpt>
      <trkpt lat="51.02181" lon="2.57547">
        <ele>-1.7</ele>
        <time>2020-06-23T13:59:09Z</time>
      </trkpt>
      <trkpt lat="51.02184" lon="2.57554">
        <ele>-1.7</ele>
        <time>2020-06-23T13:59:10Z</time>
      </trkpt>
      <trkpt lat="51.02185" lon="2.57562">
        <ele>-1.8</ele>
        <time>2020-06-23T13:59:11Z</time>
      </trkpt>
      <trkpt lat="51.02188" lon="2.5757">
        <ele>-1.8</ele>
        <time>2020-06-23T13:59:12Z</time>
      </trkpt>
      <trkpt lat="51.0219" lon="2.57578">
        <ele>-1.8</ele>
        <time>2020-06-23T13:59:13Z</time>
      </trkpt>
      <trkpt lat="51.02193" lon="2.57587">
        <ele>-1.8</ele>
        <time>2020-06-23T13:59:14Z</time>
      </trkpt>
      <trkpt lat="51.02195" lon="2.57595">
        <ele>-1.8</ele>
        <time>2020-06-23T13:59:15Z</time>
      </trkpt>
      <trkpt lat="51.02197" lon="2.57602">
        <ele>-1.8</ele>
        <time>2020-06-23T13:59:16Z</time>
      </trkpt>
      <trkpt lat="51.02199" lon="2.57609">
        <ele>-1.9</ele>
        <time>2020-06-23T13:59:17Z</time>
      </trkpt>
      <trkpt lat="51.022" lon="2.57617">
        <ele>-1.9</ele>
        <time>2020-06-23T13:59:18Z</time>
      </trkpt>
      <trkpt lat="51.02202" lon="2.57626">
        <ele>-1.9</ele>
        <time>2020-06-23T13:59:19Z</time>
      </trkpt>
      <trkpt lat="51.02205" lon="2.57634">
        <ele>-1.9</ele>
        <time>2020-06-23T13:59:20Z</time>
      </trkpt>
      <trkpt lat="51.02207" lon="2.57643">
        <ele>-2</ele>
        <time>2020-06-23T13:59:21Z</time>
      </trkpt>
      <trkpt lat="51.02209" lon="2.57651">
        <ele>-2</ele>
        <time>2020-06-23T13:59:22Z</time>
      </trkpt>
      <trkpt lat="51.02211" lon="2.57659">
        <ele>-2</ele>
        <time>2020-06-23T13:59:23Z</time>
      </trkpt>
      <trkpt lat="51.02213" lon="2.57668">
        <ele>-2</ele>
        <time>2020-06-23T13:59:24Z</time>
      </trkpt>
      <trkpt lat="51.02215" lon="2.57677">
        <ele>-2</ele>
        <time>2020-06-23T13:59:25Z</time>
      </trkpt>
      <trkpt lat="51.02217" lon="2.57686">
        <ele>-2.1</ele>
        <time>2020-06-23T13:59:26Z</time>
      </trkpt>
      <trkpt lat="51.0222" lon="2.57694">
        <ele>-2.1</ele>
        <time>2020-06-23T13:59:27Z</time>
      </trkpt>
      <trkpt lat="51.02222" lon="2.57703">
        <ele>-2.1</ele>
        <time>2020-06-23T13:59:28Z</time>
      </trkpt>
      <trkpt lat="51.02224" lon="2.57711">
        <ele>-2.1</ele>
        <time>2020-06-23T13:59:29Z</time>
      </trkpt>
      <trkpt lat="51.02226" lon="2.57719">
        <ele>-2.1</ele>
        <time>2020-06-23T13:59:30Z</time>
      </trkpt>
      <trkpt lat="51.02228" lon="2.57727">
        <ele>-2.1</ele>
        <time>2020-06-23T13:59:31Z</time>
      </trkpt>
      <trkpt lat="51.0223" lon="2.57736">
        <ele>-2.1</ele>
        <time>2020-06-23T13:59:32Z</time>
      </trkpt>
      <trkpt lat="51.02232" lon="2.57743">
        <ele>-2.1</ele>
        <time>2020-06-23T13:59:33Z</time>
      </trkpt>
      <trkpt lat="51.02234" lon="2.5775">
        <ele>-2.1</ele>
        <time>2020-06-23T13:59:34Z</time>
      </trkpt>
      <trkpt lat="51.02236" lon="2.57757">
        <ele>-2.1</ele>
        <time>2020-06-23T13:59:35Z</time>
      </trkpt>
      <trkpt lat="51.02239" lon="2.57765">
        <ele>-2.1</ele>
        <time>2020-06-23T13:59:36Z</time>
      </trkpt>
      <trkpt lat="51.02241" lon="2.57772">
        <ele>-2</ele>
        <time>2020-06-23T13:59:37Z</time>
      </trkpt>
      <trkpt lat="51.02243" lon="2.57778">
        <ele>-2</ele>
        <time>2020-06-23T13:59:38Z</time>
      </trkpt>
      <trkpt lat="51.02245" lon="2.57785">
        <ele>-1.9</ele>
        <time>2020-06-23T13:59:39Z</time>
      </trkpt>
      <trkpt lat="51.02246" lon="2.5779">
        <ele>-1.9</ele>
        <time>2020-06-23T13:59:40Z</time>
      </trkpt>
      <trkpt lat="51.02248" lon="2.57796">
        <ele>-1.8</ele>
        <time>2020-06-23T13:59:41Z</time>
      </trkpt>
      <trkpt lat="51.02249" lon="2.57802">
        <ele>-1.8</ele>
        <time>2020-06-23T13:59:42Z</time>
      </trkpt>
      <trkpt lat="51.02251" lon="2.5781">
        <ele>-1.7</ele>
        <time>2020-06-23T13:59:43Z</time>
      </trkpt>
      <trkpt lat="51.02251" lon="2.57815">
        <ele>-1.8</ele>
        <time>2020-06-23T13:59:44Z</time>
      </trkpt>
      <trkpt lat="51.0225" lon="2.5782">
        <ele>-1.8</ele>
        <time>2020-06-23T13:59:45Z</time>
      </trkpt>
      <trkpt lat="51.0225" lon="2.57825">
        <ele>-1.9</ele>
        <time>2020-06-23T13:59:46Z</time>
      </trkpt>
      <trkpt lat="51.02247" lon="2.57827">
        <ele>-2</ele>
        <time>2020-06-23T13:59:47Z</time>
      </trkpt>
      <trkpt lat="51.02242" lon="2.57828">
        <ele>-2.1</ele>
        <time>2020-06-23T13:59:48Z</time>
      </trkpt>
      <trkpt lat="51.02236" lon="2.57829">
        <ele>-2.2</ele>
        <time>2020-06-23T13:59:49Z</time>
      </trkpt>
      <trkpt lat="51.02231" lon="2.57833">
        <ele>-2.3</ele>
        <time>2020-06-23T13:59:50Z</time>
      </trkpt>
      <trkpt lat="51.02225" lon="2.57838">
        <ele>-2.4</ele>
        <time>2020-06-23T13:59:51Z</time>
      </trkpt>
      <trkpt lat="51.02219" lon="2.57842">
        <ele>-2.5</ele>
        <time>2020-06-23T13:59:52Z</time>
      </trkpt>
      <trkpt lat="51.02213" lon="2.57845">
        <ele>-2.5</ele>
        <time>2020-06-23T13:59:53Z</time>
      </trkpt>
      <trkpt lat="51.02207" lon="2.57848">
        <ele>-2.6</ele>
        <time>2020-06-23T13:59:54Z</time>
      </trkpt>
      <trkpt lat="51.022" lon="2.5785">
        <ele>-2.6</ele>
        <time>2020-06-23T13:59:55Z</time>
      </trkpt>
      <trkpt lat="51.02195" lon="2.57852">
        <ele>-2.6</ele>
        <time>2020-06-23T13:59:56Z</time>
      </trkpt>
      <trkpt lat="51.02188" lon="2.57855">
        <ele>-2.7</ele>
        <time>2020-06-23T13:59:57Z</time>
      </trkpt>
      <trkpt lat="51.02182" lon="2.57858">
        <ele>-2.7</ele>
        <time>2020-06-23T13:59:58Z</time>
      </trkpt>
      <trkpt lat="51.02176" lon="2.57862">
        <ele>-2.7</ele>
        <time>2020-06-23T13:59:59Z</time>
      </trkpt>
      <trkpt lat="51.0217" lon="2.57865">
        <ele>-2.7</ele>
        <time>2020-06-23T14:00:00Z</time>
      </trkpt>
      <trkpt lat="51.02165" lon="2.57868">
        <ele>-2.7</ele>
        <time>2020-06-23T14:00:01Z</time>
      </trkpt>
      <trkpt lat="51.02159" lon="2.57871">
        <ele>-2.7</ele>
        <time>2020-06-23T14:00:02Z</time>
      </trkpt>
      <trkpt lat="51.02153" lon="2.57875">
        <ele>-2.7</ele>
        <time>2020-06-23T14:00:03Z</time>
      </trkpt>
      <trkpt lat="51.02147" lon="2.57878">
        <ele>-2.7</ele>
        <time>2020-06-23T14:00:04Z</time>
      </trkpt>
      <trkpt lat="51.02142" lon="2.57881">
        <ele>-2.7</ele>
        <time>2020-06-23T14:00:05Z</time>
      </trkpt>
      <trkpt lat="51.02137" lon="2.57885">
        <ele>-2.7</ele>
        <time>2020-06-23T14:00:06Z</time>
      </trkpt>
      <trkpt lat="51.02131" lon="2.57888">
        <ele>-2.7</ele>
        <time>2020-06-23T14:00:07Z</time>
      </trkpt>
      <trkpt lat="51.02125" lon="2.57892">
        <ele>-2.7</ele>
        <time>2020-06-23T14:00:08Z</time>
      </trkpt>
      <trkpt lat="51.02119" lon="2.57895">
        <ele>-2.7</ele>
        <time>2020-06-23T14:00:09Z</time>
      </trkpt>
      <trkpt lat="51.02113" lon="2.57899">
        <ele>-2.7</ele>
        <time>2020-06-23T14:00:10Z</time>
      </trkpt>
      <trkpt lat="51.02106" lon="2.57904">
        <ele>-2.8</ele>
        <time>2020-06-23T14:00:11Z</time>
      </trkpt>
      <trkpt lat="51.021" lon="2.57907">
        <ele>-2.8</ele>
        <time>2020-06-23T14:00:12Z</time>
      </trkpt>
      <trkpt lat="51.02094" lon="2.57912">
        <ele>-2.8</ele>
        <time>2020-06-23T14:00:13Z</time>
      </trkpt>
      <trkpt lat="51.02088" lon="2.57916">
        <ele>-2.8</ele>
        <time>2020-06-23T14:00:14Z</time>
      </trkpt>
      <trkpt lat="51.02083" lon="2.5792">
        <ele>-2.8</ele>
        <time>2020-06-23T14:00:15Z</time>
      </trkpt>
      <trkpt lat="51.02077" lon="2.57923">
        <ele>-2.8</ele>
        <time>2020-06-23T14:00:16Z</time>
      </trkpt>
      <trkpt lat="51.0207" lon="2.57927">
        <ele>-2.8</ele>
        <time>2020-06-23T14:00:17Z</time>
      </trkpt>
      <trkpt lat="51.02064" lon="2.57931">
        <ele>-2.8</ele>
        <time>2020-06-23T14:00:18Z</time>
      </trkpt>
      <trkpt lat="51.02057" lon="2.57934">
        <ele>-2.9</ele>
        <time>2020-06-23T14:00:19Z</time>
      </trkpt>
      <trkpt lat="51.02051" lon="2.57937">
        <ele>-2.9</ele>
        <time>2020-06-23T14:00:20Z</time>
      </trkpt>
      <trkpt lat="51.02044" lon="2.57941">
        <ele>-2.9</ele>
        <time>2020-06-23T14:00:21Z</time>
      </trkpt>
      <trkpt lat="51.02038" lon="2.57944">
        <ele>-2.9</ele>
        <time>2020-06-23T14:00:22Z</time>
      </trkpt>
      <trkpt lat="51.02032" lon="2.57948">
        <ele>-3</ele>
        <time>2020-06-23T14:00:23Z</time>
      </trkpt>
      <trkpt lat="51.02026" lon="2.57951">
        <ele>-3</ele>
        <time>2020-06-23T14:00:24Z</time>
      </trkpt>
      <trkpt lat="51.02019" lon="2.57955">
        <ele>-3</ele>
        <time>2020-06-23T14:00:25Z</time>
      </trkpt>
      <trkpt lat="51.02013" lon="2.57959">
        <ele>-3</ele>
        <time>2020-06-23T14:00:26Z</time>
      </trkpt>
      <trkpt lat="51.02007" lon="2.57962">
        <ele>-3</ele>
        <time>2020-06-23T14:00:27Z</time>
      </trkpt>
      <trkpt lat="51.02" lon="2.57966">
        <ele>-3</ele>
        <time>2020-06-23T14:00:28Z</time>
      </trkpt>
      <trkpt lat="51.01994" lon="2.57971">
        <ele>-3</ele>
        <time>2020-06-23T14:00:29Z</time>
      </trkpt>
      <trkpt lat="51.01987" lon="2.57975">
        <ele>-3</ele>
        <time>2020-06-23T14:00:30Z</time>
      </trkpt>
      <trkpt lat="51.01981" lon="2.57979">
        <ele>-3</ele>
        <time>2020-06-23T14:00:31Z</time>
      </trkpt>
      <trkpt lat="51.01975" lon="2.57983">
        <ele>-3</ele>
        <time>2020-06-23T14:00:32Z</time>
      </trkpt>
      <trkpt lat="51.01969" lon="2.57987">
        <ele>-3</ele>
        <time>2020-06-23T14:00:33Z</time>
      </trkpt>
      <trkpt lat="51.01962" lon="2.57991">
        <ele>-3</ele>
        <time>2020-06-23T14:00:34Z</time>
      </trkpt>
      <trkpt lat="51.01956" lon="2.57996">
        <ele>-3</ele>
        <time>2020-06-23T14:00:35Z</time>
      </trkpt>
      <trkpt lat="51.01949" lon="2.58">
        <ele>-3</ele>
        <time>2020-06-23T14:00:36Z</time>
      </trkpt>
      <trkpt lat="51.01943" lon="2.58004">
        <ele>-3</ele>
        <time>2020-06-23T14:00:37Z</time>
      </trkpt>
      <trkpt lat="51.01936" lon="2.58008">
        <ele>-3</ele>
        <time>2020-06-23T14:00:38Z</time>
      </trkpt>
      <trkpt lat="51.0193" lon="2.58012">
        <ele>-3</ele>
        <time>2020-06-23T14:00:39Z</time>
      </trkpt>
      <trkpt lat="51.01923" lon="2.58017">
        <ele>-3</ele>
        <time>2020-06-23T14:00:40Z</time>
      </trkpt>
      <trkpt lat="51.01917" lon="2.58021">
        <ele>-3</ele>
        <time>2020-06-23T14:00:41Z</time>
      </trkpt>
      <trkpt lat="51.0191" lon="2.58025">
        <ele>-3</ele>
        <time>2020-06-23T14:00:42Z</time>
      </trkpt>
      <trkpt lat="51.01903" lon="2.58028">
        <ele>-3</ele>
        <time>2020-06-23T14:00:43Z</time>
      </trkpt>
      <trkpt lat="51.01896" lon="2.58033">
        <ele>-3</ele>
        <time>2020-06-23T14:00:44Z</time>
      </trkpt>
      <trkpt lat="51.0189" lon="2.58038">
        <ele>-3</ele>
        <time>2020-06-23T14:00:45Z</time>
      </trkpt>
      <trkpt lat="51.01883" lon="2.58042">
        <ele>-3</ele>
        <time>2020-06-23T14:00:46Z</time>
      </trkpt>
      <trkpt lat="51.01877" lon="2.58047">
        <ele>-3</ele>
        <time>2020-06-23T14:00:47Z</time>
      </trkpt>
      <trkpt lat="51.01871" lon="2.58051">
        <ele>-3</ele>
        <time>2020-06-23T14:00:48Z</time>
      </trkpt>
      <trkpt lat="51.01864" lon="2.58055">
        <ele>-3</ele>
        <time>2020-06-23T14:00:49Z</time>
      </trkpt>
      <trkpt lat="51.01858" lon="2.5806">
        <ele>-3</ele>
        <time>2020-06-23T14:00:50Z</time>
      </trkpt>
      <trkpt lat="51.01853" lon="2.58064">
        <ele>-2.9</ele>
        <time>2020-06-23T14:00:51Z</time>
      </trkpt>
      <trkpt lat="51.01847" lon="2.58067">
        <ele>-2.9</ele>
        <time>2020-06-23T14:00:52Z</time>
      </trkpt>
      <trkpt lat="51.01841" lon="2.5807">
        <ele>-2.9</ele>
        <time>2020-06-23T14:00:53Z</time>
      </trkpt>
      <trkpt lat="51.01835" lon="2.58073">
        <ele>-2.9</ele>
        <time>2020-06-23T14:00:54Z</time>
      </trkpt>
      <trkpt lat="51.01829" lon="2.58075">
        <ele>-2.8</ele>
        <time>2020-06-23T14:00:55Z</time>
      </trkpt>
      <trkpt lat="51.01823" lon="2.58079">
        <ele>-2.8</ele>
        <time>2020-06-23T14:00:56Z</time>
      </trkpt>
      <trkpt lat="51.01818" lon="2.58084">
        <ele>-2.8</ele>
        <time>2020-06-23T14:00:57Z</time>
      </trkpt>
      <trkpt lat="51.01813" lon="2.58088">
        <ele>-2.8</ele>
        <time>2020-06-23T14:00:58Z</time>
      </trkpt>
      <trkpt lat="51.01807" lon="2.58092">
        <ele>-2.9</ele>
        <time>2020-06-23T14:00:59Z</time>
      </trkpt>
      <trkpt lat="51.01801" lon="2.58096">
        <ele>-2.9</ele>
        <time>2020-06-23T14:01:00Z</time>
      </trkpt>
      <trkpt lat="51.01796" lon="2.581">
        <ele>-2.9</ele>
        <time>2020-06-23T14:01:01Z</time>
      </trkpt>
      <trkpt lat="51.0179" lon="2.58104">
        <ele>-2.9</ele>
        <time>2020-06-23T14:01:02Z</time>
      </trkpt>
      <trkpt lat="51.01783" lon="2.58108">
        <ele>-2.9</ele>
        <time>2020-06-23T14:01:03Z</time>
      </trkpt>
      <trkpt lat="51.01777" lon="2.58111">
        <ele>-2.9</ele>
        <time>2020-06-23T14:01:04Z</time>
      </trkpt>
      <trkpt lat="51.01772" lon="2.58115">
        <ele>-2.9</ele>
        <time>2020-06-23T14:01:05Z</time>
      </trkpt>
      <trkpt lat="51.01766" lon="2.58118">
        <ele>-2.8</ele>
        <time>2020-06-23T14:01:06Z</time>
      </trkpt>
      <trkpt lat="51.0176" lon="2.58122">
        <ele>-2.8</ele>
        <time>2020-06-23T14:01:07Z</time>
      </trkpt>
      <trkpt lat="51.01754" lon="2.58126">
        <ele>-2.7</ele>
        <time>2020-06-23T14:01:08Z</time>
      </trkpt>
      <trkpt lat="51.01748" lon="2.5813">
        <ele>-2.7</ele>
        <time>2020-06-23T14:01:09Z</time>
      </trkpt>
      <trkpt lat="51.01742" lon="2.58134">
        <ele>-2.6</ele>
        <time>2020-06-23T14:01:10Z</time>
      </trkpt>
      <trkpt lat="51.01737" lon="2.58138">
        <ele>-2.5</ele>
        <time>2020-06-23T14:01:11Z</time>
      </trkpt>
      <trkpt lat="51.01731" lon="2.58141">
        <ele>-2.5</ele>
        <time>2020-06-23T14:01:12Z</time>
      </trkpt>
      <trkpt lat="51.01726" lon="2.58147">
        <ele>-2.4</ele>
        <time>2020-06-23T14:01:13Z</time>
      </trkpt>
      <trkpt lat="51.0172" lon="2.58153">
        <ele>-2.3</ele>
        <time>2020-06-23T14:01:14Z</time>
      </trkpt>
      <trkpt lat="51.01716" lon="2.58159">
        <ele>-2.1</ele>
        <time>2020-06-23T14:01:15Z</time>
      </trkpt>
      <trkpt lat="51.01711" lon="2.58166">
        <ele>-1.9</ele>
        <time>2020-06-23T14:01:16Z</time>
      </trkpt>
      <trkpt lat="51.01707" lon="2.58173">
        <ele>-1.7</ele>
        <time>2020-06-23T14:01:17Z</time>
      </trkpt>
      <trkpt lat="51.01703" lon="2.58179">
        <ele>-1.5</ele>
        <time>2020-06-23T14:01:18Z</time>
      </trkpt>
      <trkpt lat="51.01699" lon="2.58186">
        <ele>-1.3</ele>
        <time>2020-06-23T14:01:19Z</time>
      </trkpt>
      <trkpt lat="51.01697" lon="2.58193">
        <ele>-1.1</ele>
        <time>2020-06-23T14:01:20Z</time>
      </trkpt>
      <trkpt lat="51.01694" lon="2.582">
        <ele>-1.1</ele>
        <time>2020-06-23T14:01:21Z</time>
      </trkpt>
      <trkpt lat="51.01691" lon="2.58206">
        <ele>-1</ele>
        <time>2020-06-23T14:01:22Z</time>
      </trkpt>
      <trkpt lat="51.01688" lon="2.58213">
        <ele>-1</ele>
        <time>2020-06-23T14:01:23Z</time>
      </trkpt>
      <trkpt lat="51.01684" lon="2.58219">
        <ele>-0.9</ele>
        <time>2020-06-23T14:01:24Z</time>
      </trkpt>
      <trkpt lat="51.0168" lon="2.58223">
        <ele>-0.9</ele>
        <time>2020-06-23T14:01:25Z</time>
      </trkpt>
      <trkpt lat="51.01675" lon="2.58227">
        <ele>-0.8</ele>
        <time>2020-06-23T14:01:26Z</time>
      </trkpt>
      <trkpt lat="51.0167" lon="2.58231">
        <ele>-0.8</ele>
        <time>2020-06-23T14:01:27Z</time>
      </trkpt>
      <trkpt lat="51.01665" lon="2.58235">
        <ele>-0.7</ele>
        <time>2020-06-23T14:01:28Z</time>
      </trkpt>
      <trkpt lat="51.0166" lon="2.58239">
        <ele>-0.7</ele>
        <time>2020-06-23T14:01:29Z</time>
      </trkpt>
      <trkpt lat="51.01654" lon="2.58241">
        <ele>-0.7</ele>
        <time>2020-06-23T14:01:30Z</time>
      </trkpt>
      <trkpt lat="51.01649" lon="2.58243">
        <ele>-0.7</ele>
        <time>2020-06-23T14:01:31Z</time>
      </trkpt>
      <trkpt lat="51.01643" lon="2.58246">
        <ele>-0.6</ele>
        <time>2020-06-23T14:01:32Z</time>
      </trkpt>
      <trkpt lat="51.01638" lon="2.5825">
        <ele>-0.6</ele>
        <time>2020-06-23T14:01:33Z</time>
      </trkpt>
      <trkpt lat="51.01633" lon="2.58252">
        <ele>-0.5</ele>
        <time>2020-06-23T14:01:34Z</time>
      </trkpt>
      <trkpt lat="51.01627" lon="2.58256">
        <ele>-0.5</ele>
        <time>2020-06-23T14:01:35Z</time>
      </trkpt>
      <trkpt lat="51.01621" lon="2.58259">
        <ele>-0.4</ele>
        <time>2020-06-23T14:01:36Z</time>
      </trkpt>
      <trkpt lat="51.01616" lon="2.58263">
        <ele>-0.4</ele>
        <time>2020-06-23T14:01:37Z</time>
      </trkpt>
      <trkpt lat="51.0161" lon="2.58267">
        <ele>-0.3</ele>
        <time>2020-06-23T14:01:38Z</time>
      </trkpt>
      <trkpt lat="51.01605" lon="2.58271">
        <ele>-0.3</ele>
        <time>2020-06-23T14:01:39Z</time>
      </trkpt>
      <trkpt lat="51.01599" lon="2.58274">
        <ele>-0.3</ele>
        <time>2020-06-23T14:01:40Z</time>
      </trkpt>
      <trkpt lat="51.01594" lon="2.58277">
        <ele>-0.3</ele>
        <time>2020-06-23T14:01:41Z</time>
      </trkpt>
      <trkpt lat="51.01588" lon="2.58282">
        <ele>-0.4</ele>
        <time>2020-06-23T14:01:42Z</time>
      </trkpt>
      <trkpt lat="51.01582" lon="2.58285">
        <ele>-0.4</ele>
        <time>2020-06-23T14:01:43Z</time>
      </trkpt>
      <trkpt lat="51.01577" lon="2.5829">
        <ele>-0.4</ele>
        <time>2020-06-23T14:01:44Z</time>
      </trkpt>
      <trkpt lat="51.01571" lon="2.58294">
        <ele>-0.5</ele>
        <time>2020-06-23T14:01:45Z</time>
      </trkpt>
      <trkpt lat="51.01566" lon="2.583">
        <ele>-0.4</ele>
        <time>2020-06-23T14:01:46Z</time>
      </trkpt>
      <trkpt lat="51.0156" lon="2.58306">
        <ele>-0.4</ele>
        <time>2020-06-23T14:01:47Z</time>
      </trkpt>
      <trkpt lat="51.01555" lon="2.58312">
        <ele>-0.4</ele>
        <time>2020-06-23T14:01:48Z</time>
      </trkpt>
      <trkpt lat="51.0155" lon="2.58319">
        <ele>-0.3</ele>
        <time>2020-06-23T14:01:49Z</time>
      </trkpt>
      <trkpt lat="51.01546" lon="2.58327">
        <ele>-0.3</ele>
        <time>2020-06-23T14:01:50Z</time>
      </trkpt>
      <trkpt lat="51.01541" lon="2.58334">
        <ele>-0.4</ele>
        <time>2020-06-23T14:01:51Z</time>
      </trkpt>
      <trkpt lat="51.01535" lon="2.5834">
        <ele>-0.4</ele>
        <time>2020-06-23T14:01:52Z</time>
      </trkpt>
      <trkpt lat="51.0153" lon="2.58346">
        <ele>-0.4</ele>
        <time>2020-06-23T14:01:53Z</time>
      </trkpt>
      <trkpt lat="51.01525" lon="2.58351">
        <ele>-0.5</ele>
        <time>2020-06-23T14:01:54Z</time>
      </trkpt>
      <trkpt lat="51.0152" lon="2.58357">
        <ele>-0.5</ele>
        <time>2020-06-23T14:01:55Z</time>
      </trkpt>
      <trkpt lat="51.01515" lon="2.58364">
        <ele>-0.5</ele>
        <time>2020-06-23T14:01:56Z</time>
      </trkpt>
      <trkpt lat="51.0151" lon="2.58372">
        <ele>-0.5</ele>
        <time>2020-06-23T14:01:57Z</time>
      </trkpt>
      <trkpt lat="51.01505" lon="2.58379">
        <ele>-0.5</ele>
        <time>2020-06-23T14:01:58Z</time>
      </trkpt>
      <trkpt lat="51.015" lon="2.58386">
        <ele>-0.5</ele>
        <time>2020-06-23T14:01:59Z</time>
      </trkpt>
      <trkpt lat="51.01494" lon="2.58392">
        <ele>-0.5</ele>
        <time>2020-06-23T14:02:00Z</time>
      </trkpt>
      <trkpt lat="51.01489" lon="2.58399">
        <ele>-0.5</ele>
        <time>2020-06-23T14:02:01Z</time>
      </trkpt>
      <trkpt lat="51.01484" lon="2.58406">
        <ele>-0.5</ele>
        <time>2020-06-23T14:02:02Z</time>
      </trkpt>
      <trkpt lat="51.01479" lon="2.58413">
        <ele>-0.5</ele>
        <time>2020-06-23T14:02:03Z</time>
      </trkpt>
      <trkpt lat="51.01474" lon="2.58419">
        <ele>-0.5</ele>
        <time>2020-06-23T14:02:04Z</time>
      </trkpt>
      <trkpt lat="51.01469" lon="2.58426">
        <ele>-0.5</ele>
        <time>2020-06-23T14:02:05Z</time>
      </trkpt>
      <trkpt lat="51.01464" lon="2.58433">
        <ele>-0.5</ele>
        <time>2020-06-23T14:02:06Z</time>
      </trkpt>
      <trkpt lat="51.01459" lon="2.5844">
        <ele>-0.5</ele>
        <time>2020-06-23T14:02:07Z</time>
      </trkpt>
      <trkpt lat="51.01454" lon="2.58446">
        <ele>-0.5</ele>
        <time>2020-06-23T14:02:08Z</time>
      </trkpt>
      <trkpt lat="51.01449" lon="2.58453">
        <ele>-0.5</ele>
        <time>2020-06-23T14:02:09Z</time>
      </trkpt>
      <trkpt lat="51.01443" lon="2.58458">
        <ele>-0.5</ele>
        <time>2020-06-23T14:02:10Z</time>
      </trkpt>
      <trkpt lat="51.01436" lon="2.58465">
        <ele>-0.4</ele>
        <time>2020-06-23T14:02:11Z</time>
      </trkpt>
      <trkpt lat="51.01431" lon="2.58471">
        <ele>-0.4</ele>
        <time>2020-06-23T14:02:12Z</time>
      </trkpt>
      <trkpt lat="51.01425" lon="2.58477">
        <ele>-0.4</ele>
        <time>2020-06-23T14:02:13Z</time>
      </trkpt>
      <trkpt lat="51.0142" lon="2.58482">
        <ele>-0.3</ele>
        <time>2020-06-23T14:02:14Z</time>
      </trkpt>
      <trkpt lat="51.01416" lon="2.58488">
        <ele>-0.3</ele>
        <time>2020-06-23T14:02:15Z</time>
      </trkpt>
      <trkpt lat="51.0141" lon="2.58495">
        <ele>-0.3</ele>
        <time>2020-06-23T14:02:16Z</time>
      </trkpt>
      <trkpt lat="51.01404" lon="2.58501">
        <ele>-0.3</ele>
        <time>2020-06-23T14:02:17Z</time>
      </trkpt>
      <trkpt lat="51.01398" lon="2.58508">
        <ele>-0.2</ele>
        <time>2020-06-23T14:02:18Z</time>
      </trkpt>
      <trkpt lat="51.01392" lon="2.58514">
        <ele>-0.2</ele>
        <time>2020-06-23T14:02:19Z</time>
      </trkpt>
      <trkpt lat="51.01386" lon="2.5852">
        <ele>-0.2</ele>
        <time>2020-06-23T14:02:20Z</time>
      </trkpt>
      <trkpt lat="51.01381" lon="2.58526">
        <ele>-0.2</ele>
        <time>2020-06-23T14:02:21Z</time>
      </trkpt>
      <trkpt lat="51.01376" lon="2.58532">
        <ele>-0.2</ele>
        <time>2020-06-23T14:02:22Z</time>
      </trkpt>
      <trkpt lat="51.0137" lon="2.58537">
        <ele>-0.3</ele>
        <time>2020-06-23T14:02:23Z</time>
      </trkpt>
      <trkpt lat="51.01365" lon="2.58543">
        <ele>-0.3</ele>
        <time>2020-06-23T14:02:24Z</time>
      </trkpt>
      <trkpt lat="51.0136" lon="2.58549">
        <ele>-0.3</ele>
        <time>2020-06-23T14:02:25Z</time>
      </trkpt>
      <trkpt lat="51.01354" lon="2.58555">
        <ele>-0.3</ele>
        <time>2020-06-23T14:02:26Z</time>
      </trkpt>
      <trkpt lat="51.01349" lon="2.5856">
        <ele>-0.3</ele>
        <time>2020-06-23T14:02:27Z</time>
      </trkpt>
      <trkpt lat="51.01344" lon="2.58565">
        <ele>-0.3</ele>
        <time>2020-06-23T14:02:28Z</time>
      </trkpt>
      <trkpt lat="51.01339" lon="2.5857">
        <ele>-0.2</ele>
        <time>2020-06-23T14:02:29Z</time>
      </trkpt>
      <trkpt lat="51.01333" lon="2.58576">
        <ele>-0.2</ele>
        <time>2020-06-23T14:02:30Z</time>
      </trkpt>
      <trkpt lat="51.01328" lon="2.58581">
        <ele>-0.2</ele>
        <time>2020-06-23T14:02:31Z</time>
      </trkpt>
      <trkpt lat="51.01322" lon="2.58587">
        <ele>-0.1</ele>
        <time>2020-06-23T14:02:32Z</time>
      </trkpt>
      <trkpt lat="51.01316" lon="2.58593">
        <ele>-0.1</ele>
        <time>2020-06-23T14:02:33Z</time>
      </trkpt>
      <trkpt lat="51.01312" lon="2.58598">
        <ele>-0.1</ele>
        <time>2020-06-23T14:02:34Z</time>
      </trkpt>
      <trkpt lat="51.01307" lon="2.58603">
        <ele>-0.1</ele>
        <time>2020-06-23T14:02:35Z</time>
      </trkpt>
      <trkpt lat="51.01303" lon="2.58608">
        <ele>-0.1</ele>
        <time>2020-06-23T14:02:36Z</time>
      </trkpt>
      <trkpt lat="51.01298" lon="2.58614">
        <ele>-0.1</ele>
        <time>2020-06-23T14:02:37Z</time>
      </trkpt>
      <trkpt lat="51.01292" lon="2.58621">
        <ele>1</ele>
        <time>2020-06-23T14:02:38Z</time>
      </trkpt>
      <trkpt lat="51.01287" lon="2.58627">
        <ele>1</ele>
        <time>2020-06-23T14:02:39Z</time>
      </trkpt>
      <trkpt lat="51.01283" lon="2.58633">
        <ele>0.1</ele>
        <time>2020-06-23T14:02:40Z</time>
      </trkpt>
      <trkpt lat="51.01278" lon="2.58638">
        <ele>0.2</ele>
        <time>2020-06-23T14:02:41Z</time>
      </trkpt>
      <trkpt lat="51.01273" lon="2.58645">
        <ele>0.3</ele>
        <time>2020-06-23T14:02:42Z</time>
      </trkpt>
      <trkpt lat="51.01267" lon="2.58652">
        <ele>0.4</ele>
        <time>2020-06-23T14:02:43Z</time>
      </trkpt>
      <trkpt lat="51.01262" lon="2.58658">
        <ele>0.4</ele>
        <time>2020-06-23T14:02:44Z</time>
      </trkpt>
      <trkpt lat="51.01257" lon="2.58664">
        <ele>0.4</ele>
        <time>2020-06-23T14:02:45Z</time>
      </trkpt>
      <trkpt lat="51.01251" lon="2.5867">
        <ele>0.4</ele>
        <time>2020-06-23T14:02:46Z</time>
      </trkpt>
      <trkpt lat="51.01247" lon="2.58675">
        <ele>0.4</ele>
        <time>2020-06-23T14:02:47Z</time>
      </trkpt>
      <trkpt lat="51.01243" lon="2.5868">
        <ele>0.4</ele>
        <time>2020-06-23T14:02:48Z</time>
      </trkpt>
      <trkpt lat="51.01237" lon="2.58685">
        <ele>0.4</ele>
        <time>2020-06-23T14:02:49Z</time>
      </trkpt>
      <trkpt lat="51.01231" lon="2.5869">
        <ele>0.5</ele>
        <time>2020-06-23T14:02:50Z</time>
      </trkpt>
      <trkpt lat="51.01226" lon="2.58695">
        <ele>0.5</ele>
        <time>2020-06-23T14:02:51Z</time>
      </trkpt>
      <trkpt lat="51.01221" lon="2.58699">
        <ele>0.5</ele>
        <time>2020-06-23T14:02:52Z</time>
      </trkpt>
      <trkpt lat="51.01216" lon="2.58703">
        <ele>0.5</ele>
        <time>2020-06-23T14:02:53Z</time>
      </trkpt>
      <trkpt lat="51.01211" lon="2.58709">
        <ele>0.5</ele>
        <time>2020-06-23T14:02:54Z</time>
      </trkpt>
      <trkpt lat="51.01205" lon="2.58712">
        <ele>0.5</ele>
        <time>2020-06-23T14:02:55Z</time>
      </trkpt>
      <trkpt lat="51.01199" lon="2.58717">
        <ele>0.5</ele>
        <time>2020-06-23T14:02:56Z</time>
      </trkpt>
      <trkpt lat="51.01195" lon="2.58722">
        <ele>0.5</ele>
        <time>2020-06-23T14:02:57Z</time>
      </trkpt>
      <trkpt lat="51.0119" lon="2.58727">
        <ele>0.5</ele>
        <time>2020-06-23T14:02:58Z</time>
      </trkpt>
      <trkpt lat="51.01184" lon="2.58733">
        <ele>0.5</ele>
        <time>2020-06-23T14:02:59Z</time>
      </trkpt>
      <trkpt lat="51.01179" lon="2.58737">
        <ele>0.5</ele>
        <time>2020-06-23T14:03:00Z</time>
      </trkpt>
      <trkpt lat="51.01174" lon="2.58743">
        <ele>0.5</ele>
        <time>2020-06-23T14:03:01Z</time>
      </trkpt>
      <trkpt lat="51.01169" lon="2.58748">
        <ele>0.5</ele>
        <time>2020-06-23T14:03:02Z</time>
      </trkpt>
      <trkpt lat="51.01165" lon="2.58753">
        <ele>0.5</ele>
        <time>2020-06-23T14:03:03Z</time>
      </trkpt>
      <trkpt lat="51.0116" lon="2.58758">
        <ele>0.5</ele>
        <time>2020-06-23T14:03:04Z</time>
      </trkpt>
      <trkpt lat="51.01156" lon="2.58762">
        <ele>0.5</ele>
        <time>2020-06-23T14:03:05Z</time>
      </trkpt>
      <trkpt lat="51.01151" lon="2.58766">
        <ele>0.4</ele>
        <time>2020-06-23T14:03:06Z</time>
      </trkpt>
      <trkpt lat="51.01147" lon="2.58769">
        <ele>0.4</ele>
        <time>2020-06-23T14:03:07Z</time>
      </trkpt>
      <trkpt lat="51.01143" lon="2.58773">
        <ele>0.4</ele>
        <time>2020-06-23T14:03:08Z</time>
      </trkpt>
      <trkpt lat="51.01138" lon="2.58778">
        <ele>0.4</ele>
        <time>2020-06-23T14:03:09Z</time>
      </trkpt>
      <trkpt lat="51.01134" lon="2.58783">
        <ele>0.4</ele>
        <time>2020-06-23T14:03:10Z</time>
      </trkpt>
      <trkpt lat="51.0113" lon="2.58788">
        <ele>0.3</ele>
        <time>2020-06-23T14:03:11Z</time>
      </trkpt>
      <trkpt lat="51.01126" lon="2.58797">
        <ele>0.2</ele>
        <time>2020-06-23T14:03:12Z</time>
      </trkpt>
      <trkpt lat="51.01122" lon="2.58805">
        <ele>0.1</ele>
        <time>2020-06-23T14:03:13Z</time>
      </trkpt>
      <trkpt lat="51.01118" lon="2.58813">
        <ele>1</ele>
        <time>2020-06-23T14:03:14Z</time>
      </trkpt>
      <trkpt lat="51.01115" lon="2.58821">
        <ele>1</ele>
        <time>2020-06-23T14:03:15Z</time>
      </trkpt>
      <trkpt lat="51.01114" lon="2.58829">
        <ele>1</ele>
        <time>2020-06-23T14:03:16Z</time>
      </trkpt>
      <trkpt lat="51.01112" lon="2.58838">
        <ele>1</ele>
        <time>2020-06-23T14:03:17Z</time>
      </trkpt>
      <trkpt lat="51.01111" lon="2.58846">
        <ele>1</ele>
        <time>2020-06-23T14:03:18Z</time>
      </trkpt>
      <trkpt lat="51.01109" lon="2.58854">
        <ele>1</ele>
        <time>2020-06-23T14:03:19Z</time>
      </trkpt>
      <trkpt lat="51.01108" lon="2.58863">
        <ele>0.1</ele>
        <time>2020-06-23T14:03:20Z</time>
      </trkpt>
      <trkpt lat="51.01107" lon="2.58871">
        <ele>0.1</ele>
        <time>2020-06-23T14:03:21Z</time>
      </trkpt>
      <trkpt lat="51.01106" lon="2.5888">
        <ele>0.1</ele>
        <time>2020-06-23T14:03:22Z</time>
      </trkpt>
      <trkpt lat="51.01106" lon="2.5889">
        <ele>0.1</ele>
        <time>2020-06-23T14:03:23Z</time>
      </trkpt>
      <trkpt lat="51.01105" lon="2.589">
        <ele>0.2</ele>
        <time>2020-06-23T14:03:24Z</time>
      </trkpt>
      <trkpt lat="51.01104" lon="2.58909">
        <ele>0.2</ele>
        <time>2020-06-23T14:03:25Z</time>
      </trkpt>
      <trkpt lat="51.01103" lon="2.58916">
        <ele>0.2</ele>
        <time>2020-06-23T14:03:26Z</time>
      </trkpt>
      <trkpt lat="51.01102" lon="2.58927">
        <ele>0.2</ele>
        <time>2020-06-23T14:03:27Z</time>
      </trkpt>
      <trkpt lat="51.01101" lon="2.58935">
        <ele>0.2</ele>
        <time>2020-06-23T14:03:28Z</time>
      </trkpt>
      <trkpt lat="51.01099" lon="2.58943">
        <ele>0.2</ele>
        <time>2020-06-23T14:03:29Z</time>
      </trkpt>
      <trkpt lat="51.01098" lon="2.58954">
        <ele>0.3</ele>
        <time>2020-06-23T14:03:30Z</time>
      </trkpt>
      <trkpt lat="51.01097" lon="2.58963">
        <ele>0.3</ele>
        <time>2020-06-23T14:03:31Z</time>
      </trkpt>
      <trkpt lat="51.01095" lon="2.58974">
        <ele>0.3</ele>
        <time>2020-06-23T14:03:32Z</time>
      </trkpt>
      <trkpt lat="51.01094" lon="2.58982">
        <ele>0.4</ele>
        <time>2020-06-23T14:03:33Z</time>
      </trkpt>
      <trkpt lat="51.01092" lon="2.5899">
        <ele>0.4</ele>
        <time>2020-06-23T14:03:34Z</time>
      </trkpt>
      <trkpt lat="51.01091" lon="2.58999">
        <ele>0.5</ele>
        <time>2020-06-23T14:03:35Z</time>
      </trkpt>
      <trkpt lat="51.01089" lon="2.59007">
        <ele>0.5</ele>
        <time>2020-06-23T14:03:36Z</time>
      </trkpt>
      <trkpt lat="51.01088" lon="2.59016">
        <ele>0.6</ele>
        <time>2020-06-23T14:03:37Z</time>
      </trkpt>
      <trkpt lat="51.01086" lon="2.59026">
        <ele>0.6</ele>
        <time>2020-06-23T14:03:38Z</time>
      </trkpt>
      <trkpt lat="51.01083" lon="2.59035">
        <ele>0.6</ele>
        <time>2020-06-23T14:03:39Z</time>
      </trkpt>
      <trkpt lat="51.01081" lon="2.59043">
        <ele>0.7</ele>
        <time>2020-06-23T14:03:40Z</time>
      </trkpt>
      <trkpt lat="51.01079" lon="2.59052">
        <ele>0.7</ele>
        <time>2020-06-23T14:03:41Z</time>
      </trkpt>
      <trkpt lat="51.01077" lon="2.59062">
        <ele>0.8</ele>
        <time>2020-06-23T14:03:42Z</time>
      </trkpt>
      <trkpt lat="51.01075" lon="2.59072">
        <ele>0.9</ele>
        <time>2020-06-23T14:03:43Z</time>
      </trkpt>
      <trkpt lat="51.01073" lon="2.59079">
        <ele>0.9</ele>
        <time>2020-06-23T14:03:44Z</time>
      </trkpt>
      <trkpt lat="51.01071" lon="2.59088">
        <ele>0.9</ele>
        <time>2020-06-23T14:03:45Z</time>
      </trkpt>
      <trkpt lat="51.01069" lon="2.59098">
        <ele>1</ele>
        <time>2020-06-23T14:03:46Z</time>
      </trkpt>
      <trkpt lat="51.01067" lon="2.59107">
        <ele>1</ele>
        <time>2020-06-23T14:03:47Z</time>
      </trkpt>
      <trkpt lat="51.01066" lon="2.59116">
        <ele>1</ele>
        <time>2020-06-23T14:03:48Z</time>
      </trkpt>
      <trkpt lat="51.01064" lon="2.59125">
        <ele>1.1</ele>
        <time>2020-06-23T14:03:49Z</time>
      </trkpt>
      <trkpt lat="51.01062" lon="2.59135">
        <ele>1.1</ele>
        <time>2020-06-23T14:03:50Z</time>
      </trkpt>
      <trkpt lat="51.01061" lon="2.59142">
        <ele>1.1</ele>
        <time>2020-06-23T14:03:51Z</time>
      </trkpt>
      <trkpt lat="51.0106" lon="2.59152">
        <ele>1.2</ele>
        <time>2020-06-23T14:03:52Z</time>
      </trkpt>
      <trkpt lat="51.01058" lon="2.59162">
        <ele>1.2</ele>
        <time>2020-06-23T14:03:53Z</time>
      </trkpt>
      <trkpt lat="51.01057" lon="2.59171">
        <ele>1.2</ele>
        <time>2020-06-23T14:03:54Z</time>
      </trkpt>
      <trkpt lat="51.01056" lon="2.59181">
        <ele>1.3</ele>
        <time>2020-06-23T14:03:55Z</time>
      </trkpt>
      <trkpt lat="51.01055" lon="2.59189">
        <ele>1.3</ele>
        <time>2020-06-23T14:03:56Z</time>
      </trkpt>
      <trkpt lat="51.01054" lon="2.59198">
        <ele>1.3</ele>
        <time>2020-06-23T14:03:57Z</time>
      </trkpt>
      <trkpt lat="51.01053" lon="2.59207">
        <ele>1.3</ele>
        <time>2020-06-23T14:03:58Z</time>
      </trkpt>
      <trkpt lat="51.01051" lon="2.59216">
        <ele>1.4</ele>
        <time>2020-06-23T14:03:59Z</time>
      </trkpt>
      <trkpt lat="51.01049" lon="2.59227">
        <ele>1.4</ele>
        <time>2020-06-23T14:04:00Z</time>
      </trkpt>
      <trkpt lat="51.01048" lon="2.59237">
        <ele>1.5</ele>
        <time>2020-06-23T14:04:01Z</time>
      </trkpt>
      <trkpt lat="51.01047" lon="2.59246">
        <ele>1.5</ele>
        <time>2020-06-23T14:04:02Z</time>
      </trkpt>
      <trkpt lat="51.01044" lon="2.59256">
        <ele>1.6</ele>
        <time>2020-06-23T14:04:03Z</time>
      </trkpt>
      <trkpt lat="51.01043" lon="2.59266">
        <ele>1.6</ele>
        <time>2020-06-23T14:04:04Z</time>
      </trkpt>
      <trkpt lat="51.01041" lon="2.59275">
        <ele>1.7</ele>
        <time>2020-06-23T14:04:05Z</time>
      </trkpt>
      <trkpt lat="51.0104" lon="2.59283">
        <ele>1.7</ele>
        <time>2020-06-23T14:04:06Z</time>
      </trkpt>
      <trkpt lat="51.01038" lon="2.59292">
        <ele>1.8</ele>
        <time>2020-06-23T14:04:07Z</time>
      </trkpt>
      <trkpt lat="51.01037" lon="2.59299">
        <ele>1.8</ele>
        <time>2020-06-23T14:04:08Z</time>
      </trkpt>
      <trkpt lat="51.01035" lon="2.59307">
        <ele>1.8</ele>
        <time>2020-06-23T14:04:09Z</time>
      </trkpt>
      <trkpt lat="51.01034" lon="2.59316">
        <ele>1.8</ele>
        <time>2020-06-23T14:04:10Z</time>
      </trkpt>
      <trkpt lat="51.01032" lon="2.59325">
        <ele>1.9</ele>
        <time>2020-06-23T14:04:11Z</time>
      </trkpt>
      <trkpt lat="51.0103" lon="2.59336">
        <ele>1.9</ele>
        <time>2020-06-23T14:04:12Z</time>
      </trkpt>
      <trkpt lat="51.01028" lon="2.59344">
        <ele>1.9</ele>
        <time>2020-06-23T14:04:13Z</time>
      </trkpt>
      <trkpt lat="51.01026" lon="2.59354">
        <ele>2</ele>
        <time>2020-06-23T14:04:14Z</time>
      </trkpt>
      <trkpt lat="51.01023" lon="2.59364">
        <ele>2</ele>
        <time>2020-06-23T14:04:15Z</time>
      </trkpt>
      <trkpt lat="51.01021" lon="2.59373">
        <ele>2</ele>
        <time>2020-06-23T14:04:16Z</time>
      </trkpt>
      <trkpt lat="51.01019" lon="2.59383">
        <ele>2.1</ele>
        <time>2020-06-23T14:04:17Z</time>
      </trkpt>
      <trkpt lat="51.01018" lon="2.59393">
        <ele>2.1</ele>
        <time>2020-06-23T14:04:18Z</time>
      </trkpt>
      <trkpt lat="51.01016" lon="2.59402">
        <ele>2.1</ele>
        <time>2020-06-23T14:04:19Z</time>
      </trkpt>
      <trkpt lat="51.01014" lon="2.5941">
        <ele>2.2</ele>
        <time>2020-06-23T14:04:20Z</time>
      </trkpt>
      <trkpt lat="51.01012" lon="2.59418">
        <ele>2.2</ele>
        <time>2020-06-23T14:04:21Z</time>
      </trkpt>
      <trkpt lat="51.0101" lon="2.59427">
        <ele>2.3</ele>
        <time>2020-06-23T14:04:22Z</time>
      </trkpt>
      <trkpt lat="51.01009" lon="2.59437">
        <ele>2.3</ele>
        <time>2020-06-23T14:04:23Z</time>
      </trkpt>
      <trkpt lat="51.01007" lon="2.59446">
        <ele>2.4</ele>
        <time>2020-06-23T14:04:24Z</time>
      </trkpt>
      <trkpt lat="51.01005" lon="2.59456">
        <ele>2.4</ele>
        <time>2020-06-23T14:04:25Z</time>
      </trkpt>
      <trkpt lat="51.01004" lon="2.59464">
        <ele>2.4</ele>
        <time>2020-06-23T14:04:26Z</time>
      </trkpt>
      <trkpt lat="51.01002" lon="2.59474">
        <ele>2.4</ele>
        <time>2020-06-23T14:04:27Z</time>
      </trkpt>
      <trkpt lat="51.01001" lon="2.59483">
        <ele>2.4</ele>
        <time>2020-06-23T14:04:28Z</time>
      </trkpt>
      <trkpt lat="51.01" lon="2.59493">
        <ele>2.4</ele>
        <time>2020-06-23T14:04:29Z</time>
      </trkpt>
      <trkpt lat="51.00998" lon="2.59503">
        <ele>2.4</ele>
        <time>2020-06-23T14:04:30Z</time>
      </trkpt>
      <trkpt lat="51.00997" lon="2.59511">
        <ele>2.4</ele>
        <time>2020-06-23T14:04:31Z</time>
      </trkpt>
      <trkpt lat="51.00995" lon="2.59521">
        <ele>2.4</ele>
        <time>2020-06-23T14:04:32Z</time>
      </trkpt>
      <trkpt lat="51.00993" lon="2.59531">
        <ele>2.5</ele>
        <time>2020-06-23T14:04:33Z</time>
      </trkpt>
      <trkpt lat="51.00992" lon="2.59541">
        <ele>2.5</ele>
        <time>2020-06-23T14:04:34Z</time>
      </trkpt>
      <trkpt lat="51.0099" lon="2.5955">
        <ele>2.5</ele>
        <time>2020-06-23T14:04:35Z</time>
      </trkpt>
      <trkpt lat="51.00988" lon="2.59558">
        <ele>2.5</ele>
        <time>2020-06-23T14:04:36Z</time>
      </trkpt>
      <trkpt lat="51.00986" lon="2.59569">
        <ele>2.5</ele>
        <time>2020-06-23T14:04:37Z</time>
      </trkpt>
      <trkpt lat="51.00984" lon="2.5958">
        <ele>2.5</ele>
        <time>2020-06-23T14:04:38Z</time>
      </trkpt>
      <trkpt lat="51.00983" lon="2.59589">
        <ele>2.6</ele>
        <time>2020-06-23T14:04:39Z</time>
      </trkpt>
      <trkpt lat="51.00981" lon="2.59599">
        <ele>2.6</ele>
        <time>2020-06-23T14:04:40Z</time>
      </trkpt>
      <trkpt lat="51.00979" lon="2.59607">
        <ele>2.6</ele>
        <time>2020-06-23T14:04:41Z</time>
      </trkpt>
      <trkpt lat="51.00977" lon="2.59616">
        <ele>2.6</ele>
        <time>2020-06-23T14:04:42Z</time>
      </trkpt>
      <trkpt lat="51.00975" lon="2.59627">
        <ele>2.6</ele>
        <time>2020-06-23T14:04:43Z</time>
      </trkpt>
      <trkpt lat="51.00973" lon="2.59636">
        <ele>2.6</ele>
        <time>2020-06-23T14:04:44Z</time>
      </trkpt>
      <trkpt lat="51.00972" lon="2.59646">
        <ele>2.7</ele>
        <time>2020-06-23T14:04:45Z</time>
      </trkpt>
      <trkpt lat="51.0097" lon="2.59655">
        <ele>2.7</ele>
        <time>2020-06-23T14:04:46Z</time>
      </trkpt>
      <trkpt lat="51.00968" lon="2.59665">
        <ele>2.7</ele>
        <time>2020-06-23T14:04:47Z</time>
      </trkpt>
      <trkpt lat="51.00968" lon="2.59674">
        <ele>2.7</ele>
        <time>2020-06-23T14:04:48Z</time>
      </trkpt>
      <trkpt lat="51.00967" lon="2.59684">
        <ele>2.7</ele>
        <time>2020-06-23T14:04:49Z</time>
      </trkpt>
      <trkpt lat="51.00966" lon="2.59693">
        <ele>2.7</ele>
        <time>2020-06-23T14:04:50Z</time>
      </trkpt>
      <trkpt lat="51.00965" lon="2.59703">
        <ele>2.8</ele>
        <time>2020-06-23T14:04:51Z</time>
      </trkpt>
      <trkpt lat="51.00963" lon="2.59712">
        <ele>2.8</ele>
        <time>2020-06-23T14:04:52Z</time>
      </trkpt>
      <trkpt lat="51.00962" lon="2.59723">
        <ele>2.8</ele>
        <time>2020-06-23T14:04:53Z</time>
      </trkpt>
      <trkpt lat="51.0096" lon="2.59732">
        <ele>2.9</ele>
        <time>2020-06-23T14:04:54Z</time>
      </trkpt>
      <trkpt lat="51.00958" lon="2.59742">
        <ele>3</ele>
        <time>2020-06-23T14:04:55Z</time>
      </trkpt>
      <trkpt lat="51.00957" lon="2.59752">
        <ele>3</ele>
        <time>2020-06-23T14:04:56Z</time>
      </trkpt>
      <trkpt lat="51.00955" lon="2.59763">
        <ele>2.9</ele>
        <time>2020-06-23T14:04:57Z</time>
      </trkpt>
      <trkpt lat="51.00954" lon="2.59773">
        <ele>2.8</ele>
        <time>2020-06-23T14:04:58Z</time>
      </trkpt>
      <trkpt lat="51.00951" lon="2.59784">
        <ele>2.7</ele>
        <time>2020-06-23T14:04:59Z</time>
      </trkpt>
      <trkpt lat="51.00949" lon="2.59792">
        <ele>2.6</ele>
        <time>2020-06-23T14:05:00Z</time>
      </trkpt>
      <trkpt lat="51.00947" lon="2.59802">
        <ele>2.6</ele>
        <time>2020-06-23T14:05:01Z</time>
      </trkpt>
      <trkpt lat="51.00945" lon="2.5981">
        <ele>2.5</ele>
        <time>2020-06-23T14:05:02Z</time>
      </trkpt>
      <trkpt lat="51.00942" lon="2.5982">
        <ele>2.5</ele>
        <time>2020-06-23T14:05:03Z</time>
      </trkpt>
      <trkpt lat="51.00939" lon="2.59829">
        <ele>2.4</ele>
        <time>2020-06-23T14:05:04Z</time>
      </trkpt>
      <trkpt lat="51.00936" lon="2.59837">
        <ele>2.4</ele>
        <time>2020-06-23T14:05:05Z</time>
      </trkpt>
      <trkpt lat="51.00933" lon="2.59847">
        <ele>2.4</ele>
        <time>2020-06-23T14:05:06Z</time>
      </trkpt>
      <trkpt lat="51.0093" lon="2.59856">
        <ele>2.4</ele>
        <time>2020-06-23T14:05:07Z</time>
      </trkpt>
      <trkpt lat="51.00928" lon="2.59865">
        <ele>2.4</ele>
        <time>2020-06-23T14:05:08Z</time>
      </trkpt>
      <trkpt lat="51.00925" lon="2.59874">
        <ele>2.4</ele>
        <time>2020-06-23T14:05:09Z</time>
      </trkpt>
      <trkpt lat="51.00923" lon="2.59883">
        <ele>2.4</ele>
        <time>2020-06-23T14:05:10Z</time>
      </trkpt>
      <trkpt lat="51.0092" lon="2.59894">
        <ele>2.4</ele>
        <time>2020-06-23T14:05:11Z</time>
      </trkpt>
      <trkpt lat="51.00918" lon="2.59904">
        <ele>2.4</ele>
        <time>2020-06-23T14:05:12Z</time>
      </trkpt>
      <trkpt lat="51.00916" lon="2.59914">
        <ele>2.3</ele>
        <time>2020-06-23T14:05:13Z</time>
      </trkpt>
      <trkpt lat="51.00915" lon="2.59923">
        <ele>2.3</ele>
        <time>2020-06-23T14:05:14Z</time>
      </trkpt>
      <trkpt lat="51.00914" lon="2.59932">
        <ele>2.3</ele>
        <time>2020-06-23T14:05:15Z</time>
      </trkpt>
      <trkpt lat="51.00912" lon="2.59943">
        <ele>2.2</ele>
        <time>2020-06-23T14:05:16Z</time>
      </trkpt>
      <trkpt lat="51.00911" lon="2.59951">
        <ele>2.2</ele>
        <time>2020-06-23T14:05:17Z</time>
      </trkpt>
      <trkpt lat="51.00911" lon="2.59961">
        <ele>2.2</ele>
        <time>2020-06-23T14:05:18Z</time>
      </trkpt>
      <trkpt lat="51.0091" lon="2.59971">
        <ele>2.2</ele>
        <time>2020-06-23T14:05:19Z</time>
      </trkpt>
      <trkpt lat="51.00909" lon="2.59981">
        <ele>2.2</ele>
        <time>2020-06-23T14:05:20Z</time>
      </trkpt>
      <trkpt lat="51.00909" lon="2.59992">
        <ele>2.2</ele>
        <time>2020-06-23T14:05:21Z</time>
      </trkpt>
      <trkpt lat="51.00907" lon="2.60004">
        <ele>2.2</ele>
        <time>2020-06-23T14:05:22Z</time>
      </trkpt>
      <trkpt lat="51.00906" lon="2.60016">
        <ele>2.2</ele>
        <time>2020-06-23T14:05:23Z</time>
      </trkpt>
      <trkpt lat="51.00905" lon="2.60026">
        <ele>2.2</ele>
        <time>2020-06-23T14:05:24Z</time>
      </trkpt>
      <trkpt lat="51.00904" lon="2.60035">
        <ele>2.1</ele>
        <time>2020-06-23T14:05:25Z</time>
      </trkpt>
      <trkpt lat="51.00903" lon="2.60044">
        <ele>2.1</ele>
        <time>2020-06-23T14:05:26Z</time>
      </trkpt>
      <trkpt lat="51.00902" lon="2.60053">
        <ele>2.1</ele>
        <time>2020-06-23T14:05:27Z</time>
      </trkpt>
      <trkpt lat="51.00901" lon="2.60065">
        <ele>2.1</ele>
        <time>2020-06-23T14:05:28Z</time>
      </trkpt>
      <trkpt lat="51.009" lon="2.60074">
        <ele>2.1</ele>
        <time>2020-06-23T14:05:29Z</time>
      </trkpt>
      <trkpt lat="51.00899" lon="2.60083">
        <ele>2.1</ele>
        <time>2020-06-23T14:05:30Z</time>
      </trkpt>
      <trkpt lat="51.00898" lon="2.60093">
        <ele>2.1</ele>
        <time>2020-06-23T14:05:31Z</time>
      </trkpt>
      <trkpt lat="51.00897" lon="2.60102">
        <ele>2.1</ele>
        <time>2020-06-23T14:05:32Z</time>
      </trkpt>
      <trkpt lat="51.00896" lon="2.60112">
        <ele>2.1</ele>
        <time>2020-06-23T14:05:33Z</time>
      </trkpt>
      <trkpt lat="51.00895" lon="2.60122">
        <ele>2.1</ele>
        <time>2020-06-23T14:05:34Z</time>
      </trkpt>
      <trkpt lat="51.00896" lon="2.60131">
        <ele>2.1</ele>
        <time>2020-06-23T14:05:35Z</time>
      </trkpt>
      <trkpt lat="51.00896" lon="2.60141">
        <ele>2</ele>
        <time>2020-06-23T14:05:36Z</time>
      </trkpt>
      <trkpt lat="51.00895" lon="2.6015">
        <ele>2</ele>
        <time>2020-06-23T14:05:37Z</time>
      </trkpt>
      <trkpt lat="51.00895" lon="2.60158">
        <ele>2</ele>
        <time>2020-06-23T14:05:38Z</time>
      </trkpt>
      <trkpt lat="51.00895" lon="2.60169">
        <ele>2</ele>
        <time>2020-06-23T14:05:39Z</time>
      </trkpt>
      <trkpt lat="51.00895" lon="2.60179">
        <ele>2</ele>
        <time>2020-06-23T14:05:40Z</time>
      </trkpt>
      <trkpt lat="51.00894" lon="2.60189">
        <ele>2</ele>
        <time>2020-06-23T14:05:41Z</time>
      </trkpt>
      <trkpt lat="51.00894" lon="2.60196">
        <ele>2.1</ele>
        <time>2020-06-23T14:05:42Z</time>
      </trkpt>
      <trkpt lat="51.00893" lon="2.60205">
        <ele>2.1</ele>
        <time>2020-06-23T14:05:43Z</time>
      </trkpt>
      <trkpt lat="51.00893" lon="2.60214">
        <ele>2.1</ele>
        <time>2020-06-23T14:05:44Z</time>
      </trkpt>
      <trkpt lat="51.00892" lon="2.60222">
        <ele>2.1</ele>
        <time>2020-06-23T14:05:45Z</time>
      </trkpt>
      <trkpt lat="51.00891" lon="2.6023">
        <ele>2.2</ele>
        <time>2020-06-23T14:05:46Z</time>
      </trkpt>
      <trkpt lat="51.0089" lon="2.6024">
        <ele>2.2</ele>
        <time>2020-06-23T14:05:47Z</time>
      </trkpt>
      <trkpt lat="51.00889" lon="2.60246">
        <ele>2.2</ele>
        <time>2020-06-23T14:05:48Z</time>
      </trkpt>
      <trkpt lat="51.00889" lon="2.60254">
        <ele>2.2</ele>
        <time>2020-06-23T14:05:49Z</time>
      </trkpt>
      <trkpt lat="51.00887" lon="2.60264">
        <ele>2.2</ele>
        <time>2020-06-23T14:05:50Z</time>
      </trkpt>
      <trkpt lat="51.00886" lon="2.60275">
        <ele>2.2</ele>
        <time>2020-06-23T14:05:51Z</time>
      </trkpt>
      <trkpt lat="51.00884" lon="2.60285">
        <ele>2.2</ele>
        <time>2020-06-23T14:05:52Z</time>
      </trkpt>
      <trkpt lat="51.00883" lon="2.60295">
        <ele>2.2</ele>
        <time>2020-06-23T14:05:53Z</time>
      </trkpt>
      <trkpt lat="51.00881" lon="2.60304">
        <ele>2.3</ele>
        <time>2020-06-23T14:05:54Z</time>
      </trkpt>
      <trkpt lat="51.0088" lon="2.60315">
        <ele>2.3</ele>
        <time>2020-06-23T14:05:55Z</time>
      </trkpt>
      <trkpt lat="51.00878" lon="2.60325">
        <ele>2.3</ele>
        <time>2020-06-23T14:05:56Z</time>
      </trkpt>
      <trkpt lat="51.00878" lon="2.60336">
        <ele>2.4</ele>
        <time>2020-06-23T14:05:57Z</time>
      </trkpt>
      <trkpt lat="51.00879" lon="2.60346">
        <ele>2.5</ele>
        <time>2020-06-23T14:05:58Z</time>
      </trkpt>
      <trkpt lat="51.00881" lon="2.60356">
        <ele>2.6</ele>
        <time>2020-06-23T14:05:59Z</time>
      </trkpt>
      <trkpt lat="51.00883" lon="2.60364">
        <ele>2.7</ele>
        <time>2020-06-23T14:06:00Z</time>
      </trkpt>
      <trkpt lat="51.00885" lon="2.60373">
        <ele>2.8</ele>
        <time>2020-06-23T14:06:01Z</time>
      </trkpt>
      <trkpt lat="51.00888" lon="2.60383">
        <ele>2.9</ele>
        <time>2020-06-23T14:06:02Z</time>
      </trkpt>
      <trkpt lat="51.0089" lon="2.60391">
        <ele>3</ele>
        <time>2020-06-23T14:06:03Z</time>
      </trkpt>
      <trkpt lat="51.00891" lon="2.60399">
        <ele>3.1</ele>
        <time>2020-06-23T14:06:04Z</time>
      </trkpt>
      <trkpt lat="51.00893" lon="2.60408">
        <ele>3.2</ele>
        <time>2020-06-23T14:06:05Z</time>
      </trkpt>
      <trkpt lat="51.00895" lon="2.60415">
        <ele>3.2</ele>
        <time>2020-06-23T14:06:06Z</time>
      </trkpt>
      <trkpt lat="51.00899" lon="2.60423">
        <ele>3.4</ele>
        <time>2020-06-23T14:06:07Z</time>
      </trkpt>
      <trkpt lat="51.009" lon="2.60431">
        <ele>3.4</ele>
        <time>2020-06-23T14:06:08Z</time>
      </trkpt>
      <trkpt lat="51.00902" lon="2.60441">
        <ele>3.5</ele>
        <time>2020-06-23T14:06:09Z</time>
      </trkpt>
      <trkpt lat="51.00904" lon="2.60449">
        <ele>3.6</ele>
        <time>2020-06-23T14:06:10Z</time>
      </trkpt>
      <trkpt lat="51.00905" lon="2.60455">
        <ele>3.6</ele>
        <time>2020-06-23T14:06:11Z</time>
      </trkpt>
      <trkpt lat="51.00907" lon="2.60462">
        <ele>3.7</ele>
        <time>2020-06-23T14:06:12Z</time>
      </trkpt>
      <trkpt lat="51.00908" lon="2.60469">
        <ele>3.7</ele>
        <time>2020-06-23T14:06:13Z</time>
      </trkpt>
      <trkpt lat="51.00909" lon="2.60475">
        <ele>3.7</ele>
        <time>2020-06-23T14:06:14Z</time>
      </trkpt>
      <trkpt lat="51.0091" lon="2.60482">
        <ele>3.6</ele>
        <time>2020-06-23T14:06:15Z</time>
      </trkpt>
      <trkpt lat="51.0091" lon="2.60486">
        <ele>3.6</ele>
        <time>2020-06-23T14:06:16Z</time>
      </trkpt>
      <trkpt lat="51.00909" lon="2.60491">
        <ele>3.6</ele>
        <time>2020-06-23T14:06:17Z</time>
      </trkpt>
      <trkpt lat="51.00909" lon="2.60496">
        <ele>3.5</ele>
        <time>2020-06-23T14:06:18Z</time>
      </trkpt>
      <trkpt lat="51.00909" lon="2.60498">
        <ele>3.5</ele>
        <time>2020-06-23T14:06:19Z</time>
      </trkpt>
      <trkpt lat="51.0091" lon="2.60503">
        <ele>3.5</ele>
        <time>2020-06-23T14:06:20Z</time>
      </trkpt>
      <trkpt lat="51.0091" lon="2.60506">
        <ele>3.5</ele>
        <time>2020-06-23T14:06:21Z</time>
      </trkpt>
      <trkpt lat="51.00912" lon="2.60512">
        <ele>3.5</ele>
        <time>2020-06-23T14:06:22Z</time>
      </trkpt>
      <trkpt lat="51.00915" lon="2.60517">
        <ele>3.4</ele>
        <time>2020-06-23T14:06:23Z</time>
      </trkpt>
      <trkpt lat="51.00916" lon="2.60523">
        <ele>3.4</ele>
        <time>2020-06-23T14:06:24Z</time>
      </trkpt>
      <trkpt lat="51.00918" lon="2.60529">
        <ele>3.4</ele>
        <time>2020-06-23T14:06:25Z</time>
      </trkpt>
      <trkpt lat="51.00921" lon="2.60535">
        <ele>3.4</ele>
        <time>2020-06-23T14:06:26Z</time>
      </trkpt>
      <trkpt lat="51.00922" lon="2.60542">
        <ele>3.4</ele>
        <time>2020-06-23T14:06:27Z</time>
      </trkpt>
      <trkpt lat="51.00923" lon="2.60549">
        <ele>3.4</ele>
        <time>2020-06-23T14:06:28Z</time>
      </trkpt>
      <trkpt lat="51.00924" lon="2.60556">
        <ele>3.4</ele>
        <time>2020-06-23T14:06:29Z</time>
      </trkpt>
      <trkpt lat="51.00925" lon="2.60563">
        <ele>3.3</ele>
        <time>2020-06-23T14:06:30Z</time>
      </trkpt>
      <trkpt lat="51.00927" lon="2.6057">
        <ele>3.3</ele>
        <time>2020-06-23T14:06:31Z</time>
      </trkpt>
      <trkpt lat="51.00928" lon="2.60577">
        <ele>3.3</ele>
        <time>2020-06-23T14:06:32Z</time>
      </trkpt>
      <trkpt lat="51.0093" lon="2.60583">
        <ele>3.3</ele>
        <time>2020-06-23T14:06:33Z</time>
      </trkpt>
      <trkpt lat="51.00931" lon="2.60592">
        <ele>3.3</ele>
        <time>2020-06-23T14:06:34Z</time>
      </trkpt>
      <trkpt lat="51.00933" lon="2.606">
        <ele>3.3</ele>
        <time>2020-06-23T14:06:35Z</time>
      </trkpt>
      <trkpt lat="51.00935" lon="2.60606">
        <ele>3.3</ele>
        <time>2020-06-23T14:06:36Z</time>
      </trkpt>
      <trkpt lat="51.00936" lon="2.60614">
        <ele>3.3</ele>
        <time>2020-06-23T14:06:37Z</time>
      </trkpt>
      <trkpt lat="51.00938" lon="2.60621">
        <ele>3.3</ele>
        <time>2020-06-23T14:06:38Z</time>
      </trkpt>
      <trkpt lat="51.00939" lon="2.60629">
        <ele>3.4</ele>
        <time>2020-06-23T14:06:39Z</time>
      </trkpt>
      <trkpt lat="51.00942" lon="2.60637">
        <ele>3.4</ele>
        <time>2020-06-23T14:06:40Z</time>
      </trkpt>
      <trkpt lat="51.00944" lon="2.60646">
        <ele>3.4</ele>
        <time>2020-06-23T14:06:41Z</time>
      </trkpt>
      <trkpt lat="51.00946" lon="2.60655">
        <ele>3.5</ele>
        <time>2020-06-23T14:06:42Z</time>
      </trkpt>
      <trkpt lat="51.00949" lon="2.60663">
        <ele>3.5</ele>
        <time>2020-06-23T14:06:43Z</time>
      </trkpt>
      <trkpt lat="51.00952" lon="2.60671">
        <ele>3.6</ele>
        <time>2020-06-23T14:06:44Z</time>
      </trkpt>
      <trkpt lat="51.00954" lon="2.60678">
        <ele>3.6</ele>
        <time>2020-06-23T14:06:45Z</time>
      </trkpt>
      <trkpt lat="51.00957" lon="2.60685">
        <ele>3.7</ele>
        <time>2020-06-23T14:06:46Z</time>
      </trkpt>
      <trkpt lat="51.0096" lon="2.60694">
        <ele>3.7</ele>
        <time>2020-06-23T14:06:47Z</time>
      </trkpt>
      <trkpt lat="51.00963" lon="2.60703">
        <ele>3.7</ele>
        <time>2020-06-23T14:06:48Z</time>
      </trkpt>
      <trkpt lat="51.00965" lon="2.60711">
        <ele>3.8</ele>
        <time>2020-06-23T14:06:49Z</time>
      </trkpt>
      <trkpt lat="51.00968" lon="2.60718">
        <ele>3.8</ele>
        <time>2020-06-23T14:06:50Z</time>
      </trkpt>
      <trkpt lat="51.00972" lon="2.60725">
        <ele>3.8</ele>
        <time>2020-06-23T14:06:51Z</time>
      </trkpt>
      <trkpt lat="51.00975" lon="2.60734">
        <ele>3.8</ele>
        <time>2020-06-23T14:06:52Z</time>
      </trkpt>
      <trkpt lat="51.00977" lon="2.60743">
        <ele>3.9</ele>
        <time>2020-06-23T14:06:53Z</time>
      </trkpt>
      <trkpt lat="51.0098" lon="2.6075">
        <ele>3.9</ele>
        <time>2020-06-23T14:06:54Z</time>
      </trkpt>
      <trkpt lat="51.00983" lon="2.60758">
        <ele>3.9</ele>
        <time>2020-06-23T14:06:55Z</time>
      </trkpt>
      <trkpt lat="51.00985" lon="2.60766">
        <ele>4</ele>
        <time>2020-06-23T14:06:56Z</time>
      </trkpt>
      <trkpt lat="51.00988" lon="2.60774">
        <ele>4.1</ele>
        <time>2020-06-23T14:06:57Z</time>
      </trkpt>
      <trkpt lat="51.0099" lon="2.60784">
        <ele>4.1</ele>
        <time>2020-06-23T14:06:58Z</time>
      </trkpt>
      <trkpt lat="51.00992" lon="2.60792">
        <ele>4.2</ele>
        <time>2020-06-23T14:06:59Z</time>
      </trkpt>
      <trkpt lat="51.00994" lon="2.608">
        <ele>4.3</ele>
        <time>2020-06-23T14:07:00Z</time>
      </trkpt>
      <trkpt lat="51.00996" lon="2.60808">
        <ele>4.3</ele>
        <time>2020-06-23T14:07:01Z</time>
      </trkpt>
      <trkpt lat="51.00998" lon="2.60815">
        <ele>4.3</ele>
        <time>2020-06-23T14:07:02Z</time>
      </trkpt>
      <trkpt lat="51.01001" lon="2.60823">
        <ele>4.3</ele>
        <time>2020-06-23T14:07:03Z</time>
      </trkpt>
      <trkpt lat="51.01003" lon="2.60831">
        <ele>4.3</ele>
        <time>2020-06-23T14:07:04Z</time>
      </trkpt>
      <trkpt lat="51.01004" lon="2.60839">
        <ele>4.3</ele>
        <time>2020-06-23T14:07:05Z</time>
      </trkpt>
      <trkpt lat="51.01006" lon="2.60847">
        <ele>4.3</ele>
        <time>2020-06-23T14:07:06Z</time>
      </trkpt>
      <trkpt lat="51.01007" lon="2.60853">
        <ele>4.3</ele>
        <time>2020-06-23T14:07:07Z</time>
      </trkpt>
      <trkpt lat="51.01009" lon="2.60861">
        <ele>4.3</ele>
        <time>2020-06-23T14:07:08Z</time>
      </trkpt>
      <trkpt lat="51.01011" lon="2.60869">
        <ele>4.3</ele>
        <time>2020-06-23T14:07:09Z</time>
      </trkpt>
      <trkpt lat="51.01013" lon="2.60878">
        <ele>4.3</ele>
        <time>2020-06-23T14:07:10Z</time>
      </trkpt>
      <trkpt lat="51.01015" lon="2.60887">
        <ele>4.3</ele>
        <time>2020-06-23T14:07:11Z</time>
      </trkpt>
      <trkpt lat="51.01013" lon="2.60895">
        <ele>4.3</ele>
        <time>2020-06-23T14:07:12Z</time>
      </trkpt>
      <trkpt lat="51.01012" lon="2.60904">
        <ele>4.2</ele>
        <time>2020-06-23T14:07:13Z</time>
      </trkpt>
      <trkpt lat="51.01008" lon="2.60914">
        <ele>4.2</ele>
        <time>2020-06-23T14:07:14Z</time>
      </trkpt>
      <trkpt lat="51.01004" lon="2.60923">
        <ele>4.1</ele>
        <time>2020-06-23T14:07:15Z</time>
      </trkpt>
      <trkpt lat="51.01002" lon="2.60933">
        <ele>4.1</ele>
        <time>2020-06-23T14:07:16Z</time>
      </trkpt>
      <trkpt lat="51.01001" lon="2.60941">
        <ele>4.2</ele>
        <time>2020-06-23T14:07:17Z</time>
      </trkpt>
      <trkpt lat="51.01" lon="2.60949">
        <ele>4.2</ele>
        <time>2020-06-23T14:07:18Z</time>
      </trkpt>
      <trkpt lat="51.00997" lon="2.60958">
        <ele>4.2</ele>
        <time>2020-06-23T14:07:19Z</time>
      </trkpt>
      <trkpt lat="51.00995" lon="2.60966">
        <ele>4.2</ele>
        <time>2020-06-23T14:07:20Z</time>
      </trkpt>
      <trkpt lat="51.00992" lon="2.60974">
        <ele>4.2</ele>
        <time>2020-06-23T14:07:21Z</time>
      </trkpt>
      <trkpt lat="51.0099" lon="2.60982">
        <ele>4.3</ele>
        <time>2020-06-23T14:07:22Z</time>
      </trkpt>
      <trkpt lat="51.00987" lon="2.6099">
        <ele>4.3</ele>
        <time>2020-06-23T14:07:23Z</time>
      </trkpt>
      <trkpt lat="51.00985" lon="2.60997">
        <ele>4.4</ele>
        <time>2020-06-23T14:07:24Z</time>
      </trkpt>
      <trkpt lat="51.00982" lon="2.61006">
        <ele>4.5</ele>
        <time>2020-06-23T14:07:25Z</time>
      </trkpt>
      <trkpt lat="51.0098" lon="2.61013">
        <ele>4.5</ele>
        <time>2020-06-23T14:07:26Z</time>
      </trkpt>
      <trkpt lat="51.00977" lon="2.61022">
        <ele>4.4</ele>
        <time>2020-06-23T14:07:27Z</time>
      </trkpt>
      <trkpt lat="51.00974" lon="2.6103">
        <ele>4.4</ele>
        <time>2020-06-23T14:07:28Z</time>
      </trkpt>
      <trkpt lat="51.0097" lon="2.61038">
        <ele>4.4</ele>
        <time>2020-06-23T14:07:29Z</time>
      </trkpt>
      <trkpt lat="51.00966" lon="2.61046">
        <ele>4.4</ele>
        <time>2020-06-23T14:07:30Z</time>
      </trkpt>
      <trkpt lat="51.00961" lon="2.61055">
        <ele>4.3</ele>
        <time>2020-06-23T14:07:31Z</time>
      </trkpt>
      <trkpt lat="51.00957" lon="2.61063">
        <ele>4.3</ele>
        <time>2020-06-23T14:07:32Z</time>
      </trkpt>
      <trkpt lat="51.00953" lon="2.61072">
        <ele>4.2</ele>
        <time>2020-06-23T14:07:33Z</time>
      </trkpt>
      <trkpt lat="51.00949" lon="2.61081">
        <ele>4.1</ele>
        <time>2020-06-23T14:07:34Z</time>
      </trkpt>
      <trkpt lat="51.00946" lon="2.61089">
        <ele>4</ele>
        <time>2020-06-23T14:07:35Z</time>
      </trkpt>
      <trkpt lat="51.00942" lon="2.61096">
        <ele>4</ele>
        <time>2020-06-23T14:07:36Z</time>
      </trkpt>
      <trkpt lat="51.00939" lon="2.61104">
        <ele>3.9</ele>
        <time>2020-06-23T14:07:37Z</time>
      </trkpt>
      <trkpt lat="51.00936" lon="2.61113">
        <ele>3.9</ele>
        <time>2020-06-23T14:07:38Z</time>
      </trkpt>
      <trkpt lat="51.00932" lon="2.6112">
        <ele>3.8</ele>
        <time>2020-06-23T14:07:39Z</time>
      </trkpt>
      <trkpt lat="51.00929" lon="2.61128">
        <ele>3.8</ele>
        <time>2020-06-23T14:07:40Z</time>
      </trkpt>
      <trkpt lat="51.00925" lon="2.61136">
        <ele>3.8</ele>
        <time>2020-06-23T14:07:41Z</time>
      </trkpt>
      <trkpt lat="51.00921" lon="2.61143">
        <ele>3.8</ele>
        <time>2020-06-23T14:07:42Z</time>
      </trkpt>
      <trkpt lat="51.00917" lon="2.6115">
        <ele>3.8</ele>
        <time>2020-06-23T14:07:43Z</time>
      </trkpt>
      <trkpt lat="51.00914" lon="2.61157">
        <ele>3.8</ele>
        <time>2020-06-23T14:07:44Z</time>
      </trkpt>
      <trkpt lat="51.00911" lon="2.61165">
        <ele>3.8</ele>
        <time>2020-06-23T14:07:45Z</time>
      </trkpt>
      <trkpt lat="51.00909" lon="2.61173">
        <ele>3.9</ele>
        <time>2020-06-23T14:07:46Z</time>
      </trkpt>
      <trkpt lat="51.00906" lon="2.61181">
        <ele>3.9</ele>
        <time>2020-06-23T14:07:47Z</time>
      </trkpt>
      <trkpt lat="51.00904" lon="2.61188">
        <ele>3.9</ele>
        <time>2020-06-23T14:07:48Z</time>
      </trkpt>
      <trkpt lat="51.00902" lon="2.61196">
        <ele>3.9</ele>
        <time>2020-06-23T14:07:49Z</time>
      </trkpt>
      <trkpt lat="51.00899" lon="2.61202">
        <ele>3.9</ele>
        <time>2020-06-23T14:07:50Z</time>
      </trkpt>
      <trkpt lat="51.00896" lon="2.61209">
        <ele>4</ele>
        <time>2020-06-23T14:07:51Z</time>
      </trkpt>
      <trkpt lat="51.00894" lon="2.61215">
        <ele>4</ele>
        <time>2020-06-23T14:07:52Z</time>
      </trkpt>
      <trkpt lat="51.00891" lon="2.61221">
        <ele>4</ele>
        <time>2020-06-23T14:07:53Z</time>
      </trkpt>
      <trkpt lat="51.00888" lon="2.61229">
        <ele>4.1</ele>
        <time>2020-06-23T14:07:54Z</time>
      </trkpt>
      <trkpt lat="51.00886" lon="2.61234">
        <ele>4.1</ele>
        <time>2020-06-23T14:07:55Z</time>
      </trkpt>
      <trkpt lat="51.00884" lon="2.6124">
        <ele>4.2</ele>
        <time>2020-06-23T14:07:56Z</time>
      </trkpt>
      <trkpt lat="51.00881" lon="2.61246">
        <ele>4.3</ele>
        <time>2020-06-23T14:07:57Z</time>
      </trkpt>
      <trkpt lat="51.00878" lon="2.61252">
        <ele>4.3</ele>
        <time>2020-06-23T14:07:58Z</time>
      </trkpt>
      <trkpt lat="51.00875" lon="2.61259">
        <ele>4.1</ele>
        <time>2020-06-23T14:07:59Z</time>
      </trkpt>
      <trkpt lat="51.00872" lon="2.61267">
        <ele>4</ele>
        <time>2020-06-23T14:08:00Z</time>
      </trkpt>
      <trkpt lat="51.0087" lon="2.61274">
        <ele>4</ele>
        <time>2020-06-23T14:08:01Z</time>
      </trkpt>
      <trkpt lat="51.00867" lon="2.61281">
        <ele>3.9</ele>
        <time>2020-06-23T14:08:02Z</time>
      </trkpt>
      <trkpt lat="51.00864" lon="2.61288">
        <ele>3.9</ele>
        <time>2020-06-23T14:08:03Z</time>
      </trkpt>
      <trkpt lat="51.00861" lon="2.61296">
        <ele>3.9</ele>
        <time>2020-06-23T14:08:04Z</time>
      </trkpt>
      <trkpt lat="51.00857" lon="2.61304">
        <ele>3.9</ele>
        <time>2020-06-23T14:08:05Z</time>
      </trkpt>
      <trkpt lat="51.00855" lon="2.61313">
        <ele>3.9</ele>
        <time>2020-06-23T14:08:06Z</time>
      </trkpt>
      <trkpt lat="51.00851" lon="2.61321">
        <ele>4</ele>
        <time>2020-06-23T14:08:07Z</time>
      </trkpt>
      <trkpt lat="51.00848" lon="2.6133">
        <ele>4</ele>
        <time>2020-06-23T14:08:08Z</time>
      </trkpt>
      <trkpt lat="51.00845" lon="2.61337">
        <ele>4</ele>
        <time>2020-06-23T14:08:09Z</time>
      </trkpt>
      <trkpt lat="51.00841" lon="2.61345">
        <ele>4</ele>
        <time>2020-06-23T14:08:10Z</time>
      </trkpt>
      <trkpt lat="51.00838" lon="2.61354">
        <ele>4</ele>
        <time>2020-06-23T14:08:11Z</time>
      </trkpt>
      <trkpt lat="51.00835" lon="2.61362">
        <ele>4</ele>
        <time>2020-06-23T14:08:12Z</time>
      </trkpt>
      <trkpt lat="51.00832" lon="2.61369">
        <ele>4</ele>
        <time>2020-06-23T14:08:13Z</time>
      </trkpt>
      <trkpt lat="51.00829" lon="2.61379">
        <ele>4.1</ele>
        <time>2020-06-23T14:08:14Z</time>
      </trkpt>
      <trkpt lat="51.00826" lon="2.61386">
        <ele>4.1</ele>
        <time>2020-06-23T14:08:15Z</time>
      </trkpt>
      <trkpt lat="51.00824" lon="2.61394">
        <ele>4.1</ele>
        <time>2020-06-23T14:08:16Z</time>
      </trkpt>
      <trkpt lat="51.0082" lon="2.614">
        <ele>4.2</ele>
        <time>2020-06-23T14:08:17Z</time>
      </trkpt>
      <trkpt lat="51.00817" lon="2.61407">
        <ele>4.2</ele>
        <time>2020-06-23T14:08:18Z</time>
      </trkpt>
      <trkpt lat="51.00813" lon="2.61416">
        <ele>4.2</ele>
        <time>2020-06-23T14:08:19Z</time>
      </trkpt>
      <trkpt lat="51.0081" lon="2.61424">
        <ele>4.2</ele>
        <time>2020-06-23T14:08:20Z</time>
      </trkpt>
      <trkpt lat="51.00806" lon="2.61432">
        <ele>4.3</ele>
        <time>2020-06-23T14:08:21Z</time>
      </trkpt>
      <trkpt lat="51.00802" lon="2.61442">
        <ele>4.3</ele>
        <time>2020-06-23T14:08:22Z</time>
      </trkpt>
      <trkpt lat="51.00798" lon="2.6145">
        <ele>4.3</ele>
        <time>2020-06-23T14:08:23Z</time>
      </trkpt>
      <trkpt lat="51.00795" lon="2.61459">
        <ele>4.3</ele>
        <time>2020-06-23T14:08:24Z</time>
      </trkpt>
      <trkpt lat="51.00792" lon="2.61466">
        <ele>4.3</ele>
        <time>2020-06-23T14:08:25Z</time>
      </trkpt>
      <trkpt lat="51.00789" lon="2.61474">
        <ele>4.3</ele>
        <time>2020-06-23T14:08:26Z</time>
      </trkpt>
      <trkpt lat="51.00786" lon="2.61484">
        <ele>4.3</ele>
        <time>2020-06-23T14:08:27Z</time>
      </trkpt>
      <trkpt lat="51.00783" lon="2.61491">
        <ele>4.3</ele>
        <time>2020-06-23T14:08:28Z</time>
      </trkpt>
      <trkpt lat="51.0078" lon="2.61499">
        <ele>4.3</ele>
        <time>2020-06-23T14:08:29Z</time>
      </trkpt>
      <trkpt lat="51.00777" lon="2.61506">
        <ele>4.3</ele>
        <time>2020-06-23T14:08:30Z</time>
      </trkpt>
      <trkpt lat="51.00774" lon="2.61514">
        <ele>4.3</ele>
        <time>2020-06-23T14:08:31Z</time>
      </trkpt>
      <trkpt lat="51.0077" lon="2.61522">
        <ele>4.3</ele>
        <time>2020-06-23T14:08:32Z</time>
      </trkpt>
      <trkpt lat="51.00766" lon="2.61527">
        <ele>4.3</ele>
        <time>2020-06-23T14:08:33Z</time>
      </trkpt>
      <trkpt lat="51.00762" lon="2.61535">
        <ele>4.3</ele>
        <time>2020-06-23T14:08:34Z</time>
      </trkpt>
      <trkpt lat="51.00758" lon="2.61543">
        <ele>4.3</ele>
        <time>2020-06-23T14:08:35Z</time>
      </trkpt>
      <trkpt lat="51.00754" lon="2.6155">
        <ele>4.4</ele>
        <time>2020-06-23T14:08:36Z</time>
      </trkpt>
      <trkpt lat="51.0075" lon="2.61559">
        <ele>4.4</ele>
        <time>2020-06-23T14:08:37Z</time>
      </trkpt>
      <trkpt lat="51.00747" lon="2.61566">
        <ele>4.4</ele>
        <time>2020-06-23T14:08:38Z</time>
      </trkpt>
      <trkpt lat="51.00743" lon="2.61575">
        <ele>4.4</ele>
        <time>2020-06-23T14:08:39Z</time>
      </trkpt>
      <trkpt lat="51.00738" lon="2.61583">
        <ele>4.4</ele>
        <time>2020-06-23T14:08:40Z</time>
      </trkpt>
      <trkpt lat="51.00735" lon="2.6159">
        <ele>4.4</ele>
        <time>2020-06-23T14:08:41Z</time>
      </trkpt>
      <trkpt lat="51.00731" lon="2.61597">
        <ele>4.4</ele>
        <time>2020-06-23T14:08:42Z</time>
      </trkpt>
      <trkpt lat="51.00728" lon="2.61605">
        <ele>4.4</ele>
        <time>2020-06-23T14:08:43Z</time>
      </trkpt>
      <trkpt lat="51.00723" lon="2.61612">
        <ele>4.5</ele>
        <time>2020-06-23T14:08:44Z</time>
      </trkpt>
      <trkpt lat="51.00719" lon="2.6162">
        <ele>4.5</ele>
        <time>2020-06-23T14:08:45Z</time>
      </trkpt>
      <trkpt lat="51.00715" lon="2.61628">
        <ele>4.6</ele>
        <time>2020-06-23T14:08:46Z</time>
      </trkpt>
      <trkpt lat="51.00711" lon="2.61638">
        <ele>4.7</ele>
        <time>2020-06-23T14:08:47Z</time>
      </trkpt>
      <trkpt lat="51.00707" lon="2.61648">
        <ele>4.7</ele>
        <time>2020-06-23T14:08:48Z</time>
      </trkpt>
      <trkpt lat="51.00703" lon="2.61657">
        <ele>4.5</ele>
        <time>2020-06-23T14:08:49Z</time>
      </trkpt>
      <trkpt lat="51.007" lon="2.61665">
        <ele>4.3</ele>
        <time>2020-06-23T14:08:50Z</time>
      </trkpt>
      <trkpt lat="51.00696" lon="2.61674">
        <ele>4.2</ele>
        <time>2020-06-23T14:08:51Z</time>
      </trkpt>
      <trkpt lat="51.00692" lon="2.61681">
        <ele>4.1</ele>
        <time>2020-06-23T14:08:52Z</time>
      </trkpt>
      <trkpt lat="51.00688" lon="2.61689">
        <ele>4.1</ele>
        <time>2020-06-23T14:08:53Z</time>
      </trkpt>
      <trkpt lat="51.00684" lon="2.61697">
        <ele>4.1</ele>
        <time>2020-06-23T14:08:54Z</time>
      </trkpt>
      <trkpt lat="51.0068" lon="2.61706">
        <ele>4.1</ele>
        <time>2020-06-23T14:08:55Z</time>
      </trkpt>
      <trkpt lat="51.00676" lon="2.61714">
        <ele>4.1</ele>
        <time>2020-06-23T14:08:56Z</time>
      </trkpt>
      <trkpt lat="51.00672" lon="2.61721">
        <ele>4.2</ele>
        <time>2020-06-23T14:08:57Z</time>
      </trkpt>
      <trkpt lat="51.00669" lon="2.61728">
        <ele>4.2</ele>
        <time>2020-06-23T14:08:58Z</time>
      </trkpt>
      <trkpt lat="51.00664" lon="2.61736">
        <ele>4.2</ele>
        <time>2020-06-23T14:08:59Z</time>
      </trkpt>
      <trkpt lat="51.0066" lon="2.61743">
        <ele>4.3</ele>
        <time>2020-06-23T14:09:00Z</time>
      </trkpt>
      <trkpt lat="51.00656" lon="2.6175">
        <ele>4.3</ele>
        <time>2020-06-23T14:09:01Z</time>
      </trkpt>
      <trkpt lat="51.00652" lon="2.61757">
        <ele>4.4</ele>
        <time>2020-06-23T14:09:02Z</time>
      </trkpt>
      <trkpt lat="51.00648" lon="2.61764">
        <ele>4.4</ele>
        <time>2020-06-23T14:09:03Z</time>
      </trkpt>
      <trkpt lat="51.00643" lon="2.61772">
        <ele>4.4</ele>
        <time>2020-06-23T14:09:04Z</time>
      </trkpt>
      <trkpt lat="51.00639" lon="2.6178">
        <ele>4.5</ele>
        <time>2020-06-23T14:09:05Z</time>
      </trkpt>
      <trkpt lat="51.00635" lon="2.61788">
        <ele>4.5</ele>
        <time>2020-06-23T14:09:06Z</time>
      </trkpt>
      <trkpt lat="51.00631" lon="2.61797">
        <ele>4.6</ele>
        <time>2020-06-23T14:09:07Z</time>
      </trkpt>
      <trkpt lat="51.00626" lon="2.61807">
        <ele>4.7</ele>
        <time>2020-06-23T14:09:08Z</time>
      </trkpt>
      <trkpt lat="51.00622" lon="2.61815">
        <ele>4.9</ele>
        <time>2020-06-23T14:09:09Z</time>
      </trkpt>
      <trkpt lat="51.00617" lon="2.61823">
        <ele>5</ele>
        <time>2020-06-23T14:09:10Z</time>
      </trkpt>
      <trkpt lat="51.00613" lon="2.61831">
        <ele>5.2</ele>
        <time>2020-06-23T14:09:11Z</time>
      </trkpt>
      <trkpt lat="51.00609" lon="2.61838">
        <ele>5.3</ele>
        <time>2020-06-23T14:09:12Z</time>
      </trkpt>
      <trkpt lat="51.00606" lon="2.61846">
        <ele>5.4</ele>
        <time>2020-06-23T14:09:13Z</time>
      </trkpt>
      <trkpt lat="51.00601" lon="2.61856">
        <ele>5.5</ele>
        <time>2020-06-23T14:09:14Z</time>
      </trkpt>
      <trkpt lat="51.00598" lon="2.61865">
        <ele>5.3</ele>
        <time>2020-06-23T14:09:15Z</time>
      </trkpt>
      <trkpt lat="51.00595" lon="2.61873">
        <ele>5.1</ele>
        <time>2020-06-23T14:09:16Z</time>
      </trkpt>
      <trkpt lat="51.00592" lon="2.61882">
        <ele>4.9</ele>
        <time>2020-06-23T14:09:17Z</time>
      </trkpt>
      <trkpt lat="51.0059" lon="2.61891">
        <ele>4.7</ele>
        <time>2020-06-23T14:09:18Z</time>
      </trkpt>
      <trkpt lat="51.00587" lon="2.619">
        <ele>4.6</ele>
        <time>2020-06-23T14:09:19Z</time>
      </trkpt>
      <trkpt lat="51.00584" lon="2.61909">
        <ele>4.5</ele>
        <time>2020-06-23T14:09:20Z</time>
      </trkpt>
      <trkpt lat="51.00581" lon="2.61917">
        <ele>4.4</ele>
        <time>2020-06-23T14:09:21Z</time>
      </trkpt>
      <trkpt lat="51.00579" lon="2.61926">
        <ele>4.3</ele>
        <time>2020-06-23T14:09:22Z</time>
      </trkpt>
      <trkpt lat="51.00576" lon="2.61936">
        <ele>4.3</ele>
        <time>2020-06-23T14:09:23Z</time>
      </trkpt>
      <trkpt lat="51.00573" lon="2.61946">
        <ele>4.2</ele>
        <time>2020-06-23T14:09:24Z</time>
      </trkpt>
      <trkpt lat="51.00571" lon="2.61955">
        <ele>4.2</ele>
        <time>2020-06-23T14:09:25Z</time>
      </trkpt>
      <trkpt lat="51.00568" lon="2.61964">
        <ele>4.2</ele>
        <time>2020-06-23T14:09:26Z</time>
      </trkpt>
      <trkpt lat="51.00566" lon="2.61973">
        <ele>4.2</ele>
        <time>2020-06-23T14:09:27Z</time>
      </trkpt>
      <trkpt lat="51.00563" lon="2.61982">
        <ele>4.2</ele>
        <time>2020-06-23T14:09:28Z</time>
      </trkpt>
      <trkpt lat="51.0056" lon="2.61991">
        <ele>4.2</ele>
        <time>2020-06-23T14:09:29Z</time>
      </trkpt>
      <trkpt lat="51.00557" lon="2.61999">
        <ele>4.2</ele>
        <time>2020-06-23T14:09:30Z</time>
      </trkpt>
      <trkpt lat="51.00554" lon="2.62008">
        <ele>4.2</ele>
        <time>2020-06-23T14:09:31Z</time>
      </trkpt>
      <trkpt lat="51.00553" lon="2.62017">
        <ele>4.2</ele>
        <time>2020-06-23T14:09:32Z</time>
      </trkpt>
      <trkpt lat="51.0055" lon="2.62026">
        <ele>4.3</ele>
        <time>2020-06-23T14:09:33Z</time>
      </trkpt>
      <trkpt lat="51.00547" lon="2.62034">
        <ele>4.3</ele>
        <time>2020-06-23T14:09:34Z</time>
      </trkpt>
      <trkpt lat="51.00544" lon="2.62044">
        <ele>4.3</ele>
        <time>2020-06-23T14:09:35Z</time>
      </trkpt>
      <trkpt lat="51.00541" lon="2.62054">
        <ele>4.4</ele>
        <time>2020-06-23T14:09:36Z</time>
      </trkpt>
      <trkpt lat="51.00539" lon="2.62064">
        <ele>4.4</ele>
        <time>2020-06-23T14:09:37Z</time>
      </trkpt>
      <trkpt lat="51.00537" lon="2.62074">
        <ele>4.4</ele>
        <time>2020-06-23T14:09:38Z</time>
      </trkpt>
      <trkpt lat="51.00535" lon="2.62082">
        <ele>4.4</ele>
        <time>2020-06-23T14:09:39Z</time>
      </trkpt>
      <trkpt lat="51.00533" lon="2.62091">
        <ele>4.4</ele>
        <time>2020-06-23T14:09:40Z</time>
      </trkpt>
      <trkpt lat="51.0053" lon="2.62099">
        <ele>4.4</ele>
        <time>2020-06-23T14:09:41Z</time>
      </trkpt>
      <trkpt lat="51.00528" lon="2.62108">
        <ele>4.4</ele>
        <time>2020-06-23T14:09:42Z</time>
      </trkpt>
      <trkpt lat="51.00526" lon="2.62116">
        <ele>4.4</ele>
        <time>2020-06-23T14:09:43Z</time>
      </trkpt>
      <trkpt lat="51.00525" lon="2.62124">
        <ele>4.4</ele>
        <time>2020-06-23T14:09:44Z</time>
      </trkpt>
      <trkpt lat="51.00524" lon="2.62133">
        <ele>4.4</ele>
        <time>2020-06-23T14:09:45Z</time>
      </trkpt>
      <trkpt lat="51.00522" lon="2.62141">
        <ele>4.4</ele>
        <time>2020-06-23T14:09:46Z</time>
      </trkpt>
      <trkpt lat="51.0052" lon="2.62151">
        <ele>4.4</ele>
        <time>2020-06-23T14:09:47Z</time>
      </trkpt>
      <trkpt lat="51.00519" lon="2.62161">
        <ele>4.4</ele>
        <time>2020-06-23T14:09:48Z</time>
      </trkpt>
      <trkpt lat="51.00518" lon="2.62168">
        <ele>4.4</ele>
        <time>2020-06-23T14:09:49Z</time>
      </trkpt>
      <trkpt lat="51.00516" lon="2.62176">
        <ele>4.5</ele>
        <time>2020-06-23T14:09:50Z</time>
      </trkpt>
      <trkpt lat="51.00514" lon="2.62185">
        <ele>4.5</ele>
        <time>2020-06-23T14:09:51Z</time>
      </trkpt>
      <trkpt lat="51.00512" lon="2.62195">
        <ele>4.5</ele>
        <time>2020-06-23T14:09:52Z</time>
      </trkpt>
      <trkpt lat="51.00511" lon="2.62204">
        <ele>4.5</ele>
        <time>2020-06-23T14:09:53Z</time>
      </trkpt>
      <trkpt lat="51.0051" lon="2.62211">
        <ele>4.5</ele>
        <time>2020-06-23T14:09:54Z</time>
      </trkpt>
      <trkpt lat="51.00508" lon="2.6222">
        <ele>4.5</ele>
        <time>2020-06-23T14:09:55Z</time>
      </trkpt>
      <trkpt lat="51.00507" lon="2.62227">
        <ele>4.5</ele>
        <time>2020-06-23T14:09:56Z</time>
      </trkpt>
      <trkpt lat="51.00505" lon="2.62238">
        <ele>4.5</ele>
        <time>2020-06-23T14:09:57Z</time>
      </trkpt>
      <trkpt lat="51.00503" lon="2.62248">
        <ele>4.6</ele>
        <time>2020-06-23T14:09:58Z</time>
      </trkpt>
      <trkpt lat="51.00501" lon="2.62258">
        <ele>4.6</ele>
        <time>2020-06-23T14:09:59Z</time>
      </trkpt>
      <trkpt lat="51.00499" lon="2.62264">
        <ele>4.6</ele>
        <time>2020-06-23T14:10:00Z</time>
      </trkpt>
      <trkpt lat="51.00498" lon="2.62274">
        <ele>4.7</ele>
        <time>2020-06-23T14:10:01Z</time>
      </trkpt>
      <trkpt lat="51.00495" lon="2.62283">
        <ele>4.7</ele>
        <time>2020-06-23T14:10:02Z</time>
      </trkpt>
      <trkpt lat="51.00494" lon="2.6229">
        <ele>4.7</ele>
        <time>2020-06-23T14:10:03Z</time>
      </trkpt>
      <trkpt lat="51.00493" lon="2.62298">
        <ele>4.7</ele>
        <time>2020-06-23T14:10:04Z</time>
      </trkpt>
      <trkpt lat="51.00491" lon="2.62306">
        <ele>4.7</ele>
        <time>2020-06-23T14:10:05Z</time>
      </trkpt>
      <trkpt lat="51.00489" lon="2.62315">
        <ele>4.7</ele>
        <time>2020-06-23T14:10:06Z</time>
      </trkpt>
      <trkpt lat="51.00488" lon="2.62326">
        <ele>4.8</ele>
        <time>2020-06-23T14:10:07Z</time>
      </trkpt>
      <trkpt lat="51.00486" lon="2.62336">
        <ele>4.8</ele>
        <time>2020-06-23T14:10:08Z</time>
      </trkpt>
      <trkpt lat="51.00483" lon="2.62345">
        <ele>4.8</ele>
        <time>2020-06-23T14:10:09Z</time>
      </trkpt>
      <trkpt lat="51.00481" lon="2.62355">
        <ele>4.9</ele>
        <time>2020-06-23T14:10:10Z</time>
      </trkpt>
      <trkpt lat="51.0048" lon="2.62362">
        <ele>4.9</ele>
        <time>2020-06-23T14:10:11Z</time>
      </trkpt>
      <trkpt lat="51.00477" lon="2.62372">
        <ele>4.9</ele>
        <time>2020-06-23T14:10:12Z</time>
      </trkpt>
      <trkpt lat="51.00474" lon="2.6238">
        <ele>4.9</ele>
        <time>2020-06-23T14:10:13Z</time>
      </trkpt>
      <trkpt lat="51.00472" lon="2.62389">
        <ele>5</ele>
        <time>2020-06-23T14:10:14Z</time>
      </trkpt>
      <trkpt lat="51.00469" lon="2.62399">
        <ele>5</ele>
        <time>2020-06-23T14:10:15Z</time>
      </trkpt>
      <trkpt lat="51.00467" lon="2.62405">
        <ele>5</ele>
        <time>2020-06-23T14:10:16Z</time>
      </trkpt>
      <trkpt lat="51.00466" lon="2.62414">
        <ele>5</ele>
        <time>2020-06-23T14:10:17Z</time>
      </trkpt>
      <trkpt lat="51.00464" lon="2.62423">
        <ele>5</ele>
        <time>2020-06-23T14:10:18Z</time>
      </trkpt>
      <trkpt lat="51.00462" lon="2.62432">
        <ele>5</ele>
        <time>2020-06-23T14:10:19Z</time>
      </trkpt>
      <trkpt lat="51.00461" lon="2.62441">
        <ele>5</ele>
        <time>2020-06-23T14:10:20Z</time>
      </trkpt>
      <trkpt lat="51.0046" lon="2.62451">
        <ele>5</ele>
        <time>2020-06-23T14:10:21Z</time>
      </trkpt>
      <trkpt lat="51.00457" lon="2.62459">
        <ele>5</ele>
        <time>2020-06-23T14:10:22Z</time>
      </trkpt>
      <trkpt lat="51.00455" lon="2.62469">
        <ele>5.1</ele>
        <time>2020-06-23T14:10:23Z</time>
      </trkpt>
      <trkpt lat="51.00452" lon="2.62479">
        <ele>5.1</ele>
        <time>2020-06-23T14:10:24Z</time>
      </trkpt>
      <trkpt lat="51.00451" lon="2.62489">
        <ele>5.1</ele>
        <time>2020-06-23T14:10:25Z</time>
      </trkpt>
      <trkpt lat="51.0045" lon="2.62497">
        <ele>5.1</ele>
        <time>2020-06-23T14:10:26Z</time>
      </trkpt>
      <trkpt lat="51.00449" lon="2.62507">
        <ele>5.2</ele>
        <time>2020-06-23T14:10:27Z</time>
      </trkpt>
      <trkpt lat="51.00448" lon="2.62518">
        <ele>5.2</ele>
        <time>2020-06-23T14:10:28Z</time>
      </trkpt>
      <trkpt lat="51.00447" lon="2.62527">
        <ele>5.2</ele>
        <time>2020-06-23T14:10:29Z</time>
      </trkpt>
      <trkpt lat="51.00445" lon="2.62539">
        <ele>5.2</ele>
        <time>2020-06-23T14:10:30Z</time>
      </trkpt>
      <trkpt lat="51.00443" lon="2.62547">
        <ele>5.2</ele>
        <time>2020-06-23T14:10:31Z</time>
      </trkpt>
      <trkpt lat="51.00442" lon="2.62555">
        <ele>5.2</ele>
        <time>2020-06-23T14:10:32Z</time>
      </trkpt>
      <trkpt lat="51.0044" lon="2.62566">
        <ele>5.3</ele>
        <time>2020-06-23T14:10:33Z</time>
      </trkpt>
      <trkpt lat="51.00438" lon="2.62576">
        <ele>5.3</ele>
        <time>2020-06-23T14:10:34Z</time>
      </trkpt>
      <trkpt lat="51.00437" lon="2.62584">
        <ele>5.3</ele>
        <time>2020-06-23T14:10:35Z</time>
      </trkpt>
      <trkpt lat="51.00437" lon="2.62591">
        <ele>5.3</ele>
        <time>2020-06-23T14:10:36Z</time>
      </trkpt>
      <trkpt lat="51.00437" lon="2.62599">
        <ele>5.3</ele>
        <time>2020-06-23T14:10:37Z</time>
      </trkpt>
      <trkpt lat="51.00436" lon="2.62608">
        <ele>5.4</ele>
        <time>2020-06-23T14:10:38Z</time>
      </trkpt>
      <trkpt lat="51.00435" lon="2.62617">
        <ele>5.4</ele>
        <time>2020-06-23T14:10:39Z</time>
      </trkpt>
      <trkpt lat="51.00434" lon="2.62626">
        <ele>5.4</ele>
        <time>2020-06-23T14:10:40Z</time>
      </trkpt>
      <trkpt lat="51.00433" lon="2.62636">
        <ele>5.4</ele>
        <time>2020-06-23T14:10:41Z</time>
      </trkpt>
      <trkpt lat="51.00432" lon="2.62645">
        <ele>5.4</ele>
        <time>2020-06-23T14:10:42Z</time>
      </trkpt>
      <trkpt lat="51.00431" lon="2.62654">
        <ele>5.4</ele>
        <time>2020-06-23T14:10:43Z</time>
      </trkpt>
      <trkpt lat="51.0043" lon="2.62664">
        <ele>5.4</ele>
        <time>2020-06-23T14:10:44Z</time>
      </trkpt>
      <trkpt lat="51.00429" lon="2.62674">
        <ele>5.5</ele>
        <time>2020-06-23T14:10:45Z</time>
      </trkpt>
      <trkpt lat="51.00428" lon="2.62683">
        <ele>5.5</ele>
        <time>2020-06-23T14:10:46Z</time>
      </trkpt>
      <trkpt lat="51.00427" lon="2.62693">
        <ele>5.5</ele>
        <time>2020-06-23T14:10:47Z</time>
      </trkpt>
      <trkpt lat="51.00427" lon="2.62703">
        <ele>5.5</ele>
        <time>2020-06-23T14:10:48Z</time>
      </trkpt>
      <trkpt lat="51.00426" lon="2.62713">
        <ele>5.6</ele>
        <time>2020-06-23T14:10:49Z</time>
      </trkpt>
      <trkpt lat="51.00426" lon="2.62723">
        <ele>5.6</ele>
        <time>2020-06-23T14:10:50Z</time>
      </trkpt>
      <trkpt lat="51.00425" lon="2.62735">
        <ele>5.7</ele>
        <time>2020-06-23T14:10:51Z</time>
      </trkpt>
      <trkpt lat="51.00424" lon="2.62744">
        <ele>5.7</ele>
        <time>2020-06-23T14:10:52Z</time>
      </trkpt>
      <trkpt lat="51.00424" lon="2.62754">
        <ele>5.8</ele>
        <time>2020-06-23T14:10:53Z</time>
      </trkpt>
      <trkpt lat="51.00423" lon="2.62765">
        <ele>5.9</ele>
        <time>2020-06-23T14:10:54Z</time>
      </trkpt>
      <trkpt lat="51.00422" lon="2.62775">
        <ele>6</ele>
        <time>2020-06-23T14:10:55Z</time>
      </trkpt>
      <trkpt lat="51.00422" lon="2.62784">
        <ele>6.1</ele>
        <time>2020-06-23T14:10:56Z</time>
      </trkpt>
      <trkpt lat="51.00421" lon="2.62791">
        <ele>6.2</ele>
        <time>2020-06-23T14:10:57Z</time>
      </trkpt>
      <trkpt lat="51.0042" lon="2.62797">
        <ele>6.3</ele>
        <time>2020-06-23T14:10:58Z</time>
      </trkpt>
      <trkpt lat="51.00418" lon="2.62806">
        <ele>6.4</ele>
        <time>2020-06-23T14:10:59Z</time>
      </trkpt>
      <trkpt lat="51.00417" lon="2.62818">
        <ele>6.5</ele>
        <time>2020-06-23T14:11:00Z</time>
      </trkpt>
      <trkpt lat="51.00416" lon="2.62828">
        <ele>6.4</ele>
        <time>2020-06-23T14:11:01Z</time>
      </trkpt>
      <trkpt lat="51.00414" lon="2.62838">
        <ele>6.3</ele>
        <time>2020-06-23T14:11:02Z</time>
      </trkpt>
      <trkpt lat="51.00412" lon="2.62847">
        <ele>6.3</ele>
        <time>2020-06-23T14:11:03Z</time>
      </trkpt>
      <trkpt lat="51.0041" lon="2.62858">
        <ele>6.2</ele>
        <time>2020-06-23T14:11:04Z</time>
      </trkpt>
      <trkpt lat="51.00408" lon="2.62866">
        <ele>6.1</ele>
        <time>2020-06-23T14:11:05Z</time>
      </trkpt>
      <trkpt lat="51.00407" lon="2.62876">
        <ele>6.1</ele>
        <time>2020-06-23T14:11:06Z</time>
      </trkpt>
      <trkpt lat="51.00405" lon="2.62886">
        <ele>6</ele>
        <time>2020-06-23T14:11:07Z</time>
      </trkpt>
      <trkpt lat="51.00403" lon="2.62895">
        <ele>6</ele>
        <time>2020-06-23T14:11:08Z</time>
      </trkpt>
      <trkpt lat="51.00401" lon="2.62905">
        <ele>6</ele>
        <time>2020-06-23T14:11:09Z</time>
      </trkpt>
      <trkpt lat="51.004" lon="2.62915">
        <ele>6</ele>
        <time>2020-06-23T14:11:10Z</time>
      </trkpt>
      <trkpt lat="51.00399" lon="2.62924">
        <ele>5.9</ele>
        <time>2020-06-23T14:11:11Z</time>
      </trkpt>
      <trkpt lat="51.00397" lon="2.62934">
        <ele>5.9</ele>
        <time>2020-06-23T14:11:12Z</time>
      </trkpt>
      <trkpt lat="51.00396" lon="2.62942">
        <ele>5.9</ele>
        <time>2020-06-23T14:11:13Z</time>
      </trkpt>
      <trkpt lat="51.00395" lon="2.62951">
        <ele>5.8</ele>
        <time>2020-06-23T14:11:14Z</time>
      </trkpt>
      <trkpt lat="51.00394" lon="2.62961">
        <ele>5.8</ele>
        <time>2020-06-23T14:11:15Z</time>
      </trkpt>
      <trkpt lat="51.00392" lon="2.62971">
        <ele>5.8</ele>
        <time>2020-06-23T14:11:16Z</time>
      </trkpt>
      <trkpt lat="51.00389" lon="2.62982">
        <ele>5.8</ele>
        <time>2020-06-23T14:11:17Z</time>
      </trkpt>
      <trkpt lat="51.00387" lon="2.62991">
        <ele>5.8</ele>
        <time>2020-06-23T14:11:18Z</time>
      </trkpt>
      <trkpt lat="51.00386" lon="2.63001">
        <ele>5.8</ele>
        <time>2020-06-23T14:11:19Z</time>
      </trkpt>
      <trkpt lat="51.00384" lon="2.63011">
        <ele>5.7</ele>
        <time>2020-06-23T14:11:20Z</time>
      </trkpt>
      <trkpt lat="51.00383" lon="2.63021">
        <ele>5.7</ele>
        <time>2020-06-23T14:11:21Z</time>
      </trkpt>
      <trkpt lat="51.00382" lon="2.63031">
        <ele>5.7</ele>
        <time>2020-06-23T14:11:22Z</time>
      </trkpt>
      <trkpt lat="51.00381" lon="2.6304">
        <ele>5.7</ele>
        <time>2020-06-23T14:11:23Z</time>
      </trkpt>
      <trkpt lat="51.00379" lon="2.63049">
        <ele>5.7</ele>
        <time>2020-06-23T14:11:24Z</time>
      </trkpt>
      <trkpt lat="51.00377" lon="2.63059">
        <ele>5.6</ele>
        <time>2020-06-23T14:11:25Z</time>
      </trkpt>
      <trkpt lat="51.00375" lon="2.63068">
        <ele>5.6</ele>
        <time>2020-06-23T14:11:26Z</time>
      </trkpt>
      <trkpt lat="51.00373" lon="2.63078">
        <ele>5.6</ele>
        <time>2020-06-23T14:11:27Z</time>
      </trkpt>
      <trkpt lat="51.00372" lon="2.63088">
        <ele>5.6</ele>
        <time>2020-06-23T14:11:28Z</time>
      </trkpt>
      <trkpt lat="51.0037" lon="2.63098">
        <ele>5.6</ele>
        <time>2020-06-23T14:11:29Z</time>
      </trkpt>
      <trkpt lat="51.00368" lon="2.63107">
        <ele>5.6</ele>
        <time>2020-06-23T14:11:30Z</time>
      </trkpt>
      <trkpt lat="51.00367" lon="2.63116">
        <ele>5.5</ele>
        <time>2020-06-23T14:11:31Z</time>
      </trkpt>
      <trkpt lat="51.00365" lon="2.63126">
        <ele>5.5</ele>
        <time>2020-06-23T14:11:32Z</time>
      </trkpt>
      <trkpt lat="51.00363" lon="2.63136">
        <ele>5.5</ele>
        <time>2020-06-23T14:11:33Z</time>
      </trkpt>
      <trkpt lat="51.00362" lon="2.63145">
        <ele>5.5</ele>
        <time>2020-06-23T14:11:34Z</time>
      </trkpt>
      <trkpt lat="51.00361" lon="2.63155">
        <ele>5.5</ele>
        <time>2020-06-23T14:11:35Z</time>
      </trkpt>
      <trkpt lat="51.00359" lon="2.63165">
        <ele>5.4</ele>
        <time>2020-06-23T14:11:36Z</time>
      </trkpt>
      <trkpt lat="51.00358" lon="2.63174">
        <ele>5.4</ele>
        <time>2020-06-23T14:11:37Z</time>
      </trkpt>
      <trkpt lat="51.00356" lon="2.63184">
        <ele>5.3</ele>
        <time>2020-06-23T14:11:38Z</time>
      </trkpt>
      <trkpt lat="51.00354" lon="2.63194">
        <ele>5.3</ele>
        <time>2020-06-23T14:11:39Z</time>
      </trkpt>
      <trkpt lat="51.00353" lon="2.63204">
        <ele>5.2</ele>
        <time>2020-06-23T14:11:40Z</time>
      </trkpt>
      <trkpt lat="51.00351" lon="2.63211">
        <ele>5.2</ele>
        <time>2020-06-23T14:11:41Z</time>
      </trkpt>
      <trkpt lat="51.00349" lon="2.63222">
        <ele>5.2</ele>
        <time>2020-06-23T14:11:42Z</time>
      </trkpt>
      <trkpt lat="51.00347" lon="2.63232">
        <ele>5.2</ele>
        <time>2020-06-23T14:11:43Z</time>
      </trkpt>
      <trkpt lat="51.00346" lon="2.63242">
        <ele>5.2</ele>
        <time>2020-06-23T14:11:44Z</time>
      </trkpt>
      <trkpt lat="51.00345" lon="2.6325">
        <ele>5.2</ele>
        <time>2020-06-23T14:11:45Z</time>
      </trkpt>
      <trkpt lat="51.00343" lon="2.6326">
        <ele>5.2</ele>
        <time>2020-06-23T14:11:46Z</time>
      </trkpt>
      <trkpt lat="51.00342" lon="2.6327">
        <ele>5.3</ele>
        <time>2020-06-23T14:11:47Z</time>
      </trkpt>
      <trkpt lat="51.0034" lon="2.63279">
        <ele>5.3</ele>
        <time>2020-06-23T14:11:48Z</time>
      </trkpt>
      <trkpt lat="51.00338" lon="2.63289">
        <ele>5.3</ele>
        <time>2020-06-23T14:11:49Z</time>
      </trkpt>
      <trkpt lat="51.00336" lon="2.63299">
        <ele>5.3</ele>
        <time>2020-06-23T14:11:50Z</time>
      </trkpt>
      <trkpt lat="51.00334" lon="2.63308">
        <ele>5.3</ele>
        <time>2020-06-23T14:11:51Z</time>
      </trkpt>
      <trkpt lat="51.00333" lon="2.63318">
        <ele>5.4</ele>
        <time>2020-06-23T14:11:52Z</time>
      </trkpt>
      <trkpt lat="51.00331" lon="2.63328">
        <ele>5.4</ele>
        <time>2020-06-23T14:11:53Z</time>
      </trkpt>
      <trkpt lat="51.00331" lon="2.63338">
        <ele>5.4</ele>
        <time>2020-06-23T14:11:54Z</time>
      </trkpt>
      <trkpt lat="51.00331" lon="2.63348">
        <ele>5.4</ele>
        <time>2020-06-23T14:11:55Z</time>
      </trkpt>
      <trkpt lat="51.00331" lon="2.63358">
        <ele>5.5</ele>
        <time>2020-06-23T14:11:56Z</time>
      </trkpt>
      <trkpt lat="51.00332" lon="2.63367">
        <ele>5.6</ele>
        <time>2020-06-23T14:11:57Z</time>
      </trkpt>
      <trkpt lat="51.00333" lon="2.63376">
        <ele>5.7</ele>
        <time>2020-06-23T14:11:58Z</time>
      </trkpt>
      <trkpt lat="51.00334" lon="2.63385">
        <ele>5.7</ele>
        <time>2020-06-23T14:11:59Z</time>
      </trkpt>
      <trkpt lat="51.00336" lon="2.63394">
        <ele>5.8</ele>
        <time>2020-06-23T14:12:00Z</time>
      </trkpt>
      <trkpt lat="51.00339" lon="2.63401">
        <ele>5.9</ele>
        <time>2020-06-23T14:12:01Z</time>
      </trkpt>
      <trkpt lat="51.00341" lon="2.63409">
        <ele>5.9</ele>
        <time>2020-06-23T14:12:02Z</time>
      </trkpt>
      <trkpt lat="51.00344" lon="2.63417">
        <ele>6</ele>
        <time>2020-06-23T14:12:03Z</time>
      </trkpt>
      <trkpt lat="51.00348" lon="2.63424">
        <ele>6</ele>
        <time>2020-06-23T14:12:04Z</time>
      </trkpt>
      <trkpt lat="51.00352" lon="2.63432">
        <ele>6.1</ele>
        <time>2020-06-23T14:12:05Z</time>
      </trkpt>
      <trkpt lat="51.00356" lon="2.6344">
        <ele>6.2</ele>
        <time>2020-06-23T14:12:06Z</time>
      </trkpt>
      <trkpt lat="51.00358" lon="2.63445">
        <ele>6.2</ele>
        <time>2020-06-23T14:12:07Z</time>
      </trkpt>
      <trkpt lat="51.00361" lon="2.63452">
        <ele>6.3</ele>
        <time>2020-06-23T14:12:08Z</time>
      </trkpt>
      <trkpt lat="51.00364" lon="2.63458">
        <ele>6.4</ele>
        <time>2020-06-23T14:12:09Z</time>
      </trkpt>
      <trkpt lat="51.00367" lon="2.63464">
        <ele>6.4</ele>
        <time>2020-06-23T14:12:10Z</time>
      </trkpt>
      <trkpt lat="51.00369" lon="2.6347">
        <ele>6.5</ele>
        <time>2020-06-23T14:12:11Z</time>
      </trkpt>
      <trkpt lat="51.00372" lon="2.63475">
        <ele>6.6</ele>
        <time>2020-06-23T14:12:12Z</time>
      </trkpt>
      <trkpt lat="51.00374" lon="2.63481">
        <ele>6.6</ele>
        <time>2020-06-23T14:12:13Z</time>
      </trkpt>
      <trkpt lat="51.00376" lon="2.63486">
        <ele>6.7</ele>
        <time>2020-06-23T14:12:14Z</time>
      </trkpt>
      <trkpt lat="51.00378" lon="2.63493">
        <ele>6.8</ele>
        <time>2020-06-23T14:12:15Z</time>
      </trkpt>
      <trkpt lat="51.00379" lon="2.63496">
        <ele>6.8</ele>
        <time>2020-06-23T14:12:16Z</time>
      </trkpt>
      <trkpt lat="51.00379" lon="2.63498">
        <ele>6.9</ele>
        <time>2020-06-23T14:12:17Z</time>
      </trkpt>
      <trkpt lat="51.00379" lon="2.63501">
        <ele>6.9</ele>
        <time>2020-06-23T14:12:18Z</time>
      </trkpt>
      <trkpt lat="51.00375" lon="2.63503">
        <ele>7</ele>
        <time>2020-06-23T14:12:19Z</time>
      </trkpt>
      <trkpt lat="51.0037" lon="2.63505">
        <ele>6.9</ele>
        <time>2020-06-23T14:12:20Z</time>
      </trkpt>
      <trkpt lat="51.00364" lon="2.63507">
        <ele>6.9</ele>
        <time>2020-06-23T14:12:21Z</time>
      </trkpt>
      <trkpt lat="51.00359" lon="2.63508">
        <ele>6.8</ele>
        <time>2020-06-23T14:12:22Z</time>
      </trkpt>
      <trkpt lat="51.00354" lon="2.6351">
        <ele>6.8</ele>
        <time>2020-06-23T14:12:23Z</time>
      </trkpt>
      <trkpt lat="51.00349" lon="2.63512">
        <ele>6.7</ele>
        <time>2020-06-23T14:12:24Z</time>
      </trkpt>
      <trkpt lat="51.00343" lon="2.63515">
        <ele>6.7</ele>
        <time>2020-06-23T14:12:25Z</time>
      </trkpt>
      <trkpt lat="51.00337" lon="2.63518">
        <ele>6.7</ele>
        <time>2020-06-23T14:12:26Z</time>
      </trkpt>
      <trkpt lat="51.00333" lon="2.63519">
        <ele>6.8</ele>
        <time>2020-06-23T14:12:27Z</time>
      </trkpt>
      <trkpt lat="51.00328" lon="2.63521">
        <ele>6.8</ele>
        <time>2020-06-23T14:12:28Z</time>
      </trkpt>
      <trkpt lat="51.00324" lon="2.63523">
        <ele>6.8</ele>
        <time>2020-06-23T14:12:29Z</time>
      </trkpt>
      <trkpt lat="51.0032" lon="2.63524">
        <ele>6.9</ele>
        <time>2020-06-23T14:12:30Z</time>
      </trkpt>
      <trkpt lat="51.00315" lon="2.63527">
        <ele>6.9</ele>
        <time>2020-06-23T14:12:31Z</time>
      </trkpt>
      <trkpt lat="51.00311" lon="2.63529">
        <ele>7</ele>
        <time>2020-06-23T14:12:32Z</time>
      </trkpt>
      <trkpt lat="51.00306" lon="2.63531">
        <ele>7.1</ele>
        <time>2020-06-23T14:12:33Z</time>
      </trkpt>
      <trkpt lat="51.00302" lon="2.63533">
        <ele>7.2</ele>
        <time>2020-06-23T14:12:34Z</time>
      </trkpt>
      <trkpt lat="51.00296" lon="2.63537">
        <ele>7.3</ele>
        <time>2020-06-23T14:12:35Z</time>
      </trkpt>
      <trkpt lat="51.00291" lon="2.63543">
        <ele>7.3</ele>
        <time>2020-06-23T14:12:36Z</time>
      </trkpt>
      <trkpt lat="51.00287" lon="2.63548">
        <ele>7.3</ele>
        <time>2020-06-23T14:12:37Z</time>
      </trkpt>
      <trkpt lat="51.00283" lon="2.63552">
        <ele>7.2</ele>
        <time>2020-06-23T14:12:38Z</time>
      </trkpt>
      <trkpt lat="51.0028" lon="2.63559">
        <ele>7.1</ele>
        <time>2020-06-23T14:12:39Z</time>
      </trkpt>
      <trkpt lat="51.00281" lon="2.63567">
        <ele>7.1</ele>
        <time>2020-06-23T14:12:40Z</time>
      </trkpt>
      <trkpt lat="51.00281" lon="2.63576">
        <ele>7.1</ele>
        <time>2020-06-23T14:12:41Z</time>
      </trkpt>
      <trkpt lat="51.00281" lon="2.63584">
        <ele>7.1</ele>
        <time>2020-06-23T14:12:42Z</time>
      </trkpt>
      <trkpt lat="51.00279" lon="2.63591">
        <ele>7</ele>
        <time>2020-06-23T14:12:43Z</time>
      </trkpt>
      <trkpt lat="51.00279" lon="2.63599">
        <ele>7</ele>
        <time>2020-06-23T14:12:44Z</time>
      </trkpt>
      <trkpt lat="51.00278" lon="2.63608">
        <ele>7</ele>
        <time>2020-06-23T14:12:45Z</time>
      </trkpt>
      <trkpt lat="51.00277" lon="2.63615">
        <ele>7</ele>
        <time>2020-06-23T14:12:46Z</time>
      </trkpt>
      <trkpt lat="51.00276" lon="2.63623">
        <ele>7</ele>
        <time>2020-06-23T14:12:47Z</time>
      </trkpt>
      <trkpt lat="51.00275" lon="2.63631">
        <ele>6.9</ele>
        <time>2020-06-23T14:12:48Z</time>
      </trkpt>
      <trkpt lat="51.00273" lon="2.63641">
        <ele>7</ele>
        <time>2020-06-23T14:12:49Z</time>
      </trkpt>
      <trkpt lat="51.00272" lon="2.63651">
        <ele>7</ele>
        <time>2020-06-23T14:12:50Z</time>
      </trkpt>
      <trkpt lat="51.00271" lon="2.63658">
        <ele>7</ele>
        <time>2020-06-23T14:12:51Z</time>
      </trkpt>
      <trkpt lat="51.00269" lon="2.63664">
        <ele>7</ele>
        <time>2020-06-23T14:12:52Z</time>
      </trkpt>
      <trkpt lat="51.00268" lon="2.63672">
        <ele>7</ele>
        <time>2020-06-23T14:12:53Z</time>
      </trkpt>
      <trkpt lat="51.00266" lon="2.6368">
        <ele>7</ele>
        <time>2020-06-23T14:12:54Z</time>
      </trkpt>
      <trkpt lat="51.00264" lon="2.63688">
        <ele>7</ele>
        <time>2020-06-23T14:12:55Z</time>
      </trkpt>
      <trkpt lat="51.00262" lon="2.63696">
        <ele>7</ele>
        <time>2020-06-23T14:12:56Z</time>
      </trkpt>
      <trkpt lat="51.0026" lon="2.63707">
        <ele>7</ele>
        <time>2020-06-23T14:12:57Z</time>
      </trkpt>
      <trkpt lat="51.00258" lon="2.63715">
        <ele>7</ele>
        <time>2020-06-23T14:12:58Z</time>
      </trkpt>
      <trkpt lat="51.00256" lon="2.63722">
        <ele>7</ele>
        <time>2020-06-23T14:12:59Z</time>
      </trkpt>
      <trkpt lat="51.00254" lon="2.6373">
        <ele>7.1</ele>
        <time>2020-06-23T14:13:00Z</time>
      </trkpt>
      <trkpt lat="51.00253" lon="2.63739">
        <ele>7.1</ele>
        <time>2020-06-23T14:13:01Z</time>
      </trkpt>
      <trkpt lat="51.0025" lon="2.63748">
        <ele>7.2</ele>
        <time>2020-06-23T14:13:02Z</time>
      </trkpt>
      <trkpt lat="51.00248" lon="2.63755">
        <ele>7.2</ele>
        <time>2020-06-23T14:13:03Z</time>
      </trkpt>
      <trkpt lat="51.00245" lon="2.63763">
        <ele>7.3</ele>
        <time>2020-06-23T14:13:04Z</time>
      </trkpt>
      <trkpt lat="51.00242" lon="2.63771">
        <ele>7.3</ele>
        <time>2020-06-23T14:13:05Z</time>
      </trkpt>
      <trkpt lat="51.0024" lon="2.63779">
        <ele>7.3</ele>
        <time>2020-06-23T14:13:06Z</time>
      </trkpt>
      <trkpt lat="51.00237" lon="2.63788">
        <ele>7.4</ele>
        <time>2020-06-23T14:13:07Z</time>
      </trkpt>
      <trkpt lat="51.00234" lon="2.63797">
        <ele>7.4</ele>
        <time>2020-06-23T14:13:08Z</time>
      </trkpt>
      <trkpt lat="51.00232" lon="2.63806">
        <ele>7.4</ele>
        <time>2020-06-23T14:13:09Z</time>
      </trkpt>
      <trkpt lat="51.0023" lon="2.63815">
        <ele>7.3</ele>
        <time>2020-06-23T14:13:10Z</time>
      </trkpt>
      <trkpt lat="51.00228" lon="2.63823">
        <ele>7.3</ele>
        <time>2020-06-23T14:13:11Z</time>
      </trkpt>
      <trkpt lat="51.00225" lon="2.63832">
        <ele>7.3</ele>
        <time>2020-06-23T14:13:12Z</time>
      </trkpt>
      <trkpt lat="51.00222" lon="2.63842">
        <ele>7.3</ele>
        <time>2020-06-23T14:13:13Z</time>
      </trkpt>
      <trkpt lat="51.0022" lon="2.63849">
        <ele>7.3</ele>
        <time>2020-06-23T14:13:14Z</time>
      </trkpt>
      <trkpt lat="51.00218" lon="2.63859">
        <ele>7.3</ele>
        <time>2020-06-23T14:13:15Z</time>
      </trkpt>
      <trkpt lat="51.00216" lon="2.63868">
        <ele>7.3</ele>
        <time>2020-06-23T14:13:16Z</time>
      </trkpt>
      <trkpt lat="51.00214" lon="2.63878">
        <ele>7.3</ele>
        <time>2020-06-23T14:13:17Z</time>
      </trkpt>
      <trkpt lat="51.00212" lon="2.63887">
        <ele>7.4</ele>
        <time>2020-06-23T14:13:18Z</time>
      </trkpt>
      <trkpt lat="51.0021" lon="2.63896">
        <ele>7.5</ele>
        <time>2020-06-23T14:13:19Z</time>
      </trkpt>
      <trkpt lat="51.00209" lon="2.63906">
        <ele>7.5</ele>
        <time>2020-06-23T14:13:20Z</time>
      </trkpt>
      <trkpt lat="51.00207" lon="2.63915">
        <ele>7.6</ele>
        <time>2020-06-23T14:13:21Z</time>
      </trkpt>
      <trkpt lat="51.00205" lon="2.63924">
        <ele>7.7</ele>
        <time>2020-06-23T14:13:22Z</time>
      </trkpt>
      <trkpt lat="51.00203" lon="2.63934">
        <ele>7.7</ele>
        <time>2020-06-23T14:13:23Z</time>
      </trkpt>
      <trkpt lat="51.00202" lon="2.63942">
        <ele>7.7</ele>
        <time>2020-06-23T14:13:24Z</time>
      </trkpt>
      <trkpt lat="51.00201" lon="2.63951">
        <ele>7.8</ele>
        <time>2020-06-23T14:13:25Z</time>
      </trkpt>
      <trkpt lat="51.00198" lon="2.6396">
        <ele>7.8</ele>
        <time>2020-06-23T14:13:26Z</time>
      </trkpt>
      <trkpt lat="51.00196" lon="2.63974">
        <ele>7.8</ele>
        <time>2020-06-23T14:13:27Z</time>
      </trkpt>
      <trkpt lat="51.00195" lon="2.63983">
        <ele>7.8</ele>
        <time>2020-06-23T14:13:28Z</time>
      </trkpt>
      <trkpt lat="51.00193" lon="2.63991">
        <ele>7.8</ele>
        <time>2020-06-23T14:13:29Z</time>
      </trkpt>
      <trkpt lat="51.00191" lon="2.63999">
        <ele>7.8</ele>
        <time>2020-06-23T14:13:30Z</time>
      </trkpt>
      <trkpt lat="51.0019" lon="2.64007">
        <ele>7.8</ele>
        <time>2020-06-23T14:13:31Z</time>
      </trkpt>
      <trkpt lat="51.00189" lon="2.64015">
        <ele>7.8</ele>
        <time>2020-06-23T14:13:32Z</time>
      </trkpt>
      <trkpt lat="51.00187" lon="2.64024">
        <ele>7.8</ele>
        <time>2020-06-23T14:13:33Z</time>
      </trkpt>
      <trkpt lat="51.00186" lon="2.64033">
        <ele>7.8</ele>
        <time>2020-06-23T14:13:34Z</time>
      </trkpt>
      <trkpt lat="51.00185" lon="2.6404">
        <ele>7.8</ele>
        <time>2020-06-23T14:13:35Z</time>
      </trkpt>
      <trkpt lat="51.00184" lon="2.64049">
        <ele>7.8</ele>
        <time>2020-06-23T14:13:36Z</time>
      </trkpt>
      <trkpt lat="51.00183" lon="2.64057">
        <ele>7.9</ele>
        <time>2020-06-23T14:13:37Z</time>
      </trkpt>
      <trkpt lat="51.00181" lon="2.64066">
        <ele>7.9</ele>
        <time>2020-06-23T14:13:38Z</time>
      </trkpt>
      <trkpt lat="51.0018" lon="2.64074">
        <ele>7.9</ele>
        <time>2020-06-23T14:13:39Z</time>
      </trkpt>
      <trkpt lat="51.00179" lon="2.64083">
        <ele>7.9</ele>
        <time>2020-06-23T14:13:40Z</time>
      </trkpt>
      <trkpt lat="51.00178" lon="2.64091">
        <ele>7.9</ele>
        <time>2020-06-23T14:13:41Z</time>
      </trkpt>
      <trkpt lat="51.00176" lon="2.641">
        <ele>7.9</ele>
        <time>2020-06-23T14:13:42Z</time>
      </trkpt>
      <trkpt lat="51.00175" lon="2.64109">
        <ele>7.9</ele>
        <time>2020-06-23T14:13:43Z</time>
      </trkpt>
      <trkpt lat="51.00173" lon="2.64118">
        <ele>8</ele>
        <time>2020-06-23T14:13:44Z</time>
      </trkpt>
      <trkpt lat="51.00171" lon="2.64127">
        <ele>8</ele>
        <time>2020-06-23T14:13:45Z</time>
      </trkpt>
      <trkpt lat="51.00169" lon="2.64136">
        <ele>8</ele>
        <time>2020-06-23T14:13:46Z</time>
      </trkpt>
      <trkpt lat="51.00168" lon="2.64146">
        <ele>8</ele>
        <time>2020-06-23T14:13:47Z</time>
      </trkpt>
      <trkpt lat="51.00166" lon="2.64153">
        <ele>8</ele>
        <time>2020-06-23T14:13:48Z</time>
      </trkpt>
      <trkpt lat="51.00165" lon="2.64163">
        <ele>8</ele>
        <time>2020-06-23T14:13:49Z</time>
      </trkpt>
      <trkpt lat="51.00163" lon="2.64172">
        <ele>8</ele>
        <time>2020-06-23T14:13:50Z</time>
      </trkpt>
      <trkpt lat="51.00162" lon="2.6418">
        <ele>8</ele>
        <time>2020-06-23T14:13:51Z</time>
      </trkpt>
      <trkpt lat="51.00161" lon="2.64188">
        <ele>8</ele>
        <time>2020-06-23T14:13:52Z</time>
      </trkpt>
      <trkpt lat="51.0016" lon="2.64196">
        <ele>8.1</ele>
        <time>2020-06-23T14:13:53Z</time>
      </trkpt>
      <trkpt lat="51.00159" lon="2.64206">
        <ele>8.1</ele>
        <time>2020-06-23T14:13:54Z</time>
      </trkpt>
      <trkpt lat="51.00159" lon="2.64215">
        <ele>8.1</ele>
        <time>2020-06-23T14:13:55Z</time>
      </trkpt>
      <trkpt lat="51.00158" lon="2.64223">
        <ele>8.1</ele>
        <time>2020-06-23T14:13:56Z</time>
      </trkpt>
      <trkpt lat="51.00156" lon="2.64233">
        <ele>8.1</ele>
        <time>2020-06-23T14:13:57Z</time>
      </trkpt>
      <trkpt lat="51.00155" lon="2.64241">
        <ele>8.2</ele>
        <time>2020-06-23T14:13:58Z</time>
      </trkpt>
      <trkpt lat="51.00153" lon="2.64249">
        <ele>8.2</ele>
        <time>2020-06-23T14:13:59Z</time>
      </trkpt>
      <trkpt lat="51.00151" lon="2.64258">
        <ele>8.2</ele>
        <time>2020-06-23T14:14:00Z</time>
      </trkpt>
      <trkpt lat="51.00149" lon="2.64266">
        <ele>8.2</ele>
        <time>2020-06-23T14:14:01Z</time>
      </trkpt>
      <trkpt lat="51.00146" lon="2.64274">
        <ele>8.3</ele>
        <time>2020-06-23T14:14:02Z</time>
      </trkpt>
      <trkpt lat="51.00143" lon="2.64283">
        <ele>8.4</ele>
        <time>2020-06-23T14:14:03Z</time>
      </trkpt>
      <trkpt lat="51.0014" lon="2.64293">
        <ele>8.4</ele>
        <time>2020-06-23T14:14:04Z</time>
      </trkpt>
      <trkpt lat="51.00138" lon="2.64302">
        <ele>8.4</ele>
        <time>2020-06-23T14:14:05Z</time>
      </trkpt>
      <trkpt lat="51.00136" lon="2.64311">
        <ele>8.4</ele>
        <time>2020-06-23T14:14:06Z</time>
      </trkpt>
      <trkpt lat="51.00134" lon="2.6432">
        <ele>8.4</ele>
        <time>2020-06-23T14:14:07Z</time>
      </trkpt>
      <trkpt lat="51.00133" lon="2.64326">
        <ele>8.4</ele>
        <time>2020-06-23T14:14:08Z</time>
      </trkpt>
      <trkpt lat="51.00131" lon="2.64334">
        <ele>8.4</ele>
        <time>2020-06-23T14:14:09Z</time>
      </trkpt>
      <trkpt lat="51.00129" lon="2.64343">
        <ele>8.4</ele>
        <time>2020-06-23T14:14:10Z</time>
      </trkpt>
      <trkpt lat="51.00127" lon="2.64351">
        <ele>8.4</ele>
        <time>2020-06-23T14:14:11Z</time>
      </trkpt>
      <trkpt lat="51.00124" lon="2.64361">
        <ele>8.4</ele>
        <time>2020-06-23T14:14:12Z</time>
      </trkpt>
      <trkpt lat="51.00122" lon="2.6437">
        <ele>8.4</ele>
        <time>2020-06-23T14:14:13Z</time>
      </trkpt>
      <trkpt lat="51.00119" lon="2.64377">
        <ele>8.4</ele>
        <time>2020-06-23T14:14:14Z</time>
      </trkpt>
      <trkpt lat="51.00117" lon="2.64385">
        <ele>8.3</ele>
        <time>2020-06-23T14:14:15Z</time>
      </trkpt>
      <trkpt lat="51.00116" lon="2.64393">
        <ele>8.3</ele>
        <time>2020-06-23T14:14:16Z</time>
      </trkpt>
      <trkpt lat="51.00114" lon="2.64401">
        <ele>8.3</ele>
        <time>2020-06-23T14:14:17Z</time>
      </trkpt>
      <trkpt lat="51.00111" lon="2.6441">
        <ele>8.3</ele>
        <time>2020-06-23T14:14:18Z</time>
      </trkpt>
      <trkpt lat="51.00109" lon="2.6442">
        <ele>8.3</ele>
        <time>2020-06-23T14:14:19Z</time>
      </trkpt>
      <trkpt lat="51.00106" lon="2.6443">
        <ele>8.3</ele>
        <time>2020-06-23T14:14:20Z</time>
      </trkpt>
      <trkpt lat="51.00104" lon="2.6444">
        <ele>8.3</ele>
        <time>2020-06-23T14:14:21Z</time>
      </trkpt>
      <trkpt lat="51.00102" lon="2.64447">
        <ele>8.3</ele>
        <time>2020-06-23T14:14:22Z</time>
      </trkpt>
      <trkpt lat="51.00099" lon="2.64456">
        <ele>8.2</ele>
        <time>2020-06-23T14:14:23Z</time>
      </trkpt>
      <trkpt lat="51.00096" lon="2.64464">
        <ele>8.2</ele>
        <time>2020-06-23T14:14:24Z</time>
      </trkpt>
      <trkpt lat="51.00094" lon="2.64476">
        <ele>8.2</ele>
        <time>2020-06-23T14:14:25Z</time>
      </trkpt>
      <trkpt lat="51.00091" lon="2.64484">
        <ele>8.2</ele>
        <time>2020-06-23T14:14:26Z</time>
      </trkpt>
      <trkpt lat="51.00089" lon="2.64493">
        <ele>8.2</ele>
        <time>2020-06-23T14:14:27Z</time>
      </trkpt>
      <trkpt lat="51.00087" lon="2.64502">
        <ele>8.2</ele>
        <time>2020-06-23T14:14:28Z</time>
      </trkpt>
      <trkpt lat="51.00084" lon="2.64511">
        <ele>8.2</ele>
        <time>2020-06-23T14:14:29Z</time>
      </trkpt>
      <trkpt lat="51.00081" lon="2.64521">
        <ele>8.2</ele>
        <time>2020-06-23T14:14:30Z</time>
      </trkpt>
      <trkpt lat="51.00079" lon="2.64529">
        <ele>8.2</ele>
        <time>2020-06-23T14:14:31Z</time>
      </trkpt>
      <trkpt lat="51.00076" lon="2.64538">
        <ele>8.2</ele>
        <time>2020-06-23T14:14:32Z</time>
      </trkpt>
      <trkpt lat="51.00074" lon="2.64548">
        <ele>8.2</ele>
        <time>2020-06-23T14:14:33Z</time>
      </trkpt>
      <trkpt lat="51.00071" lon="2.64558">
        <ele>8.2</ele>
        <time>2020-06-23T14:14:34Z</time>
      </trkpt>
      <trkpt lat="51.00069" lon="2.64566">
        <ele>8.2</ele>
        <time>2020-06-23T14:14:35Z</time>
      </trkpt>
      <trkpt lat="51.00066" lon="2.64575">
        <ele>8.2</ele>
        <time>2020-06-23T14:14:36Z</time>
      </trkpt>
      <trkpt lat="51.00064" lon="2.64585">
        <ele>8.3</ele>
        <time>2020-06-23T14:14:37Z</time>
      </trkpt>
      <trkpt lat="51.00062" lon="2.64594">
        <ele>8.2</ele>
        <time>2020-06-23T14:14:38Z</time>
      </trkpt>
      <trkpt lat="51.00061" lon="2.64603">
        <ele>8.2</ele>
        <time>2020-06-23T14:14:39Z</time>
      </trkpt>
      <trkpt lat="51.00059" lon="2.64611">
        <ele>8.1</ele>
        <time>2020-06-23T14:14:40Z</time>
      </trkpt>
      <trkpt lat="51.00058" lon="2.6462">
        <ele>8.1</ele>
        <time>2020-06-23T14:14:41Z</time>
      </trkpt>
      <trkpt lat="51.00055" lon="2.64629">
        <ele>8</ele>
        <time>2020-06-23T14:14:42Z</time>
      </trkpt>
      <trkpt lat="51.00052" lon="2.64639">
        <ele>8</ele>
        <time>2020-06-23T14:14:43Z</time>
      </trkpt>
      <trkpt lat="51.0005" lon="2.64647">
        <ele>8</ele>
        <time>2020-06-23T14:14:44Z</time>
      </trkpt>
      <trkpt lat="51.00048" lon="2.64655">
        <ele>8</ele>
        <time>2020-06-23T14:14:45Z</time>
      </trkpt>
      <trkpt lat="51.00046" lon="2.64665">
        <ele>8.1</ele>
        <time>2020-06-23T14:14:46Z</time>
      </trkpt>
      <trkpt lat="51.00044" lon="2.64675">
        <ele>8.1</ele>
        <time>2020-06-23T14:14:47Z</time>
      </trkpt>
      <trkpt lat="51.00042" lon="2.64684">
        <ele>8.1</ele>
        <time>2020-06-23T14:14:48Z</time>
      </trkpt>
      <trkpt lat="51.00041" lon="2.64693">
        <ele>8.1</ele>
        <time>2020-06-23T14:14:49Z</time>
      </trkpt>
      <trkpt lat="51.0004" lon="2.64704">
        <ele>8.2</ele>
        <time>2020-06-23T14:14:50Z</time>
      </trkpt>
      <trkpt lat="51.0004" lon="2.64714">
        <ele>8.2</ele>
        <time>2020-06-23T14:14:51Z</time>
      </trkpt>
      <trkpt lat="51.0004" lon="2.64724">
        <ele>8.2</ele>
        <time>2020-06-23T14:14:52Z</time>
      </trkpt>
      <trkpt lat="51.00039" lon="2.64734">
        <ele>8.2</ele>
        <time>2020-06-23T14:14:53Z</time>
      </trkpt>
      <trkpt lat="51.00039" lon="2.64745">
        <ele>8.1</ele>
        <time>2020-06-23T14:14:54Z</time>
      </trkpt>
      <trkpt lat="51.00038" lon="2.64756">
        <ele>8.1</ele>
        <time>2020-06-23T14:14:55Z</time>
      </trkpt>
      <trkpt lat="51.00037" lon="2.64766">
        <ele>8.1</ele>
        <time>2020-06-23T14:14:56Z</time>
      </trkpt>
      <trkpt lat="51.00036" lon="2.64775">
        <ele>8.1</ele>
        <time>2020-06-23T14:14:57Z</time>
      </trkpt>
      <trkpt lat="51.00034" lon="2.64784">
        <ele>8.1</ele>
        <time>2020-06-23T14:14:58Z</time>
      </trkpt>
      <trkpt lat="51.00032" lon="2.64792">
        <ele>8.1</ele>
        <time>2020-06-23T14:14:59Z</time>
      </trkpt>
      <trkpt lat="51.0003" lon="2.64801">
        <ele>8.1</ele>
        <time>2020-06-23T14:15:00Z</time>
      </trkpt>
      <trkpt lat="51.00027" lon="2.6481">
        <ele>8.2</ele>
        <time>2020-06-23T14:15:01Z</time>
      </trkpt>
      <trkpt lat="51.00024" lon="2.64819">
        <ele>8.3</ele>
        <time>2020-06-23T14:15:02Z</time>
      </trkpt>
      <trkpt lat="51.00021" lon="2.64828">
        <ele>8.3</ele>
        <time>2020-06-23T14:15:03Z</time>
      </trkpt>
      <trkpt lat="51.00018" lon="2.64837">
        <ele>8.5</ele>
        <time>2020-06-23T14:15:04Z</time>
      </trkpt>
      <trkpt lat="51.00016" lon="2.64845">
        <ele>8.6</ele>
        <time>2020-06-23T14:15:05Z</time>
      </trkpt>
      <trkpt lat="51.00014" lon="2.64854">
        <ele>8.8</ele>
        <time>2020-06-23T14:15:06Z</time>
      </trkpt>
      <trkpt lat="51.00012" lon="2.64863">
        <ele>9</ele>
        <time>2020-06-23T14:15:07Z</time>
      </trkpt>
      <trkpt lat="51.00009" lon="2.64872">
        <ele>9</ele>
        <time>2020-06-23T14:15:08Z</time>
      </trkpt>
      <trkpt lat="51.00008" lon="2.64882">
        <ele>9.1</ele>
        <time>2020-06-23T14:15:09Z</time>
      </trkpt>
      <trkpt lat="51.00005" lon="2.64892">
        <ele>9.1</ele>
        <time>2020-06-23T14:15:10Z</time>
      </trkpt>
      <trkpt lat="51.00002" lon="2.649">
        <ele>9.1</ele>
        <time>2020-06-23T14:15:11Z</time>
      </trkpt>
      <trkpt lat="51" lon="2.64908">
        <ele>9.1</ele>
        <time>2020-06-23T14:15:12Z</time>
      </trkpt>
      <trkpt lat="50.99997" lon="2.64917">
        <ele>9.1</ele>
        <time>2020-06-23T14:15:13Z</time>
      </trkpt>
      <trkpt lat="50.99994" lon="2.64926">
        <ele>9.1</ele>
        <time>2020-06-23T14:15:14Z</time>
      </trkpt>
      <trkpt lat="50.99992" lon="2.64936">
        <ele>9</ele>
        <time>2020-06-23T14:15:15Z</time>
      </trkpt>
      <trkpt lat="50.99989" lon="2.64946">
        <ele>9</ele>
        <time>2020-06-23T14:15:16Z</time>
      </trkpt>
      <trkpt lat="50.99987" lon="2.64955">
        <ele>9</ele>
        <time>2020-06-23T14:15:17Z</time>
      </trkpt>
      <trkpt lat="50.99984" lon="2.64965">
        <ele>8.9</ele>
        <time>2020-06-23T14:15:18Z</time>
      </trkpt>
      <trkpt lat="50.99982" lon="2.64973">
        <ele>8.9</ele>
        <time>2020-06-23T14:15:19Z</time>
      </trkpt>
      <trkpt lat="50.99979" lon="2.64983">
        <ele>8.9</ele>
        <time>2020-06-23T14:15:20Z</time>
      </trkpt>
      <trkpt lat="50.99977" lon="2.64992">
        <ele>8.8</ele>
        <time>2020-06-23T14:15:21Z</time>
      </trkpt>
      <trkpt lat="50.99975" lon="2.65002">
        <ele>8.7</ele>
        <time>2020-06-23T14:15:22Z</time>
      </trkpt>
      <trkpt lat="50.99973" lon="2.65011">
        <ele>8.7</ele>
        <time>2020-06-23T14:15:23Z</time>
      </trkpt>
      <trkpt lat="50.9997" lon="2.65022">
        <ele>8.6</ele>
        <time>2020-06-23T14:15:24Z</time>
      </trkpt>
      <trkpt lat="50.99968" lon="2.65032">
        <ele>8.5</ele>
        <time>2020-06-23T14:15:25Z</time>
      </trkpt>
      <trkpt lat="50.99967" lon="2.65042">
        <ele>8.5</ele>
        <time>2020-06-23T14:15:26Z</time>
      </trkpt>
      <trkpt lat="50.99965" lon="2.65052">
        <ele>8.4</ele>
        <time>2020-06-23T14:15:27Z</time>
      </trkpt>
      <trkpt lat="50.99962" lon="2.65062">
        <ele>8.4</ele>
        <time>2020-06-23T14:15:28Z</time>
      </trkpt>
      <trkpt lat="50.9996" lon="2.65072">
        <ele>8.3</ele>
        <time>2020-06-23T14:15:29Z</time>
      </trkpt>
      <trkpt lat="50.99959" lon="2.65082">
        <ele>8.3</ele>
        <time>2020-06-23T14:15:30Z</time>
      </trkpt>
      <trkpt lat="50.99957" lon="2.65092">
        <ele>8.3</ele>
        <time>2020-06-23T14:15:31Z</time>
      </trkpt>
      <trkpt lat="50.99955" lon="2.65103">
        <ele>8.3</ele>
        <time>2020-06-23T14:15:32Z</time>
      </trkpt>
      <trkpt lat="50.99953" lon="2.65113">
        <ele>8.3</ele>
        <time>2020-06-23T14:15:33Z</time>
      </trkpt>
      <trkpt lat="50.99951" lon="2.65123">
        <ele>8.2</ele>
        <time>2020-06-23T14:15:34Z</time>
      </trkpt>
      <trkpt lat="50.99949" lon="2.65133">
        <ele>8.2</ele>
        <time>2020-06-23T14:15:35Z</time>
      </trkpt>
      <trkpt lat="50.99947" lon="2.65143">
        <ele>8.2</ele>
        <time>2020-06-23T14:15:36Z</time>
      </trkpt>
      <trkpt lat="50.99944" lon="2.65153">
        <ele>8.1</ele>
        <time>2020-06-23T14:15:37Z</time>
      </trkpt>
      <trkpt lat="50.99942" lon="2.65163">
        <ele>8.1</ele>
        <time>2020-06-23T14:15:38Z</time>
      </trkpt>
      <trkpt lat="50.9994" lon="2.65173">
        <ele>8.1</ele>
        <time>2020-06-23T14:15:39Z</time>
      </trkpt>
      <trkpt lat="50.99938" lon="2.65183">
        <ele>8</ele>
        <time>2020-06-23T14:15:40Z</time>
      </trkpt>
      <trkpt lat="50.99935" lon="2.65193">
        <ele>8</ele>
        <time>2020-06-23T14:15:41Z</time>
      </trkpt>
      <trkpt lat="50.99934" lon="2.65203">
        <ele>7.9</ele>
        <time>2020-06-23T14:15:42Z</time>
      </trkpt>
      <trkpt lat="50.99932" lon="2.65213">
        <ele>7.9</ele>
        <time>2020-06-23T14:15:43Z</time>
      </trkpt>
      <trkpt lat="50.9993" lon="2.65223">
        <ele>7.9</ele>
        <time>2020-06-23T14:15:44Z</time>
      </trkpt>
      <trkpt lat="50.99928" lon="2.65233">
        <ele>7.9</ele>
        <time>2020-06-23T14:15:45Z</time>
      </trkpt>
      <trkpt lat="50.99926" lon="2.65244">
        <ele>7.8</ele>
        <time>2020-06-23T14:15:46Z</time>
      </trkpt>
      <trkpt lat="50.99924" lon="2.65254">
        <ele>7.8</ele>
        <time>2020-06-23T14:15:47Z</time>
      </trkpt>
      <trkpt lat="50.99922" lon="2.65264">
        <ele>7.8</ele>
        <time>2020-06-23T14:15:48Z</time>
      </trkpt>
      <trkpt lat="50.9992" lon="2.65274">
        <ele>7.7</ele>
        <time>2020-06-23T14:15:49Z</time>
      </trkpt>
      <trkpt lat="50.99918" lon="2.65284">
        <ele>7.7</ele>
        <time>2020-06-23T14:15:50Z</time>
      </trkpt>
      <trkpt lat="50.99915" lon="2.65293">
        <ele>7.7</ele>
        <time>2020-06-23T14:15:51Z</time>
      </trkpt>
      <trkpt lat="50.99913" lon="2.65302">
        <ele>7.6</ele>
        <time>2020-06-23T14:15:52Z</time>
      </trkpt>
      <trkpt lat="50.99911" lon="2.65311">
        <ele>7.6</ele>
        <time>2020-06-23T14:15:53Z</time>
      </trkpt>
      <trkpt lat="50.99908" lon="2.6532">
        <ele>7.6</ele>
        <time>2020-06-23T14:15:54Z</time>
      </trkpt>
      <trkpt lat="50.99905" lon="2.65329">
        <ele>7.6</ele>
        <time>2020-06-23T14:15:55Z</time>
      </trkpt>
      <trkpt lat="50.99902" lon="2.65338">
        <ele>7.6</ele>
        <time>2020-06-23T14:15:56Z</time>
      </trkpt>
      <trkpt lat="50.99899" lon="2.65346">
        <ele>7.6</ele>
        <time>2020-06-23T14:15:57Z</time>
      </trkpt>
      <trkpt lat="50.99896" lon="2.65355">
        <ele>7.6</ele>
        <time>2020-06-23T14:15:58Z</time>
      </trkpt>
      <trkpt lat="50.99893" lon="2.65363">
        <ele>7.6</ele>
        <time>2020-06-23T14:15:59Z</time>
      </trkpt>
      <trkpt lat="50.99891" lon="2.65372">
        <ele>7.6</ele>
        <time>2020-06-23T14:16:00Z</time>
      </trkpt>
      <trkpt lat="50.99888" lon="2.65381">
        <ele>7.6</ele>
        <time>2020-06-23T14:16:01Z</time>
      </trkpt>
      <trkpt lat="50.99885" lon="2.6539">
        <ele>7.5</ele>
        <time>2020-06-23T14:16:02Z</time>
      </trkpt>
      <trkpt lat="50.99883" lon="2.65399">
        <ele>7.5</ele>
        <time>2020-06-23T14:16:03Z</time>
      </trkpt>
      <trkpt lat="50.9988" lon="2.65408">
        <ele>7.5</ele>
        <time>2020-06-23T14:16:04Z</time>
      </trkpt>
      <trkpt lat="50.99877" lon="2.65417">
        <ele>7.5</ele>
        <time>2020-06-23T14:16:05Z</time>
      </trkpt>
      <trkpt lat="50.99875" lon="2.65426">
        <ele>7.5</ele>
        <time>2020-06-23T14:16:06Z</time>
      </trkpt>
      <trkpt lat="50.99872" lon="2.65435">
        <ele>7.5</ele>
        <time>2020-06-23T14:16:07Z</time>
      </trkpt>
      <trkpt lat="50.99869" lon="2.65444">
        <ele>7.5</ele>
        <time>2020-06-23T14:16:08Z</time>
      </trkpt>
      <trkpt lat="50.99866" lon="2.65453">
        <ele>7.5</ele>
        <time>2020-06-23T14:16:09Z</time>
      </trkpt>
      <trkpt lat="50.99864" lon="2.65464">
        <ele>7.5</ele>
        <time>2020-06-23T14:16:10Z</time>
      </trkpt>
      <trkpt lat="50.99862" lon="2.65472">
        <ele>7.5</ele>
        <time>2020-06-23T14:16:11Z</time>
      </trkpt>
      <trkpt lat="50.99859" lon="2.65481">
        <ele>7.5</ele>
        <time>2020-06-23T14:16:12Z</time>
      </trkpt>
      <trkpt lat="50.99857" lon="2.65491">
        <ele>7.5</ele>
        <time>2020-06-23T14:16:13Z</time>
      </trkpt>
      <trkpt lat="50.99855" lon="2.65501">
        <ele>7.4</ele>
        <time>2020-06-23T14:16:14Z</time>
      </trkpt>
      <trkpt lat="50.99853" lon="2.65509">
        <ele>7.4</ele>
        <time>2020-06-23T14:16:15Z</time>
      </trkpt>
      <trkpt lat="50.99851" lon="2.65519">
        <ele>7.4</ele>
        <time>2020-06-23T14:16:16Z</time>
      </trkpt>
      <trkpt lat="50.99849" lon="2.65529">
        <ele>7.4</ele>
        <time>2020-06-23T14:16:17Z</time>
      </trkpt>
      <trkpt lat="50.99846" lon="2.65539">
        <ele>7.5</ele>
        <time>2020-06-23T14:16:18Z</time>
      </trkpt>
      <trkpt lat="50.99845" lon="2.65549">
        <ele>7.4</ele>
        <time>2020-06-23T14:16:19Z</time>
      </trkpt>
      <trkpt lat="50.99842" lon="2.65559">
        <ele>7.4</ele>
        <time>2020-06-23T14:16:20Z</time>
      </trkpt>
      <trkpt lat="50.9984" lon="2.6557">
        <ele>7.4</ele>
        <time>2020-06-23T14:16:21Z</time>
      </trkpt>
      <trkpt lat="50.99838" lon="2.6558">
        <ele>7.3</ele>
        <time>2020-06-23T14:16:22Z</time>
      </trkpt>
      <trkpt lat="50.99835" lon="2.6559">
        <ele>7.3</ele>
        <time>2020-06-23T14:16:23Z</time>
      </trkpt>
      <trkpt lat="50.99832" lon="2.656">
        <ele>7.3</ele>
        <time>2020-06-23T14:16:24Z</time>
      </trkpt>
      <trkpt lat="50.9983" lon="2.65611">
        <ele>7.3</ele>
        <time>2020-06-23T14:16:25Z</time>
      </trkpt>
      <trkpt lat="50.99828" lon="2.6562">
        <ele>7.3</ele>
        <time>2020-06-23T14:16:26Z</time>
      </trkpt>
      <trkpt lat="50.99827" lon="2.65632">
        <ele>7.4</ele>
        <time>2020-06-23T14:16:27Z</time>
      </trkpt>
      <trkpt lat="50.99825" lon="2.65642">
        <ele>7.4</ele>
        <time>2020-06-23T14:16:28Z</time>
      </trkpt>
      <trkpt lat="50.99822" lon="2.65651">
        <ele>7.5</ele>
        <time>2020-06-23T14:16:29Z</time>
      </trkpt>
      <trkpt lat="50.9982" lon="2.65661">
        <ele>7.6</ele>
        <time>2020-06-23T14:16:30Z</time>
      </trkpt>
      <trkpt lat="50.99817" lon="2.65671">
        <ele>7.7</ele>
        <time>2020-06-23T14:16:31Z</time>
      </trkpt>
      <trkpt lat="50.99815" lon="2.6568">
        <ele>7.8</ele>
        <time>2020-06-23T14:16:32Z</time>
      </trkpt>
      <trkpt lat="50.99814" lon="2.65688">
        <ele>7.8</ele>
        <time>2020-06-23T14:16:33Z</time>
      </trkpt>
      <trkpt lat="50.99812" lon="2.65697">
        <ele>7.8</ele>
        <time>2020-06-23T14:16:34Z</time>
      </trkpt>
      <trkpt lat="50.9981" lon="2.65704">
        <ele>7.8</ele>
        <time>2020-06-23T14:16:35Z</time>
      </trkpt>
      <trkpt lat="50.9981" lon="2.6571">
        <ele>8.1</ele>
        <time>2020-06-23T14:16:36Z</time>
      </trkpt>
      <trkpt lat="50.99806" lon="2.65718">
        <ele>7.9</ele>
        <time>2020-06-23T14:16:37Z</time>
      </trkpt>
      <trkpt lat="50.99804" lon="2.65726">
        <ele>7.7</ele>
        <time>2020-06-23T14:16:38Z</time>
      </trkpt>
      <trkpt lat="50.99802" lon="2.65733">
        <ele>7.6</ele>
        <time>2020-06-23T14:16:39Z</time>
      </trkpt>
      <trkpt lat="50.99801" lon="2.65741">
        <ele>7.5</ele>
        <time>2020-06-23T14:16:40Z</time>
      </trkpt>
      <trkpt lat="50.998" lon="2.6575">
        <ele>7.3</ele>
        <time>2020-06-23T14:16:41Z</time>
      </trkpt>
      <trkpt lat="50.99799" lon="2.65758">
        <ele>7.2</ele>
        <time>2020-06-23T14:16:42Z</time>
      </trkpt>
      <trkpt lat="50.99798" lon="2.65767">
        <ele>7.1</ele>
        <time>2020-06-23T14:16:43Z</time>
      </trkpt>
      <trkpt lat="50.99796" lon="2.65776">
        <ele>7</ele>
        <time>2020-06-23T14:16:44Z</time>
      </trkpt>
      <trkpt lat="50.99795" lon="2.65785">
        <ele>6.9</ele>
        <time>2020-06-23T14:16:45Z</time>
      </trkpt>
      <trkpt lat="50.99793" lon="2.65793">
        <ele>6.8</ele>
        <time>2020-06-23T14:16:46Z</time>
      </trkpt>
      <trkpt lat="50.99792" lon="2.65804">
        <ele>6.7</ele>
        <time>2020-06-23T14:16:47Z</time>
      </trkpt>
      <trkpt lat="50.99791" lon="2.65814">
        <ele>6.6</ele>
        <time>2020-06-23T14:16:48Z</time>
      </trkpt>
      <trkpt lat="50.99789" lon="2.65823">
        <ele>6.6</ele>
        <time>2020-06-23T14:16:49Z</time>
      </trkpt>
      <trkpt lat="50.99788" lon="2.65831">
        <ele>6.6</ele>
        <time>2020-06-23T14:16:50Z</time>
      </trkpt>
      <trkpt lat="50.99786" lon="2.65841">
        <ele>6.5</ele>
        <time>2020-06-23T14:16:51Z</time>
      </trkpt>
      <trkpt lat="50.99785" lon="2.65849">
        <ele>6.5</ele>
        <time>2020-06-23T14:16:52Z</time>
      </trkpt>
      <trkpt lat="50.99783" lon="2.65857">
        <ele>6.4</ele>
        <time>2020-06-23T14:16:53Z</time>
      </trkpt>
      <trkpt lat="50.99782" lon="2.65866">
        <ele>6.4</ele>
        <time>2020-06-23T14:16:54Z</time>
      </trkpt>
      <trkpt lat="50.99781" lon="2.65875">
        <ele>6.3</ele>
        <time>2020-06-23T14:16:55Z</time>
      </trkpt>
      <trkpt lat="50.9978" lon="2.65884">
        <ele>6.3</ele>
        <time>2020-06-23T14:16:56Z</time>
      </trkpt>
      <trkpt lat="50.99779" lon="2.65893">
        <ele>6.3</ele>
        <time>2020-06-23T14:16:57Z</time>
      </trkpt>
      <trkpt lat="50.99778" lon="2.65901">
        <ele>6.3</ele>
        <time>2020-06-23T14:16:58Z</time>
      </trkpt>
      <trkpt lat="50.99776" lon="2.65908">
        <ele>6.3</ele>
        <time>2020-06-23T14:16:59Z</time>
      </trkpt>
      <trkpt lat="50.99774" lon="2.65914">
        <ele>6.4</ele>
        <time>2020-06-23T14:17:00Z</time>
      </trkpt>
      <trkpt lat="50.99773" lon="2.6592">
        <ele>6.4</ele>
        <time>2020-06-23T14:17:01Z</time>
      </trkpt>
      <trkpt lat="50.99772" lon="2.65928">
        <ele>6.5</ele>
        <time>2020-06-23T14:17:02Z</time>
      </trkpt>
      <trkpt lat="50.99771" lon="2.65935">
        <ele>6.5</ele>
        <time>2020-06-23T14:17:03Z</time>
      </trkpt>
      <trkpt lat="50.9977" lon="2.65942">
        <ele>6.6</ele>
        <time>2020-06-23T14:17:04Z</time>
      </trkpt>
      <trkpt lat="50.99768" lon="2.65946">
        <ele>6.6</ele>
        <time>2020-06-23T14:17:05Z</time>
      </trkpt>
      <trkpt lat="50.99766" lon="2.65948">
        <ele>6.6</ele>
        <time>2020-06-23T14:17:06Z</time>
      </trkpt>
      <trkpt lat="50.99765" lon="2.65948">
        <ele>6.6</ele>
        <time>2020-06-23T14:17:07Z</time>
      </trkpt>
      <trkpt lat="50.99766" lon="2.65947">
        <ele>6.6</ele>
        <time>2020-06-23T14:17:08Z</time>
      </trkpt>
      <trkpt lat="50.99766" lon="2.65946">
        <ele>6.6</ele>
        <time>2020-06-23T14:17:09Z</time>
      </trkpt>
      <trkpt lat="50.99766" lon="2.65947">
        <ele>6.6</ele>
        <time>2020-06-23T14:17:10Z</time>
      </trkpt>
      <trkpt lat="50.99766" lon="2.65947">
        <ele>6.6</ele>
        <time>2020-06-23T14:17:11Z</time>
      </trkpt>
      <trkpt lat="50.99766" lon="2.65947">
        <ele>6.6</ele>
        <time>2020-06-23T14:17:12Z</time>
      </trkpt>
      <trkpt lat="50.99766" lon="2.65947">
        <ele>6.6</ele>
        <time>2020-06-23T14:17:13Z</time>
      </trkpt>
      <trkpt lat="50.99766" lon="2.65948">
        <ele>6.6</ele>
        <time>2020-06-23T14:17:14Z</time>
      </trkpt>
      <trkpt lat="50.99766" lon="2.65948">
        <ele>6.6</ele>
        <time>2020-06-23T14:17:15Z</time>
      </trkpt>
      <trkpt lat="50.99766" lon="2.65948">
        <ele>6.6</ele>
        <time>2020-06-23T14:17:16Z</time>
      </trkpt>
      <trkpt lat="50.99766" lon="2.65949">
        <ele>6.6</ele>
        <time>2020-06-23T14:17:17Z</time>
      </trkpt>
      <trkpt lat="50.99765" lon="2.6595">
        <ele>6.6</ele>
        <time>2020-06-23T14:17:18Z</time>
      </trkpt>
      <trkpt lat="50.99763" lon="2.65953">
        <ele>6.6</ele>
        <time>2020-06-23T14:17:24Z</time>
      </trkpt>
      <trkpt lat="50.99762" lon="2.65956">
        <ele>6.6</ele>
        <time>2020-06-23T14:17:25Z</time>
      </trkpt>
      <trkpt lat="50.99761" lon="2.65961">
        <ele>6.6</ele>
        <time>2020-06-23T14:17:26Z</time>
      </trkpt>
      <trkpt lat="50.99762" lon="2.65967">
        <ele>6.6</ele>
        <time>2020-06-23T14:17:27Z</time>
      </trkpt>
      <trkpt lat="50.99763" lon="2.65973">
        <ele>6.5</ele>
        <time>2020-06-23T14:17:28Z</time>
      </trkpt>
      <trkpt lat="50.99765" lon="2.6598">
        <ele>6.5</ele>
        <time>2020-06-23T14:17:29Z</time>
      </trkpt>
      <trkpt lat="50.99766" lon="2.65987">
        <ele>6.5</ele>
        <time>2020-06-23T14:17:30Z</time>
      </trkpt>
      <trkpt lat="50.99766" lon="2.65993">
        <ele>6.5</ele>
        <time>2020-06-23T14:17:31Z</time>
      </trkpt>
      <trkpt lat="50.99767" lon="2.65998">
        <ele>6.5</ele>
        <time>2020-06-23T14:17:32Z</time>
      </trkpt>
      <trkpt lat="50.99768" lon="2.66005">
        <ele>6.5</ele>
        <time>2020-06-23T14:17:33Z</time>
      </trkpt>
      <trkpt lat="50.99767" lon="2.6601">
        <ele>6.5</ele>
        <time>2020-06-23T14:17:34Z</time>
      </trkpt>
      <trkpt lat="50.99766" lon="2.66015">
        <ele>6.5</ele>
        <time>2020-06-23T14:17:35Z</time>
      </trkpt>
      <trkpt lat="50.99766" lon="2.66022">
        <ele>6.5</ele>
        <time>2020-06-23T14:17:36Z</time>
      </trkpt>
      <trkpt lat="50.99766" lon="2.66027">
        <ele>6.5</ele>
        <time>2020-06-23T14:17:37Z</time>
      </trkpt>
      <trkpt lat="50.99766" lon="2.66032">
        <ele>6.5</ele>
        <time>2020-06-23T14:17:38Z</time>
      </trkpt>
      <trkpt lat="50.99765" lon="2.66037">
        <ele>6.5</ele>
        <time>2020-06-23T14:17:39Z</time>
      </trkpt>
      <trkpt lat="50.99764" lon="2.66041">
        <ele>6.4</ele>
        <time>2020-06-23T14:17:40Z</time>
      </trkpt>
      <trkpt lat="50.99763" lon="2.66045">
        <ele>6.4</ele>
        <time>2020-06-23T14:17:41Z</time>
      </trkpt>
      <trkpt lat="50.99763" lon="2.66046">
        <ele>6.4</ele>
        <time>2020-06-23T14:17:42Z</time>
      </trkpt>
      <trkpt lat="50.99762" lon="2.66046">
        <ele>6.4</ele>
        <time>2020-06-23T14:17:43Z</time>
      </trkpt>
      <trkpt lat="50.99761" lon="2.66047">
        <ele>6.4</ele>
        <time>2020-06-23T14:17:44Z</time>
      </trkpt>
      <trkpt lat="50.99761" lon="2.66046">
        <ele>6.4</ele>
        <time>2020-06-23T14:17:45Z</time>
      </trkpt>
      <trkpt lat="50.99761" lon="2.66046">
        <ele>6.4</ele>
        <time>2020-06-23T14:17:46Z</time>
      </trkpt>
      <trkpt lat="50.9976" lon="2.66046">
        <ele>6.4</ele>
        <time>2020-06-23T14:17:47Z</time>
      </trkpt>
      <trkpt lat="50.99759" lon="2.66047">
        <ele>6.4</ele>
        <time>2020-06-23T14:17:48Z</time>
      </trkpt>
      <trkpt lat="50.99759" lon="2.66048">
        <ele>6.4</ele>
        <time>2020-06-23T14:17:49Z</time>
      </trkpt>
      <trkpt lat="50.99758" lon="2.66049">
        <ele>6.4</ele>
        <time>2020-06-23T14:17:50Z</time>
      </trkpt>
      <trkpt lat="50.99758" lon="2.6605">
        <ele>6.4</ele>
        <time>2020-06-23T14:17:51Z</time>
      </trkpt>
      <trkpt lat="50.99758" lon="2.66051">
        <ele>6.4</ele>
        <time>2020-06-23T14:17:52Z</time>
      </trkpt>
      <trkpt lat="50.99757" lon="2.66052">
        <ele>6.4</ele>
        <time>2020-06-23T14:17:57Z</time>
      </trkpt>
      <trkpt lat="50.99757" lon="2.66053">
        <ele>6.4</ele>
        <time>2020-06-23T14:17:58Z</time>
      </trkpt>
      <trkpt lat="50.99756" lon="2.66054">
        <ele>6.4</ele>
        <time>2020-06-23T14:17:59Z</time>
      </trkpt>
      <trkpt lat="50.99755" lon="2.66059">
        <ele>6.4</ele>
        <time>2020-06-23T14:18:00Z</time>
      </trkpt>
      <trkpt lat="50.99754" lon="2.66064">
        <ele>6.4</ele>
        <time>2020-06-23T14:18:01Z</time>
      </trkpt>
      <trkpt lat="50.99752" lon="2.6607">
        <ele>6.4</ele>
        <time>2020-06-23T14:18:02Z</time>
      </trkpt>
      <trkpt lat="50.99751" lon="2.66077">
        <ele>6.4</ele>
        <time>2020-06-23T14:18:03Z</time>
      </trkpt>
      <trkpt lat="50.9975" lon="2.66085">
        <ele>6.4</ele>
        <time>2020-06-23T14:18:04Z</time>
      </trkpt>
      <trkpt lat="50.99749" lon="2.66092">
        <ele>6.4</ele>
        <time>2020-06-23T14:18:05Z</time>
      </trkpt>
      <trkpt lat="50.99747" lon="2.66101">
        <ele>6.4</ele>
        <time>2020-06-23T14:18:06Z</time>
      </trkpt>
      <trkpt lat="50.99746" lon="2.66108">
        <ele>6.4</ele>
        <time>2020-06-23T14:18:07Z</time>
      </trkpt>
      <trkpt lat="50.99744" lon="2.66117">
        <ele>6.4</ele>
        <time>2020-06-23T14:18:08Z</time>
      </trkpt>
      <trkpt lat="50.99743" lon="2.66124">
        <ele>6.3</ele>
        <time>2020-06-23T14:18:09Z</time>
      </trkpt>
      <trkpt lat="50.9974" lon="2.66131">
        <ele>6.2</ele>
        <time>2020-06-23T14:18:10Z</time>
      </trkpt>
      <trkpt lat="50.99737" lon="2.66137">
        <ele>6.1</ele>
        <time>2020-06-23T14:18:11Z</time>
      </trkpt>
      <trkpt lat="50.99734" lon="2.66144">
        <ele>6</ele>
        <time>2020-06-23T14:18:12Z</time>
      </trkpt>
      <trkpt lat="50.99731" lon="2.66152">
        <ele>5.9</ele>
        <time>2020-06-23T14:18:13Z</time>
      </trkpt>
      <trkpt lat="50.99727" lon="2.6616">
        <ele>5.9</ele>
        <time>2020-06-23T14:18:14Z</time>
      </trkpt>
      <trkpt lat="50.99724" lon="2.66168">
        <ele>5.9</ele>
        <time>2020-06-23T14:18:15Z</time>
      </trkpt>
      <trkpt lat="50.99722" lon="2.66176">
        <ele>5.8</ele>
        <time>2020-06-23T14:18:16Z</time>
      </trkpt>
      <trkpt lat="50.99718" lon="2.66185">
        <ele>5.8</ele>
        <time>2020-06-23T14:18:17Z</time>
      </trkpt>
      <trkpt lat="50.99715" lon="2.66193">
        <ele>5.7</ele>
        <time>2020-06-23T14:18:18Z</time>
      </trkpt>
      <trkpt lat="50.99711" lon="2.66201">
        <ele>5.7</ele>
        <time>2020-06-23T14:18:19Z</time>
      </trkpt>
      <trkpt lat="50.99708" lon="2.66208">
        <ele>5.7</ele>
        <time>2020-06-23T14:18:20Z</time>
      </trkpt>
      <trkpt lat="50.99705" lon="2.66216">
        <ele>5.7</ele>
        <time>2020-06-23T14:18:21Z</time>
      </trkpt>
      <trkpt lat="50.99703" lon="2.66224">
        <ele>5.7</ele>
        <time>2020-06-23T14:18:22Z</time>
      </trkpt>
      <trkpt lat="50.99699" lon="2.66233">
        <ele>5.8</ele>
        <time>2020-06-23T14:18:23Z</time>
      </trkpt>
      <trkpt lat="50.99695" lon="2.66243">
        <ele>5.8</ele>
        <time>2020-06-23T14:18:24Z</time>
      </trkpt>
      <trkpt lat="50.99693" lon="2.66252">
        <ele>5.8</ele>
        <time>2020-06-23T14:18:25Z</time>
      </trkpt>
      <trkpt lat="50.99689" lon="2.66262">
        <ele>5.8</ele>
        <time>2020-06-23T14:18:26Z</time>
      </trkpt>
      <trkpt lat="50.99687" lon="2.66272">
        <ele>5.8</ele>
        <time>2020-06-23T14:18:27Z</time>
      </trkpt>
      <trkpt lat="50.99685" lon="2.66282">
        <ele>5.8</ele>
        <time>2020-06-23T14:18:28Z</time>
      </trkpt>
      <trkpt lat="50.99683" lon="2.66291">
        <ele>5.9</ele>
        <time>2020-06-23T14:18:29Z</time>
      </trkpt>
      <trkpt lat="50.99681" lon="2.663">
        <ele>5.9</ele>
        <time>2020-06-23T14:18:30Z</time>
      </trkpt>
      <trkpt lat="50.99679" lon="2.66309">
        <ele>5.9</ele>
        <time>2020-06-23T14:18:31Z</time>
      </trkpt>
      <trkpt lat="50.99677" lon="2.66318">
        <ele>6</ele>
        <time>2020-06-23T14:18:32Z</time>
      </trkpt>
      <trkpt lat="50.99675" lon="2.66327">
        <ele>6</ele>
        <time>2020-06-23T14:18:33Z</time>
      </trkpt>
      <trkpt lat="50.99673" lon="2.66335">
        <ele>6</ele>
        <time>2020-06-23T14:18:34Z</time>
      </trkpt>
      <trkpt lat="50.99672" lon="2.66343">
        <ele>6</ele>
        <time>2020-06-23T14:18:35Z</time>
      </trkpt>
      <trkpt lat="50.9967" lon="2.66351">
        <ele>6</ele>
        <time>2020-06-23T14:18:36Z</time>
      </trkpt>
      <trkpt lat="50.99669" lon="2.66358">
        <ele>6</ele>
        <time>2020-06-23T14:18:37Z</time>
      </trkpt>
      <trkpt lat="50.99668" lon="2.66364">
        <ele>6</ele>
        <time>2020-06-23T14:18:38Z</time>
      </trkpt>
      <trkpt lat="50.99665" lon="2.66369">
        <ele>6</ele>
        <time>2020-06-23T14:18:39Z</time>
      </trkpt>
      <trkpt lat="50.99664" lon="2.6637">
        <ele>6</ele>
        <time>2020-06-23T14:18:40Z</time>
      </trkpt>
      <trkpt lat="50.99662" lon="2.66377">
        <ele>6</ele>
        <time>2020-06-23T14:18:41Z</time>
      </trkpt>
      <trkpt lat="50.9966" lon="2.66384">
        <ele>6</ele>
        <time>2020-06-23T14:18:42Z</time>
      </trkpt>
      <trkpt lat="50.99659" lon="2.66391">
        <ele>6</ele>
        <time>2020-06-23T14:18:43Z</time>
      </trkpt>
      <trkpt lat="50.99657" lon="2.66398">
        <ele>5.9</ele>
        <time>2020-06-23T14:18:44Z</time>
      </trkpt>
      <trkpt lat="50.99655" lon="2.66405">
        <ele>5.9</ele>
        <time>2020-06-23T14:18:45Z</time>
      </trkpt>
      <trkpt lat="50.99652" lon="2.66414">
        <ele>5.9</ele>
        <time>2020-06-23T14:18:46Z</time>
      </trkpt>
      <trkpt lat="50.9965" lon="2.6642">
        <ele>6</ele>
        <time>2020-06-23T14:18:47Z</time>
      </trkpt>
      <trkpt lat="50.99647" lon="2.66429">
        <ele>6</ele>
        <time>2020-06-23T14:18:48Z</time>
      </trkpt>
      <trkpt lat="50.99645" lon="2.66436">
        <ele>6</ele>
        <time>2020-06-23T14:18:49Z</time>
      </trkpt>
      <trkpt lat="50.99643" lon="2.66444">
        <ele>6</ele>
        <time>2020-06-23T14:18:50Z</time>
      </trkpt>
      <trkpt lat="50.9964" lon="2.66455">
        <ele>6.1</ele>
        <time>2020-06-23T14:18:51Z</time>
      </trkpt>
      <trkpt lat="50.99637" lon="2.66464">
        <ele>6.1</ele>
        <time>2020-06-23T14:18:52Z</time>
      </trkpt>
      <trkpt lat="50.99635" lon="2.66472">
        <ele>6.2</ele>
        <time>2020-06-23T14:18:53Z</time>
      </trkpt>
      <trkpt lat="50.99634" lon="2.66481">
        <ele>6.2</ele>
        <time>2020-06-23T14:18:54Z</time>
      </trkpt>
      <trkpt lat="50.99632" lon="2.66489">
        <ele>6.2</ele>
        <time>2020-06-23T14:18:55Z</time>
      </trkpt>
      <trkpt lat="50.99631" lon="2.66499">
        <ele>6.3</ele>
        <time>2020-06-23T14:18:56Z</time>
      </trkpt>
      <trkpt lat="50.9963" lon="2.66507">
        <ele>6.3</ele>
        <time>2020-06-23T14:18:57Z</time>
      </trkpt>
      <trkpt lat="50.99629" lon="2.66515">
        <ele>6.3</ele>
        <time>2020-06-23T14:18:58Z</time>
      </trkpt>
      <trkpt lat="50.99628" lon="2.66522">
        <ele>6.4</ele>
        <time>2020-06-23T14:18:59Z</time>
      </trkpt>
      <trkpt lat="50.99627" lon="2.66531">
        <ele>6.4</ele>
        <time>2020-06-23T14:19:00Z</time>
      </trkpt>
      <trkpt lat="50.99626" lon="2.66539">
        <ele>6.4</ele>
        <time>2020-06-23T14:19:01Z</time>
      </trkpt>
      <trkpt lat="50.99625" lon="2.66546">
        <ele>6.5</ele>
        <time>2020-06-23T14:19:02Z</time>
      </trkpt>
      <trkpt lat="50.99624" lon="2.66554">
        <ele>6.5</ele>
        <time>2020-06-23T14:19:03Z</time>
      </trkpt>
      <trkpt lat="50.99622" lon="2.66562">
        <ele>6.5</ele>
        <time>2020-06-23T14:19:04Z</time>
      </trkpt>
      <trkpt lat="50.9962" lon="2.66571">
        <ele>6.6</ele>
        <time>2020-06-23T14:19:05Z</time>
      </trkpt>
      <trkpt lat="50.99619" lon="2.6658">
        <ele>6.6</ele>
        <time>2020-06-23T14:19:06Z</time>
      </trkpt>
      <trkpt lat="50.99617" lon="2.66589">
        <ele>6.6</ele>
        <time>2020-06-23T14:19:07Z</time>
      </trkpt>
      <trkpt lat="50.99616" lon="2.66598">
        <ele>6.7</ele>
        <time>2020-06-23T14:19:08Z</time>
      </trkpt>
      <trkpt lat="50.99615" lon="2.66607">
        <ele>6.7</ele>
        <time>2020-06-23T14:19:09Z</time>
      </trkpt>
      <trkpt lat="50.99614" lon="2.66615">
        <ele>6.8</ele>
        <time>2020-06-23T14:19:10Z</time>
      </trkpt>
      <trkpt lat="50.99612" lon="2.66623">
        <ele>6.8</ele>
        <time>2020-06-23T14:19:11Z</time>
      </trkpt>
      <trkpt lat="50.99611" lon="2.66632">
        <ele>6.8</ele>
        <time>2020-06-23T14:19:12Z</time>
      </trkpt>
      <trkpt lat="50.9961" lon="2.6664">
        <ele>6.8</ele>
        <time>2020-06-23T14:19:13Z</time>
      </trkpt>
      <trkpt lat="50.99609" lon="2.66648">
        <ele>6.8</ele>
        <time>2020-06-23T14:19:14Z</time>
      </trkpt>
      <trkpt lat="50.99609" lon="2.66657">
        <ele>6.8</ele>
        <time>2020-06-23T14:19:15Z</time>
      </trkpt>
      <trkpt lat="50.99609" lon="2.66666">
        <ele>6.8</ele>
        <time>2020-06-23T14:19:16Z</time>
      </trkpt>
      <trkpt lat="50.99607" lon="2.66674">
        <ele>6.9</ele>
        <time>2020-06-23T14:19:17Z</time>
      </trkpt>
      <trkpt lat="50.99607" lon="2.66684">
        <ele>6.9</ele>
        <time>2020-06-23T14:19:18Z</time>
      </trkpt>
      <trkpt lat="50.99606" lon="2.66694">
        <ele>6.9</ele>
        <time>2020-06-23T14:19:19Z</time>
      </trkpt>
      <trkpt lat="50.99606" lon="2.66704">
        <ele>6.9</ele>
        <time>2020-06-23T14:19:20Z</time>
      </trkpt>
      <trkpt lat="50.99605" lon="2.66713">
        <ele>6.9</ele>
        <time>2020-06-23T14:19:21Z</time>
      </trkpt>
      <trkpt lat="50.99606" lon="2.66723">
        <ele>7</ele>
        <time>2020-06-23T14:19:22Z</time>
      </trkpt>
      <trkpt lat="50.99605" lon="2.66734">
        <ele>7</ele>
        <time>2020-06-23T14:19:23Z</time>
      </trkpt>
      <trkpt lat="50.99605" lon="2.66746">
        <ele>7</ele>
        <time>2020-06-23T14:19:24Z</time>
      </trkpt>
      <trkpt lat="50.99604" lon="2.66755">
        <ele>7</ele>
        <time>2020-06-23T14:19:25Z</time>
      </trkpt>
      <trkpt lat="50.99601" lon="2.66763">
        <ele>7</ele>
        <time>2020-06-23T14:19:26Z</time>
      </trkpt>
      <trkpt lat="50.99598" lon="2.6677">
        <ele>7</ele>
        <time>2020-06-23T14:19:27Z</time>
      </trkpt>
      <trkpt lat="50.99593" lon="2.66778">
        <ele>7</ele>
        <time>2020-06-23T14:19:28Z</time>
      </trkpt>
      <trkpt lat="50.99588" lon="2.66786">
        <ele>7</ele>
        <time>2020-06-23T14:19:29Z</time>
      </trkpt>
      <trkpt lat="50.99583" lon="2.66793">
        <ele>7</ele>
        <time>2020-06-23T14:19:30Z</time>
      </trkpt>
      <trkpt lat="50.99577" lon="2.66799">
        <ele>7</ele>
        <time>2020-06-23T14:19:31Z</time>
      </trkpt>
      <trkpt lat="50.99571" lon="2.66806">
        <ele>7.1</ele>
        <time>2020-06-23T14:19:32Z</time>
      </trkpt>
      <trkpt lat="50.99566" lon="2.66812">
        <ele>7.1</ele>
        <time>2020-06-23T14:19:33Z</time>
      </trkpt>
      <trkpt lat="50.9956" lon="2.66821">
        <ele>7.1</ele>
        <time>2020-06-23T14:19:34Z</time>
      </trkpt>
      <trkpt lat="50.99555" lon="2.66827">
        <ele>7.1</ele>
        <time>2020-06-23T14:19:35Z</time>
      </trkpt>
      <trkpt lat="50.9955" lon="2.66833">
        <ele>7</ele>
        <time>2020-06-23T14:19:36Z</time>
      </trkpt>
      <trkpt lat="50.99545" lon="2.66839">
        <ele>7</ele>
        <time>2020-06-23T14:19:37Z</time>
      </trkpt>
      <trkpt lat="50.99539" lon="2.66846">
        <ele>7.1</ele>
        <time>2020-06-23T14:19:38Z</time>
      </trkpt>
      <trkpt lat="50.99533" lon="2.66854">
        <ele>7.2</ele>
        <time>2020-06-23T14:19:39Z</time>
      </trkpt>
      <trkpt lat="50.99528" lon="2.66861">
        <ele>7.3</ele>
        <time>2020-06-23T14:19:40Z</time>
      </trkpt>
      <trkpt lat="50.99524" lon="2.66868">
        <ele>7.5</ele>
        <time>2020-06-23T14:19:41Z</time>
      </trkpt>
      <trkpt lat="50.99518" lon="2.66874">
        <ele>7.6</ele>
        <time>2020-06-23T14:19:42Z</time>
      </trkpt>
      <trkpt lat="50.99512" lon="2.6688">
        <ele>7.6</ele>
        <time>2020-06-23T14:19:43Z</time>
      </trkpt>
      <trkpt lat="50.99507" lon="2.66887">
        <ele>7.6</ele>
        <time>2020-06-23T14:19:44Z</time>
      </trkpt>
      <trkpt lat="50.99501" lon="2.66893">
        <ele>7.6</ele>
        <time>2020-06-23T14:19:45Z</time>
      </trkpt>
      <trkpt lat="50.99496" lon="2.66898">
        <ele>7.6</ele>
        <time>2020-06-23T14:19:46Z</time>
      </trkpt>
      <trkpt lat="50.99491" lon="2.66903">
        <ele>7.6</ele>
        <time>2020-06-23T14:19:47Z</time>
      </trkpt>
      <trkpt lat="50.99486" lon="2.66908">
        <ele>7.6</ele>
        <time>2020-06-23T14:19:48Z</time>
      </trkpt>
      <trkpt lat="50.99481" lon="2.66913">
        <ele>7.7</ele>
        <time>2020-06-23T14:19:49Z</time>
      </trkpt>
      <trkpt lat="50.99476" lon="2.66919">
        <ele>7.7</ele>
        <time>2020-06-23T14:19:50Z</time>
      </trkpt>
      <trkpt lat="50.99472" lon="2.66924">
        <ele>7.7</ele>
        <time>2020-06-23T14:19:51Z</time>
      </trkpt>
      <trkpt lat="50.99467" lon="2.6693">
        <ele>7.7</ele>
        <time>2020-06-23T14:19:52Z</time>
      </trkpt>
      <trkpt lat="50.99462" lon="2.66935">
        <ele>7.7</ele>
        <time>2020-06-23T14:19:53Z</time>
      </trkpt>
      <trkpt lat="50.99458" lon="2.6694">
        <ele>7.7</ele>
        <time>2020-06-23T14:19:54Z</time>
      </trkpt>
      <trkpt lat="50.99453" lon="2.66945">
        <ele>7.6</ele>
        <time>2020-06-23T14:19:55Z</time>
      </trkpt>
      <trkpt lat="50.99448" lon="2.6695">
        <ele>7.6</ele>
        <time>2020-06-23T14:19:56Z</time>
      </trkpt>
      <trkpt lat="50.99442" lon="2.66953">
        <ele>7.6</ele>
        <time>2020-06-23T14:19:57Z</time>
      </trkpt>
      <trkpt lat="50.99437" lon="2.66957">
        <ele>7.6</ele>
        <time>2020-06-23T14:19:58Z</time>
      </trkpt>
      <trkpt lat="50.99431" lon="2.66962">
        <ele>7.6</ele>
        <time>2020-06-23T14:19:59Z</time>
      </trkpt>
      <trkpt lat="50.99425" lon="2.66965">
        <ele>7.6</ele>
        <time>2020-06-23T14:20:00Z</time>
      </trkpt>
      <trkpt lat="50.99419" lon="2.66969">
        <ele>7.7</ele>
        <time>2020-06-23T14:20:01Z</time>
      </trkpt>
      <trkpt lat="50.99414" lon="2.66973">
        <ele>7.7</ele>
        <time>2020-06-23T14:20:02Z</time>
      </trkpt>
      <trkpt lat="50.99408" lon="2.66976">
        <ele>7.8</ele>
        <time>2020-06-23T14:20:03Z</time>
      </trkpt>
      <trkpt lat="50.99402" lon="2.66979">
        <ele>7.8</ele>
        <time>2020-06-23T14:20:04Z</time>
      </trkpt>
      <trkpt lat="50.99396" lon="2.66982">
        <ele>7.7</ele>
        <time>2020-06-23T14:20:05Z</time>
      </trkpt>
      <trkpt lat="50.9939" lon="2.66986">
        <ele>7.7</ele>
        <time>2020-06-23T14:20:06Z</time>
      </trkpt>
      <trkpt lat="50.99384" lon="2.6699">
        <ele>7.7</ele>
        <time>2020-06-23T14:20:07Z</time>
      </trkpt>
      <trkpt lat="50.99378" lon="2.66994">
        <ele>7.7</ele>
        <time>2020-06-23T14:20:08Z</time>
      </trkpt>
      <trkpt lat="50.99372" lon="2.66998">
        <ele>7.7</ele>
        <time>2020-06-23T14:20:09Z</time>
      </trkpt>
      <trkpt lat="50.99367" lon="2.67002">
        <ele>7.7</ele>
        <time>2020-06-23T14:20:10Z</time>
      </trkpt>
      <trkpt lat="50.99361" lon="2.67007">
        <ele>7.7</ele>
        <time>2020-06-23T14:20:11Z</time>
      </trkpt>
      <trkpt lat="50.99354" lon="2.67011">
        <ele>7.6</ele>
        <time>2020-06-23T14:20:12Z</time>
      </trkpt>
      <trkpt lat="50.99348" lon="2.67015">
        <ele>7.6</ele>
        <time>2020-06-23T14:20:13Z</time>
      </trkpt>
      <trkpt lat="50.99342" lon="2.6702">
        <ele>7.6</ele>
        <time>2020-06-23T14:20:14Z</time>
      </trkpt>
      <trkpt lat="50.99336" lon="2.67024">
        <ele>7.6</ele>
        <time>2020-06-23T14:20:15Z</time>
      </trkpt>
      <trkpt lat="50.99329" lon="2.67027">
        <ele>7.5</ele>
        <time>2020-06-23T14:20:16Z</time>
      </trkpt>
      <trkpt lat="50.99323" lon="2.67032">
        <ele>7.5</ele>
        <time>2020-06-23T14:20:17Z</time>
      </trkpt>
      <trkpt lat="50.99316" lon="2.67038">
        <ele>7.5</ele>
        <time>2020-06-23T14:20:18Z</time>
      </trkpt>
      <trkpt lat="50.9931" lon="2.67041">
        <ele>7.5</ele>
        <time>2020-06-23T14:20:19Z</time>
      </trkpt>
      <trkpt lat="50.99303" lon="2.67044">
        <ele>7.5</ele>
        <time>2020-06-23T14:20:20Z</time>
      </trkpt>
      <trkpt lat="50.99296" lon="2.67049">
        <ele>7.5</ele>
        <time>2020-06-23T14:20:21Z</time>
      </trkpt>
      <trkpt lat="50.9929" lon="2.67053">
        <ele>7.5</ele>
        <time>2020-06-23T14:20:22Z</time>
      </trkpt>
      <trkpt lat="50.99284" lon="2.67057">
        <ele>7.5</ele>
        <time>2020-06-23T14:20:23Z</time>
      </trkpt>
      <trkpt lat="50.99278" lon="2.67061">
        <ele>7.6</ele>
        <time>2020-06-23T14:20:24Z</time>
      </trkpt>
      <trkpt lat="50.99272" lon="2.67065">
        <ele>7.5</ele>
        <time>2020-06-23T14:20:25Z</time>
      </trkpt>
      <trkpt lat="50.99266" lon="2.67069">
        <ele>7.4</ele>
        <time>2020-06-23T14:20:26Z</time>
      </trkpt>
      <trkpt lat="50.9926" lon="2.67072">
        <ele>7.2</ele>
        <time>2020-06-23T14:20:27Z</time>
      </trkpt>
      <trkpt lat="50.99254" lon="2.67075">
        <ele>7.1</ele>
        <time>2020-06-23T14:20:28Z</time>
      </trkpt>
      <trkpt lat="50.99248" lon="2.67079">
        <ele>7</ele>
        <time>2020-06-23T14:20:29Z</time>
      </trkpt>
      <trkpt lat="50.99242" lon="2.67082">
        <ele>6.9</ele>
        <time>2020-06-23T14:20:30Z</time>
      </trkpt>
      <trkpt lat="50.99236" lon="2.67087">
        <ele>6.9</ele>
        <time>2020-06-23T14:20:31Z</time>
      </trkpt>
      <trkpt lat="50.9923" lon="2.67091">
        <ele>6.9</ele>
        <time>2020-06-23T14:20:32Z</time>
      </trkpt>
      <trkpt lat="50.99224" lon="2.67095">
        <ele>6.9</ele>
        <time>2020-06-23T14:20:33Z</time>
      </trkpt>
      <trkpt lat="50.99218" lon="2.671">
        <ele>6.8</ele>
        <time>2020-06-23T14:20:34Z</time>
      </trkpt>
      <trkpt lat="50.99212" lon="2.67107">
        <ele>6.8</ele>
        <time>2020-06-23T14:20:35Z</time>
      </trkpt>
      <trkpt lat="50.99207" lon="2.67113">
        <ele>6.8</ele>
        <time>2020-06-23T14:20:36Z</time>
      </trkpt>
      <trkpt lat="50.99201" lon="2.6712">
        <ele>6.8</ele>
        <time>2020-06-23T14:20:37Z</time>
      </trkpt>
      <trkpt lat="50.99196" lon="2.67128">
        <ele>6.8</ele>
        <time>2020-06-23T14:20:38Z</time>
      </trkpt>
      <trkpt lat="50.99192" lon="2.67136">
        <ele>6.8</ele>
        <time>2020-06-23T14:20:39Z</time>
      </trkpt>
      <trkpt lat="50.99187" lon="2.67144">
        <ele>6.9</ele>
        <time>2020-06-23T14:20:40Z</time>
      </trkpt>
      <trkpt lat="50.99183" lon="2.67152">
        <ele>6.9</ele>
        <time>2020-06-23T14:20:41Z</time>
      </trkpt>
      <trkpt lat="50.99179" lon="2.67161">
        <ele>6.9</ele>
        <time>2020-06-23T14:20:42Z</time>
      </trkpt>
      <trkpt lat="50.99174" lon="2.67168">
        <ele>7</ele>
        <time>2020-06-23T14:20:43Z</time>
      </trkpt>
      <trkpt lat="50.99169" lon="2.67175">
        <ele>7</ele>
        <time>2020-06-23T14:20:44Z</time>
      </trkpt>
      <trkpt lat="50.99165" lon="2.67183">
        <ele>7.1</ele>
        <time>2020-06-23T14:20:45Z</time>
      </trkpt>
      <trkpt lat="50.99161" lon="2.67191">
        <ele>7.1</ele>
        <time>2020-06-23T14:20:46Z</time>
      </trkpt>
      <trkpt lat="50.99156" lon="2.672">
        <ele>7.1</ele>
        <time>2020-06-23T14:20:47Z</time>
      </trkpt>
      <trkpt lat="50.99152" lon="2.67208">
        <ele>7.2</ele>
        <time>2020-06-23T14:20:48Z</time>
      </trkpt>
      <trkpt lat="50.99147" lon="2.67217">
        <ele>7.3</ele>
        <time>2020-06-23T14:20:49Z</time>
      </trkpt>
      <trkpt lat="50.99143" lon="2.67225">
        <ele>7.4</ele>
        <time>2020-06-23T14:20:50Z</time>
      </trkpt>
      <trkpt lat="50.99138" lon="2.67233">
        <ele>7.5</ele>
        <time>2020-06-23T14:20:51Z</time>
      </trkpt>
      <trkpt lat="50.99133" lon="2.6724">
        <ele>7.5</ele>
        <time>2020-06-23T14:20:52Z</time>
      </trkpt>
      <trkpt lat="50.99128" lon="2.67247">
        <ele>7.6</ele>
        <time>2020-06-23T14:20:53Z</time>
      </trkpt>
      <trkpt lat="50.99123" lon="2.67255">
        <ele>7.6</ele>
        <time>2020-06-23T14:20:54Z</time>
      </trkpt>
      <trkpt lat="50.99118" lon="2.67262">
        <ele>7.7</ele>
        <time>2020-06-23T14:20:55Z</time>
      </trkpt>
      <trkpt lat="50.99113" lon="2.67268">
        <ele>7.7</ele>
        <time>2020-06-23T14:20:56Z</time>
      </trkpt>
      <trkpt lat="50.99107" lon="2.67275">
        <ele>7.7</ele>
        <time>2020-06-23T14:20:57Z</time>
      </trkpt>
      <trkpt lat="50.99102" lon="2.67282">
        <ele>7.7</ele>
        <time>2020-06-23T14:20:58Z</time>
      </trkpt>
      <trkpt lat="50.99096" lon="2.67288">
        <ele>7.8</ele>
        <time>2020-06-23T14:20:59Z</time>
      </trkpt>
      <trkpt lat="50.99091" lon="2.67295">
        <ele>7.8</ele>
        <time>2020-06-23T14:21:00Z</time>
      </trkpt>
      <trkpt lat="50.99086" lon="2.67301">
        <ele>7.9</ele>
        <time>2020-06-23T14:21:01Z</time>
      </trkpt>
      <trkpt lat="50.9908" lon="2.67308">
        <ele>8</ele>
        <time>2020-06-23T14:21:02Z</time>
      </trkpt>
      <trkpt lat="50.99075" lon="2.67315">
        <ele>8</ele>
        <time>2020-06-23T14:21:03Z</time>
      </trkpt>
      <trkpt lat="50.9907" lon="2.67322">
        <ele>8.1</ele>
        <time>2020-06-23T14:21:04Z</time>
      </trkpt>
      <trkpt lat="50.99064" lon="2.67329">
        <ele>8.1</ele>
        <time>2020-06-23T14:21:05Z</time>
      </trkpt>
      <trkpt lat="50.99059" lon="2.67336">
        <ele>8.2</ele>
        <time>2020-06-23T14:21:06Z</time>
      </trkpt>
      <trkpt lat="50.99053" lon="2.67343">
        <ele>8.3</ele>
        <time>2020-06-23T14:21:07Z</time>
      </trkpt>
      <trkpt lat="50.99048" lon="2.6735">
        <ele>8.4</ele>
        <time>2020-06-23T14:21:08Z</time>
      </trkpt>
      <trkpt lat="50.99043" lon="2.67357">
        <ele>8.5</ele>
        <time>2020-06-23T14:21:09Z</time>
      </trkpt>
      <trkpt lat="50.99038" lon="2.67364">
        <ele>8.4</ele>
        <time>2020-06-23T14:21:10Z</time>
      </trkpt>
      <trkpt lat="50.99033" lon="2.67371">
        <ele>8.3</ele>
        <time>2020-06-23T14:21:11Z</time>
      </trkpt>
      <trkpt lat="50.99027" lon="2.67378">
        <ele>8.2</ele>
        <time>2020-06-23T14:21:12Z</time>
      </trkpt>
      <trkpt lat="50.99022" lon="2.67384">
        <ele>8.2</ele>
        <time>2020-06-23T14:21:13Z</time>
      </trkpt>
      <trkpt lat="50.99017" lon="2.67392">
        <ele>8.1</ele>
        <time>2020-06-23T14:21:14Z</time>
      </trkpt>
      <trkpt lat="50.99012" lon="2.67399">
        <ele>8.1</ele>
        <time>2020-06-23T14:21:15Z</time>
      </trkpt>
      <trkpt lat="50.99006" lon="2.67407">
        <ele>8</ele>
        <time>2020-06-23T14:21:16Z</time>
      </trkpt>
      <trkpt lat="50.99001" lon="2.67414">
        <ele>7.9</ele>
        <time>2020-06-23T14:21:17Z</time>
      </trkpt>
      <trkpt lat="50.98996" lon="2.67422">
        <ele>7.9</ele>
        <time>2020-06-23T14:21:18Z</time>
      </trkpt>
      <trkpt lat="50.9899" lon="2.67429">
        <ele>7.8</ele>
        <time>2020-06-23T14:21:19Z</time>
      </trkpt>
      <trkpt lat="50.98984" lon="2.67436">
        <ele>7.7</ele>
        <time>2020-06-23T14:21:20Z</time>
      </trkpt>
      <trkpt lat="50.98978" lon="2.67444">
        <ele>7.7</ele>
        <time>2020-06-23T14:21:21Z</time>
      </trkpt>
      <trkpt lat="50.98973" lon="2.67451">
        <ele>7.6</ele>
        <time>2020-06-23T14:21:22Z</time>
      </trkpt>
      <trkpt lat="50.98967" lon="2.67459">
        <ele>7.5</ele>
        <time>2020-06-23T14:21:23Z</time>
      </trkpt>
      <trkpt lat="50.98961" lon="2.67465">
        <ele>7.4</ele>
        <time>2020-06-23T14:21:24Z</time>
      </trkpt>
      <trkpt lat="50.98955" lon="2.67471">
        <ele>7.4</ele>
        <time>2020-06-23T14:21:25Z</time>
      </trkpt>
      <trkpt lat="50.98948" lon="2.67477">
        <ele>7.3</ele>
        <time>2020-06-23T14:21:26Z</time>
      </trkpt>
      <trkpt lat="50.98941" lon="2.67482">
        <ele>7.3</ele>
        <time>2020-06-23T14:21:27Z</time>
      </trkpt>
      <trkpt lat="50.98935" lon="2.67487">
        <ele>7.2</ele>
        <time>2020-06-23T14:21:28Z</time>
      </trkpt>
      <trkpt lat="50.98928" lon="2.67492">
        <ele>7.2</ele>
        <time>2020-06-23T14:21:29Z</time>
      </trkpt>
      <trkpt lat="50.98921" lon="2.67496">
        <ele>7.1</ele>
        <time>2020-06-23T14:21:30Z</time>
      </trkpt>
      <trkpt lat="50.98915" lon="2.675">
        <ele>7</ele>
        <time>2020-06-23T14:21:31Z</time>
      </trkpt>
      <trkpt lat="50.98908" lon="2.67505">
        <ele>7</ele>
        <time>2020-06-23T14:21:32Z</time>
      </trkpt>
      <trkpt lat="50.989" lon="2.6751">
        <ele>6.9</ele>
        <time>2020-06-23T14:21:33Z</time>
      </trkpt>
      <trkpt lat="50.98893" lon="2.67516">
        <ele>6.7</ele>
        <time>2020-06-23T14:21:34Z</time>
      </trkpt>
      <trkpt lat="50.98885" lon="2.67521">
        <ele>6.6</ele>
        <time>2020-06-23T14:21:35Z</time>
      </trkpt>
      <trkpt lat="50.98878" lon="2.67525">
        <ele>6.5</ele>
        <time>2020-06-23T14:21:36Z</time>
      </trkpt>
      <trkpt lat="50.9887" lon="2.67532">
        <ele>6.4</ele>
        <time>2020-06-23T14:21:37Z</time>
      </trkpt>
      <trkpt lat="50.98863" lon="2.67537">
        <ele>6.4</ele>
        <time>2020-06-23T14:21:38Z</time>
      </trkpt>
      <trkpt lat="50.98855" lon="2.67543">
        <ele>6.3</ele>
        <time>2020-06-23T14:21:39Z</time>
      </trkpt>
      <trkpt lat="50.98848" lon="2.6755">
        <ele>6.1</ele>
        <time>2020-06-23T14:21:40Z</time>
      </trkpt>
      <trkpt lat="50.9884" lon="2.67556">
        <ele>6</ele>
        <time>2020-06-23T14:21:41Z</time>
      </trkpt>
      <trkpt lat="50.98833" lon="2.67562">
        <ele>5.8</ele>
        <time>2020-06-23T14:21:42Z</time>
      </trkpt>
      <trkpt lat="50.98825" lon="2.67569">
        <ele>5.7</ele>
        <time>2020-06-23T14:21:43Z</time>
      </trkpt>
      <trkpt lat="50.98818" lon="2.67575">
        <ele>5.6</ele>
        <time>2020-06-23T14:21:44Z</time>
      </trkpt>
      <trkpt lat="50.9881" lon="2.67582">
        <ele>5.6</ele>
        <time>2020-06-23T14:21:45Z</time>
      </trkpt>
      <trkpt lat="50.98803" lon="2.67589">
        <ele>5.5</ele>
        <time>2020-06-23T14:21:46Z</time>
      </trkpt>
      <trkpt lat="50.98796" lon="2.67596">
        <ele>5.4</ele>
        <time>2020-06-23T14:21:47Z</time>
      </trkpt>
      <trkpt lat="50.98789" lon="2.67604">
        <ele>5.3</ele>
        <time>2020-06-23T14:21:48Z</time>
      </trkpt>
      <trkpt lat="50.98783" lon="2.67611">
        <ele>5.2</ele>
        <time>2020-06-23T14:21:49Z</time>
      </trkpt>
      <trkpt lat="50.98776" lon="2.67619">
        <ele>5.2</ele>
        <time>2020-06-23T14:21:50Z</time>
      </trkpt>
      <trkpt lat="50.98769" lon="2.67626">
        <ele>5.1</ele>
        <time>2020-06-23T14:21:51Z</time>
      </trkpt>
      <trkpt lat="50.98762" lon="2.67635">
        <ele>5.1</ele>
        <time>2020-06-23T14:21:52Z</time>
      </trkpt>
      <trkpt lat="50.98756" lon="2.67644">
        <ele>5.1</ele>
        <time>2020-06-23T14:21:53Z</time>
      </trkpt>
      <trkpt lat="50.9875" lon="2.67652">
        <ele>5.1</ele>
        <time>2020-06-23T14:21:54Z</time>
      </trkpt>
      <trkpt lat="50.98745" lon="2.67661">
        <ele>5.1</ele>
        <time>2020-06-23T14:21:55Z</time>
      </trkpt>
      <trkpt lat="50.9874" lon="2.67671">
        <ele>5.1</ele>
        <time>2020-06-23T14:21:56Z</time>
      </trkpt>
      <trkpt lat="50.98735" lon="2.67681">
        <ele>5.1</ele>
        <time>2020-06-23T14:21:57Z</time>
      </trkpt>
      <trkpt lat="50.9873" lon="2.67691">
        <ele>5.1</ele>
        <time>2020-06-23T14:21:58Z</time>
      </trkpt>
      <trkpt lat="50.98725" lon="2.67701">
        <ele>5.1</ele>
        <time>2020-06-23T14:21:59Z</time>
      </trkpt>
      <trkpt lat="50.9872" lon="2.6771">
        <ele>5.1</ele>
        <time>2020-06-23T14:22:00Z</time>
      </trkpt>
      <trkpt lat="50.98715" lon="2.67719">
        <ele>5.1</ele>
        <time>2020-06-23T14:22:01Z</time>
      </trkpt>
      <trkpt lat="50.9871" lon="2.67727">
        <ele>5.1</ele>
        <time>2020-06-23T14:22:02Z</time>
      </trkpt>
      <trkpt lat="50.98705" lon="2.67737">
        <ele>5.1</ele>
        <time>2020-06-23T14:22:03Z</time>
      </trkpt>
      <trkpt lat="50.987" lon="2.67746">
        <ele>5.1</ele>
        <time>2020-06-23T14:22:04Z</time>
      </trkpt>
      <trkpt lat="50.98695" lon="2.67755">
        <ele>5.1</ele>
        <time>2020-06-23T14:22:05Z</time>
      </trkpt>
      <trkpt lat="50.9869" lon="2.67764">
        <ele>5.2</ele>
        <time>2020-06-23T14:22:06Z</time>
      </trkpt>
      <trkpt lat="50.98685" lon="2.67773">
        <ele>5.2</ele>
        <time>2020-06-23T14:22:07Z</time>
      </trkpt>
      <trkpt lat="50.9868" lon="2.67782">
        <ele>5.2</ele>
        <time>2020-06-23T14:22:08Z</time>
      </trkpt>
      <trkpt lat="50.98674" lon="2.67791">
        <ele>5.1</ele>
        <time>2020-06-23T14:22:09Z</time>
      </trkpt>
      <trkpt lat="50.98668" lon="2.67798">
        <ele>5.1</ele>
        <time>2020-06-23T14:22:10Z</time>
      </trkpt>
      <trkpt lat="50.98662" lon="2.67805">
        <ele>5.1</ele>
        <time>2020-06-23T14:22:11Z</time>
      </trkpt>
      <trkpt lat="50.98656" lon="2.67812">
        <ele>5.1</ele>
        <time>2020-06-23T14:22:12Z</time>
      </trkpt>
      <trkpt lat="50.9865" lon="2.6782">
        <ele>5.1</ele>
        <time>2020-06-23T14:22:13Z</time>
      </trkpt>
      <trkpt lat="50.98644" lon="2.67826">
        <ele>5.1</ele>
        <time>2020-06-23T14:22:14Z</time>
      </trkpt>
      <trkpt lat="50.98638" lon="2.67834">
        <ele>5.1</ele>
        <time>2020-06-23T14:22:15Z</time>
      </trkpt>
      <trkpt lat="50.98632" lon="2.67841">
        <ele>5.1</ele>
        <time>2020-06-23T14:22:16Z</time>
      </trkpt>
      <trkpt lat="50.98625" lon="2.67848">
        <ele>5.1</ele>
        <time>2020-06-23T14:22:17Z</time>
      </trkpt>
      <trkpt lat="50.98619" lon="2.67855">
        <ele>5.2</ele>
        <time>2020-06-23T14:22:18Z</time>
      </trkpt>
      <trkpt lat="50.98612" lon="2.67861">
        <ele>5.2</ele>
        <time>2020-06-23T14:22:19Z</time>
      </trkpt>
      <trkpt lat="50.98606" lon="2.67867">
        <ele>5.2</ele>
        <time>2020-06-23T14:22:20Z</time>
      </trkpt>
      <trkpt lat="50.98599" lon="2.67874">
        <ele>5.3</ele>
        <time>2020-06-23T14:22:21Z</time>
      </trkpt>
      <trkpt lat="50.98593" lon="2.67881">
        <ele>5.3</ele>
        <time>2020-06-23T14:22:22Z</time>
      </trkpt>
      <trkpt lat="50.98587" lon="2.67888">
        <ele>5.3</ele>
        <time>2020-06-23T14:22:23Z</time>
      </trkpt>
      <trkpt lat="50.98581" lon="2.67895">
        <ele>5.3</ele>
        <time>2020-06-23T14:22:24Z</time>
      </trkpt>
      <trkpt lat="50.98575" lon="2.67902">
        <ele>5.3</ele>
        <time>2020-06-23T14:22:25Z</time>
      </trkpt>
      <trkpt lat="50.9857" lon="2.67909">
        <ele>5.3</ele>
        <time>2020-06-23T14:22:26Z</time>
      </trkpt>
      <trkpt lat="50.98564" lon="2.67916">
        <ele>5.3</ele>
        <time>2020-06-23T14:22:27Z</time>
      </trkpt>
      <trkpt lat="50.98559" lon="2.67925">
        <ele>5.3</ele>
        <time>2020-06-23T14:22:28Z</time>
      </trkpt>
      <trkpt lat="50.98553" lon="2.67933">
        <ele>5.3</ele>
        <time>2020-06-23T14:22:29Z</time>
      </trkpt>
      <trkpt lat="50.98548" lon="2.67941">
        <ele>5.3</ele>
        <time>2020-06-23T14:22:30Z</time>
      </trkpt>
      <trkpt lat="50.98543" lon="2.6795">
        <ele>5.4</ele>
        <time>2020-06-23T14:22:31Z</time>
      </trkpt>
      <trkpt lat="50.98537" lon="2.67958">
        <ele>5.4</ele>
        <time>2020-06-23T14:22:32Z</time>
      </trkpt>
      <trkpt lat="50.98532" lon="2.67966">
        <ele>5.4</ele>
        <time>2020-06-23T14:22:33Z</time>
      </trkpt>
      <trkpt lat="50.98527" lon="2.67974">
        <ele>5.5</ele>
        <time>2020-06-23T14:22:34Z</time>
      </trkpt>
      <trkpt lat="50.98521" lon="2.67982">
        <ele>5.5</ele>
        <time>2020-06-23T14:22:35Z</time>
      </trkpt>
      <trkpt lat="50.98516" lon="2.67991">
        <ele>5.5</ele>
        <time>2020-06-23T14:22:36Z</time>
      </trkpt>
      <trkpt lat="50.9851" lon="2.68">
        <ele>5.6</ele>
        <time>2020-06-23T14:22:37Z</time>
      </trkpt>
      <trkpt lat="50.98505" lon="2.68008">
        <ele>5.6</ele>
        <time>2020-06-23T14:22:38Z</time>
      </trkpt>
      <trkpt lat="50.985" lon="2.68017">
        <ele>5.6</ele>
        <time>2020-06-23T14:22:39Z</time>
      </trkpt>
      <trkpt lat="50.98494" lon="2.68025">
        <ele>5.7</ele>
        <time>2020-06-23T14:22:40Z</time>
      </trkpt>
      <trkpt lat="50.98489" lon="2.68033">
        <ele>5.7</ele>
        <time>2020-06-23T14:22:41Z</time>
      </trkpt>
      <trkpt lat="50.98483" lon="2.68041">
        <ele>5.7</ele>
        <time>2020-06-23T14:22:42Z</time>
      </trkpt>
      <trkpt lat="50.98477" lon="2.68049">
        <ele>5.8</ele>
        <time>2020-06-23T14:22:43Z</time>
      </trkpt>
      <trkpt lat="50.98472" lon="2.68057">
        <ele>5.8</ele>
        <time>2020-06-23T14:22:44Z</time>
      </trkpt>
      <trkpt lat="50.98467" lon="2.68065">
        <ele>5.8</ele>
        <time>2020-06-23T14:22:45Z</time>
      </trkpt>
      <trkpt lat="50.98461" lon="2.68074">
        <ele>5.8</ele>
        <time>2020-06-23T14:22:46Z</time>
      </trkpt>
      <trkpt lat="50.98455" lon="2.68082">
        <ele>5.8</ele>
        <time>2020-06-23T14:22:47Z</time>
      </trkpt>
      <trkpt lat="50.9845" lon="2.6809">
        <ele>5.8</ele>
        <time>2020-06-23T14:22:48Z</time>
      </trkpt>
      <trkpt lat="50.98445" lon="2.68098">
        <ele>5.9</ele>
        <time>2020-06-23T14:22:49Z</time>
      </trkpt>
      <trkpt lat="50.98439" lon="2.68106">
        <ele>5.9</ele>
        <time>2020-06-23T14:22:50Z</time>
      </trkpt>
      <trkpt lat="50.98435" lon="2.68114">
        <ele>5.9</ele>
        <time>2020-06-23T14:22:51Z</time>
      </trkpt>
      <trkpt lat="50.98429" lon="2.68121">
        <ele>5.9</ele>
        <time>2020-06-23T14:22:52Z</time>
      </trkpt>
      <trkpt lat="50.98424" lon="2.68129">
        <ele>6</ele>
        <time>2020-06-23T14:22:53Z</time>
      </trkpt>
      <trkpt lat="50.98418" lon="2.68137">
        <ele>6</ele>
        <time>2020-06-23T14:22:54Z</time>
      </trkpt>
      <trkpt lat="50.98413" lon="2.68145">
        <ele>6</ele>
        <time>2020-06-23T14:22:55Z</time>
      </trkpt>
      <trkpt lat="50.98407" lon="2.68153">
        <ele>6</ele>
        <time>2020-06-23T14:22:56Z</time>
      </trkpt>
      <trkpt lat="50.98402" lon="2.6816">
        <ele>6</ele>
        <time>2020-06-23T14:22:57Z</time>
      </trkpt>
      <trkpt lat="50.98397" lon="2.68168">
        <ele>6</ele>
        <time>2020-06-23T14:22:58Z</time>
      </trkpt>
      <trkpt lat="50.98391" lon="2.68175">
        <ele>6</ele>
        <time>2020-06-23T14:22:59Z</time>
      </trkpt>
      <trkpt lat="50.98386" lon="2.6818">
        <ele>6</ele>
        <time>2020-06-23T14:23:00Z</time>
      </trkpt>
      <trkpt lat="50.98378" lon="2.68185">
        <ele>5.9</ele>
        <time>2020-06-23T14:23:01Z</time>
      </trkpt>
      <trkpt lat="50.98372" lon="2.68188">
        <ele>5.9</ele>
        <time>2020-06-23T14:23:02Z</time>
      </trkpt>
      <trkpt lat="50.98365" lon="2.68191">
        <ele>6</ele>
        <time>2020-06-23T14:23:03Z</time>
      </trkpt>
      <trkpt lat="50.98358" lon="2.68196">
        <ele>6.1</ele>
        <time>2020-06-23T14:23:04Z</time>
      </trkpt>
      <trkpt lat="50.98351" lon="2.682">
        <ele>6.2</ele>
        <time>2020-06-23T14:23:05Z</time>
      </trkpt>
      <trkpt lat="50.98345" lon="2.68206">
        <ele>6.2</ele>
        <time>2020-06-23T14:23:06Z</time>
      </trkpt>
      <trkpt lat="50.98338" lon="2.68211">
        <ele>6.2</ele>
        <time>2020-06-23T14:23:07Z</time>
      </trkpt>
      <trkpt lat="50.98331" lon="2.68215">
        <ele>6.2</ele>
        <time>2020-06-23T14:23:08Z</time>
      </trkpt>
      <trkpt lat="50.98325" lon="2.6822">
        <ele>6.2</ele>
        <time>2020-06-23T14:23:09Z</time>
      </trkpt>
      <trkpt lat="50.98318" lon="2.68226">
        <ele>6.2</ele>
        <time>2020-06-23T14:23:10Z</time>
      </trkpt>
      <trkpt lat="50.98311" lon="2.6823">
        <ele>6.2</ele>
        <time>2020-06-23T14:23:11Z</time>
      </trkpt>
      <trkpt lat="50.98305" lon="2.68235">
        <ele>6.2</ele>
        <time>2020-06-23T14:23:12Z</time>
      </trkpt>
      <trkpt lat="50.98299" lon="2.68241">
        <ele>6.2</ele>
        <time>2020-06-23T14:23:13Z</time>
      </trkpt>
      <trkpt lat="50.98292" lon="2.68245">
        <ele>6.2</ele>
        <time>2020-06-23T14:23:14Z</time>
      </trkpt>
      <trkpt lat="50.98285" lon="2.6825">
        <ele>6.3</ele>
        <time>2020-06-23T14:23:15Z</time>
      </trkpt>
      <trkpt lat="50.98279" lon="2.68255">
        <ele>6.3</ele>
        <time>2020-06-23T14:23:16Z</time>
      </trkpt>
      <trkpt lat="50.98273" lon="2.68261">
        <ele>6.4</ele>
        <time>2020-06-23T14:23:17Z</time>
      </trkpt>
      <trkpt lat="50.98266" lon="2.68267">
        <ele>6.5</ele>
        <time>2020-06-23T14:23:18Z</time>
      </trkpt>
      <trkpt lat="50.98261" lon="2.68276">
        <ele>6.6</ele>
        <time>2020-06-23T14:23:19Z</time>
      </trkpt>
      <trkpt lat="50.98256" lon="2.68285">
        <ele>6.7</ele>
        <time>2020-06-23T14:23:20Z</time>
      </trkpt>
      <trkpt lat="50.98252" lon="2.68294">
        <ele>6.8</ele>
        <time>2020-06-23T14:23:21Z</time>
      </trkpt>
      <trkpt lat="50.98248" lon="2.68303">
        <ele>6.9</ele>
        <time>2020-06-23T14:23:22Z</time>
      </trkpt>
      <trkpt lat="50.98244" lon="2.68309">
        <ele>6.9</ele>
        <time>2020-06-23T14:23:23Z</time>
      </trkpt>
      <trkpt lat="50.98239" lon="2.68316">
        <ele>7</ele>
        <time>2020-06-23T14:23:24Z</time>
      </trkpt>
      <trkpt lat="50.98232" lon="2.6832">
        <ele>7.1</ele>
        <time>2020-06-23T14:23:25Z</time>
      </trkpt>
      <trkpt lat="50.98226" lon="2.68324">
        <ele>7.2</ele>
        <time>2020-06-23T14:23:26Z</time>
      </trkpt>
      <trkpt lat="50.9822" lon="2.68329">
        <ele>7.3</ele>
        <time>2020-06-23T14:23:27Z</time>
      </trkpt>
      <trkpt lat="50.98214" lon="2.68333">
        <ele>7.4</ele>
        <time>2020-06-23T14:23:28Z</time>
      </trkpt>
      <trkpt lat="50.98208" lon="2.68338">
        <ele>7.5</ele>
        <time>2020-06-23T14:23:29Z</time>
      </trkpt>
      <trkpt lat="50.98202" lon="2.68342">
        <ele>7.6</ele>
        <time>2020-06-23T14:23:30Z</time>
      </trkpt>
      <trkpt lat="50.98195" lon="2.68347">
        <ele>7.6</ele>
        <time>2020-06-23T14:23:31Z</time>
      </trkpt>
      <trkpt lat="50.9819" lon="2.6835">
        <ele>7.6</ele>
        <time>2020-06-23T14:23:32Z</time>
      </trkpt>
      <trkpt lat="50.98185" lon="2.68354">
        <ele>7.6</ele>
        <time>2020-06-23T14:23:33Z</time>
      </trkpt>
      <trkpt lat="50.98179" lon="2.68358">
        <ele>7.6</ele>
        <time>2020-06-23T14:23:34Z</time>
      </trkpt>
      <trkpt lat="50.98173" lon="2.68362">
        <ele>7.7</ele>
        <time>2020-06-23T14:23:35Z</time>
      </trkpt>
      <trkpt lat="50.98168" lon="2.68366">
        <ele>7.7</ele>
        <time>2020-06-23T14:23:36Z</time>
      </trkpt>
      <trkpt lat="50.98163" lon="2.68371">
        <ele>7.7</ele>
        <time>2020-06-23T14:23:37Z</time>
      </trkpt>
      <trkpt lat="50.98158" lon="2.68375">
        <ele>7.8</ele>
        <time>2020-06-23T14:23:38Z</time>
      </trkpt>
      <trkpt lat="50.98152" lon="2.68379">
        <ele>7.8</ele>
        <time>2020-06-23T14:23:39Z</time>
      </trkpt>
      <trkpt lat="50.98147" lon="2.68382">
        <ele>7.8</ele>
        <time>2020-06-23T14:23:40Z</time>
      </trkpt>
      <trkpt lat="50.98142" lon="2.68386">
        <ele>7.9</ele>
        <time>2020-06-23T14:23:41Z</time>
      </trkpt>
      <trkpt lat="50.98137" lon="2.6839">
        <ele>7.9</ele>
        <time>2020-06-23T14:23:42Z</time>
      </trkpt>
      <trkpt lat="50.98131" lon="2.68396">
        <ele>8</ele>
        <time>2020-06-23T14:23:43Z</time>
      </trkpt>
      <trkpt lat="50.98126" lon="2.68401">
        <ele>8</ele>
        <time>2020-06-23T14:23:44Z</time>
      </trkpt>
      <trkpt lat="50.98121" lon="2.68404">
        <ele>8.1</ele>
        <time>2020-06-23T14:23:45Z</time>
      </trkpt>
      <trkpt lat="50.98117" lon="2.68408">
        <ele>8.1</ele>
        <time>2020-06-23T14:23:46Z</time>
      </trkpt>
      <trkpt lat="50.98113" lon="2.68411">
        <ele>8.2</ele>
        <time>2020-06-23T14:23:47Z</time>
      </trkpt>
      <trkpt lat="50.9811" lon="2.68415">
        <ele>8.2</ele>
        <time>2020-06-23T14:23:48Z</time>
      </trkpt>
      <trkpt lat="50.98105" lon="2.68422">
        <ele>8.2</ele>
        <time>2020-06-23T14:23:49Z</time>
      </trkpt>
      <trkpt lat="50.98103" lon="2.68429">
        <ele>8.1</ele>
        <time>2020-06-23T14:23:50Z</time>
      </trkpt>
      <trkpt lat="50.98101" lon="2.68436">
        <ele>8.1</ele>
        <time>2020-06-23T14:23:51Z</time>
      </trkpt>
      <trkpt lat="50.98104" lon="2.68444">
        <ele>8</ele>
        <time>2020-06-23T14:23:52Z</time>
      </trkpt>
      <trkpt lat="50.98106" lon="2.68451">
        <ele>8</ele>
        <time>2020-06-23T14:23:53Z</time>
      </trkpt>
      <trkpt lat="50.98109" lon="2.68457">
        <ele>7.9</ele>
        <time>2020-06-23T14:23:54Z</time>
      </trkpt>
      <trkpt lat="50.98111" lon="2.68462">
        <ele>7.9</ele>
        <time>2020-06-23T14:23:55Z</time>
      </trkpt>
      <trkpt lat="50.98114" lon="2.68467">
        <ele>7.9</ele>
        <time>2020-06-23T14:23:56Z</time>
      </trkpt>
      <trkpt lat="50.98116" lon="2.68472">
        <ele>7.9</ele>
        <time>2020-06-23T14:23:57Z</time>
      </trkpt>
      <trkpt lat="50.9812" lon="2.68478">
        <ele>7.9</ele>
        <time>2020-06-23T14:23:58Z</time>
      </trkpt>
      <trkpt lat="50.98124" lon="2.68484">
        <ele>7.9</ele>
        <time>2020-06-23T14:23:59Z</time>
      </trkpt>
      <trkpt lat="50.98128" lon="2.68489">
        <ele>7.9</ele>
        <time>2020-06-23T14:24:00Z</time>
      </trkpt>
      <trkpt lat="50.98133" lon="2.68495">
        <ele>7.9</ele>
        <time>2020-06-23T14:24:01Z</time>
      </trkpt>
      <trkpt lat="50.98138" lon="2.68501">
        <ele>7.9</ele>
        <time>2020-06-23T14:24:02Z</time>
      </trkpt>
      <trkpt lat="50.98144" lon="2.68507">
        <ele>7.9</ele>
        <time>2020-06-23T14:24:03Z</time>
      </trkpt>
      <trkpt lat="50.98148" lon="2.68513">
        <ele>7.9</ele>
        <time>2020-06-23T14:24:04Z</time>
      </trkpt>
      <trkpt lat="50.98152" lon="2.68519">
        <ele>7.9</ele>
        <time>2020-06-23T14:24:05Z</time>
      </trkpt>
      <trkpt lat="50.98154" lon="2.68526">
        <ele>7.9</ele>
        <time>2020-06-23T14:24:06Z</time>
      </trkpt>
      <trkpt lat="50.98159" lon="2.68533">
        <ele>7.9</ele>
        <time>2020-06-23T14:24:07Z</time>
      </trkpt>
      <trkpt lat="50.98163" lon="2.68539">
        <ele>8</ele>
        <time>2020-06-23T14:24:08Z</time>
      </trkpt>
      <trkpt lat="50.98166" lon="2.68545">
        <ele>8</ele>
        <time>2020-06-23T14:24:09Z</time>
      </trkpt>
      <trkpt lat="50.9817" lon="2.6855">
        <ele>8</ele>
        <time>2020-06-23T14:24:10Z</time>
      </trkpt>
      <trkpt lat="50.98174" lon="2.68556">
        <ele>8</ele>
        <time>2020-06-23T14:24:11Z</time>
      </trkpt>
      <trkpt lat="50.98177" lon="2.68561">
        <ele>8.1</ele>
        <time>2020-06-23T14:24:12Z</time>
      </trkpt>
      <trkpt lat="50.98182" lon="2.68568">
        <ele>8.1</ele>
        <time>2020-06-23T14:24:13Z</time>
      </trkpt>
      <trkpt lat="50.98185" lon="2.68574">
        <ele>8.2</ele>
        <time>2020-06-23T14:24:14Z</time>
      </trkpt>
      <trkpt lat="50.98189" lon="2.6858">
        <ele>8.2</ele>
        <time>2020-06-23T14:24:15Z</time>
      </trkpt>
      <trkpt lat="50.98193" lon="2.68586">
        <ele>8.2</ele>
        <time>2020-06-23T14:24:16Z</time>
      </trkpt>
      <trkpt lat="50.98198" lon="2.68592">
        <ele>8.3</ele>
        <time>2020-06-23T14:24:17Z</time>
      </trkpt>
      <trkpt lat="50.98202" lon="2.68596">
        <ele>8.3</ele>
        <time>2020-06-23T14:24:18Z</time>
      </trkpt>
      <trkpt lat="50.98207" lon="2.686">
        <ele>8.3</ele>
        <time>2020-06-23T14:24:19Z</time>
      </trkpt>
      <trkpt lat="50.98211" lon="2.68604">
        <ele>8.3</ele>
        <time>2020-06-23T14:24:20Z</time>
      </trkpt>
      <trkpt lat="50.98215" lon="2.68608">
        <ele>8.3</ele>
        <time>2020-06-23T14:24:21Z</time>
      </trkpt>
      <trkpt lat="50.98221" lon="2.68611">
        <ele>8.3</ele>
        <time>2020-06-23T14:24:22Z</time>
      </trkpt>
      <trkpt lat="50.98227" lon="2.68616">
        <ele>8.3</ele>
        <time>2020-06-23T14:24:23Z</time>
      </trkpt>
      <trkpt lat="50.98232" lon="2.68621">
        <ele>8.3</ele>
        <time>2020-06-23T14:24:24Z</time>
      </trkpt>
      <trkpt lat="50.98236" lon="2.68625">
        <ele>8.3</ele>
        <time>2020-06-23T14:24:25Z</time>
      </trkpt>
      <trkpt lat="50.9824" lon="2.68632">
        <ele>8.4</ele>
        <time>2020-06-23T14:24:26Z</time>
      </trkpt>
      <trkpt lat="50.98244" lon="2.68639">
        <ele>8.4</ele>
        <time>2020-06-23T14:24:27Z</time>
      </trkpt>
      <trkpt lat="50.98248" lon="2.68645">
        <ele>8.4</ele>
        <time>2020-06-23T14:24:28Z</time>
      </trkpt>
      <trkpt lat="50.98252" lon="2.68653">
        <ele>8.4</ele>
        <time>2020-06-23T14:24:29Z</time>
      </trkpt>
      <trkpt lat="50.98257" lon="2.68661">
        <ele>8.4</ele>
        <time>2020-06-23T14:24:30Z</time>
      </trkpt>
      <trkpt lat="50.9826" lon="2.68669">
        <ele>8.4</ele>
        <time>2020-06-23T14:24:31Z</time>
      </trkpt>
      <trkpt lat="50.98263" lon="2.68676">
        <ele>8.4</ele>
        <time>2020-06-23T14:24:32Z</time>
      </trkpt>
      <trkpt lat="50.98267" lon="2.68683">
        <ele>8.4</ele>
        <time>2020-06-23T14:24:33Z</time>
      </trkpt>
      <trkpt lat="50.98271" lon="2.68689">
        <ele>8.5</ele>
        <time>2020-06-23T14:24:34Z</time>
      </trkpt>
      <trkpt lat="50.98274" lon="2.68697">
        <ele>8.5</ele>
        <time>2020-06-23T14:24:35Z</time>
      </trkpt>
      <trkpt lat="50.98278" lon="2.68704">
        <ele>8.5</ele>
        <time>2020-06-23T14:24:36Z</time>
      </trkpt>
      <trkpt lat="50.98283" lon="2.68712">
        <ele>8.5</ele>
        <time>2020-06-23T14:24:37Z</time>
      </trkpt>
      <trkpt lat="50.98286" lon="2.68721">
        <ele>8.5</ele>
        <time>2020-06-23T14:24:38Z</time>
      </trkpt>
      <trkpt lat="50.98291" lon="2.68728">
        <ele>8.6</ele>
        <time>2020-06-23T14:24:39Z</time>
      </trkpt>
      <trkpt lat="50.98294" lon="2.68736">
        <ele>8.6</ele>
        <time>2020-06-23T14:24:40Z</time>
      </trkpt>
      <trkpt lat="50.98298" lon="2.68743">
        <ele>8.7</ele>
        <time>2020-06-23T14:24:41Z</time>
      </trkpt>
      <trkpt lat="50.98301" lon="2.6875">
        <ele>8.8</ele>
        <time>2020-06-23T14:24:42Z</time>
      </trkpt>
      <trkpt lat="50.98305" lon="2.68756">
        <ele>8.8</ele>
        <time>2020-06-23T14:24:43Z</time>
      </trkpt>
      <trkpt lat="50.98308" lon="2.68762">
        <ele>8.9</ele>
        <time>2020-06-23T14:24:44Z</time>
      </trkpt>
      <trkpt lat="50.98312" lon="2.68768">
        <ele>8.9</ele>
        <time>2020-06-23T14:24:45Z</time>
      </trkpt>
      <trkpt lat="50.98315" lon="2.68775">
        <ele>9</ele>
        <time>2020-06-23T14:24:46Z</time>
      </trkpt>
      <trkpt lat="50.98317" lon="2.68782">
        <ele>9</ele>
        <time>2020-06-23T14:24:47Z</time>
      </trkpt>
      <trkpt lat="50.9832" lon="2.68789">
        <ele>9.1</ele>
        <time>2020-06-23T14:24:48Z</time>
      </trkpt>
      <trkpt lat="50.98324" lon="2.68797">
        <ele>9.1</ele>
        <time>2020-06-23T14:24:49Z</time>
      </trkpt>
      <trkpt lat="50.98328" lon="2.68805">
        <ele>9.2</ele>
        <time>2020-06-23T14:24:50Z</time>
      </trkpt>
      <trkpt lat="50.98331" lon="2.68813">
        <ele>9.2</ele>
        <time>2020-06-23T14:24:51Z</time>
      </trkpt>
      <trkpt lat="50.98334" lon="2.6882">
        <ele>9.2</ele>
        <time>2020-06-23T14:24:52Z</time>
      </trkpt>
      <trkpt lat="50.98338" lon="2.68827">
        <ele>9.2</ele>
        <time>2020-06-23T14:24:53Z</time>
      </trkpt>
      <trkpt lat="50.98342" lon="2.68833">
        <ele>9.3</ele>
        <time>2020-06-23T14:24:54Z</time>
      </trkpt>
      <trkpt lat="50.98345" lon="2.68839">
        <ele>9.3</ele>
        <time>2020-06-23T14:24:55Z</time>
      </trkpt>
      <trkpt lat="50.98348" lon="2.68846">
        <ele>9.3</ele>
        <time>2020-06-23T14:24:56Z</time>
      </trkpt>
      <trkpt lat="50.98353" lon="2.68856">
        <ele>9.4</ele>
        <time>2020-06-23T14:24:57Z</time>
      </trkpt>
      <trkpt lat="50.98355" lon="2.68862">
        <ele>9.4</ele>
        <time>2020-06-23T14:24:58Z</time>
      </trkpt>
      <trkpt lat="50.98358" lon="2.68868">
        <ele>9.4</ele>
        <time>2020-06-23T14:24:59Z</time>
      </trkpt>
      <trkpt lat="50.98361" lon="2.68873">
        <ele>9.4</ele>
        <time>2020-06-23T14:25:00Z</time>
      </trkpt>
      <trkpt lat="50.98366" lon="2.68878">
        <ele>9.4</ele>
        <time>2020-06-23T14:25:01Z</time>
      </trkpt>
      <trkpt lat="50.9837" lon="2.68885">
        <ele>9.5</ele>
        <time>2020-06-23T14:25:02Z</time>
      </trkpt>
      <trkpt lat="50.98375" lon="2.68892">
        <ele>9.5</ele>
        <time>2020-06-23T14:25:03Z</time>
      </trkpt>
      <trkpt lat="50.98379" lon="2.68897">
        <ele>9.5</ele>
        <time>2020-06-23T14:25:04Z</time>
      </trkpt>
      <trkpt lat="50.98384" lon="2.68905">
        <ele>9.6</ele>
        <time>2020-06-23T14:25:05Z</time>
      </trkpt>
      <trkpt lat="50.98387" lon="2.68912">
        <ele>9.6</ele>
        <time>2020-06-23T14:25:06Z</time>
      </trkpt>
      <trkpt lat="50.98391" lon="2.6892">
        <ele>9.7</ele>
        <time>2020-06-23T14:25:07Z</time>
      </trkpt>
      <trkpt lat="50.98394" lon="2.68927">
        <ele>9.8</ele>
        <time>2020-06-23T14:25:08Z</time>
      </trkpt>
      <trkpt lat="50.98397" lon="2.68933">
        <ele>9.9</ele>
        <time>2020-06-23T14:25:09Z</time>
      </trkpt>
      <trkpt lat="50.984" lon="2.68939">
        <ele>10</ele>
        <time>2020-06-23T14:25:10Z</time>
      </trkpt>
      <trkpt lat="50.98403" lon="2.68946">
        <ele>10.1</ele>
        <time>2020-06-23T14:25:11Z</time>
      </trkpt>
      <trkpt lat="50.98406" lon="2.68952">
        <ele>10.3</ele>
        <time>2020-06-23T14:25:12Z</time>
      </trkpt>
      <trkpt lat="50.98409" lon="2.6896">
        <ele>10.5</ele>
        <time>2020-06-23T14:25:13Z</time>
      </trkpt>
      <trkpt lat="50.98412" lon="2.68966">
        <ele>10.7</ele>
        <time>2020-06-23T14:25:14Z</time>
      </trkpt>
      <trkpt lat="50.98413" lon="2.68972">
        <ele>10.9</ele>
        <time>2020-06-23T14:25:15Z</time>
      </trkpt>
      <trkpt lat="50.98414" lon="2.68977">
        <ele>11</ele>
        <time>2020-06-23T14:25:16Z</time>
      </trkpt>
      <trkpt lat="50.98416" lon="2.68981">
        <ele>11.4</ele>
        <time>2020-06-23T14:25:17Z</time>
      </trkpt>
      <trkpt lat="50.98417" lon="2.68986">
        <ele>11.3</ele>
        <time>2020-06-23T14:25:18Z</time>
      </trkpt>
      <trkpt lat="50.98416" lon="2.6899">
        <ele>11.3</ele>
        <time>2020-06-23T14:25:19Z</time>
      </trkpt>
      <trkpt lat="50.98415" lon="2.68991">
        <ele>11.3</ele>
        <time>2020-06-23T14:25:20Z</time>
      </trkpt>
      <trkpt lat="50.98412" lon="2.6899">
        <ele>11.3</ele>
        <time>2020-06-23T14:25:21Z</time>
      </trkpt>
      <trkpt lat="50.98408" lon="2.68989">
        <ele>11.3</ele>
        <time>2020-06-23T14:25:22Z</time>
      </trkpt>
      <trkpt lat="50.98402" lon="2.6899">
        <ele>11.2</ele>
        <time>2020-06-23T14:25:23Z</time>
      </trkpt>
      <trkpt lat="50.98398" lon="2.68991">
        <ele>11.2</ele>
        <time>2020-06-23T14:25:24Z</time>
      </trkpt>
      <trkpt lat="50.98394" lon="2.68993">
        <ele>11.2</ele>
        <time>2020-06-23T14:25:25Z</time>
      </trkpt>
      <trkpt lat="50.98388" lon="2.68995">
        <ele>11.2</ele>
        <time>2020-06-23T14:25:26Z</time>
      </trkpt>
      <trkpt lat="50.98383" lon="2.68997">
        <ele>11.2</ele>
        <time>2020-06-23T14:25:27Z</time>
      </trkpt>
      <trkpt lat="50.98376" lon="2.68999">
        <ele>11.1</ele>
        <time>2020-06-23T14:25:28Z</time>
      </trkpt>
      <trkpt lat="50.98371" lon="2.69">
        <ele>11.1</ele>
        <time>2020-06-23T14:25:29Z</time>
      </trkpt>
      <trkpt lat="50.98364" lon="2.69002">
        <ele>11.1</ele>
        <time>2020-06-23T14:25:30Z</time>
      </trkpt>
      <trkpt lat="50.98359" lon="2.69003">
        <ele>11.1</ele>
        <time>2020-06-23T14:25:31Z</time>
      </trkpt>
      <trkpt lat="50.98353" lon="2.69004">
        <ele>11.1</ele>
        <time>2020-06-23T14:25:32Z</time>
      </trkpt>
      <trkpt lat="50.98347" lon="2.69006">
        <ele>11.1</ele>
        <time>2020-06-23T14:25:33Z</time>
      </trkpt>
      <trkpt lat="50.9834" lon="2.69008">
        <ele>11.1</ele>
        <time>2020-06-23T14:25:34Z</time>
      </trkpt>
      <trkpt lat="50.98333" lon="2.6901">
        <ele>11</ele>
        <time>2020-06-23T14:25:35Z</time>
      </trkpt>
      <trkpt lat="50.98325" lon="2.69013">
        <ele>11</ele>
        <time>2020-06-23T14:25:36Z</time>
      </trkpt>
      <trkpt lat="50.98318" lon="2.69015">
        <ele>10.9</ele>
        <time>2020-06-23T14:25:37Z</time>
      </trkpt>
      <trkpt lat="50.98311" lon="2.69016">
        <ele>10.9</ele>
        <time>2020-06-23T14:25:38Z</time>
      </trkpt>
      <trkpt lat="50.98304" lon="2.69018">
        <ele>10.8</ele>
        <time>2020-06-23T14:25:39Z</time>
      </trkpt>
      <trkpt lat="50.98298" lon="2.6902">
        <ele>10.8</ele>
        <time>2020-06-23T14:25:40Z</time>
      </trkpt>
      <trkpt lat="50.98291" lon="2.69022">
        <ele>10.8</ele>
        <time>2020-06-23T14:25:41Z</time>
      </trkpt>
      <trkpt lat="50.98284" lon="2.69024">
        <ele>10.8</ele>
        <time>2020-06-23T14:25:42Z</time>
      </trkpt>
      <trkpt lat="50.98278" lon="2.69025">
        <ele>10.8</ele>
        <time>2020-06-23T14:25:43Z</time>
      </trkpt>
      <trkpt lat="50.98271" lon="2.69027">
        <ele>10.8</ele>
        <time>2020-06-23T14:25:44Z</time>
      </trkpt>
      <trkpt lat="50.98265" lon="2.69028">
        <ele>10.8</ele>
        <time>2020-06-23T14:25:45Z</time>
      </trkpt>
      <trkpt lat="50.98259" lon="2.6903">
        <ele>10.7</ele>
        <time>2020-06-23T14:25:46Z</time>
      </trkpt>
      <trkpt lat="50.98253" lon="2.69031">
        <ele>10.7</ele>
        <time>2020-06-23T14:25:47Z</time>
      </trkpt>
      <trkpt lat="50.98247" lon="2.69033">
        <ele>10.7</ele>
        <time>2020-06-23T14:25:48Z</time>
      </trkpt>
      <trkpt lat="50.9824" lon="2.69034">
        <ele>10.7</ele>
        <time>2020-06-23T14:25:49Z</time>
      </trkpt>
      <trkpt lat="50.98233" lon="2.69036">
        <ele>10.7</ele>
        <time>2020-06-23T14:25:50Z</time>
      </trkpt>
      <trkpt lat="50.98226" lon="2.69038">
        <ele>10.7</ele>
        <time>2020-06-23T14:25:51Z</time>
      </trkpt>
      <trkpt lat="50.9822" lon="2.6904">
        <ele>10.6</ele>
        <time>2020-06-23T14:25:52Z</time>
      </trkpt>
      <trkpt lat="50.98214" lon="2.69042">
        <ele>10.5</ele>
        <time>2020-06-23T14:25:53Z</time>
      </trkpt>
      <trkpt lat="50.98207" lon="2.69044">
        <ele>10.5</ele>
        <time>2020-06-23T14:25:54Z</time>
      </trkpt>
      <trkpt lat="50.982" lon="2.69046">
        <ele>10.4</ele>
        <time>2020-06-23T14:25:55Z</time>
      </trkpt>
      <trkpt lat="50.98194" lon="2.69048">
        <ele>10.4</ele>
        <time>2020-06-23T14:25:56Z</time>
      </trkpt>
      <trkpt lat="50.98187" lon="2.6905">
        <ele>10.4</ele>
        <time>2020-06-23T14:25:57Z</time>
      </trkpt>
      <trkpt lat="50.9818" lon="2.69051">
        <ele>10.3</ele>
        <time>2020-06-23T14:25:58Z</time>
      </trkpt>
      <trkpt lat="50.98173" lon="2.69053">
        <ele>10.3</ele>
        <time>2020-06-23T14:25:59Z</time>
      </trkpt>
      <trkpt lat="50.98166" lon="2.69055">
        <ele>10.4</ele>
        <time>2020-06-23T14:26:00Z</time>
      </trkpt>
      <trkpt lat="50.98159" lon="2.69057">
        <ele>10.4</ele>
        <time>2020-06-23T14:26:01Z</time>
      </trkpt>
      <trkpt lat="50.98153" lon="2.6906">
        <ele>10.4</ele>
        <time>2020-06-23T14:26:02Z</time>
      </trkpt>
      <trkpt lat="50.98146" lon="2.69062">
        <ele>10.4</ele>
        <time>2020-06-23T14:26:03Z</time>
      </trkpt>
      <trkpt lat="50.98139" lon="2.69064">
        <ele>10.4</ele>
        <time>2020-06-23T14:26:04Z</time>
      </trkpt>
      <trkpt lat="50.98132" lon="2.69065">
        <ele>10.4</ele>
        <time>2020-06-23T14:26:05Z</time>
      </trkpt>
      <trkpt lat="50.98125" lon="2.69067">
        <ele>10.4</ele>
        <time>2020-06-23T14:26:06Z</time>
      </trkpt>
      <trkpt lat="50.98118" lon="2.69069">
        <ele>10.3</ele>
        <time>2020-06-23T14:26:07Z</time>
      </trkpt>
      <trkpt lat="50.98111" lon="2.6907">
        <ele>10.2</ele>
        <time>2020-06-23T14:26:08Z</time>
      </trkpt>
      <trkpt lat="50.98104" lon="2.69073">
        <ele>10.1</ele>
        <time>2020-06-23T14:26:09Z</time>
      </trkpt>
      <trkpt lat="50.98097" lon="2.69075">
        <ele>10</ele>
        <time>2020-06-23T14:26:10Z</time>
      </trkpt>
      <trkpt lat="50.9809" lon="2.69077">
        <ele>10</ele>
        <time>2020-06-23T14:26:11Z</time>
      </trkpt>
      <trkpt lat="50.98084" lon="2.69081">
        <ele>10</ele>
        <time>2020-06-23T14:26:12Z</time>
      </trkpt>
      <trkpt lat="50.98077" lon="2.69082">
        <ele>10.1</ele>
        <time>2020-06-23T14:26:13Z</time>
      </trkpt>
      <trkpt lat="50.9807" lon="2.69084">
        <ele>10.1</ele>
        <time>2020-06-23T14:26:14Z</time>
      </trkpt>
      <trkpt lat="50.98063" lon="2.69087">
        <ele>10.1</ele>
        <time>2020-06-23T14:26:15Z</time>
      </trkpt>
      <trkpt lat="50.98057" lon="2.6909">
        <ele>10.1</ele>
        <time>2020-06-23T14:26:16Z</time>
      </trkpt>
      <trkpt lat="50.98051" lon="2.69094">
        <ele>10.1</ele>
        <time>2020-06-23T14:26:17Z</time>
      </trkpt>
      <trkpt lat="50.98044" lon="2.69097">
        <ele>10.1</ele>
        <time>2020-06-23T14:26:18Z</time>
      </trkpt>
      <trkpt lat="50.98038" lon="2.69102">
        <ele>10.1</ele>
        <time>2020-06-23T14:26:19Z</time>
      </trkpt>
      <trkpt lat="50.98032" lon="2.69106">
        <ele>10.2</ele>
        <time>2020-06-23T14:26:20Z</time>
      </trkpt>
      <trkpt lat="50.98025" lon="2.69111">
        <ele>10.2</ele>
        <time>2020-06-23T14:26:21Z</time>
      </trkpt>
      <trkpt lat="50.98019" lon="2.69116">
        <ele>10.2</ele>
        <time>2020-06-23T14:26:22Z</time>
      </trkpt>
      <trkpt lat="50.98012" lon="2.69122">
        <ele>10.3</ele>
        <time>2020-06-23T14:26:23Z</time>
      </trkpt>
      <trkpt lat="50.98006" lon="2.69128">
        <ele>10.3</ele>
        <time>2020-06-23T14:26:24Z</time>
      </trkpt>
      <trkpt lat="50.97999" lon="2.69133">
        <ele>10.4</ele>
        <time>2020-06-23T14:26:25Z</time>
      </trkpt>
      <trkpt lat="50.97992" lon="2.69137">
        <ele>10.4</ele>
        <time>2020-06-23T14:26:26Z</time>
      </trkpt>
      <trkpt lat="50.97986" lon="2.69142">
        <ele>10.5</ele>
        <time>2020-06-23T14:26:27Z</time>
      </trkpt>
      <trkpt lat="50.97979" lon="2.69145">
        <ele>10.5</ele>
        <time>2020-06-23T14:26:28Z</time>
      </trkpt>
      <trkpt lat="50.97972" lon="2.6915">
        <ele>10.6</ele>
        <time>2020-06-23T14:26:29Z</time>
      </trkpt>
      <trkpt lat="50.97966" lon="2.69154">
        <ele>10.6</ele>
        <time>2020-06-23T14:26:30Z</time>
      </trkpt>
      <trkpt lat="50.97959" lon="2.69159">
        <ele>10.7</ele>
        <time>2020-06-23T14:26:31Z</time>
      </trkpt>
      <trkpt lat="50.97953" lon="2.69165">
        <ele>10.7</ele>
        <time>2020-06-23T14:26:32Z</time>
      </trkpt>
      <trkpt lat="50.97949" lon="2.69173">
        <ele>10.7</ele>
        <time>2020-06-23T14:26:33Z</time>
      </trkpt>
      <trkpt lat="50.97943" lon="2.69177">
        <ele>10.7</ele>
        <time>2020-06-23T14:26:34Z</time>
      </trkpt>
      <trkpt lat="50.97937" lon="2.69182">
        <ele>10.6</ele>
        <time>2020-06-23T14:26:35Z</time>
      </trkpt>
      <trkpt lat="50.97932" lon="2.69187">
        <ele>10.6</ele>
        <time>2020-06-23T14:26:36Z</time>
      </trkpt>
      <trkpt lat="50.97927" lon="2.69192">
        <ele>10.6</ele>
        <time>2020-06-23T14:26:37Z</time>
      </trkpt>
      <trkpt lat="50.97923" lon="2.69199">
        <ele>10.6</ele>
        <time>2020-06-23T14:26:38Z</time>
      </trkpt>
      <trkpt lat="50.97917" lon="2.69202">
        <ele>10.6</ele>
        <time>2020-06-23T14:26:39Z</time>
      </trkpt>
      <trkpt lat="50.97911" lon="2.69207">
        <ele>10.6</ele>
        <time>2020-06-23T14:26:40Z</time>
      </trkpt>
      <trkpt lat="50.97905" lon="2.69212">
        <ele>10.7</ele>
        <time>2020-06-23T14:26:41Z</time>
      </trkpt>
      <trkpt lat="50.97899" lon="2.69218">
        <ele>10.7</ele>
        <time>2020-06-23T14:26:42Z</time>
      </trkpt>
      <trkpt lat="50.97894" lon="2.69225">
        <ele>10.7</ele>
        <time>2020-06-23T14:26:43Z</time>
      </trkpt>
      <trkpt lat="50.97888" lon="2.69232">
        <ele>10.7</ele>
        <time>2020-06-23T14:26:44Z</time>
      </trkpt>
      <trkpt lat="50.97882" lon="2.69239">
        <ele>10.8</ele>
        <time>2020-06-23T14:26:45Z</time>
      </trkpt>
      <trkpt lat="50.97876" lon="2.69245">
        <ele>10.8</ele>
        <time>2020-06-23T14:26:46Z</time>
      </trkpt>
      <trkpt lat="50.97869" lon="2.69251">
        <ele>10.8</ele>
        <time>2020-06-23T14:26:47Z</time>
      </trkpt>
      <trkpt lat="50.97864" lon="2.69257">
        <ele>10.7</ele>
        <time>2020-06-23T14:26:48Z</time>
      </trkpt>
      <trkpt lat="50.97857" lon="2.69262">
        <ele>10.6</ele>
        <time>2020-06-23T14:26:49Z</time>
      </trkpt>
      <trkpt lat="50.97851" lon="2.69269">
        <ele>10.7</ele>
        <time>2020-06-23T14:26:50Z</time>
      </trkpt>
      <trkpt lat="50.97845" lon="2.69275">
        <ele>10.7</ele>
        <time>2020-06-23T14:26:51Z</time>
      </trkpt>
      <trkpt lat="50.97839" lon="2.69281">
        <ele>10.6</ele>
        <time>2020-06-23T14:26:52Z</time>
      </trkpt>
      <trkpt lat="50.97834" lon="2.69287">
        <ele>10.6</ele>
        <time>2020-06-23T14:26:53Z</time>
      </trkpt>
      <trkpt lat="50.97828" lon="2.69294">
        <ele>10.5</ele>
        <time>2020-06-23T14:26:54Z</time>
      </trkpt>
      <trkpt lat="50.97822" lon="2.693">
        <ele>10.5</ele>
        <time>2020-06-23T14:26:55Z</time>
      </trkpt>
      <trkpt lat="50.97816" lon="2.69306">
        <ele>10.5</ele>
        <time>2020-06-23T14:26:56Z</time>
      </trkpt>
      <trkpt lat="50.9781" lon="2.69312">
        <ele>10.4</ele>
        <time>2020-06-23T14:26:57Z</time>
      </trkpt>
      <trkpt lat="50.97804" lon="2.69319">
        <ele>10.4</ele>
        <time>2020-06-23T14:26:58Z</time>
      </trkpt>
      <trkpt lat="50.97798" lon="2.69324">
        <ele>10.4</ele>
        <time>2020-06-23T14:26:59Z</time>
      </trkpt>
      <trkpt lat="50.97792" lon="2.6933">
        <ele>10.4</ele>
        <time>2020-06-23T14:27:00Z</time>
      </trkpt>
      <trkpt lat="50.97786" lon="2.69335">
        <ele>10.4</ele>
        <time>2020-06-23T14:27:01Z</time>
      </trkpt>
      <trkpt lat="50.9778" lon="2.69342">
        <ele>10.4</ele>
        <time>2020-06-23T14:27:02Z</time>
      </trkpt>
      <trkpt lat="50.97775" lon="2.6935">
        <ele>10.3</ele>
        <time>2020-06-23T14:27:03Z</time>
      </trkpt>
      <trkpt lat="50.97768" lon="2.69356">
        <ele>10.3</ele>
        <time>2020-06-23T14:27:04Z</time>
      </trkpt>
      <trkpt lat="50.97762" lon="2.69361">
        <ele>10.3</ele>
        <time>2020-06-23T14:27:05Z</time>
      </trkpt>
      <trkpt lat="50.97756" lon="2.69368">
        <ele>10.3</ele>
        <time>2020-06-23T14:27:06Z</time>
      </trkpt>
      <trkpt lat="50.9775" lon="2.69375">
        <ele>10.3</ele>
        <time>2020-06-23T14:27:07Z</time>
      </trkpt>
      <trkpt lat="50.97743" lon="2.69382">
        <ele>9.9</ele>
        <time>2020-06-23T14:27:08Z</time>
      </trkpt>
      <trkpt lat="50.97737" lon="2.69389">
        <ele>9.8</ele>
        <time>2020-06-23T14:27:09Z</time>
      </trkpt>
      <trkpt lat="50.97731" lon="2.69396">
        <ele>9.6</ele>
        <time>2020-06-23T14:27:10Z</time>
      </trkpt>
      <trkpt lat="50.97724" lon="2.69402">
        <ele>9.5</ele>
        <time>2020-06-23T14:27:11Z</time>
      </trkpt>
      <trkpt lat="50.97717" lon="2.69408">
        <ele>9.4</ele>
        <time>2020-06-23T14:27:12Z</time>
      </trkpt>
      <trkpt lat="50.97711" lon="2.69414">
        <ele>9.3</ele>
        <time>2020-06-23T14:27:13Z</time>
      </trkpt>
      <trkpt lat="50.97705" lon="2.69421">
        <ele>9.2</ele>
        <time>2020-06-23T14:27:14Z</time>
      </trkpt>
      <trkpt lat="50.97699" lon="2.69427">
        <ele>9.2</ele>
        <time>2020-06-23T14:27:15Z</time>
      </trkpt>
      <trkpt lat="50.97693" lon="2.69433">
        <ele>9.2</ele>
        <time>2020-06-23T14:27:16Z</time>
      </trkpt>
      <trkpt lat="50.97687" lon="2.69437">
        <ele>9.2</ele>
        <time>2020-06-23T14:27:17Z</time>
      </trkpt>
      <trkpt lat="50.97681" lon="2.69441">
        <ele>9.1</ele>
        <time>2020-06-23T14:27:18Z</time>
      </trkpt>
      <trkpt lat="50.97674" lon="2.69446">
        <ele>9.1</ele>
        <time>2020-06-23T14:27:19Z</time>
      </trkpt>
      <trkpt lat="50.97668" lon="2.69452">
        <ele>9.1</ele>
        <time>2020-06-23T14:27:20Z</time>
      </trkpt>
      <trkpt lat="50.97663" lon="2.69458">
        <ele>9.1</ele>
        <time>2020-06-23T14:27:21Z</time>
      </trkpt>
      <trkpt lat="50.97657" lon="2.69465">
        <ele>9.1</ele>
        <time>2020-06-23T14:27:22Z</time>
      </trkpt>
      <trkpt lat="50.97651" lon="2.69471">
        <ele>9.2</ele>
        <time>2020-06-23T14:27:23Z</time>
      </trkpt>
      <trkpt lat="50.97645" lon="2.69477">
        <ele>9.3</ele>
        <time>2020-06-23T14:27:24Z</time>
      </trkpt>
      <trkpt lat="50.97639" lon="2.69483">
        <ele>9.4</ele>
        <time>2020-06-23T14:27:25Z</time>
      </trkpt>
      <trkpt lat="50.97633" lon="2.69489">
        <ele>9.3</ele>
        <time>2020-06-23T14:27:26Z</time>
      </trkpt>
      <trkpt lat="50.97627" lon="2.69495">
        <ele>9.2</ele>
        <time>2020-06-23T14:27:27Z</time>
      </trkpt>
      <trkpt lat="50.97621" lon="2.69501">
        <ele>9.2</ele>
        <time>2020-06-23T14:27:28Z</time>
      </trkpt>
      <trkpt lat="50.97615" lon="2.69508">
        <ele>9.2</ele>
        <time>2020-06-23T14:27:29Z</time>
      </trkpt>
      <trkpt lat="50.97609" lon="2.69515">
        <ele>9.2</ele>
        <time>2020-06-23T14:27:30Z</time>
      </trkpt>
      <trkpt lat="50.97603" lon="2.69521">
        <ele>9.2</ele>
        <time>2020-06-23T14:27:31Z</time>
      </trkpt>
      <trkpt lat="50.97597" lon="2.69526">
        <ele>9.2</ele>
        <time>2020-06-23T14:27:32Z</time>
      </trkpt>
      <trkpt lat="50.97591" lon="2.69533">
        <ele>9.2</ele>
        <time>2020-06-23T14:27:33Z</time>
      </trkpt>
      <trkpt lat="50.97585" lon="2.69539">
        <ele>9.2</ele>
        <time>2020-06-23T14:27:34Z</time>
      </trkpt>
      <trkpt lat="50.97579" lon="2.69545">
        <ele>9.3</ele>
        <time>2020-06-23T14:27:35Z</time>
      </trkpt>
      <trkpt lat="50.97574" lon="2.69552">
        <ele>9.3</ele>
        <time>2020-06-23T14:27:36Z</time>
      </trkpt>
      <trkpt lat="50.97569" lon="2.69559">
        <ele>9.4</ele>
        <time>2020-06-23T14:27:37Z</time>
      </trkpt>
      <trkpt lat="50.97563" lon="2.69565">
        <ele>9.2</ele>
        <time>2020-06-23T14:27:38Z</time>
      </trkpt>
      <trkpt lat="50.97557" lon="2.69571">
        <ele>9.1</ele>
        <time>2020-06-23T14:27:39Z</time>
      </trkpt>
      <trkpt lat="50.97552" lon="2.69576">
        <ele>9</ele>
        <time>2020-06-23T14:27:40Z</time>
      </trkpt>
      <trkpt lat="50.97546" lon="2.69582">
        <ele>8.9</ele>
        <time>2020-06-23T14:27:41Z</time>
      </trkpt>
      <trkpt lat="50.97541" lon="2.69589">
        <ele>8.9</ele>
        <time>2020-06-23T14:27:42Z</time>
      </trkpt>
      <trkpt lat="50.97536" lon="2.69594">
        <ele>8.8</ele>
        <time>2020-06-23T14:27:43Z</time>
      </trkpt>
      <trkpt lat="50.97531" lon="2.696">
        <ele>8.8</ele>
        <time>2020-06-23T14:27:44Z</time>
      </trkpt>
      <trkpt lat="50.97525" lon="2.69605">
        <ele>8.8</ele>
        <time>2020-06-23T14:27:45Z</time>
      </trkpt>
      <trkpt lat="50.9752" lon="2.69611">
        <ele>8.8</ele>
        <time>2020-06-23T14:27:46Z</time>
      </trkpt>
      <trkpt lat="50.97515" lon="2.69618">
        <ele>8.7</ele>
        <time>2020-06-23T14:27:47Z</time>
      </trkpt>
      <trkpt lat="50.97509" lon="2.69623">
        <ele>8.7</ele>
        <time>2020-06-23T14:27:48Z</time>
      </trkpt>
      <trkpt lat="50.97503" lon="2.6963">
        <ele>8.6</ele>
        <time>2020-06-23T14:27:49Z</time>
      </trkpt>
      <trkpt lat="50.97497" lon="2.69636">
        <ele>8.6</ele>
        <time>2020-06-23T14:27:50Z</time>
      </trkpt>
      <trkpt lat="50.97491" lon="2.69642">
        <ele>8.5</ele>
        <time>2020-06-23T14:27:51Z</time>
      </trkpt>
      <trkpt lat="50.97485" lon="2.69648">
        <ele>8.5</ele>
        <time>2020-06-23T14:27:52Z</time>
      </trkpt>
      <trkpt lat="50.97479" lon="2.69654">
        <ele>8.5</ele>
        <time>2020-06-23T14:27:53Z</time>
      </trkpt>
      <trkpt lat="50.97473" lon="2.69661">
        <ele>8.5</ele>
        <time>2020-06-23T14:27:54Z</time>
      </trkpt>
      <trkpt lat="50.97467" lon="2.69667">
        <ele>8.6</ele>
        <time>2020-06-23T14:27:55Z</time>
      </trkpt>
      <trkpt lat="50.9746" lon="2.69673">
        <ele>8.6</ele>
        <time>2020-06-23T14:27:56Z</time>
      </trkpt>
      <trkpt lat="50.97454" lon="2.6968">
        <ele>8.7</ele>
        <time>2020-06-23T14:27:57Z</time>
      </trkpt>
      <trkpt lat="50.97448" lon="2.69686">
        <ele>8.7</ele>
        <time>2020-06-23T14:27:58Z</time>
      </trkpt>
      <trkpt lat="50.97442" lon="2.69692">
        <ele>8.8</ele>
        <time>2020-06-23T14:27:59Z</time>
      </trkpt>
      <trkpt lat="50.97436" lon="2.69699">
        <ele>8.8</ele>
        <time>2020-06-23T14:28:00Z</time>
      </trkpt>
      <trkpt lat="50.9743" lon="2.69706">
        <ele>8.9</ele>
        <time>2020-06-23T14:28:01Z</time>
      </trkpt>
      <trkpt lat="50.97424" lon="2.69713">
        <ele>9</ele>
        <time>2020-06-23T14:28:02Z</time>
      </trkpt>
      <trkpt lat="50.97418" lon="2.69719">
        <ele>9</ele>
        <time>2020-06-23T14:28:03Z</time>
      </trkpt>
      <trkpt lat="50.97411" lon="2.69724">
        <ele>8.7</ele>
        <time>2020-06-23T14:28:04Z</time>
      </trkpt>
      <trkpt lat="50.97405" lon="2.69731">
        <ele>8.6</ele>
        <time>2020-06-23T14:28:05Z</time>
      </trkpt>
      <trkpt lat="50.97398" lon="2.69737">
        <ele>8.5</ele>
        <time>2020-06-23T14:28:06Z</time>
      </trkpt>
      <trkpt lat="50.97392" lon="2.69744">
        <ele>8.5</ele>
        <time>2020-06-23T14:28:07Z</time>
      </trkpt>
      <trkpt lat="50.97386" lon="2.69751">
        <ele>8.4</ele>
        <time>2020-06-23T14:28:08Z</time>
      </trkpt>
      <trkpt lat="50.9738" lon="2.69758">
        <ele>8.4</ele>
        <time>2020-06-23T14:28:09Z</time>
      </trkpt>
      <trkpt lat="50.97373" lon="2.69764">
        <ele>8.4</ele>
        <time>2020-06-23T14:28:10Z</time>
      </trkpt>
      <trkpt lat="50.97367" lon="2.6977">
        <ele>8.4</ele>
        <time>2020-06-23T14:28:11Z</time>
      </trkpt>
      <trkpt lat="50.97361" lon="2.69777">
        <ele>8.4</ele>
        <time>2020-06-23T14:28:12Z</time>
      </trkpt>
      <trkpt lat="50.97355" lon="2.69783">
        <ele>8.4</ele>
        <time>2020-06-23T14:28:13Z</time>
      </trkpt>
      <trkpt lat="50.97349" lon="2.69789">
        <ele>8.4</ele>
        <time>2020-06-23T14:28:14Z</time>
      </trkpt>
      <trkpt lat="50.97342" lon="2.69796">
        <ele>8.3</ele>
        <time>2020-06-23T14:28:15Z</time>
      </trkpt>
      <trkpt lat="50.97336" lon="2.69802">
        <ele>8.3</ele>
        <time>2020-06-23T14:28:16Z</time>
      </trkpt>
      <trkpt lat="50.97329" lon="2.69809">
        <ele>8.2</ele>
        <time>2020-06-23T14:28:17Z</time>
      </trkpt>
      <trkpt lat="50.97323" lon="2.69815">
        <ele>8.2</ele>
        <time>2020-06-23T14:28:18Z</time>
      </trkpt>
      <trkpt lat="50.97317" lon="2.69822">
        <ele>8.3</ele>
        <time>2020-06-23T14:28:19Z</time>
      </trkpt>
      <trkpt lat="50.9731" lon="2.69828">
        <ele>8.4</ele>
        <time>2020-06-23T14:28:20Z</time>
      </trkpt>
      <trkpt lat="50.97304" lon="2.69835">
        <ele>8.6</ele>
        <time>2020-06-23T14:28:21Z</time>
      </trkpt>
      <trkpt lat="50.97298" lon="2.69842">
        <ele>8.6</ele>
        <time>2020-06-23T14:28:22Z</time>
      </trkpt>
      <trkpt lat="50.97292" lon="2.69848">
        <ele>8.5</ele>
        <time>2020-06-23T14:28:23Z</time>
      </trkpt>
      <trkpt lat="50.97285" lon="2.69855">
        <ele>8.4</ele>
        <time>2020-06-23T14:28:24Z</time>
      </trkpt>
      <trkpt lat="50.97279" lon="2.69861">
        <ele>8.4</ele>
        <time>2020-06-23T14:28:25Z</time>
      </trkpt>
      <trkpt lat="50.97273" lon="2.69868">
        <ele>8.4</ele>
        <time>2020-06-23T14:28:26Z</time>
      </trkpt>
      <trkpt lat="50.97267" lon="2.69874">
        <ele>8.4</ele>
        <time>2020-06-23T14:28:27Z</time>
      </trkpt>
      <trkpt lat="50.9726" lon="2.6988">
        <ele>8.4</ele>
        <time>2020-06-23T14:28:28Z</time>
      </trkpt>
      <trkpt lat="50.97254" lon="2.69886">
        <ele>8.5</ele>
        <time>2020-06-23T14:28:29Z</time>
      </trkpt>
      <trkpt lat="50.97248" lon="2.69893">
        <ele>8.5</ele>
        <time>2020-06-23T14:28:30Z</time>
      </trkpt>
      <trkpt lat="50.97241" lon="2.699">
        <ele>8.5</ele>
        <time>2020-06-23T14:28:31Z</time>
      </trkpt>
      <trkpt lat="50.97235" lon="2.69906">
        <ele>8.6</ele>
        <time>2020-06-23T14:28:32Z</time>
      </trkpt>
      <trkpt lat="50.97228" lon="2.69911">
        <ele>8.6</ele>
        <time>2020-06-23T14:28:33Z</time>
      </trkpt>
      <trkpt lat="50.97222" lon="2.69918">
        <ele>8.7</ele>
        <time>2020-06-23T14:28:34Z</time>
      </trkpt>
      <trkpt lat="50.97215" lon="2.69924">
        <ele>8.7</ele>
        <time>2020-06-23T14:28:35Z</time>
      </trkpt>
      <trkpt lat="50.97209" lon="2.69931">
        <ele>8.8</ele>
        <time>2020-06-23T14:28:36Z</time>
      </trkpt>
      <trkpt lat="50.97203" lon="2.69938">
        <ele>8.8</ele>
        <time>2020-06-23T14:28:37Z</time>
      </trkpt>
      <trkpt lat="50.97196" lon="2.69944">
        <ele>8.8</ele>
        <time>2020-06-23T14:28:38Z</time>
      </trkpt>
      <trkpt lat="50.97189" lon="2.69951">
        <ele>8.6</ele>
        <time>2020-06-23T14:28:39Z</time>
      </trkpt>
      <trkpt lat="50.97183" lon="2.69958">
        <ele>8.5</ele>
        <time>2020-06-23T14:28:40Z</time>
      </trkpt>
      <trkpt lat="50.97177" lon="2.69965">
        <ele>8.4</ele>
        <time>2020-06-23T14:28:41Z</time>
      </trkpt>
      <trkpt lat="50.9717" lon="2.69971">
        <ele>8.3</ele>
        <time>2020-06-23T14:28:42Z</time>
      </trkpt>
      <trkpt lat="50.97163" lon="2.69978">
        <ele>8.2</ele>
        <time>2020-06-23T14:28:43Z</time>
      </trkpt>
      <trkpt lat="50.97157" lon="2.69985">
        <ele>8.1</ele>
        <time>2020-06-23T14:28:44Z</time>
      </trkpt>
      <trkpt lat="50.97151" lon="2.69993">
        <ele>8</ele>
        <time>2020-06-23T14:28:45Z</time>
      </trkpt>
      <trkpt lat="50.97144" lon="2.69999">
        <ele>7.9</ele>
        <time>2020-06-23T14:28:46Z</time>
      </trkpt>
      <trkpt lat="50.97137" lon="2.70006">
        <ele>7.8</ele>
        <time>2020-06-23T14:28:47Z</time>
      </trkpt>
      <trkpt lat="50.97131" lon="2.70013">
        <ele>7.7</ele>
        <time>2020-06-23T14:28:48Z</time>
      </trkpt>
      <trkpt lat="50.97125" lon="2.7002">
        <ele>7.6</ele>
        <time>2020-06-23T14:28:49Z</time>
      </trkpt>
      <trkpt lat="50.97118" lon="2.70027">
        <ele>7.5</ele>
        <time>2020-06-23T14:28:50Z</time>
      </trkpt>
      <trkpt lat="50.97112" lon="2.70034">
        <ele>7.4</ele>
        <time>2020-06-23T14:28:51Z</time>
      </trkpt>
      <trkpt lat="50.97106" lon="2.70041">
        <ele>7.2</ele>
        <time>2020-06-23T14:28:52Z</time>
      </trkpt>
      <trkpt lat="50.971" lon="2.70048">
        <ele>7.1</ele>
        <time>2020-06-23T14:28:53Z</time>
      </trkpt>
      <trkpt lat="50.97093" lon="2.70055">
        <ele>6.9</ele>
        <time>2020-06-23T14:28:54Z</time>
      </trkpt>
      <trkpt lat="50.97087" lon="2.70061">
        <ele>6.8</ele>
        <time>2020-06-23T14:28:55Z</time>
      </trkpt>
      <trkpt lat="50.9708" lon="2.70067">
        <ele>6.6</ele>
        <time>2020-06-23T14:28:56Z</time>
      </trkpt>
      <trkpt lat="50.97073" lon="2.70075">
        <ele>6.5</ele>
        <time>2020-06-23T14:28:57Z</time>
      </trkpt>
      <trkpt lat="50.97066" lon="2.70082">
        <ele>6.4</ele>
        <time>2020-06-23T14:28:58Z</time>
      </trkpt>
      <trkpt lat="50.97059" lon="2.70088">
        <ele>6.3</ele>
        <time>2020-06-23T14:28:59Z</time>
      </trkpt>
      <trkpt lat="50.97053" lon="2.70096">
        <ele>6.2</ele>
        <time>2020-06-23T14:29:00Z</time>
      </trkpt>
      <trkpt lat="50.97046" lon="2.70103">
        <ele>6.1</ele>
        <time>2020-06-23T14:29:01Z</time>
      </trkpt>
      <trkpt lat="50.97039" lon="2.7011">
        <ele>6</ele>
        <time>2020-06-23T14:29:02Z</time>
      </trkpt>
      <trkpt lat="50.97032" lon="2.70117">
        <ele>5.9</ele>
        <time>2020-06-23T14:29:03Z</time>
      </trkpt>
      <trkpt lat="50.97026" lon="2.70124">
        <ele>5.8</ele>
        <time>2020-06-23T14:29:04Z</time>
      </trkpt>
      <trkpt lat="50.97019" lon="2.70131">
        <ele>5.7</ele>
        <time>2020-06-23T14:29:05Z</time>
      </trkpt>
      <trkpt lat="50.97013" lon="2.70138">
        <ele>5.6</ele>
        <time>2020-06-23T14:29:06Z</time>
      </trkpt>
      <trkpt lat="50.97007" lon="2.70145">
        <ele>5.5</ele>
        <time>2020-06-23T14:29:07Z</time>
      </trkpt>
      <trkpt lat="50.97001" lon="2.70151">
        <ele>5.5</ele>
        <time>2020-06-23T14:29:08Z</time>
      </trkpt>
      <trkpt lat="50.96995" lon="2.70158">
        <ele>5.4</ele>
        <time>2020-06-23T14:29:09Z</time>
      </trkpt>
      <trkpt lat="50.96989" lon="2.70164">
        <ele>5.4</ele>
        <time>2020-06-23T14:29:10Z</time>
      </trkpt>
      <trkpt lat="50.96983" lon="2.7017">
        <ele>5.3</ele>
        <time>2020-06-23T14:29:11Z</time>
      </trkpt>
      <trkpt lat="50.96976" lon="2.70176">
        <ele>5.2</ele>
        <time>2020-06-23T14:29:12Z</time>
      </trkpt>
      <trkpt lat="50.9697" lon="2.70183">
        <ele>5.1</ele>
        <time>2020-06-23T14:29:13Z</time>
      </trkpt>
      <trkpt lat="50.96963" lon="2.70189">
        <ele>5.1</ele>
        <time>2020-06-23T14:29:14Z</time>
      </trkpt>
      <trkpt lat="50.96957" lon="2.70196">
        <ele>5.1</ele>
        <time>2020-06-23T14:29:15Z</time>
      </trkpt>
      <trkpt lat="50.9695" lon="2.70202">
        <ele>5.2</ele>
        <time>2020-06-23T14:29:16Z</time>
      </trkpt>
      <trkpt lat="50.96944" lon="2.70208">
        <ele>5.4</ele>
        <time>2020-06-23T14:29:17Z</time>
      </trkpt>
      <trkpt lat="50.96938" lon="2.70214">
        <ele>5.2</ele>
        <time>2020-06-23T14:29:18Z</time>
      </trkpt>
      <trkpt lat="50.96932" lon="2.7022">
        <ele>5</ele>
        <time>2020-06-23T14:29:19Z</time>
      </trkpt>
      <trkpt lat="50.96926" lon="2.70227">
        <ele>4.9</ele>
        <time>2020-06-23T14:29:20Z</time>
      </trkpt>
      <trkpt lat="50.9692" lon="2.70235">
        <ele>4.8</ele>
        <time>2020-06-23T14:29:21Z</time>
      </trkpt>
      <trkpt lat="50.96914" lon="2.70241">
        <ele>4.7</ele>
        <time>2020-06-23T14:29:22Z</time>
      </trkpt>
      <trkpt lat="50.96907" lon="2.70248">
        <ele>4.7</ele>
        <time>2020-06-23T14:29:23Z</time>
      </trkpt>
      <trkpt lat="50.96901" lon="2.70254">
        <ele>4.7</ele>
        <time>2020-06-23T14:29:24Z</time>
      </trkpt>
      <trkpt lat="50.96895" lon="2.70261">
        <ele>4.7</ele>
        <time>2020-06-23T14:29:25Z</time>
      </trkpt>
      <trkpt lat="50.96888" lon="2.70268">
        <ele>4.7</ele>
        <time>2020-06-23T14:29:26Z</time>
      </trkpt>
      <trkpt lat="50.96882" lon="2.70275">
        <ele>4.8</ele>
        <time>2020-06-23T14:29:27Z</time>
      </trkpt>
      <trkpt lat="50.96875" lon="2.70282">
        <ele>4.8</ele>
        <time>2020-06-23T14:29:28Z</time>
      </trkpt>
      <trkpt lat="50.96868" lon="2.70288">
        <ele>4.8</ele>
        <time>2020-06-23T14:29:29Z</time>
      </trkpt>
      <trkpt lat="50.96862" lon="2.70294">
        <ele>4.8</ele>
        <time>2020-06-23T14:29:30Z</time>
      </trkpt>
      <trkpt lat="50.96855" lon="2.70301">
        <ele>4.7</ele>
        <time>2020-06-23T14:29:31Z</time>
      </trkpt>
      <trkpt lat="50.96849" lon="2.70307">
        <ele>4.7</ele>
        <time>2020-06-23T14:29:32Z</time>
      </trkpt>
      <trkpt lat="50.96843" lon="2.70314">
        <ele>4.7</ele>
        <time>2020-06-23T14:29:33Z</time>
      </trkpt>
      <trkpt lat="50.96837" lon="2.7032">
        <ele>4.7</ele>
        <time>2020-06-23T14:29:34Z</time>
      </trkpt>
      <trkpt lat="50.9683" lon="2.70326">
        <ele>4.7</ele>
        <time>2020-06-23T14:29:35Z</time>
      </trkpt>
      <trkpt lat="50.96824" lon="2.70333">
        <ele>4.7</ele>
        <time>2020-06-23T14:29:36Z</time>
      </trkpt>
      <trkpt lat="50.96818" lon="2.70339">
        <ele>4.7</ele>
        <time>2020-06-23T14:29:37Z</time>
      </trkpt>
      <trkpt lat="50.96812" lon="2.70346">
        <ele>4.7</ele>
        <time>2020-06-23T14:29:38Z</time>
      </trkpt>
      <trkpt lat="50.96806" lon="2.70352">
        <ele>4.7</ele>
        <time>2020-06-23T14:29:39Z</time>
      </trkpt>
      <trkpt lat="50.968" lon="2.70358">
        <ele>4.7</ele>
        <time>2020-06-23T14:29:40Z</time>
      </trkpt>
      <trkpt lat="50.96794" lon="2.70364">
        <ele>4.6</ele>
        <time>2020-06-23T14:29:41Z</time>
      </trkpt>
      <trkpt lat="50.96788" lon="2.7037">
        <ele>4.6</ele>
        <time>2020-06-23T14:29:42Z</time>
      </trkpt>
      <trkpt lat="50.96782" lon="2.70376">
        <ele>4.6</ele>
        <time>2020-06-23T14:29:43Z</time>
      </trkpt>
      <trkpt lat="50.96776" lon="2.70383">
        <ele>4.6</ele>
        <time>2020-06-23T14:29:44Z</time>
      </trkpt>
      <trkpt lat="50.9677" lon="2.70389">
        <ele>4.6</ele>
        <time>2020-06-23T14:29:45Z</time>
      </trkpt>
      <trkpt lat="50.96764" lon="2.70395">
        <ele>4.6</ele>
        <time>2020-06-23T14:29:46Z</time>
      </trkpt>
      <trkpt lat="50.96758" lon="2.70402">
        <ele>4.6</ele>
        <time>2020-06-23T14:29:47Z</time>
      </trkpt>
      <trkpt lat="50.96752" lon="2.70408">
        <ele>4.6</ele>
        <time>2020-06-23T14:29:48Z</time>
      </trkpt>
      <trkpt lat="50.96747" lon="2.70414">
        <ele>4.6</ele>
        <time>2020-06-23T14:29:49Z</time>
      </trkpt>
      <trkpt lat="50.96741" lon="2.70421">
        <ele>4.6</ele>
        <time>2020-06-23T14:29:50Z</time>
      </trkpt>
      <trkpt lat="50.96735" lon="2.70427">
        <ele>4.6</ele>
        <time>2020-06-23T14:29:51Z</time>
      </trkpt>
      <trkpt lat="50.9673" lon="2.70433">
        <ele>4.6</ele>
        <time>2020-06-23T14:29:52Z</time>
      </trkpt>
      <trkpt lat="50.96724" lon="2.70438">
        <ele>4.6</ele>
        <time>2020-06-23T14:29:53Z</time>
      </trkpt>
      <trkpt lat="50.96718" lon="2.70444">
        <ele>4.7</ele>
        <time>2020-06-23T14:29:54Z</time>
      </trkpt>
      <trkpt lat="50.96713" lon="2.70451">
        <ele>4.7</ele>
        <time>2020-06-23T14:29:55Z</time>
      </trkpt>
      <trkpt lat="50.96707" lon="2.70456">
        <ele>4.7</ele>
        <time>2020-06-23T14:29:56Z</time>
      </trkpt>
      <trkpt lat="50.96702" lon="2.70463">
        <ele>4.8</ele>
        <time>2020-06-23T14:29:57Z</time>
      </trkpt>
      <trkpt lat="50.96697" lon="2.70469">
        <ele>4.8</ele>
        <time>2020-06-23T14:29:58Z</time>
      </trkpt>
      <trkpt lat="50.96691" lon="2.70473">
        <ele>4.8</ele>
        <time>2020-06-23T14:29:59Z</time>
      </trkpt>
      <trkpt lat="50.96686" lon="2.70479">
        <ele>4.8</ele>
        <time>2020-06-23T14:30:00Z</time>
      </trkpt>
      <trkpt lat="50.96681" lon="2.70485">
        <ele>4.8</ele>
        <time>2020-06-23T14:30:01Z</time>
      </trkpt>
      <trkpt lat="50.96675" lon="2.7049">
        <ele>4.8</ele>
        <time>2020-06-23T14:30:02Z</time>
      </trkpt>
      <trkpt lat="50.96669" lon="2.70495">
        <ele>4.9</ele>
        <time>2020-06-23T14:30:03Z</time>
      </trkpt>
      <trkpt lat="50.96663" lon="2.70502">
        <ele>4.9</ele>
        <time>2020-06-23T14:30:04Z</time>
      </trkpt>
      <trkpt lat="50.96658" lon="2.70508">
        <ele>5</ele>
        <time>2020-06-23T14:30:05Z</time>
      </trkpt>
      <trkpt lat="50.96651" lon="2.70514">
        <ele>5</ele>
        <time>2020-06-23T14:30:06Z</time>
      </trkpt>
      <trkpt lat="50.96645" lon="2.70519">
        <ele>5.1</ele>
        <time>2020-06-23T14:30:07Z</time>
      </trkpt>
      <trkpt lat="50.9664" lon="2.70526">
        <ele>5.2</ele>
        <time>2020-06-23T14:30:08Z</time>
      </trkpt>
      <trkpt lat="50.96634" lon="2.70533">
        <ele>5.2</ele>
        <time>2020-06-23T14:30:09Z</time>
      </trkpt>
      <trkpt lat="50.96628" lon="2.70538">
        <ele>5</ele>
        <time>2020-06-23T14:30:10Z</time>
      </trkpt>
      <trkpt lat="50.96622" lon="2.70545">
        <ele>4.8</ele>
        <time>2020-06-23T14:30:11Z</time>
      </trkpt>
      <trkpt lat="50.96616" lon="2.70551">
        <ele>4.7</ele>
        <time>2020-06-23T14:30:12Z</time>
      </trkpt>
      <trkpt lat="50.9661" lon="2.70556">
        <ele>4.6</ele>
        <time>2020-06-23T14:30:13Z</time>
      </trkpt>
      <trkpt lat="50.96604" lon="2.70562">
        <ele>4.5</ele>
        <time>2020-06-23T14:30:14Z</time>
      </trkpt>
      <trkpt lat="50.96598" lon="2.70568">
        <ele>4.5</ele>
        <time>2020-06-23T14:30:15Z</time>
      </trkpt>
      <trkpt lat="50.96592" lon="2.70574">
        <ele>4.5</ele>
        <time>2020-06-23T14:30:16Z</time>
      </trkpt>
      <trkpt lat="50.96587" lon="2.7058">
        <ele>4.5</ele>
        <time>2020-06-23T14:30:17Z</time>
      </trkpt>
      <trkpt lat="50.96581" lon="2.70586">
        <ele>4.4</ele>
        <time>2020-06-23T14:30:18Z</time>
      </trkpt>
      <trkpt lat="50.96575" lon="2.70592">
        <ele>4.4</ele>
        <time>2020-06-23T14:30:19Z</time>
      </trkpt>
      <trkpt lat="50.96569" lon="2.70597">
        <ele>4.4</ele>
        <time>2020-06-23T14:30:20Z</time>
      </trkpt>
      <trkpt lat="50.96564" lon="2.70604">
        <ele>4.4</ele>
        <time>2020-06-23T14:30:21Z</time>
      </trkpt>
      <trkpt lat="50.96558" lon="2.7061">
        <ele>4.4</ele>
        <time>2020-06-23T14:30:22Z</time>
      </trkpt>
      <trkpt lat="50.96552" lon="2.70616">
        <ele>4.5</ele>
        <time>2020-06-23T14:30:23Z</time>
      </trkpt>
      <trkpt lat="50.96546" lon="2.70621">
        <ele>4.5</ele>
        <time>2020-06-23T14:30:24Z</time>
      </trkpt>
      <trkpt lat="50.9654" lon="2.70628">
        <ele>4.5</ele>
        <time>2020-06-23T14:30:25Z</time>
      </trkpt>
      <trkpt lat="50.96534" lon="2.70635">
        <ele>4.5</ele>
        <time>2020-06-23T14:30:26Z</time>
      </trkpt>
      <trkpt lat="50.96528" lon="2.70641">
        <ele>4.5</ele>
        <time>2020-06-23T14:30:27Z</time>
      </trkpt>
      <trkpt lat="50.96522" lon="2.70647">
        <ele>4.5</ele>
        <time>2020-06-23T14:30:28Z</time>
      </trkpt>
      <trkpt lat="50.96516" lon="2.70654">
        <ele>4.5</ele>
        <time>2020-06-23T14:30:29Z</time>
      </trkpt>
      <trkpt lat="50.9651" lon="2.7066">
        <ele>4.5</ele>
        <time>2020-06-23T14:30:30Z</time>
      </trkpt>
      <trkpt lat="50.96504" lon="2.70665">
        <ele>4.5</ele>
        <time>2020-06-23T14:30:31Z</time>
      </trkpt>
      <trkpt lat="50.96498" lon="2.7067">
        <ele>4.6</ele>
        <time>2020-06-23T14:30:32Z</time>
      </trkpt>
      <trkpt lat="50.96492" lon="2.70676">
        <ele>4.6</ele>
        <time>2020-06-23T14:30:33Z</time>
      </trkpt>
      <trkpt lat="50.96486" lon="2.70682">
        <ele>4.6</ele>
        <time>2020-06-23T14:30:34Z</time>
      </trkpt>
      <trkpt lat="50.96481" lon="2.70689">
        <ele>4.6</ele>
        <time>2020-06-23T14:30:35Z</time>
      </trkpt>
      <trkpt lat="50.96475" lon="2.70695">
        <ele>4.6</ele>
        <time>2020-06-23T14:30:36Z</time>
      </trkpt>
      <trkpt lat="50.96469" lon="2.70701">
        <ele>4.6</ele>
        <time>2020-06-23T14:30:37Z</time>
      </trkpt>
      <trkpt lat="50.96464" lon="2.70707">
        <ele>4.6</ele>
        <time>2020-06-23T14:30:38Z</time>
      </trkpt>
      <trkpt lat="50.96458" lon="2.70713">
        <ele>4.6</ele>
        <time>2020-06-23T14:30:39Z</time>
      </trkpt>
      <trkpt lat="50.96453" lon="2.70719">
        <ele>4.6</ele>
        <time>2020-06-23T14:30:40Z</time>
      </trkpt>
      <trkpt lat="50.96447" lon="2.70724">
        <ele>4.6</ele>
        <time>2020-06-23T14:30:41Z</time>
      </trkpt>
      <trkpt lat="50.96442" lon="2.7073">
        <ele>4.6</ele>
        <time>2020-06-23T14:30:42Z</time>
      </trkpt>
      <trkpt lat="50.96436" lon="2.70735">
        <ele>4.6</ele>
        <time>2020-06-23T14:30:43Z</time>
      </trkpt>
      <trkpt lat="50.9643" lon="2.70742">
        <ele>4.6</ele>
        <time>2020-06-23T14:30:44Z</time>
      </trkpt>
      <trkpt lat="50.96424" lon="2.70748">
        <ele>4.6</ele>
        <time>2020-06-23T14:30:45Z</time>
      </trkpt>
      <trkpt lat="50.96419" lon="2.70755">
        <ele>4.6</ele>
        <time>2020-06-23T14:30:46Z</time>
      </trkpt>
      <trkpt lat="50.96413" lon="2.70763">
        <ele>4.6</ele>
        <time>2020-06-23T14:30:47Z</time>
      </trkpt>
      <trkpt lat="50.96407" lon="2.70769">
        <ele>4.6</ele>
        <time>2020-06-23T14:30:48Z</time>
      </trkpt>
      <trkpt lat="50.96401" lon="2.70775">
        <ele>4.6</ele>
        <time>2020-06-23T14:30:49Z</time>
      </trkpt>
      <trkpt lat="50.96395" lon="2.70781">
        <ele>4.7</ele>
        <time>2020-06-23T14:30:50Z</time>
      </trkpt>
      <trkpt lat="50.96388" lon="2.70787">
        <ele>4.7</ele>
        <time>2020-06-23T14:30:51Z</time>
      </trkpt>
      <trkpt lat="50.96382" lon="2.70792">
        <ele>4.7</ele>
        <time>2020-06-23T14:30:52Z</time>
      </trkpt>
      <trkpt lat="50.96376" lon="2.70799">
        <ele>4.7</ele>
        <time>2020-06-23T14:30:53Z</time>
      </trkpt>
      <trkpt lat="50.9637" lon="2.70805">
        <ele>4.8</ele>
        <time>2020-06-23T14:30:54Z</time>
      </trkpt>
      <trkpt lat="50.96365" lon="2.70812">
        <ele>4.8</ele>
        <time>2020-06-23T14:30:55Z</time>
      </trkpt>
      <trkpt lat="50.9636" lon="2.70817">
        <ele>4.9</ele>
        <time>2020-06-23T14:30:56Z</time>
      </trkpt>
      <trkpt lat="50.96354" lon="2.70822">
        <ele>5</ele>
        <time>2020-06-23T14:30:57Z</time>
      </trkpt>
      <trkpt lat="50.96348" lon="2.70828">
        <ele>5</ele>
        <time>2020-06-23T14:30:58Z</time>
      </trkpt>
      <trkpt lat="50.96343" lon="2.70834">
        <ele>5</ele>
        <time>2020-06-23T14:30:59Z</time>
      </trkpt>
      <trkpt lat="50.96338" lon="2.70839">
        <ele>5.1</ele>
        <time>2020-06-23T14:31:00Z</time>
      </trkpt>
      <trkpt lat="50.96332" lon="2.70844">
        <ele>5.1</ele>
        <time>2020-06-23T14:31:01Z</time>
      </trkpt>
      <trkpt lat="50.96327" lon="2.7085">
        <ele>5.2</ele>
        <time>2020-06-23T14:31:02Z</time>
      </trkpt>
      <trkpt lat="50.96322" lon="2.70857">
        <ele>5.3</ele>
        <time>2020-06-23T14:31:03Z</time>
      </trkpt>
      <trkpt lat="50.96316" lon="2.70862">
        <ele>5.4</ele>
        <time>2020-06-23T14:31:04Z</time>
      </trkpt>
      <trkpt lat="50.96311" lon="2.70869">
        <ele>5.4</ele>
        <time>2020-06-23T14:31:05Z</time>
      </trkpt>
      <trkpt lat="50.96305" lon="2.70875">
        <ele>5.5</ele>
        <time>2020-06-23T14:31:06Z</time>
      </trkpt>
      <trkpt lat="50.96299" lon="2.70879">
        <ele>5.6</ele>
        <time>2020-06-23T14:31:07Z</time>
      </trkpt>
      <trkpt lat="50.96293" lon="2.70885">
        <ele>5.6</ele>
        <time>2020-06-23T14:31:08Z</time>
      </trkpt>
      <trkpt lat="50.96287" lon="2.70891">
        <ele>5.7</ele>
        <time>2020-06-23T14:31:09Z</time>
      </trkpt>
      <trkpt lat="50.96281" lon="2.70896">
        <ele>5.8</ele>
        <time>2020-06-23T14:31:10Z</time>
      </trkpt>
      <trkpt lat="50.96275" lon="2.70903">
        <ele>5.8</ele>
        <time>2020-06-23T14:31:11Z</time>
      </trkpt>
      <trkpt lat="50.96269" lon="2.70908">
        <ele>5.8</ele>
        <time>2020-06-23T14:31:12Z</time>
      </trkpt>
      <trkpt lat="50.96263" lon="2.70914">
        <ele>5.8</ele>
        <time>2020-06-23T14:31:13Z</time>
      </trkpt>
      <trkpt lat="50.96258" lon="2.70921">
        <ele>5.9</ele>
        <time>2020-06-23T14:31:14Z</time>
      </trkpt>
      <trkpt lat="50.96252" lon="2.70927">
        <ele>6</ele>
        <time>2020-06-23T14:31:15Z</time>
      </trkpt>
      <trkpt lat="50.96247" lon="2.70933">
        <ele>6.1</ele>
        <time>2020-06-23T14:31:16Z</time>
      </trkpt>
      <trkpt lat="50.96241" lon="2.70939">
        <ele>6.1</ele>
        <time>2020-06-23T14:31:17Z</time>
      </trkpt>
      <trkpt lat="50.96236" lon="2.70945">
        <ele>6.2</ele>
        <time>2020-06-23T14:31:18Z</time>
      </trkpt>
      <trkpt lat="50.9623" lon="2.7095">
        <ele>6.2</ele>
        <time>2020-06-23T14:31:19Z</time>
      </trkpt>
      <trkpt lat="50.96225" lon="2.70955">
        <ele>6.3</ele>
        <time>2020-06-23T14:31:20Z</time>
      </trkpt>
      <trkpt lat="50.96219" lon="2.70961">
        <ele>6.4</ele>
        <time>2020-06-23T14:31:21Z</time>
      </trkpt>
      <trkpt lat="50.96214" lon="2.70967">
        <ele>6.4</ele>
        <time>2020-06-23T14:31:22Z</time>
      </trkpt>
      <trkpt lat="50.96207" lon="2.70972">
        <ele>6.4</ele>
        <time>2020-06-23T14:31:23Z</time>
      </trkpt>
      <trkpt lat="50.96202" lon="2.70978">
        <ele>6.5</ele>
        <time>2020-06-23T14:31:24Z</time>
      </trkpt>
      <trkpt lat="50.96196" lon="2.70985">
        <ele>6.5</ele>
        <time>2020-06-23T14:31:25Z</time>
      </trkpt>
      <trkpt lat="50.96191" lon="2.70991">
        <ele>6.6</ele>
        <time>2020-06-23T14:31:26Z</time>
      </trkpt>
      <trkpt lat="50.96185" lon="2.70997">
        <ele>6.6</ele>
        <time>2020-06-23T14:31:27Z</time>
      </trkpt>
      <trkpt lat="50.9618" lon="2.71003">
        <ele>6.6</ele>
        <time>2020-06-23T14:31:28Z</time>
      </trkpt>
      <trkpt lat="50.96174" lon="2.71007">
        <ele>6.7</ele>
        <time>2020-06-23T14:31:29Z</time>
      </trkpt>
      <trkpt lat="50.96169" lon="2.71013">
        <ele>6.7</ele>
        <time>2020-06-23T14:31:30Z</time>
      </trkpt>
      <trkpt lat="50.96163" lon="2.71018">
        <ele>6.7</ele>
        <time>2020-06-23T14:31:31Z</time>
      </trkpt>
      <trkpt lat="50.96158" lon="2.71024">
        <ele>6.8</ele>
        <time>2020-06-23T14:31:32Z</time>
      </trkpt>
      <trkpt lat="50.96152" lon="2.71029">
        <ele>6.9</ele>
        <time>2020-06-23T14:31:33Z</time>
      </trkpt>
      <trkpt lat="50.96147" lon="2.71034">
        <ele>7</ele>
        <time>2020-06-23T14:31:34Z</time>
      </trkpt>
      <trkpt lat="50.96141" lon="2.7104">
        <ele>7</ele>
        <time>2020-06-23T14:31:35Z</time>
      </trkpt>
      <trkpt lat="50.96135" lon="2.71045">
        <ele>7.1</ele>
        <time>2020-06-23T14:31:36Z</time>
      </trkpt>
      <trkpt lat="50.9613" lon="2.71052">
        <ele>7.2</ele>
        <time>2020-06-23T14:31:37Z</time>
      </trkpt>
      <trkpt lat="50.96125" lon="2.71059">
        <ele>7.3</ele>
        <time>2020-06-23T14:31:38Z</time>
      </trkpt>
      <trkpt lat="50.96119" lon="2.71066">
        <ele>7.3</ele>
        <time>2020-06-23T14:31:39Z</time>
      </trkpt>
      <trkpt lat="50.96114" lon="2.71072">
        <ele>7.4</ele>
        <time>2020-06-23T14:31:40Z</time>
      </trkpt>
      <trkpt lat="50.96108" lon="2.71078">
        <ele>7.5</ele>
        <time>2020-06-23T14:31:41Z</time>
      </trkpt>
      <trkpt lat="50.96102" lon="2.71084">
        <ele>7.5</ele>
        <time>2020-06-23T14:31:42Z</time>
      </trkpt>
      <trkpt lat="50.96097" lon="2.71091">
        <ele>7.5</ele>
        <time>2020-06-23T14:31:43Z</time>
      </trkpt>
      <trkpt lat="50.96091" lon="2.71096">
        <ele>7.6</ele>
        <time>2020-06-23T14:31:44Z</time>
      </trkpt>
      <trkpt lat="50.96085" lon="2.71102">
        <ele>7.7</ele>
        <time>2020-06-23T14:31:45Z</time>
      </trkpt>
      <trkpt lat="50.9608" lon="2.71107">
        <ele>7.7</ele>
        <time>2020-06-23T14:31:46Z</time>
      </trkpt>
      <trkpt lat="50.96074" lon="2.71112">
        <ele>7.8</ele>
        <time>2020-06-23T14:31:47Z</time>
      </trkpt>
      <trkpt lat="50.96068" lon="2.71118">
        <ele>7.9</ele>
        <time>2020-06-23T14:31:48Z</time>
      </trkpt>
      <trkpt lat="50.96062" lon="2.71123">
        <ele>7.9</ele>
        <time>2020-06-23T14:31:49Z</time>
      </trkpt>
      <trkpt lat="50.96056" lon="2.7113">
        <ele>8</ele>
        <time>2020-06-23T14:31:50Z</time>
      </trkpt>
      <trkpt lat="50.9605" lon="2.71135">
        <ele>8.1</ele>
        <time>2020-06-23T14:31:51Z</time>
      </trkpt>
      <trkpt lat="50.96045" lon="2.71141">
        <ele>8.1</ele>
        <time>2020-06-23T14:31:52Z</time>
      </trkpt>
      <trkpt lat="50.96039" lon="2.71147">
        <ele>8.2</ele>
        <time>2020-06-23T14:31:53Z</time>
      </trkpt>
      <trkpt lat="50.96033" lon="2.71152">
        <ele>8.3</ele>
        <time>2020-06-23T14:31:54Z</time>
      </trkpt>
      <trkpt lat="50.96028" lon="2.71158">
        <ele>8.4</ele>
        <time>2020-06-23T14:31:55Z</time>
      </trkpt>
      <trkpt lat="50.96022" lon="2.71164">
        <ele>8.4</ele>
        <time>2020-06-23T14:31:56Z</time>
      </trkpt>
      <trkpt lat="50.96017" lon="2.7117">
        <ele>8.5</ele>
        <time>2020-06-23T14:31:57Z</time>
      </trkpt>
      <trkpt lat="50.96011" lon="2.71175">
        <ele>8.6</ele>
        <time>2020-06-23T14:31:58Z</time>
      </trkpt>
      <trkpt lat="50.96007" lon="2.71181">
        <ele>8.6</ele>
        <time>2020-06-23T14:31:59Z</time>
      </trkpt>
      <trkpt lat="50.96001" lon="2.71186">
        <ele>8.7</ele>
        <time>2020-06-23T14:32:00Z</time>
      </trkpt>
      <trkpt lat="50.95996" lon="2.71191">
        <ele>8.8</ele>
        <time>2020-06-23T14:32:01Z</time>
      </trkpt>
      <trkpt lat="50.95991" lon="2.71197">
        <ele>8.9</ele>
        <time>2020-06-23T14:32:02Z</time>
      </trkpt>
      <trkpt lat="50.95986" lon="2.71202">
        <ele>9</ele>
        <time>2020-06-23T14:32:03Z</time>
      </trkpt>
      <trkpt lat="50.95981" lon="2.71208">
        <ele>9.1</ele>
        <time>2020-06-23T14:32:04Z</time>
      </trkpt>
      <trkpt lat="50.95975" lon="2.71213">
        <ele>9.2</ele>
        <time>2020-06-23T14:32:05Z</time>
      </trkpt>
      <trkpt lat="50.95971" lon="2.71219">
        <ele>9.3</ele>
        <time>2020-06-23T14:32:06Z</time>
      </trkpt>
      <trkpt lat="50.95965" lon="2.71225">
        <ele>9.4</ele>
        <time>2020-06-23T14:32:07Z</time>
      </trkpt>
      <trkpt lat="50.9596" lon="2.71231">
        <ele>9.4</ele>
        <time>2020-06-23T14:32:08Z</time>
      </trkpt>
      <trkpt lat="50.95955" lon="2.71236">
        <ele>9.5</ele>
        <time>2020-06-23T14:32:09Z</time>
      </trkpt>
      <trkpt lat="50.95949" lon="2.71241">
        <ele>9.5</ele>
        <time>2020-06-23T14:32:10Z</time>
      </trkpt>
      <trkpt lat="50.95944" lon="2.71247">
        <ele>9.5</ele>
        <time>2020-06-23T14:32:11Z</time>
      </trkpt>
      <trkpt lat="50.95939" lon="2.71253">
        <ele>9.3</ele>
        <time>2020-06-23T14:32:12Z</time>
      </trkpt>
      <trkpt lat="50.95934" lon="2.71258">
        <ele>9</ele>
        <time>2020-06-23T14:32:13Z</time>
      </trkpt>
      <trkpt lat="50.95929" lon="2.71264">
        <ele>9</ele>
        <time>2020-06-23T14:32:14Z</time>
      </trkpt>
      <trkpt lat="50.95924" lon="2.71269">
        <ele>9</ele>
        <time>2020-06-23T14:32:15Z</time>
      </trkpt>
      <trkpt lat="50.95919" lon="2.71274">
        <ele>9</ele>
        <time>2020-06-23T14:32:16Z</time>
      </trkpt>
      <trkpt lat="50.95914" lon="2.7128">
        <ele>9</ele>
        <time>2020-06-23T14:32:17Z</time>
      </trkpt>
      <trkpt lat="50.95908" lon="2.71285">
        <ele>9.1</ele>
        <time>2020-06-23T14:32:18Z</time>
      </trkpt>
      <trkpt lat="50.95903" lon="2.7129">
        <ele>9.2</ele>
        <time>2020-06-23T14:32:19Z</time>
      </trkpt>
      <trkpt lat="50.95898" lon="2.71295">
        <ele>9.2</ele>
        <time>2020-06-23T14:32:20Z</time>
      </trkpt>
      <trkpt lat="50.95894" lon="2.713">
        <ele>9.3</ele>
        <time>2020-06-23T14:32:21Z</time>
      </trkpt>
      <trkpt lat="50.95889" lon="2.71306">
        <ele>9.3</ele>
        <time>2020-06-23T14:32:22Z</time>
      </trkpt>
      <trkpt lat="50.95884" lon="2.71311">
        <ele>9.4</ele>
        <time>2020-06-23T14:32:23Z</time>
      </trkpt>
      <trkpt lat="50.95879" lon="2.71316">
        <ele>9.4</ele>
        <time>2020-06-23T14:32:24Z</time>
      </trkpt>
      <trkpt lat="50.95874" lon="2.7132">
        <ele>9.5</ele>
        <time>2020-06-23T14:32:25Z</time>
      </trkpt>
      <trkpt lat="50.9587" lon="2.71326">
        <ele>9.6</ele>
        <time>2020-06-23T14:32:26Z</time>
      </trkpt>
      <trkpt lat="50.95865" lon="2.7133">
        <ele>9.7</ele>
        <time>2020-06-23T14:32:27Z</time>
      </trkpt>
      <trkpt lat="50.9586" lon="2.71334">
        <ele>9.7</ele>
        <time>2020-06-23T14:32:28Z</time>
      </trkpt>
      <trkpt lat="50.95855" lon="2.71338">
        <ele>9.8</ele>
        <time>2020-06-23T14:32:29Z</time>
      </trkpt>
      <trkpt lat="50.9585" lon="2.71343">
        <ele>9.9</ele>
        <time>2020-06-23T14:32:30Z</time>
      </trkpt>
      <trkpt lat="50.95845" lon="2.71348">
        <ele>10</ele>
        <time>2020-06-23T14:32:31Z</time>
      </trkpt>
      <trkpt lat="50.9584" lon="2.71352">
        <ele>10.1</ele>
        <time>2020-06-23T14:32:32Z</time>
      </trkpt>
      <trkpt lat="50.95835" lon="2.71356">
        <ele>10.3</ele>
        <time>2020-06-23T14:32:33Z</time>
      </trkpt>
      <trkpt lat="50.9583" lon="2.71361">
        <ele>10.5</ele>
        <time>2020-06-23T14:32:34Z</time>
      </trkpt>
      <trkpt lat="50.95825" lon="2.71366">
        <ele>10.6</ele>
        <time>2020-06-23T14:32:35Z</time>
      </trkpt>
      <trkpt lat="50.95821" lon="2.71372">
        <ele>10.7</ele>
        <time>2020-06-23T14:32:36Z</time>
      </trkpt>
      <trkpt lat="50.95815" lon="2.71376">
        <ele>10.8</ele>
        <time>2020-06-23T14:32:37Z</time>
      </trkpt>
      <trkpt lat="50.95811" lon="2.7138">
        <ele>10.8</ele>
        <time>2020-06-23T14:32:38Z</time>
      </trkpt>
      <trkpt lat="50.95806" lon="2.71385">
        <ele>10.8</ele>
        <time>2020-06-23T14:32:39Z</time>
      </trkpt>
      <trkpt lat="50.958" lon="2.71387">
        <ele>10.7</ele>
        <time>2020-06-23T14:32:40Z</time>
      </trkpt>
      <trkpt lat="50.95794" lon="2.7139">
        <ele>10.7</ele>
        <time>2020-06-23T14:32:41Z</time>
      </trkpt>
      <trkpt lat="50.95789" lon="2.71395">
        <ele>10.7</ele>
        <time>2020-06-23T14:32:42Z</time>
      </trkpt>
      <trkpt lat="50.95784" lon="2.714">
        <ele>10.6</ele>
        <time>2020-06-23T14:32:43Z</time>
      </trkpt>
      <trkpt lat="50.9578" lon="2.71408">
        <ele>10.6</ele>
        <time>2020-06-23T14:32:44Z</time>
      </trkpt>
      <trkpt lat="50.95775" lon="2.71413">
        <ele>10.5</ele>
        <time>2020-06-23T14:32:45Z</time>
      </trkpt>
      <trkpt lat="50.95769" lon="2.71416">
        <ele>10.4</ele>
        <time>2020-06-23T14:32:46Z</time>
      </trkpt>
      <trkpt lat="50.95764" lon="2.71419">
        <ele>10.4</ele>
        <time>2020-06-23T14:32:47Z</time>
      </trkpt>
      <trkpt lat="50.95758" lon="2.71421">
        <ele>10.3</ele>
        <time>2020-06-23T14:32:48Z</time>
      </trkpt>
      <trkpt lat="50.95752" lon="2.71424">
        <ele>10.2</ele>
        <time>2020-06-23T14:32:49Z</time>
      </trkpt>
      <trkpt lat="50.95746" lon="2.71427">
        <ele>10.2</ele>
        <time>2020-06-23T14:32:50Z</time>
      </trkpt>
      <trkpt lat="50.95741" lon="2.71432">
        <ele>10.1</ele>
        <time>2020-06-23T14:32:51Z</time>
      </trkpt>
      <trkpt lat="50.95735" lon="2.71436">
        <ele>10.1</ele>
        <time>2020-06-23T14:32:52Z</time>
      </trkpt>
      <trkpt lat="50.9573" lon="2.71441">
        <ele>10.1</ele>
        <time>2020-06-23T14:32:53Z</time>
      </trkpt>
      <trkpt lat="50.95724" lon="2.71443">
        <ele>10</ele>
        <time>2020-06-23T14:32:54Z</time>
      </trkpt>
      <trkpt lat="50.95719" lon="2.71446">
        <ele>9.9</ele>
        <time>2020-06-23T14:32:55Z</time>
      </trkpt>
      <trkpt lat="50.95712" lon="2.71449">
        <ele>9.8</ele>
        <time>2020-06-23T14:32:56Z</time>
      </trkpt>
      <trkpt lat="50.95707" lon="2.71454">
        <ele>9.8</ele>
        <time>2020-06-23T14:32:57Z</time>
      </trkpt>
      <trkpt lat="50.95701" lon="2.71458">
        <ele>9.7</ele>
        <time>2020-06-23T14:32:58Z</time>
      </trkpt>
      <trkpt lat="50.95695" lon="2.71462">
        <ele>9.6</ele>
        <time>2020-06-23T14:32:59Z</time>
      </trkpt>
      <trkpt lat="50.95689" lon="2.71466">
        <ele>9.5</ele>
        <time>2020-06-23T14:33:00Z</time>
      </trkpt>
      <trkpt lat="50.95683" lon="2.7147">
        <ele>9.4</ele>
        <time>2020-06-23T14:33:01Z</time>
      </trkpt>
      <trkpt lat="50.95677" lon="2.71474">
        <ele>9.4</ele>
        <time>2020-06-23T14:33:02Z</time>
      </trkpt>
      <trkpt lat="50.95671" lon="2.71479">
        <ele>9.3</ele>
        <time>2020-06-23T14:33:03Z</time>
      </trkpt>
      <trkpt lat="50.95665" lon="2.71483">
        <ele>9.2</ele>
        <time>2020-06-23T14:33:04Z</time>
      </trkpt>
      <trkpt lat="50.95659" lon="2.71488">
        <ele>9.2</ele>
        <time>2020-06-23T14:33:05Z</time>
      </trkpt>
      <trkpt lat="50.95653" lon="2.71493">
        <ele>9.1</ele>
        <time>2020-06-23T14:33:06Z</time>
      </trkpt>
      <trkpt lat="50.95647" lon="2.71498">
        <ele>9</ele>
        <time>2020-06-23T14:33:07Z</time>
      </trkpt>
      <trkpt lat="50.95641" lon="2.71502">
        <ele>8.9</ele>
        <time>2020-06-23T14:33:08Z</time>
      </trkpt>
      <trkpt lat="50.95635" lon="2.71508">
        <ele>8.9</ele>
        <time>2020-06-23T14:33:09Z</time>
      </trkpt>
      <trkpt lat="50.95628" lon="2.71512">
        <ele>8.8</ele>
        <time>2020-06-23T14:33:10Z</time>
      </trkpt>
      <trkpt lat="50.95622" lon="2.71517">
        <ele>8.7</ele>
        <time>2020-06-23T14:33:11Z</time>
      </trkpt>
      <trkpt lat="50.95616" lon="2.71522">
        <ele>8.5</ele>
        <time>2020-06-23T14:33:12Z</time>
      </trkpt>
      <trkpt lat="50.9561" lon="2.71526">
        <ele>8.5</ele>
        <time>2020-06-23T14:33:13Z</time>
      </trkpt>
      <trkpt lat="50.95604" lon="2.71531">
        <ele>8.4</ele>
        <time>2020-06-23T14:33:14Z</time>
      </trkpt>
      <trkpt lat="50.95598" lon="2.71534">
        <ele>8.3</ele>
        <time>2020-06-23T14:33:15Z</time>
      </trkpt>
      <trkpt lat="50.95592" lon="2.71538">
        <ele>8.3</ele>
        <time>2020-06-23T14:33:16Z</time>
      </trkpt>
      <trkpt lat="50.95586" lon="2.71542">
        <ele>8.2</ele>
        <time>2020-06-23T14:33:17Z</time>
      </trkpt>
      <trkpt lat="50.9558" lon="2.71546">
        <ele>8.1</ele>
        <time>2020-06-23T14:33:18Z</time>
      </trkpt>
      <trkpt lat="50.95575" lon="2.7155">
        <ele>8</ele>
        <time>2020-06-23T14:33:19Z</time>
      </trkpt>
      <trkpt lat="50.95569" lon="2.71555">
        <ele>7.9</ele>
        <time>2020-06-23T14:33:20Z</time>
      </trkpt>
      <trkpt lat="50.95563" lon="2.7156">
        <ele>7.8</ele>
        <time>2020-06-23T14:33:21Z</time>
      </trkpt>
      <trkpt lat="50.95556" lon="2.71564">
        <ele>7.7</ele>
        <time>2020-06-23T14:33:22Z</time>
      </trkpt>
      <trkpt lat="50.9555" lon="2.71569">
        <ele>7.6</ele>
        <time>2020-06-23T14:33:23Z</time>
      </trkpt>
      <trkpt lat="50.95544" lon="2.71574">
        <ele>7.6</ele>
        <time>2020-06-23T14:33:24Z</time>
      </trkpt>
      <trkpt lat="50.95537" lon="2.71579">
        <ele>7.5</ele>
        <time>2020-06-23T14:33:25Z</time>
      </trkpt>
      <trkpt lat="50.95531" lon="2.71583">
        <ele>7.4</ele>
        <time>2020-06-23T14:33:26Z</time>
      </trkpt>
      <trkpt lat="50.95525" lon="2.71588">
        <ele>7.4</ele>
        <time>2020-06-23T14:33:27Z</time>
      </trkpt>
      <trkpt lat="50.95519" lon="2.71592">
        <ele>7.3</ele>
        <time>2020-06-23T14:33:28Z</time>
      </trkpt>
      <trkpt lat="50.95513" lon="2.71598">
        <ele>7.2</ele>
        <time>2020-06-23T14:33:29Z</time>
      </trkpt>
      <trkpt lat="50.95507" lon="2.71602">
        <ele>7.1</ele>
        <time>2020-06-23T14:33:30Z</time>
      </trkpt>
      <trkpt lat="50.955" lon="2.71606">
        <ele>6.9</ele>
        <time>2020-06-23T14:33:31Z</time>
      </trkpt>
      <trkpt lat="50.95494" lon="2.71612">
        <ele>6.8</ele>
        <time>2020-06-23T14:33:32Z</time>
      </trkpt>
      <trkpt lat="50.95488" lon="2.71616">
        <ele>6.7</ele>
        <time>2020-06-23T14:33:33Z</time>
      </trkpt>
      <trkpt lat="50.95482" lon="2.7162">
        <ele>6.7</ele>
        <time>2020-06-23T14:33:34Z</time>
      </trkpt>
      <trkpt lat="50.95475" lon="2.71624">
        <ele>6.6</ele>
        <time>2020-06-23T14:33:35Z</time>
      </trkpt>
      <trkpt lat="50.95469" lon="2.71628">
        <ele>6.5</ele>
        <time>2020-06-23T14:33:36Z</time>
      </trkpt>
      <trkpt lat="50.95463" lon="2.71632">
        <ele>6.5</ele>
        <time>2020-06-23T14:33:37Z</time>
      </trkpt>
      <trkpt lat="50.95456" lon="2.71636">
        <ele>6.3</ele>
        <time>2020-06-23T14:33:38Z</time>
      </trkpt>
      <trkpt lat="50.9545" lon="2.71641">
        <ele>6.2</ele>
        <time>2020-06-23T14:33:39Z</time>
      </trkpt>
      <trkpt lat="50.95443" lon="2.71646">
        <ele>6.1</ele>
        <time>2020-06-23T14:33:40Z</time>
      </trkpt>
      <trkpt lat="50.95437" lon="2.71651">
        <ele>6</ele>
        <time>2020-06-23T14:33:41Z</time>
      </trkpt>
      <trkpt lat="50.9543" lon="2.71655">
        <ele>5.8</ele>
        <time>2020-06-23T14:33:42Z</time>
      </trkpt>
      <trkpt lat="50.95424" lon="2.7166">
        <ele>5.7</ele>
        <time>2020-06-23T14:33:43Z</time>
      </trkpt>
      <trkpt lat="50.95417" lon="2.71666">
        <ele>5.6</ele>
        <time>2020-06-23T14:33:44Z</time>
      </trkpt>
      <trkpt lat="50.95411" lon="2.71671">
        <ele>5.5</ele>
        <time>2020-06-23T14:33:45Z</time>
      </trkpt>
      <trkpt lat="50.95405" lon="2.71675">
        <ele>5.4</ele>
        <time>2020-06-23T14:33:46Z</time>
      </trkpt>
      <trkpt lat="50.95399" lon="2.7168">
        <ele>5.3</ele>
        <time>2020-06-23T14:33:47Z</time>
      </trkpt>
      <trkpt lat="50.95393" lon="2.71685">
        <ele>5.2</ele>
        <time>2020-06-23T14:33:48Z</time>
      </trkpt>
      <trkpt lat="50.95386" lon="2.71689">
        <ele>5.1</ele>
        <time>2020-06-23T14:33:49Z</time>
      </trkpt>
      <trkpt lat="50.9538" lon="2.71694">
        <ele>5.1</ele>
        <time>2020-06-23T14:33:50Z</time>
      </trkpt>
      <trkpt lat="50.95374" lon="2.71698">
        <ele>5.2</ele>
        <time>2020-06-23T14:33:51Z</time>
      </trkpt>
      <trkpt lat="50.95368" lon="2.71702">
        <ele>5.3</ele>
        <time>2020-06-23T14:33:52Z</time>
      </trkpt>
      <trkpt lat="50.95362" lon="2.71707">
        <ele>5.4</ele>
        <time>2020-06-23T14:33:53Z</time>
      </trkpt>
      <trkpt lat="50.95356" lon="2.71711">
        <ele>5.3</ele>
        <time>2020-06-23T14:33:54Z</time>
      </trkpt>
      <trkpt lat="50.9535" lon="2.71715">
        <ele>5.1</ele>
        <time>2020-06-23T14:33:55Z</time>
      </trkpt>
      <trkpt lat="50.95344" lon="2.7172">
        <ele>4.9</ele>
        <time>2020-06-23T14:33:56Z</time>
      </trkpt>
      <trkpt lat="50.95338" lon="2.71723">
        <ele>4.6</ele>
        <time>2020-06-23T14:33:57Z</time>
      </trkpt>
      <trkpt lat="50.95332" lon="2.71727">
        <ele>4.4</ele>
        <time>2020-06-23T14:33:58Z</time>
      </trkpt>
      <trkpt lat="50.95326" lon="2.7173">
        <ele>4.3</ele>
        <time>2020-06-23T14:33:59Z</time>
      </trkpt>
      <trkpt lat="50.95319" lon="2.71733">
        <ele>4.1</ele>
        <time>2020-06-23T14:34:00Z</time>
      </trkpt>
      <trkpt lat="50.95313" lon="2.71736">
        <ele>3.9</ele>
        <time>2020-06-23T14:34:01Z</time>
      </trkpt>
      <trkpt lat="50.95306" lon="2.7174">
        <ele>3.8</ele>
        <time>2020-06-23T14:34:02Z</time>
      </trkpt>
      <trkpt lat="50.953" lon="2.71744">
        <ele>3.6</ele>
        <time>2020-06-23T14:34:03Z</time>
      </trkpt>
      <trkpt lat="50.95294" lon="2.71747">
        <ele>3.5</ele>
        <time>2020-06-23T14:34:04Z</time>
      </trkpt>
      <trkpt lat="50.95287" lon="2.71751">
        <ele>3.4</ele>
        <time>2020-06-23T14:34:05Z</time>
      </trkpt>
      <trkpt lat="50.95281" lon="2.71756">
        <ele>3.3</ele>
        <time>2020-06-23T14:34:06Z</time>
      </trkpt>
      <trkpt lat="50.95275" lon="2.7176">
        <ele>3.2</ele>
        <time>2020-06-23T14:34:07Z</time>
      </trkpt>
      <trkpt lat="50.95269" lon="2.71764">
        <ele>3.1</ele>
        <time>2020-06-23T14:34:08Z</time>
      </trkpt>
      <trkpt lat="50.95264" lon="2.71766">
        <ele>3</ele>
        <time>2020-06-23T14:34:09Z</time>
      </trkpt>
      <trkpt lat="50.95259" lon="2.7177">
        <ele>3</ele>
        <time>2020-06-23T14:34:10Z</time>
      </trkpt>
      <trkpt lat="50.95254" lon="2.71774">
        <ele>2.9</ele>
        <time>2020-06-23T14:34:11Z</time>
      </trkpt>
      <trkpt lat="50.95249" lon="2.71775">
        <ele>2.9</ele>
        <time>2020-06-23T14:34:12Z</time>
      </trkpt>
      <trkpt lat="50.95244" lon="2.71777">
        <ele>2.8</ele>
        <time>2020-06-23T14:34:13Z</time>
      </trkpt>
      <trkpt lat="50.9524" lon="2.7178">
        <ele>2.8</ele>
        <time>2020-06-23T14:34:14Z</time>
      </trkpt>
      <trkpt lat="50.95236" lon="2.71783">
        <ele>2.8</ele>
        <time>2020-06-23T14:34:15Z</time>
      </trkpt>
      <trkpt lat="50.95232" lon="2.71783">
        <ele>2.7</ele>
        <time>2020-06-23T14:34:16Z</time>
      </trkpt>
      <trkpt lat="50.95228" lon="2.71785">
        <ele>2.7</ele>
        <time>2020-06-23T14:34:17Z</time>
      </trkpt>
      <trkpt lat="50.95225" lon="2.71787">
        <ele>2.7</ele>
        <time>2020-06-23T14:34:18Z</time>
      </trkpt>
      <trkpt lat="50.95222" lon="2.71789">
        <ele>2.7</ele>
        <time>2020-06-23T14:34:19Z</time>
      </trkpt>
      <trkpt lat="50.95221" lon="2.7179">
        <ele>2.7</ele>
        <time>2020-06-23T14:34:20Z</time>
      </trkpt>
      <trkpt lat="50.95221" lon="2.71792">
        <ele>2.7</ele>
        <time>2020-06-23T14:34:21Z</time>
      </trkpt>
      <trkpt lat="50.95221" lon="2.71791">
        <ele>2.7</ele>
        <time>2020-06-23T14:34:22Z</time>
      </trkpt>
      <trkpt lat="50.95221" lon="2.71791">
        <ele>2.7</ele>
        <time>2020-06-23T14:34:23Z</time>
      </trkpt>
      <trkpt lat="50.95221" lon="2.7179">
        <ele>2.7</ele>
        <time>2020-06-23T14:34:24Z</time>
      </trkpt>
      <trkpt lat="50.9522" lon="2.71789">
        <ele>2.7</ele>
        <time>2020-06-23T14:34:25Z</time>
      </trkpt>
      <trkpt lat="50.9522" lon="2.71791">
        <ele>2.7</ele>
        <time>2020-06-23T14:34:26Z</time>
      </trkpt>
      <trkpt lat="50.95221" lon="2.71791">
        <ele>2.7</ele>
        <time>2020-06-23T14:34:27Z</time>
      </trkpt>
      <trkpt lat="50.95221" lon="2.71792">
        <ele>2.7</ele>
        <time>2020-06-23T14:34:28Z</time>
      </trkpt>
      <trkpt lat="50.9522" lon="2.71791">
        <ele>2.7</ele>
        <time>2020-06-23T14:34:29Z</time>
      </trkpt>
      <trkpt lat="50.9522" lon="2.71791">
        <ele>2.7</ele>
        <time>2020-06-23T14:34:30Z</time>
      </trkpt>
      <trkpt lat="50.95221" lon="2.71792">
        <ele>2.7</ele>
        <time>2020-06-23T14:34:31Z</time>
      </trkpt>
      <trkpt lat="50.95221" lon="2.71791">
        <ele>2.7</ele>
        <time>2020-06-23T14:34:32Z</time>
      </trkpt>
      <trkpt lat="50.95221" lon="2.71792">
        <ele>2.7</ele>
        <time>2020-06-23T14:34:33Z</time>
      </trkpt>
      <trkpt lat="50.95221" lon="2.71792">
        <ele>2.7</ele>
        <time>2020-06-23T14:34:34Z</time>
      </trkpt>
      <trkpt lat="50.95222" lon="2.71793">
        <ele>2.7</ele>
        <time>2020-06-23T14:34:35Z</time>
      </trkpt>
      <trkpt lat="50.95222" lon="2.71792">
        <ele>2.7</ele>
        <time>2020-06-23T14:34:36Z</time>
      </trkpt>
      <trkpt lat="50.95224" lon="2.71802">
        <ele>2.7</ele>
        <time>2020-06-23T14:35:15Z</time>
      </trkpt>
      <trkpt lat="50.95224" lon="2.71805">
        <ele>2.7</ele>
        <time>2020-06-23T14:35:16Z</time>
      </trkpt>
      <trkpt lat="50.95225" lon="2.71811">
        <ele>2.7</ele>
        <time>2020-06-23T14:35:17Z</time>
      </trkpt>
      <trkpt lat="50.95225" lon="2.71813">
        <ele>2.7</ele>
        <time>2020-06-23T14:35:18Z</time>
      </trkpt>
      <trkpt lat="50.95226" lon="2.71817">
        <ele>2.7</ele>
        <time>2020-06-23T14:35:19Z</time>
      </trkpt>
      <trkpt lat="50.95227" lon="2.71822">
        <ele>2.7</ele>
        <time>2020-06-23T14:35:20Z</time>
      </trkpt>
      <trkpt lat="50.95229" lon="2.71826">
        <ele>2.8</ele>
        <time>2020-06-23T14:35:21Z</time>
      </trkpt>
      <trkpt lat="50.9523" lon="2.71831">
        <ele>2.8</ele>
        <time>2020-06-23T14:35:22Z</time>
      </trkpt>
      <trkpt lat="50.95232" lon="2.71837">
        <ele>2.8</ele>
        <time>2020-06-23T14:35:23Z</time>
      </trkpt>
      <trkpt lat="50.95233" lon="2.71843">
        <ele>2.8</ele>
        <time>2020-06-23T14:35:24Z</time>
      </trkpt>
      <trkpt lat="50.95233" lon="2.7185">
        <ele>2.8</ele>
        <time>2020-06-23T14:35:25Z</time>
      </trkpt>
      <trkpt lat="50.95233" lon="2.71857">
        <ele>2.8</ele>
        <time>2020-06-23T14:35:26Z</time>
      </trkpt>
      <trkpt lat="50.95231" lon="2.71863">
        <ele>2.8</ele>
        <time>2020-06-23T14:35:27Z</time>
      </trkpt>
      <trkpt lat="50.95229" lon="2.71868">
        <ele>2.8</ele>
        <time>2020-06-23T14:35:28Z</time>
      </trkpt>
      <trkpt lat="50.95226" lon="2.71873">
        <ele>2.8</ele>
        <time>2020-06-23T14:35:29Z</time>
      </trkpt>
      <trkpt lat="50.95224" lon="2.71877">
        <ele>2.8</ele>
        <time>2020-06-23T14:35:30Z</time>
      </trkpt>
      <trkpt lat="50.95221" lon="2.7188">
        <ele>2.8</ele>
        <time>2020-06-23T14:35:31Z</time>
      </trkpt>
      <trkpt lat="50.95219" lon="2.71883">
        <ele>2.8</ele>
        <time>2020-06-23T14:35:32Z</time>
      </trkpt>
      <trkpt lat="50.95216" lon="2.71888">
        <ele>2.8</ele>
        <time>2020-06-23T14:35:33Z</time>
      </trkpt>
      <trkpt lat="50.95213" lon="2.71891">
        <ele>2.8</ele>
        <time>2020-06-23T14:35:34Z</time>
      </trkpt>
      <trkpt lat="50.95211" lon="2.71894">
        <ele>2.8</ele>
        <time>2020-06-23T14:35:35Z</time>
      </trkpt>
      <trkpt lat="50.95208" lon="2.71898">
        <ele>2.8</ele>
        <time>2020-06-23T14:35:36Z</time>
      </trkpt>
      <trkpt lat="50.95206" lon="2.71902">
        <ele>2.8</ele>
        <time>2020-06-23T14:35:37Z</time>
      </trkpt>
      <trkpt lat="50.95204" lon="2.71905">
        <ele>2.8</ele>
        <time>2020-06-23T14:35:38Z</time>
      </trkpt>
      <trkpt lat="50.95204" lon="2.71907">
        <ele>2.8</ele>
        <time>2020-06-23T14:35:39Z</time>
      </trkpt>
      <trkpt lat="50.95201" lon="2.7191">
        <ele>2.8</ele>
        <time>2020-06-23T14:35:40Z</time>
      </trkpt>
      <trkpt lat="50.95198" lon="2.71913">
        <ele>2.8</ele>
        <time>2020-06-23T14:35:41Z</time>
      </trkpt>
      <trkpt lat="50.95195" lon="2.71916">
        <ele>2.8</ele>
        <time>2020-06-23T14:35:42Z</time>
      </trkpt>
      <trkpt lat="50.95193" lon="2.71919">
        <ele>2.8</ele>
        <time>2020-06-23T14:35:43Z</time>
      </trkpt>
      <trkpt lat="50.9519" lon="2.71923">
        <ele>2.8</ele>
        <time>2020-06-23T14:35:44Z</time>
      </trkpt>
      <trkpt lat="50.95188" lon="2.71926">
        <ele>2.8</ele>
        <time>2020-06-23T14:35:45Z</time>
      </trkpt>
      <trkpt lat="50.95186" lon="2.7193">
        <ele>2.8</ele>
        <time>2020-06-23T14:35:46Z</time>
      </trkpt>
      <trkpt lat="50.95182" lon="2.71934">
        <ele>2.8</ele>
        <time>2020-06-23T14:35:47Z</time>
      </trkpt>
      <trkpt lat="50.95179" lon="2.71938">
        <ele>2.8</ele>
        <time>2020-06-23T14:35:48Z</time>
      </trkpt>
      <trkpt lat="50.95175" lon="2.71941">
        <ele>2.8</ele>
        <time>2020-06-23T14:35:49Z</time>
      </trkpt>
      <trkpt lat="50.95172" lon="2.71945">
        <ele>2.8</ele>
        <time>2020-06-23T14:35:50Z</time>
      </trkpt>
      <trkpt lat="50.95169" lon="2.71948">
        <ele>2.8</ele>
        <time>2020-06-23T14:35:51Z</time>
      </trkpt>
      <trkpt lat="50.95167" lon="2.71951">
        <ele>2.8</ele>
        <time>2020-06-23T14:35:52Z</time>
      </trkpt>
      <trkpt lat="50.95164" lon="2.71954">
        <ele>2.8</ele>
        <time>2020-06-23T14:35:53Z</time>
      </trkpt>
      <trkpt lat="50.95161" lon="2.71957">
        <ele>2.8</ele>
        <time>2020-06-23T14:35:54Z</time>
      </trkpt>
      <trkpt lat="50.95158" lon="2.7196">
        <ele>2.8</ele>
        <time>2020-06-23T14:35:55Z</time>
      </trkpt>
      <trkpt lat="50.95155" lon="2.71963">
        <ele>2.8</ele>
        <time>2020-06-23T14:35:56Z</time>
      </trkpt>
      <trkpt lat="50.95152" lon="2.71967">
        <ele>2.8</ele>
        <time>2020-06-23T14:35:57Z</time>
      </trkpt>
      <trkpt lat="50.9515" lon="2.7197">
        <ele>2.8</ele>
        <time>2020-06-23T14:35:58Z</time>
      </trkpt>
      <trkpt lat="50.95147" lon="2.71974">
        <ele>2.8</ele>
        <time>2020-06-23T14:35:59Z</time>
      </trkpt>
      <trkpt lat="50.95144" lon="2.71978">
        <ele>2.8</ele>
        <time>2020-06-23T14:36:00Z</time>
      </trkpt>
      <trkpt lat="50.95141" lon="2.71982">
        <ele>2.8</ele>
        <time>2020-06-23T14:36:01Z</time>
      </trkpt>
      <trkpt lat="50.95137" lon="2.71986">
        <ele>2.8</ele>
        <time>2020-06-23T14:36:02Z</time>
      </trkpt>
      <trkpt lat="50.95134" lon="2.7199">
        <ele>2.8</ele>
        <time>2020-06-23T14:36:03Z</time>
      </trkpt>
      <trkpt lat="50.95131" lon="2.71993">
        <ele>2.8</ele>
        <time>2020-06-23T14:36:04Z</time>
      </trkpt>
      <trkpt lat="50.95128" lon="2.71998">
        <ele>2.8</ele>
        <time>2020-06-23T14:36:05Z</time>
      </trkpt>
      <trkpt lat="50.95126" lon="2.72002">
        <ele>2.8</ele>
        <time>2020-06-23T14:36:06Z</time>
      </trkpt>
      <trkpt lat="50.95122" lon="2.72005">
        <ele>2.8</ele>
        <time>2020-06-23T14:36:07Z</time>
      </trkpt>
      <trkpt lat="50.95119" lon="2.72009">
        <ele>2.9</ele>
        <time>2020-06-23T14:36:08Z</time>
      </trkpt>
      <trkpt lat="50.95117" lon="2.72012">
        <ele>2.9</ele>
        <time>2020-06-23T14:36:09Z</time>
      </trkpt>
      <trkpt lat="50.95115" lon="2.72015">
        <ele>2.9</ele>
        <time>2020-06-23T14:36:10Z</time>
      </trkpt>
      <trkpt lat="50.95112" lon="2.72017">
        <ele>3</ele>
        <time>2020-06-23T14:36:11Z</time>
      </trkpt>
      <trkpt lat="50.9511" lon="2.7202">
        <ele>3</ele>
        <time>2020-06-23T14:36:12Z</time>
      </trkpt>
      <trkpt lat="50.95108" lon="2.72024">
        <ele>3</ele>
        <time>2020-06-23T14:36:13Z</time>
      </trkpt>
      <trkpt lat="50.95105" lon="2.72029">
        <ele>3.1</ele>
        <time>2020-06-23T14:36:14Z</time>
      </trkpt>
      <trkpt lat="50.95103" lon="2.72033">
        <ele>3.1</ele>
        <time>2020-06-23T14:36:15Z</time>
      </trkpt>
      <trkpt lat="50.95098" lon="2.72036">
        <ele>3.2</ele>
        <time>2020-06-23T14:36:16Z</time>
      </trkpt>
      <trkpt lat="50.95095" lon="2.72041">
        <ele>3.3</ele>
        <time>2020-06-23T14:36:17Z</time>
      </trkpt>
      <trkpt lat="50.95092" lon="2.72045">
        <ele>3.3</ele>
        <time>2020-06-23T14:36:18Z</time>
      </trkpt>
      <trkpt lat="50.95089" lon="2.7205">
        <ele>3.4</ele>
        <time>2020-06-23T14:36:19Z</time>
      </trkpt>
      <trkpt lat="50.95086" lon="2.72055">
        <ele>3.4</ele>
        <time>2020-06-23T14:36:20Z</time>
      </trkpt>
      <trkpt lat="50.95081" lon="2.72061">
        <ele>3.5</ele>
        <time>2020-06-23T14:36:21Z</time>
      </trkpt>
      <trkpt lat="50.95078" lon="2.72064">
        <ele>3.6</ele>
        <time>2020-06-23T14:36:22Z</time>
      </trkpt>
      <trkpt lat="50.95075" lon="2.72068">
        <ele>3.6</ele>
        <time>2020-06-23T14:36:23Z</time>
      </trkpt>
      <trkpt lat="50.95071" lon="2.72071">
        <ele>3.7</ele>
        <time>2020-06-23T14:36:24Z</time>
      </trkpt>
      <trkpt lat="50.95068" lon="2.72075">
        <ele>3.8</ele>
        <time>2020-06-23T14:36:25Z</time>
      </trkpt>
      <trkpt lat="50.95066" lon="2.72078">
        <ele>3.8</ele>
        <time>2020-06-23T14:36:26Z</time>
      </trkpt>
      <trkpt lat="50.95063" lon="2.72082">
        <ele>3.9</ele>
        <time>2020-06-23T14:36:27Z</time>
      </trkpt>
      <trkpt lat="50.9506" lon="2.72086">
        <ele>4</ele>
        <time>2020-06-23T14:36:28Z</time>
      </trkpt>
      <trkpt lat="50.95058" lon="2.72089">
        <ele>4</ele>
        <time>2020-06-23T14:36:29Z</time>
      </trkpt>
      <trkpt lat="50.95055" lon="2.7209">
        <ele>4.1</ele>
        <time>2020-06-23T14:36:30Z</time>
      </trkpt>
      <trkpt lat="50.95052" lon="2.72092">
        <ele>4.1</ele>
        <time>2020-06-23T14:36:31Z</time>
      </trkpt>
      <trkpt lat="50.95051" lon="2.72092">
        <ele>4.2</ele>
        <time>2020-06-23T14:36:32Z</time>
      </trkpt>
      <trkpt lat="50.95047" lon="2.72093">
        <ele>4.1</ele>
        <time>2020-06-23T14:36:33Z</time>
      </trkpt>
      <trkpt lat="50.95046" lon="2.72093">
        <ele>4.1</ele>
        <time>2020-06-23T14:36:34Z</time>
      </trkpt>
      <trkpt lat="50.95043" lon="2.72095">
        <ele>4.1</ele>
        <time>2020-06-23T14:36:35Z</time>
      </trkpt>
      <trkpt lat="50.95042" lon="2.72097">
        <ele>4.1</ele>
        <time>2020-06-23T14:36:36Z</time>
      </trkpt>
      <trkpt lat="50.95041" lon="2.72099">
        <ele>4</ele>
        <time>2020-06-23T14:36:37Z</time>
      </trkpt>
      <trkpt lat="50.9504" lon="2.72101">
        <ele>4</ele>
        <time>2020-06-23T14:36:38Z</time>
      </trkpt>
      <trkpt lat="50.95038" lon="2.72104">
        <ele>4</ele>
        <time>2020-06-23T14:36:39Z</time>
      </trkpt>
      <trkpt lat="50.95037" lon="2.72105">
        <ele>4</ele>
        <time>2020-06-23T14:36:40Z</time>
      </trkpt>
      <trkpt lat="50.95036" lon="2.72106">
        <ele>3.9</ele>
        <time>2020-06-23T14:36:41Z</time>
      </trkpt>
      <trkpt lat="50.95035" lon="2.72109">
        <ele>3.9</ele>
        <time>2020-06-23T14:36:42Z</time>
      </trkpt>
      <trkpt lat="50.95034" lon="2.72111">
        <ele>3.9</ele>
        <time>2020-06-23T14:36:43Z</time>
      </trkpt>
      <trkpt lat="50.95033" lon="2.72113">
        <ele>3.9</ele>
        <time>2020-06-23T14:36:44Z</time>
      </trkpt>
      <trkpt lat="50.95032" lon="2.72115">
        <ele>3.8</ele>
        <time>2020-06-23T14:36:45Z</time>
      </trkpt>
      <trkpt lat="50.95031" lon="2.72117">
        <ele>3.8</ele>
        <time>2020-06-23T14:36:46Z</time>
      </trkpt>
      <trkpt lat="50.95029" lon="2.72121">
        <ele>3.8</ele>
        <time>2020-06-23T14:36:47Z</time>
      </trkpt>
      <trkpt lat="50.95029" lon="2.72122">
        <ele>3.8</ele>
        <time>2020-06-23T14:36:48Z</time>
      </trkpt>
      <trkpt lat="50.95027" lon="2.72128">
        <ele>3.7</ele>
        <time>2020-06-23T14:36:49Z</time>
      </trkpt>
      <trkpt lat="50.95027" lon="2.7213">
        <ele>3.7</ele>
        <time>2020-06-23T14:36:50Z</time>
      </trkpt>
      <trkpt lat="50.95024" lon="2.72133">
        <ele>3.6</ele>
        <time>2020-06-23T14:36:51Z</time>
      </trkpt>
      <trkpt lat="50.95022" lon="2.72138">
        <ele>3.6</ele>
        <time>2020-06-23T14:36:52Z</time>
      </trkpt>
      <trkpt lat="50.95018" lon="2.72142">
        <ele>3.5</ele>
        <time>2020-06-23T14:36:53Z</time>
      </trkpt>
      <trkpt lat="50.95014" lon="2.72146">
        <ele>3.5</ele>
        <time>2020-06-23T14:36:54Z</time>
      </trkpt>
      <trkpt lat="50.9501" lon="2.72149">
        <ele>3.4</ele>
        <time>2020-06-23T14:36:55Z</time>
      </trkpt>
      <trkpt lat="50.95007" lon="2.72152">
        <ele>3.4</ele>
        <time>2020-06-23T14:36:56Z</time>
      </trkpt>
      <trkpt lat="50.95002" lon="2.72155">
        <ele>3.4</ele>
        <time>2020-06-23T14:36:57Z</time>
      </trkpt>
      <trkpt lat="50.94999" lon="2.72158">
        <ele>3.3</ele>
        <time>2020-06-23T14:36:58Z</time>
      </trkpt>
      <trkpt lat="50.94997" lon="2.7216">
        <ele>3.3</ele>
        <time>2020-06-23T14:36:59Z</time>
      </trkpt>
      <trkpt lat="50.94993" lon="2.72161">
        <ele>3.3</ele>
        <time>2020-06-23T14:37:00Z</time>
      </trkpt>
      <trkpt lat="50.9499" lon="2.72164">
        <ele>3.3</ele>
        <time>2020-06-23T14:37:01Z</time>
      </trkpt>
      <trkpt lat="50.94987" lon="2.72167">
        <ele>3.3</ele>
        <time>2020-06-23T14:37:02Z</time>
      </trkpt>
      <trkpt lat="50.94983" lon="2.72172">
        <ele>3.3</ele>
        <time>2020-06-23T14:37:03Z</time>
      </trkpt>
      <trkpt lat="50.94978" lon="2.72175">
        <ele>3.3</ele>
        <time>2020-06-23T14:37:04Z</time>
      </trkpt>
      <trkpt lat="50.94974" lon="2.72178">
        <ele>3.3</ele>
        <time>2020-06-23T14:37:05Z</time>
      </trkpt>
      <trkpt lat="50.9497" lon="2.72182">
        <ele>3.3</ele>
        <time>2020-06-23T14:37:06Z</time>
      </trkpt>
      <trkpt lat="50.94966" lon="2.72186">
        <ele>3.3</ele>
        <time>2020-06-23T14:37:07Z</time>
      </trkpt>
      <trkpt lat="50.94963" lon="2.72188">
        <ele>3.3</ele>
        <time>2020-06-23T14:37:08Z</time>
      </trkpt>
      <trkpt lat="50.94959" lon="2.72192">
        <ele>3.3</ele>
        <time>2020-06-23T14:37:09Z</time>
      </trkpt>
      <trkpt lat="50.94955" lon="2.72195">
        <ele>3.3</ele>
        <time>2020-06-23T14:37:10Z</time>
      </trkpt>
      <trkpt lat="50.94952" lon="2.722">
        <ele>3.2</ele>
        <time>2020-06-23T14:37:11Z</time>
      </trkpt>
      <trkpt lat="50.94948" lon="2.72205">
        <ele>3.2</ele>
        <time>2020-06-23T14:37:12Z</time>
      </trkpt>
      <trkpt lat="50.94945" lon="2.72208">
        <ele>3.2</ele>
        <time>2020-06-23T14:37:13Z</time>
      </trkpt>
      <trkpt lat="50.94941" lon="2.72212">
        <ele>3.2</ele>
        <time>2020-06-23T14:37:14Z</time>
      </trkpt>
      <trkpt lat="50.94938" lon="2.72216">
        <ele>3.2</ele>
        <time>2020-06-23T14:37:15Z</time>
      </trkpt>
      <trkpt lat="50.94935" lon="2.72221">
        <ele>3.2</ele>
        <time>2020-06-23T14:37:16Z</time>
      </trkpt>
      <trkpt lat="50.94931" lon="2.72225">
        <ele>3.2</ele>
        <time>2020-06-23T14:37:17Z</time>
      </trkpt>
      <trkpt lat="50.94926" lon="2.72228">
        <ele>3.2</ele>
        <time>2020-06-23T14:37:18Z</time>
      </trkpt>
      <trkpt lat="50.94922" lon="2.72233">
        <ele>3.2</ele>
        <time>2020-06-23T14:37:19Z</time>
      </trkpt>
      <trkpt lat="50.94918" lon="2.72239">
        <ele>3.2</ele>
        <time>2020-06-23T14:37:20Z</time>
      </trkpt>
      <trkpt lat="50.94911" lon="2.72243">
        <ele>3.1</ele>
        <time>2020-06-23T14:37:21Z</time>
      </trkpt>
      <trkpt lat="50.94907" lon="2.72248">
        <ele>3.1</ele>
        <time>2020-06-23T14:37:22Z</time>
      </trkpt>
      <trkpt lat="50.94902" lon="2.7225">
        <ele>3.1</ele>
        <time>2020-06-23T14:37:23Z</time>
      </trkpt>
      <trkpt lat="50.94896" lon="2.72254">
        <ele>3.1</ele>
        <time>2020-06-23T14:37:24Z</time>
      </trkpt>
      <trkpt lat="50.9489" lon="2.72257">
        <ele>3.1</ele>
        <time>2020-06-23T14:37:25Z</time>
      </trkpt>
      <trkpt lat="50.94885" lon="2.7226">
        <ele>3.1</ele>
        <time>2020-06-23T14:37:26Z</time>
      </trkpt>
      <trkpt lat="50.9488" lon="2.72264">
        <ele>3.1</ele>
        <time>2020-06-23T14:37:27Z</time>
      </trkpt>
      <trkpt lat="50.94875" lon="2.72268">
        <ele>3.1</ele>
        <time>2020-06-23T14:37:28Z</time>
      </trkpt>
      <trkpt lat="50.9487" lon="2.72271">
        <ele>3.1</ele>
        <time>2020-06-23T14:37:29Z</time>
      </trkpt>
      <trkpt lat="50.94865" lon="2.72275">
        <ele>3.1</ele>
        <time>2020-06-23T14:37:30Z</time>
      </trkpt>
      <trkpt lat="50.9486" lon="2.72278">
        <ele>3.1</ele>
        <time>2020-06-23T14:37:31Z</time>
      </trkpt>
      <trkpt lat="50.94854" lon="2.72282">
        <ele>3.1</ele>
        <time>2020-06-23T14:37:32Z</time>
      </trkpt>
      <trkpt lat="50.94849" lon="2.72287">
        <ele>3.1</ele>
        <time>2020-06-23T14:37:33Z</time>
      </trkpt>
      <trkpt lat="50.94843" lon="2.72291">
        <ele>3.1</ele>
        <time>2020-06-23T14:37:34Z</time>
      </trkpt>
      <trkpt lat="50.94837" lon="2.72294">
        <ele>3.2</ele>
        <time>2020-06-23T14:37:35Z</time>
      </trkpt>
      <trkpt lat="50.94832" lon="2.72298">
        <ele>3.2</ele>
        <time>2020-06-23T14:37:36Z</time>
      </trkpt>
      <trkpt lat="50.94827" lon="2.72303">
        <ele>3.2</ele>
        <time>2020-06-23T14:37:37Z</time>
      </trkpt>
      <trkpt lat="50.94823" lon="2.72307">
        <ele>3.3</ele>
        <time>2020-06-23T14:37:38Z</time>
      </trkpt>
      <trkpt lat="50.94817" lon="2.72311">
        <ele>3.3</ele>
        <time>2020-06-23T14:37:39Z</time>
      </trkpt>
      <trkpt lat="50.94812" lon="2.72317">
        <ele>3.2</ele>
        <time>2020-06-23T14:37:40Z</time>
      </trkpt>
      <trkpt lat="50.94806" lon="2.72322">
        <ele>3.2</ele>
        <time>2020-06-23T14:37:41Z</time>
      </trkpt>
      <trkpt lat="50.94801" lon="2.72328">
        <ele>3.2</ele>
        <time>2020-06-23T14:37:42Z</time>
      </trkpt>
      <trkpt lat="50.94796" lon="2.72333">
        <ele>3.3</ele>
        <time>2020-06-23T14:37:43Z</time>
      </trkpt>
      <trkpt lat="50.9479" lon="2.72337">
        <ele>3.3</ele>
        <time>2020-06-23T14:37:44Z</time>
      </trkpt>
      <trkpt lat="50.94785" lon="2.72339">
        <ele>3.3</ele>
        <time>2020-06-23T14:37:45Z</time>
      </trkpt>
      <trkpt lat="50.94779" lon="2.72343">
        <ele>3.4</ele>
        <time>2020-06-23T14:37:46Z</time>
      </trkpt>
      <trkpt lat="50.94774" lon="2.72346">
        <ele>3.4</ele>
        <time>2020-06-23T14:37:47Z</time>
      </trkpt>
      <trkpt lat="50.94768" lon="2.72349">
        <ele>3.4</ele>
        <time>2020-06-23T14:37:48Z</time>
      </trkpt>
      <trkpt lat="50.94763" lon="2.72351">
        <ele>3.5</ele>
        <time>2020-06-23T14:37:49Z</time>
      </trkpt>
      <trkpt lat="50.94755" lon="2.72355">
        <ele>3.5</ele>
        <time>2020-06-23T14:37:50Z</time>
      </trkpt>
      <trkpt lat="50.94751" lon="2.72358">
        <ele>3.6</ele>
        <time>2020-06-23T14:37:51Z</time>
      </trkpt>
      <trkpt lat="50.94745" lon="2.72363">
        <ele>3.6</ele>
        <time>2020-06-23T14:37:52Z</time>
      </trkpt>
      <trkpt lat="50.94739" lon="2.72364">
        <ele>3.5</ele>
        <time>2020-06-23T14:37:53Z</time>
      </trkpt>
      <trkpt lat="50.94733" lon="2.72367">
        <ele>3.5</ele>
        <time>2020-06-23T14:37:54Z</time>
      </trkpt>
      <trkpt lat="50.94727" lon="2.7237">
        <ele>3.5</ele>
        <time>2020-06-23T14:37:55Z</time>
      </trkpt>
      <trkpt lat="50.9472" lon="2.72373">
        <ele>3.5</ele>
        <time>2020-06-23T14:37:56Z</time>
      </trkpt>
      <trkpt lat="50.94714" lon="2.72377">
        <ele>3.5</ele>
        <time>2020-06-23T14:37:57Z</time>
      </trkpt>
      <trkpt lat="50.94708" lon="2.72381">
        <ele>3.6</ele>
        <time>2020-06-23T14:37:58Z</time>
      </trkpt>
      <trkpt lat="50.94703" lon="2.72384">
        <ele>3.6</ele>
        <time>2020-06-23T14:37:59Z</time>
      </trkpt>
      <trkpt lat="50.94696" lon="2.72388">
        <ele>3.6</ele>
        <time>2020-06-23T14:38:00Z</time>
      </trkpt>
      <trkpt lat="50.94691" lon="2.72392">
        <ele>3.6</ele>
        <time>2020-06-23T14:38:01Z</time>
      </trkpt>
      <trkpt lat="50.94685" lon="2.72395">
        <ele>3.6</ele>
        <time>2020-06-23T14:38:02Z</time>
      </trkpt>
      <trkpt lat="50.94678" lon="2.72399">
        <ele>3.6</ele>
        <time>2020-06-23T14:38:03Z</time>
      </trkpt>
      <trkpt lat="50.94672" lon="2.72403">
        <ele>3.6</ele>
        <time>2020-06-23T14:38:04Z</time>
      </trkpt>
      <trkpt lat="50.94666" lon="2.72405">
        <ele>3.6</ele>
        <time>2020-06-23T14:38:05Z</time>
      </trkpt>
      <trkpt lat="50.94661" lon="2.72409">
        <ele>3.6</ele>
        <time>2020-06-23T14:38:06Z</time>
      </trkpt>
      <trkpt lat="50.94655" lon="2.72412">
        <ele>3.6</ele>
        <time>2020-06-23T14:38:07Z</time>
      </trkpt>
      <trkpt lat="50.94649" lon="2.72416">
        <ele>3.6</ele>
        <time>2020-06-23T14:38:08Z</time>
      </trkpt>
      <trkpt lat="50.94643" lon="2.72421">
        <ele>3.6</ele>
        <time>2020-06-23T14:38:09Z</time>
      </trkpt>
      <trkpt lat="50.94637" lon="2.72425">
        <ele>3.6</ele>
        <time>2020-06-23T14:38:10Z</time>
      </trkpt>
      <trkpt lat="50.94632" lon="2.72429">
        <ele>3.6</ele>
        <time>2020-06-23T14:38:11Z</time>
      </trkpt>
      <trkpt lat="50.94626" lon="2.72433">
        <ele>3.6</ele>
        <time>2020-06-23T14:38:12Z</time>
      </trkpt>
      <trkpt lat="50.94618" lon="2.72439">
        <ele>3.6</ele>
        <time>2020-06-23T14:38:13Z</time>
      </trkpt>
      <trkpt lat="50.94612" lon="2.72442">
        <ele>3.7</ele>
        <time>2020-06-23T14:38:14Z</time>
      </trkpt>
      <trkpt lat="50.94607" lon="2.72445">
        <ele>3.7</ele>
        <time>2020-06-23T14:38:15Z</time>
      </trkpt>
      <trkpt lat="50.946" lon="2.72448">
        <ele>3.7</ele>
        <time>2020-06-23T14:38:16Z</time>
      </trkpt>
      <trkpt lat="50.94594" lon="2.72452">
        <ele>3.7</ele>
        <time>2020-06-23T14:38:17Z</time>
      </trkpt>
      <trkpt lat="50.94588" lon="2.72457">
        <ele>3.7</ele>
        <time>2020-06-23T14:38:18Z</time>
      </trkpt>
      <trkpt lat="50.94582" lon="2.72462">
        <ele>3.7</ele>
        <time>2020-06-23T14:38:19Z</time>
      </trkpt>
      <trkpt lat="50.94576" lon="2.72467">
        <ele>3.7</ele>
        <time>2020-06-23T14:38:20Z</time>
      </trkpt>
      <trkpt lat="50.9457" lon="2.72472">
        <ele>3.8</ele>
        <time>2020-06-23T14:38:21Z</time>
      </trkpt>
      <trkpt lat="50.94565" lon="2.72477">
        <ele>3.8</ele>
        <time>2020-06-23T14:38:22Z</time>
      </trkpt>
      <trkpt lat="50.9456" lon="2.72481">
        <ele>3.8</ele>
        <time>2020-06-23T14:38:23Z</time>
      </trkpt>
      <trkpt lat="50.94554" lon="2.72484">
        <ele>3.9</ele>
        <time>2020-06-23T14:38:24Z</time>
      </trkpt>
      <trkpt lat="50.94549" lon="2.72487">
        <ele>3.9</ele>
        <time>2020-06-23T14:38:25Z</time>
      </trkpt>
      <trkpt lat="50.94545" lon="2.72491">
        <ele>3.9</ele>
        <time>2020-06-23T14:38:26Z</time>
      </trkpt>
      <trkpt lat="50.9454" lon="2.72495">
        <ele>3.9</ele>
        <time>2020-06-23T14:38:27Z</time>
      </trkpt>
      <trkpt lat="50.94536" lon="2.72499">
        <ele>3.9</ele>
        <time>2020-06-23T14:38:28Z</time>
      </trkpt>
      <trkpt lat="50.94531" lon="2.72504">
        <ele>3.9</ele>
        <time>2020-06-23T14:38:29Z</time>
      </trkpt>
      <trkpt lat="50.94525" lon="2.7251">
        <ele>3.9</ele>
        <time>2020-06-23T14:38:30Z</time>
      </trkpt>
      <trkpt lat="50.9452" lon="2.72514">
        <ele>3.9</ele>
        <time>2020-06-23T14:38:31Z</time>
      </trkpt>
      <trkpt lat="50.94514" lon="2.72519">
        <ele>4</ele>
        <time>2020-06-23T14:38:32Z</time>
      </trkpt>
      <trkpt lat="50.94508" lon="2.72525">
        <ele>4</ele>
        <time>2020-06-23T14:38:33Z</time>
      </trkpt>
      <trkpt lat="50.94502" lon="2.72531">
        <ele>4.1</ele>
        <time>2020-06-23T14:38:34Z</time>
      </trkpt>
      <trkpt lat="50.94496" lon="2.72537">
        <ele>4.1</ele>
        <time>2020-06-23T14:38:35Z</time>
      </trkpt>
      <trkpt lat="50.94491" lon="2.72542">
        <ele>4.1</ele>
        <time>2020-06-23T14:38:36Z</time>
      </trkpt>
      <trkpt lat="50.94487" lon="2.72546">
        <ele>4.1</ele>
        <time>2020-06-23T14:38:37Z</time>
      </trkpt>
      <trkpt lat="50.94482" lon="2.72551">
        <ele>4.1</ele>
        <time>2020-06-23T14:38:38Z</time>
      </trkpt>
      <trkpt lat="50.94478" lon="2.72555">
        <ele>4</ele>
        <time>2020-06-23T14:38:39Z</time>
      </trkpt>
      <trkpt lat="50.94473" lon="2.72559">
        <ele>4</ele>
        <time>2020-06-23T14:38:40Z</time>
      </trkpt>
      <trkpt lat="50.94467" lon="2.72562">
        <ele>4</ele>
        <time>2020-06-23T14:38:41Z</time>
      </trkpt>
      <trkpt lat="50.94462" lon="2.72567">
        <ele>4</ele>
        <time>2020-06-23T14:38:42Z</time>
      </trkpt>
      <trkpt lat="50.94456" lon="2.72572">
        <ele>4</ele>
        <time>2020-06-23T14:38:43Z</time>
      </trkpt>
      <trkpt lat="50.94451" lon="2.72575">
        <ele>4.1</ele>
        <time>2020-06-23T14:38:44Z</time>
      </trkpt>
      <trkpt lat="50.94445" lon="2.72579">
        <ele>4.1</ele>
        <time>2020-06-23T14:38:45Z</time>
      </trkpt>
      <trkpt lat="50.94439" lon="2.72582">
        <ele>4.1</ele>
        <time>2020-06-23T14:38:46Z</time>
      </trkpt>
      <trkpt lat="50.94433" lon="2.72585">
        <ele>4.1</ele>
        <time>2020-06-23T14:38:47Z</time>
      </trkpt>
      <trkpt lat="50.94428" lon="2.72588">
        <ele>4.1</ele>
        <time>2020-06-23T14:38:48Z</time>
      </trkpt>
      <trkpt lat="50.94423" lon="2.7259">
        <ele>4.1</ele>
        <time>2020-06-23T14:38:49Z</time>
      </trkpt>
      <trkpt lat="50.94418" lon="2.72593">
        <ele>4.1</ele>
        <time>2020-06-23T14:38:50Z</time>
      </trkpt>
      <trkpt lat="50.94413" lon="2.72595">
        <ele>4.1</ele>
        <time>2020-06-23T14:38:51Z</time>
      </trkpt>
      <trkpt lat="50.94407" lon="2.72598">
        <ele>4.1</ele>
        <time>2020-06-23T14:38:52Z</time>
      </trkpt>
      <trkpt lat="50.94403" lon="2.726">
        <ele>4.1</ele>
        <time>2020-06-23T14:38:53Z</time>
      </trkpt>
      <trkpt lat="50.94399" lon="2.72603">
        <ele>4.1</ele>
        <time>2020-06-23T14:38:54Z</time>
      </trkpt>
      <trkpt lat="50.94395" lon="2.72607">
        <ele>4.1</ele>
        <time>2020-06-23T14:38:55Z</time>
      </trkpt>
      <trkpt lat="50.94391" lon="2.7261">
        <ele>4.2</ele>
        <time>2020-06-23T14:38:56Z</time>
      </trkpt>
      <trkpt lat="50.94387" lon="2.72613">
        <ele>4.2</ele>
        <time>2020-06-23T14:38:57Z</time>
      </trkpt>
      <trkpt lat="50.94383" lon="2.72615">
        <ele>4.2</ele>
        <time>2020-06-23T14:38:58Z</time>
      </trkpt>
      <trkpt lat="50.94382" lon="2.72616">
        <ele>4.2</ele>
        <time>2020-06-23T14:38:59Z</time>
      </trkpt>
      <trkpt lat="50.94378" lon="2.72618">
        <ele>4.2</ele>
        <time>2020-06-23T14:39:00Z</time>
      </trkpt>
      <trkpt lat="50.94375" lon="2.7262">
        <ele>4.2</ele>
        <time>2020-06-23T14:39:01Z</time>
      </trkpt>
      <trkpt lat="50.9437" lon="2.72622">
        <ele>4.2</ele>
        <time>2020-06-23T14:39:02Z</time>
      </trkpt>
      <trkpt lat="50.94365" lon="2.72627">
        <ele>4.2</ele>
        <time>2020-06-23T14:39:03Z</time>
      </trkpt>
      <trkpt lat="50.94359" lon="2.72631">
        <ele>4.2</ele>
        <time>2020-06-23T14:39:04Z</time>
      </trkpt>
      <trkpt lat="50.94354" lon="2.72635">
        <ele>4.2</ele>
        <time>2020-06-23T14:39:05Z</time>
      </trkpt>
      <trkpt lat="50.94348" lon="2.7264">
        <ele>4.2</ele>
        <time>2020-06-23T14:39:06Z</time>
      </trkpt>
      <trkpt lat="50.94344" lon="2.72644">
        <ele>4.1</ele>
        <time>2020-06-23T14:39:07Z</time>
      </trkpt>
      <trkpt lat="50.9434" lon="2.72645">
        <ele>4.1</ele>
        <time>2020-06-23T14:39:08Z</time>
      </trkpt>
      <trkpt lat="50.94335" lon="2.72647">
        <ele>4.1</ele>
        <time>2020-06-23T14:39:09Z</time>
      </trkpt>
      <trkpt lat="50.94331" lon="2.7265">
        <ele>4</ele>
        <time>2020-06-23T14:39:10Z</time>
      </trkpt>
      <trkpt lat="50.94327" lon="2.72653">
        <ele>4</ele>
        <time>2020-06-23T14:39:11Z</time>
      </trkpt>
      <trkpt lat="50.94323" lon="2.72656">
        <ele>4</ele>
        <time>2020-06-23T14:39:12Z</time>
      </trkpt>
      <trkpt lat="50.94318" lon="2.72659">
        <ele>4</ele>
        <time>2020-06-23T14:39:13Z</time>
      </trkpt>
      <trkpt lat="50.94314" lon="2.72661">
        <ele>4</ele>
        <time>2020-06-23T14:39:14Z</time>
      </trkpt>
      <trkpt lat="50.9431" lon="2.72664">
        <ele>3.9</ele>
        <time>2020-06-23T14:39:15Z</time>
      </trkpt>
      <trkpt lat="50.94304" lon="2.72667">
        <ele>3.9</ele>
        <time>2020-06-23T14:39:16Z</time>
      </trkpt>
      <trkpt lat="50.94299" lon="2.7267">
        <ele>3.9</ele>
        <time>2020-06-23T14:39:17Z</time>
      </trkpt>
      <trkpt lat="50.94293" lon="2.72673">
        <ele>3.9</ele>
        <time>2020-06-23T14:39:18Z</time>
      </trkpt>
      <trkpt lat="50.94289" lon="2.72676">
        <ele>3.9</ele>
        <time>2020-06-23T14:39:19Z</time>
      </trkpt>
      <trkpt lat="50.94284" lon="2.72678">
        <ele>3.9</ele>
        <time>2020-06-23T14:39:20Z</time>
      </trkpt>
      <trkpt lat="50.94279" lon="2.72681">
        <ele>3.9</ele>
        <time>2020-06-23T14:39:21Z</time>
      </trkpt>
      <trkpt lat="50.94276" lon="2.72685">
        <ele>3.9</ele>
        <time>2020-06-23T14:39:22Z</time>
      </trkpt>
      <trkpt lat="50.94271" lon="2.72688">
        <ele>3.9</ele>
        <time>2020-06-23T14:39:23Z</time>
      </trkpt>
      <trkpt lat="50.94269" lon="2.72692">
        <ele>3.9</ele>
        <time>2020-06-23T14:39:24Z</time>
      </trkpt>
      <trkpt lat="50.94265" lon="2.72695">
        <ele>3.9</ele>
        <time>2020-06-23T14:39:25Z</time>
      </trkpt>
      <trkpt lat="50.94261" lon="2.72698">
        <ele>3.9</ele>
        <time>2020-06-23T14:39:26Z</time>
      </trkpt>
      <trkpt lat="50.94258" lon="2.72702">
        <ele>3.9</ele>
        <time>2020-06-23T14:39:27Z</time>
      </trkpt>
      <trkpt lat="50.94256" lon="2.72704">
        <ele>3.9</ele>
        <time>2020-06-23T14:39:28Z</time>
      </trkpt>
      <trkpt lat="50.94252" lon="2.72707">
        <ele>3.8</ele>
        <time>2020-06-23T14:39:29Z</time>
      </trkpt>
      <trkpt lat="50.94248" lon="2.7271">
        <ele>3.8</ele>
        <time>2020-06-23T14:39:30Z</time>
      </trkpt>
      <trkpt lat="50.94244" lon="2.72715">
        <ele>3.8</ele>
        <time>2020-06-23T14:39:31Z</time>
      </trkpt>
      <trkpt lat="50.9424" lon="2.72719">
        <ele>3.8</ele>
        <time>2020-06-23T14:39:32Z</time>
      </trkpt>
      <trkpt lat="50.94236" lon="2.72723">
        <ele>3.8</ele>
        <time>2020-06-23T14:39:33Z</time>
      </trkpt>
      <trkpt lat="50.94231" lon="2.72727">
        <ele>3.7</ele>
        <time>2020-06-23T14:39:34Z</time>
      </trkpt>
      <trkpt lat="50.94227" lon="2.72732">
        <ele>3.7</ele>
        <time>2020-06-23T14:39:35Z</time>
      </trkpt>
      <trkpt lat="50.94222" lon="2.72736">
        <ele>3.7</ele>
        <time>2020-06-23T14:39:36Z</time>
      </trkpt>
      <trkpt lat="50.94217" lon="2.7274">
        <ele>3.7</ele>
        <time>2020-06-23T14:39:37Z</time>
      </trkpt>
      <trkpt lat="50.94212" lon="2.72745">
        <ele>3.8</ele>
        <time>2020-06-23T14:39:38Z</time>
      </trkpt>
      <trkpt lat="50.94207" lon="2.72748">
        <ele>3.8</ele>
        <time>2020-06-23T14:39:39Z</time>
      </trkpt>
      <trkpt lat="50.94202" lon="2.72752">
        <ele>3.8</ele>
        <time>2020-06-23T14:39:40Z</time>
      </trkpt>
      <trkpt lat="50.94197" lon="2.72756">
        <ele>3.9</ele>
        <time>2020-06-23T14:39:41Z</time>
      </trkpt>
      <trkpt lat="50.94192" lon="2.7276">
        <ele>3.9</ele>
        <time>2020-06-23T14:39:42Z</time>
      </trkpt>
      <trkpt lat="50.94187" lon="2.72765">
        <ele>3.8</ele>
        <time>2020-06-23T14:39:43Z</time>
      </trkpt>
      <trkpt lat="50.94183" lon="2.7277">
        <ele>3.8</ele>
        <time>2020-06-23T14:39:44Z</time>
      </trkpt>
      <trkpt lat="50.94178" lon="2.72775">
        <ele>3.8</ele>
        <time>2020-06-23T14:39:45Z</time>
      </trkpt>
      <trkpt lat="50.94173" lon="2.7278">
        <ele>3.8</ele>
        <time>2020-06-23T14:39:46Z</time>
      </trkpt>
      <trkpt lat="50.94168" lon="2.72784">
        <ele>3.8</ele>
        <time>2020-06-23T14:39:47Z</time>
      </trkpt>
      <trkpt lat="50.94164" lon="2.72787">
        <ele>3.8</ele>
        <time>2020-06-23T14:39:48Z</time>
      </trkpt>
      <trkpt lat="50.94159" lon="2.72792">
        <ele>3.8</ele>
        <time>2020-06-23T14:39:49Z</time>
      </trkpt>
      <trkpt lat="50.94155" lon="2.72795">
        <ele>3.8</ele>
        <time>2020-06-23T14:39:50Z</time>
      </trkpt>
      <trkpt lat="50.9415" lon="2.728">
        <ele>3.8</ele>
        <time>2020-06-23T14:39:51Z</time>
      </trkpt>
      <trkpt lat="50.94146" lon="2.72804">
        <ele>3.8</ele>
        <time>2020-06-23T14:39:52Z</time>
      </trkpt>
      <trkpt lat="50.94142" lon="2.72807">
        <ele>3.7</ele>
        <time>2020-06-23T14:39:53Z</time>
      </trkpt>
      <trkpt lat="50.94137" lon="2.72811">
        <ele>3.7</ele>
        <time>2020-06-23T14:39:54Z</time>
      </trkpt>
      <trkpt lat="50.94132" lon="2.72815">
        <ele>3.7</ele>
        <time>2020-06-23T14:39:55Z</time>
      </trkpt>
      <trkpt lat="50.94126" lon="2.7282">
        <ele>3.6</ele>
        <time>2020-06-23T14:39:56Z</time>
      </trkpt>
      <trkpt lat="50.9412" lon="2.72824">
        <ele>3.6</ele>
        <time>2020-06-23T14:39:57Z</time>
      </trkpt>
      <trkpt lat="50.94115" lon="2.72829">
        <ele>3.6</ele>
        <time>2020-06-23T14:39:58Z</time>
      </trkpt>
      <trkpt lat="50.9411" lon="2.72833">
        <ele>3.6</ele>
        <time>2020-06-23T14:39:59Z</time>
      </trkpt>
      <trkpt lat="50.94105" lon="2.72838">
        <ele>3.7</ele>
        <time>2020-06-23T14:40:00Z</time>
      </trkpt>
      <trkpt lat="50.94099" lon="2.72844">
        <ele>3.7</ele>
        <time>2020-06-23T14:40:01Z</time>
      </trkpt>
      <trkpt lat="50.94094" lon="2.72849">
        <ele>3.7</ele>
        <time>2020-06-23T14:40:02Z</time>
      </trkpt>
      <trkpt lat="50.94088" lon="2.72853">
        <ele>3.7</ele>
        <time>2020-06-23T14:40:03Z</time>
      </trkpt>
      <trkpt lat="50.94083" lon="2.72858">
        <ele>3.8</ele>
        <time>2020-06-23T14:40:04Z</time>
      </trkpt>
      <trkpt lat="50.94077" lon="2.72863">
        <ele>3.9</ele>
        <time>2020-06-23T14:40:05Z</time>
      </trkpt>
      <trkpt lat="50.94071" lon="2.72869">
        <ele>3.9</ele>
        <time>2020-06-23T14:40:06Z</time>
      </trkpt>
      <trkpt lat="50.94065" lon="2.72874">
        <ele>4</ele>
        <time>2020-06-23T14:40:07Z</time>
      </trkpt>
      <trkpt lat="50.9406" lon="2.72877">
        <ele>4</ele>
        <time>2020-06-23T14:40:08Z</time>
      </trkpt>
      <trkpt lat="50.94055" lon="2.72881">
        <ele>4</ele>
        <time>2020-06-23T14:40:09Z</time>
      </trkpt>
      <trkpt lat="50.94049" lon="2.72885">
        <ele>4</ele>
        <time>2020-06-23T14:40:10Z</time>
      </trkpt>
      <trkpt lat="50.94044" lon="2.7289">
        <ele>4</ele>
        <time>2020-06-23T14:40:11Z</time>
      </trkpt>
      <trkpt lat="50.94039" lon="2.72894">
        <ele>4</ele>
        <time>2020-06-23T14:40:12Z</time>
      </trkpt>
      <trkpt lat="50.94034" lon="2.72899">
        <ele>4</ele>
        <time>2020-06-23T14:40:13Z</time>
      </trkpt>
      <trkpt lat="50.94029" lon="2.72903">
        <ele>4</ele>
        <time>2020-06-23T14:40:14Z</time>
      </trkpt>
      <trkpt lat="50.94024" lon="2.72908">
        <ele>4</ele>
        <time>2020-06-23T14:40:15Z</time>
      </trkpt>
      <trkpt lat="50.94018" lon="2.72912">
        <ele>4</ele>
        <time>2020-06-23T14:40:16Z</time>
      </trkpt>
      <trkpt lat="50.94013" lon="2.72917">
        <ele>4</ele>
        <time>2020-06-23T14:40:17Z</time>
      </trkpt>
      <trkpt lat="50.94008" lon="2.72922">
        <ele>4</ele>
        <time>2020-06-23T14:40:18Z</time>
      </trkpt>
      <trkpt lat="50.94003" lon="2.72928">
        <ele>4</ele>
        <time>2020-06-23T14:40:19Z</time>
      </trkpt>
      <trkpt lat="50.93998" lon="2.72932">
        <ele>4</ele>
        <time>2020-06-23T14:40:20Z</time>
      </trkpt>
      <trkpt lat="50.93992" lon="2.72938">
        <ele>4</ele>
        <time>2020-06-23T14:40:21Z</time>
      </trkpt>
      <trkpt lat="50.93986" lon="2.72943">
        <ele>4</ele>
        <time>2020-06-23T14:40:22Z</time>
      </trkpt>
      <trkpt lat="50.93981" lon="2.72949">
        <ele>4</ele>
        <time>2020-06-23T14:40:23Z</time>
      </trkpt>
      <trkpt lat="50.93975" lon="2.72954">
        <ele>4</ele>
        <time>2020-06-23T14:40:24Z</time>
      </trkpt>
      <trkpt lat="50.93969" lon="2.72959">
        <ele>4</ele>
        <time>2020-06-23T14:40:25Z</time>
      </trkpt>
      <trkpt lat="50.93964" lon="2.72964">
        <ele>4</ele>
        <time>2020-06-23T14:40:26Z</time>
      </trkpt>
      <trkpt lat="50.93958" lon="2.72969">
        <ele>4</ele>
        <time>2020-06-23T14:40:27Z</time>
      </trkpt>
      <trkpt lat="50.93953" lon="2.72973">
        <ele>4</ele>
        <time>2020-06-23T14:40:28Z</time>
      </trkpt>
      <trkpt lat="50.93947" lon="2.72977">
        <ele>4</ele>
        <time>2020-06-23T14:40:29Z</time>
      </trkpt>
      <trkpt lat="50.93943" lon="2.72982">
        <ele>4</ele>
        <time>2020-06-23T14:40:30Z</time>
      </trkpt>
      <trkpt lat="50.93937" lon="2.72986">
        <ele>4</ele>
        <time>2020-06-23T14:40:31Z</time>
      </trkpt>
      <trkpt lat="50.93932" lon="2.72991">
        <ele>4</ele>
        <time>2020-06-23T14:40:32Z</time>
      </trkpt>
      <trkpt lat="50.93926" lon="2.72996">
        <ele>4</ele>
        <time>2020-06-23T14:40:33Z</time>
      </trkpt>
      <trkpt lat="50.93921" lon="2.73001">
        <ele>4</ele>
        <time>2020-06-23T14:40:34Z</time>
      </trkpt>
      <trkpt lat="50.93916" lon="2.73006">
        <ele>4</ele>
        <time>2020-06-23T14:40:35Z</time>
      </trkpt>
      <trkpt lat="50.93911" lon="2.73011">
        <ele>4</ele>
        <time>2020-06-23T14:40:36Z</time>
      </trkpt>
      <trkpt lat="50.93906" lon="2.73015">
        <ele>4</ele>
        <time>2020-06-23T14:40:37Z</time>
      </trkpt>
      <trkpt lat="50.93901" lon="2.73021">
        <ele>4</ele>
        <time>2020-06-23T14:40:38Z</time>
      </trkpt>
      <trkpt lat="50.93896" lon="2.73025">
        <ele>3.9</ele>
        <time>2020-06-23T14:40:39Z</time>
      </trkpt>
      <trkpt lat="50.93891" lon="2.73029">
        <ele>3.9</ele>
        <time>2020-06-23T14:40:40Z</time>
      </trkpt>
      <trkpt lat="50.93885" lon="2.73034">
        <ele>3.9</ele>
        <time>2020-06-23T14:40:41Z</time>
      </trkpt>
      <trkpt lat="50.9388" lon="2.73038">
        <ele>3.9</ele>
        <time>2020-06-23T14:40:42Z</time>
      </trkpt>
      <trkpt lat="50.93874" lon="2.73043">
        <ele>3.9</ele>
        <time>2020-06-23T14:40:43Z</time>
      </trkpt>
      <trkpt lat="50.93869" lon="2.73048">
        <ele>3.9</ele>
        <time>2020-06-23T14:40:44Z</time>
      </trkpt>
      <trkpt lat="50.93863" lon="2.73053">
        <ele>3.9</ele>
        <time>2020-06-23T14:40:45Z</time>
      </trkpt>
      <trkpt lat="50.93857" lon="2.73059">
        <ele>3.9</ele>
        <time>2020-06-23T14:40:46Z</time>
      </trkpt>
      <trkpt lat="50.93852" lon="2.73064">
        <ele>3.9</ele>
        <time>2020-06-23T14:40:47Z</time>
      </trkpt>
      <trkpt lat="50.93846" lon="2.7307">
        <ele>3.9</ele>
        <time>2020-06-23T14:40:48Z</time>
      </trkpt>
      <trkpt lat="50.9384" lon="2.73075">
        <ele>3.9</ele>
        <time>2020-06-23T14:40:49Z</time>
      </trkpt>
      <trkpt lat="50.93834" lon="2.73079">
        <ele>3.9</ele>
        <time>2020-06-23T14:40:50Z</time>
      </trkpt>
      <trkpt lat="50.93827" lon="2.73083">
        <ele>3.9</ele>
        <time>2020-06-23T14:40:51Z</time>
      </trkpt>
      <trkpt lat="50.93821" lon="2.73089">
        <ele>3.8</ele>
        <time>2020-06-23T14:40:52Z</time>
      </trkpt>
      <trkpt lat="50.93815" lon="2.73094">
        <ele>3.8</ele>
        <time>2020-06-23T14:40:53Z</time>
      </trkpt>
      <trkpt lat="50.9381" lon="2.73098">
        <ele>3.8</ele>
        <time>2020-06-23T14:40:54Z</time>
      </trkpt>
      <trkpt lat="50.93805" lon="2.73103">
        <ele>3.8</ele>
        <time>2020-06-23T14:40:55Z</time>
      </trkpt>
      <trkpt lat="50.93799" lon="2.73108">
        <ele>3.7</ele>
        <time>2020-06-23T14:40:56Z</time>
      </trkpt>
      <trkpt lat="50.93793" lon="2.73112">
        <ele>3.7</ele>
        <time>2020-06-23T14:40:57Z</time>
      </trkpt>
      <trkpt lat="50.93788" lon="2.73116">
        <ele>3.7</ele>
        <time>2020-06-23T14:40:58Z</time>
      </trkpt>
      <trkpt lat="50.93783" lon="2.73121">
        <ele>3.7</ele>
        <time>2020-06-23T14:40:59Z</time>
      </trkpt>
      <trkpt lat="50.93777" lon="2.73127">
        <ele>3.6</ele>
        <time>2020-06-23T14:41:00Z</time>
      </trkpt>
      <trkpt lat="50.9377" lon="2.73133">
        <ele>3.6</ele>
        <time>2020-06-23T14:41:01Z</time>
      </trkpt>
      <trkpt lat="50.93765" lon="2.73138">
        <ele>3.6</ele>
        <time>2020-06-23T14:41:02Z</time>
      </trkpt>
      <trkpt lat="50.93759" lon="2.73143">
        <ele>3.6</ele>
        <time>2020-06-23T14:41:03Z</time>
      </trkpt>
      <trkpt lat="50.93753" lon="2.73147">
        <ele>3.6</ele>
        <time>2020-06-23T14:41:04Z</time>
      </trkpt>
      <trkpt lat="50.93747" lon="2.73152">
        <ele>3.6</ele>
        <time>2020-06-23T14:41:05Z</time>
      </trkpt>
      <trkpt lat="50.93741" lon="2.73157">
        <ele>3.6</ele>
        <time>2020-06-23T14:41:06Z</time>
      </trkpt>
      <trkpt lat="50.93735" lon="2.73162">
        <ele>3.6</ele>
        <time>2020-06-23T14:41:07Z</time>
      </trkpt>
      <trkpt lat="50.9373" lon="2.73167">
        <ele>3.6</ele>
        <time>2020-06-23T14:41:08Z</time>
      </trkpt>
      <trkpt lat="50.93724" lon="2.73172">
        <ele>3.6</ele>
        <time>2020-06-23T14:41:09Z</time>
      </trkpt>
      <trkpt lat="50.93718" lon="2.73177">
        <ele>3.6</ele>
        <time>2020-06-23T14:41:10Z</time>
      </trkpt>
      <trkpt lat="50.93713" lon="2.73181">
        <ele>3.6</ele>
        <time>2020-06-23T14:41:11Z</time>
      </trkpt>
      <trkpt lat="50.93708" lon="2.73186">
        <ele>3.6</ele>
        <time>2020-06-23T14:41:12Z</time>
      </trkpt>
      <trkpt lat="50.93702" lon="2.73192">
        <ele>3.5</ele>
        <time>2020-06-23T14:41:13Z</time>
      </trkpt>
      <trkpt lat="50.93697" lon="2.73198">
        <ele>3.5</ele>
        <time>2020-06-23T14:41:14Z</time>
      </trkpt>
      <trkpt lat="50.93691" lon="2.73202">
        <ele>3.5</ele>
        <time>2020-06-23T14:41:15Z</time>
      </trkpt>
      <trkpt lat="50.93684" lon="2.73208">
        <ele>3.4</ele>
        <time>2020-06-23T14:41:16Z</time>
      </trkpt>
      <trkpt lat="50.93679" lon="2.73213">
        <ele>3.4</ele>
        <time>2020-06-23T14:41:17Z</time>
      </trkpt>
      <trkpt lat="50.93674" lon="2.73218">
        <ele>3.4</ele>
        <time>2020-06-23T14:41:18Z</time>
      </trkpt>
      <trkpt lat="50.93669" lon="2.73222">
        <ele>3.4</ele>
        <time>2020-06-23T14:41:19Z</time>
      </trkpt>
      <trkpt lat="50.93663" lon="2.73228">
        <ele>3.4</ele>
        <time>2020-06-23T14:41:20Z</time>
      </trkpt>
      <trkpt lat="50.93658" lon="2.73232">
        <ele>3.4</ele>
        <time>2020-06-23T14:41:21Z</time>
      </trkpt>
      <trkpt lat="50.93653" lon="2.73238">
        <ele>3.5</ele>
        <time>2020-06-23T14:41:22Z</time>
      </trkpt>
      <trkpt lat="50.93647" lon="2.73244">
        <ele>3.5</ele>
        <time>2020-06-23T14:41:23Z</time>
      </trkpt>
      <trkpt lat="50.93641" lon="2.73249">
        <ele>3.5</ele>
        <time>2020-06-23T14:41:24Z</time>
      </trkpt>
      <trkpt lat="50.93636" lon="2.73255">
        <ele>3.5</ele>
        <time>2020-06-23T14:41:25Z</time>
      </trkpt>
      <trkpt lat="50.93631" lon="2.7326">
        <ele>3.5</ele>
        <time>2020-06-23T14:41:26Z</time>
      </trkpt>
      <trkpt lat="50.93626" lon="2.73265">
        <ele>3.4</ele>
        <time>2020-06-23T14:41:27Z</time>
      </trkpt>
      <trkpt lat="50.93622" lon="2.7327">
        <ele>3.4</ele>
        <time>2020-06-23T14:41:28Z</time>
      </trkpt>
      <trkpt lat="50.93617" lon="2.73275">
        <ele>3.4</ele>
        <time>2020-06-23T14:41:29Z</time>
      </trkpt>
      <trkpt lat="50.93614" lon="2.73277">
        <ele>3.4</ele>
        <time>2020-06-23T14:41:30Z</time>
      </trkpt>
      <trkpt lat="50.93608" lon="2.73284">
        <ele>3.3</ele>
        <time>2020-06-23T14:41:31Z</time>
      </trkpt>
      <trkpt lat="50.93603" lon="2.73289">
        <ele>3.3</ele>
        <time>2020-06-23T14:41:32Z</time>
      </trkpt>
      <trkpt lat="50.93599" lon="2.73293">
        <ele>3.2</ele>
        <time>2020-06-23T14:41:33Z</time>
      </trkpt>
      <trkpt lat="50.93595" lon="2.73298">
        <ele>3.2</ele>
        <time>2020-06-23T14:41:34Z</time>
      </trkpt>
      <trkpt lat="50.93592" lon="2.73301">
        <ele>3.2</ele>
        <time>2020-06-23T14:41:35Z</time>
      </trkpt>
      <trkpt lat="50.93589" lon="2.73305">
        <ele>3.2</ele>
        <time>2020-06-23T14:41:36Z</time>
      </trkpt>
      <trkpt lat="50.93586" lon="2.73309">
        <ele>3.2</ele>
        <time>2020-06-23T14:41:37Z</time>
      </trkpt>
      <trkpt lat="50.9358" lon="2.73309">
        <ele>3.2</ele>
        <time>2020-06-23T14:41:38Z</time>
      </trkpt>
      <trkpt lat="50.93575" lon="2.73307">
        <ele>3.2</ele>
        <time>2020-06-23T14:41:39Z</time>
      </trkpt>
      <trkpt lat="50.9357" lon="2.73307">
        <ele>3.2</ele>
        <time>2020-06-23T14:41:40Z</time>
      </trkpt>
      <trkpt lat="50.93566" lon="2.73309">
        <ele>3.2</ele>
        <time>2020-06-23T14:41:41Z</time>
      </trkpt>
      <trkpt lat="50.93561" lon="2.73314">
        <ele>3.2</ele>
        <time>2020-06-23T14:41:42Z</time>
      </trkpt>
      <trkpt lat="50.93556" lon="2.73319">
        <ele>3.3</ele>
        <time>2020-06-23T14:41:43Z</time>
      </trkpt>
      <trkpt lat="50.93553" lon="2.73322">
        <ele>3.3</ele>
        <time>2020-06-23T14:41:44Z</time>
      </trkpt>
      <trkpt lat="50.93548" lon="2.73328">
        <ele>3.3</ele>
        <time>2020-06-23T14:41:45Z</time>
      </trkpt>
      <trkpt lat="50.93544" lon="2.73334">
        <ele>3.3</ele>
        <time>2020-06-23T14:41:46Z</time>
      </trkpt>
      <trkpt lat="50.93539" lon="2.73339">
        <ele>3.3</ele>
        <time>2020-06-23T14:41:47Z</time>
      </trkpt>
      <trkpt lat="50.93534" lon="2.73344">
        <ele>3.3</ele>
        <time>2020-06-23T14:41:48Z</time>
      </trkpt>
      <trkpt lat="50.9353" lon="2.73349">
        <ele>3.2</ele>
        <time>2020-06-23T14:41:49Z</time>
      </trkpt>
      <trkpt lat="50.93524" lon="2.73355">
        <ele>3.2</ele>
        <time>2020-06-23T14:41:50Z</time>
      </trkpt>
      <trkpt lat="50.93519" lon="2.73361">
        <ele>3.2</ele>
        <time>2020-06-23T14:41:51Z</time>
      </trkpt>
      <trkpt lat="50.93513" lon="2.73367">
        <ele>3.2</ele>
        <time>2020-06-23T14:41:52Z</time>
      </trkpt>
      <trkpt lat="50.93508" lon="2.73372">
        <ele>3.2</ele>
        <time>2020-06-23T14:41:53Z</time>
      </trkpt>
      <trkpt lat="50.93504" lon="2.73376">
        <ele>3.2</ele>
        <time>2020-06-23T14:41:54Z</time>
      </trkpt>
      <trkpt lat="50.935" lon="2.7338">
        <ele>3.2</ele>
        <time>2020-06-23T14:41:55Z</time>
      </trkpt>
      <trkpt lat="50.93495" lon="2.73386">
        <ele>3.2</ele>
        <time>2020-06-23T14:41:56Z</time>
      </trkpt>
      <trkpt lat="50.93491" lon="2.73393">
        <ele>3.2</ele>
        <time>2020-06-23T14:41:57Z</time>
      </trkpt>
      <trkpt lat="50.93487" lon="2.73398">
        <ele>3.2</ele>
        <time>2020-06-23T14:41:58Z</time>
      </trkpt>
      <trkpt lat="50.93482" lon="2.73404">
        <ele>3.2</ele>
        <time>2020-06-23T14:41:59Z</time>
      </trkpt>
      <trkpt lat="50.93479" lon="2.73409">
        <ele>3.2</ele>
        <time>2020-06-23T14:42:00Z</time>
      </trkpt>
      <trkpt lat="50.93474" lon="2.73414">
        <ele>3.2</ele>
        <time>2020-06-23T14:42:01Z</time>
      </trkpt>
      <trkpt lat="50.9347" lon="2.73421">
        <ele>3.2</ele>
        <time>2020-06-23T14:42:02Z</time>
      </trkpt>
      <trkpt lat="50.93466" lon="2.73427">
        <ele>3.2</ele>
        <time>2020-06-23T14:42:03Z</time>
      </trkpt>
      <trkpt lat="50.93461" lon="2.73432">
        <ele>3.2</ele>
        <time>2020-06-23T14:42:04Z</time>
      </trkpt>
      <trkpt lat="50.93457" lon="2.73436">
        <ele>3.2</ele>
        <time>2020-06-23T14:42:05Z</time>
      </trkpt>
      <trkpt lat="50.93452" lon="2.73442">
        <ele>3.2</ele>
        <time>2020-06-23T14:42:06Z</time>
      </trkpt>
      <trkpt lat="50.93447" lon="2.73446">
        <ele>3.2</ele>
        <time>2020-06-23T14:42:07Z</time>
      </trkpt>
      <trkpt lat="50.93443" lon="2.7345">
        <ele>3.2</ele>
        <time>2020-06-23T14:42:08Z</time>
      </trkpt>
      <trkpt lat="50.93438" lon="2.73455">
        <ele>3.2</ele>
        <time>2020-06-23T14:42:09Z</time>
      </trkpt>
      <trkpt lat="50.93433" lon="2.7346">
        <ele>3.2</ele>
        <time>2020-06-23T14:42:10Z</time>
      </trkpt>
      <trkpt lat="50.93427" lon="2.73465">
        <ele>3.2</ele>
        <time>2020-06-23T14:42:11Z</time>
      </trkpt>
      <trkpt lat="50.93423" lon="2.7347">
        <ele>3.2</ele>
        <time>2020-06-23T14:42:12Z</time>
      </trkpt>
      <trkpt lat="50.93419" lon="2.73476">
        <ele>3.2</ele>
        <time>2020-06-23T14:42:13Z</time>
      </trkpt>
      <trkpt lat="50.93413" lon="2.73482">
        <ele>3.2</ele>
        <time>2020-06-23T14:42:14Z</time>
      </trkpt>
      <trkpt lat="50.93408" lon="2.73487">
        <ele>3.3</ele>
        <time>2020-06-23T14:42:15Z</time>
      </trkpt>
      <trkpt lat="50.93402" lon="2.73491">
        <ele>3.3</ele>
        <time>2020-06-23T14:42:16Z</time>
      </trkpt>
      <trkpt lat="50.93397" lon="2.73495">
        <ele>3.3</ele>
        <time>2020-06-23T14:42:17Z</time>
      </trkpt>
      <trkpt lat="50.93392" lon="2.73498">
        <ele>3.3</ele>
        <time>2020-06-23T14:42:18Z</time>
      </trkpt>
      <trkpt lat="50.93386" lon="2.73505">
        <ele>3.3</ele>
        <time>2020-06-23T14:42:19Z</time>
      </trkpt>
      <trkpt lat="50.93382" lon="2.73507">
        <ele>3.3</ele>
        <time>2020-06-23T14:42:20Z</time>
      </trkpt>
      <trkpt lat="50.93376" lon="2.73512">
        <ele>3.3</ele>
        <time>2020-06-23T14:42:21Z</time>
      </trkpt>
      <trkpt lat="50.93371" lon="2.73517">
        <ele>3.3</ele>
        <time>2020-06-23T14:42:22Z</time>
      </trkpt>
      <trkpt lat="50.93367" lon="2.73522">
        <ele>3.3</ele>
        <time>2020-06-23T14:42:23Z</time>
      </trkpt>
      <trkpt lat="50.93361" lon="2.73527">
        <ele>3.4</ele>
        <time>2020-06-23T14:42:24Z</time>
      </trkpt>
      <trkpt lat="50.93355" lon="2.73533">
        <ele>3.4</ele>
        <time>2020-06-23T14:42:25Z</time>
      </trkpt>
      <trkpt lat="50.9335" lon="2.73538">
        <ele>3.5</ele>
        <time>2020-06-23T14:42:26Z</time>
      </trkpt>
      <trkpt lat="50.93345" lon="2.73544">
        <ele>3.5</ele>
        <time>2020-06-23T14:42:27Z</time>
      </trkpt>
      <trkpt lat="50.93339" lon="2.7355">
        <ele>3.5</ele>
        <time>2020-06-23T14:42:28Z</time>
      </trkpt>
      <trkpt lat="50.93335" lon="2.73556">
        <ele>3.5</ele>
        <time>2020-06-23T14:42:29Z</time>
      </trkpt>
      <trkpt lat="50.93329" lon="2.7356">
        <ele>3.6</ele>
        <time>2020-06-23T14:42:30Z</time>
      </trkpt>
      <trkpt lat="50.93324" lon="2.73564">
        <ele>3.6</ele>
        <time>2020-06-23T14:42:31Z</time>
      </trkpt>
      <trkpt lat="50.93318" lon="2.73568">
        <ele>3.7</ele>
        <time>2020-06-23T14:42:32Z</time>
      </trkpt>
      <trkpt lat="50.93312" lon="2.73571">
        <ele>3.8</ele>
        <time>2020-06-23T14:42:33Z</time>
      </trkpt>
      <trkpt lat="50.93306" lon="2.73574">
        <ele>3.9</ele>
        <time>2020-06-23T14:42:34Z</time>
      </trkpt>
      <trkpt lat="50.93299" lon="2.73576">
        <ele>4</ele>
        <time>2020-06-23T14:42:35Z</time>
      </trkpt>
      <trkpt lat="50.93295" lon="2.7358">
        <ele>4</ele>
        <time>2020-06-23T14:42:36Z</time>
      </trkpt>
      <trkpt lat="50.93289" lon="2.73582">
        <ele>4.1</ele>
        <time>2020-06-23T14:42:37Z</time>
      </trkpt>
      <trkpt lat="50.93283" lon="2.73585">
        <ele>4.2</ele>
        <time>2020-06-23T14:42:38Z</time>
      </trkpt>
      <trkpt lat="50.93278" lon="2.73588">
        <ele>4.3</ele>
        <time>2020-06-23T14:42:39Z</time>
      </trkpt>
      <trkpt lat="50.93272" lon="2.73591">
        <ele>4.3</ele>
        <time>2020-06-23T14:42:40Z</time>
      </trkpt>
      <trkpt lat="50.93266" lon="2.73594">
        <ele>4.3</ele>
        <time>2020-06-23T14:42:41Z</time>
      </trkpt>
      <trkpt lat="50.9326" lon="2.73597">
        <ele>4.3</ele>
        <time>2020-06-23T14:42:42Z</time>
      </trkpt>
      <trkpt lat="50.93255" lon="2.73599">
        <ele>4.2</ele>
        <time>2020-06-23T14:42:43Z</time>
      </trkpt>
      <trkpt lat="50.93249" lon="2.73602">
        <ele>4.2</ele>
        <time>2020-06-23T14:42:44Z</time>
      </trkpt>
      <trkpt lat="50.93244" lon="2.73605">
        <ele>4.3</ele>
        <time>2020-06-23T14:42:45Z</time>
      </trkpt>
      <trkpt lat="50.9324" lon="2.73609">
        <ele>4.4</ele>
        <time>2020-06-23T14:42:46Z</time>
      </trkpt>
      <trkpt lat="50.93235" lon="2.73614">
        <ele>4.4</ele>
        <time>2020-06-23T14:42:47Z</time>
      </trkpt>
      <trkpt lat="50.9323" lon="2.73617">
        <ele>4.5</ele>
        <time>2020-06-23T14:42:48Z</time>
      </trkpt>
      <trkpt lat="50.93223" lon="2.73621">
        <ele>4.6</ele>
        <time>2020-06-23T14:42:49Z</time>
      </trkpt>
      <trkpt lat="50.93216" lon="2.73626">
        <ele>4.7</ele>
        <time>2020-06-23T14:42:50Z</time>
      </trkpt>
      <trkpt lat="50.93211" lon="2.73631">
        <ele>4.8</ele>
        <time>2020-06-23T14:42:51Z</time>
      </trkpt>
      <trkpt lat="50.93207" lon="2.73635">
        <ele>4.9</ele>
        <time>2020-06-23T14:42:52Z</time>
      </trkpt>
      <trkpt lat="50.93202" lon="2.73638">
        <ele>5.1</ele>
        <time>2020-06-23T14:42:53Z</time>
      </trkpt>
      <trkpt lat="50.93198" lon="2.73643">
        <ele>5.3</ele>
        <time>2020-06-23T14:42:54Z</time>
      </trkpt>
      <trkpt lat="50.93195" lon="2.73647">
        <ele>5.4</ele>
        <time>2020-06-23T14:42:55Z</time>
      </trkpt>
      <trkpt lat="50.93189" lon="2.73651">
        <ele>5.7</ele>
        <time>2020-06-23T14:42:56Z</time>
      </trkpt>
      <trkpt lat="50.93184" lon="2.73656">
        <ele>5.9</ele>
        <time>2020-06-23T14:42:57Z</time>
      </trkpt>
      <trkpt lat="50.93181" lon="2.7366">
        <ele>6.1</ele>
        <time>2020-06-23T14:42:58Z</time>
      </trkpt>
      <trkpt lat="50.93177" lon="2.73664">
        <ele>6.3</ele>
        <time>2020-06-23T14:42:59Z</time>
      </trkpt>
      <trkpt lat="50.93172" lon="2.73671">
        <ele>6.4</ele>
        <time>2020-06-23T14:43:00Z</time>
      </trkpt>
      <trkpt lat="50.93168" lon="2.73676">
        <ele>6.5</ele>
        <time>2020-06-23T14:43:01Z</time>
      </trkpt>
      <trkpt lat="50.93163" lon="2.73682">
        <ele>6.4</ele>
        <time>2020-06-23T14:43:02Z</time>
      </trkpt>
      <trkpt lat="50.93158" lon="2.73688">
        <ele>6.3</ele>
        <time>2020-06-23T14:43:03Z</time>
      </trkpt>
      <trkpt lat="50.93153" lon="2.73693">
        <ele>6.2</ele>
        <time>2020-06-23T14:43:04Z</time>
      </trkpt>
      <trkpt lat="50.93149" lon="2.737">
        <ele>6</ele>
        <time>2020-06-23T14:43:05Z</time>
      </trkpt>
      <trkpt lat="50.93144" lon="2.73706">
        <ele>5.9</ele>
        <time>2020-06-23T14:43:06Z</time>
      </trkpt>
      <trkpt lat="50.93139" lon="2.73712">
        <ele>5.8</ele>
        <time>2020-06-23T14:43:07Z</time>
      </trkpt>
      <trkpt lat="50.93135" lon="2.73719">
        <ele>5.7</ele>
        <time>2020-06-23T14:43:08Z</time>
      </trkpt>
      <trkpt lat="50.93131" lon="2.73726">
        <ele>5.7</ele>
        <time>2020-06-23T14:43:09Z</time>
      </trkpt>
      <trkpt lat="50.93127" lon="2.73732">
        <ele>5.7</ele>
        <time>2020-06-23T14:43:10Z</time>
      </trkpt>
      <trkpt lat="50.93123" lon="2.7374">
        <ele>5.7</ele>
        <time>2020-06-23T14:43:11Z</time>
      </trkpt>
      <trkpt lat="50.93119" lon="2.73747">
        <ele>5.8</ele>
        <time>2020-06-23T14:43:12Z</time>
      </trkpt>
      <trkpt lat="50.93115" lon="2.73753">
        <ele>5.8</ele>
        <time>2020-06-23T14:43:13Z</time>
      </trkpt>
      <trkpt lat="50.93112" lon="2.7376">
        <ele>5.8</ele>
        <time>2020-06-23T14:43:14Z</time>
      </trkpt>
      <trkpt lat="50.93108" lon="2.73766">
        <ele>5.9</ele>
        <time>2020-06-23T14:43:15Z</time>
      </trkpt>
      <trkpt lat="50.93104" lon="2.73773">
        <ele>5.8</ele>
        <time>2020-06-23T14:43:16Z</time>
      </trkpt>
      <trkpt lat="50.931" lon="2.73779">
        <ele>5.8</ele>
        <time>2020-06-23T14:43:17Z</time>
      </trkpt>
      <trkpt lat="50.93096" lon="2.73783">
        <ele>5.8</ele>
        <time>2020-06-23T14:43:18Z</time>
      </trkpt>
      <trkpt lat="50.93091" lon="2.73788">
        <ele>5.9</ele>
        <time>2020-06-23T14:43:19Z</time>
      </trkpt>
      <trkpt lat="50.93086" lon="2.73794">
        <ele>5.9</ele>
        <time>2020-06-23T14:43:20Z</time>
      </trkpt>
      <trkpt lat="50.93083" lon="2.73798">
        <ele>5.9</ele>
        <time>2020-06-23T14:43:21Z</time>
      </trkpt>
      <trkpt lat="50.93079" lon="2.73807">
        <ele>5.9</ele>
        <time>2020-06-23T14:43:22Z</time>
      </trkpt>
      <trkpt lat="50.93075" lon="2.73813">
        <ele>5.9</ele>
        <time>2020-06-23T14:43:23Z</time>
      </trkpt>
      <trkpt lat="50.93071" lon="2.7382">
        <ele>6</ele>
        <time>2020-06-23T14:43:24Z</time>
      </trkpt>
      <trkpt lat="50.93068" lon="2.73826">
        <ele>6</ele>
        <time>2020-06-23T14:43:25Z</time>
      </trkpt>
      <trkpt lat="50.93061" lon="2.73831">
        <ele>6</ele>
        <time>2020-06-23T14:43:26Z</time>
      </trkpt>
      <trkpt lat="50.93057" lon="2.73836">
        <ele>6</ele>
        <time>2020-06-23T14:43:27Z</time>
      </trkpt>
      <trkpt lat="50.93053" lon="2.73843">
        <ele>5.9</ele>
        <time>2020-06-23T14:43:28Z</time>
      </trkpt>
      <trkpt lat="50.9305" lon="2.7385">
        <ele>5.9</ele>
        <time>2020-06-23T14:43:29Z</time>
      </trkpt>
      <trkpt lat="50.93046" lon="2.73857">
        <ele>5.9</ele>
        <time>2020-06-23T14:43:30Z</time>
      </trkpt>
      <trkpt lat="50.93043" lon="2.73864">
        <ele>5.8</ele>
        <time>2020-06-23T14:43:31Z</time>
      </trkpt>
      <trkpt lat="50.93039" lon="2.7387">
        <ele>5.8</ele>
        <time>2020-06-23T14:43:32Z</time>
      </trkpt>
      <trkpt lat="50.93035" lon="2.73876">
        <ele>5.7</ele>
        <time>2020-06-23T14:43:33Z</time>
      </trkpt>
      <trkpt lat="50.93032" lon="2.73882">
        <ele>5.7</ele>
        <time>2020-06-23T14:43:34Z</time>
      </trkpt>
      <trkpt lat="50.9303" lon="2.73889">
        <ele>5.6</ele>
        <time>2020-06-23T14:43:35Z</time>
      </trkpt>
      <trkpt lat="50.93027" lon="2.73896">
        <ele>5.6</ele>
        <time>2020-06-23T14:43:36Z</time>
      </trkpt>
      <trkpt lat="50.93025" lon="2.73902">
        <ele>5.6</ele>
        <time>2020-06-23T14:43:37Z</time>
      </trkpt>
      <trkpt lat="50.93021" lon="2.73909">
        <ele>5.5</ele>
        <time>2020-06-23T14:43:38Z</time>
      </trkpt>
      <trkpt lat="50.93018" lon="2.73915">
        <ele>5.5</ele>
        <time>2020-06-23T14:43:39Z</time>
      </trkpt>
      <trkpt lat="50.93014" lon="2.73922">
        <ele>5.5</ele>
        <time>2020-06-23T14:43:40Z</time>
      </trkpt>
      <trkpt lat="50.9301" lon="2.73929">
        <ele>5.5</ele>
        <time>2020-06-23T14:43:41Z</time>
      </trkpt>
      <trkpt lat="50.93006" lon="2.73936">
        <ele>5.5</ele>
        <time>2020-06-23T14:43:42Z</time>
      </trkpt>
      <trkpt lat="50.93002" lon="2.73944">
        <ele>5.5</ele>
        <time>2020-06-23T14:43:43Z</time>
      </trkpt>
      <trkpt lat="50.92997" lon="2.7395">
        <ele>5.5</ele>
        <time>2020-06-23T14:43:44Z</time>
      </trkpt>
      <trkpt lat="50.92993" lon="2.73956">
        <ele>5.5</ele>
        <time>2020-06-23T14:43:45Z</time>
      </trkpt>
      <trkpt lat="50.92988" lon="2.73963">
        <ele>5.5</ele>
        <time>2020-06-23T14:43:46Z</time>
      </trkpt>
      <trkpt lat="50.92984" lon="2.73971">
        <ele>5.5</ele>
        <time>2020-06-23T14:43:47Z</time>
      </trkpt>
      <trkpt lat="50.92979" lon="2.73979">
        <ele>5.5</ele>
        <time>2020-06-23T14:43:48Z</time>
      </trkpt>
      <trkpt lat="50.92974" lon="2.73988">
        <ele>5.5</ele>
        <time>2020-06-23T14:43:49Z</time>
      </trkpt>
      <trkpt lat="50.92969" lon="2.73996">
        <ele>5.5</ele>
        <time>2020-06-23T14:43:50Z</time>
      </trkpt>
      <trkpt lat="50.92965" lon="2.74004">
        <ele>5.5</ele>
        <time>2020-06-23T14:43:51Z</time>
      </trkpt>
      <trkpt lat="50.92961" lon="2.74011">
        <ele>5.5</ele>
        <time>2020-06-23T14:43:52Z</time>
      </trkpt>
      <trkpt lat="50.92957" lon="2.74018">
        <ele>5.5</ele>
        <time>2020-06-23T14:43:53Z</time>
      </trkpt>
      <trkpt lat="50.92953" lon="2.74025">
        <ele>5.5</ele>
        <time>2020-06-23T14:43:54Z</time>
      </trkpt>
      <trkpt lat="50.92949" lon="2.74033">
        <ele>5.5</ele>
        <time>2020-06-23T14:43:55Z</time>
      </trkpt>
      <trkpt lat="50.92944" lon="2.74041">
        <ele>5.5</ele>
        <time>2020-06-23T14:43:56Z</time>
      </trkpt>
      <trkpt lat="50.9294" lon="2.74049">
        <ele>5.5</ele>
        <time>2020-06-23T14:43:57Z</time>
      </trkpt>
      <trkpt lat="50.92936" lon="2.74057">
        <ele>5.5</ele>
        <time>2020-06-23T14:43:58Z</time>
      </trkpt>
      <trkpt lat="50.92931" lon="2.74063">
        <ele>5.5</ele>
        <time>2020-06-23T14:43:59Z</time>
      </trkpt>
      <trkpt lat="50.92926" lon="2.7407">
        <ele>5.6</ele>
        <time>2020-06-23T14:44:00Z</time>
      </trkpt>
      <trkpt lat="50.92922" lon="2.74077">
        <ele>5.6</ele>
        <time>2020-06-23T14:44:01Z</time>
      </trkpt>
      <trkpt lat="50.92918" lon="2.74083">
        <ele>5.5</ele>
        <time>2020-06-23T14:44:02Z</time>
      </trkpt>
      <trkpt lat="50.92914" lon="2.7409">
        <ele>5.5</ele>
        <time>2020-06-23T14:44:03Z</time>
      </trkpt>
      <trkpt lat="50.92911" lon="2.74097">
        <ele>5.5</ele>
        <time>2020-06-23T14:44:04Z</time>
      </trkpt>
      <trkpt lat="50.92907" lon="2.74105">
        <ele>5.4</ele>
        <time>2020-06-23T14:44:05Z</time>
      </trkpt>
      <trkpt lat="50.92904" lon="2.74113">
        <ele>5.4</ele>
        <time>2020-06-23T14:44:06Z</time>
      </trkpt>
      <trkpt lat="50.92899" lon="2.7412">
        <ele>5.4</ele>
        <time>2020-06-23T14:44:07Z</time>
      </trkpt>
      <trkpt lat="50.92895" lon="2.74127">
        <ele>5.4</ele>
        <time>2020-06-23T14:44:08Z</time>
      </trkpt>
      <trkpt lat="50.92891" lon="2.74135">
        <ele>5.4</ele>
        <time>2020-06-23T14:44:09Z</time>
      </trkpt>
      <trkpt lat="50.92887" lon="2.74143">
        <ele>5.5</ele>
        <time>2020-06-23T14:44:10Z</time>
      </trkpt>
      <trkpt lat="50.92883" lon="2.74151">
        <ele>5.5</ele>
        <time>2020-06-23T14:44:11Z</time>
      </trkpt>
      <trkpt lat="50.92879" lon="2.74156">
        <ele>5.5</ele>
        <time>2020-06-23T14:44:12Z</time>
      </trkpt>
      <trkpt lat="50.92876" lon="2.74161">
        <ele>5.5</ele>
        <time>2020-06-23T14:44:13Z</time>
      </trkpt>
      <trkpt lat="50.92872" lon="2.74167">
        <ele>5.5</ele>
        <time>2020-06-23T14:44:14Z</time>
      </trkpt>
      <trkpt lat="50.92868" lon="2.74175">
        <ele>5.6</ele>
        <time>2020-06-23T14:44:15Z</time>
      </trkpt>
      <trkpt lat="50.92864" lon="2.74182">
        <ele>5.6</ele>
        <time>2020-06-23T14:44:16Z</time>
      </trkpt>
      <trkpt lat="50.9286" lon="2.74188">
        <ele>5.7</ele>
        <time>2020-06-23T14:44:17Z</time>
      </trkpt>
      <trkpt lat="50.92856" lon="2.74196">
        <ele>5.8</ele>
        <time>2020-06-23T14:44:18Z</time>
      </trkpt>
      <trkpt lat="50.92852" lon="2.74203">
        <ele>6</ele>
        <time>2020-06-23T14:44:19Z</time>
      </trkpt>
      <trkpt lat="50.92848" lon="2.7421">
        <ele>5.9</ele>
        <time>2020-06-23T14:44:20Z</time>
      </trkpt>
      <trkpt lat="50.92843" lon="2.74218">
        <ele>5.9</ele>
        <time>2020-06-23T14:44:21Z</time>
      </trkpt>
      <trkpt lat="50.9284" lon="2.74225">
        <ele>5.8</ele>
        <time>2020-06-23T14:44:22Z</time>
      </trkpt>
      <trkpt lat="50.92836" lon="2.74233">
        <ele>5.9</ele>
        <time>2020-06-23T14:44:23Z</time>
      </trkpt>
      <trkpt lat="50.92832" lon="2.7424">
        <ele>5.9</ele>
        <time>2020-06-23T14:44:24Z</time>
      </trkpt>
      <trkpt lat="50.92828" lon="2.74247">
        <ele>5.9</ele>
        <time>2020-06-23T14:44:25Z</time>
      </trkpt>
      <trkpt lat="50.92824" lon="2.74254">
        <ele>5.9</ele>
        <time>2020-06-23T14:44:26Z</time>
      </trkpt>
      <trkpt lat="50.9282" lon="2.74261">
        <ele>5.9</ele>
        <time>2020-06-23T14:44:27Z</time>
      </trkpt>
      <trkpt lat="50.92817" lon="2.74268">
        <ele>5.9</ele>
        <time>2020-06-23T14:44:28Z</time>
      </trkpt>
      <trkpt lat="50.92813" lon="2.74274">
        <ele>5.9</ele>
        <time>2020-06-23T14:44:29Z</time>
      </trkpt>
      <trkpt lat="50.92808" lon="2.7428">
        <ele>5.9</ele>
        <time>2020-06-23T14:44:30Z</time>
      </trkpt>
      <trkpt lat="50.92803" lon="2.74286">
        <ele>5.9</ele>
        <time>2020-06-23T14:44:31Z</time>
      </trkpt>
      <trkpt lat="50.928" lon="2.74293">
        <ele>5.9</ele>
        <time>2020-06-23T14:44:32Z</time>
      </trkpt>
      <trkpt lat="50.92796" lon="2.743">
        <ele>5.9</ele>
        <time>2020-06-23T14:44:33Z</time>
      </trkpt>
      <trkpt lat="50.92791" lon="2.74307">
        <ele>5.9</ele>
        <time>2020-06-23T14:44:34Z</time>
      </trkpt>
      <trkpt lat="50.92786" lon="2.74315">
        <ele>5.9</ele>
        <time>2020-06-23T14:44:35Z</time>
      </trkpt>
      <trkpt lat="50.92783" lon="2.74323">
        <ele>5.9</ele>
        <time>2020-06-23T14:44:36Z</time>
      </trkpt>
      <trkpt lat="50.92777" lon="2.74332">
        <ele>6</ele>
        <time>2020-06-23T14:44:37Z</time>
      </trkpt>
      <trkpt lat="50.92773" lon="2.74339">
        <ele>6</ele>
        <time>2020-06-23T14:44:38Z</time>
      </trkpt>
      <trkpt lat="50.9277" lon="2.74345">
        <ele>6</ele>
        <time>2020-06-23T14:44:39Z</time>
      </trkpt>
      <trkpt lat="50.92766" lon="2.74352">
        <ele>6.1</ele>
        <time>2020-06-23T14:44:40Z</time>
      </trkpt>
      <trkpt lat="50.92763" lon="2.7436">
        <ele>6.1</ele>
        <time>2020-06-23T14:44:41Z</time>
      </trkpt>
      <trkpt lat="50.9276" lon="2.74366">
        <ele>6.1</ele>
        <time>2020-06-23T14:44:42Z</time>
      </trkpt>
      <trkpt lat="50.92756" lon="2.74372">
        <ele>6.1</ele>
        <time>2020-06-23T14:44:43Z</time>
      </trkpt>
      <trkpt lat="50.92751" lon="2.7438">
        <ele>6.2</ele>
        <time>2020-06-23T14:44:44Z</time>
      </trkpt>
      <trkpt lat="50.92747" lon="2.74387">
        <ele>6.2</ele>
        <time>2020-06-23T14:44:45Z</time>
      </trkpt>
      <trkpt lat="50.92743" lon="2.74394">
        <ele>6.2</ele>
        <time>2020-06-23T14:44:46Z</time>
      </trkpt>
      <trkpt lat="50.92739" lon="2.744">
        <ele>6.1</ele>
        <time>2020-06-23T14:44:47Z</time>
      </trkpt>
      <trkpt lat="50.92735" lon="2.74407">
        <ele>6.1</ele>
        <time>2020-06-23T14:44:48Z</time>
      </trkpt>
      <trkpt lat="50.9273" lon="2.74416">
        <ele>6.1</ele>
        <time>2020-06-23T14:44:49Z</time>
      </trkpt>
      <trkpt lat="50.92726" lon="2.74423">
        <ele>6</ele>
        <time>2020-06-23T14:44:50Z</time>
      </trkpt>
      <trkpt lat="50.92722" lon="2.74432">
        <ele>6</ele>
        <time>2020-06-23T14:44:51Z</time>
      </trkpt>
      <trkpt lat="50.92717" lon="2.74439">
        <ele>6</ele>
        <time>2020-06-23T14:44:52Z</time>
      </trkpt>
      <trkpt lat="50.92712" lon="2.74448">
        <ele>5.9</ele>
        <time>2020-06-23T14:44:53Z</time>
      </trkpt>
      <trkpt lat="50.92707" lon="2.74455">
        <ele>5.9</ele>
        <time>2020-06-23T14:44:54Z</time>
      </trkpt>
      <trkpt lat="50.92704" lon="2.74461">
        <ele>6</ele>
        <time>2020-06-23T14:44:55Z</time>
      </trkpt>
      <trkpt lat="50.927" lon="2.74469">
        <ele>6</ele>
        <time>2020-06-23T14:44:56Z</time>
      </trkpt>
      <trkpt lat="50.92695" lon="2.74477">
        <ele>6</ele>
        <time>2020-06-23T14:44:57Z</time>
      </trkpt>
      <trkpt lat="50.9269" lon="2.74483">
        <ele>6</ele>
        <time>2020-06-23T14:44:58Z</time>
      </trkpt>
      <trkpt lat="50.92686" lon="2.7449">
        <ele>6</ele>
        <time>2020-06-23T14:44:59Z</time>
      </trkpt>
      <trkpt lat="50.92681" lon="2.74498">
        <ele>6</ele>
        <time>2020-06-23T14:45:00Z</time>
      </trkpt>
      <trkpt lat="50.92676" lon="2.74506">
        <ele>6.1</ele>
        <time>2020-06-23T14:45:01Z</time>
      </trkpt>
      <trkpt lat="50.92672" lon="2.74515">
        <ele>6.1</ele>
        <time>2020-06-23T14:45:02Z</time>
      </trkpt>
      <trkpt lat="50.92668" lon="2.74523">
        <ele>6.1</ele>
        <time>2020-06-23T14:45:03Z</time>
      </trkpt>
      <trkpt lat="50.92664" lon="2.74529">
        <ele>6.1</ele>
        <time>2020-06-23T14:45:04Z</time>
      </trkpt>
      <trkpt lat="50.9266" lon="2.74537">
        <ele>6.1</ele>
        <time>2020-06-23T14:45:05Z</time>
      </trkpt>
      <trkpt lat="50.92655" lon="2.74545">
        <ele>6.1</ele>
        <time>2020-06-23T14:45:06Z</time>
      </trkpt>
      <trkpt lat="50.92651" lon="2.74553">
        <ele>6.1</ele>
        <time>2020-06-23T14:45:07Z</time>
      </trkpt>
      <trkpt lat="50.92647" lon="2.74559">
        <ele>6.1</ele>
        <time>2020-06-23T14:45:08Z</time>
      </trkpt>
      <trkpt lat="50.92643" lon="2.74563">
        <ele>6.1</ele>
        <time>2020-06-23T14:45:09Z</time>
      </trkpt>
      <trkpt lat="50.92639" lon="2.7457">
        <ele>6.2</ele>
        <time>2020-06-23T14:45:10Z</time>
      </trkpt>
      <trkpt lat="50.92635" lon="2.74576">
        <ele>6.2</ele>
        <time>2020-06-23T14:45:11Z</time>
      </trkpt>
      <trkpt lat="50.9263" lon="2.74583">
        <ele>6.3</ele>
        <time>2020-06-23T14:45:12Z</time>
      </trkpt>
      <trkpt lat="50.92626" lon="2.7459">
        <ele>6.4</ele>
        <time>2020-06-23T14:45:13Z</time>
      </trkpt>
      <trkpt lat="50.92622" lon="2.74597">
        <ele>6.4</ele>
        <time>2020-06-23T14:45:14Z</time>
      </trkpt>
      <trkpt lat="50.92617" lon="2.74603">
        <ele>6.5</ele>
        <time>2020-06-23T14:45:15Z</time>
      </trkpt>
      <trkpt lat="50.92612" lon="2.74608">
        <ele>6.7</ele>
        <time>2020-06-23T14:45:16Z</time>
      </trkpt>
      <trkpt lat="50.92608" lon="2.74614">
        <ele>6.8</ele>
        <time>2020-06-23T14:45:17Z</time>
      </trkpt>
      <trkpt lat="50.92605" lon="2.74618">
        <ele>6.9</ele>
        <time>2020-06-23T14:45:18Z</time>
      </trkpt>
      <trkpt lat="50.92602" lon="2.74621">
        <ele>7</ele>
        <time>2020-06-23T14:45:19Z</time>
      </trkpt>
      <trkpt lat="50.926" lon="2.74625">
        <ele>7.1</ele>
        <time>2020-06-23T14:45:20Z</time>
      </trkpt>
      <trkpt lat="50.92596" lon="2.74628">
        <ele>7.3</ele>
        <time>2020-06-23T14:45:21Z</time>
      </trkpt>
      <trkpt lat="50.92592" lon="2.74628">
        <ele>7.1</ele>
        <time>2020-06-23T14:45:22Z</time>
      </trkpt>
      <trkpt lat="50.92589" lon="2.74624">
        <ele>7</ele>
        <time>2020-06-23T14:45:23Z</time>
      </trkpt>
      <trkpt lat="50.92587" lon="2.74618">
        <ele>6.9</ele>
        <time>2020-06-23T14:45:24Z</time>
      </trkpt>
      <trkpt lat="50.92583" lon="2.7461">
        <ele>6.8</ele>
        <time>2020-06-23T14:45:25Z</time>
      </trkpt>
      <trkpt lat="50.92579" lon="2.74603">
        <ele>6.6</ele>
        <time>2020-06-23T14:45:26Z</time>
      </trkpt>
      <trkpt lat="50.92574" lon="2.74602">
        <ele>6.6</ele>
        <time>2020-06-23T14:45:27Z</time>
      </trkpt>
      <trkpt lat="50.92568" lon="2.74604">
        <ele>6.5</ele>
        <time>2020-06-23T14:45:28Z</time>
      </trkpt>
      <trkpt lat="50.92564" lon="2.74609">
        <ele>6.4</ele>
        <time>2020-06-23T14:45:29Z</time>
      </trkpt>
      <trkpt lat="50.92559" lon="2.74614">
        <ele>6.3</ele>
        <time>2020-06-23T14:45:30Z</time>
      </trkpt>
      <trkpt lat="50.92555" lon="2.74618">
        <ele>6.3</ele>
        <time>2020-06-23T14:45:31Z</time>
      </trkpt>
      <trkpt lat="50.92551" lon="2.74624">
        <ele>6.3</ele>
        <time>2020-06-23T14:45:32Z</time>
      </trkpt>
      <trkpt lat="50.92546" lon="2.74628">
        <ele>6.3</ele>
        <time>2020-06-23T14:45:33Z</time>
      </trkpt>
      <trkpt lat="50.92542" lon="2.74633">
        <ele>6.3</ele>
        <time>2020-06-23T14:45:34Z</time>
      </trkpt>
      <trkpt lat="50.92538" lon="2.74638">
        <ele>6.4</ele>
        <time>2020-06-23T14:45:35Z</time>
      </trkpt>
      <trkpt lat="50.92534" lon="2.74642">
        <ele>6.4</ele>
        <time>2020-06-23T14:45:36Z</time>
      </trkpt>
      <trkpt lat="50.9253" lon="2.74647">
        <ele>6.4</ele>
        <time>2020-06-23T14:45:37Z</time>
      </trkpt>
      <trkpt lat="50.92526" lon="2.74651">
        <ele>6.5</ele>
        <time>2020-06-23T14:45:38Z</time>
      </trkpt>
      <trkpt lat="50.92522" lon="2.74654">
        <ele>6.5</ele>
        <time>2020-06-23T14:45:39Z</time>
      </trkpt>
      <trkpt lat="50.92517" lon="2.74657">
        <ele>6.6</ele>
        <time>2020-06-23T14:45:40Z</time>
      </trkpt>
      <trkpt lat="50.92513" lon="2.74661">
        <ele>6.6</ele>
        <time>2020-06-23T14:45:41Z</time>
      </trkpt>
      <trkpt lat="50.92508" lon="2.74663">
        <ele>6.6</ele>
        <time>2020-06-23T14:45:42Z</time>
      </trkpt>
      <trkpt lat="50.92503" lon="2.74667">
        <ele>6.6</ele>
        <time>2020-06-23T14:45:43Z</time>
      </trkpt>
      <trkpt lat="50.92499" lon="2.74671">
        <ele>6.7</ele>
        <time>2020-06-23T14:45:44Z</time>
      </trkpt>
      <trkpt lat="50.92495" lon="2.74676">
        <ele>6.7</ele>
        <time>2020-06-23T14:45:45Z</time>
      </trkpt>
      <trkpt lat="50.92491" lon="2.7468">
        <ele>6.7</ele>
        <time>2020-06-23T14:45:46Z</time>
      </trkpt>
      <trkpt lat="50.92486" lon="2.74685">
        <ele>6.7</ele>
        <time>2020-06-23T14:45:47Z</time>
      </trkpt>
      <trkpt lat="50.92482" lon="2.74691">
        <ele>6.8</ele>
        <time>2020-06-23T14:45:48Z</time>
      </trkpt>
      <trkpt lat="50.92476" lon="2.74695">
        <ele>6.8</ele>
        <time>2020-06-23T14:45:49Z</time>
      </trkpt>
      <trkpt lat="50.92471" lon="2.74699">
        <ele>6.8</ele>
        <time>2020-06-23T14:45:50Z</time>
      </trkpt>
      <trkpt lat="50.92467" lon="2.74704">
        <ele>6.8</ele>
        <time>2020-06-23T14:45:51Z</time>
      </trkpt>
      <trkpt lat="50.92463" lon="2.74707">
        <ele>6.8</ele>
        <time>2020-06-23T14:45:52Z</time>
      </trkpt>
      <trkpt lat="50.9246" lon="2.7471">
        <ele>6.8</ele>
        <time>2020-06-23T14:45:53Z</time>
      </trkpt>
      <trkpt lat="50.92456" lon="2.74714">
        <ele>6.8</ele>
        <time>2020-06-23T14:45:54Z</time>
      </trkpt>
      <trkpt lat="50.92451" lon="2.74718">
        <ele>6.9</ele>
        <time>2020-06-23T14:45:55Z</time>
      </trkpt>
      <trkpt lat="50.92445" lon="2.74722">
        <ele>6.9</ele>
        <time>2020-06-23T14:45:56Z</time>
      </trkpt>
      <trkpt lat="50.9244" lon="2.74726">
        <ele>6.9</ele>
        <time>2020-06-23T14:45:57Z</time>
      </trkpt>
      <trkpt lat="50.92435" lon="2.74731">
        <ele>7</ele>
        <time>2020-06-23T14:45:58Z</time>
      </trkpt>
      <trkpt lat="50.92429" lon="2.74736">
        <ele>7</ele>
        <time>2020-06-23T14:45:59Z</time>
      </trkpt>
      <trkpt lat="50.92423" lon="2.74742">
        <ele>7</ele>
        <time>2020-06-23T14:46:00Z</time>
      </trkpt>
      <trkpt lat="50.92419" lon="2.74747">
        <ele>7.1</ele>
        <time>2020-06-23T14:46:01Z</time>
      </trkpt>
      <trkpt lat="50.92414" lon="2.7475">
        <ele>7.1</ele>
        <time>2020-06-23T14:46:02Z</time>
      </trkpt>
      <trkpt lat="50.92411" lon="2.74754">
        <ele>7.2</ele>
        <time>2020-06-23T14:46:03Z</time>
      </trkpt>
      <trkpt lat="50.92407" lon="2.74757">
        <ele>7.2</ele>
        <time>2020-06-23T14:46:04Z</time>
      </trkpt>
      <trkpt lat="50.92403" lon="2.74761">
        <ele>7.3</ele>
        <time>2020-06-23T14:46:05Z</time>
      </trkpt>
      <trkpt lat="50.92398" lon="2.74764">
        <ele>7.4</ele>
        <time>2020-06-23T14:46:06Z</time>
      </trkpt>
      <trkpt lat="50.92394" lon="2.74768">
        <ele>7.5</ele>
        <time>2020-06-23T14:46:07Z</time>
      </trkpt>
      <trkpt lat="50.92388" lon="2.74771">
        <ele>7.6</ele>
        <time>2020-06-23T14:46:08Z</time>
      </trkpt>
      <trkpt lat="50.92383" lon="2.74773">
        <ele>7.7</ele>
        <time>2020-06-23T14:46:09Z</time>
      </trkpt>
      <trkpt lat="50.92377" lon="2.74774">
        <ele>7.7</ele>
        <time>2020-06-23T14:46:10Z</time>
      </trkpt>
      <trkpt lat="50.92371" lon="2.74774">
        <ele>7.7</ele>
        <time>2020-06-23T14:46:11Z</time>
      </trkpt>
      <trkpt lat="50.92366" lon="2.74775">
        <ele>7.7</ele>
        <time>2020-06-23T14:46:12Z</time>
      </trkpt>
      <trkpt lat="50.92359" lon="2.74777">
        <ele>7.7</ele>
        <time>2020-06-23T14:46:13Z</time>
      </trkpt>
      <trkpt lat="50.92353" lon="2.74779">
        <ele>7.7</ele>
        <time>2020-06-23T14:46:14Z</time>
      </trkpt>
      <trkpt lat="50.92346" lon="2.74781">
        <ele>7.7</ele>
        <time>2020-06-23T14:46:15Z</time>
      </trkpt>
      <trkpt lat="50.92339" lon="2.74783">
        <ele>7.7</ele>
        <time>2020-06-23T14:46:16Z</time>
      </trkpt>
      <trkpt lat="50.92333" lon="2.74785">
        <ele>7.7</ele>
        <time>2020-06-23T14:46:17Z</time>
      </trkpt>
      <trkpt lat="50.92327" lon="2.74787">
        <ele>7.7</ele>
        <time>2020-06-23T14:46:18Z</time>
      </trkpt>
      <trkpt lat="50.92321" lon="2.74789">
        <ele>7.7</ele>
        <time>2020-06-23T14:46:19Z</time>
      </trkpt>
      <trkpt lat="50.92315" lon="2.7479">
        <ele>7.8</ele>
        <time>2020-06-23T14:46:20Z</time>
      </trkpt>
      <trkpt lat="50.9231" lon="2.74792">
        <ele>7.8</ele>
        <time>2020-06-23T14:46:21Z</time>
      </trkpt>
      <trkpt lat="50.92304" lon="2.74794">
        <ele>7.8</ele>
        <time>2020-06-23T14:46:22Z</time>
      </trkpt>
      <trkpt lat="50.92298" lon="2.74796">
        <ele>7.8</ele>
        <time>2020-06-23T14:46:23Z</time>
      </trkpt>
      <trkpt lat="50.92293" lon="2.74798">
        <ele>7.8</ele>
        <time>2020-06-23T14:46:24Z</time>
      </trkpt>
      <trkpt lat="50.92287" lon="2.74802">
        <ele>7.9</ele>
        <time>2020-06-23T14:46:25Z</time>
      </trkpt>
      <trkpt lat="50.92281" lon="2.74805">
        <ele>7.9</ele>
        <time>2020-06-23T14:46:26Z</time>
      </trkpt>
      <trkpt lat="50.92276" lon="2.74811">
        <ele>7.9</ele>
        <time>2020-06-23T14:46:27Z</time>
      </trkpt>
      <trkpt lat="50.92272" lon="2.74818">
        <ele>7.9</ele>
        <time>2020-06-23T14:46:28Z</time>
      </trkpt>
      <trkpt lat="50.92268" lon="2.74825">
        <ele>7.9</ele>
        <time>2020-06-23T14:46:29Z</time>
      </trkpt>
      <trkpt lat="50.92264" lon="2.74832">
        <ele>8</ele>
        <time>2020-06-23T14:46:30Z</time>
      </trkpt>
      <trkpt lat="50.9226" lon="2.74839">
        <ele>8</ele>
        <time>2020-06-23T14:46:31Z</time>
      </trkpt>
      <trkpt lat="50.92256" lon="2.74846">
        <ele>8</ele>
        <time>2020-06-23T14:46:32Z</time>
      </trkpt>
      <trkpt lat="50.92252" lon="2.74852">
        <ele>8</ele>
        <time>2020-06-23T14:46:33Z</time>
      </trkpt>
      <trkpt lat="50.92248" lon="2.74859">
        <ele>8.1</ele>
        <time>2020-06-23T14:46:34Z</time>
      </trkpt>
      <trkpt lat="50.92244" lon="2.74865">
        <ele>8.1</ele>
        <time>2020-06-23T14:46:35Z</time>
      </trkpt>
      <trkpt lat="50.92239" lon="2.74873">
        <ele>8.1</ele>
        <time>2020-06-23T14:46:36Z</time>
      </trkpt>
      <trkpt lat="50.92234" lon="2.74881">
        <ele>8</ele>
        <time>2020-06-23T14:46:37Z</time>
      </trkpt>
      <trkpt lat="50.9223" lon="2.74888">
        <ele>8</ele>
        <time>2020-06-23T14:46:38Z</time>
      </trkpt>
      <trkpt lat="50.92226" lon="2.74895">
        <ele>8</ele>
        <time>2020-06-23T14:46:39Z</time>
      </trkpt>
      <trkpt lat="50.92222" lon="2.74902">
        <ele>8</ele>
        <time>2020-06-23T14:46:40Z</time>
      </trkpt>
      <trkpt lat="50.92218" lon="2.74908">
        <ele>7.9</ele>
        <time>2020-06-23T14:46:41Z</time>
      </trkpt>
      <trkpt lat="50.92213" lon="2.74916">
        <ele>7.9</ele>
        <time>2020-06-23T14:46:42Z</time>
      </trkpt>
      <trkpt lat="50.92209" lon="2.74922">
        <ele>7.9</ele>
        <time>2020-06-23T14:46:43Z</time>
      </trkpt>
      <trkpt lat="50.92204" lon="2.74928">
        <ele>7.9</ele>
        <time>2020-06-23T14:46:44Z</time>
      </trkpt>
      <trkpt lat="50.92201" lon="2.74934">
        <ele>7.9</ele>
        <time>2020-06-23T14:46:45Z</time>
      </trkpt>
      <trkpt lat="50.92197" lon="2.7494">
        <ele>7.9</ele>
        <time>2020-06-23T14:46:46Z</time>
      </trkpt>
      <trkpt lat="50.92193" lon="2.74946">
        <ele>7.8</ele>
        <time>2020-06-23T14:46:47Z</time>
      </trkpt>
      <trkpt lat="50.92189" lon="2.74952">
        <ele>7.8</ele>
        <time>2020-06-23T14:46:48Z</time>
      </trkpt>
      <trkpt lat="50.92185" lon="2.74958">
        <ele>7.8</ele>
        <time>2020-06-23T14:46:49Z</time>
      </trkpt>
      <trkpt lat="50.92181" lon="2.74964">
        <ele>7.8</ele>
        <time>2020-06-23T14:46:50Z</time>
      </trkpt>
      <trkpt lat="50.92178" lon="2.74969">
        <ele>7.8</ele>
        <time>2020-06-23T14:46:51Z</time>
      </trkpt>
      <trkpt lat="50.92175" lon="2.74972">
        <ele>7.8</ele>
        <time>2020-06-23T14:46:52Z</time>
      </trkpt>
      <trkpt lat="50.92173" lon="2.74977">
        <ele>7.7</ele>
        <time>2020-06-23T14:46:53Z</time>
      </trkpt>
      <trkpt lat="50.9217" lon="2.74982">
        <ele>7.7</ele>
        <time>2020-06-23T14:46:54Z</time>
      </trkpt>
      <trkpt lat="50.92166" lon="2.74988">
        <ele>7.7</ele>
        <time>2020-06-23T14:46:55Z</time>
      </trkpt>
      <trkpt lat="50.92161" lon="2.74993">
        <ele>7.7</ele>
        <time>2020-06-23T14:46:56Z</time>
      </trkpt>
      <trkpt lat="50.92156" lon="2.74998">
        <ele>7.7</ele>
        <time>2020-06-23T14:46:57Z</time>
      </trkpt>
      <trkpt lat="50.92151" lon="2.75004">
        <ele>7.7</ele>
        <time>2020-06-23T14:46:58Z</time>
      </trkpt>
      <trkpt lat="50.92146" lon="2.75009">
        <ele>7.8</ele>
        <time>2020-06-23T14:46:59Z</time>
      </trkpt>
      <trkpt lat="50.9214" lon="2.75014">
        <ele>7.8</ele>
        <time>2020-06-23T14:47:00Z</time>
      </trkpt>
      <trkpt lat="50.92135" lon="2.7502">
        <ele>7.8</ele>
        <time>2020-06-23T14:47:01Z</time>
      </trkpt>
      <trkpt lat="50.9213" lon="2.75025">
        <ele>7.8</ele>
        <time>2020-06-23T14:47:02Z</time>
      </trkpt>
      <trkpt lat="50.92125" lon="2.7503">
        <ele>7.8</ele>
        <time>2020-06-23T14:47:03Z</time>
      </trkpt>
      <trkpt lat="50.92119" lon="2.75035">
        <ele>7.8</ele>
        <time>2020-06-23T14:47:04Z</time>
      </trkpt>
      <trkpt lat="50.92115" lon="2.75041">
        <ele>7.8</ele>
        <time>2020-06-23T14:47:05Z</time>
      </trkpt>
      <trkpt lat="50.92109" lon="2.75047">
        <ele>7.8</ele>
        <time>2020-06-23T14:47:06Z</time>
      </trkpt>
      <trkpt lat="50.92103" lon="2.75053">
        <ele>7.8</ele>
        <time>2020-06-23T14:47:07Z</time>
      </trkpt>
      <trkpt lat="50.92099" lon="2.75058">
        <ele>7.8</ele>
        <time>2020-06-23T14:47:08Z</time>
      </trkpt>
      <trkpt lat="50.92094" lon="2.75061">
        <ele>7.8</ele>
        <time>2020-06-23T14:47:09Z</time>
      </trkpt>
      <trkpt lat="50.92089" lon="2.75065">
        <ele>7.8</ele>
        <time>2020-06-23T14:47:10Z</time>
      </trkpt>
      <trkpt lat="50.92084" lon="2.75068">
        <ele>7.8</ele>
        <time>2020-06-23T14:47:11Z</time>
      </trkpt>
      <trkpt lat="50.92079" lon="2.75072">
        <ele>7.8</ele>
        <time>2020-06-23T14:47:12Z</time>
      </trkpt>
      <trkpt lat="50.92072" lon="2.75075">
        <ele>7.8</ele>
        <time>2020-06-23T14:47:13Z</time>
      </trkpt>
      <trkpt lat="50.92065" lon="2.75079">
        <ele>7.8</ele>
        <time>2020-06-23T14:47:14Z</time>
      </trkpt>
      <trkpt lat="50.92058" lon="2.75081">
        <ele>7.8</ele>
        <time>2020-06-23T14:47:15Z</time>
      </trkpt>
      <trkpt lat="50.92051" lon="2.75085">
        <ele>7.8</ele>
        <time>2020-06-23T14:47:16Z</time>
      </trkpt>
      <trkpt lat="50.92045" lon="2.75088">
        <ele>7.8</ele>
        <time>2020-06-23T14:47:17Z</time>
      </trkpt>
      <trkpt lat="50.92039" lon="2.75091">
        <ele>7.8</ele>
        <time>2020-06-23T14:47:18Z</time>
      </trkpt>
      <trkpt lat="50.92033" lon="2.75095">
        <ele>7.8</ele>
        <time>2020-06-23T14:47:19Z</time>
      </trkpt>
      <trkpt lat="50.92028" lon="2.75098">
        <ele>7.8</ele>
        <time>2020-06-23T14:47:20Z</time>
      </trkpt>
      <trkpt lat="50.92023" lon="2.75101">
        <ele>7.8</ele>
        <time>2020-06-23T14:47:21Z</time>
      </trkpt>
      <trkpt lat="50.92018" lon="2.75104">
        <ele>7.8</ele>
        <time>2020-06-23T14:47:22Z</time>
      </trkpt>
      <trkpt lat="50.92013" lon="2.75109">
        <ele>7.8</ele>
        <time>2020-06-23T14:47:23Z</time>
      </trkpt>
      <trkpt lat="50.92007" lon="2.75113">
        <ele>7.8</ele>
        <time>2020-06-23T14:47:24Z</time>
      </trkpt>
      <trkpt lat="50.92002" lon="2.75117">
        <ele>7.8</ele>
        <time>2020-06-23T14:47:25Z</time>
      </trkpt>
      <trkpt lat="50.91997" lon="2.7512">
        <ele>7.7</ele>
        <time>2020-06-23T14:47:26Z</time>
      </trkpt>
      <trkpt lat="50.91991" lon="2.75124">
        <ele>7.7</ele>
        <time>2020-06-23T14:47:27Z</time>
      </trkpt>
      <trkpt lat="50.91986" lon="2.75127">
        <ele>7.7</ele>
        <time>2020-06-23T14:47:28Z</time>
      </trkpt>
      <trkpt lat="50.9198" lon="2.75132">
        <ele>7.7</ele>
        <time>2020-06-23T14:47:29Z</time>
      </trkpt>
      <trkpt lat="50.91975" lon="2.75136">
        <ele>7.7</ele>
        <time>2020-06-23T14:47:30Z</time>
      </trkpt>
      <trkpt lat="50.9197" lon="2.7514">
        <ele>7.8</ele>
        <time>2020-06-23T14:47:31Z</time>
      </trkpt>
      <trkpt lat="50.91965" lon="2.75145">
        <ele>7.8</ele>
        <time>2020-06-23T14:47:32Z</time>
      </trkpt>
      <trkpt lat="50.91959" lon="2.75151">
        <ele>7.8</ele>
        <time>2020-06-23T14:47:33Z</time>
      </trkpt>
      <trkpt lat="50.91954" lon="2.75157">
        <ele>7.8</ele>
        <time>2020-06-23T14:47:34Z</time>
      </trkpt>
      <trkpt lat="50.91948" lon="2.75161">
        <ele>7.9</ele>
        <time>2020-06-23T14:47:35Z</time>
      </trkpt>
      <trkpt lat="50.91943" lon="2.75166">
        <ele>7.9</ele>
        <time>2020-06-23T14:47:36Z</time>
      </trkpt>
      <trkpt lat="50.91937" lon="2.75171">
        <ele>7.9</ele>
        <time>2020-06-23T14:47:37Z</time>
      </trkpt>
      <trkpt lat="50.91932" lon="2.75176">
        <ele>8</ele>
        <time>2020-06-23T14:47:38Z</time>
      </trkpt>
      <trkpt lat="50.91927" lon="2.75182">
        <ele>8</ele>
        <time>2020-06-23T14:47:39Z</time>
      </trkpt>
      <trkpt lat="50.91922" lon="2.75187">
        <ele>8</ele>
        <time>2020-06-23T14:47:40Z</time>
      </trkpt>
      <trkpt lat="50.91917" lon="2.75192">
        <ele>8.1</ele>
        <time>2020-06-23T14:47:41Z</time>
      </trkpt>
      <trkpt lat="50.91913" lon="2.75196">
        <ele>8.1</ele>
        <time>2020-06-23T14:47:42Z</time>
      </trkpt>
      <trkpt lat="50.91908" lon="2.752">
        <ele>8.2</ele>
        <time>2020-06-23T14:47:43Z</time>
      </trkpt>
      <trkpt lat="50.91904" lon="2.75205">
        <ele>8.2</ele>
        <time>2020-06-23T14:47:44Z</time>
      </trkpt>
      <trkpt lat="50.91899" lon="2.75211">
        <ele>8.2</ele>
        <time>2020-06-23T14:47:45Z</time>
      </trkpt>
      <trkpt lat="50.91895" lon="2.75217">
        <ele>8.3</ele>
        <time>2020-06-23T14:47:46Z</time>
      </trkpt>
      <trkpt lat="50.9189" lon="2.75223">
        <ele>8.3</ele>
        <time>2020-06-23T14:47:47Z</time>
      </trkpt>
      <trkpt lat="50.91886" lon="2.75229">
        <ele>8.4</ele>
        <time>2020-06-23T14:47:48Z</time>
      </trkpt>
      <trkpt lat="50.91881" lon="2.75234">
        <ele>8.5</ele>
        <time>2020-06-23T14:47:49Z</time>
      </trkpt>
      <trkpt lat="50.91877" lon="2.75238">
        <ele>8.5</ele>
        <time>2020-06-23T14:47:50Z</time>
      </trkpt>
      <trkpt lat="50.91874" lon="2.75242">
        <ele>8.6</ele>
        <time>2020-06-23T14:47:51Z</time>
      </trkpt>
      <trkpt lat="50.91869" lon="2.75245">
        <ele>8.7</ele>
        <time>2020-06-23T14:47:52Z</time>
      </trkpt>
      <trkpt lat="50.91866" lon="2.75247">
        <ele>8.7</ele>
        <time>2020-06-23T14:47:53Z</time>
      </trkpt>
      <trkpt lat="50.91862" lon="2.75249">
        <ele>8.8</ele>
        <time>2020-06-23T14:47:54Z</time>
      </trkpt>
      <trkpt lat="50.91859" lon="2.75252">
        <ele>8.8</ele>
        <time>2020-06-23T14:47:55Z</time>
      </trkpt>
      <trkpt lat="50.91855" lon="2.75255">
        <ele>8.9</ele>
        <time>2020-06-23T14:47:56Z</time>
      </trkpt>
      <trkpt lat="50.91851" lon="2.75257">
        <ele>8.9</ele>
        <time>2020-06-23T14:47:57Z</time>
      </trkpt>
      <trkpt lat="50.91847" lon="2.7526">
        <ele>8.9</ele>
        <time>2020-06-23T14:47:58Z</time>
      </trkpt>
      <trkpt lat="50.91843" lon="2.75262">
        <ele>8.8</ele>
        <time>2020-06-23T14:47:59Z</time>
      </trkpt>
      <trkpt lat="50.91839" lon="2.75266">
        <ele>8.8</ele>
        <time>2020-06-23T14:48:00Z</time>
      </trkpt>
      <trkpt lat="50.91834" lon="2.75269">
        <ele>8.7</ele>
        <time>2020-06-23T14:48:01Z</time>
      </trkpt>
      <trkpt lat="50.91829" lon="2.75273">
        <ele>8.6</ele>
        <time>2020-06-23T14:48:02Z</time>
      </trkpt>
      <trkpt lat="50.91824" lon="2.75277">
        <ele>8.6</ele>
        <time>2020-06-23T14:48:03Z</time>
      </trkpt>
      <trkpt lat="50.91819" lon="2.75282">
        <ele>8.5</ele>
        <time>2020-06-23T14:48:04Z</time>
      </trkpt>
      <trkpt lat="50.91813" lon="2.75287">
        <ele>8.5</ele>
        <time>2020-06-23T14:48:05Z</time>
      </trkpt>
      <trkpt lat="50.91808" lon="2.75292">
        <ele>8.5</ele>
        <time>2020-06-23T14:48:06Z</time>
      </trkpt>
      <trkpt lat="50.91803" lon="2.75298">
        <ele>8.4</ele>
        <time>2020-06-23T14:48:07Z</time>
      </trkpt>
      <trkpt lat="50.91798" lon="2.75303">
        <ele>8.4</ele>
        <time>2020-06-23T14:48:08Z</time>
      </trkpt>
      <trkpt lat="50.91793" lon="2.75308">
        <ele>8.5</ele>
        <time>2020-06-23T14:48:09Z</time>
      </trkpt>
      <trkpt lat="50.91788" lon="2.75313">
        <ele>8.5</ele>
        <time>2020-06-23T14:48:10Z</time>
      </trkpt>
      <trkpt lat="50.91784" lon="2.7532">
        <ele>8.5</ele>
        <time>2020-06-23T14:48:11Z</time>
      </trkpt>
      <trkpt lat="50.91779" lon="2.75326">
        <ele>8.4</ele>
        <time>2020-06-23T14:48:12Z</time>
      </trkpt>
      <trkpt lat="50.91775" lon="2.75332">
        <ele>8.4</ele>
        <time>2020-06-23T14:48:13Z</time>
      </trkpt>
      <trkpt lat="50.9177" lon="2.75338">
        <ele>8.4</ele>
        <time>2020-06-23T14:48:14Z</time>
      </trkpt>
      <trkpt lat="50.91765" lon="2.75343">
        <ele>8.5</ele>
        <time>2020-06-23T14:48:15Z</time>
      </trkpt>
      <trkpt lat="50.91761" lon="2.75348">
        <ele>8.5</ele>
        <time>2020-06-23T14:48:16Z</time>
      </trkpt>
      <trkpt lat="50.91756" lon="2.75353">
        <ele>8.6</ele>
        <time>2020-06-23T14:48:17Z</time>
      </trkpt>
      <trkpt lat="50.91752" lon="2.7536">
        <ele>8.7</ele>
        <time>2020-06-23T14:48:18Z</time>
      </trkpt>
      <trkpt lat="50.91747" lon="2.75366">
        <ele>8.6</ele>
        <time>2020-06-23T14:48:19Z</time>
      </trkpt>
      <trkpt lat="50.91742" lon="2.75372">
        <ele>8.6</ele>
        <time>2020-06-23T14:48:20Z</time>
      </trkpt>
      <trkpt lat="50.91738" lon="2.75378">
        <ele>8.5</ele>
        <time>2020-06-23T14:48:21Z</time>
      </trkpt>
      <trkpt lat="50.91734" lon="2.75385">
        <ele>8.4</ele>
        <time>2020-06-23T14:48:22Z</time>
      </trkpt>
      <trkpt lat="50.9173" lon="2.75391">
        <ele>8.4</ele>
        <time>2020-06-23T14:48:23Z</time>
      </trkpt>
      <trkpt lat="50.91726" lon="2.75397">
        <ele>8.4</ele>
        <time>2020-06-23T14:48:24Z</time>
      </trkpt>
      <trkpt lat="50.91721" lon="2.75402">
        <ele>8.4</ele>
        <time>2020-06-23T14:48:25Z</time>
      </trkpt>
      <trkpt lat="50.91716" lon="2.75409">
        <ele>8.4</ele>
        <time>2020-06-23T14:48:26Z</time>
      </trkpt>
      <trkpt lat="50.91713" lon="2.75416">
        <ele>8.4</ele>
        <time>2020-06-23T14:48:27Z</time>
      </trkpt>
      <trkpt lat="50.91709" lon="2.75424">
        <ele>8.4</ele>
        <time>2020-06-23T14:48:28Z</time>
      </trkpt>
      <trkpt lat="50.91705" lon="2.75432">
        <ele>8.4</ele>
        <time>2020-06-23T14:48:29Z</time>
      </trkpt>
      <trkpt lat="50.91701" lon="2.75439">
        <ele>8.4</ele>
        <time>2020-06-23T14:48:30Z</time>
      </trkpt>
      <trkpt lat="50.91697" lon="2.75447">
        <ele>8.5</ele>
        <time>2020-06-23T14:48:31Z</time>
      </trkpt>
      <trkpt lat="50.91694" lon="2.75453">
        <ele>8.5</ele>
        <time>2020-06-23T14:48:32Z</time>
      </trkpt>
      <trkpt lat="50.91691" lon="2.75461">
        <ele>8.5</ele>
        <time>2020-06-23T14:48:33Z</time>
      </trkpt>
      <trkpt lat="50.91687" lon="2.75468">
        <ele>8.5</ele>
        <time>2020-06-23T14:48:34Z</time>
      </trkpt>
      <trkpt lat="50.91684" lon="2.75474">
        <ele>8.5</ele>
        <time>2020-06-23T14:48:35Z</time>
      </trkpt>
      <trkpt lat="50.91679" lon="2.75483">
        <ele>8.5</ele>
        <time>2020-06-23T14:48:36Z</time>
      </trkpt>
      <trkpt lat="50.91675" lon="2.75491">
        <ele>8.5</ele>
        <time>2020-06-23T14:48:37Z</time>
      </trkpt>
      <trkpt lat="50.91672" lon="2.75498">
        <ele>8.5</ele>
        <time>2020-06-23T14:48:38Z</time>
      </trkpt>
      <trkpt lat="50.91668" lon="2.75505">
        <ele>8.5</ele>
        <time>2020-06-23T14:48:39Z</time>
      </trkpt>
      <trkpt lat="50.91665" lon="2.75514">
        <ele>8.5</ele>
        <time>2020-06-23T14:48:40Z</time>
      </trkpt>
      <trkpt lat="50.91662" lon="2.75522">
        <ele>8.4</ele>
        <time>2020-06-23T14:48:41Z</time>
      </trkpt>
      <trkpt lat="50.91658" lon="2.7553">
        <ele>8.3</ele>
        <time>2020-06-23T14:48:42Z</time>
      </trkpt>
      <trkpt lat="50.91653" lon="2.75539">
        <ele>8.2</ele>
        <time>2020-06-23T14:48:43Z</time>
      </trkpt>
      <trkpt lat="50.91649" lon="2.75548">
        <ele>8.2</ele>
        <time>2020-06-23T14:48:44Z</time>
      </trkpt>
      <trkpt lat="50.91645" lon="2.75556">
        <ele>8.2</ele>
        <time>2020-06-23T14:48:45Z</time>
      </trkpt>
      <trkpt lat="50.91641" lon="2.75563">
        <ele>8.1</ele>
        <time>2020-06-23T14:48:46Z</time>
      </trkpt>
      <trkpt lat="50.91638" lon="2.75569">
        <ele>8.1</ele>
        <time>2020-06-23T14:48:47Z</time>
      </trkpt>
      <trkpt lat="50.91634" lon="2.75577">
        <ele>8.1</ele>
        <time>2020-06-23T14:48:48Z</time>
      </trkpt>
      <trkpt lat="50.91631" lon="2.75584">
        <ele>8.1</ele>
        <time>2020-06-23T14:48:49Z</time>
      </trkpt>
      <trkpt lat="50.91627" lon="2.75593">
        <ele>8.1</ele>
        <time>2020-06-23T14:48:50Z</time>
      </trkpt>
      <trkpt lat="50.91623" lon="2.75601">
        <ele>8.1</ele>
        <time>2020-06-23T14:48:51Z</time>
      </trkpt>
      <trkpt lat="50.91619" lon="2.75609">
        <ele>8.1</ele>
        <time>2020-06-23T14:48:52Z</time>
      </trkpt>
      <trkpt lat="50.91615" lon="2.75616">
        <ele>8.1</ele>
        <time>2020-06-23T14:48:53Z</time>
      </trkpt>
      <trkpt lat="50.91611" lon="2.75623">
        <ele>8</ele>
        <time>2020-06-23T14:48:54Z</time>
      </trkpt>
      <trkpt lat="50.91607" lon="2.75631">
        <ele>8</ele>
        <time>2020-06-23T14:48:55Z</time>
      </trkpt>
      <trkpt lat="50.91603" lon="2.75638">
        <ele>8</ele>
        <time>2020-06-23T14:48:56Z</time>
      </trkpt>
      <trkpt lat="50.91599" lon="2.75646">
        <ele>8</ele>
        <time>2020-06-23T14:48:57Z</time>
      </trkpt>
      <trkpt lat="50.91595" lon="2.75653">
        <ele>8</ele>
        <time>2020-06-23T14:48:58Z</time>
      </trkpt>
      <trkpt lat="50.91591" lon="2.7566">
        <ele>7.9</ele>
        <time>2020-06-23T14:48:59Z</time>
      </trkpt>
      <trkpt lat="50.91585" lon="2.75667">
        <ele>7.9</ele>
        <time>2020-06-23T14:49:00Z</time>
      </trkpt>
      <trkpt lat="50.9158" lon="2.75672">
        <ele>7.9</ele>
        <time>2020-06-23T14:49:01Z</time>
      </trkpt>
      <trkpt lat="50.91575" lon="2.75678">
        <ele>7.9</ele>
        <time>2020-06-23T14:49:02Z</time>
      </trkpt>
      <trkpt lat="50.91569" lon="2.75684">
        <ele>7.9</ele>
        <time>2020-06-23T14:49:03Z</time>
      </trkpt>
      <trkpt lat="50.91563" lon="2.75689">
        <ele>7.9</ele>
        <time>2020-06-23T14:49:04Z</time>
      </trkpt>
      <trkpt lat="50.91558" lon="2.75694">
        <ele>7.9</ele>
        <time>2020-06-23T14:49:05Z</time>
      </trkpt>
      <trkpt lat="50.91552" lon="2.75698">
        <ele>7.9</ele>
        <time>2020-06-23T14:49:06Z</time>
      </trkpt>
      <trkpt lat="50.91547" lon="2.75703">
        <ele>7.9</ele>
        <time>2020-06-23T14:49:07Z</time>
      </trkpt>
      <trkpt lat="50.91542" lon="2.75708">
        <ele>7.9</ele>
        <time>2020-06-23T14:49:08Z</time>
      </trkpt>
      <trkpt lat="50.91537" lon="2.75713">
        <ele>7.9</ele>
        <time>2020-06-23T14:49:09Z</time>
      </trkpt>
      <trkpt lat="50.91532" lon="2.75718">
        <ele>8</ele>
        <time>2020-06-23T14:49:10Z</time>
      </trkpt>
      <trkpt lat="50.91526" lon="2.75724">
        <ele>8</ele>
        <time>2020-06-23T14:49:11Z</time>
      </trkpt>
      <trkpt lat="50.91521" lon="2.75729">
        <ele>8</ele>
        <time>2020-06-23T14:49:12Z</time>
      </trkpt>
      <trkpt lat="50.91516" lon="2.75733">
        <ele>8</ele>
        <time>2020-06-23T14:49:13Z</time>
      </trkpt>
      <trkpt lat="50.91509" lon="2.75736">
        <ele>8</ele>
        <time>2020-06-23T14:49:14Z</time>
      </trkpt>
      <trkpt lat="50.91502" lon="2.75739">
        <ele>8</ele>
        <time>2020-06-23T14:49:15Z</time>
      </trkpt>
      <trkpt lat="50.91495" lon="2.75742">
        <ele>8.1</ele>
        <time>2020-06-23T14:49:16Z</time>
      </trkpt>
      <trkpt lat="50.91489" lon="2.75744">
        <ele>8.1</ele>
        <time>2020-06-23T14:49:17Z</time>
      </trkpt>
      <trkpt lat="50.91483" lon="2.75745">
        <ele>8.2</ele>
        <time>2020-06-23T14:49:18Z</time>
      </trkpt>
      <trkpt lat="50.91476" lon="2.75746">
        <ele>8.2</ele>
        <time>2020-06-23T14:49:19Z</time>
      </trkpt>
      <trkpt lat="50.9147" lon="2.75747">
        <ele>8.2</ele>
        <time>2020-06-23T14:49:20Z</time>
      </trkpt>
      <trkpt lat="50.91462" lon="2.75747">
        <ele>8.3</ele>
        <time>2020-06-23T14:49:21Z</time>
      </trkpt>
      <trkpt lat="50.91455" lon="2.75746">
        <ele>8.3</ele>
        <time>2020-06-23T14:49:22Z</time>
      </trkpt>
      <trkpt lat="50.91448" lon="2.75745">
        <ele>8.4</ele>
        <time>2020-06-23T14:49:23Z</time>
      </trkpt>
      <trkpt lat="50.9144" lon="2.75741">
        <ele>8.4</ele>
        <time>2020-06-23T14:49:24Z</time>
      </trkpt>
      <trkpt lat="50.91431" lon="2.75736">
        <ele>8.5</ele>
        <time>2020-06-23T14:49:25Z</time>
      </trkpt>
      <trkpt lat="50.91424" lon="2.7573">
        <ele>8.5</ele>
        <time>2020-06-23T14:49:26Z</time>
      </trkpt>
      <trkpt lat="50.91418" lon="2.75724">
        <ele>8.5</ele>
        <time>2020-06-23T14:49:27Z</time>
      </trkpt>
      <trkpt lat="50.91413" lon="2.75716">
        <ele>8.5</ele>
        <time>2020-06-23T14:49:28Z</time>
      </trkpt>
      <trkpt lat="50.91406" lon="2.75708">
        <ele>8.6</ele>
        <time>2020-06-23T14:49:29Z</time>
      </trkpt>
      <trkpt lat="50.91402" lon="2.757">
        <ele>8.6</ele>
        <time>2020-06-23T14:49:30Z</time>
      </trkpt>
      <trkpt lat="50.91396" lon="2.7569">
        <ele>8.7</ele>
        <time>2020-06-23T14:49:31Z</time>
      </trkpt>
      <trkpt lat="50.91392" lon="2.75681">
        <ele>8.8</ele>
        <time>2020-06-23T14:49:32Z</time>
      </trkpt>
      <trkpt lat="50.91388" lon="2.75673">
        <ele>8.8</ele>
        <time>2020-06-23T14:49:33Z</time>
      </trkpt>
      <trkpt lat="50.91384" lon="2.75666">
        <ele>8.9</ele>
        <time>2020-06-23T14:49:34Z</time>
      </trkpt>
      <trkpt lat="50.91379" lon="2.75661">
        <ele>9</ele>
        <time>2020-06-23T14:49:35Z</time>
      </trkpt>
      <trkpt lat="50.91375" lon="2.75655">
        <ele>9.1</ele>
        <time>2020-06-23T14:49:36Z</time>
      </trkpt>
      <trkpt lat="50.9137" lon="2.75649">
        <ele>9.1</ele>
        <time>2020-06-23T14:49:37Z</time>
      </trkpt>
      <trkpt lat="50.91366" lon="2.75645">
        <ele>9.2</ele>
        <time>2020-06-23T14:49:38Z</time>
      </trkpt>
      <trkpt lat="50.91362" lon="2.75642">
        <ele>9.2</ele>
        <time>2020-06-23T14:49:39Z</time>
      </trkpt>
      <trkpt lat="50.91358" lon="2.75638">
        <ele>9.3</ele>
        <time>2020-06-23T14:49:40Z</time>
      </trkpt>
      <trkpt lat="50.91354" lon="2.75635">
        <ele>9.3</ele>
        <time>2020-06-23T14:49:41Z</time>
      </trkpt>
      <trkpt lat="50.9135" lon="2.75634">
        <ele>9.4</ele>
        <time>2020-06-23T14:49:42Z</time>
      </trkpt>
      <trkpt lat="50.91345" lon="2.75635">
        <ele>9.4</ele>
        <time>2020-06-23T14:49:43Z</time>
      </trkpt>
      <trkpt lat="50.9134" lon="2.75636">
        <ele>9.4</ele>
        <time>2020-06-23T14:49:44Z</time>
      </trkpt>
      <trkpt lat="50.91336" lon="2.75638">
        <ele>9.4</ele>
        <time>2020-06-23T14:49:45Z</time>
      </trkpt>
      <trkpt lat="50.91331" lon="2.75641">
        <ele>9.3</ele>
        <time>2020-06-23T14:49:46Z</time>
      </trkpt>
      <trkpt lat="50.91327" lon="2.75647">
        <ele>9.3</ele>
        <time>2020-06-23T14:49:47Z</time>
      </trkpt>
      <trkpt lat="50.91322" lon="2.75653">
        <ele>9.3</ele>
        <time>2020-06-23T14:49:48Z</time>
      </trkpt>
      <trkpt lat="50.91319" lon="2.75659">
        <ele>9.3</ele>
        <time>2020-06-23T14:49:49Z</time>
      </trkpt>
      <trkpt lat="50.91314" lon="2.75666">
        <ele>9.3</ele>
        <time>2020-06-23T14:49:50Z</time>
      </trkpt>
      <trkpt lat="50.91311" lon="2.75673">
        <ele>9.3</ele>
        <time>2020-06-23T14:49:51Z</time>
      </trkpt>
      <trkpt lat="50.91307" lon="2.75679">
        <ele>9.3</ele>
        <time>2020-06-23T14:49:52Z</time>
      </trkpt>
      <trkpt lat="50.91305" lon="2.75696">
        <ele>9.3</ele>
        <time>2020-06-23T14:49:53Z</time>
      </trkpt>
      <trkpt lat="50.91304" lon="2.75707">
        <ele>9.3</ele>
        <time>2020-06-23T14:49:54Z</time>
      </trkpt>
      <trkpt lat="50.91302" lon="2.7572">
        <ele>9.3</ele>
        <time>2020-06-23T14:49:55Z</time>
      </trkpt>
      <trkpt lat="50.91298" lon="2.75727">
        <ele>9.3</ele>
        <time>2020-06-23T14:49:56Z</time>
      </trkpt>
      <trkpt lat="50.91296" lon="2.75733">
        <ele>9.3</ele>
        <time>2020-06-23T14:49:57Z</time>
      </trkpt>
      <trkpt lat="50.91294" lon="2.75742">
        <ele>9.3</ele>
        <time>2020-06-23T14:49:58Z</time>
      </trkpt>
      <trkpt lat="50.9129" lon="2.75749">
        <ele>9.3</ele>
        <time>2020-06-23T14:49:59Z</time>
      </trkpt>
      <trkpt lat="50.91287" lon="2.75757">
        <ele>9.3</ele>
        <time>2020-06-23T14:50:00Z</time>
      </trkpt>
      <trkpt lat="50.91284" lon="2.75763">
        <ele>9.3</ele>
        <time>2020-06-23T14:50:01Z</time>
      </trkpt>
      <trkpt lat="50.91281" lon="2.7577">
        <ele>9.3</ele>
        <time>2020-06-23T14:50:02Z</time>
      </trkpt>
      <trkpt lat="50.91278" lon="2.75777">
        <ele>9.3</ele>
        <time>2020-06-23T14:50:03Z</time>
      </trkpt>
      <trkpt lat="50.91276" lon="2.75783">
        <ele>9.3</ele>
        <time>2020-06-23T14:50:04Z</time>
      </trkpt>
      <trkpt lat="50.91273" lon="2.7579">
        <ele>9.3</ele>
        <time>2020-06-23T14:50:05Z</time>
      </trkpt>
      <trkpt lat="50.9127" lon="2.75796">
        <ele>9.3</ele>
        <time>2020-06-23T14:50:06Z</time>
      </trkpt>
      <trkpt lat="50.91266" lon="2.758">
        <ele>9.3</ele>
        <time>2020-06-23T14:50:07Z</time>
      </trkpt>
      <trkpt lat="50.91262" lon="2.75806">
        <ele>9.3</ele>
        <time>2020-06-23T14:50:08Z</time>
      </trkpt>
      <trkpt lat="50.91259" lon="2.75812">
        <ele>9.2</ele>
        <time>2020-06-23T14:50:09Z</time>
      </trkpt>
      <trkpt lat="50.91255" lon="2.75818">
        <ele>9.2</ele>
        <time>2020-06-23T14:50:10Z</time>
      </trkpt>
      <trkpt lat="50.91251" lon="2.75825">
        <ele>9.2</ele>
        <time>2020-06-23T14:50:11Z</time>
      </trkpt>
      <trkpt lat="50.91248" lon="2.75832">
        <ele>9.2</ele>
        <time>2020-06-23T14:50:12Z</time>
      </trkpt>
      <trkpt lat="50.91245" lon="2.75838">
        <ele>9.2</ele>
        <time>2020-06-23T14:50:13Z</time>
      </trkpt>
      <trkpt lat="50.91242" lon="2.75844">
        <ele>9.2</ele>
        <time>2020-06-23T14:50:14Z</time>
      </trkpt>
      <trkpt lat="50.91239" lon="2.7585">
        <ele>9.2</ele>
        <time>2020-06-23T14:50:15Z</time>
      </trkpt>
      <trkpt lat="50.91236" lon="2.75857">
        <ele>9.2</ele>
        <time>2020-06-23T14:50:16Z</time>
      </trkpt>
      <trkpt lat="50.91232" lon="2.75865">
        <ele>9.3</ele>
        <time>2020-06-23T14:50:17Z</time>
      </trkpt>
      <trkpt lat="50.91229" lon="2.75873">
        <ele>9.4</ele>
        <time>2020-06-23T14:50:18Z</time>
      </trkpt>
      <trkpt lat="50.91226" lon="2.7588">
        <ele>9.4</ele>
        <time>2020-06-23T14:50:19Z</time>
      </trkpt>
      <trkpt lat="50.91223" lon="2.75886">
        <ele>9.5</ele>
        <time>2020-06-23T14:50:20Z</time>
      </trkpt>
      <trkpt lat="50.91219" lon="2.75893">
        <ele>9.5</ele>
        <time>2020-06-23T14:50:21Z</time>
      </trkpt>
      <trkpt lat="50.91216" lon="2.759">
        <ele>9.5</ele>
        <time>2020-06-23T14:50:22Z</time>
      </trkpt>
      <trkpt lat="50.91212" lon="2.75907">
        <ele>9.4</ele>
        <time>2020-06-23T14:50:23Z</time>
      </trkpt>
      <trkpt lat="50.91208" lon="2.75914">
        <ele>9.3</ele>
        <time>2020-06-23T14:50:24Z</time>
      </trkpt>
      <trkpt lat="50.91205" lon="2.7592">
        <ele>9.3</ele>
        <time>2020-06-23T14:50:25Z</time>
      </trkpt>
      <trkpt lat="50.91201" lon="2.75925">
        <ele>9.2</ele>
        <time>2020-06-23T14:50:26Z</time>
      </trkpt>
      <trkpt lat="50.91196" lon="2.75931">
        <ele>9.2</ele>
        <time>2020-06-23T14:50:27Z</time>
      </trkpt>
      <trkpt lat="50.91192" lon="2.75937">
        <ele>9.1</ele>
        <time>2020-06-23T14:50:28Z</time>
      </trkpt>
      <trkpt lat="50.91186" lon="2.75943">
        <ele>9.1</ele>
        <time>2020-06-23T14:50:29Z</time>
      </trkpt>
      <trkpt lat="50.91182" lon="2.7595">
        <ele>9.1</ele>
        <time>2020-06-23T14:50:30Z</time>
      </trkpt>
      <trkpt lat="50.91178" lon="2.75956">
        <ele>9.1</ele>
        <time>2020-06-23T14:50:31Z</time>
      </trkpt>
      <trkpt lat="50.91174" lon="2.75964">
        <ele>9.2</ele>
        <time>2020-06-23T14:50:32Z</time>
      </trkpt>
      <trkpt lat="50.9117" lon="2.7597">
        <ele>9.2</ele>
        <time>2020-06-23T14:50:33Z</time>
      </trkpt>
      <trkpt lat="50.91166" lon="2.75976">
        <ele>9.2</ele>
        <time>2020-06-23T14:50:34Z</time>
      </trkpt>
      <trkpt lat="50.91162" lon="2.75982">
        <ele>9.2</ele>
        <time>2020-06-23T14:50:35Z</time>
      </trkpt>
      <trkpt lat="50.91158" lon="2.75988">
        <ele>9.2</ele>
        <time>2020-06-23T14:50:36Z</time>
      </trkpt>
      <trkpt lat="50.91155" lon="2.75994">
        <ele>9.2</ele>
        <time>2020-06-23T14:50:37Z</time>
      </trkpt>
      <trkpt lat="50.91151" lon="2.76">
        <ele>9.2</ele>
        <time>2020-06-23T14:50:38Z</time>
      </trkpt>
      <trkpt lat="50.91147" lon="2.76007">
        <ele>9.2</ele>
        <time>2020-06-23T14:50:39Z</time>
      </trkpt>
      <trkpt lat="50.91143" lon="2.76013">
        <ele>9.2</ele>
        <time>2020-06-23T14:50:40Z</time>
      </trkpt>
      <trkpt lat="50.9114" lon="2.76019">
        <ele>9.3</ele>
        <time>2020-06-23T14:50:41Z</time>
      </trkpt>
      <trkpt lat="50.91136" lon="2.76024">
        <ele>9.3</ele>
        <time>2020-06-23T14:50:42Z</time>
      </trkpt>
      <trkpt lat="50.91132" lon="2.7603">
        <ele>9.3</ele>
        <time>2020-06-23T14:50:43Z</time>
      </trkpt>
      <trkpt lat="50.91128" lon="2.76035">
        <ele>9.3</ele>
        <time>2020-06-23T14:50:44Z</time>
      </trkpt>
      <trkpt lat="50.91124" lon="2.76041">
        <ele>9.2</ele>
        <time>2020-06-23T14:50:45Z</time>
      </trkpt>
      <trkpt lat="50.9112" lon="2.76046">
        <ele>9.2</ele>
        <time>2020-06-23T14:50:46Z</time>
      </trkpt>
      <trkpt lat="50.91116" lon="2.76052">
        <ele>9.2</ele>
        <time>2020-06-23T14:50:47Z</time>
      </trkpt>
      <trkpt lat="50.91113" lon="2.76058">
        <ele>9.2</ele>
        <time>2020-06-23T14:50:48Z</time>
      </trkpt>
      <trkpt lat="50.91108" lon="2.76064">
        <ele>9.2</ele>
        <time>2020-06-23T14:50:49Z</time>
      </trkpt>
      <trkpt lat="50.91103" lon="2.7607">
        <ele>9.2</ele>
        <time>2020-06-23T14:50:50Z</time>
      </trkpt>
      <trkpt lat="50.91097" lon="2.76075">
        <ele>9.1</ele>
        <time>2020-06-23T14:50:51Z</time>
      </trkpt>
      <trkpt lat="50.91091" lon="2.76079">
        <ele>9.1</ele>
        <time>2020-06-23T14:50:52Z</time>
      </trkpt>
      <trkpt lat="50.91085" lon="2.76084">
        <ele>9.1</ele>
        <time>2020-06-23T14:50:53Z</time>
      </trkpt>
      <trkpt lat="50.9108" lon="2.76087">
        <ele>9.1</ele>
        <time>2020-06-23T14:50:54Z</time>
      </trkpt>
      <trkpt lat="50.91074" lon="2.7609">
        <ele>9.2</ele>
        <time>2020-06-23T14:50:55Z</time>
      </trkpt>
      <trkpt lat="50.91068" lon="2.76093">
        <ele>9.2</ele>
        <time>2020-06-23T14:50:56Z</time>
      </trkpt>
      <trkpt lat="50.91062" lon="2.76095">
        <ele>9.2</ele>
        <time>2020-06-23T14:50:57Z</time>
      </trkpt>
      <trkpt lat="50.91056" lon="2.76098">
        <ele>9.2</ele>
        <time>2020-06-23T14:50:58Z</time>
      </trkpt>
      <trkpt lat="50.91051" lon="2.76101">
        <ele>9.2</ele>
        <time>2020-06-23T14:50:59Z</time>
      </trkpt>
      <trkpt lat="50.91046" lon="2.76105">
        <ele>9.2</ele>
        <time>2020-06-23T14:51:00Z</time>
      </trkpt>
      <trkpt lat="50.91041" lon="2.76109">
        <ele>9.2</ele>
        <time>2020-06-23T14:51:01Z</time>
      </trkpt>
      <trkpt lat="50.91036" lon="2.76113">
        <ele>9.2</ele>
        <time>2020-06-23T14:51:02Z</time>
      </trkpt>
      <trkpt lat="50.91031" lon="2.76118">
        <ele>9.2</ele>
        <time>2020-06-23T14:51:03Z</time>
      </trkpt>
      <trkpt lat="50.91025" lon="2.76122">
        <ele>9.2</ele>
        <time>2020-06-23T14:51:04Z</time>
      </trkpt>
      <trkpt lat="50.9102" lon="2.76127">
        <ele>9.3</ele>
        <time>2020-06-23T14:51:05Z</time>
      </trkpt>
      <trkpt lat="50.91014" lon="2.76132">
        <ele>9.3</ele>
        <time>2020-06-23T14:51:06Z</time>
      </trkpt>
      <trkpt lat="50.91009" lon="2.76138">
        <ele>9.3</ele>
        <time>2020-06-23T14:51:07Z</time>
      </trkpt>
      <trkpt lat="50.91003" lon="2.76143">
        <ele>9.3</ele>
        <time>2020-06-23T14:51:08Z</time>
      </trkpt>
      <trkpt lat="50.90998" lon="2.7615">
        <ele>9.4</ele>
        <time>2020-06-23T14:51:09Z</time>
      </trkpt>
      <trkpt lat="50.90993" lon="2.76156">
        <ele>9.4</ele>
        <time>2020-06-23T14:51:10Z</time>
      </trkpt>
      <trkpt lat="50.90987" lon="2.76161">
        <ele>9.4</ele>
        <time>2020-06-23T14:51:11Z</time>
      </trkpt>
      <trkpt lat="50.90982" lon="2.76167">
        <ele>9.4</ele>
        <time>2020-06-23T14:51:12Z</time>
      </trkpt>
      <trkpt lat="50.90977" lon="2.76171">
        <ele>9.4</ele>
        <time>2020-06-23T14:51:13Z</time>
      </trkpt>
      <trkpt lat="50.90972" lon="2.76177">
        <ele>9.4</ele>
        <time>2020-06-23T14:51:14Z</time>
      </trkpt>
      <trkpt lat="50.90967" lon="2.76182">
        <ele>9.4</ele>
        <time>2020-06-23T14:51:15Z</time>
      </trkpt>
      <trkpt lat="50.90963" lon="2.76187">
        <ele>9.5</ele>
        <time>2020-06-23T14:51:16Z</time>
      </trkpt>
      <trkpt lat="50.90958" lon="2.76193">
        <ele>9.5</ele>
        <time>2020-06-23T14:51:17Z</time>
      </trkpt>
      <trkpt lat="50.90954" lon="2.76198">
        <ele>9.5</ele>
        <time>2020-06-23T14:51:18Z</time>
      </trkpt>
      <trkpt lat="50.90948" lon="2.76204">
        <ele>9.6</ele>
        <time>2020-06-23T14:51:19Z</time>
      </trkpt>
      <trkpt lat="50.90944" lon="2.76209">
        <ele>9.7</ele>
        <time>2020-06-23T14:51:20Z</time>
      </trkpt>
      <trkpt lat="50.9094" lon="2.76214">
        <ele>9.8</ele>
        <time>2020-06-23T14:51:21Z</time>
      </trkpt>
      <trkpt lat="50.90935" lon="2.76219">
        <ele>9.8</ele>
        <time>2020-06-23T14:51:22Z</time>
      </trkpt>
      <trkpt lat="50.90929" lon="2.76225">
        <ele>9.8</ele>
        <time>2020-06-23T14:51:23Z</time>
      </trkpt>
      <trkpt lat="50.90923" lon="2.7623">
        <ele>9.9</ele>
        <time>2020-06-23T14:51:24Z</time>
      </trkpt>
      <trkpt lat="50.90918" lon="2.76236">
        <ele>9.9</ele>
        <time>2020-06-23T14:51:25Z</time>
      </trkpt>
      <trkpt lat="50.90913" lon="2.7624">
        <ele>9.9</ele>
        <time>2020-06-23T14:51:26Z</time>
      </trkpt>
      <trkpt lat="50.90908" lon="2.76243">
        <ele>9.9</ele>
        <time>2020-06-23T14:51:27Z</time>
      </trkpt>
      <trkpt lat="50.90902" lon="2.76246">
        <ele>9.9</ele>
        <time>2020-06-23T14:51:28Z</time>
      </trkpt>
      <trkpt lat="50.90896" lon="2.76251">
        <ele>9.9</ele>
        <time>2020-06-23T14:51:29Z</time>
      </trkpt>
      <trkpt lat="50.90891" lon="2.76255">
        <ele>10</ele>
        <time>2020-06-23T14:51:30Z</time>
      </trkpt>
      <trkpt lat="50.90886" lon="2.7626">
        <ele>10</ele>
        <time>2020-06-23T14:51:31Z</time>
      </trkpt>
      <trkpt lat="50.90881" lon="2.76264">
        <ele>10</ele>
        <time>2020-06-23T14:51:32Z</time>
      </trkpt>
      <trkpt lat="50.90876" lon="2.76269">
        <ele>10.1</ele>
        <time>2020-06-23T14:51:33Z</time>
      </trkpt>
      <trkpt lat="50.90873" lon="2.76271">
        <ele>10.1</ele>
        <time>2020-06-23T14:51:34Z</time>
      </trkpt>
      <trkpt lat="50.90868" lon="2.76275">
        <ele>10.1</ele>
        <time>2020-06-23T14:51:35Z</time>
      </trkpt>
      <trkpt lat="50.90863" lon="2.76277">
        <ele>10.1</ele>
        <time>2020-06-23T14:51:36Z</time>
      </trkpt>
      <trkpt lat="50.90857" lon="2.7628">
        <ele>10.1</ele>
        <time>2020-06-23T14:51:37Z</time>
      </trkpt>
      <trkpt lat="50.90852" lon="2.76282">
        <ele>10.1</ele>
        <time>2020-06-23T14:51:38Z</time>
      </trkpt>
      <trkpt lat="50.90848" lon="2.76285">
        <ele>10.1</ele>
        <time>2020-06-23T14:51:39Z</time>
      </trkpt>
      <trkpt lat="50.90842" lon="2.76288">
        <ele>10.1</ele>
        <time>2020-06-23T14:51:40Z</time>
      </trkpt>
      <trkpt lat="50.90837" lon="2.76291">
        <ele>10.1</ele>
        <time>2020-06-23T14:51:41Z</time>
      </trkpt>
      <trkpt lat="50.90832" lon="2.76293">
        <ele>10</ele>
        <time>2020-06-23T14:51:42Z</time>
      </trkpt>
      <trkpt lat="50.90825" lon="2.76295">
        <ele>10</ele>
        <time>2020-06-23T14:51:43Z</time>
      </trkpt>
      <trkpt lat="50.90818" lon="2.76297">
        <ele>10</ele>
        <time>2020-06-23T14:51:44Z</time>
      </trkpt>
      <trkpt lat="50.90812" lon="2.76298">
        <ele>10</ele>
        <time>2020-06-23T14:51:45Z</time>
      </trkpt>
      <trkpt lat="50.90805" lon="2.763">
        <ele>10</ele>
        <time>2020-06-23T14:51:46Z</time>
      </trkpt>
      <trkpt lat="50.90798" lon="2.763">
        <ele>10</ele>
        <time>2020-06-23T14:51:47Z</time>
      </trkpt>
      <trkpt lat="50.90793" lon="2.763">
        <ele>10</ele>
        <time>2020-06-23T14:51:48Z</time>
      </trkpt>
      <trkpt lat="50.90787" lon="2.76303">
        <ele>10.1</ele>
        <time>2020-06-23T14:51:49Z</time>
      </trkpt>
      <trkpt lat="50.9078" lon="2.76305">
        <ele>10.1</ele>
        <time>2020-06-23T14:51:50Z</time>
      </trkpt>
      <trkpt lat="50.90772" lon="2.76308">
        <ele>10.2</ele>
        <time>2020-06-23T14:51:51Z</time>
      </trkpt>
      <trkpt lat="50.90766" lon="2.7631">
        <ele>10.2</ele>
        <time>2020-06-23T14:51:52Z</time>
      </trkpt>
      <trkpt lat="50.90761" lon="2.76312">
        <ele>10.2</ele>
        <time>2020-06-23T14:51:53Z</time>
      </trkpt>
      <trkpt lat="50.90755" lon="2.76314">
        <ele>10.3</ele>
        <time>2020-06-23T14:51:54Z</time>
      </trkpt>
      <trkpt lat="50.9075" lon="2.76317">
        <ele>10.3</ele>
        <time>2020-06-23T14:51:55Z</time>
      </trkpt>
      <trkpt lat="50.90744" lon="2.7632">
        <ele>10.4</ele>
        <time>2020-06-23T14:51:56Z</time>
      </trkpt>
      <trkpt lat="50.90739" lon="2.76324">
        <ele>10.4</ele>
        <time>2020-06-23T14:51:57Z</time>
      </trkpt>
      <trkpt lat="50.90733" lon="2.76328">
        <ele>10.4</ele>
        <time>2020-06-23T14:51:58Z</time>
      </trkpt>
      <trkpt lat="50.90727" lon="2.76331">
        <ele>10.4</ele>
        <time>2020-06-23T14:51:59Z</time>
      </trkpt>
      <trkpt lat="50.90722" lon="2.76334">
        <ele>10.4</ele>
        <time>2020-06-23T14:52:00Z</time>
      </trkpt>
      <trkpt lat="50.90717" lon="2.76338">
        <ele>10.4</ele>
        <time>2020-06-23T14:52:01Z</time>
      </trkpt>
      <trkpt lat="50.9071" lon="2.76342">
        <ele>10.5</ele>
        <time>2020-06-23T14:52:02Z</time>
      </trkpt>
      <trkpt lat="50.90705" lon="2.76345">
        <ele>10.5</ele>
        <time>2020-06-23T14:52:03Z</time>
      </trkpt>
      <trkpt lat="50.907" lon="2.76348">
        <ele>10.6</ele>
        <time>2020-06-23T14:52:04Z</time>
      </trkpt>
      <trkpt lat="50.90694" lon="2.76352">
        <ele>10.6</ele>
        <time>2020-06-23T14:52:05Z</time>
      </trkpt>
      <trkpt lat="50.90688" lon="2.76355">
        <ele>10.7</ele>
        <time>2020-06-23T14:52:06Z</time>
      </trkpt>
      <trkpt lat="50.90683" lon="2.76358">
        <ele>10.7</ele>
        <time>2020-06-23T14:52:07Z</time>
      </trkpt>
      <trkpt lat="50.90677" lon="2.76361">
        <ele>10.7</ele>
        <time>2020-06-23T14:52:08Z</time>
      </trkpt>
      <trkpt lat="50.90672" lon="2.76364">
        <ele>10.8</ele>
        <time>2020-06-23T14:52:09Z</time>
      </trkpt>
      <trkpt lat="50.90666" lon="2.76367">
        <ele>10.8</ele>
        <time>2020-06-23T14:52:10Z</time>
      </trkpt>
      <trkpt lat="50.9066" lon="2.76371">
        <ele>10.8</ele>
        <time>2020-06-23T14:52:11Z</time>
      </trkpt>
      <trkpt lat="50.90655" lon="2.76374">
        <ele>10.8</ele>
        <time>2020-06-23T14:52:12Z</time>
      </trkpt>
      <trkpt lat="50.90649" lon="2.76376">
        <ele>10.8</ele>
        <time>2020-06-23T14:52:13Z</time>
      </trkpt>
      <trkpt lat="50.90644" lon="2.76379">
        <ele>10.9</ele>
        <time>2020-06-23T14:52:14Z</time>
      </trkpt>
      <trkpt lat="50.90638" lon="2.76383">
        <ele>10.9</ele>
        <time>2020-06-23T14:52:15Z</time>
      </trkpt>
      <trkpt lat="50.90631" lon="2.76387">
        <ele>10.9</ele>
        <time>2020-06-23T14:52:16Z</time>
      </trkpt>
      <trkpt lat="50.90625" lon="2.7639">
        <ele>11</ele>
        <time>2020-06-23T14:52:17Z</time>
      </trkpt>
      <trkpt lat="50.90619" lon="2.76393">
        <ele>11</ele>
        <time>2020-06-23T14:52:18Z</time>
      </trkpt>
      <trkpt lat="50.90613" lon="2.76396">
        <ele>11</ele>
        <time>2020-06-23T14:52:19Z</time>
      </trkpt>
      <trkpt lat="50.90606" lon="2.764">
        <ele>11</ele>
        <time>2020-06-23T14:52:20Z</time>
      </trkpt>
      <trkpt lat="50.906" lon="2.76403">
        <ele>11</ele>
        <time>2020-06-23T14:52:21Z</time>
      </trkpt>
      <trkpt lat="50.90595" lon="2.76406">
        <ele>11</ele>
        <time>2020-06-23T14:52:22Z</time>
      </trkpt>
      <trkpt lat="50.90589" lon="2.76408">
        <ele>11</ele>
        <time>2020-06-23T14:52:23Z</time>
      </trkpt>
      <trkpt lat="50.90583" lon="2.76411">
        <ele>11</ele>
        <time>2020-06-23T14:52:24Z</time>
      </trkpt>
      <trkpt lat="50.90577" lon="2.76415">
        <ele>11</ele>
        <time>2020-06-23T14:52:25Z</time>
      </trkpt>
      <trkpt lat="50.90571" lon="2.76416">
        <ele>11</ele>
        <time>2020-06-23T14:52:26Z</time>
      </trkpt>
      <trkpt lat="50.90565" lon="2.76418">
        <ele>11</ele>
        <time>2020-06-23T14:52:27Z</time>
      </trkpt>
      <trkpt lat="50.90558" lon="2.7642">
        <ele>11</ele>
        <time>2020-06-23T14:52:28Z</time>
      </trkpt>
      <trkpt lat="50.90551" lon="2.76423">
        <ele>11</ele>
        <time>2020-06-23T14:52:29Z</time>
      </trkpt>
      <trkpt lat="50.90545" lon="2.76425">
        <ele>11</ele>
        <time>2020-06-23T14:52:30Z</time>
      </trkpt>
      <trkpt lat="50.90539" lon="2.76426">
        <ele>11</ele>
        <time>2020-06-23T14:52:31Z</time>
      </trkpt>
      <trkpt lat="50.90532" lon="2.76428">
        <ele>11</ele>
        <time>2020-06-23T14:52:32Z</time>
      </trkpt>
      <trkpt lat="50.90526" lon="2.76431">
        <ele>11</ele>
        <time>2020-06-23T14:52:33Z</time>
      </trkpt>
      <trkpt lat="50.9052" lon="2.76434">
        <ele>11</ele>
        <time>2020-06-23T14:52:34Z</time>
      </trkpt>
      <trkpt lat="50.90514" lon="2.76437">
        <ele>11</ele>
        <time>2020-06-23T14:52:35Z</time>
      </trkpt>
      <trkpt lat="50.90508" lon="2.76439">
        <ele>10.9</ele>
        <time>2020-06-23T14:52:36Z</time>
      </trkpt>
      <trkpt lat="50.90502" lon="2.76442">
        <ele>10.9</ele>
        <time>2020-06-23T14:52:37Z</time>
      </trkpt>
      <trkpt lat="50.90495" lon="2.76443">
        <ele>10.8</ele>
        <time>2020-06-23T14:52:38Z</time>
      </trkpt>
      <trkpt lat="50.90488" lon="2.76446">
        <ele>10.8</ele>
        <time>2020-06-23T14:52:39Z</time>
      </trkpt>
      <trkpt lat="50.90482" lon="2.7645">
        <ele>10.8</ele>
        <time>2020-06-23T14:52:40Z</time>
      </trkpt>
      <trkpt lat="50.90474" lon="2.76453">
        <ele>10.8</ele>
        <time>2020-06-23T14:52:41Z</time>
      </trkpt>
      <trkpt lat="50.90468" lon="2.76455">
        <ele>10.8</ele>
        <time>2020-06-23T14:52:42Z</time>
      </trkpt>
      <trkpt lat="50.90461" lon="2.76458">
        <ele>10.8</ele>
        <time>2020-06-23T14:52:43Z</time>
      </trkpt>
      <trkpt lat="50.90455" lon="2.7646">
        <ele>10.7</ele>
        <time>2020-06-23T14:52:44Z</time>
      </trkpt>
      <trkpt lat="50.90449" lon="2.76461">
        <ele>10.7</ele>
        <time>2020-06-23T14:52:45Z</time>
      </trkpt>
      <trkpt lat="50.90443" lon="2.76463">
        <ele>10.7</ele>
        <time>2020-06-23T14:52:46Z</time>
      </trkpt>
      <trkpt lat="50.90436" lon="2.76465">
        <ele>10.7</ele>
        <time>2020-06-23T14:52:47Z</time>
      </trkpt>
      <trkpt lat="50.90429" lon="2.76468">
        <ele>10.7</ele>
        <time>2020-06-23T14:52:48Z</time>
      </trkpt>
      <trkpt lat="50.90423" lon="2.7647">
        <ele>10.7</ele>
        <time>2020-06-23T14:52:49Z</time>
      </trkpt>
      <trkpt lat="50.90417" lon="2.76473">
        <ele>10.7</ele>
        <time>2020-06-23T14:52:50Z</time>
      </trkpt>
      <trkpt lat="50.9041" lon="2.76474">
        <ele>10.7</ele>
        <time>2020-06-23T14:52:51Z</time>
      </trkpt>
      <trkpt lat="50.90403" lon="2.76477">
        <ele>10.7</ele>
        <time>2020-06-23T14:52:52Z</time>
      </trkpt>
      <trkpt lat="50.90397" lon="2.7648">
        <ele>10.8</ele>
        <time>2020-06-23T14:52:53Z</time>
      </trkpt>
      <trkpt lat="50.90391" lon="2.76484">
        <ele>10.8</ele>
        <time>2020-06-23T14:52:54Z</time>
      </trkpt>
      <trkpt lat="50.90385" lon="2.76488">
        <ele>10.8</ele>
        <time>2020-06-23T14:52:55Z</time>
      </trkpt>
      <trkpt lat="50.90379" lon="2.76491">
        <ele>10.8</ele>
        <time>2020-06-23T14:52:56Z</time>
      </trkpt>
      <trkpt lat="50.90373" lon="2.76495">
        <ele>10.9</ele>
        <time>2020-06-23T14:52:57Z</time>
      </trkpt>
      <trkpt lat="50.90367" lon="2.76498">
        <ele>10.9</ele>
        <time>2020-06-23T14:52:58Z</time>
      </trkpt>
      <trkpt lat="50.90361" lon="2.76502">
        <ele>11</ele>
        <time>2020-06-23T14:52:59Z</time>
      </trkpt>
      <trkpt lat="50.90355" lon="2.76507">
        <ele>11</ele>
        <time>2020-06-23T14:53:00Z</time>
      </trkpt>
      <trkpt lat="50.90349" lon="2.76512">
        <ele>11.1</ele>
        <time>2020-06-23T14:53:01Z</time>
      </trkpt>
      <trkpt lat="50.90343" lon="2.76517">
        <ele>11.1</ele>
        <time>2020-06-23T14:53:02Z</time>
      </trkpt>
      <trkpt lat="50.90337" lon="2.76521">
        <ele>11.2</ele>
        <time>2020-06-23T14:53:03Z</time>
      </trkpt>
      <trkpt lat="50.90331" lon="2.76526">
        <ele>11.2</ele>
        <time>2020-06-23T14:53:04Z</time>
      </trkpt>
      <trkpt lat="50.90325" lon="2.76529">
        <ele>11.3</ele>
        <time>2020-06-23T14:53:05Z</time>
      </trkpt>
      <trkpt lat="50.90319" lon="2.76532">
        <ele>11.3</ele>
        <time>2020-06-23T14:53:06Z</time>
      </trkpt>
      <trkpt lat="50.90313" lon="2.76536">
        <ele>11.4</ele>
        <time>2020-06-23T14:53:07Z</time>
      </trkpt>
      <trkpt lat="50.90307" lon="2.76538">
        <ele>11.5</ele>
        <time>2020-06-23T14:53:08Z</time>
      </trkpt>
      <trkpt lat="50.90301" lon="2.7654">
        <ele>11.5</ele>
        <time>2020-06-23T14:53:09Z</time>
      </trkpt>
      <trkpt lat="50.90294" lon="2.76542">
        <ele>11.6</ele>
        <time>2020-06-23T14:53:10Z</time>
      </trkpt>
      <trkpt lat="50.90288" lon="2.76544">
        <ele>11.6</ele>
        <time>2020-06-23T14:53:11Z</time>
      </trkpt>
      <trkpt lat="50.90281" lon="2.76545">
        <ele>11.7</ele>
        <time>2020-06-23T14:53:12Z</time>
      </trkpt>
      <trkpt lat="50.90275" lon="2.76546">
        <ele>11.7</ele>
        <time>2020-06-23T14:53:13Z</time>
      </trkpt>
      <trkpt lat="50.90268" lon="2.76547">
        <ele>11.8</ele>
        <time>2020-06-23T14:53:14Z</time>
      </trkpt>
      <trkpt lat="50.90261" lon="2.76548">
        <ele>11.8</ele>
        <time>2020-06-23T14:53:15Z</time>
      </trkpt>
      <trkpt lat="50.90254" lon="2.76549">
        <ele>11.9</ele>
        <time>2020-06-23T14:53:16Z</time>
      </trkpt>
      <trkpt lat="50.90248" lon="2.76548">
        <ele>11.9</ele>
        <time>2020-06-23T14:53:17Z</time>
      </trkpt>
      <trkpt lat="50.90241" lon="2.76548">
        <ele>12</ele>
        <time>2020-06-23T14:53:18Z</time>
      </trkpt>
      <trkpt lat="50.90235" lon="2.76548">
        <ele>12.1</ele>
        <time>2020-06-23T14:53:19Z</time>
      </trkpt>
      <trkpt lat="50.90228" lon="2.7655">
        <ele>12.1</ele>
        <time>2020-06-23T14:53:20Z</time>
      </trkpt>
      <trkpt lat="50.90222" lon="2.76552">
        <ele>12</ele>
        <time>2020-06-23T14:53:21Z</time>
      </trkpt>
      <trkpt lat="50.90215" lon="2.76553">
        <ele>11.9</ele>
        <time>2020-06-23T14:53:22Z</time>
      </trkpt>
      <trkpt lat="50.90209" lon="2.76554">
        <ele>11.9</ele>
        <time>2020-06-23T14:53:23Z</time>
      </trkpt>
      <trkpt lat="50.90202" lon="2.76556">
        <ele>11.9</ele>
        <time>2020-06-23T14:53:24Z</time>
      </trkpt>
      <trkpt lat="50.90196" lon="2.76558">
        <ele>11.9</ele>
        <time>2020-06-23T14:53:25Z</time>
      </trkpt>
      <trkpt lat="50.90189" lon="2.76559">
        <ele>11.9</ele>
        <time>2020-06-23T14:53:26Z</time>
      </trkpt>
      <trkpt lat="50.90183" lon="2.76562">
        <ele>11.9</ele>
        <time>2020-06-23T14:53:27Z</time>
      </trkpt>
      <trkpt lat="50.90177" lon="2.76566">
        <ele>11.9</ele>
        <time>2020-06-23T14:53:28Z</time>
      </trkpt>
      <trkpt lat="50.90171" lon="2.76569">
        <ele>12</ele>
        <time>2020-06-23T14:53:29Z</time>
      </trkpt>
      <trkpt lat="50.90165" lon="2.76572">
        <ele>12</ele>
        <time>2020-06-23T14:53:30Z</time>
      </trkpt>
      <trkpt lat="50.90158" lon="2.76575">
        <ele>12</ele>
        <time>2020-06-23T14:53:31Z</time>
      </trkpt>
      <trkpt lat="50.90152" lon="2.7658">
        <ele>12</ele>
        <time>2020-06-23T14:53:32Z</time>
      </trkpt>
      <trkpt lat="50.90147" lon="2.76586">
        <ele>12.1</ele>
        <time>2020-06-23T14:53:33Z</time>
      </trkpt>
      <trkpt lat="50.9014" lon="2.7659">
        <ele>12.1</ele>
        <time>2020-06-23T14:53:34Z</time>
      </trkpt>
      <trkpt lat="50.90134" lon="2.76595">
        <ele>12.1</ele>
        <time>2020-06-23T14:53:35Z</time>
      </trkpt>
      <trkpt lat="50.90129" lon="2.76602">
        <ele>12.1</ele>
        <time>2020-06-23T14:53:36Z</time>
      </trkpt>
      <trkpt lat="50.90123" lon="2.76607">
        <ele>12.2</ele>
        <time>2020-06-23T14:53:37Z</time>
      </trkpt>
      <trkpt lat="50.90117" lon="2.76611">
        <ele>12.2</ele>
        <time>2020-06-23T14:53:38Z</time>
      </trkpt>
      <trkpt lat="50.90111" lon="2.76616">
        <ele>12.2</ele>
        <time>2020-06-23T14:53:39Z</time>
      </trkpt>
      <trkpt lat="50.90105" lon="2.7662">
        <ele>12.2</ele>
        <time>2020-06-23T14:53:40Z</time>
      </trkpt>
      <trkpt lat="50.90099" lon="2.76624">
        <ele>12.2</ele>
        <time>2020-06-23T14:53:41Z</time>
      </trkpt>
      <trkpt lat="50.90093" lon="2.76629">
        <ele>12.2</ele>
        <time>2020-06-23T14:53:42Z</time>
      </trkpt>
      <trkpt lat="50.90087" lon="2.76634">
        <ele>12.2</ele>
        <time>2020-06-23T14:53:43Z</time>
      </trkpt>
      <trkpt lat="50.90081" lon="2.76637">
        <ele>12.2</ele>
        <time>2020-06-23T14:53:44Z</time>
      </trkpt>
      <trkpt lat="50.90074" lon="2.76639">
        <ele>12.2</ele>
        <time>2020-06-23T14:53:45Z</time>
      </trkpt>
      <trkpt lat="50.90068" lon="2.76641">
        <ele>12.2</ele>
        <time>2020-06-23T14:53:46Z</time>
      </trkpt>
      <trkpt lat="50.90061" lon="2.76642">
        <ele>12.2</ele>
        <time>2020-06-23T14:53:47Z</time>
      </trkpt>
      <trkpt lat="50.90055" lon="2.76642">
        <ele>12.3</ele>
        <time>2020-06-23T14:53:48Z</time>
      </trkpt>
      <trkpt lat="50.90048" lon="2.76642">
        <ele>12.3</ele>
        <time>2020-06-23T14:53:49Z</time>
      </trkpt>
      <trkpt lat="50.90041" lon="2.76641">
        <ele>12.3</ele>
        <time>2020-06-23T14:53:50Z</time>
      </trkpt>
      <trkpt lat="50.90035" lon="2.76641">
        <ele>12.4</ele>
        <time>2020-06-23T14:53:51Z</time>
      </trkpt>
      <trkpt lat="50.90028" lon="2.76641">
        <ele>12.4</ele>
        <time>2020-06-23T14:53:52Z</time>
      </trkpt>
      <trkpt lat="50.90022" lon="2.76644">
        <ele>12.4</ele>
        <time>2020-06-23T14:53:53Z</time>
      </trkpt>
      <trkpt lat="50.90015" lon="2.76647">
        <ele>12.4</ele>
        <time>2020-06-23T14:53:54Z</time>
      </trkpt>
      <trkpt lat="50.90008" lon="2.7665">
        <ele>12.4</ele>
        <time>2020-06-23T14:53:55Z</time>
      </trkpt>
      <trkpt lat="50.90001" lon="2.76653">
        <ele>12.4</ele>
        <time>2020-06-23T14:53:56Z</time>
      </trkpt>
      <trkpt lat="50.89995" lon="2.76657">
        <ele>12.4</ele>
        <time>2020-06-23T14:53:57Z</time>
      </trkpt>
      <trkpt lat="50.89988" lon="2.76659">
        <ele>12.5</ele>
        <time>2020-06-23T14:53:58Z</time>
      </trkpt>
      <trkpt lat="50.89982" lon="2.76663">
        <ele>12.5</ele>
        <time>2020-06-23T14:53:59Z</time>
      </trkpt>
      <trkpt lat="50.89976" lon="2.76667">
        <ele>12.5</ele>
        <time>2020-06-23T14:54:00Z</time>
      </trkpt>
      <trkpt lat="50.89971" lon="2.76672">
        <ele>12.4</ele>
        <time>2020-06-23T14:54:01Z</time>
      </trkpt>
      <trkpt lat="50.89965" lon="2.76678">
        <ele>12.3</ele>
        <time>2020-06-23T14:54:02Z</time>
      </trkpt>
      <trkpt lat="50.8996" lon="2.76683">
        <ele>12.2</ele>
        <time>2020-06-23T14:54:03Z</time>
      </trkpt>
      <trkpt lat="50.89955" lon="2.76689">
        <ele>12.1</ele>
        <time>2020-06-23T14:54:04Z</time>
      </trkpt>
      <trkpt lat="50.8995" lon="2.76696">
        <ele>12.1</ele>
        <time>2020-06-23T14:54:05Z</time>
      </trkpt>
      <trkpt lat="50.89946" lon="2.76702">
        <ele>12</ele>
        <time>2020-06-23T14:54:06Z</time>
      </trkpt>
      <trkpt lat="50.89941" lon="2.76708">
        <ele>12</ele>
        <time>2020-06-23T14:54:07Z</time>
      </trkpt>
      <trkpt lat="50.89935" lon="2.76711">
        <ele>12</ele>
        <time>2020-06-23T14:54:08Z</time>
      </trkpt>
      <trkpt lat="50.89929" lon="2.76713">
        <ele>11.9</ele>
        <time>2020-06-23T14:54:09Z</time>
      </trkpt>
      <trkpt lat="50.89924" lon="2.76716">
        <ele>11.9</ele>
        <time>2020-06-23T14:54:10Z</time>
      </trkpt>
      <trkpt lat="50.89918" lon="2.76719">
        <ele>11.9</ele>
        <time>2020-06-23T14:54:11Z</time>
      </trkpt>
      <trkpt lat="50.89912" lon="2.76722">
        <ele>11.9</ele>
        <time>2020-06-23T14:54:12Z</time>
      </trkpt>
      <trkpt lat="50.89906" lon="2.76726">
        <ele>11.9</ele>
        <time>2020-06-23T14:54:13Z</time>
      </trkpt>
      <trkpt lat="50.89899" lon="2.76728">
        <ele>11.9</ele>
        <time>2020-06-23T14:54:14Z</time>
      </trkpt>
      <trkpt lat="50.89893" lon="2.76727">
        <ele>11.8</ele>
        <time>2020-06-23T14:54:15Z</time>
      </trkpt>
      <trkpt lat="50.89886" lon="2.76727">
        <ele>11.8</ele>
        <time>2020-06-23T14:54:16Z</time>
      </trkpt>
      <trkpt lat="50.8988" lon="2.76725">
        <ele>11.7</ele>
        <time>2020-06-23T14:54:17Z</time>
      </trkpt>
      <trkpt lat="50.89874" lon="2.76724">
        <ele>11.7</ele>
        <time>2020-06-23T14:54:18Z</time>
      </trkpt>
      <trkpt lat="50.89867" lon="2.76723">
        <ele>11.7</ele>
        <time>2020-06-23T14:54:19Z</time>
      </trkpt>
      <trkpt lat="50.89861" lon="2.76722">
        <ele>11.6</ele>
        <time>2020-06-23T14:54:20Z</time>
      </trkpt>
      <trkpt lat="50.89855" lon="2.76722">
        <ele>11.6</ele>
        <time>2020-06-23T14:54:21Z</time>
      </trkpt>
      <trkpt lat="50.89848" lon="2.76722">
        <ele>11.6</ele>
        <time>2020-06-23T14:54:22Z</time>
      </trkpt>
      <trkpt lat="50.89842" lon="2.76721">
        <ele>11.6</ele>
        <time>2020-06-23T14:54:23Z</time>
      </trkpt>
      <trkpt lat="50.89836" lon="2.76721">
        <ele>11.6</ele>
        <time>2020-06-23T14:54:24Z</time>
      </trkpt>
      <trkpt lat="50.8983" lon="2.76721">
        <ele>11.6</ele>
        <time>2020-06-23T14:54:25Z</time>
      </trkpt>
      <trkpt lat="50.89824" lon="2.76721">
        <ele>11.6</ele>
        <time>2020-06-23T14:54:26Z</time>
      </trkpt>
      <trkpt lat="50.89817" lon="2.76722">
        <ele>11.6</ele>
        <time>2020-06-23T14:54:27Z</time>
      </trkpt>
      <trkpt lat="50.89811" lon="2.76722">
        <ele>11.6</ele>
        <time>2020-06-23T14:54:28Z</time>
      </trkpt>
      <trkpt lat="50.89805" lon="2.76723">
        <ele>11.7</ele>
        <time>2020-06-23T14:54:29Z</time>
      </trkpt>
      <trkpt lat="50.89799" lon="2.76725">
        <ele>11.7</ele>
        <time>2020-06-23T14:54:30Z</time>
      </trkpt>
      <trkpt lat="50.89793" lon="2.76725">
        <ele>11.8</ele>
        <time>2020-06-23T14:54:31Z</time>
      </trkpt>
      <trkpt lat="50.89788" lon="2.76726">
        <ele>11.8</ele>
        <time>2020-06-23T14:54:32Z</time>
      </trkpt>
      <trkpt lat="50.89782" lon="2.76727">
        <ele>11.9</ele>
        <time>2020-06-23T14:54:33Z</time>
      </trkpt>
      <trkpt lat="50.89776" lon="2.76727">
        <ele>11.9</ele>
        <time>2020-06-23T14:54:34Z</time>
      </trkpt>
      <trkpt lat="50.8977" lon="2.76729">
        <ele>12</ele>
        <time>2020-06-23T14:54:35Z</time>
      </trkpt>
      <trkpt lat="50.89765" lon="2.76731">
        <ele>12</ele>
        <time>2020-06-23T14:54:36Z</time>
      </trkpt>
      <trkpt lat="50.8976" lon="2.76736">
        <ele>12.1</ele>
        <time>2020-06-23T14:54:37Z</time>
      </trkpt>
      <trkpt lat="50.89757" lon="2.76743">
        <ele>12.1</ele>
        <time>2020-06-23T14:54:38Z</time>
      </trkpt>
      <trkpt lat="50.89755" lon="2.76752">
        <ele>12.2</ele>
        <time>2020-06-23T14:54:39Z</time>
      </trkpt>
      <trkpt lat="50.89752" lon="2.76759">
        <ele>12.2</ele>
        <time>2020-06-23T14:54:40Z</time>
      </trkpt>
      <trkpt lat="50.89748" lon="2.76767">
        <ele>12.2</ele>
        <time>2020-06-23T14:54:41Z</time>
      </trkpt>
      <trkpt lat="50.89746" lon="2.76776">
        <ele>12.3</ele>
        <time>2020-06-23T14:54:42Z</time>
      </trkpt>
      <trkpt lat="50.89744" lon="2.76784">
        <ele>12.3</ele>
        <time>2020-06-23T14:54:43Z</time>
      </trkpt>
      <trkpt lat="50.89741" lon="2.76792">
        <ele>12.4</ele>
        <time>2020-06-23T14:54:44Z</time>
      </trkpt>
      <trkpt lat="50.89738" lon="2.768">
        <ele>12.4</ele>
        <time>2020-06-23T14:54:45Z</time>
      </trkpt>
      <trkpt lat="50.89735" lon="2.76808">
        <ele>12.5</ele>
        <time>2020-06-23T14:54:46Z</time>
      </trkpt>
      <trkpt lat="50.89733" lon="2.76816">
        <ele>12.6</ele>
        <time>2020-06-23T14:54:47Z</time>
      </trkpt>
      <trkpt lat="50.8973" lon="2.76823">
        <ele>12.6</ele>
        <time>2020-06-23T14:54:48Z</time>
      </trkpt>
      <trkpt lat="50.89726" lon="2.7683">
        <ele>12.7</ele>
        <time>2020-06-23T14:54:49Z</time>
      </trkpt>
      <trkpt lat="50.89722" lon="2.76837">
        <ele>12.7</ele>
        <time>2020-06-23T14:54:50Z</time>
      </trkpt>
      <trkpt lat="50.89718" lon="2.76843">
        <ele>12.8</ele>
        <time>2020-06-23T14:54:51Z</time>
      </trkpt>
      <trkpt lat="50.89714" lon="2.76849">
        <ele>12.8</ele>
        <time>2020-06-23T14:54:52Z</time>
      </trkpt>
      <trkpt lat="50.89709" lon="2.76853">
        <ele>12.9</ele>
        <time>2020-06-23T14:54:53Z</time>
      </trkpt>
      <trkpt lat="50.89704" lon="2.76858">
        <ele>13</ele>
        <time>2020-06-23T14:54:54Z</time>
      </trkpt>
      <trkpt lat="50.89699" lon="2.76863">
        <ele>13</ele>
        <time>2020-06-23T14:54:55Z</time>
      </trkpt>
      <trkpt lat="50.89693" lon="2.76865">
        <ele>13.1</ele>
        <time>2020-06-23T14:54:56Z</time>
      </trkpt>
      <trkpt lat="50.89686" lon="2.76869">
        <ele>13.2</ele>
        <time>2020-06-23T14:54:57Z</time>
      </trkpt>
      <trkpt lat="50.89681" lon="2.76872">
        <ele>13.2</ele>
        <time>2020-06-23T14:54:58Z</time>
      </trkpt>
      <trkpt lat="50.89674" lon="2.76875">
        <ele>13.3</ele>
        <time>2020-06-23T14:54:59Z</time>
      </trkpt>
      <trkpt lat="50.89668" lon="2.76878">
        <ele>13.3</ele>
        <time>2020-06-23T14:55:00Z</time>
      </trkpt>
      <trkpt lat="50.89662" lon="2.76881">
        <ele>13.4</ele>
        <time>2020-06-23T14:55:01Z</time>
      </trkpt>
      <trkpt lat="50.89657" lon="2.76884">
        <ele>13.5</ele>
        <time>2020-06-23T14:55:02Z</time>
      </trkpt>
      <trkpt lat="50.89652" lon="2.76888">
        <ele>13.5</ele>
        <time>2020-06-23T14:55:03Z</time>
      </trkpt>
      <trkpt lat="50.89648" lon="2.76891">
        <ele>13.5</ele>
        <time>2020-06-23T14:55:04Z</time>
      </trkpt>
      <trkpt lat="50.89643" lon="2.76894">
        <ele>13.6</ele>
        <time>2020-06-23T14:55:05Z</time>
      </trkpt>
      <trkpt lat="50.8964" lon="2.769">
        <ele>13.6</ele>
        <time>2020-06-23T14:55:06Z</time>
      </trkpt>
      <trkpt lat="50.89637" lon="2.76905">
        <ele>13.6</ele>
        <time>2020-06-23T14:55:07Z</time>
      </trkpt>
      <trkpt lat="50.89634" lon="2.76913">
        <ele>13.6</ele>
        <time>2020-06-23T14:55:08Z</time>
      </trkpt>
      <trkpt lat="50.89631" lon="2.76919">
        <ele>13.6</ele>
        <time>2020-06-23T14:55:09Z</time>
      </trkpt>
      <trkpt lat="50.89627" lon="2.76925">
        <ele>13.6</ele>
        <time>2020-06-23T14:55:10Z</time>
      </trkpt>
      <trkpt lat="50.89624" lon="2.76931">
        <ele>13.7</ele>
        <time>2020-06-23T14:55:11Z</time>
      </trkpt>
      <trkpt lat="50.89621" lon="2.76937">
        <ele>13.7</ele>
        <time>2020-06-23T14:55:12Z</time>
      </trkpt>
      <trkpt lat="50.89617" lon="2.76943">
        <ele>13.8</ele>
        <time>2020-06-23T14:55:13Z</time>
      </trkpt>
      <trkpt lat="50.89613" lon="2.7695">
        <ele>13.8</ele>
        <time>2020-06-23T14:55:14Z</time>
      </trkpt>
      <trkpt lat="50.89611" lon="2.76957">
        <ele>13.9</ele>
        <time>2020-06-23T14:55:15Z</time>
      </trkpt>
      <trkpt lat="50.89607" lon="2.76964">
        <ele>13.9</ele>
        <time>2020-06-23T14:55:16Z</time>
      </trkpt>
      <trkpt lat="50.89604" lon="2.7697">
        <ele>14</ele>
        <time>2020-06-23T14:55:17Z</time>
      </trkpt>
      <trkpt lat="50.89601" lon="2.76974">
        <ele>14</ele>
        <time>2020-06-23T14:55:18Z</time>
      </trkpt>
      <trkpt lat="50.89598" lon="2.76977">
        <ele>14</ele>
        <time>2020-06-23T14:55:19Z</time>
      </trkpt>
      <trkpt lat="50.89594" lon="2.76981">
        <ele>14</ele>
        <time>2020-06-23T14:55:20Z</time>
      </trkpt>
      <trkpt lat="50.89589" lon="2.76985">
        <ele>14.1</ele>
        <time>2020-06-23T14:55:21Z</time>
      </trkpt>
      <trkpt lat="50.89583" lon="2.76989">
        <ele>14.1</ele>
        <time>2020-06-23T14:55:22Z</time>
      </trkpt>
      <trkpt lat="50.89578" lon="2.76991">
        <ele>14.1</ele>
        <time>2020-06-23T14:55:23Z</time>
      </trkpt>
      <trkpt lat="50.89573" lon="2.76994">
        <ele>14.2</ele>
        <time>2020-06-23T14:55:24Z</time>
      </trkpt>
      <trkpt lat="50.89568" lon="2.76997">
        <ele>14.2</ele>
        <time>2020-06-23T14:55:25Z</time>
      </trkpt>
      <trkpt lat="50.89564" lon="2.77">
        <ele>14.2</ele>
        <time>2020-06-23T14:55:26Z</time>
      </trkpt>
      <trkpt lat="50.89559" lon="2.77003">
        <ele>14.3</ele>
        <time>2020-06-23T14:55:27Z</time>
      </trkpt>
      <trkpt lat="50.89553" lon="2.77008">
        <ele>14.3</ele>
        <time>2020-06-23T14:55:28Z</time>
      </trkpt>
      <trkpt lat="50.89549" lon="2.77012">
        <ele>14.4</ele>
        <time>2020-06-23T14:55:29Z</time>
      </trkpt>
      <trkpt lat="50.89544" lon="2.77015">
        <ele>14.5</ele>
        <time>2020-06-23T14:55:30Z</time>
      </trkpt>
      <trkpt lat="50.89539" lon="2.77019">
        <ele>14.5</ele>
        <time>2020-06-23T14:55:31Z</time>
      </trkpt>
      <trkpt lat="50.89534" lon="2.77024">
        <ele>14.6</ele>
        <time>2020-06-23T14:55:32Z</time>
      </trkpt>
      <trkpt lat="50.89529" lon="2.77028">
        <ele>14.7</ele>
        <time>2020-06-23T14:55:33Z</time>
      </trkpt>
      <trkpt lat="50.89524" lon="2.77034">
        <ele>14.7</ele>
        <time>2020-06-23T14:55:34Z</time>
      </trkpt>
      <trkpt lat="50.8952" lon="2.7704">
        <ele>14.8</ele>
        <time>2020-06-23T14:55:35Z</time>
      </trkpt>
      <trkpt lat="50.89515" lon="2.77044">
        <ele>14.8</ele>
        <time>2020-06-23T14:55:36Z</time>
      </trkpt>
      <trkpt lat="50.8951" lon="2.77047">
        <ele>14.9</ele>
        <time>2020-06-23T14:55:37Z</time>
      </trkpt>
      <trkpt lat="50.89506" lon="2.77051">
        <ele>14.9</ele>
        <time>2020-06-23T14:55:38Z</time>
      </trkpt>
      <trkpt lat="50.89502" lon="2.77055">
        <ele>15</ele>
        <time>2020-06-23T14:55:39Z</time>
      </trkpt>
      <trkpt lat="50.89498" lon="2.77059">
        <ele>15</ele>
        <time>2020-06-23T14:55:40Z</time>
      </trkpt>
      <trkpt lat="50.89492" lon="2.77065">
        <ele>15.1</ele>
        <time>2020-06-23T14:55:41Z</time>
      </trkpt>
      <trkpt lat="50.89487" lon="2.7707">
        <ele>15.1</ele>
        <time>2020-06-23T14:55:42Z</time>
      </trkpt>
      <trkpt lat="50.89483" lon="2.77076">
        <ele>15.1</ele>
        <time>2020-06-23T14:55:43Z</time>
      </trkpt>
      <trkpt lat="50.89479" lon="2.77081">
        <ele>15.1</ele>
        <time>2020-06-23T14:55:44Z</time>
      </trkpt>
      <trkpt lat="50.89475" lon="2.77085">
        <ele>15.1</ele>
        <time>2020-06-23T14:55:45Z</time>
      </trkpt>
      <trkpt lat="50.89471" lon="2.77089">
        <ele>15.1</ele>
        <time>2020-06-23T14:55:46Z</time>
      </trkpt>
      <trkpt lat="50.89467" lon="2.77094">
        <ele>15</ele>
        <time>2020-06-23T14:55:47Z</time>
      </trkpt>
      <trkpt lat="50.89463" lon="2.771">
        <ele>15</ele>
        <time>2020-06-23T14:55:48Z</time>
      </trkpt>
      <trkpt lat="50.89459" lon="2.77104">
        <ele>15</ele>
        <time>2020-06-23T14:55:49Z</time>
      </trkpt>
      <trkpt lat="50.89454" lon="2.7711">
        <ele>15.1</ele>
        <time>2020-06-23T14:55:50Z</time>
      </trkpt>
      <trkpt lat="50.89449" lon="2.77114">
        <ele>15.1</ele>
        <time>2020-06-23T14:55:51Z</time>
      </trkpt>
      <trkpt lat="50.89445" lon="2.77119">
        <ele>15.2</ele>
        <time>2020-06-23T14:55:52Z</time>
      </trkpt>
      <trkpt lat="50.8944" lon="2.77123">
        <ele>15.2</ele>
        <time>2020-06-23T14:55:53Z</time>
      </trkpt>
      <trkpt lat="50.89435" lon="2.77127">
        <ele>15.3</ele>
        <time>2020-06-23T14:55:54Z</time>
      </trkpt>
      <trkpt lat="50.89429" lon="2.77132">
        <ele>15.3</ele>
        <time>2020-06-23T14:55:55Z</time>
      </trkpt>
      <trkpt lat="50.89424" lon="2.77136">
        <ele>15.4</ele>
        <time>2020-06-23T14:55:56Z</time>
      </trkpt>
      <trkpt lat="50.8942" lon="2.77142">
        <ele>15.5</ele>
        <time>2020-06-23T14:55:57Z</time>
      </trkpt>
      <trkpt lat="50.89415" lon="2.77145">
        <ele>15.5</ele>
        <time>2020-06-23T14:55:58Z</time>
      </trkpt>
      <trkpt lat="50.8941" lon="2.7715">
        <ele>15.6</ele>
        <time>2020-06-23T14:55:59Z</time>
      </trkpt>
      <trkpt lat="50.89406" lon="2.77154">
        <ele>15.7</ele>
        <time>2020-06-23T14:56:00Z</time>
      </trkpt>
      <trkpt lat="50.89401" lon="2.77159">
        <ele>15.8</ele>
        <time>2020-06-23T14:56:01Z</time>
      </trkpt>
      <trkpt lat="50.89397" lon="2.77163">
        <ele>15.9</ele>
        <time>2020-06-23T14:56:02Z</time>
      </trkpt>
      <trkpt lat="50.89392" lon="2.77167">
        <ele>16</ele>
        <time>2020-06-23T14:56:03Z</time>
      </trkpt>
      <trkpt lat="50.89387" lon="2.77171">
        <ele>16.1</ele>
        <time>2020-06-23T14:56:04Z</time>
      </trkpt>
      <trkpt lat="50.89382" lon="2.77176">
        <ele>16.2</ele>
        <time>2020-06-23T14:56:05Z</time>
      </trkpt>
      <trkpt lat="50.89378" lon="2.77181">
        <ele>16.3</ele>
        <time>2020-06-23T14:56:06Z</time>
      </trkpt>
      <trkpt lat="50.89373" lon="2.77186">
        <ele>16.4</ele>
        <time>2020-06-23T14:56:07Z</time>
      </trkpt>
      <trkpt lat="50.89369" lon="2.7719">
        <ele>16.5</ele>
        <time>2020-06-23T14:56:08Z</time>
      </trkpt>
      <trkpt lat="50.89365" lon="2.77195">
        <ele>16.6</ele>
        <time>2020-06-23T14:56:09Z</time>
      </trkpt>
      <trkpt lat="50.8936" lon="2.77199">
        <ele>16.7</ele>
        <time>2020-06-23T14:56:10Z</time>
      </trkpt>
      <trkpt lat="50.89356" lon="2.77204">
        <ele>16.8</ele>
        <time>2020-06-23T14:56:11Z</time>
      </trkpt>
      <trkpt lat="50.89352" lon="2.77209">
        <ele>16.9</ele>
        <time>2020-06-23T14:56:12Z</time>
      </trkpt>
      <trkpt lat="50.89348" lon="2.77213">
        <ele>17</ele>
        <time>2020-06-23T14:56:13Z</time>
      </trkpt>
      <trkpt lat="50.89342" lon="2.77218">
        <ele>17.1</ele>
        <time>2020-06-23T14:56:14Z</time>
      </trkpt>
      <trkpt lat="50.89337" lon="2.77223">
        <ele>17.2</ele>
        <time>2020-06-23T14:56:15Z</time>
      </trkpt>
      <trkpt lat="50.89333" lon="2.77227">
        <ele>17.3</ele>
        <time>2020-06-23T14:56:16Z</time>
      </trkpt>
      <trkpt lat="50.89328" lon="2.77232">
        <ele>17.4</ele>
        <time>2020-06-23T14:56:17Z</time>
      </trkpt>
      <trkpt lat="50.89323" lon="2.77238">
        <ele>17.5</ele>
        <time>2020-06-23T14:56:18Z</time>
      </trkpt>
      <trkpt lat="50.89318" lon="2.77244">
        <ele>17.6</ele>
        <time>2020-06-23T14:56:19Z</time>
      </trkpt>
      <trkpt lat="50.89314" lon="2.77249">
        <ele>17.7</ele>
        <time>2020-06-23T14:56:20Z</time>
      </trkpt>
      <trkpt lat="50.8931" lon="2.77254">
        <ele>17.7</ele>
        <time>2020-06-23T14:56:21Z</time>
      </trkpt>
      <trkpt lat="50.89306" lon="2.77261">
        <ele>17.8</ele>
        <time>2020-06-23T14:56:22Z</time>
      </trkpt>
      <trkpt lat="50.89302" lon="2.77266">
        <ele>17.8</ele>
        <time>2020-06-23T14:56:23Z</time>
      </trkpt>
      <trkpt lat="50.89299" lon="2.77272">
        <ele>17.9</ele>
        <time>2020-06-23T14:56:24Z</time>
      </trkpt>
      <trkpt lat="50.89294" lon="2.77278">
        <ele>17.9</ele>
        <time>2020-06-23T14:56:25Z</time>
      </trkpt>
      <trkpt lat="50.89289" lon="2.77282">
        <ele>17.9</ele>
        <time>2020-06-23T14:56:26Z</time>
      </trkpt>
      <trkpt lat="50.89284" lon="2.77287">
        <ele>18</ele>
        <time>2020-06-23T14:56:27Z</time>
      </trkpt>
      <trkpt lat="50.89279" lon="2.77293">
        <ele>18</ele>
        <time>2020-06-23T14:56:28Z</time>
      </trkpt>
      <trkpt lat="50.89274" lon="2.77298">
        <ele>18</ele>
        <time>2020-06-23T14:56:29Z</time>
      </trkpt>
      <trkpt lat="50.89269" lon="2.77304">
        <ele>18</ele>
        <time>2020-06-23T14:56:30Z</time>
      </trkpt>
      <trkpt lat="50.89264" lon="2.77309">
        <ele>18</ele>
        <time>2020-06-23T14:56:31Z</time>
      </trkpt>
      <trkpt lat="50.8926" lon="2.77315">
        <ele>18</ele>
        <time>2020-06-23T14:56:32Z</time>
      </trkpt>
      <trkpt lat="50.89255" lon="2.77321">
        <ele>18.1</ele>
        <time>2020-06-23T14:56:33Z</time>
      </trkpt>
      <trkpt lat="50.8925" lon="2.77328">
        <ele>18.1</ele>
        <time>2020-06-23T14:56:34Z</time>
      </trkpt>
      <trkpt lat="50.89244" lon="2.77335">
        <ele>18.2</ele>
        <time>2020-06-23T14:56:35Z</time>
      </trkpt>
      <trkpt lat="50.8924" lon="2.77341">
        <ele>18.3</ele>
        <time>2020-06-23T14:56:36Z</time>
      </trkpt>
      <trkpt lat="50.89234" lon="2.77346">
        <ele>18.4</ele>
        <time>2020-06-23T14:56:37Z</time>
      </trkpt>
      <trkpt lat="50.8923" lon="2.77351">
        <ele>18.4</ele>
        <time>2020-06-23T14:56:38Z</time>
      </trkpt>
      <trkpt lat="50.89224" lon="2.77356">
        <ele>18.5</ele>
        <time>2020-06-23T14:56:39Z</time>
      </trkpt>
      <trkpt lat="50.8922" lon="2.77361">
        <ele>18.6</ele>
        <time>2020-06-23T14:56:40Z</time>
      </trkpt>
      <trkpt lat="50.89217" lon="2.77366">
        <ele>18.7</ele>
        <time>2020-06-23T14:56:41Z</time>
      </trkpt>
      <trkpt lat="50.89213" lon="2.77371">
        <ele>18.8</ele>
        <time>2020-06-23T14:56:42Z</time>
      </trkpt>
      <trkpt lat="50.8921" lon="2.77375">
        <ele>18.8</ele>
        <time>2020-06-23T14:56:43Z</time>
      </trkpt>
      <trkpt lat="50.89205" lon="2.77379">
        <ele>18.8</ele>
        <time>2020-06-23T14:56:44Z</time>
      </trkpt>
      <trkpt lat="50.89202" lon="2.77384">
        <ele>18.7</ele>
        <time>2020-06-23T14:56:45Z</time>
      </trkpt>
      <trkpt lat="50.89198" lon="2.77388">
        <ele>18.6</ele>
        <time>2020-06-23T14:56:46Z</time>
      </trkpt>
      <trkpt lat="50.89194" lon="2.77392">
        <ele>18.5</ele>
        <time>2020-06-23T14:56:47Z</time>
      </trkpt>
      <trkpt lat="50.8919" lon="2.77396">
        <ele>18.3</ele>
        <time>2020-06-23T14:56:48Z</time>
      </trkpt>
      <trkpt lat="50.89186" lon="2.77401">
        <ele>18.2</ele>
        <time>2020-06-23T14:56:49Z</time>
      </trkpt>
      <trkpt lat="50.89182" lon="2.77407">
        <ele>18.1</ele>
        <time>2020-06-23T14:56:50Z</time>
      </trkpt>
      <trkpt lat="50.89177" lon="2.77412">
        <ele>17.9</ele>
        <time>2020-06-23T14:56:51Z</time>
      </trkpt>
      <trkpt lat="50.89172" lon="2.77418">
        <ele>17.8</ele>
        <time>2020-06-23T14:56:52Z</time>
      </trkpt>
      <trkpt lat="50.89168" lon="2.77423">
        <ele>17.8</ele>
        <time>2020-06-23T14:56:53Z</time>
      </trkpt>
      <trkpt lat="50.89164" lon="2.77429">
        <ele>17.7</ele>
        <time>2020-06-23T14:56:54Z</time>
      </trkpt>
      <trkpt lat="50.89161" lon="2.77435">
        <ele>17.6</ele>
        <time>2020-06-23T14:56:55Z</time>
      </trkpt>
      <trkpt lat="50.89157" lon="2.7744">
        <ele>17.6</ele>
        <time>2020-06-23T14:56:56Z</time>
      </trkpt>
      <trkpt lat="50.89154" lon="2.77446">
        <ele>17.5</ele>
        <time>2020-06-23T14:56:57Z</time>
      </trkpt>
      <trkpt lat="50.8915" lon="2.77454">
        <ele>17.4</ele>
        <time>2020-06-23T14:56:58Z</time>
      </trkpt>
      <trkpt lat="50.89146" lon="2.77462">
        <ele>17.3</ele>
        <time>2020-06-23T14:56:59Z</time>
      </trkpt>
      <trkpt lat="50.89142" lon="2.77469">
        <ele>17.2</ele>
        <time>2020-06-23T14:57:00Z</time>
      </trkpt>
      <trkpt lat="50.89138" lon="2.77477">
        <ele>17.1</ele>
        <time>2020-06-23T14:57:01Z</time>
      </trkpt>
      <trkpt lat="50.89134" lon="2.77484">
        <ele>17.1</ele>
        <time>2020-06-23T14:57:02Z</time>
      </trkpt>
      <trkpt lat="50.89129" lon="2.77492">
        <ele>17</ele>
        <time>2020-06-23T14:57:03Z</time>
      </trkpt>
      <trkpt lat="50.89125" lon="2.77499">
        <ele>17</ele>
        <time>2020-06-23T14:57:04Z</time>
      </trkpt>
      <trkpt lat="50.89122" lon="2.77507">
        <ele>16.9</ele>
        <time>2020-06-23T14:57:05Z</time>
      </trkpt>
      <trkpt lat="50.89118" lon="2.77515">
        <ele>16.9</ele>
        <time>2020-06-23T14:57:06Z</time>
      </trkpt>
      <trkpt lat="50.89114" lon="2.77523">
        <ele>16.9</ele>
        <time>2020-06-23T14:57:07Z</time>
      </trkpt>
      <trkpt lat="50.89111" lon="2.77531">
        <ele>16.9</ele>
        <time>2020-06-23T14:57:08Z</time>
      </trkpt>
      <trkpt lat="50.89107" lon="2.7754">
        <ele>16.8</ele>
        <time>2020-06-23T14:57:09Z</time>
      </trkpt>
      <trkpt lat="50.89103" lon="2.77549">
        <ele>16.8</ele>
        <time>2020-06-23T14:57:10Z</time>
      </trkpt>
      <trkpt lat="50.89099" lon="2.77558">
        <ele>16.7</ele>
        <time>2020-06-23T14:57:11Z</time>
      </trkpt>
      <trkpt lat="50.89095" lon="2.77569">
        <ele>16.6</ele>
        <time>2020-06-23T14:57:12Z</time>
      </trkpt>
      <trkpt lat="50.89091" lon="2.77579">
        <ele>16.5</ele>
        <time>2020-06-23T14:57:13Z</time>
      </trkpt>
      <trkpt lat="50.89088" lon="2.77588">
        <ele>16.4</ele>
        <time>2020-06-23T14:57:14Z</time>
      </trkpt>
      <trkpt lat="50.89085" lon="2.77596">
        <ele>16.3</ele>
        <time>2020-06-23T14:57:15Z</time>
      </trkpt>
      <trkpt lat="50.89082" lon="2.77606">
        <ele>16.2</ele>
        <time>2020-06-23T14:57:16Z</time>
      </trkpt>
      <trkpt lat="50.89078" lon="2.77615">
        <ele>16.1</ele>
        <time>2020-06-23T14:57:17Z</time>
      </trkpt>
      <trkpt lat="50.89075" lon="2.77625">
        <ele>16.1</ele>
        <time>2020-06-23T14:57:18Z</time>
      </trkpt>
      <trkpt lat="50.89072" lon="2.77634">
        <ele>16</ele>
        <time>2020-06-23T14:57:19Z</time>
      </trkpt>
      <trkpt lat="50.89068" lon="2.77643">
        <ele>16</ele>
        <time>2020-06-23T14:57:20Z</time>
      </trkpt>
      <trkpt lat="50.89064" lon="2.77652">
        <ele>16</ele>
        <time>2020-06-23T14:57:21Z</time>
      </trkpt>
      <trkpt lat="50.8906" lon="2.7766">
        <ele>16</ele>
        <time>2020-06-23T14:57:22Z</time>
      </trkpt>
      <trkpt lat="50.89055" lon="2.77668">
        <ele>15.9</ele>
        <time>2020-06-23T14:57:23Z</time>
      </trkpt>
      <trkpt lat="50.89051" lon="2.77676">
        <ele>15.9</ele>
        <time>2020-06-23T14:57:24Z</time>
      </trkpt>
      <trkpt lat="50.89046" lon="2.77683">
        <ele>15.8</ele>
        <time>2020-06-23T14:57:25Z</time>
      </trkpt>
      <trkpt lat="50.89041" lon="2.7769">
        <ele>15.7</ele>
        <time>2020-06-23T14:57:26Z</time>
      </trkpt>
      <trkpt lat="50.89036" lon="2.77697">
        <ele>15.6</ele>
        <time>2020-06-23T14:57:27Z</time>
      </trkpt>
      <trkpt lat="50.89031" lon="2.77704">
        <ele>15.5</ele>
        <time>2020-06-23T14:57:28Z</time>
      </trkpt>
      <trkpt lat="50.89027" lon="2.77712">
        <ele>15.4</ele>
        <time>2020-06-23T14:57:29Z</time>
      </trkpt>
      <trkpt lat="50.89022" lon="2.77721">
        <ele>15.3</ele>
        <time>2020-06-23T14:57:30Z</time>
      </trkpt>
      <trkpt lat="50.89018" lon="2.77731">
        <ele>15.2</ele>
        <time>2020-06-23T14:57:31Z</time>
      </trkpt>
      <trkpt lat="50.89015" lon="2.7774">
        <ele>15.2</ele>
        <time>2020-06-23T14:57:32Z</time>
      </trkpt>
      <trkpt lat="50.89011" lon="2.7775">
        <ele>15.2</ele>
        <time>2020-06-23T14:57:33Z</time>
      </trkpt>
      <trkpt lat="50.89009" lon="2.7776">
        <ele>15.1</ele>
        <time>2020-06-23T14:57:34Z</time>
      </trkpt>
      <trkpt lat="50.89006" lon="2.77771">
        <ele>15.1</ele>
        <time>2020-06-23T14:57:35Z</time>
      </trkpt>
      <trkpt lat="50.89005" lon="2.77781">
        <ele>15.1</ele>
        <time>2020-06-23T14:57:36Z</time>
      </trkpt>
      <trkpt lat="50.89003" lon="2.77791">
        <ele>15.1</ele>
        <time>2020-06-23T14:57:37Z</time>
      </trkpt>
      <trkpt lat="50.89001" lon="2.77802">
        <ele>15</ele>
        <time>2020-06-23T14:57:38Z</time>
      </trkpt>
      <trkpt lat="50.88999" lon="2.77812">
        <ele>15</ele>
        <time>2020-06-23T14:57:39Z</time>
      </trkpt>
      <trkpt lat="50.88997" lon="2.77822">
        <ele>14.9</ele>
        <time>2020-06-23T14:57:40Z</time>
      </trkpt>
      <trkpt lat="50.88994" lon="2.77832">
        <ele>14.7</ele>
        <time>2020-06-23T14:57:41Z</time>
      </trkpt>
      <trkpt lat="50.88991" lon="2.77842">
        <ele>14.6</ele>
        <time>2020-06-23T14:57:42Z</time>
      </trkpt>
      <trkpt lat="50.88988" lon="2.77851">
        <ele>14.5</ele>
        <time>2020-06-23T14:57:43Z</time>
      </trkpt>
      <trkpt lat="50.88985" lon="2.77859">
        <ele>14.5</ele>
        <time>2020-06-23T14:57:44Z</time>
      </trkpt>
      <trkpt lat="50.88981" lon="2.77868">
        <ele>14.4</ele>
        <time>2020-06-23T14:57:45Z</time>
      </trkpt>
      <trkpt lat="50.88977" lon="2.77876">
        <ele>14.4</ele>
        <time>2020-06-23T14:57:46Z</time>
      </trkpt>
      <trkpt lat="50.88974" lon="2.77884">
        <ele>14.4</ele>
        <time>2020-06-23T14:57:47Z</time>
      </trkpt>
      <trkpt lat="50.8897" lon="2.77893">
        <ele>14.3</ele>
        <time>2020-06-23T14:57:48Z</time>
      </trkpt>
      <trkpt lat="50.88966" lon="2.77901">
        <ele>14.3</ele>
        <time>2020-06-23T14:57:49Z</time>
      </trkpt>
      <trkpt lat="50.88962" lon="2.77909">
        <ele>14.3</ele>
        <time>2020-06-23T14:57:50Z</time>
      </trkpt>
      <trkpt lat="50.88958" lon="2.77917">
        <ele>14.2</ele>
        <time>2020-06-23T14:57:51Z</time>
      </trkpt>
      <trkpt lat="50.88953" lon="2.77926">
        <ele>14.2</ele>
        <time>2020-06-23T14:57:52Z</time>
      </trkpt>
      <trkpt lat="50.88949" lon="2.77934">
        <ele>14.2</ele>
        <time>2020-06-23T14:57:53Z</time>
      </trkpt>
      <trkpt lat="50.88945" lon="2.77942">
        <ele>14.1</ele>
        <time>2020-06-23T14:57:54Z</time>
      </trkpt>
      <trkpt lat="50.8894" lon="2.77949">
        <ele>14.1</ele>
        <time>2020-06-23T14:57:55Z</time>
      </trkpt>
      <trkpt lat="50.88935" lon="2.77956">
        <ele>14.1</ele>
        <time>2020-06-23T14:57:56Z</time>
      </trkpt>
      <trkpt lat="50.8893" lon="2.77963">
        <ele>14.1</ele>
        <time>2020-06-23T14:57:57Z</time>
      </trkpt>
      <trkpt lat="50.88925" lon="2.7797">
        <ele>14.1</ele>
        <time>2020-06-23T14:57:58Z</time>
      </trkpt>
      <trkpt lat="50.88921" lon="2.77977">
        <ele>14.1</ele>
        <time>2020-06-23T14:57:59Z</time>
      </trkpt>
      <trkpt lat="50.88916" lon="2.77983">
        <ele>14.1</ele>
        <time>2020-06-23T14:58:00Z</time>
      </trkpt>
      <trkpt lat="50.88911" lon="2.7799">
        <ele>14</ele>
        <time>2020-06-23T14:58:01Z</time>
      </trkpt>
      <trkpt lat="50.88905" lon="2.77996">
        <ele>14</ele>
        <time>2020-06-23T14:58:02Z</time>
      </trkpt>
      <trkpt lat="50.88901" lon="2.78003">
        <ele>14</ele>
        <time>2020-06-23T14:58:03Z</time>
      </trkpt>
      <trkpt lat="50.88896" lon="2.7801">
        <ele>14</ele>
        <time>2020-06-23T14:58:04Z</time>
      </trkpt>
      <trkpt lat="50.88891" lon="2.78016">
        <ele>14</ele>
        <time>2020-06-23T14:58:05Z</time>
      </trkpt>
      <trkpt lat="50.88887" lon="2.78022">
        <ele>14</ele>
        <time>2020-06-23T14:58:06Z</time>
      </trkpt>
      <trkpt lat="50.88883" lon="2.78029">
        <ele>13.9</ele>
        <time>2020-06-23T14:58:07Z</time>
      </trkpt>
      <trkpt lat="50.88879" lon="2.78036">
        <ele>13.9</ele>
        <time>2020-06-23T14:58:08Z</time>
      </trkpt>
      <trkpt lat="50.88874" lon="2.78043">
        <ele>13.9</ele>
        <time>2020-06-23T14:58:09Z</time>
      </trkpt>
      <trkpt lat="50.88869" lon="2.7805">
        <ele>13.8</ele>
        <time>2020-06-23T14:58:10Z</time>
      </trkpt>
      <trkpt lat="50.88865" lon="2.78057">
        <ele>13.8</ele>
        <time>2020-06-23T14:58:11Z</time>
      </trkpt>
      <trkpt lat="50.88861" lon="2.78064">
        <ele>13.7</ele>
        <time>2020-06-23T14:58:12Z</time>
      </trkpt>
      <trkpt lat="50.88857" lon="2.78071">
        <ele>13.7</ele>
        <time>2020-06-23T14:58:13Z</time>
      </trkpt>
      <trkpt lat="50.88852" lon="2.78078">
        <ele>13.6</ele>
        <time>2020-06-23T14:58:14Z</time>
      </trkpt>
      <trkpt lat="50.88847" lon="2.78086">
        <ele>13.6</ele>
        <time>2020-06-23T14:58:15Z</time>
      </trkpt>
      <trkpt lat="50.88842" lon="2.78093">
        <ele>13.5</ele>
        <time>2020-06-23T14:58:16Z</time>
      </trkpt>
      <trkpt lat="50.88837" lon="2.78101">
        <ele>13.4</ele>
        <time>2020-06-23T14:58:17Z</time>
      </trkpt>
      <trkpt lat="50.88833" lon="2.78108">
        <ele>13.4</ele>
        <time>2020-06-23T14:58:18Z</time>
      </trkpt>
      <trkpt lat="50.88828" lon="2.78115">
        <ele>13.3</ele>
        <time>2020-06-23T14:58:19Z</time>
      </trkpt>
      <trkpt lat="50.88823" lon="2.78122">
        <ele>13.3</ele>
        <time>2020-06-23T14:58:20Z</time>
      </trkpt>
      <trkpt lat="50.88819" lon="2.78128">
        <ele>13.2</ele>
        <time>2020-06-23T14:58:21Z</time>
      </trkpt>
      <trkpt lat="50.88815" lon="2.78135">
        <ele>13.2</ele>
        <time>2020-06-23T14:58:22Z</time>
      </trkpt>
      <trkpt lat="50.8881" lon="2.78142">
        <ele>13.2</ele>
        <time>2020-06-23T14:58:23Z</time>
      </trkpt>
      <trkpt lat="50.88806" lon="2.78149">
        <ele>13.2</ele>
        <time>2020-06-23T14:58:24Z</time>
      </trkpt>
      <trkpt lat="50.88801" lon="2.78156">
        <ele>13.1</ele>
        <time>2020-06-23T14:58:25Z</time>
      </trkpt>
      <trkpt lat="50.88797" lon="2.78163">
        <ele>13.1</ele>
        <time>2020-06-23T14:58:26Z</time>
      </trkpt>
      <trkpt lat="50.88794" lon="2.78172">
        <ele>13</ele>
        <time>2020-06-23T14:58:27Z</time>
      </trkpt>
      <trkpt lat="50.8879" lon="2.78179">
        <ele>13</ele>
        <time>2020-06-23T14:58:28Z</time>
      </trkpt>
      <trkpt lat="50.88787" lon="2.78187">
        <ele>12.9</ele>
        <time>2020-06-23T14:58:29Z</time>
      </trkpt>
      <trkpt lat="50.88784" lon="2.78198">
        <ele>12.8</ele>
        <time>2020-06-23T14:58:30Z</time>
      </trkpt>
      <trkpt lat="50.88783" lon="2.78209">
        <ele>12.7</ele>
        <time>2020-06-23T14:58:31Z</time>
      </trkpt>
      <trkpt lat="50.88781" lon="2.7822">
        <ele>12.6</ele>
        <time>2020-06-23T14:58:32Z</time>
      </trkpt>
      <trkpt lat="50.88779" lon="2.7823">
        <ele>12.6</ele>
        <time>2020-06-23T14:58:33Z</time>
      </trkpt>
      <trkpt lat="50.88777" lon="2.78238">
        <ele>12.5</ele>
        <time>2020-06-23T14:58:34Z</time>
      </trkpt>
      <trkpt lat="50.88773" lon="2.78247">
        <ele>12.5</ele>
        <time>2020-06-23T14:58:35Z</time>
      </trkpt>
      <trkpt lat="50.8877" lon="2.78254">
        <ele>12.4</ele>
        <time>2020-06-23T14:58:36Z</time>
      </trkpt>
      <trkpt lat="50.88765" lon="2.78261">
        <ele>12.3</ele>
        <time>2020-06-23T14:58:37Z</time>
      </trkpt>
      <trkpt lat="50.8876" lon="2.78268">
        <ele>12.3</ele>
        <time>2020-06-23T14:58:38Z</time>
      </trkpt>
      <trkpt lat="50.88755" lon="2.78274">
        <ele>12.2</ele>
        <time>2020-06-23T14:58:39Z</time>
      </trkpt>
      <trkpt lat="50.8875" lon="2.7828">
        <ele>12.1</ele>
        <time>2020-06-23T14:58:40Z</time>
      </trkpt>
      <trkpt lat="50.88745" lon="2.78287">
        <ele>12.1</ele>
        <time>2020-06-23T14:58:41Z</time>
      </trkpt>
      <trkpt lat="50.8874" lon="2.78294">
        <ele>12.1</ele>
        <time>2020-06-23T14:58:42Z</time>
      </trkpt>
      <trkpt lat="50.88733" lon="2.783">
        <ele>12.1</ele>
        <time>2020-06-23T14:58:43Z</time>
      </trkpt>
      <trkpt lat="50.88728" lon="2.78308">
        <ele>12.1</ele>
        <time>2020-06-23T14:58:44Z</time>
      </trkpt>
      <trkpt lat="50.88723" lon="2.78314">
        <ele>12.1</ele>
        <time>2020-06-23T14:58:45Z</time>
      </trkpt>
      <trkpt lat="50.88718" lon="2.78321">
        <ele>12.1</ele>
        <time>2020-06-23T14:58:46Z</time>
      </trkpt>
      <trkpt lat="50.88712" lon="2.78327">
        <ele>12</ele>
        <time>2020-06-23T14:58:47Z</time>
      </trkpt>
      <trkpt lat="50.88707" lon="2.78335">
        <ele>12</ele>
        <time>2020-06-23T14:58:48Z</time>
      </trkpt>
      <trkpt lat="50.88702" lon="2.78342">
        <ele>11.9</ele>
        <time>2020-06-23T14:58:49Z</time>
      </trkpt>
      <trkpt lat="50.88697" lon="2.78349">
        <ele>11.9</ele>
        <time>2020-06-23T14:58:50Z</time>
      </trkpt>
      <trkpt lat="50.88692" lon="2.78355">
        <ele>11.8</ele>
        <time>2020-06-23T14:58:51Z</time>
      </trkpt>
      <trkpt lat="50.88687" lon="2.78363">
        <ele>11.8</ele>
        <time>2020-06-23T14:58:52Z</time>
      </trkpt>
      <trkpt lat="50.88681" lon="2.7837">
        <ele>11.7</ele>
        <time>2020-06-23T14:58:53Z</time>
      </trkpt>
      <trkpt lat="50.88676" lon="2.78376">
        <ele>11.7</ele>
        <time>2020-06-23T14:58:54Z</time>
      </trkpt>
      <trkpt lat="50.8867" lon="2.78382">
        <ele>11.6</ele>
        <time>2020-06-23T14:58:55Z</time>
      </trkpt>
      <trkpt lat="50.88664" lon="2.78389">
        <ele>11.6</ele>
        <time>2020-06-23T14:58:56Z</time>
      </trkpt>
      <trkpt lat="50.88658" lon="2.78394">
        <ele>11.5</ele>
        <time>2020-06-23T14:58:57Z</time>
      </trkpt>
      <trkpt lat="50.88652" lon="2.78399">
        <ele>11.5</ele>
        <time>2020-06-23T14:58:58Z</time>
      </trkpt>
      <trkpt lat="50.88646" lon="2.78405">
        <ele>11.5</ele>
        <time>2020-06-23T14:58:59Z</time>
      </trkpt>
      <trkpt lat="50.8864" lon="2.7841">
        <ele>11.5</ele>
        <time>2020-06-23T14:59:00Z</time>
      </trkpt>
      <trkpt lat="50.88634" lon="2.78415">
        <ele>11.5</ele>
        <time>2020-06-23T14:59:01Z</time>
      </trkpt>
      <trkpt lat="50.88629" lon="2.78419">
        <ele>11.5</ele>
        <time>2020-06-23T14:59:02Z</time>
      </trkpt>
      <trkpt lat="50.88624" lon="2.78424">
        <ele>11.6</ele>
        <time>2020-06-23T14:59:03Z</time>
      </trkpt>
      <trkpt lat="50.88617" lon="2.78428">
        <ele>11.6</ele>
        <time>2020-06-23T14:59:04Z</time>
      </trkpt>
      <trkpt lat="50.88611" lon="2.78432">
        <ele>11.7</ele>
        <time>2020-06-23T14:59:05Z</time>
      </trkpt>
      <trkpt lat="50.88607" lon="2.78435">
        <ele>11.7</ele>
        <time>2020-06-23T14:59:06Z</time>
      </trkpt>
      <trkpt lat="50.88601" lon="2.7844">
        <ele>11.8</ele>
        <time>2020-06-23T14:59:07Z</time>
      </trkpt>
      <trkpt lat="50.88595" lon="2.78444">
        <ele>11.8</ele>
        <time>2020-06-23T14:59:08Z</time>
      </trkpt>
      <trkpt lat="50.88588" lon="2.78448">
        <ele>11.8</ele>
        <time>2020-06-23T14:59:09Z</time>
      </trkpt>
      <trkpt lat="50.88582" lon="2.78451">
        <ele>11.8</ele>
        <time>2020-06-23T14:59:10Z</time>
      </trkpt>
      <trkpt lat="50.88575" lon="2.78454">
        <ele>11.8</ele>
        <time>2020-06-23T14:59:11Z</time>
      </trkpt>
      <trkpt lat="50.88568" lon="2.78457">
        <ele>11.8</ele>
        <time>2020-06-23T14:59:12Z</time>
      </trkpt>
      <trkpt lat="50.88562" lon="2.7846">
        <ele>11.8</ele>
        <time>2020-06-23T14:59:13Z</time>
      </trkpt>
      <trkpt lat="50.88556" lon="2.78462">
        <ele>11.8</ele>
        <time>2020-06-23T14:59:14Z</time>
      </trkpt>
      <trkpt lat="50.88549" lon="2.78466">
        <ele>11.9</ele>
        <time>2020-06-23T14:59:15Z</time>
      </trkpt>
      <trkpt lat="50.88543" lon="2.78469">
        <ele>11.9</ele>
        <time>2020-06-23T14:59:16Z</time>
      </trkpt>
      <trkpt lat="50.88537" lon="2.78473">
        <ele>12</ele>
        <time>2020-06-23T14:59:17Z</time>
      </trkpt>
      <trkpt lat="50.88531" lon="2.78478">
        <ele>12</ele>
        <time>2020-06-23T14:59:18Z</time>
      </trkpt>
      <trkpt lat="50.88525" lon="2.78482">
        <ele>12.1</ele>
        <time>2020-06-23T14:59:19Z</time>
      </trkpt>
      <trkpt lat="50.88519" lon="2.78486">
        <ele>12.2</ele>
        <time>2020-06-23T14:59:20Z</time>
      </trkpt>
      <trkpt lat="50.88513" lon="2.7849">
        <ele>12.2</ele>
        <time>2020-06-23T14:59:21Z</time>
      </trkpt>
      <trkpt lat="50.88507" lon="2.78495">
        <ele>12.3</ele>
        <time>2020-06-23T14:59:22Z</time>
      </trkpt>
      <trkpt lat="50.88501" lon="2.78501">
        <ele>12.4</ele>
        <time>2020-06-23T14:59:23Z</time>
      </trkpt>
      <trkpt lat="50.88496" lon="2.78506">
        <ele>12.5</ele>
        <time>2020-06-23T14:59:24Z</time>
      </trkpt>
      <trkpt lat="50.88491" lon="2.78511">
        <ele>12.6</ele>
        <time>2020-06-23T14:59:25Z</time>
      </trkpt>
      <trkpt lat="50.88486" lon="2.78514">
        <ele>12.5</ele>
        <time>2020-06-23T14:59:26Z</time>
      </trkpt>
      <trkpt lat="50.88481" lon="2.78518">
        <ele>12.5</ele>
        <time>2020-06-23T14:59:27Z</time>
      </trkpt>
      <trkpt lat="50.88475" lon="2.78523">
        <ele>12.4</ele>
        <time>2020-06-23T14:59:28Z</time>
      </trkpt>
      <trkpt lat="50.8847" lon="2.78528">
        <ele>12.4</ele>
        <time>2020-06-23T14:59:29Z</time>
      </trkpt>
      <trkpt lat="50.88465" lon="2.78532">
        <ele>12.4</ele>
        <time>2020-06-23T14:59:30Z</time>
      </trkpt>
      <trkpt lat="50.8846" lon="2.78538">
        <ele>12.4</ele>
        <time>2020-06-23T14:59:31Z</time>
      </trkpt>
      <trkpt lat="50.88454" lon="2.78544">
        <ele>12.5</ele>
        <time>2020-06-23T14:59:32Z</time>
      </trkpt>
      <trkpt lat="50.88449" lon="2.78549">
        <ele>12.5</ele>
        <time>2020-06-23T14:59:33Z</time>
      </trkpt>
      <trkpt lat="50.88444" lon="2.78554">
        <ele>12.5</ele>
        <time>2020-06-23T14:59:34Z</time>
      </trkpt>
      <trkpt lat="50.88439" lon="2.78559">
        <ele>12.6</ele>
        <time>2020-06-23T14:59:35Z</time>
      </trkpt>
      <trkpt lat="50.88433" lon="2.78564">
        <ele>12.7</ele>
        <time>2020-06-23T14:59:36Z</time>
      </trkpt>
      <trkpt lat="50.88428" lon="2.78569">
        <ele>12.7</ele>
        <time>2020-06-23T14:59:37Z</time>
      </trkpt>
      <trkpt lat="50.88423" lon="2.78574">
        <ele>12.8</ele>
        <time>2020-06-23T14:59:38Z</time>
      </trkpt>
      <trkpt lat="50.88417" lon="2.7858">
        <ele>12.9</ele>
        <time>2020-06-23T14:59:39Z</time>
      </trkpt>
      <trkpt lat="50.88411" lon="2.78585">
        <ele>12.9</ele>
        <time>2020-06-23T14:59:40Z</time>
      </trkpt>
      <trkpt lat="50.88407" lon="2.7859">
        <ele>13</ele>
        <time>2020-06-23T14:59:41Z</time>
      </trkpt>
      <trkpt lat="50.88402" lon="2.78594">
        <ele>13</ele>
        <time>2020-06-23T14:59:42Z</time>
      </trkpt>
      <trkpt lat="50.88398" lon="2.78598">
        <ele>13</ele>
        <time>2020-06-23T14:59:43Z</time>
      </trkpt>
      <trkpt lat="50.88393" lon="2.78603">
        <ele>13</ele>
        <time>2020-06-23T14:59:44Z</time>
      </trkpt>
      <trkpt lat="50.88388" lon="2.78609">
        <ele>13.1</ele>
        <time>2020-06-23T14:59:45Z</time>
      </trkpt>
      <trkpt lat="50.88384" lon="2.78613">
        <ele>13.1</ele>
        <time>2020-06-23T14:59:46Z</time>
      </trkpt>
      <trkpt lat="50.88379" lon="2.78618">
        <ele>13.1</ele>
        <time>2020-06-23T14:59:47Z</time>
      </trkpt>
      <trkpt lat="50.88374" lon="2.78622">
        <ele>13.2</ele>
        <time>2020-06-23T14:59:48Z</time>
      </trkpt>
      <trkpt lat="50.88369" lon="2.78627">
        <ele>13.2</ele>
        <time>2020-06-23T14:59:49Z</time>
      </trkpt>
      <trkpt lat="50.88364" lon="2.78633">
        <ele>13.2</ele>
        <time>2020-06-23T14:59:50Z</time>
      </trkpt>
      <trkpt lat="50.88359" lon="2.78638">
        <ele>13.3</ele>
        <time>2020-06-23T14:59:51Z</time>
      </trkpt>
      <trkpt lat="50.88354" lon="2.78643">
        <ele>13.3</ele>
        <time>2020-06-23T14:59:52Z</time>
      </trkpt>
      <trkpt lat="50.88349" lon="2.78647">
        <ele>13.3</ele>
        <time>2020-06-23T14:59:53Z</time>
      </trkpt>
      <trkpt lat="50.88344" lon="2.78652">
        <ele>13.3</ele>
        <time>2020-06-23T14:59:54Z</time>
      </trkpt>
      <trkpt lat="50.88339" lon="2.78657">
        <ele>13.4</ele>
        <time>2020-06-23T14:59:55Z</time>
      </trkpt>
      <trkpt lat="50.88334" lon="2.78662">
        <ele>13.4</ele>
        <time>2020-06-23T14:59:56Z</time>
      </trkpt>
      <trkpt lat="50.88329" lon="2.78667">
        <ele>13.4</ele>
        <time>2020-06-23T14:59:57Z</time>
      </trkpt>
      <trkpt lat="50.88325" lon="2.78672">
        <ele>13.4</ele>
        <time>2020-06-23T14:59:58Z</time>
      </trkpt>
      <trkpt lat="50.8832" lon="2.78677">
        <ele>13.5</ele>
        <time>2020-06-23T14:59:59Z</time>
      </trkpt>
      <trkpt lat="50.88315" lon="2.78681">
        <ele>13.5</ele>
        <time>2020-06-23T15:00:00Z</time>
      </trkpt>
      <trkpt lat="50.8831" lon="2.78684">
        <ele>13.5</ele>
        <time>2020-06-23T15:00:01Z</time>
      </trkpt>
      <trkpt lat="50.88306" lon="2.78687">
        <ele>13.5</ele>
        <time>2020-06-23T15:00:02Z</time>
      </trkpt>
      <trkpt lat="50.88302" lon="2.78692">
        <ele>13.6</ele>
        <time>2020-06-23T15:00:03Z</time>
      </trkpt>
      <trkpt lat="50.88298" lon="2.78695">
        <ele>13.6</ele>
        <time>2020-06-23T15:00:04Z</time>
      </trkpt>
      <trkpt lat="50.88293" lon="2.78699">
        <ele>13.6</ele>
        <time>2020-06-23T15:00:05Z</time>
      </trkpt>
      <trkpt lat="50.88289" lon="2.78703">
        <ele>13.7</ele>
        <time>2020-06-23T15:00:06Z</time>
      </trkpt>
      <trkpt lat="50.88285" lon="2.78707">
        <ele>13.7</ele>
        <time>2020-06-23T15:00:07Z</time>
      </trkpt>
      <trkpt lat="50.88282" lon="2.78709">
        <ele>13.7</ele>
        <time>2020-06-23T15:00:08Z</time>
      </trkpt>
      <trkpt lat="50.88278" lon="2.78713">
        <ele>13.8</ele>
        <time>2020-06-23T15:00:09Z</time>
      </trkpt>
      <trkpt lat="50.88274" lon="2.78717">
        <ele>13.8</ele>
        <time>2020-06-23T15:00:10Z</time>
      </trkpt>
      <trkpt lat="50.88269" lon="2.78722">
        <ele>13.9</ele>
        <time>2020-06-23T15:00:11Z</time>
      </trkpt>
      <trkpt lat="50.88266" lon="2.78726">
        <ele>14</ele>
        <time>2020-06-23T15:00:12Z</time>
      </trkpt>
      <trkpt lat="50.88262" lon="2.7873">
        <ele>14</ele>
        <time>2020-06-23T15:00:13Z</time>
      </trkpt>
      <trkpt lat="50.88259" lon="2.78733">
        <ele>14</ele>
        <time>2020-06-23T15:00:14Z</time>
      </trkpt>
      <trkpt lat="50.88255" lon="2.78733">
        <ele>14</ele>
        <time>2020-06-23T15:00:15Z</time>
      </trkpt>
      <trkpt lat="50.88251" lon="2.78729">
        <ele>14</ele>
        <time>2020-06-23T15:00:16Z</time>
      </trkpt>
      <trkpt lat="50.88248" lon="2.7872">
        <ele>14</ele>
        <time>2020-06-23T15:00:17Z</time>
      </trkpt>
      <trkpt lat="50.88244" lon="2.78713">
        <ele>13.9</ele>
        <time>2020-06-23T15:00:18Z</time>
      </trkpt>
      <trkpt lat="50.88241" lon="2.78707">
        <ele>13.9</ele>
        <time>2020-06-23T15:00:19Z</time>
      </trkpt>
      <trkpt lat="50.88237" lon="2.787">
        <ele>13.9</ele>
        <time>2020-06-23T15:00:20Z</time>
      </trkpt>
      <trkpt lat="50.88233" lon="2.78693">
        <ele>13.9</ele>
        <time>2020-06-23T15:00:21Z</time>
      </trkpt>
      <trkpt lat="50.8823" lon="2.78686">
        <ele>13.9</ele>
        <time>2020-06-23T15:00:22Z</time>
      </trkpt>
      <trkpt lat="50.88226" lon="2.7868">
        <ele>13.9</ele>
        <time>2020-06-23T15:00:23Z</time>
      </trkpt>
      <trkpt lat="50.88222" lon="2.78674">
        <ele>13.9</ele>
        <time>2020-06-23T15:00:24Z</time>
      </trkpt>
      <trkpt lat="50.88216" lon="2.78667">
        <ele>13.9</ele>
        <time>2020-06-23T15:00:25Z</time>
      </trkpt>
      <trkpt lat="50.88212" lon="2.78662">
        <ele>13.9</ele>
        <time>2020-06-23T15:00:26Z</time>
      </trkpt>
      <trkpt lat="50.8821" lon="2.78658">
        <ele>13.9</ele>
        <time>2020-06-23T15:00:27Z</time>
      </trkpt>
      <trkpt lat="50.88207" lon="2.78652">
        <ele>13.9</ele>
        <time>2020-06-23T15:00:28Z</time>
      </trkpt>
      <trkpt lat="50.88204" lon="2.78645">
        <ele>13.9</ele>
        <time>2020-06-23T15:00:29Z</time>
      </trkpt>
      <trkpt lat="50.88201" lon="2.7864">
        <ele>13.9</ele>
        <time>2020-06-23T15:00:30Z</time>
      </trkpt>
      <trkpt lat="50.88199" lon="2.78637">
        <ele>13.9</ele>
        <time>2020-06-23T15:00:31Z</time>
      </trkpt>
      <trkpt lat="50.88196" lon="2.78636">
        <ele>13.9</ele>
        <time>2020-06-23T15:00:32Z</time>
      </trkpt>
      <trkpt lat="50.88196" lon="2.78636">
        <ele>13.9</ele>
        <time>2020-06-23T15:00:33Z</time>
      </trkpt>
      <trkpt lat="50.88196" lon="2.78637">
        <ele>13.9</ele>
        <time>2020-06-23T15:00:34Z</time>
      </trkpt>
      <trkpt lat="50.88196" lon="2.78638">
        <ele>13.9</ele>
        <time>2020-06-23T15:00:35Z</time>
      </trkpt>
      <trkpt lat="50.88196" lon="2.78639">
        <ele>13.9</ele>
        <time>2020-06-23T15:00:36Z</time>
      </trkpt>
      <trkpt lat="50.88195" lon="2.78639">
        <ele>13.9</ele>
        <time>2020-06-23T15:00:37Z</time>
      </trkpt>
      <trkpt lat="50.88195" lon="2.78639">
        <ele>13.9</ele>
        <time>2020-06-23T15:00:38Z</time>
      </trkpt>
      <trkpt lat="50.88195" lon="2.7864">
        <ele>13.9</ele>
        <time>2020-06-23T15:00:39Z</time>
      </trkpt>
      <trkpt lat="50.88195" lon="2.78642">
        <ele>13.9</ele>
        <time>2020-06-23T15:00:40Z</time>
      </trkpt>
      <trkpt lat="50.88195" lon="2.78642">
        <ele>13.9</ele>
        <time>2020-06-23T15:00:41Z</time>
      </trkpt>
      <trkpt lat="50.88196" lon="2.78644">
        <ele>13.9</ele>
        <time>2020-06-23T15:00:42Z</time>
      </trkpt>
      <trkpt lat="50.88198" lon="2.78648">
        <ele>13.9</ele>
        <time>2020-06-23T15:00:43Z</time>
      </trkpt>
      <trkpt lat="50.88199" lon="2.78649">
        <ele>13.9</ele>
        <time>2020-06-23T15:00:44Z</time>
      </trkpt>
      <trkpt lat="50.88201" lon="2.78653">
        <ele>13.9</ele>
        <time>2020-06-23T15:00:45Z</time>
      </trkpt>
      <trkpt lat="50.88202" lon="2.7866">
        <ele>13.8</ele>
        <time>2020-06-23T15:00:46Z</time>
      </trkpt>
      <trkpt lat="50.88202" lon="2.78666">
        <ele>13.8</ele>
        <time>2020-06-23T15:00:47Z</time>
      </trkpt>
      <trkpt lat="50.88203" lon="2.78673">
        <ele>13.7</ele>
        <time>2020-06-23T15:00:48Z</time>
      </trkpt>
      <trkpt lat="50.88202" lon="2.78678">
        <ele>13.6</ele>
        <time>2020-06-23T15:00:49Z</time>
      </trkpt>
      <trkpt lat="50.88202" lon="2.78683">
        <ele>13.6</ele>
        <time>2020-06-23T15:00:50Z</time>
      </trkpt>
      <trkpt lat="50.882" lon="2.78686">
        <ele>13.5</ele>
        <time>2020-06-23T15:00:51Z</time>
      </trkpt>
      <trkpt lat="50.88198" lon="2.78686">
        <ele>13.5</ele>
        <time>2020-06-23T15:00:52Z</time>
      </trkpt>
      <trkpt lat="50.88193" lon="2.78686">
        <ele>13.4</ele>
        <time>2020-06-23T15:00:53Z</time>
      </trkpt>
      <trkpt lat="50.88188" lon="2.78686">
        <ele>13.4</ele>
        <time>2020-06-23T15:00:54Z</time>
      </trkpt>
      <trkpt lat="50.88185" lon="2.78688">
        <ele>13.3</ele>
        <time>2020-06-23T15:00:55Z</time>
      </trkpt>
      <trkpt lat="50.88181" lon="2.78689">
        <ele>13.2</ele>
        <time>2020-06-23T15:00:56Z</time>
      </trkpt>
      <trkpt lat="50.88176" lon="2.78689">
        <ele>13.2</ele>
        <time>2020-06-23T15:00:57Z</time>
      </trkpt>
      <trkpt lat="50.88169" lon="2.7869">
        <ele>13.1</ele>
        <time>2020-06-23T15:00:58Z</time>
      </trkpt>
      <trkpt lat="50.88163" lon="2.7869">
        <ele>13.1</ele>
        <time>2020-06-23T15:00:59Z</time>
      </trkpt>
      <trkpt lat="50.88158" lon="2.78691">
        <ele>13</ele>
        <time>2020-06-23T15:01:00Z</time>
      </trkpt>
      <trkpt lat="50.88153" lon="2.78692">
        <ele>13</ele>
        <time>2020-06-23T15:01:01Z</time>
      </trkpt>
      <trkpt lat="50.88147" lon="2.78693">
        <ele>13</ele>
        <time>2020-06-23T15:01:02Z</time>
      </trkpt>
      <trkpt lat="50.88144" lon="2.78694">
        <ele>12.9</ele>
        <time>2020-06-23T15:01:03Z</time>
      </trkpt>
      <trkpt lat="50.8814" lon="2.78697">
        <ele>12.9</ele>
        <time>2020-06-23T15:01:04Z</time>
      </trkpt>
      <trkpt lat="50.88136" lon="2.787">
        <ele>12.9</ele>
        <time>2020-06-23T15:01:05Z</time>
      </trkpt>
      <trkpt lat="50.88132" lon="2.78703">
        <ele>12.9</ele>
        <time>2020-06-23T15:01:06Z</time>
      </trkpt>
      <trkpt lat="50.88128" lon="2.78706">
        <ele>12.9</ele>
        <time>2020-06-23T15:01:07Z</time>
      </trkpt>
      <trkpt lat="50.88124" lon="2.78708">
        <ele>12.9</ele>
        <time>2020-06-23T15:01:08Z</time>
      </trkpt>
      <trkpt lat="50.88119" lon="2.7871">
        <ele>12.9</ele>
        <time>2020-06-23T15:01:09Z</time>
      </trkpt>
      <trkpt lat="50.88112" lon="2.78712">
        <ele>12.9</ele>
        <time>2020-06-23T15:01:10Z</time>
      </trkpt>
      <trkpt lat="50.88108" lon="2.78713">
        <ele>12.9</ele>
        <time>2020-06-23T15:01:11Z</time>
      </trkpt>
      <trkpt lat="50.88102" lon="2.78716">
        <ele>12.9</ele>
        <time>2020-06-23T15:01:12Z</time>
      </trkpt>
      <trkpt lat="50.88097" lon="2.7872">
        <ele>12.9</ele>
        <time>2020-06-23T15:01:13Z</time>
      </trkpt>
      <trkpt lat="50.88092" lon="2.78723">
        <ele>12.9</ele>
        <time>2020-06-23T15:01:14Z</time>
      </trkpt>
      <trkpt lat="50.88086" lon="2.78726">
        <ele>12.9</ele>
        <time>2020-06-23T15:01:15Z</time>
      </trkpt>
      <trkpt lat="50.88081" lon="2.78729">
        <ele>12.9</ele>
        <time>2020-06-23T15:01:16Z</time>
      </trkpt>
      <trkpt lat="50.88075" lon="2.78732">
        <ele>12.9</ele>
        <time>2020-06-23T15:01:17Z</time>
      </trkpt>
      <trkpt lat="50.8807" lon="2.78735">
        <ele>12.9</ele>
        <time>2020-06-23T15:01:18Z</time>
      </trkpt>
      <trkpt lat="50.88065" lon="2.78738">
        <ele>12.9</ele>
        <time>2020-06-23T15:01:19Z</time>
      </trkpt>
      <trkpt lat="50.88059" lon="2.78742">
        <ele>13</ele>
        <time>2020-06-23T15:01:20Z</time>
      </trkpt>
      <trkpt lat="50.88053" lon="2.78745">
        <ele>13</ele>
        <time>2020-06-23T15:01:21Z</time>
      </trkpt>
      <trkpt lat="50.88048" lon="2.78749">
        <ele>13.1</ele>
        <time>2020-06-23T15:01:22Z</time>
      </trkpt>
      <trkpt lat="50.88043" lon="2.78753">
        <ele>13.1</ele>
        <time>2020-06-23T15:01:23Z</time>
      </trkpt>
      <trkpt lat="50.88037" lon="2.78756">
        <ele>13.2</ele>
        <time>2020-06-23T15:01:24Z</time>
      </trkpt>
      <trkpt lat="50.88032" lon="2.7876">
        <ele>13.2</ele>
        <time>2020-06-23T15:01:25Z</time>
      </trkpt>
      <trkpt lat="50.88026" lon="2.78763">
        <ele>13.3</ele>
        <time>2020-06-23T15:01:26Z</time>
      </trkpt>
      <trkpt lat="50.88022" lon="2.78765">
        <ele>13.3</ele>
        <time>2020-06-23T15:01:27Z</time>
      </trkpt>
      <trkpt lat="50.88017" lon="2.78768">
        <ele>13.4</ele>
        <time>2020-06-23T15:01:28Z</time>
      </trkpt>
      <trkpt lat="50.88011" lon="2.78772">
        <ele>13.5</ele>
        <time>2020-06-23T15:01:29Z</time>
      </trkpt>
      <trkpt lat="50.88005" lon="2.78775">
        <ele>13.5</ele>
        <time>2020-06-23T15:01:30Z</time>
      </trkpt>
      <trkpt lat="50.88" lon="2.78778">
        <ele>13.6</ele>
        <time>2020-06-23T15:01:31Z</time>
      </trkpt>
      <trkpt lat="50.87996" lon="2.78781">
        <ele>13.6</ele>
        <time>2020-06-23T15:01:32Z</time>
      </trkpt>
      <trkpt lat="50.8799" lon="2.78783">
        <ele>13.6</ele>
        <time>2020-06-23T15:01:33Z</time>
      </trkpt>
      <trkpt lat="50.87984" lon="2.78786">
        <ele>13.6</ele>
        <time>2020-06-23T15:01:34Z</time>
      </trkpt>
      <trkpt lat="50.8798" lon="2.78788">
        <ele>13.6</ele>
        <time>2020-06-23T15:01:35Z</time>
      </trkpt>
      <trkpt lat="50.87975" lon="2.78791">
        <ele>13.6</ele>
        <time>2020-06-23T15:01:36Z</time>
      </trkpt>
      <trkpt lat="50.8797" lon="2.78795">
        <ele>13.7</ele>
        <time>2020-06-23T15:01:37Z</time>
      </trkpt>
      <trkpt lat="50.87965" lon="2.78798">
        <ele>13.8</ele>
        <time>2020-06-23T15:01:38Z</time>
      </trkpt>
      <trkpt lat="50.87961" lon="2.78801">
        <ele>13.8</ele>
        <time>2020-06-23T15:01:39Z</time>
      </trkpt>
      <trkpt lat="50.87958" lon="2.78806">
        <ele>13.9</ele>
        <time>2020-06-23T15:01:40Z</time>
      </trkpt>
      <trkpt lat="50.87952" lon="2.7881">
        <ele>14</ele>
        <time>2020-06-23T15:01:41Z</time>
      </trkpt>
      <trkpt lat="50.87947" lon="2.78814">
        <ele>14.1</ele>
        <time>2020-06-23T15:01:42Z</time>
      </trkpt>
      <trkpt lat="50.87942" lon="2.78818">
        <ele>14.1</ele>
        <time>2020-06-23T15:01:43Z</time>
      </trkpt>
      <trkpt lat="50.87938" lon="2.78823">
        <ele>14.2</ele>
        <time>2020-06-23T15:01:44Z</time>
      </trkpt>
      <trkpt lat="50.87932" lon="2.78827">
        <ele>14.2</ele>
        <time>2020-06-23T15:01:45Z</time>
      </trkpt>
      <trkpt lat="50.87927" lon="2.78831">
        <ele>14.2</ele>
        <time>2020-06-23T15:01:46Z</time>
      </trkpt>
      <trkpt lat="50.87923" lon="2.78834">
        <ele>14.3</ele>
        <time>2020-06-23T15:01:47Z</time>
      </trkpt>
      <trkpt lat="50.87919" lon="2.78837">
        <ele>14.3</ele>
        <time>2020-06-23T15:01:48Z</time>
      </trkpt>
      <trkpt lat="50.87915" lon="2.7884">
        <ele>14.3</ele>
        <time>2020-06-23T15:01:49Z</time>
      </trkpt>
      <trkpt lat="50.8791" lon="2.78843">
        <ele>14.3</ele>
        <time>2020-06-23T15:01:50Z</time>
      </trkpt>
      <trkpt lat="50.87905" lon="2.78847">
        <ele>14.4</ele>
        <time>2020-06-23T15:01:51Z</time>
      </trkpt>
      <trkpt lat="50.87901" lon="2.7885">
        <ele>14.4</ele>
        <time>2020-06-23T15:01:52Z</time>
      </trkpt>
      <trkpt lat="50.87896" lon="2.78854">
        <ele>14.4</ele>
        <time>2020-06-23T15:01:53Z</time>
      </trkpt>
      <trkpt lat="50.87891" lon="2.78858">
        <ele>14.5</ele>
        <time>2020-06-23T15:01:54Z</time>
      </trkpt>
      <trkpt lat="50.87887" lon="2.78862">
        <ele>14.5</ele>
        <time>2020-06-23T15:01:55Z</time>
      </trkpt>
      <trkpt lat="50.87882" lon="2.78865">
        <ele>14.5</ele>
        <time>2020-06-23T15:01:56Z</time>
      </trkpt>
      <trkpt lat="50.87877" lon="2.78867">
        <ele>14.6</ele>
        <time>2020-06-23T15:01:57Z</time>
      </trkpt>
      <trkpt lat="50.87872" lon="2.7887">
        <ele>14.6</ele>
        <time>2020-06-23T15:01:58Z</time>
      </trkpt>
      <trkpt lat="50.87868" lon="2.78873">
        <ele>14.6</ele>
        <time>2020-06-23T15:01:59Z</time>
      </trkpt>
      <trkpt lat="50.87864" lon="2.78875">
        <ele>14.6</ele>
        <time>2020-06-23T15:02:00Z</time>
      </trkpt>
      <trkpt lat="50.87859" lon="2.78877">
        <ele>14.7</ele>
        <time>2020-06-23T15:02:01Z</time>
      </trkpt>
      <trkpt lat="50.87854" lon="2.7888">
        <ele>14.7</ele>
        <time>2020-06-23T15:02:02Z</time>
      </trkpt>
      <trkpt lat="50.8785" lon="2.78883">
        <ele>14.7</ele>
        <time>2020-06-23T15:02:03Z</time>
      </trkpt>
      <trkpt lat="50.87845" lon="2.78886">
        <ele>14.8</ele>
        <time>2020-06-23T15:02:04Z</time>
      </trkpt>
      <trkpt lat="50.8784" lon="2.78888">
        <ele>14.8</ele>
        <time>2020-06-23T15:02:05Z</time>
      </trkpt>
      <trkpt lat="50.87835" lon="2.78891">
        <ele>14.9</ele>
        <time>2020-06-23T15:02:06Z</time>
      </trkpt>
      <trkpt lat="50.8783" lon="2.78894">
        <ele>14.9</ele>
        <time>2020-06-23T15:02:07Z</time>
      </trkpt>
      <trkpt lat="50.87827" lon="2.78898">
        <ele>14.9</ele>
        <time>2020-06-23T15:02:08Z</time>
      </trkpt>
      <trkpt lat="50.87823" lon="2.78901">
        <ele>14.9</ele>
        <time>2020-06-23T15:02:09Z</time>
      </trkpt>
      <trkpt lat="50.87817" lon="2.78904">
        <ele>15</ele>
        <time>2020-06-23T15:02:10Z</time>
      </trkpt>
      <trkpt lat="50.87812" lon="2.78908">
        <ele>15</ele>
        <time>2020-06-23T15:02:11Z</time>
      </trkpt>
      <trkpt lat="50.87807" lon="2.78912">
        <ele>15</ele>
        <time>2020-06-23T15:02:12Z</time>
      </trkpt>
      <trkpt lat="50.87802" lon="2.78917">
        <ele>15.1</ele>
        <time>2020-06-23T15:02:13Z</time>
      </trkpt>
      <trkpt lat="50.87796" lon="2.78919">
        <ele>15.1</ele>
        <time>2020-06-23T15:02:14Z</time>
      </trkpt>
      <trkpt lat="50.87791" lon="2.78923">
        <ele>15.2</ele>
        <time>2020-06-23T15:02:15Z</time>
      </trkpt>
      <trkpt lat="50.87786" lon="2.78926">
        <ele>15.3</ele>
        <time>2020-06-23T15:02:16Z</time>
      </trkpt>
      <trkpt lat="50.8778" lon="2.78929">
        <ele>15.4</ele>
        <time>2020-06-23T15:02:17Z</time>
      </trkpt>
      <trkpt lat="50.87774" lon="2.78932">
        <ele>15.4</ele>
        <time>2020-06-23T15:02:18Z</time>
      </trkpt>
      <trkpt lat="50.87769" lon="2.78935">
        <ele>15.5</ele>
        <time>2020-06-23T15:02:19Z</time>
      </trkpt>
      <trkpt lat="50.87764" lon="2.78939">
        <ele>15.6</ele>
        <time>2020-06-23T15:02:20Z</time>
      </trkpt>
      <trkpt lat="50.8776" lon="2.78943">
        <ele>15.6</ele>
        <time>2020-06-23T15:02:21Z</time>
      </trkpt>
      <trkpt lat="50.87755" lon="2.78946">
        <ele>15.7</ele>
        <time>2020-06-23T15:02:22Z</time>
      </trkpt>
      <trkpt lat="50.87751" lon="2.78949">
        <ele>15.8</ele>
        <time>2020-06-23T15:02:23Z</time>
      </trkpt>
      <trkpt lat="50.87747" lon="2.78952">
        <ele>15.8</ele>
        <time>2020-06-23T15:02:24Z</time>
      </trkpt>
      <trkpt lat="50.87742" lon="2.78955">
        <ele>15.9</ele>
        <time>2020-06-23T15:02:25Z</time>
      </trkpt>
      <trkpt lat="50.87738" lon="2.78958">
        <ele>15.9</ele>
        <time>2020-06-23T15:02:26Z</time>
      </trkpt>
      <trkpt lat="50.87733" lon="2.78962">
        <ele>16</ele>
        <time>2020-06-23T15:02:27Z</time>
      </trkpt>
      <trkpt lat="50.87729" lon="2.78964">
        <ele>16.1</ele>
        <time>2020-06-23T15:02:28Z</time>
      </trkpt>
      <trkpt lat="50.87724" lon="2.78968">
        <ele>16.1</ele>
        <time>2020-06-23T15:02:29Z</time>
      </trkpt>
      <trkpt lat="50.8772" lon="2.78971">
        <ele>16.2</ele>
        <time>2020-06-23T15:02:30Z</time>
      </trkpt>
      <trkpt lat="50.87715" lon="2.78975">
        <ele>16.2</ele>
        <time>2020-06-23T15:02:31Z</time>
      </trkpt>
      <trkpt lat="50.8771" lon="2.78978">
        <ele>16.3</ele>
        <time>2020-06-23T15:02:32Z</time>
      </trkpt>
      <trkpt lat="50.87704" lon="2.78981">
        <ele>16.3</ele>
        <time>2020-06-23T15:02:33Z</time>
      </trkpt>
      <trkpt lat="50.87699" lon="2.78984">
        <ele>16.4</ele>
        <time>2020-06-23T15:02:34Z</time>
      </trkpt>
      <trkpt lat="50.87695" lon="2.78987">
        <ele>16.4</ele>
        <time>2020-06-23T15:02:35Z</time>
      </trkpt>
      <trkpt lat="50.8769" lon="2.7899">
        <ele>16.5</ele>
        <time>2020-06-23T15:02:36Z</time>
      </trkpt>
      <trkpt lat="50.87685" lon="2.78993">
        <ele>16.5</ele>
        <time>2020-06-23T15:02:37Z</time>
      </trkpt>
      <trkpt lat="50.8768" lon="2.78997">
        <ele>16.6</ele>
        <time>2020-06-23T15:02:38Z</time>
      </trkpt>
      <trkpt lat="50.87674" lon="2.79">
        <ele>16.6</ele>
        <time>2020-06-23T15:02:39Z</time>
      </trkpt>
      <trkpt lat="50.87669" lon="2.79003">
        <ele>16.6</ele>
        <time>2020-06-23T15:02:40Z</time>
      </trkpt>
      <trkpt lat="50.87665" lon="2.79006">
        <ele>16.7</ele>
        <time>2020-06-23T15:02:41Z</time>
      </trkpt>
      <trkpt lat="50.8766" lon="2.7901">
        <ele>16.8</ele>
        <time>2020-06-23T15:02:42Z</time>
      </trkpt>
      <trkpt lat="50.87655" lon="2.79014">
        <ele>16.8</ele>
        <time>2020-06-23T15:02:43Z</time>
      </trkpt>
      <trkpt lat="50.87651" lon="2.79017">
        <ele>16.9</ele>
        <time>2020-06-23T15:02:44Z</time>
      </trkpt>
      <trkpt lat="50.87646" lon="2.7902">
        <ele>17.1</ele>
        <time>2020-06-23T15:02:45Z</time>
      </trkpt>
      <trkpt lat="50.87641" lon="2.79024">
        <ele>17.2</ele>
        <time>2020-06-23T15:02:46Z</time>
      </trkpt>
      <trkpt lat="50.87637" lon="2.79028">
        <ele>17.3</ele>
        <time>2020-06-23T15:02:47Z</time>
      </trkpt>
      <trkpt lat="50.87631" lon="2.79031">
        <ele>17.5</ele>
        <time>2020-06-23T15:02:48Z</time>
      </trkpt>
      <trkpt lat="50.87626" lon="2.79036">
        <ele>17.6</ele>
        <time>2020-06-23T15:02:49Z</time>
      </trkpt>
      <trkpt lat="50.87621" lon="2.7904">
        <ele>17.6</ele>
        <time>2020-06-23T15:02:50Z</time>
      </trkpt>
      <trkpt lat="50.87616" lon="2.79044">
        <ele>17.7</ele>
        <time>2020-06-23T15:02:51Z</time>
      </trkpt>
      <trkpt lat="50.87612" lon="2.79047">
        <ele>17.7</ele>
        <time>2020-06-23T15:02:52Z</time>
      </trkpt>
      <trkpt lat="50.87607" lon="2.79052">
        <ele>17.7</ele>
        <time>2020-06-23T15:02:53Z</time>
      </trkpt>
      <trkpt lat="50.87601" lon="2.79056">
        <ele>17.7</ele>
        <time>2020-06-23T15:02:54Z</time>
      </trkpt>
      <trkpt lat="50.87597" lon="2.79061">
        <ele>17.7</ele>
        <time>2020-06-23T15:02:55Z</time>
      </trkpt>
      <trkpt lat="50.87594" lon="2.79068">
        <ele>17.7</ele>
        <time>2020-06-23T15:02:56Z</time>
      </trkpt>
      <trkpt lat="50.8759" lon="2.79076">
        <ele>17.7</ele>
        <time>2020-06-23T15:02:57Z</time>
      </trkpt>
      <trkpt lat="50.87587" lon="2.79083">
        <ele>17.7</ele>
        <time>2020-06-23T15:02:58Z</time>
      </trkpt>
      <trkpt lat="50.87584" lon="2.7909">
        <ele>17.8</ele>
        <time>2020-06-23T15:02:59Z</time>
      </trkpt>
      <trkpt lat="50.87581" lon="2.79098">
        <ele>17.8</ele>
        <time>2020-06-23T15:03:00Z</time>
      </trkpt>
      <trkpt lat="50.87579" lon="2.79105">
        <ele>17.8</ele>
        <time>2020-06-23T15:03:01Z</time>
      </trkpt>
      <trkpt lat="50.87576" lon="2.79114">
        <ele>17.9</ele>
        <time>2020-06-23T15:03:02Z</time>
      </trkpt>
      <trkpt lat="50.87574" lon="2.79123">
        <ele>17.9</ele>
        <time>2020-06-23T15:03:03Z</time>
      </trkpt>
      <trkpt lat="50.87572" lon="2.79131">
        <ele>17.9</ele>
        <time>2020-06-23T15:03:04Z</time>
      </trkpt>
      <trkpt lat="50.8757" lon="2.79139">
        <ele>17.9</ele>
        <time>2020-06-23T15:03:05Z</time>
      </trkpt>
      <trkpt lat="50.87567" lon="2.79147">
        <ele>17.9</ele>
        <time>2020-06-23T15:03:06Z</time>
      </trkpt>
      <trkpt lat="50.87565" lon="2.79153">
        <ele>17.9</ele>
        <time>2020-06-23T15:03:07Z</time>
      </trkpt>
      <trkpt lat="50.87563" lon="2.79159">
        <ele>17.9</ele>
        <time>2020-06-23T15:03:08Z</time>
      </trkpt>
      <trkpt lat="50.8756" lon="2.79163">
        <ele>17.9</ele>
        <time>2020-06-23T15:03:09Z</time>
      </trkpt>
      <trkpt lat="50.87557" lon="2.79169">
        <ele>17.9</ele>
        <time>2020-06-23T15:03:10Z</time>
      </trkpt>
      <trkpt lat="50.87555" lon="2.79176">
        <ele>17.8</ele>
        <time>2020-06-23T15:03:11Z</time>
      </trkpt>
      <trkpt lat="50.87552" lon="2.79182">
        <ele>17.8</ele>
        <time>2020-06-23T15:03:12Z</time>
      </trkpt>
      <trkpt lat="50.87549" lon="2.79189">
        <ele>17.8</ele>
        <time>2020-06-23T15:03:13Z</time>
      </trkpt>
      <trkpt lat="50.87546" lon="2.79196">
        <ele>17.8</ele>
        <time>2020-06-23T15:03:14Z</time>
      </trkpt>
      <trkpt lat="50.87543" lon="2.79202">
        <ele>17.7</ele>
        <time>2020-06-23T15:03:15Z</time>
      </trkpt>
      <trkpt lat="50.8754" lon="2.7921">
        <ele>17.7</ele>
        <time>2020-06-23T15:03:16Z</time>
      </trkpt>
      <trkpt lat="50.87536" lon="2.79218">
        <ele>17.6</ele>
        <time>2020-06-23T15:03:17Z</time>
      </trkpt>
      <trkpt lat="50.87532" lon="2.79227">
        <ele>17.5</ele>
        <time>2020-06-23T15:03:18Z</time>
      </trkpt>
      <trkpt lat="50.87527" lon="2.79234">
        <ele>17.4</ele>
        <time>2020-06-23T15:03:19Z</time>
      </trkpt>
      <trkpt lat="50.87521" lon="2.79241">
        <ele>17.3</ele>
        <time>2020-06-23T15:03:20Z</time>
      </trkpt>
      <trkpt lat="50.87515" lon="2.79248">
        <ele>17.2</ele>
        <time>2020-06-23T15:03:21Z</time>
      </trkpt>
      <trkpt lat="50.87511" lon="2.79255">
        <ele>17.2</ele>
        <time>2020-06-23T15:03:22Z</time>
      </trkpt>
      <trkpt lat="50.87506" lon="2.79262">
        <ele>17.2</ele>
        <time>2020-06-23T15:03:23Z</time>
      </trkpt>
      <trkpt lat="50.87502" lon="2.79269">
        <ele>17.2</ele>
        <time>2020-06-23T15:03:24Z</time>
      </trkpt>
      <trkpt lat="50.87496" lon="2.79276">
        <ele>17.2</ele>
        <time>2020-06-23T15:03:25Z</time>
      </trkpt>
      <trkpt lat="50.8749" lon="2.79281">
        <ele>17.2</ele>
        <time>2020-06-23T15:03:26Z</time>
      </trkpt>
      <trkpt lat="50.87486" lon="2.79287">
        <ele>17.2</ele>
        <time>2020-06-23T15:03:27Z</time>
      </trkpt>
      <trkpt lat="50.87481" lon="2.79293">
        <ele>17.2</ele>
        <time>2020-06-23T15:03:28Z</time>
      </trkpt>
      <trkpt lat="50.87477" lon="2.79298">
        <ele>17.2</ele>
        <time>2020-06-23T15:03:29Z</time>
      </trkpt>
      <trkpt lat="50.87472" lon="2.79304">
        <ele>17.2</ele>
        <time>2020-06-23T15:03:30Z</time>
      </trkpt>
      <trkpt lat="50.87468" lon="2.7931">
        <ele>17.3</ele>
        <time>2020-06-23T15:03:31Z</time>
      </trkpt>
      <trkpt lat="50.87463" lon="2.79315">
        <ele>17.4</ele>
        <time>2020-06-23T15:03:32Z</time>
      </trkpt>
      <trkpt lat="50.87458" lon="2.7932">
        <ele>17.5</ele>
        <time>2020-06-23T15:03:33Z</time>
      </trkpt>
      <trkpt lat="50.87453" lon="2.79324">
        <ele>17.5</ele>
        <time>2020-06-23T15:03:34Z</time>
      </trkpt>
      <trkpt lat="50.87449" lon="2.79329">
        <ele>17.5</ele>
        <time>2020-06-23T15:03:35Z</time>
      </trkpt>
      <trkpt lat="50.87446" lon="2.79337">
        <ele>17.5</ele>
        <time>2020-06-23T15:03:36Z</time>
      </trkpt>
      <trkpt lat="50.87442" lon="2.79341">
        <ele>17.5</ele>
        <time>2020-06-23T15:03:37Z</time>
      </trkpt>
      <trkpt lat="50.87438" lon="2.79347">
        <ele>17.5</ele>
        <time>2020-06-23T15:03:38Z</time>
      </trkpt>
      <trkpt lat="50.87435" lon="2.79354">
        <ele>17.5</ele>
        <time>2020-06-23T15:03:39Z</time>
      </trkpt>
      <trkpt lat="50.87431" lon="2.7936">
        <ele>17.5</ele>
        <time>2020-06-23T15:03:40Z</time>
      </trkpt>
      <trkpt lat="50.87425" lon="2.79367">
        <ele>17.5</ele>
        <time>2020-06-23T15:03:41Z</time>
      </trkpt>
      <trkpt lat="50.8742" lon="2.79373">
        <ele>17.6</ele>
        <time>2020-06-23T15:03:42Z</time>
      </trkpt>
      <trkpt lat="50.87416" lon="2.79379">
        <ele>17.6</ele>
        <time>2020-06-23T15:03:43Z</time>
      </trkpt>
      <trkpt lat="50.87412" lon="2.79386">
        <ele>17.6</ele>
        <time>2020-06-23T15:03:44Z</time>
      </trkpt>
      <trkpt lat="50.87407" lon="2.79393">
        <ele>17.7</ele>
        <time>2020-06-23T15:03:45Z</time>
      </trkpt>
      <trkpt lat="50.87404" lon="2.794">
        <ele>17.7</ele>
        <time>2020-06-23T15:03:46Z</time>
      </trkpt>
      <trkpt lat="50.874" lon="2.79405">
        <ele>17.7</ele>
        <time>2020-06-23T15:03:47Z</time>
      </trkpt>
      <trkpt lat="50.87397" lon="2.79411">
        <ele>17.8</ele>
        <time>2020-06-23T15:03:48Z</time>
      </trkpt>
      <trkpt lat="50.87393" lon="2.79416">
        <ele>17.8</ele>
        <time>2020-06-23T15:03:49Z</time>
      </trkpt>
      <trkpt lat="50.87389" lon="2.79421">
        <ele>17.9</ele>
        <time>2020-06-23T15:03:50Z</time>
      </trkpt>
      <trkpt lat="50.87386" lon="2.79426">
        <ele>17.9</ele>
        <time>2020-06-23T15:03:51Z</time>
      </trkpt>
      <trkpt lat="50.87382" lon="2.79432">
        <ele>17.8</ele>
        <time>2020-06-23T15:03:52Z</time>
      </trkpt>
      <trkpt lat="50.87378" lon="2.7944">
        <ele>17.8</ele>
        <time>2020-06-23T15:03:53Z</time>
      </trkpt>
      <trkpt lat="50.87375" lon="2.79446">
        <ele>17.7</ele>
        <time>2020-06-23T15:03:54Z</time>
      </trkpt>
      <trkpt lat="50.87371" lon="2.79454">
        <ele>17.7</ele>
        <time>2020-06-23T15:03:55Z</time>
      </trkpt>
      <trkpt lat="50.87367" lon="2.79462">
        <ele>17.6</ele>
        <time>2020-06-23T15:03:56Z</time>
      </trkpt>
      <trkpt lat="50.87363" lon="2.79471">
        <ele>17.5</ele>
        <time>2020-06-23T15:03:57Z</time>
      </trkpt>
      <trkpt lat="50.87358" lon="2.79478">
        <ele>17.4</ele>
        <time>2020-06-23T15:03:58Z</time>
      </trkpt>
      <trkpt lat="50.87354" lon="2.79486">
        <ele>17.3</ele>
        <time>2020-06-23T15:03:59Z</time>
      </trkpt>
      <trkpt lat="50.87349" lon="2.79494">
        <ele>17.3</ele>
        <time>2020-06-23T15:04:00Z</time>
      </trkpt>
      <trkpt lat="50.87345" lon="2.79501">
        <ele>17.2</ele>
        <time>2020-06-23T15:04:01Z</time>
      </trkpt>
      <trkpt lat="50.87341" lon="2.79509">
        <ele>17.2</ele>
        <time>2020-06-23T15:04:02Z</time>
      </trkpt>
      <trkpt lat="50.87337" lon="2.79516">
        <ele>17.1</ele>
        <time>2020-06-23T15:04:03Z</time>
      </trkpt>
      <trkpt lat="50.87334" lon="2.79524">
        <ele>17.1</ele>
        <time>2020-06-23T15:04:04Z</time>
      </trkpt>
      <trkpt lat="50.87329" lon="2.79532">
        <ele>17</ele>
        <time>2020-06-23T15:04:05Z</time>
      </trkpt>
      <trkpt lat="50.87326" lon="2.79539">
        <ele>16.9</ele>
        <time>2020-06-23T15:04:06Z</time>
      </trkpt>
      <trkpt lat="50.87322" lon="2.79547">
        <ele>16.8</ele>
        <time>2020-06-23T15:04:07Z</time>
      </trkpt>
      <trkpt lat="50.87317" lon="2.79554">
        <ele>16.7</ele>
        <time>2020-06-23T15:04:08Z</time>
      </trkpt>
      <trkpt lat="50.87313" lon="2.79563">
        <ele>16.6</ele>
        <time>2020-06-23T15:04:09Z</time>
      </trkpt>
      <trkpt lat="50.87308" lon="2.79571">
        <ele>16.5</ele>
        <time>2020-06-23T15:04:10Z</time>
      </trkpt>
      <trkpt lat="50.87305" lon="2.79581">
        <ele>16.4</ele>
        <time>2020-06-23T15:04:11Z</time>
      </trkpt>
      <trkpt lat="50.87301" lon="2.79589">
        <ele>16.3</ele>
        <time>2020-06-23T15:04:12Z</time>
      </trkpt>
      <trkpt lat="50.87297" lon="2.79597">
        <ele>16.2</ele>
        <time>2020-06-23T15:04:13Z</time>
      </trkpt>
      <trkpt lat="50.87293" lon="2.79603">
        <ele>16.2</ele>
        <time>2020-06-23T15:04:14Z</time>
      </trkpt>
      <trkpt lat="50.8729" lon="2.79612">
        <ele>16.1</ele>
        <time>2020-06-23T15:04:15Z</time>
      </trkpt>
      <trkpt lat="50.87286" lon="2.79621">
        <ele>16</ele>
        <time>2020-06-23T15:04:16Z</time>
      </trkpt>
      <trkpt lat="50.87283" lon="2.79629">
        <ele>15.9</ele>
        <time>2020-06-23T15:04:17Z</time>
      </trkpt>
      <trkpt lat="50.87279" lon="2.79638">
        <ele>15.8</ele>
        <time>2020-06-23T15:04:18Z</time>
      </trkpt>
      <trkpt lat="50.87276" lon="2.79647">
        <ele>15.7</ele>
        <time>2020-06-23T15:04:19Z</time>
      </trkpt>
      <trkpt lat="50.87272" lon="2.79656">
        <ele>15.6</ele>
        <time>2020-06-23T15:04:20Z</time>
      </trkpt>
      <trkpt lat="50.87269" lon="2.79665">
        <ele>15.5</ele>
        <time>2020-06-23T15:04:21Z</time>
      </trkpt>
      <trkpt lat="50.87265" lon="2.79673">
        <ele>15.3</ele>
        <time>2020-06-23T15:04:22Z</time>
      </trkpt>
      <trkpt lat="50.87261" lon="2.79682">
        <ele>15.2</ele>
        <time>2020-06-23T15:04:23Z</time>
      </trkpt>
      <trkpt lat="50.87257" lon="2.79691">
        <ele>15</ele>
        <time>2020-06-23T15:04:24Z</time>
      </trkpt>
      <trkpt lat="50.87253" lon="2.79699">
        <ele>14.9</ele>
        <time>2020-06-23T15:04:25Z</time>
      </trkpt>
      <trkpt lat="50.87249" lon="2.79706">
        <ele>14.8</ele>
        <time>2020-06-23T15:04:26Z</time>
      </trkpt>
      <trkpt lat="50.87245" lon="2.79715">
        <ele>14.7</ele>
        <time>2020-06-23T15:04:27Z</time>
      </trkpt>
      <trkpt lat="50.87241" lon="2.79725">
        <ele>14.6</ele>
        <time>2020-06-23T15:04:28Z</time>
      </trkpt>
      <trkpt lat="50.87237" lon="2.79735">
        <ele>14.5</ele>
        <time>2020-06-23T15:04:29Z</time>
      </trkpt>
      <trkpt lat="50.87232" lon="2.79745">
        <ele>14.5</ele>
        <time>2020-06-23T15:04:30Z</time>
      </trkpt>
      <trkpt lat="50.87228" lon="2.79754">
        <ele>14.4</ele>
        <time>2020-06-23T15:04:31Z</time>
      </trkpt>
      <trkpt lat="50.87224" lon="2.79764">
        <ele>14.4</ele>
        <time>2020-06-23T15:04:32Z</time>
      </trkpt>
      <trkpt lat="50.8722" lon="2.79774">
        <ele>14.3</ele>
        <time>2020-06-23T15:04:33Z</time>
      </trkpt>
      <trkpt lat="50.87215" lon="2.79784">
        <ele>14.2</ele>
        <time>2020-06-23T15:04:34Z</time>
      </trkpt>
      <trkpt lat="50.87212" lon="2.79795">
        <ele>14.1</ele>
        <time>2020-06-23T15:04:35Z</time>
      </trkpt>
      <trkpt lat="50.87207" lon="2.79805">
        <ele>14.1</ele>
        <time>2020-06-23T15:04:36Z</time>
      </trkpt>
      <trkpt lat="50.87203" lon="2.79815">
        <ele>14.1</ele>
        <time>2020-06-23T15:04:37Z</time>
      </trkpt>
      <trkpt lat="50.872" lon="2.79826">
        <ele>14.1</ele>
        <time>2020-06-23T15:04:38Z</time>
      </trkpt>
      <trkpt lat="50.87196" lon="2.79836">
        <ele>14.2</ele>
        <time>2020-06-23T15:04:39Z</time>
      </trkpt>
      <trkpt lat="50.87194" lon="2.79847">
        <ele>14.2</ele>
        <time>2020-06-23T15:04:40Z</time>
      </trkpt>
      <trkpt lat="50.87191" lon="2.79857">
        <ele>14.3</ele>
        <time>2020-06-23T15:04:41Z</time>
      </trkpt>
      <trkpt lat="50.87188" lon="2.79867">
        <ele>14.3</ele>
        <time>2020-06-23T15:04:42Z</time>
      </trkpt>
      <trkpt lat="50.87186" lon="2.79877">
        <ele>14.3</ele>
        <time>2020-06-23T15:04:43Z</time>
      </trkpt>
      <trkpt lat="50.87183" lon="2.79887">
        <ele>14.4</ele>
        <time>2020-06-23T15:04:44Z</time>
      </trkpt>
      <trkpt lat="50.8718" lon="2.79896">
        <ele>14.5</ele>
        <time>2020-06-23T15:04:45Z</time>
      </trkpt>
      <trkpt lat="50.87177" lon="2.79905">
        <ele>14.5</ele>
        <time>2020-06-23T15:04:46Z</time>
      </trkpt>
      <trkpt lat="50.87175" lon="2.79914">
        <ele>14.6</ele>
        <time>2020-06-23T15:04:47Z</time>
      </trkpt>
      <trkpt lat="50.87172" lon="2.79923">
        <ele>14.8</ele>
        <time>2020-06-23T15:04:48Z</time>
      </trkpt>
      <trkpt lat="50.87169" lon="2.79933">
        <ele>14.9</ele>
        <time>2020-06-23T15:04:49Z</time>
      </trkpt>
      <trkpt lat="50.87166" lon="2.79942">
        <ele>15</ele>
        <time>2020-06-23T15:04:50Z</time>
      </trkpt>
      <trkpt lat="50.87163" lon="2.7995">
        <ele>15.2</ele>
        <time>2020-06-23T15:04:51Z</time>
      </trkpt>
      <trkpt lat="50.87161" lon="2.79959">
        <ele>15.4</ele>
        <time>2020-06-23T15:04:52Z</time>
      </trkpt>
      <trkpt lat="50.87158" lon="2.79968">
        <ele>15.6</ele>
        <time>2020-06-23T15:04:53Z</time>
      </trkpt>
      <trkpt lat="50.87155" lon="2.79977">
        <ele>15.6</ele>
        <time>2020-06-23T15:04:54Z</time>
      </trkpt>
      <trkpt lat="50.87152" lon="2.79985">
        <ele>15.6</ele>
        <time>2020-06-23T15:04:55Z</time>
      </trkpt>
      <trkpt lat="50.87149" lon="2.79993">
        <ele>15.5</ele>
        <time>2020-06-23T15:04:56Z</time>
      </trkpt>
      <trkpt lat="50.87146" lon="2.80001">
        <ele>15.5</ele>
        <time>2020-06-23T15:04:57Z</time>
      </trkpt>
      <trkpt lat="50.87141" lon="2.80008">
        <ele>15.5</ele>
        <time>2020-06-23T15:04:58Z</time>
      </trkpt>
      <trkpt lat="50.87138" lon="2.80017">
        <ele>15.5</ele>
        <time>2020-06-23T15:04:59Z</time>
      </trkpt>
      <trkpt lat="50.87133" lon="2.80024">
        <ele>15.5</ele>
        <time>2020-06-23T15:05:00Z</time>
      </trkpt>
      <trkpt lat="50.87129" lon="2.80032">
        <ele>15.5</ele>
        <time>2020-06-23T15:05:01Z</time>
      </trkpt>
      <trkpt lat="50.87124" lon="2.8004">
        <ele>15.4</ele>
        <time>2020-06-23T15:05:02Z</time>
      </trkpt>
      <trkpt lat="50.87119" lon="2.80048">
        <ele>15.4</ele>
        <time>2020-06-23T15:05:03Z</time>
      </trkpt>
      <trkpt lat="50.87114" lon="2.80054">
        <ele>15.4</ele>
        <time>2020-06-23T15:05:04Z</time>
      </trkpt>
      <trkpt lat="50.87109" lon="2.80062">
        <ele>15.4</ele>
        <time>2020-06-23T15:05:05Z</time>
      </trkpt>
      <trkpt lat="50.87105" lon="2.80068">
        <ele>15.4</ele>
        <time>2020-06-23T15:05:06Z</time>
      </trkpt>
      <trkpt lat="50.871" lon="2.80075">
        <ele>15.4</ele>
        <time>2020-06-23T15:05:07Z</time>
      </trkpt>
      <trkpt lat="50.87095" lon="2.80082">
        <ele>15.4</ele>
        <time>2020-06-23T15:05:08Z</time>
      </trkpt>
      <trkpt lat="50.8709" lon="2.8009">
        <ele>15.4</ele>
        <time>2020-06-23T15:05:09Z</time>
      </trkpt>
      <trkpt lat="50.87086" lon="2.80097">
        <ele>15.4</ele>
        <time>2020-06-23T15:05:10Z</time>
      </trkpt>
      <trkpt lat="50.87081" lon="2.80103">
        <ele>15.5</ele>
        <time>2020-06-23T15:05:11Z</time>
      </trkpt>
      <trkpt lat="50.87076" lon="2.8011">
        <ele>15.4</ele>
        <time>2020-06-23T15:05:12Z</time>
      </trkpt>
      <trkpt lat="50.87071" lon="2.80117">
        <ele>15.4</ele>
        <time>2020-06-23T15:05:13Z</time>
      </trkpt>
      <trkpt lat="50.87065" lon="2.80123">
        <ele>15.4</ele>
        <time>2020-06-23T15:05:14Z</time>
      </trkpt>
      <trkpt lat="50.8706" lon="2.80129">
        <ele>15.3</ele>
        <time>2020-06-23T15:05:15Z</time>
      </trkpt>
      <trkpt lat="50.87057" lon="2.80135">
        <ele>15.3</ele>
        <time>2020-06-23T15:05:16Z</time>
      </trkpt>
      <trkpt lat="50.87052" lon="2.80143">
        <ele>15.2</ele>
        <time>2020-06-23T15:05:17Z</time>
      </trkpt>
      <trkpt lat="50.87047" lon="2.8015">
        <ele>15.2</ele>
        <time>2020-06-23T15:05:18Z</time>
      </trkpt>
      <trkpt lat="50.87043" lon="2.80157">
        <ele>15.1</ele>
        <time>2020-06-23T15:05:19Z</time>
      </trkpt>
      <trkpt lat="50.87039" lon="2.80163">
        <ele>15</ele>
        <time>2020-06-23T15:05:20Z</time>
      </trkpt>
      <trkpt lat="50.87035" lon="2.8017">
        <ele>15</ele>
        <time>2020-06-23T15:05:21Z</time>
      </trkpt>
      <trkpt lat="50.87031" lon="2.80176">
        <ele>14.9</ele>
        <time>2020-06-23T15:05:22Z</time>
      </trkpt>
      <trkpt lat="50.87028" lon="2.80183">
        <ele>14.9</ele>
        <time>2020-06-23T15:05:23Z</time>
      </trkpt>
      <trkpt lat="50.87024" lon="2.8019">
        <ele>14.8</ele>
        <time>2020-06-23T15:05:24Z</time>
      </trkpt>
      <trkpt lat="50.8702" lon="2.80197">
        <ele>14.8</ele>
        <time>2020-06-23T15:05:25Z</time>
      </trkpt>
      <trkpt lat="50.87017" lon="2.80205">
        <ele>14.7</ele>
        <time>2020-06-23T15:05:26Z</time>
      </trkpt>
      <trkpt lat="50.87013" lon="2.80214">
        <ele>14.6</ele>
        <time>2020-06-23T15:05:27Z</time>
      </trkpt>
      <trkpt lat="50.8701" lon="2.80222">
        <ele>14.5</ele>
        <time>2020-06-23T15:05:28Z</time>
      </trkpt>
      <trkpt lat="50.87006" lon="2.80229">
        <ele>14.5</ele>
        <time>2020-06-23T15:05:29Z</time>
      </trkpt>
      <trkpt lat="50.87001" lon="2.80236">
        <ele>14.4</ele>
        <time>2020-06-23T15:05:30Z</time>
      </trkpt>
      <trkpt lat="50.86997" lon="2.80243">
        <ele>14.3</ele>
        <time>2020-06-23T15:05:31Z</time>
      </trkpt>
      <trkpt lat="50.86993" lon="2.8025">
        <ele>14.2</ele>
        <time>2020-06-23T15:05:32Z</time>
      </trkpt>
      <trkpt lat="50.86989" lon="2.80258">
        <ele>14.1</ele>
        <time>2020-06-23T15:05:33Z</time>
      </trkpt>
      <trkpt lat="50.86985" lon="2.80266">
        <ele>14</ele>
        <time>2020-06-23T15:05:34Z</time>
      </trkpt>
      <trkpt lat="50.86982" lon="2.80275">
        <ele>13.9</ele>
        <time>2020-06-23T15:05:35Z</time>
      </trkpt>
      <trkpt lat="50.86978" lon="2.80285">
        <ele>13.8</ele>
        <time>2020-06-23T15:05:36Z</time>
      </trkpt>
      <trkpt lat="50.86974" lon="2.80294">
        <ele>13.6</ele>
        <time>2020-06-23T15:05:37Z</time>
      </trkpt>
      <trkpt lat="50.8697" lon="2.80303">
        <ele>13.5</ele>
        <time>2020-06-23T15:05:38Z</time>
      </trkpt>
      <trkpt lat="50.86967" lon="2.80311">
        <ele>13.3</ele>
        <time>2020-06-23T15:05:39Z</time>
      </trkpt>
      <trkpt lat="50.86964" lon="2.80321">
        <ele>13.2</ele>
        <time>2020-06-23T15:05:40Z</time>
      </trkpt>
      <trkpt lat="50.86961" lon="2.8033">
        <ele>13.1</ele>
        <time>2020-06-23T15:05:41Z</time>
      </trkpt>
      <trkpt lat="50.86958" lon="2.80339">
        <ele>13.1</ele>
        <time>2020-06-23T15:05:42Z</time>
      </trkpt>
      <trkpt lat="50.86956" lon="2.80349">
        <ele>13</ele>
        <time>2020-06-23T15:05:43Z</time>
      </trkpt>
      <trkpt lat="50.86954" lon="2.80359">
        <ele>13</ele>
        <time>2020-06-23T15:05:44Z</time>
      </trkpt>
      <trkpt lat="50.86951" lon="2.80369">
        <ele>12.9</ele>
        <time>2020-06-23T15:05:45Z</time>
      </trkpt>
      <trkpt lat="50.8695" lon="2.80379">
        <ele>12.9</ele>
        <time>2020-06-23T15:05:46Z</time>
      </trkpt>
      <trkpt lat="50.86947" lon="2.80389">
        <ele>12.9</ele>
        <time>2020-06-23T15:05:47Z</time>
      </trkpt>
      <trkpt lat="50.86945" lon="2.80398">
        <ele>12.8</ele>
        <time>2020-06-23T15:05:48Z</time>
      </trkpt>
      <trkpt lat="50.86943" lon="2.80407">
        <ele>12.8</ele>
        <time>2020-06-23T15:05:49Z</time>
      </trkpt>
      <trkpt lat="50.86939" lon="2.80416">
        <ele>12.8</ele>
        <time>2020-06-23T15:05:50Z</time>
      </trkpt>
      <trkpt lat="50.86936" lon="2.80425">
        <ele>12.8</ele>
        <time>2020-06-23T15:05:51Z</time>
      </trkpt>
      <trkpt lat="50.86932" lon="2.80433">
        <ele>12.7</ele>
        <time>2020-06-23T15:05:52Z</time>
      </trkpt>
      <trkpt lat="50.86928" lon="2.80441">
        <ele>12.7</ele>
        <time>2020-06-23T15:05:53Z</time>
      </trkpt>
      <trkpt lat="50.86923" lon="2.80449">
        <ele>12.6</ele>
        <time>2020-06-23T15:05:54Z</time>
      </trkpt>
      <trkpt lat="50.86918" lon="2.80456">
        <ele>12.6</ele>
        <time>2020-06-23T15:05:55Z</time>
      </trkpt>
      <trkpt lat="50.86914" lon="2.80464">
        <ele>12.5</ele>
        <time>2020-06-23T15:05:56Z</time>
      </trkpt>
      <trkpt lat="50.86909" lon="2.80471">
        <ele>12.4</ele>
        <time>2020-06-23T15:05:57Z</time>
      </trkpt>
      <trkpt lat="50.86904" lon="2.80479">
        <ele>12.4</ele>
        <time>2020-06-23T15:05:58Z</time>
      </trkpt>
      <trkpt lat="50.86898" lon="2.80486">
        <ele>12.4</ele>
        <time>2020-06-23T15:05:59Z</time>
      </trkpt>
      <trkpt lat="50.86894" lon="2.80493">
        <ele>12.4</ele>
        <time>2020-06-23T15:06:00Z</time>
      </trkpt>
      <trkpt lat="50.86889" lon="2.805">
        <ele>12.4</ele>
        <time>2020-06-23T15:06:01Z</time>
      </trkpt>
      <trkpt lat="50.86883" lon="2.80506">
        <ele>12.4</ele>
        <time>2020-06-23T15:06:02Z</time>
      </trkpt>
      <trkpt lat="50.86878" lon="2.80514">
        <ele>12.5</ele>
        <time>2020-06-23T15:06:03Z</time>
      </trkpt>
      <trkpt lat="50.86873" lon="2.80521">
        <ele>12.5</ele>
        <time>2020-06-23T15:06:04Z</time>
      </trkpt>
      <trkpt lat="50.86868" lon="2.80528">
        <ele>12.6</ele>
        <time>2020-06-23T15:06:05Z</time>
      </trkpt>
      <trkpt lat="50.86863" lon="2.80535">
        <ele>12.7</ele>
        <time>2020-06-23T15:06:06Z</time>
      </trkpt>
      <trkpt lat="50.86858" lon="2.80542">
        <ele>12.9</ele>
        <time>2020-06-23T15:06:07Z</time>
      </trkpt>
      <trkpt lat="50.86853" lon="2.8055">
        <ele>13</ele>
        <time>2020-06-23T15:06:08Z</time>
      </trkpt>
      <trkpt lat="50.86848" lon="2.80557">
        <ele>13</ele>
        <time>2020-06-23T15:06:09Z</time>
      </trkpt>
      <trkpt lat="50.86844" lon="2.80565">
        <ele>13.1</ele>
        <time>2020-06-23T15:06:10Z</time>
      </trkpt>
      <trkpt lat="50.86839" lon="2.80572">
        <ele>13.1</ele>
        <time>2020-06-23T15:06:11Z</time>
      </trkpt>
      <trkpt lat="50.86835" lon="2.80578">
        <ele>13.1</ele>
        <time>2020-06-23T15:06:12Z</time>
      </trkpt>
      <trkpt lat="50.8683" lon="2.80585">
        <ele>13.1</ele>
        <time>2020-06-23T15:06:13Z</time>
      </trkpt>
      <trkpt lat="50.86826" lon="2.80592">
        <ele>13.1</ele>
        <time>2020-06-23T15:06:14Z</time>
      </trkpt>
      <trkpt lat="50.86821" lon="2.80599">
        <ele>13</ele>
        <time>2020-06-23T15:06:15Z</time>
      </trkpt>
      <trkpt lat="50.86817" lon="2.80607">
        <ele>13</ele>
        <time>2020-06-23T15:06:16Z</time>
      </trkpt>
      <trkpt lat="50.86814" lon="2.80614">
        <ele>13</ele>
        <time>2020-06-23T15:06:17Z</time>
      </trkpt>
      <trkpt lat="50.8681" lon="2.80622">
        <ele>12.9</ele>
        <time>2020-06-23T15:06:18Z</time>
      </trkpt>
      <trkpt lat="50.86806" lon="2.8063">
        <ele>12.9</ele>
        <time>2020-06-23T15:06:19Z</time>
      </trkpt>
      <trkpt lat="50.86803" lon="2.80638">
        <ele>12.9</ele>
        <time>2020-06-23T15:06:20Z</time>
      </trkpt>
      <trkpt lat="50.868" lon="2.80646">
        <ele>12.8</ele>
        <time>2020-06-23T15:06:21Z</time>
      </trkpt>
      <trkpt lat="50.86796" lon="2.80654">
        <ele>12.8</ele>
        <time>2020-06-23T15:06:22Z</time>
      </trkpt>
      <trkpt lat="50.86792" lon="2.80662">
        <ele>12.8</ele>
        <time>2020-06-23T15:06:23Z</time>
      </trkpt>
      <trkpt lat="50.86789" lon="2.8067">
        <ele>12.7</ele>
        <time>2020-06-23T15:06:24Z</time>
      </trkpt>
      <trkpt lat="50.86785" lon="2.80677">
        <ele>12.7</ele>
        <time>2020-06-23T15:06:25Z</time>
      </trkpt>
      <trkpt lat="50.86782" lon="2.80685">
        <ele>12.8</ele>
        <time>2020-06-23T15:06:26Z</time>
      </trkpt>
      <trkpt lat="50.86778" lon="2.80693">
        <ele>12.8</ele>
        <time>2020-06-23T15:06:27Z</time>
      </trkpt>
      <trkpt lat="50.86775" lon="2.80701">
        <ele>12.8</ele>
        <time>2020-06-23T15:06:28Z</time>
      </trkpt>
      <trkpt lat="50.86772" lon="2.8071">
        <ele>12.8</ele>
        <time>2020-06-23T15:06:29Z</time>
      </trkpt>
      <trkpt lat="50.86769" lon="2.8072">
        <ele>12.9</ele>
        <time>2020-06-23T15:06:30Z</time>
      </trkpt>
      <trkpt lat="50.86765" lon="2.8073">
        <ele>13</ele>
        <time>2020-06-23T15:06:31Z</time>
      </trkpt>
      <trkpt lat="50.86763" lon="2.80739">
        <ele>13.1</ele>
        <time>2020-06-23T15:06:32Z</time>
      </trkpt>
      <trkpt lat="50.8676" lon="2.80747">
        <ele>13.2</ele>
        <time>2020-06-23T15:06:33Z</time>
      </trkpt>
      <trkpt lat="50.86758" lon="2.80755">
        <ele>13.3</ele>
        <time>2020-06-23T15:06:34Z</time>
      </trkpt>
      <trkpt lat="50.86756" lon="2.80764">
        <ele>13.5</ele>
        <time>2020-06-23T15:06:35Z</time>
      </trkpt>
      <trkpt lat="50.86753" lon="2.80771">
        <ele>13.5</ele>
        <time>2020-06-23T15:06:36Z</time>
      </trkpt>
      <trkpt lat="50.86751" lon="2.8078">
        <ele>13.6</ele>
        <time>2020-06-23T15:06:37Z</time>
      </trkpt>
      <trkpt lat="50.86747" lon="2.80789">
        <ele>13.7</ele>
        <time>2020-06-23T15:06:38Z</time>
      </trkpt>
      <trkpt lat="50.86744" lon="2.80798">
        <ele>13.7</ele>
        <time>2020-06-23T15:06:39Z</time>
      </trkpt>
      <trkpt lat="50.86741" lon="2.80808">
        <ele>13.7</ele>
        <time>2020-06-23T15:06:40Z</time>
      </trkpt>
      <trkpt lat="50.86738" lon="2.80816">
        <ele>13.8</ele>
        <time>2020-06-23T15:06:41Z</time>
      </trkpt>
      <trkpt lat="50.86735" lon="2.80825">
        <ele>13.8</ele>
        <time>2020-06-23T15:06:42Z</time>
      </trkpt>
      <trkpt lat="50.86731" lon="2.80832">
        <ele>13.8</ele>
        <time>2020-06-23T15:06:43Z</time>
      </trkpt>
      <trkpt lat="50.86728" lon="2.80839">
        <ele>13.8</ele>
        <time>2020-06-23T15:06:44Z</time>
      </trkpt>
      <trkpt lat="50.86724" lon="2.80846">
        <ele>13.8</ele>
        <time>2020-06-23T15:06:45Z</time>
      </trkpt>
      <trkpt lat="50.86719" lon="2.80854">
        <ele>13.8</ele>
        <time>2020-06-23T15:06:46Z</time>
      </trkpt>
      <trkpt lat="50.86714" lon="2.80861">
        <ele>13.8</ele>
        <time>2020-06-23T15:06:47Z</time>
      </trkpt>
      <trkpt lat="50.8671" lon="2.80867">
        <ele>13.8</ele>
        <time>2020-06-23T15:06:48Z</time>
      </trkpt>
      <trkpt lat="50.86706" lon="2.80874">
        <ele>13.8</ele>
        <time>2020-06-23T15:06:49Z</time>
      </trkpt>
      <trkpt lat="50.86701" lon="2.8088">
        <ele>13.8</ele>
        <time>2020-06-23T15:06:50Z</time>
      </trkpt>
      <trkpt lat="50.86696" lon="2.80885">
        <ele>13.8</ele>
        <time>2020-06-23T15:06:51Z</time>
      </trkpt>
      <trkpt lat="50.86691" lon="2.80889">
        <ele>13.8</ele>
        <time>2020-06-23T15:06:52Z</time>
      </trkpt>
      <trkpt lat="50.86685" lon="2.80893">
        <ele>13.8</ele>
        <time>2020-06-23T15:06:53Z</time>
      </trkpt>
      <trkpt lat="50.8668" lon="2.80898">
        <ele>13.9</ele>
        <time>2020-06-23T15:06:54Z</time>
      </trkpt>
      <trkpt lat="50.86675" lon="2.80902">
        <ele>13.9</ele>
        <time>2020-06-23T15:06:55Z</time>
      </trkpt>
      <trkpt lat="50.86669" lon="2.80906">
        <ele>13.9</ele>
        <time>2020-06-23T15:06:56Z</time>
      </trkpt>
      <trkpt lat="50.86664" lon="2.80909">
        <ele>13.9</ele>
        <time>2020-06-23T15:06:57Z</time>
      </trkpt>
      <trkpt lat="50.86658" lon="2.80912">
        <ele>14</ele>
        <time>2020-06-23T15:06:58Z</time>
      </trkpt>
      <trkpt lat="50.86653" lon="2.80915">
        <ele>14</ele>
        <time>2020-06-23T15:06:59Z</time>
      </trkpt>
      <trkpt lat="50.86648" lon="2.80918">
        <ele>14</ele>
        <time>2020-06-23T15:07:00Z</time>
      </trkpt>
      <trkpt lat="50.86642" lon="2.80921">
        <ele>14</ele>
        <time>2020-06-23T15:07:01Z</time>
      </trkpt>
      <trkpt lat="50.86636" lon="2.80925">
        <ele>14.1</ele>
        <time>2020-06-23T15:07:02Z</time>
      </trkpt>
      <trkpt lat="50.8663" lon="2.80929">
        <ele>14.1</ele>
        <time>2020-06-23T15:07:03Z</time>
      </trkpt>
      <trkpt lat="50.86625" lon="2.80932">
        <ele>14.1</ele>
        <time>2020-06-23T15:07:04Z</time>
      </trkpt>
      <trkpt lat="50.86619" lon="2.80935">
        <ele>14.1</ele>
        <time>2020-06-23T15:07:05Z</time>
      </trkpt>
      <trkpt lat="50.86613" lon="2.80938">
        <ele>14.1</ele>
        <time>2020-06-23T15:07:06Z</time>
      </trkpt>
      <trkpt lat="50.86606" lon="2.80941">
        <ele>14.1</ele>
        <time>2020-06-23T15:07:07Z</time>
      </trkpt>
      <trkpt lat="50.866" lon="2.80945">
        <ele>14.1</ele>
        <time>2020-06-23T15:07:08Z</time>
      </trkpt>
      <trkpt lat="50.86595" lon="2.80947">
        <ele>14.2</ele>
        <time>2020-06-23T15:07:09Z</time>
      </trkpt>
      <trkpt lat="50.86589" lon="2.8095">
        <ele>14.2</ele>
        <time>2020-06-23T15:07:10Z</time>
      </trkpt>
      <trkpt lat="50.86582" lon="2.80951">
        <ele>14.3</ele>
        <time>2020-06-23T15:07:11Z</time>
      </trkpt>
      <trkpt lat="50.86576" lon="2.80952">
        <ele>14.4</ele>
        <time>2020-06-23T15:07:12Z</time>
      </trkpt>
      <trkpt lat="50.8657" lon="2.80955">
        <ele>14.4</ele>
        <time>2020-06-23T15:07:13Z</time>
      </trkpt>
      <trkpt lat="50.86564" lon="2.80957">
        <ele>14.4</ele>
        <time>2020-06-23T15:07:14Z</time>
      </trkpt>
      <trkpt lat="50.86557" lon="2.8096">
        <ele>14.5</ele>
        <time>2020-06-23T15:07:15Z</time>
      </trkpt>
      <trkpt lat="50.86552" lon="2.80964">
        <ele>14.5</ele>
        <time>2020-06-23T15:07:16Z</time>
      </trkpt>
      <trkpt lat="50.86546" lon="2.80968">
        <ele>14.5</ele>
        <time>2020-06-23T15:07:17Z</time>
      </trkpt>
      <trkpt lat="50.86539" lon="2.80969">
        <ele>14.5</ele>
        <time>2020-06-23T15:07:18Z</time>
      </trkpt>
      <trkpt lat="50.86533" lon="2.80971">
        <ele>14.5</ele>
        <time>2020-06-23T15:07:19Z</time>
      </trkpt>
      <trkpt lat="50.86527" lon="2.80973">
        <ele>14.4</ele>
        <time>2020-06-23T15:07:20Z</time>
      </trkpt>
      <trkpt lat="50.8652" lon="2.80974">
        <ele>14.5</ele>
        <time>2020-06-23T15:07:21Z</time>
      </trkpt>
      <trkpt lat="50.86515" lon="2.80976">
        <ele>14.5</ele>
        <time>2020-06-23T15:07:22Z</time>
      </trkpt>
      <trkpt lat="50.8651" lon="2.80979">
        <ele>14.5</ele>
        <time>2020-06-23T15:07:23Z</time>
      </trkpt>
      <trkpt lat="50.86503" lon="2.80981">
        <ele>14.5</ele>
        <time>2020-06-23T15:07:24Z</time>
      </trkpt>
      <trkpt lat="50.86497" lon="2.80983">
        <ele>14.5</ele>
        <time>2020-06-23T15:07:25Z</time>
      </trkpt>
      <trkpt lat="50.86491" lon="2.80984">
        <ele>14.4</ele>
        <time>2020-06-23T15:07:26Z</time>
      </trkpt>
      <trkpt lat="50.86485" lon="2.80984">
        <ele>14.4</ele>
        <time>2020-06-23T15:07:27Z</time>
      </trkpt>
      <trkpt lat="50.86478" lon="2.80985">
        <ele>14.4</ele>
        <time>2020-06-23T15:07:28Z</time>
      </trkpt>
      <trkpt lat="50.86472" lon="2.80987">
        <ele>14.5</ele>
        <time>2020-06-23T15:07:29Z</time>
      </trkpt>
      <trkpt lat="50.86465" lon="2.80987">
        <ele>14.5</ele>
        <time>2020-06-23T15:07:30Z</time>
      </trkpt>
      <trkpt lat="50.86459" lon="2.80989">
        <ele>14.5</ele>
        <time>2020-06-23T15:07:31Z</time>
      </trkpt>
      <trkpt lat="50.86451" lon="2.80991">
        <ele>14.6</ele>
        <time>2020-06-23T15:07:32Z</time>
      </trkpt>
      <trkpt lat="50.86445" lon="2.80993">
        <ele>14.6</ele>
        <time>2020-06-23T15:07:33Z</time>
      </trkpt>
      <trkpt lat="50.8644" lon="2.80995">
        <ele>14.7</ele>
        <time>2020-06-23T15:07:34Z</time>
      </trkpt>
      <trkpt lat="50.86434" lon="2.80997">
        <ele>14.7</ele>
        <time>2020-06-23T15:07:35Z</time>
      </trkpt>
      <trkpt lat="50.86428" lon="2.80999">
        <ele>14.6</ele>
        <time>2020-06-23T15:07:36Z</time>
      </trkpt>
      <trkpt lat="50.86422" lon="2.81002">
        <ele>14.6</ele>
        <time>2020-06-23T15:07:37Z</time>
      </trkpt>
      <trkpt lat="50.86416" lon="2.81006">
        <ele>14.5</ele>
        <time>2020-06-23T15:07:38Z</time>
      </trkpt>
      <trkpt lat="50.86411" lon="2.81011">
        <ele>14.5</ele>
        <time>2020-06-23T15:07:39Z</time>
      </trkpt>
      <trkpt lat="50.86406" lon="2.81016">
        <ele>14.5</ele>
        <time>2020-06-23T15:07:40Z</time>
      </trkpt>
      <trkpt lat="50.86401" lon="2.81019">
        <ele>14.5</ele>
        <time>2020-06-23T15:07:41Z</time>
      </trkpt>
      <trkpt lat="50.86395" lon="2.81024">
        <ele>14.5</ele>
        <time>2020-06-23T15:07:42Z</time>
      </trkpt>
      <trkpt lat="50.86389" lon="2.8103">
        <ele>14.6</ele>
        <time>2020-06-23T15:07:43Z</time>
      </trkpt>
      <trkpt lat="50.86383" lon="2.81036">
        <ele>14.7</ele>
        <time>2020-06-23T15:07:44Z</time>
      </trkpt>
      <trkpt lat="50.86378" lon="2.81042">
        <ele>14.7</ele>
        <time>2020-06-23T15:07:45Z</time>
      </trkpt>
      <trkpt lat="50.86373" lon="2.81047">
        <ele>14.9</ele>
        <time>2020-06-23T15:07:46Z</time>
      </trkpt>
      <trkpt lat="50.86369" lon="2.81053">
        <ele>15</ele>
        <time>2020-06-23T15:07:47Z</time>
      </trkpt>
      <trkpt lat="50.86365" lon="2.81059">
        <ele>15.1</ele>
        <time>2020-06-23T15:07:48Z</time>
      </trkpt>
      <trkpt lat="50.8636" lon="2.81065">
        <ele>15.2</ele>
        <time>2020-06-23T15:07:49Z</time>
      </trkpt>
      <trkpt lat="50.86356" lon="2.81071">
        <ele>15.3</ele>
        <time>2020-06-23T15:07:50Z</time>
      </trkpt>
      <trkpt lat="50.86351" lon="2.81076">
        <ele>15.4</ele>
        <time>2020-06-23T15:07:51Z</time>
      </trkpt>
      <trkpt lat="50.86347" lon="2.81081">
        <ele>15.4</ele>
        <time>2020-06-23T15:07:52Z</time>
      </trkpt>
      <trkpt lat="50.86342" lon="2.81087">
        <ele>15.6</ele>
        <time>2020-06-23T15:07:53Z</time>
      </trkpt>
      <trkpt lat="50.86338" lon="2.81093">
        <ele>15.7</ele>
        <time>2020-06-23T15:07:54Z</time>
      </trkpt>
      <trkpt lat="50.86333" lon="2.81099">
        <ele>15.8</ele>
        <time>2020-06-23T15:07:55Z</time>
      </trkpt>
      <trkpt lat="50.86329" lon="2.81105">
        <ele>15.9</ele>
        <time>2020-06-23T15:07:56Z</time>
      </trkpt>
      <trkpt lat="50.86324" lon="2.81112">
        <ele>16</ele>
        <time>2020-06-23T15:07:57Z</time>
      </trkpt>
      <trkpt lat="50.86321" lon="2.81119">
        <ele>16</ele>
        <time>2020-06-23T15:07:58Z</time>
      </trkpt>
      <trkpt lat="50.86317" lon="2.81126">
        <ele>16.1</ele>
        <time>2020-06-23T15:07:59Z</time>
      </trkpt>
      <trkpt lat="50.86313" lon="2.81133">
        <ele>16.1</ele>
        <time>2020-06-23T15:08:00Z</time>
      </trkpt>
      <trkpt lat="50.86308" lon="2.8114">
        <ele>16.1</ele>
        <time>2020-06-23T15:08:01Z</time>
      </trkpt>
      <trkpt lat="50.86304" lon="2.81147">
        <ele>16</ele>
        <time>2020-06-23T15:08:02Z</time>
      </trkpt>
      <trkpt lat="50.86299" lon="2.81153">
        <ele>16</ele>
        <time>2020-06-23T15:08:03Z</time>
      </trkpt>
      <trkpt lat="50.86294" lon="2.8116">
        <ele>16.1</ele>
        <time>2020-06-23T15:08:04Z</time>
      </trkpt>
      <trkpt lat="50.8629" lon="2.81167">
        <ele>16.1</ele>
        <time>2020-06-23T15:08:05Z</time>
      </trkpt>
      <trkpt lat="50.86286" lon="2.81174">
        <ele>16.1</ele>
        <time>2020-06-23T15:08:06Z</time>
      </trkpt>
      <trkpt lat="50.86282" lon="2.81181">
        <ele>16</ele>
        <time>2020-06-23T15:08:07Z</time>
      </trkpt>
      <trkpt lat="50.86278" lon="2.81188">
        <ele>16</ele>
        <time>2020-06-23T15:08:08Z</time>
      </trkpt>
      <trkpt lat="50.86273" lon="2.81195">
        <ele>16</ele>
        <time>2020-06-23T15:08:09Z</time>
      </trkpt>
      <trkpt lat="50.86269" lon="2.81202">
        <ele>16</ele>
        <time>2020-06-23T15:08:10Z</time>
      </trkpt>
      <trkpt lat="50.86265" lon="2.81209">
        <ele>16</ele>
        <time>2020-06-23T15:08:11Z</time>
      </trkpt>
      <trkpt lat="50.86261" lon="2.81217">
        <ele>16</ele>
        <time>2020-06-23T15:08:12Z</time>
      </trkpt>
      <trkpt lat="50.86257" lon="2.81225">
        <ele>16</ele>
        <time>2020-06-23T15:08:13Z</time>
      </trkpt>
      <trkpt lat="50.86252" lon="2.81232">
        <ele>16</ele>
        <time>2020-06-23T15:08:14Z</time>
      </trkpt>
      <trkpt lat="50.86248" lon="2.81238">
        <ele>15.9</ele>
        <time>2020-06-23T15:08:15Z</time>
      </trkpt>
      <trkpt lat="50.86244" lon="2.81245">
        <ele>15.9</ele>
        <time>2020-06-23T15:08:16Z</time>
      </trkpt>
      <trkpt lat="50.86239" lon="2.81251">
        <ele>15.9</ele>
        <time>2020-06-23T15:08:17Z</time>
      </trkpt>
      <trkpt lat="50.86234" lon="2.81258">
        <ele>15.9</ele>
        <time>2020-06-23T15:08:18Z</time>
      </trkpt>
      <trkpt lat="50.86229" lon="2.81263">
        <ele>15.9</ele>
        <time>2020-06-23T15:08:19Z</time>
      </trkpt>
      <trkpt lat="50.86224" lon="2.81268">
        <ele>15.8</ele>
        <time>2020-06-23T15:08:20Z</time>
      </trkpt>
      <trkpt lat="50.86219" lon="2.81274">
        <ele>15.8</ele>
        <time>2020-06-23T15:08:21Z</time>
      </trkpt>
      <trkpt lat="50.86215" lon="2.8128">
        <ele>15.8</ele>
        <time>2020-06-23T15:08:22Z</time>
      </trkpt>
      <trkpt lat="50.8621" lon="2.81285">
        <ele>15.8</ele>
        <time>2020-06-23T15:08:23Z</time>
      </trkpt>
      <trkpt lat="50.86204" lon="2.81291">
        <ele>15.8</ele>
        <time>2020-06-23T15:08:24Z</time>
      </trkpt>
      <trkpt lat="50.86201" lon="2.81296">
        <ele>15.9</ele>
        <time>2020-06-23T15:08:25Z</time>
      </trkpt>
      <trkpt lat="50.86196" lon="2.81301">
        <ele>15.9</ele>
        <time>2020-06-23T15:08:26Z</time>
      </trkpt>
      <trkpt lat="50.86192" lon="2.81307">
        <ele>15.9</ele>
        <time>2020-06-23T15:08:27Z</time>
      </trkpt>
      <trkpt lat="50.86187" lon="2.81312">
        <ele>15.9</ele>
        <time>2020-06-23T15:08:28Z</time>
      </trkpt>
      <trkpt lat="50.86182" lon="2.81319">
        <ele>16</ele>
        <time>2020-06-23T15:08:29Z</time>
      </trkpt>
      <trkpt lat="50.86178" lon="2.81324">
        <ele>16</ele>
        <time>2020-06-23T15:08:30Z</time>
      </trkpt>
      <trkpt lat="50.86172" lon="2.81329">
        <ele>16</ele>
        <time>2020-06-23T15:08:31Z</time>
      </trkpt>
      <trkpt lat="50.86167" lon="2.81334">
        <ele>16.1</ele>
        <time>2020-06-23T15:08:32Z</time>
      </trkpt>
      <trkpt lat="50.86163" lon="2.81338">
        <ele>16.1</ele>
        <time>2020-06-23T15:08:33Z</time>
      </trkpt>
      <trkpt lat="50.86158" lon="2.81343">
        <ele>16.2</ele>
        <time>2020-06-23T15:08:34Z</time>
      </trkpt>
      <trkpt lat="50.86153" lon="2.81348">
        <ele>16.3</ele>
        <time>2020-06-23T15:08:35Z</time>
      </trkpt>
      <trkpt lat="50.86148" lon="2.81353">
        <ele>16.3</ele>
        <time>2020-06-23T15:08:36Z</time>
      </trkpt>
      <trkpt lat="50.86144" lon="2.81359">
        <ele>16.4</ele>
        <time>2020-06-23T15:08:37Z</time>
      </trkpt>
      <trkpt lat="50.8614" lon="2.81364">
        <ele>16.5</ele>
        <time>2020-06-23T15:08:38Z</time>
      </trkpt>
      <trkpt lat="50.86136" lon="2.8137">
        <ele>16.7</ele>
        <time>2020-06-23T15:08:39Z</time>
      </trkpt>
      <trkpt lat="50.86132" lon="2.81376">
        <ele>16.6</ele>
        <time>2020-06-23T15:08:40Z</time>
      </trkpt>
      <trkpt lat="50.86126" lon="2.81381">
        <ele>16.6</ele>
        <time>2020-06-23T15:08:41Z</time>
      </trkpt>
      <trkpt lat="50.86121" lon="2.81387">
        <ele>16.6</ele>
        <time>2020-06-23T15:08:42Z</time>
      </trkpt>
      <trkpt lat="50.86116" lon="2.81393">
        <ele>16.6</ele>
        <time>2020-06-23T15:08:43Z</time>
      </trkpt>
      <trkpt lat="50.86111" lon="2.81399">
        <ele>16.6</ele>
        <time>2020-06-23T15:08:44Z</time>
      </trkpt>
      <trkpt lat="50.86106" lon="2.81406">
        <ele>16.7</ele>
        <time>2020-06-23T15:08:45Z</time>
      </trkpt>
      <trkpt lat="50.86101" lon="2.81411">
        <ele>16.7</ele>
        <time>2020-06-23T15:08:46Z</time>
      </trkpt>
      <trkpt lat="50.86096" lon="2.81418">
        <ele>16.7</ele>
        <time>2020-06-23T15:08:47Z</time>
      </trkpt>
      <trkpt lat="50.86092" lon="2.81423">
        <ele>16.7</ele>
        <time>2020-06-23T15:08:48Z</time>
      </trkpt>
      <trkpt lat="50.86087" lon="2.8143">
        <ele>16.7</ele>
        <time>2020-06-23T15:08:49Z</time>
      </trkpt>
      <trkpt lat="50.86082" lon="2.81436">
        <ele>16.7</ele>
        <time>2020-06-23T15:08:50Z</time>
      </trkpt>
      <trkpt lat="50.86077" lon="2.81443">
        <ele>16.7</ele>
        <time>2020-06-23T15:08:51Z</time>
      </trkpt>
      <trkpt lat="50.86072" lon="2.81448">
        <ele>16.7</ele>
        <time>2020-06-23T15:08:52Z</time>
      </trkpt>
      <trkpt lat="50.86067" lon="2.81455">
        <ele>16.7</ele>
        <time>2020-06-23T15:08:53Z</time>
      </trkpt>
      <trkpt lat="50.86063" lon="2.81461">
        <ele>16.7</ele>
        <time>2020-06-23T15:08:54Z</time>
      </trkpt>
      <trkpt lat="50.86058" lon="2.81468">
        <ele>16.7</ele>
        <time>2020-06-23T15:08:55Z</time>
      </trkpt>
      <trkpt lat="50.86053" lon="2.81474">
        <ele>16.7</ele>
        <time>2020-06-23T15:08:56Z</time>
      </trkpt>
      <trkpt lat="50.86048" lon="2.8148">
        <ele>16.7</ele>
        <time>2020-06-23T15:08:57Z</time>
      </trkpt>
      <trkpt lat="50.86043" lon="2.81487">
        <ele>16.7</ele>
        <time>2020-06-23T15:08:58Z</time>
      </trkpt>
      <trkpt lat="50.86038" lon="2.81493">
        <ele>16.7</ele>
        <time>2020-06-23T15:08:59Z</time>
      </trkpt>
      <trkpt lat="50.86034" lon="2.81499">
        <ele>16.7</ele>
        <time>2020-06-23T15:09:00Z</time>
      </trkpt>
      <trkpt lat="50.86029" lon="2.81506">
        <ele>16.7</ele>
        <time>2020-06-23T15:09:01Z</time>
      </trkpt>
      <trkpt lat="50.86025" lon="2.81511">
        <ele>16.8</ele>
        <time>2020-06-23T15:09:02Z</time>
      </trkpt>
      <trkpt lat="50.86021" lon="2.81517">
        <ele>16.8</ele>
        <time>2020-06-23T15:09:03Z</time>
      </trkpt>
      <trkpt lat="50.86015" lon="2.81522">
        <ele>16.8</ele>
        <time>2020-06-23T15:09:04Z</time>
      </trkpt>
      <trkpt lat="50.8601" lon="2.81527">
        <ele>16.8</ele>
        <time>2020-06-23T15:09:05Z</time>
      </trkpt>
      <trkpt lat="50.86004" lon="2.81532">
        <ele>16.7</ele>
        <time>2020-06-23T15:09:06Z</time>
      </trkpt>
      <trkpt lat="50.85998" lon="2.81538">
        <ele>16.7</ele>
        <time>2020-06-23T15:09:07Z</time>
      </trkpt>
      <trkpt lat="50.85994" lon="2.81543">
        <ele>16.7</ele>
        <time>2020-06-23T15:09:08Z</time>
      </trkpt>
      <trkpt lat="50.8599" lon="2.81548">
        <ele>16.6</ele>
        <time>2020-06-23T15:09:09Z</time>
      </trkpt>
      <trkpt lat="50.85985" lon="2.81552">
        <ele>16.6</ele>
        <time>2020-06-23T15:09:10Z</time>
      </trkpt>
      <trkpt lat="50.85979" lon="2.81557">
        <ele>16.5</ele>
        <time>2020-06-23T15:09:11Z</time>
      </trkpt>
      <trkpt lat="50.85975" lon="2.81563">
        <ele>16.5</ele>
        <time>2020-06-23T15:09:12Z</time>
      </trkpt>
      <trkpt lat="50.8597" lon="2.81569">
        <ele>16.5</ele>
        <time>2020-06-23T15:09:13Z</time>
      </trkpt>
      <trkpt lat="50.85965" lon="2.81574">
        <ele>16.4</ele>
        <time>2020-06-23T15:09:14Z</time>
      </trkpt>
      <trkpt lat="50.8596" lon="2.8158">
        <ele>16.4</ele>
        <time>2020-06-23T15:09:15Z</time>
      </trkpt>
      <trkpt lat="50.85955" lon="2.81586">
        <ele>16.3</ele>
        <time>2020-06-23T15:09:16Z</time>
      </trkpt>
      <trkpt lat="50.8595" lon="2.81591">
        <ele>16.3</ele>
        <time>2020-06-23T15:09:17Z</time>
      </trkpt>
      <trkpt lat="50.85944" lon="2.81597">
        <ele>16.2</ele>
        <time>2020-06-23T15:09:18Z</time>
      </trkpt>
      <trkpt lat="50.85938" lon="2.81603">
        <ele>16.1</ele>
        <time>2020-06-23T15:09:19Z</time>
      </trkpt>
      <trkpt lat="50.85932" lon="2.8161">
        <ele>16.1</ele>
        <time>2020-06-23T15:09:20Z</time>
      </trkpt>
      <trkpt lat="50.85926" lon="2.81616">
        <ele>16</ele>
        <time>2020-06-23T15:09:21Z</time>
      </trkpt>
      <trkpt lat="50.85921" lon="2.81622">
        <ele>16</ele>
        <time>2020-06-23T15:09:22Z</time>
      </trkpt>
      <trkpt lat="50.85916" lon="2.81627">
        <ele>16</ele>
        <time>2020-06-23T15:09:23Z</time>
      </trkpt>
      <trkpt lat="50.85911" lon="2.81633">
        <ele>15.9</ele>
        <time>2020-06-23T15:09:24Z</time>
      </trkpt>
      <trkpt lat="50.85906" lon="2.81639">
        <ele>15.9</ele>
        <time>2020-06-23T15:09:25Z</time>
      </trkpt>
      <trkpt lat="50.85901" lon="2.81645">
        <ele>15.9</ele>
        <time>2020-06-23T15:09:26Z</time>
      </trkpt>
      <trkpt lat="50.85896" lon="2.81651">
        <ele>15.9</ele>
        <time>2020-06-23T15:09:27Z</time>
      </trkpt>
      <trkpt lat="50.8589" lon="2.81656">
        <ele>16</ele>
        <time>2020-06-23T15:09:28Z</time>
      </trkpt>
      <trkpt lat="50.85885" lon="2.81662">
        <ele>16</ele>
        <time>2020-06-23T15:09:29Z</time>
      </trkpt>
      <trkpt lat="50.8588" lon="2.81668">
        <ele>16</ele>
        <time>2020-06-23T15:09:30Z</time>
      </trkpt>
      <trkpt lat="50.85875" lon="2.81674">
        <ele>16</ele>
        <time>2020-06-23T15:09:31Z</time>
      </trkpt>
      <trkpt lat="50.85869" lon="2.81681">
        <ele>16</ele>
        <time>2020-06-23T15:09:32Z</time>
      </trkpt>
      <trkpt lat="50.85864" lon="2.81688">
        <ele>16</ele>
        <time>2020-06-23T15:09:33Z</time>
      </trkpt>
      <trkpt lat="50.85859" lon="2.81694">
        <ele>16</ele>
        <time>2020-06-23T15:09:34Z</time>
      </trkpt>
      <trkpt lat="50.85854" lon="2.81701">
        <ele>16</ele>
        <time>2020-06-23T15:09:35Z</time>
      </trkpt>
      <trkpt lat="50.85849" lon="2.81708">
        <ele>16</ele>
        <time>2020-06-23T15:09:36Z</time>
      </trkpt>
      <trkpt lat="50.85843" lon="2.81715">
        <ele>16</ele>
        <time>2020-06-23T15:09:37Z</time>
      </trkpt>
      <trkpt lat="50.85838" lon="2.81721">
        <ele>16</ele>
        <time>2020-06-23T15:09:38Z</time>
      </trkpt>
      <trkpt lat="50.85833" lon="2.81728">
        <ele>16.1</ele>
        <time>2020-06-23T15:09:39Z</time>
      </trkpt>
      <trkpt lat="50.85827" lon="2.81735">
        <ele>16.1</ele>
        <time>2020-06-23T15:09:40Z</time>
      </trkpt>
      <trkpt lat="50.85823" lon="2.81741">
        <ele>16.1</ele>
        <time>2020-06-23T15:09:41Z</time>
      </trkpt>
      <trkpt lat="50.85816" lon="2.81747">
        <ele>16.1</ele>
        <time>2020-06-23T15:09:42Z</time>
      </trkpt>
      <trkpt lat="50.85811" lon="2.81751">
        <ele>16.1</ele>
        <time>2020-06-23T15:09:43Z</time>
      </trkpt>
      <trkpt lat="50.85806" lon="2.81757">
        <ele>16</ele>
        <time>2020-06-23T15:09:44Z</time>
      </trkpt>
      <trkpt lat="50.85801" lon="2.81764">
        <ele>16</ele>
        <time>2020-06-23T15:09:45Z</time>
      </trkpt>
      <trkpt lat="50.85795" lon="2.81771">
        <ele>16</ele>
        <time>2020-06-23T15:09:46Z</time>
      </trkpt>
      <trkpt lat="50.8579" lon="2.81778">
        <ele>16.1</ele>
        <time>2020-06-23T15:09:47Z</time>
      </trkpt>
      <trkpt lat="50.85784" lon="2.81784">
        <ele>16.1</ele>
        <time>2020-06-23T15:09:48Z</time>
      </trkpt>
      <trkpt lat="50.85779" lon="2.8179">
        <ele>16.1</ele>
        <time>2020-06-23T15:09:49Z</time>
      </trkpt>
      <trkpt lat="50.85774" lon="2.81797">
        <ele>16.2</ele>
        <time>2020-06-23T15:09:50Z</time>
      </trkpt>
      <trkpt lat="50.85769" lon="2.81802">
        <ele>16.3</ele>
        <time>2020-06-23T15:09:51Z</time>
      </trkpt>
      <trkpt lat="50.85765" lon="2.81806">
        <ele>16.3</ele>
        <time>2020-06-23T15:09:52Z</time>
      </trkpt>
      <trkpt lat="50.8576" lon="2.81812">
        <ele>16.3</ele>
        <time>2020-06-23T15:09:53Z</time>
      </trkpt>
      <trkpt lat="50.85755" lon="2.81818">
        <ele>16.4</ele>
        <time>2020-06-23T15:09:54Z</time>
      </trkpt>
      <trkpt lat="50.85748" lon="2.81825">
        <ele>16.4</ele>
        <time>2020-06-23T15:09:55Z</time>
      </trkpt>
      <trkpt lat="50.85742" lon="2.81832">
        <ele>16.4</ele>
        <time>2020-06-23T15:09:56Z</time>
      </trkpt>
      <trkpt lat="50.85737" lon="2.81838">
        <ele>16.4</ele>
        <time>2020-06-23T15:09:57Z</time>
      </trkpt>
      <trkpt lat="50.85732" lon="2.81844">
        <ele>16.4</ele>
        <time>2020-06-23T15:09:58Z</time>
      </trkpt>
      <trkpt lat="50.85727" lon="2.81849">
        <ele>16.4</ele>
        <time>2020-06-23T15:09:59Z</time>
      </trkpt>
      <trkpt lat="50.85722" lon="2.81855">
        <ele>16.4</ele>
        <time>2020-06-23T15:10:00Z</time>
      </trkpt>
      <trkpt lat="50.85717" lon="2.81859">
        <ele>16.3</ele>
        <time>2020-06-23T15:10:01Z</time>
      </trkpt>
      <trkpt lat="50.85712" lon="2.81864">
        <ele>16.3</ele>
        <time>2020-06-23T15:10:02Z</time>
      </trkpt>
      <trkpt lat="50.85707" lon="2.81869">
        <ele>16.3</ele>
        <time>2020-06-23T15:10:03Z</time>
      </trkpt>
      <trkpt lat="50.85701" lon="2.81874">
        <ele>16.3</ele>
        <time>2020-06-23T15:10:04Z</time>
      </trkpt>
      <trkpt lat="50.85696" lon="2.81879">
        <ele>16.3</ele>
        <time>2020-06-23T15:10:05Z</time>
      </trkpt>
      <trkpt lat="50.8569" lon="2.81885">
        <ele>16.1</ele>
        <time>2020-06-23T15:10:06Z</time>
      </trkpt>
      <trkpt lat="50.85685" lon="2.8189">
        <ele>16</ele>
        <time>2020-06-23T15:10:07Z</time>
      </trkpt>
      <trkpt lat="50.8568" lon="2.81895">
        <ele>15.9</ele>
        <time>2020-06-23T15:10:08Z</time>
      </trkpt>
      <trkpt lat="50.85674" lon="2.81899">
        <ele>15.8</ele>
        <time>2020-06-23T15:10:09Z</time>
      </trkpt>
      <trkpt lat="50.85669" lon="2.81903">
        <ele>15.7</ele>
        <time>2020-06-23T15:10:10Z</time>
      </trkpt>
      <trkpt lat="50.85662" lon="2.81909">
        <ele>15.7</ele>
        <time>2020-06-23T15:10:11Z</time>
      </trkpt>
      <trkpt lat="50.85656" lon="2.81914">
        <ele>15.6</ele>
        <time>2020-06-23T15:10:12Z</time>
      </trkpt>
      <trkpt lat="50.85651" lon="2.81918">
        <ele>15.5</ele>
        <time>2020-06-23T15:10:13Z</time>
      </trkpt>
      <trkpt lat="50.85645" lon="2.81923">
        <ele>15.5</ele>
        <time>2020-06-23T15:10:14Z</time>
      </trkpt>
      <trkpt lat="50.8564" lon="2.81928">
        <ele>15.4</ele>
        <time>2020-06-23T15:10:15Z</time>
      </trkpt>
      <trkpt lat="50.85634" lon="2.81932">
        <ele>15.4</ele>
        <time>2020-06-23T15:10:16Z</time>
      </trkpt>
      <trkpt lat="50.85629" lon="2.81937">
        <ele>15.3</ele>
        <time>2020-06-23T15:10:17Z</time>
      </trkpt>
      <trkpt lat="50.85623" lon="2.81941">
        <ele>15.3</ele>
        <time>2020-06-23T15:10:18Z</time>
      </trkpt>
      <trkpt lat="50.85617" lon="2.81947">
        <ele>15.3</ele>
        <time>2020-06-23T15:10:19Z</time>
      </trkpt>
      <trkpt lat="50.85611" lon="2.81952">
        <ele>15.3</ele>
        <time>2020-06-23T15:10:20Z</time>
      </trkpt>
      <trkpt lat="50.85606" lon="2.81957">
        <ele>15.3</ele>
        <time>2020-06-23T15:10:21Z</time>
      </trkpt>
      <trkpt lat="50.85602" lon="2.81962">
        <ele>15.3</ele>
        <time>2020-06-23T15:10:22Z</time>
      </trkpt>
      <trkpt lat="50.85597" lon="2.81966">
        <ele>15.3</ele>
        <time>2020-06-23T15:10:23Z</time>
      </trkpt>
      <trkpt lat="50.85592" lon="2.8197">
        <ele>15.3</ele>
        <time>2020-06-23T15:10:24Z</time>
      </trkpt>
      <trkpt lat="50.85586" lon="2.81974">
        <ele>15.4</ele>
        <time>2020-06-23T15:10:25Z</time>
      </trkpt>
      <trkpt lat="50.85581" lon="2.81978">
        <ele>15.4</ele>
        <time>2020-06-23T15:10:26Z</time>
      </trkpt>
      <trkpt lat="50.85575" lon="2.81983">
        <ele>15.4</ele>
        <time>2020-06-23T15:10:27Z</time>
      </trkpt>
      <trkpt lat="50.85569" lon="2.81989">
        <ele>15.5</ele>
        <time>2020-06-23T15:10:28Z</time>
      </trkpt>
      <trkpt lat="50.85565" lon="2.81994">
        <ele>15.5</ele>
        <time>2020-06-23T15:10:29Z</time>
      </trkpt>
      <trkpt lat="50.8556" lon="2.81998">
        <ele>15.6</ele>
        <time>2020-06-23T15:10:30Z</time>
      </trkpt>
      <trkpt lat="50.85555" lon="2.82002">
        <ele>15.6</ele>
        <time>2020-06-23T15:10:31Z</time>
      </trkpt>
      <trkpt lat="50.85551" lon="2.82006">
        <ele>15.7</ele>
        <time>2020-06-23T15:10:32Z</time>
      </trkpt>
      <trkpt lat="50.85546" lon="2.8201">
        <ele>15.7</ele>
        <time>2020-06-23T15:10:33Z</time>
      </trkpt>
      <trkpt lat="50.85542" lon="2.82014">
        <ele>15.8</ele>
        <time>2020-06-23T15:10:34Z</time>
      </trkpt>
      <trkpt lat="50.85537" lon="2.82018">
        <ele>15.9</ele>
        <time>2020-06-23T15:10:35Z</time>
      </trkpt>
      <trkpt lat="50.85534" lon="2.82021">
        <ele>16</ele>
        <time>2020-06-23T15:10:36Z</time>
      </trkpt>
      <trkpt lat="50.8553" lon="2.82024">
        <ele>16.1</ele>
        <time>2020-06-23T15:10:37Z</time>
      </trkpt>
      <trkpt lat="50.85526" lon="2.82028">
        <ele>16.2</ele>
        <time>2020-06-23T15:10:38Z</time>
      </trkpt>
      <trkpt lat="50.85522" lon="2.82032">
        <ele>16.2</ele>
        <time>2020-06-23T15:10:39Z</time>
      </trkpt>
      <trkpt lat="50.85518" lon="2.82036">
        <ele>16.2</ele>
        <time>2020-06-23T15:10:40Z</time>
      </trkpt>
      <trkpt lat="50.85516" lon="2.82039">
        <ele>16.1</ele>
        <time>2020-06-23T15:10:41Z</time>
      </trkpt>
      <trkpt lat="50.85512" lon="2.82043">
        <ele>16</ele>
        <time>2020-06-23T15:10:42Z</time>
      </trkpt>
      <trkpt lat="50.85507" lon="2.8205">
        <ele>15.9</ele>
        <time>2020-06-23T15:10:43Z</time>
      </trkpt>
      <trkpt lat="50.85504" lon="2.82053">
        <ele>15.7</ele>
        <time>2020-06-23T15:10:44Z</time>
      </trkpt>
      <trkpt lat="50.855" lon="2.82056">
        <ele>15.6</ele>
        <time>2020-06-23T15:10:45Z</time>
      </trkpt>
      <trkpt lat="50.85498" lon="2.82062">
        <ele>15.5</ele>
        <time>2020-06-23T15:10:46Z</time>
      </trkpt>
      <trkpt lat="50.85495" lon="2.8207">
        <ele>15.4</ele>
        <time>2020-06-23T15:10:47Z</time>
      </trkpt>
      <trkpt lat="50.85493" lon="2.82075">
        <ele>15.4</ele>
        <time>2020-06-23T15:10:48Z</time>
      </trkpt>
      <trkpt lat="50.8549" lon="2.82082">
        <ele>15.3</ele>
        <time>2020-06-23T15:10:49Z</time>
      </trkpt>
      <trkpt lat="50.85487" lon="2.82088">
        <ele>15.2</ele>
        <time>2020-06-23T15:10:50Z</time>
      </trkpt>
      <trkpt lat="50.85483" lon="2.82093">
        <ele>15.2</ele>
        <time>2020-06-23T15:10:51Z</time>
      </trkpt>
      <trkpt lat="50.85479" lon="2.82098">
        <ele>15.1</ele>
        <time>2020-06-23T15:10:52Z</time>
      </trkpt>
      <trkpt lat="50.85475" lon="2.82103">
        <ele>15</ele>
        <time>2020-06-23T15:10:53Z</time>
      </trkpt>
      <trkpt lat="50.85472" lon="2.82108">
        <ele>15</ele>
        <time>2020-06-23T15:10:54Z</time>
      </trkpt>
      <trkpt lat="50.8547" lon="2.82114">
        <ele>14.9</ele>
        <time>2020-06-23T15:10:55Z</time>
      </trkpt>
      <trkpt lat="50.85468" lon="2.8212">
        <ele>14.9</ele>
        <time>2020-06-23T15:10:56Z</time>
      </trkpt>
      <trkpt lat="50.85466" lon="2.82127">
        <ele>14.8</ele>
        <time>2020-06-23T15:10:57Z</time>
      </trkpt>
      <trkpt lat="50.85463" lon="2.82132">
        <ele>14.8</ele>
        <time>2020-06-23T15:10:58Z</time>
      </trkpt>
      <trkpt lat="50.85461" lon="2.82137">
        <ele>14.8</ele>
        <time>2020-06-23T15:10:59Z</time>
      </trkpt>
      <trkpt lat="50.85457" lon="2.82143">
        <ele>14.8</ele>
        <time>2020-06-23T15:11:00Z</time>
      </trkpt>
      <trkpt lat="50.85454" lon="2.82148">
        <ele>14.8</ele>
        <time>2020-06-23T15:11:01Z</time>
      </trkpt>
      <trkpt lat="50.85452" lon="2.82155">
        <ele>14.8</ele>
        <time>2020-06-23T15:11:02Z</time>
      </trkpt>
      <trkpt lat="50.85449" lon="2.82161">
        <ele>14.8</ele>
        <time>2020-06-23T15:11:03Z</time>
      </trkpt>
      <trkpt lat="50.85448" lon="2.82167">
        <ele>14.8</ele>
        <time>2020-06-23T15:11:04Z</time>
      </trkpt>
      <trkpt lat="50.85446" lon="2.82173">
        <ele>14.8</ele>
        <time>2020-06-23T15:11:05Z</time>
      </trkpt>
      <trkpt lat="50.85443" lon="2.82178">
        <ele>14.9</ele>
        <time>2020-06-23T15:11:06Z</time>
      </trkpt>
      <trkpt lat="50.85441" lon="2.82183">
        <ele>14.9</ele>
        <time>2020-06-23T15:11:07Z</time>
      </trkpt>
      <trkpt lat="50.85439" lon="2.82189">
        <ele>14.9</ele>
        <time>2020-06-23T15:11:08Z</time>
      </trkpt>
      <trkpt lat="50.85437" lon="2.82195">
        <ele>15</ele>
        <time>2020-06-23T15:11:09Z</time>
      </trkpt>
      <trkpt lat="50.85433" lon="2.822">
        <ele>15</ele>
        <time>2020-06-23T15:11:10Z</time>
      </trkpt>
      <trkpt lat="50.85431" lon="2.82207">
        <ele>15</ele>
        <time>2020-06-23T15:11:11Z</time>
      </trkpt>
      <trkpt lat="50.85429" lon="2.82213">
        <ele>15.1</ele>
        <time>2020-06-23T15:11:12Z</time>
      </trkpt>
      <trkpt lat="50.85427" lon="2.8222">
        <ele>15.1</ele>
        <time>2020-06-23T15:11:13Z</time>
      </trkpt>
      <trkpt lat="50.85427" lon="2.82228">
        <ele>15.1</ele>
        <time>2020-06-23T15:11:14Z</time>
      </trkpt>
      <trkpt lat="50.85425" lon="2.82233">
        <ele>15.1</ele>
        <time>2020-06-23T15:11:15Z</time>
      </trkpt>
      <trkpt lat="50.85422" lon="2.82237">
        <ele>15.1</ele>
        <time>2020-06-23T15:11:16Z</time>
      </trkpt>
      <trkpt lat="50.85421" lon="2.82242">
        <ele>15.1</ele>
        <time>2020-06-23T15:11:17Z</time>
      </trkpt>
      <trkpt lat="50.8542" lon="2.82247">
        <ele>15.1</ele>
        <time>2020-06-23T15:11:18Z</time>
      </trkpt>
      <trkpt lat="50.85419" lon="2.82255">
        <ele>15.2</ele>
        <time>2020-06-23T15:11:19Z</time>
      </trkpt>
      <trkpt lat="50.85418" lon="2.82257">
        <ele>15.2</ele>
        <time>2020-06-23T15:11:20Z</time>
      </trkpt>
      <trkpt lat="50.85416" lon="2.82263">
        <ele>15.2</ele>
        <time>2020-06-23T15:11:21Z</time>
      </trkpt>
      <trkpt lat="50.85414" lon="2.82269">
        <ele>15.2</ele>
        <time>2020-06-23T15:11:22Z</time>
      </trkpt>
      <trkpt lat="50.85411" lon="2.82274">
        <ele>15.2</ele>
        <time>2020-06-23T15:11:23Z</time>
      </trkpt>
      <trkpt lat="50.85409" lon="2.82281">
        <ele>15.3</ele>
        <time>2020-06-23T15:11:24Z</time>
      </trkpt>
      <trkpt lat="50.85407" lon="2.82288">
        <ele>15.3</ele>
        <time>2020-06-23T15:11:25Z</time>
      </trkpt>
      <trkpt lat="50.85406" lon="2.82295">
        <ele>15.4</ele>
        <time>2020-06-23T15:11:26Z</time>
      </trkpt>
      <trkpt lat="50.85404" lon="2.82301">
        <ele>15.4</ele>
        <time>2020-06-23T15:11:27Z</time>
      </trkpt>
      <trkpt lat="50.85401" lon="2.82306">
        <ele>15.5</ele>
        <time>2020-06-23T15:11:28Z</time>
      </trkpt>
      <trkpt lat="50.85399" lon="2.82312">
        <ele>15.6</ele>
        <time>2020-06-23T15:11:29Z</time>
      </trkpt>
      <trkpt lat="50.85396" lon="2.82318">
        <ele>15.7</ele>
        <time>2020-06-23T15:11:30Z</time>
      </trkpt>
      <trkpt lat="50.85394" lon="2.82324">
        <ele>15.8</ele>
        <time>2020-06-23T15:11:31Z</time>
      </trkpt>
      <trkpt lat="50.85392" lon="2.82329">
        <ele>15.9</ele>
        <time>2020-06-23T15:11:32Z</time>
      </trkpt>
      <trkpt lat="50.8539" lon="2.82336">
        <ele>16</ele>
        <time>2020-06-23T15:11:33Z</time>
      </trkpt>
      <trkpt lat="50.85388" lon="2.82342">
        <ele>16.1</ele>
        <time>2020-06-23T15:11:34Z</time>
      </trkpt>
      <trkpt lat="50.85386" lon="2.82348">
        <ele>16.2</ele>
        <time>2020-06-23T15:11:35Z</time>
      </trkpt>
      <trkpt lat="50.85385" lon="2.82354">
        <ele>16.3</ele>
        <time>2020-06-23T15:11:36Z</time>
      </trkpt>
      <trkpt lat="50.85382" lon="2.82359">
        <ele>16.4</ele>
        <time>2020-06-23T15:11:37Z</time>
      </trkpt>
      <trkpt lat="50.8538" lon="2.82365">
        <ele>16.5</ele>
        <time>2020-06-23T15:11:38Z</time>
      </trkpt>
      <trkpt lat="50.85377" lon="2.82371">
        <ele>16.6</ele>
        <time>2020-06-23T15:11:39Z</time>
      </trkpt>
      <trkpt lat="50.85374" lon="2.82376">
        <ele>16.8</ele>
        <time>2020-06-23T15:11:40Z</time>
      </trkpt>
      <trkpt lat="50.85372" lon="2.82382">
        <ele>16.9</ele>
        <time>2020-06-23T15:11:41Z</time>
      </trkpt>
      <trkpt lat="50.8537" lon="2.82387">
        <ele>17</ele>
        <time>2020-06-23T15:11:42Z</time>
      </trkpt>
      <trkpt lat="50.85369" lon="2.82392">
        <ele>17.1</ele>
        <time>2020-06-23T15:11:43Z</time>
      </trkpt>
      <trkpt lat="50.85368" lon="2.82398">
        <ele>17.2</ele>
        <time>2020-06-23T15:11:44Z</time>
      </trkpt>
      <trkpt lat="50.85366" lon="2.82403">
        <ele>17.3</ele>
        <time>2020-06-23T15:11:45Z</time>
      </trkpt>
      <trkpt lat="50.85365" lon="2.82408">
        <ele>17.3</ele>
        <time>2020-06-23T15:11:46Z</time>
      </trkpt>
      <trkpt lat="50.85363" lon="2.82412">
        <ele>17.4</ele>
        <time>2020-06-23T15:11:47Z</time>
      </trkpt>
      <trkpt lat="50.85359" lon="2.82415">
        <ele>17.5</ele>
        <time>2020-06-23T15:11:48Z</time>
      </trkpt>
      <trkpt lat="50.85356" lon="2.82415">
        <ele>17.5</ele>
        <time>2020-06-23T15:11:49Z</time>
      </trkpt>
      <trkpt lat="50.85354" lon="2.82414">
        <ele>17.5</ele>
        <time>2020-06-23T15:11:50Z</time>
      </trkpt>
      <trkpt lat="50.8535" lon="2.82411">
        <ele>17.5</ele>
        <time>2020-06-23T15:11:51Z</time>
      </trkpt>
      <trkpt lat="50.85347" lon="2.82409">
        <ele>17.5</ele>
        <time>2020-06-23T15:11:52Z</time>
      </trkpt>
      <trkpt lat="50.85342" lon="2.82406">
        <ele>17.5</ele>
        <time>2020-06-23T15:11:53Z</time>
      </trkpt>
      <trkpt lat="50.85338" lon="2.82404">
        <ele>17.5</ele>
        <time>2020-06-23T15:11:54Z</time>
      </trkpt>
      <trkpt lat="50.85334" lon="2.82403">
        <ele>17.5</ele>
        <time>2020-06-23T15:11:55Z</time>
      </trkpt>
      <trkpt lat="50.85329" lon="2.82402">
        <ele>17.5</ele>
        <time>2020-06-23T15:11:56Z</time>
      </trkpt>
      <trkpt lat="50.85327" lon="2.82399">
        <ele>17.5</ele>
        <time>2020-06-23T15:11:57Z</time>
      </trkpt>
      <trkpt lat="50.85323" lon="2.82396">
        <ele>17.5</ele>
        <time>2020-06-23T15:11:58Z</time>
      </trkpt>
      <trkpt lat="50.8532" lon="2.82393">
        <ele>17.4</ele>
        <time>2020-06-23T15:11:59Z</time>
      </trkpt>
      <trkpt lat="50.85318" lon="2.82389">
        <ele>17.4</ele>
        <time>2020-06-23T15:12:00Z</time>
      </trkpt>
      <trkpt lat="50.85317" lon="2.82388">
        <ele>17.4</ele>
        <time>2020-06-23T15:12:01Z</time>
      </trkpt>
      <trkpt lat="50.85314" lon="2.82387">
        <ele>17.4</ele>
        <time>2020-06-23T15:12:02Z</time>
      </trkpt>
      <trkpt lat="50.8531" lon="2.82388">
        <ele>17.4</ele>
        <time>2020-06-23T15:12:03Z</time>
      </trkpt>
      <trkpt lat="50.85308" lon="2.82391">
        <ele>17.4</ele>
        <time>2020-06-23T15:12:04Z</time>
      </trkpt>
      <trkpt lat="50.85306" lon="2.82395">
        <ele>17.3</ele>
        <time>2020-06-23T15:12:05Z</time>
      </trkpt>
      <trkpt lat="50.85303" lon="2.82399">
        <ele>17.2</ele>
        <time>2020-06-23T15:12:06Z</time>
      </trkpt>
      <trkpt lat="50.85299" lon="2.82405">
        <ele>17</ele>
        <time>2020-06-23T15:12:07Z</time>
      </trkpt>
      <trkpt lat="50.85296" lon="2.82411">
        <ele>16.9</ele>
        <time>2020-06-23T15:12:08Z</time>
      </trkpt>
      <trkpt lat="50.85292" lon="2.82417">
        <ele>16.8</ele>
        <time>2020-06-23T15:12:09Z</time>
      </trkpt>
      <trkpt lat="50.8529" lon="2.82423">
        <ele>16.7</ele>
        <time>2020-06-23T15:12:10Z</time>
      </trkpt>
      <trkpt lat="50.85287" lon="2.82429">
        <ele>16.6</ele>
        <time>2020-06-23T15:12:11Z</time>
      </trkpt>
      <trkpt lat="50.85285" lon="2.82435">
        <ele>16.6</ele>
        <time>2020-06-23T15:12:12Z</time>
      </trkpt>
      <trkpt lat="50.85281" lon="2.82442">
        <ele>16.5</ele>
        <time>2020-06-23T15:12:13Z</time>
      </trkpt>
      <trkpt lat="50.85278" lon="2.8245">
        <ele>16.5</ele>
        <time>2020-06-23T15:12:14Z</time>
      </trkpt>
      <trkpt lat="50.85274" lon="2.82457">
        <ele>16.5</ele>
        <time>2020-06-23T15:12:15Z</time>
      </trkpt>
      <trkpt lat="50.85272" lon="2.82463">
        <ele>16.5</ele>
        <time>2020-06-23T15:12:16Z</time>
      </trkpt>
      <trkpt lat="50.85269" lon="2.82469">
        <ele>16.5</ele>
        <time>2020-06-23T15:12:17Z</time>
      </trkpt>
      <trkpt lat="50.85267" lon="2.82476">
        <ele>16.5</ele>
        <time>2020-06-23T15:12:18Z</time>
      </trkpt>
      <trkpt lat="50.85265" lon="2.82484">
        <ele>16.5</ele>
        <time>2020-06-23T15:12:19Z</time>
      </trkpt>
      <trkpt lat="50.85263" lon="2.8249">
        <ele>16.5</ele>
        <time>2020-06-23T15:12:20Z</time>
      </trkpt>
      <trkpt lat="50.85261" lon="2.82497">
        <ele>16.5</ele>
        <time>2020-06-23T15:12:21Z</time>
      </trkpt>
      <trkpt lat="50.85259" lon="2.82504">
        <ele>16.6</ele>
        <time>2020-06-23T15:12:22Z</time>
      </trkpt>
      <trkpt lat="50.85256" lon="2.82512">
        <ele>16.6</ele>
        <time>2020-06-23T15:12:23Z</time>
      </trkpt>
      <trkpt lat="50.85254" lon="2.82518">
        <ele>16.6</ele>
        <time>2020-06-23T15:12:24Z</time>
      </trkpt>
      <trkpt lat="50.85251" lon="2.82524">
        <ele>16.6</ele>
        <time>2020-06-23T15:12:25Z</time>
      </trkpt>
      <trkpt lat="50.85249" lon="2.82531">
        <ele>16.6</ele>
        <time>2020-06-23T15:12:26Z</time>
      </trkpt>
      <trkpt lat="50.85246" lon="2.82538">
        <ele>16.6</ele>
        <time>2020-06-23T15:12:27Z</time>
      </trkpt>
      <trkpt lat="50.85243" lon="2.82545">
        <ele>16.6</ele>
        <time>2020-06-23T15:12:28Z</time>
      </trkpt>
      <trkpt lat="50.8524" lon="2.82552">
        <ele>16.6</ele>
        <time>2020-06-23T15:12:29Z</time>
      </trkpt>
      <trkpt lat="50.85238" lon="2.82559">
        <ele>16.6</ele>
        <time>2020-06-23T15:12:30Z</time>
      </trkpt>
      <trkpt lat="50.85237" lon="2.82566">
        <ele>16.6</ele>
        <time>2020-06-23T15:12:31Z</time>
      </trkpt>
      <trkpt lat="50.85235" lon="2.82572">
        <ele>16.6</ele>
        <time>2020-06-23T15:12:32Z</time>
      </trkpt>
      <trkpt lat="50.85233" lon="2.82579">
        <ele>16.7</ele>
        <time>2020-06-23T15:12:33Z</time>
      </trkpt>
      <trkpt lat="50.85231" lon="2.82586">
        <ele>16.7</ele>
        <time>2020-06-23T15:12:34Z</time>
      </trkpt>
      <trkpt lat="50.85228" lon="2.82592">
        <ele>16.7</ele>
        <time>2020-06-23T15:12:35Z</time>
      </trkpt>
      <trkpt lat="50.85226" lon="2.826">
        <ele>16.7</ele>
        <time>2020-06-23T15:12:36Z</time>
      </trkpt>
      <trkpt lat="50.85224" lon="2.82608">
        <ele>16.7</ele>
        <time>2020-06-23T15:12:37Z</time>
      </trkpt>
      <trkpt lat="50.8522" lon="2.82614">
        <ele>16.7</ele>
        <time>2020-06-23T15:12:38Z</time>
      </trkpt>
      <trkpt lat="50.85218" lon="2.82622">
        <ele>16.7</ele>
        <time>2020-06-23T15:12:39Z</time>
      </trkpt>
      <trkpt lat="50.85215" lon="2.82629">
        <ele>16.7</ele>
        <time>2020-06-23T15:12:40Z</time>
      </trkpt>
      <trkpt lat="50.85213" lon="2.82639">
        <ele>16.6</ele>
        <time>2020-06-23T15:12:41Z</time>
      </trkpt>
      <trkpt lat="50.85212" lon="2.82648">
        <ele>16.6</ele>
        <time>2020-06-23T15:12:42Z</time>
      </trkpt>
      <trkpt lat="50.8521" lon="2.82659">
        <ele>16.6</ele>
        <time>2020-06-23T15:12:43Z</time>
      </trkpt>
      <trkpt lat="50.85208" lon="2.82669">
        <ele>16.5</ele>
        <time>2020-06-23T15:12:44Z</time>
      </trkpt>
      <trkpt lat="50.85206" lon="2.82677">
        <ele>16.5</ele>
        <time>2020-06-23T15:12:45Z</time>
      </trkpt>
      <trkpt lat="50.85204" lon="2.82685">
        <ele>16.5</ele>
        <time>2020-06-23T15:12:46Z</time>
      </trkpt>
      <trkpt lat="50.85203" lon="2.82694">
        <ele>16.5</ele>
        <time>2020-06-23T15:12:47Z</time>
      </trkpt>
      <trkpt lat="50.85201" lon="2.82703">
        <ele>16.5</ele>
        <time>2020-06-23T15:12:48Z</time>
      </trkpt>
      <trkpt lat="50.85199" lon="2.82711">
        <ele>16.5</ele>
        <time>2020-06-23T15:12:49Z</time>
      </trkpt>
      <trkpt lat="50.85196" lon="2.82719">
        <ele>16.5</ele>
        <time>2020-06-23T15:12:50Z</time>
      </trkpt>
      <trkpt lat="50.85193" lon="2.82727">
        <ele>16.4</ele>
        <time>2020-06-23T15:12:51Z</time>
      </trkpt>
      <trkpt lat="50.85189" lon="2.82733">
        <ele>16.4</ele>
        <time>2020-06-23T15:12:52Z</time>
      </trkpt>
      <trkpt lat="50.85187" lon="2.82741">
        <ele>16.4</ele>
        <time>2020-06-23T15:12:53Z</time>
      </trkpt>
      <trkpt lat="50.85184" lon="2.8275">
        <ele>16.4</ele>
        <time>2020-06-23T15:12:54Z</time>
      </trkpt>
      <trkpt lat="50.85182" lon="2.82758">
        <ele>16.3</ele>
        <time>2020-06-23T15:12:55Z</time>
      </trkpt>
      <trkpt lat="50.85178" lon="2.82766">
        <ele>16.3</ele>
        <time>2020-06-23T15:12:56Z</time>
      </trkpt>
      <trkpt lat="50.85175" lon="2.82773">
        <ele>16.3</ele>
        <time>2020-06-23T15:12:57Z</time>
      </trkpt>
      <trkpt lat="50.85171" lon="2.82778">
        <ele>16.3</ele>
        <time>2020-06-23T15:12:58Z</time>
      </trkpt>
      <trkpt lat="50.85166" lon="2.82784">
        <ele>16.2</ele>
        <time>2020-06-23T15:12:59Z</time>
      </trkpt>
      <trkpt lat="50.85162" lon="2.8279">
        <ele>16.2</ele>
        <time>2020-06-23T15:13:00Z</time>
      </trkpt>
      <trkpt lat="50.85157" lon="2.82795">
        <ele>16.2</ele>
        <time>2020-06-23T15:13:01Z</time>
      </trkpt>
      <trkpt lat="50.85153" lon="2.82803">
        <ele>16.2</ele>
        <time>2020-06-23T15:13:02Z</time>
      </trkpt>
      <trkpt lat="50.85149" lon="2.82809">
        <ele>16.2</ele>
        <time>2020-06-23T15:13:03Z</time>
      </trkpt>
      <trkpt lat="50.85146" lon="2.82817">
        <ele>16.2</ele>
        <time>2020-06-23T15:13:04Z</time>
      </trkpt>
      <trkpt lat="50.85141" lon="2.82823">
        <ele>16.2</ele>
        <time>2020-06-23T15:13:05Z</time>
      </trkpt>
      <trkpt lat="50.85137" lon="2.82829">
        <ele>16.2</ele>
        <time>2020-06-23T15:13:06Z</time>
      </trkpt>
      <trkpt lat="50.85133" lon="2.82835">
        <ele>16.2</ele>
        <time>2020-06-23T15:13:07Z</time>
      </trkpt>
      <trkpt lat="50.8513" lon="2.82841">
        <ele>16.2</ele>
        <time>2020-06-23T15:13:08Z</time>
      </trkpt>
      <trkpt lat="50.85126" lon="2.82849">
        <ele>16.2</ele>
        <time>2020-06-23T15:13:09Z</time>
      </trkpt>
      <trkpt lat="50.85123" lon="2.82856">
        <ele>16.1</ele>
        <time>2020-06-23T15:13:10Z</time>
      </trkpt>
      <trkpt lat="50.8512" lon="2.82863">
        <ele>16.1</ele>
        <time>2020-06-23T15:13:11Z</time>
      </trkpt>
      <trkpt lat="50.85116" lon="2.8287">
        <ele>16.1</ele>
        <time>2020-06-23T15:13:12Z</time>
      </trkpt>
      <trkpt lat="50.85112" lon="2.82877">
        <ele>16.1</ele>
        <time>2020-06-23T15:13:13Z</time>
      </trkpt>
      <trkpt lat="50.85108" lon="2.82884">
        <ele>16.1</ele>
        <time>2020-06-23T15:13:14Z</time>
      </trkpt>
      <trkpt lat="50.85105" lon="2.82891">
        <ele>16</ele>
        <time>2020-06-23T15:13:15Z</time>
      </trkpt>
      <trkpt lat="50.85101" lon="2.82898">
        <ele>16</ele>
        <time>2020-06-23T15:13:16Z</time>
      </trkpt>
      <trkpt lat="50.85097" lon="2.82905">
        <ele>16</ele>
        <time>2020-06-23T15:13:17Z</time>
      </trkpt>
      <trkpt lat="50.85093" lon="2.82913">
        <ele>16</ele>
        <time>2020-06-23T15:13:18Z</time>
      </trkpt>
      <trkpt lat="50.85089" lon="2.8292">
        <ele>16</ele>
        <time>2020-06-23T15:13:19Z</time>
      </trkpt>
      <trkpt lat="50.85085" lon="2.82927">
        <ele>15.9</ele>
        <time>2020-06-23T15:13:20Z</time>
      </trkpt>
      <trkpt lat="50.85081" lon="2.82934">
        <ele>15.9</ele>
        <time>2020-06-23T15:13:21Z</time>
      </trkpt>
      <trkpt lat="50.85077" lon="2.82941">
        <ele>15.9</ele>
        <time>2020-06-23T15:13:22Z</time>
      </trkpt>
      <trkpt lat="50.85073" lon="2.8295">
        <ele>15.9</ele>
        <time>2020-06-23T15:13:23Z</time>
      </trkpt>
      <trkpt lat="50.85069" lon="2.82957">
        <ele>15.9</ele>
        <time>2020-06-23T15:13:24Z</time>
      </trkpt>
      <trkpt lat="50.85065" lon="2.82964">
        <ele>15.9</ele>
        <time>2020-06-23T15:13:25Z</time>
      </trkpt>
      <trkpt lat="50.8506" lon="2.82971">
        <ele>15.9</ele>
        <time>2020-06-23T15:13:26Z</time>
      </trkpt>
      <trkpt lat="50.85055" lon="2.82978">
        <ele>15.8</ele>
        <time>2020-06-23T15:13:27Z</time>
      </trkpt>
      <trkpt lat="50.85051" lon="2.82983">
        <ele>15.8</ele>
        <time>2020-06-23T15:13:28Z</time>
      </trkpt>
      <trkpt lat="50.85046" lon="2.8299">
        <ele>15.8</ele>
        <time>2020-06-23T15:13:29Z</time>
      </trkpt>
      <trkpt lat="50.85041" lon="2.82996">
        <ele>15.7</ele>
        <time>2020-06-23T15:13:30Z</time>
      </trkpt>
      <trkpt lat="50.85035" lon="2.83001">
        <ele>15.7</ele>
        <time>2020-06-23T15:13:31Z</time>
      </trkpt>
      <trkpt lat="50.85031" lon="2.83006">
        <ele>15.6</ele>
        <time>2020-06-23T15:13:32Z</time>
      </trkpt>
      <trkpt lat="50.85026" lon="2.83011">
        <ele>15.6</ele>
        <time>2020-06-23T15:13:33Z</time>
      </trkpt>
      <trkpt lat="50.85021" lon="2.83015">
        <ele>15.6</ele>
        <time>2020-06-23T15:13:34Z</time>
      </trkpt>
      <trkpt lat="50.85016" lon="2.83019">
        <ele>15.5</ele>
        <time>2020-06-23T15:13:35Z</time>
      </trkpt>
      <trkpt lat="50.8501" lon="2.83024">
        <ele>15.5</ele>
        <time>2020-06-23T15:13:36Z</time>
      </trkpt>
      <trkpt lat="50.85004" lon="2.83027">
        <ele>15.5</ele>
        <time>2020-06-23T15:13:37Z</time>
      </trkpt>
      <trkpt lat="50.85" lon="2.83031">
        <ele>15.5</ele>
        <time>2020-06-23T15:13:38Z</time>
      </trkpt>
      <trkpt lat="50.84996" lon="2.83035">
        <ele>15.6</ele>
        <time>2020-06-23T15:13:39Z</time>
      </trkpt>
      <trkpt lat="50.8499" lon="2.83039">
        <ele>15.7</ele>
        <time>2020-06-23T15:13:40Z</time>
      </trkpt>
      <trkpt lat="50.84985" lon="2.83042">
        <ele>15.8</ele>
        <time>2020-06-23T15:13:41Z</time>
      </trkpt>
      <trkpt lat="50.8498" lon="2.83046">
        <ele>16</ele>
        <time>2020-06-23T15:13:42Z</time>
      </trkpt>
      <trkpt lat="50.84975" lon="2.83049">
        <ele>16.2</ele>
        <time>2020-06-23T15:13:43Z</time>
      </trkpt>
      <trkpt lat="50.84969" lon="2.83052">
        <ele>16.3</ele>
        <time>2020-06-23T15:13:44Z</time>
      </trkpt>
      <trkpt lat="50.84963" lon="2.83057">
        <ele>16.3</ele>
        <time>2020-06-23T15:13:45Z</time>
      </trkpt>
      <trkpt lat="50.84958" lon="2.83061">
        <ele>16.3</ele>
        <time>2020-06-23T15:13:46Z</time>
      </trkpt>
      <trkpt lat="50.84952" lon="2.83065">
        <ele>16.2</ele>
        <time>2020-06-23T15:13:47Z</time>
      </trkpt>
      <trkpt lat="50.84946" lon="2.8307">
        <ele>16.2</ele>
        <time>2020-06-23T15:13:48Z</time>
      </trkpt>
      <trkpt lat="50.84941" lon="2.83074">
        <ele>16.2</ele>
        <time>2020-06-23T15:13:49Z</time>
      </trkpt>
      <trkpt lat="50.84936" lon="2.83078">
        <ele>16.2</ele>
        <time>2020-06-23T15:13:50Z</time>
      </trkpt>
      <trkpt lat="50.84932" lon="2.83082">
        <ele>16.2</ele>
        <time>2020-06-23T15:13:51Z</time>
      </trkpt>
      <trkpt lat="50.84927" lon="2.83085">
        <ele>16.2</ele>
        <time>2020-06-23T15:13:52Z</time>
      </trkpt>
      <trkpt lat="50.84922" lon="2.8309">
        <ele>16.2</ele>
        <time>2020-06-23T15:13:53Z</time>
      </trkpt>
      <trkpt lat="50.84917" lon="2.83094">
        <ele>16.2</ele>
        <time>2020-06-23T15:13:54Z</time>
      </trkpt>
      <trkpt lat="50.84913" lon="2.83099">
        <ele>16.2</ele>
        <time>2020-06-23T15:13:55Z</time>
      </trkpt>
      <trkpt lat="50.84907" lon="2.83104">
        <ele>16.2</ele>
        <time>2020-06-23T15:13:56Z</time>
      </trkpt>
      <trkpt lat="50.84903" lon="2.83109">
        <ele>16.2</ele>
        <time>2020-06-23T15:13:57Z</time>
      </trkpt>
      <trkpt lat="50.84898" lon="2.83115">
        <ele>16.2</ele>
        <time>2020-06-23T15:13:58Z</time>
      </trkpt>
      <trkpt lat="50.84893" lon="2.83121">
        <ele>16.2</ele>
        <time>2020-06-23T15:13:59Z</time>
      </trkpt>
      <trkpt lat="50.84887" lon="2.83126">
        <ele>16.3</ele>
        <time>2020-06-23T15:14:00Z</time>
      </trkpt>
      <trkpt lat="50.84882" lon="2.83132">
        <ele>16.3</ele>
        <time>2020-06-23T15:14:01Z</time>
      </trkpt>
      <trkpt lat="50.84878" lon="2.83139">
        <ele>16.4</ele>
        <time>2020-06-23T15:14:02Z</time>
      </trkpt>
      <trkpt lat="50.84873" lon="2.83145">
        <ele>16.4</ele>
        <time>2020-06-23T15:14:03Z</time>
      </trkpt>
      <trkpt lat="50.84869" lon="2.8315">
        <ele>16.5</ele>
        <time>2020-06-23T15:14:04Z</time>
      </trkpt>
      <trkpt lat="50.84864" lon="2.83156">
        <ele>16.5</ele>
        <time>2020-06-23T15:14:05Z</time>
      </trkpt>
      <trkpt lat="50.84859" lon="2.83163">
        <ele>16.6</ele>
        <time>2020-06-23T15:14:06Z</time>
      </trkpt>
      <trkpt lat="50.84856" lon="2.83168">
        <ele>16.6</ele>
        <time>2020-06-23T15:14:07Z</time>
      </trkpt>
      <trkpt lat="50.84852" lon="2.83174">
        <ele>16.7</ele>
        <time>2020-06-23T15:14:08Z</time>
      </trkpt>
      <trkpt lat="50.84848" lon="2.83181">
        <ele>16.7</ele>
        <time>2020-06-23T15:14:09Z</time>
      </trkpt>
      <trkpt lat="50.84843" lon="2.83187">
        <ele>16.7</ele>
        <time>2020-06-23T15:14:10Z</time>
      </trkpt>
      <trkpt lat="50.8484" lon="2.83193">
        <ele>16.8</ele>
        <time>2020-06-23T15:14:11Z</time>
      </trkpt>
      <trkpt lat="50.84835" lon="2.83197">
        <ele>16.8</ele>
        <time>2020-06-23T15:14:12Z</time>
      </trkpt>
      <trkpt lat="50.84832" lon="2.83202">
        <ele>16.8</ele>
        <time>2020-06-23T15:14:13Z</time>
      </trkpt>
      <trkpt lat="50.84829" lon="2.83206">
        <ele>16.9</ele>
        <time>2020-06-23T15:14:14Z</time>
      </trkpt>
      <trkpt lat="50.84826" lon="2.83212">
        <ele>16.9</ele>
        <time>2020-06-23T15:14:15Z</time>
      </trkpt>
      <trkpt lat="50.84823" lon="2.83217">
        <ele>17</ele>
        <time>2020-06-23T15:14:16Z</time>
      </trkpt>
      <trkpt lat="50.84819" lon="2.8322">
        <ele>17.1</ele>
        <time>2020-06-23T15:14:17Z</time>
      </trkpt>
      <trkpt lat="50.84817" lon="2.83223">
        <ele>17.1</ele>
        <time>2020-06-23T15:14:18Z</time>
      </trkpt>
      <trkpt lat="50.84814" lon="2.83226">
        <ele>17.2</ele>
        <time>2020-06-23T15:14:19Z</time>
      </trkpt>
      <trkpt lat="50.84813" lon="2.83227">
        <ele>17.2</ele>
        <time>2020-06-23T15:14:20Z</time>
      </trkpt>
      <trkpt lat="50.84811" lon="2.83228">
        <ele>17.2</ele>
        <time>2020-06-23T15:14:21Z</time>
      </trkpt>
      <trkpt lat="50.8481" lon="2.8323">
        <ele>17.3</ele>
        <time>2020-06-23T15:14:22Z</time>
      </trkpt>
      <trkpt lat="50.84809" lon="2.8323">
        <ele>17.3</ele>
        <time>2020-06-23T15:14:23Z</time>
      </trkpt>
      <trkpt lat="50.84807" lon="2.83229">
        <ele>17.4</ele>
        <time>2020-06-23T15:14:24Z</time>
      </trkpt>
      <trkpt lat="50.84807" lon="2.83228">
        <ele>17.4</ele>
        <time>2020-06-23T15:14:25Z</time>
      </trkpt>
      <trkpt lat="50.84807" lon="2.83227">
        <ele>17.4</ele>
        <time>2020-06-23T15:14:26Z</time>
      </trkpt>
      <trkpt lat="50.84807" lon="2.83227">
        <ele>17.4</ele>
        <time>2020-06-23T15:14:27Z</time>
      </trkpt>
      <trkpt lat="50.84809" lon="2.83227">
        <ele>17.4</ele>
        <time>2020-06-23T15:14:28Z</time>
      </trkpt>
      <trkpt lat="50.8481" lon="2.83227">
        <ele>17.5</ele>
        <time>2020-06-23T15:14:29Z</time>
      </trkpt>
      <trkpt lat="50.8481" lon="2.83229">
        <ele>17.5</ele>
        <time>2020-06-23T15:14:30Z</time>
      </trkpt>
      <trkpt lat="50.84809" lon="2.8323">
        <ele>17.5</ele>
        <time>2020-06-23T15:14:31Z</time>
      </trkpt>
      <trkpt lat="50.84808" lon="2.83231">
        <ele>17.6</ele>
        <time>2020-06-23T15:14:32Z</time>
      </trkpt>
      <trkpt lat="50.84807" lon="2.83233">
        <ele>17.6</ele>
        <time>2020-06-23T15:14:33Z</time>
      </trkpt>
      <trkpt lat="50.84807" lon="2.83234">
        <ele>17.6</ele>
        <time>2020-06-23T15:14:34Z</time>
      </trkpt>
      <trkpt lat="50.84806" lon="2.83235">
        <ele>17.7</ele>
        <time>2020-06-23T15:14:46Z</time>
      </trkpt>
      <trkpt lat="50.84805" lon="2.83237">
        <ele>17.7</ele>
        <time>2020-06-23T15:14:47Z</time>
      </trkpt>
      <trkpt lat="50.84802" lon="2.83241">
        <ele>17.8</ele>
        <time>2020-06-23T15:14:48Z</time>
      </trkpt>
      <trkpt lat="50.84801" lon="2.83242">
        <ele>17.8</ele>
        <time>2020-06-23T15:14:49Z</time>
      </trkpt>
      <trkpt lat="50.84798" lon="2.83245">
        <ele>17.9</ele>
        <time>2020-06-23T15:14:50Z</time>
      </trkpt>
      <trkpt lat="50.84795" lon="2.8325">
        <ele>17.9</ele>
        <time>2020-06-23T15:14:51Z</time>
      </trkpt>
      <trkpt lat="50.84792" lon="2.83255">
        <ele>17.9</ele>
        <time>2020-06-23T15:14:52Z</time>
      </trkpt>
      <trkpt lat="50.84789" lon="2.8326">
        <ele>18</ele>
        <time>2020-06-23T15:14:53Z</time>
      </trkpt>
      <trkpt lat="50.84786" lon="2.83265">
        <ele>18</ele>
        <time>2020-06-23T15:14:54Z</time>
      </trkpt>
      <trkpt lat="50.84782" lon="2.83271">
        <ele>18</ele>
        <time>2020-06-23T15:14:55Z</time>
      </trkpt>
      <trkpt lat="50.84779" lon="2.83278">
        <ele>18</ele>
        <time>2020-06-23T15:14:56Z</time>
      </trkpt>
      <trkpt lat="50.84776" lon="2.83285">
        <ele>18</ele>
        <time>2020-06-23T15:14:57Z</time>
      </trkpt>
      <trkpt lat="50.84773" lon="2.83292">
        <ele>18</ele>
        <time>2020-06-23T15:14:58Z</time>
      </trkpt>
      <trkpt lat="50.8477" lon="2.83299">
        <ele>18</ele>
        <time>2020-06-23T15:14:59Z</time>
      </trkpt>
      <trkpt lat="50.84767" lon="2.83306">
        <ele>18</ele>
        <time>2020-06-23T15:15:00Z</time>
      </trkpt>
      <trkpt lat="50.84763" lon="2.83313">
        <ele>18</ele>
        <time>2020-06-23T15:15:01Z</time>
      </trkpt>
      <trkpt lat="50.8476" lon="2.83319">
        <ele>18</ele>
        <time>2020-06-23T15:15:02Z</time>
      </trkpt>
      <trkpt lat="50.84756" lon="2.83326">
        <ele>18</ele>
        <time>2020-06-23T15:15:03Z</time>
      </trkpt>
      <trkpt lat="50.84753" lon="2.83333">
        <ele>18.1</ele>
        <time>2020-06-23T15:15:04Z</time>
      </trkpt>
      <trkpt lat="50.8475" lon="2.83339">
        <ele>18.1</ele>
        <time>2020-06-23T15:15:05Z</time>
      </trkpt>
      <trkpt lat="50.84747" lon="2.83344">
        <ele>18.1</ele>
        <time>2020-06-23T15:15:06Z</time>
      </trkpt>
      <trkpt lat="50.84744" lon="2.8335">
        <ele>18.1</ele>
        <time>2020-06-23T15:15:07Z</time>
      </trkpt>
      <trkpt lat="50.8474" lon="2.83356">
        <ele>18.1</ele>
        <time>2020-06-23T15:15:08Z</time>
      </trkpt>
      <trkpt lat="50.84736" lon="2.83361">
        <ele>18.1</ele>
        <time>2020-06-23T15:15:09Z</time>
      </trkpt>
      <trkpt lat="50.84731" lon="2.83367">
        <ele>18.1</ele>
        <time>2020-06-23T15:15:10Z</time>
      </trkpt>
      <trkpt lat="50.84727" lon="2.83374">
        <ele>18.1</ele>
        <time>2020-06-23T15:15:11Z</time>
      </trkpt>
      <trkpt lat="50.84723" lon="2.8338">
        <ele>18.1</ele>
        <time>2020-06-23T15:15:12Z</time>
      </trkpt>
      <trkpt lat="50.84719" lon="2.83386">
        <ele>18.1</ele>
        <time>2020-06-23T15:15:13Z</time>
      </trkpt>
      <trkpt lat="50.84715" lon="2.83393">
        <ele>18.2</ele>
        <time>2020-06-23T15:15:14Z</time>
      </trkpt>
      <trkpt lat="50.84712" lon="2.83399">
        <ele>18.2</ele>
        <time>2020-06-23T15:15:15Z</time>
      </trkpt>
      <trkpt lat="50.84708" lon="2.83405">
        <ele>18.2</ele>
        <time>2020-06-23T15:15:16Z</time>
      </trkpt>
      <trkpt lat="50.84704" lon="2.8341">
        <ele>18.2</ele>
        <time>2020-06-23T15:15:17Z</time>
      </trkpt>
      <trkpt lat="50.84699" lon="2.83416">
        <ele>18.3</ele>
        <time>2020-06-23T15:15:18Z</time>
      </trkpt>
      <trkpt lat="50.84696" lon="2.83424">
        <ele>18.3</ele>
        <time>2020-06-23T15:15:19Z</time>
      </trkpt>
      <trkpt lat="50.84692" lon="2.83431">
        <ele>18.4</ele>
        <time>2020-06-23T15:15:20Z</time>
      </trkpt>
      <trkpt lat="50.84687" lon="2.83438">
        <ele>18.4</ele>
        <time>2020-06-23T15:15:21Z</time>
      </trkpt>
      <trkpt lat="50.84682" lon="2.83444">
        <ele>18.5</ele>
        <time>2020-06-23T15:15:22Z</time>
      </trkpt>
      <trkpt lat="50.84678" lon="2.8345">
        <ele>18.5</ele>
        <time>2020-06-23T15:15:23Z</time>
      </trkpt>
      <trkpt lat="50.84674" lon="2.83458">
        <ele>18.6</ele>
        <time>2020-06-23T15:15:24Z</time>
      </trkpt>
      <trkpt lat="50.8467" lon="2.83465">
        <ele>18.6</ele>
        <time>2020-06-23T15:15:25Z</time>
      </trkpt>
      <trkpt lat="50.84666" lon="2.83473">
        <ele>18.7</ele>
        <time>2020-06-23T15:15:26Z</time>
      </trkpt>
      <trkpt lat="50.84662" lon="2.83482">
        <ele>18.8</ele>
        <time>2020-06-23T15:15:27Z</time>
      </trkpt>
      <trkpt lat="50.84658" lon="2.83487">
        <ele>18.9</ele>
        <time>2020-06-23T15:15:28Z</time>
      </trkpt>
      <trkpt lat="50.84654" lon="2.83493">
        <ele>19</ele>
        <time>2020-06-23T15:15:29Z</time>
      </trkpt>
      <trkpt lat="50.84649" lon="2.83497">
        <ele>19</ele>
        <time>2020-06-23T15:15:30Z</time>
      </trkpt>
      <trkpt lat="50.84644" lon="2.83501">
        <ele>19</ele>
        <time>2020-06-23T15:15:31Z</time>
      </trkpt>
      <trkpt lat="50.84639" lon="2.83506">
        <ele>19</ele>
        <time>2020-06-23T15:15:32Z</time>
      </trkpt>
      <trkpt lat="50.84634" lon="2.83509">
        <ele>19</ele>
        <time>2020-06-23T15:15:33Z</time>
      </trkpt>
      <trkpt lat="50.84628" lon="2.83514">
        <ele>19.1</ele>
        <time>2020-06-23T15:15:34Z</time>
      </trkpt>
      <trkpt lat="50.84623" lon="2.83518">
        <ele>19.1</ele>
        <time>2020-06-23T15:15:35Z</time>
      </trkpt>
      <trkpt lat="50.84616" lon="2.83522">
        <ele>19.1</ele>
        <time>2020-06-23T15:15:36Z</time>
      </trkpt>
      <trkpt lat="50.8461" lon="2.83526">
        <ele>19</ele>
        <time>2020-06-23T15:15:37Z</time>
      </trkpt>
      <trkpt lat="50.84604" lon="2.83529">
        <ele>18.9</ele>
        <time>2020-06-23T15:15:38Z</time>
      </trkpt>
      <trkpt lat="50.84599" lon="2.83533">
        <ele>18.9</ele>
        <time>2020-06-23T15:15:39Z</time>
      </trkpt>
      <trkpt lat="50.84594" lon="2.83537">
        <ele>18.8</ele>
        <time>2020-06-23T15:15:40Z</time>
      </trkpt>
      <trkpt lat="50.84589" lon="2.83541">
        <ele>18.8</ele>
        <time>2020-06-23T15:15:41Z</time>
      </trkpt>
      <trkpt lat="50.84583" lon="2.83545">
        <ele>18.7</ele>
        <time>2020-06-23T15:15:42Z</time>
      </trkpt>
      <trkpt lat="50.84578" lon="2.83549">
        <ele>18.7</ele>
        <time>2020-06-23T15:15:43Z</time>
      </trkpt>
      <trkpt lat="50.84572" lon="2.83554">
        <ele>18.7</ele>
        <time>2020-06-23T15:15:44Z</time>
      </trkpt>
      <trkpt lat="50.84566" lon="2.83558">
        <ele>18.7</ele>
        <time>2020-06-23T15:15:45Z</time>
      </trkpt>
      <trkpt lat="50.8456" lon="2.83562">
        <ele>18.7</ele>
        <time>2020-06-23T15:15:46Z</time>
      </trkpt>
      <trkpt lat="50.84554" lon="2.83566">
        <ele>18.7</ele>
        <time>2020-06-23T15:15:47Z</time>
      </trkpt>
      <trkpt lat="50.84548" lon="2.83569">
        <ele>18.7</ele>
        <time>2020-06-23T15:15:48Z</time>
      </trkpt>
      <trkpt lat="50.84544" lon="2.83572">
        <ele>18.7</ele>
        <time>2020-06-23T15:15:49Z</time>
      </trkpt>
      <trkpt lat="50.84539" lon="2.83576">
        <ele>18.7</ele>
        <time>2020-06-23T15:15:50Z</time>
      </trkpt>
      <trkpt lat="50.84533" lon="2.8358">
        <ele>18.7</ele>
        <time>2020-06-23T15:15:51Z</time>
      </trkpt>
      <trkpt lat="50.84526" lon="2.83586">
        <ele>18.7</ele>
        <time>2020-06-23T15:15:52Z</time>
      </trkpt>
      <trkpt lat="50.84521" lon="2.83589">
        <ele>18.8</ele>
        <time>2020-06-23T15:15:53Z</time>
      </trkpt>
      <trkpt lat="50.84515" lon="2.83593">
        <ele>18.8</ele>
        <time>2020-06-23T15:15:54Z</time>
      </trkpt>
      <trkpt lat="50.8451" lon="2.83597">
        <ele>18.8</ele>
        <time>2020-06-23T15:15:55Z</time>
      </trkpt>
      <trkpt lat="50.84504" lon="2.83601">
        <ele>18.8</ele>
        <time>2020-06-23T15:15:56Z</time>
      </trkpt>
      <trkpt lat="50.84498" lon="2.83605">
        <ele>18.8</ele>
        <time>2020-06-23T15:15:57Z</time>
      </trkpt>
      <trkpt lat="50.84492" lon="2.8361">
        <ele>18.8</ele>
        <time>2020-06-23T15:15:58Z</time>
      </trkpt>
      <trkpt lat="50.84486" lon="2.83615">
        <ele>18.8</ele>
        <time>2020-06-23T15:15:59Z</time>
      </trkpt>
      <trkpt lat="50.84481" lon="2.83619">
        <ele>18.9</ele>
        <time>2020-06-23T15:16:00Z</time>
      </trkpt>
      <trkpt lat="50.84475" lon="2.83622">
        <ele>18.9</ele>
        <time>2020-06-23T15:16:01Z</time>
      </trkpt>
      <trkpt lat="50.8447" lon="2.83627">
        <ele>18.9</ele>
        <time>2020-06-23T15:16:02Z</time>
      </trkpt>
      <trkpt lat="50.84464" lon="2.83631">
        <ele>18.9</ele>
        <time>2020-06-23T15:16:03Z</time>
      </trkpt>
      <trkpt lat="50.84458" lon="2.83635">
        <ele>18.9</ele>
        <time>2020-06-23T15:16:04Z</time>
      </trkpt>
      <trkpt lat="50.84452" lon="2.8364">
        <ele>18.9</ele>
        <time>2020-06-23T15:16:05Z</time>
      </trkpt>
      <trkpt lat="50.84445" lon="2.83644">
        <ele>18.9</ele>
        <time>2020-06-23T15:16:06Z</time>
      </trkpt>
      <trkpt lat="50.84439" lon="2.83649">
        <ele>18.8</ele>
        <time>2020-06-23T15:16:07Z</time>
      </trkpt>
      <trkpt lat="50.84434" lon="2.83653">
        <ele>18.8</ele>
        <time>2020-06-23T15:16:08Z</time>
      </trkpt>
      <trkpt lat="50.84427" lon="2.83657">
        <ele>18.8</ele>
        <time>2020-06-23T15:16:09Z</time>
      </trkpt>
      <trkpt lat="50.84421" lon="2.83662">
        <ele>18.8</ele>
        <time>2020-06-23T15:16:10Z</time>
      </trkpt>
      <trkpt lat="50.84415" lon="2.83666">
        <ele>18.8</ele>
        <time>2020-06-23T15:16:11Z</time>
      </trkpt>
      <trkpt lat="50.84409" lon="2.83669">
        <ele>18.7</ele>
        <time>2020-06-23T15:16:12Z</time>
      </trkpt>
      <trkpt lat="50.84404" lon="2.83673">
        <ele>18.7</ele>
        <time>2020-06-23T15:16:13Z</time>
      </trkpt>
      <trkpt lat="50.84398" lon="2.83677">
        <ele>18.6</ele>
        <time>2020-06-23T15:16:14Z</time>
      </trkpt>
      <trkpt lat="50.84391" lon="2.83681">
        <ele>18.6</ele>
        <time>2020-06-23T15:16:15Z</time>
      </trkpt>
      <trkpt lat="50.84386" lon="2.83685">
        <ele>18.6</ele>
        <time>2020-06-23T15:16:16Z</time>
      </trkpt>
      <trkpt lat="50.8438" lon="2.83689">
        <ele>18.6</ele>
        <time>2020-06-23T15:16:17Z</time>
      </trkpt>
      <trkpt lat="50.84374" lon="2.83693">
        <ele>18.6</ele>
        <time>2020-06-23T15:16:18Z</time>
      </trkpt>
      <trkpt lat="50.84368" lon="2.83697">
        <ele>18.5</ele>
        <time>2020-06-23T15:16:19Z</time>
      </trkpt>
      <trkpt lat="50.84362" lon="2.83701">
        <ele>18.5</ele>
        <time>2020-06-23T15:16:20Z</time>
      </trkpt>
      <trkpt lat="50.84356" lon="2.83707">
        <ele>18.4</ele>
        <time>2020-06-23T15:16:21Z</time>
      </trkpt>
      <trkpt lat="50.84349" lon="2.83711">
        <ele>18.4</ele>
        <time>2020-06-23T15:16:22Z</time>
      </trkpt>
      <trkpt lat="50.84343" lon="2.83716">
        <ele>18.3</ele>
        <time>2020-06-23T15:16:23Z</time>
      </trkpt>
      <trkpt lat="50.84337" lon="2.83721">
        <ele>18.3</ele>
        <time>2020-06-23T15:16:24Z</time>
      </trkpt>
      <trkpt lat="50.84332" lon="2.83726">
        <ele>18.3</ele>
        <time>2020-06-23T15:16:25Z</time>
      </trkpt>
      <trkpt lat="50.84327" lon="2.83732">
        <ele>18.2</ele>
        <time>2020-06-23T15:16:26Z</time>
      </trkpt>
      <trkpt lat="50.84323" lon="2.83738">
        <ele>18.2</ele>
        <time>2020-06-23T15:16:27Z</time>
      </trkpt>
      <trkpt lat="50.84318" lon="2.83745">
        <ele>18.1</ele>
        <time>2020-06-23T15:16:28Z</time>
      </trkpt>
      <trkpt lat="50.84314" lon="2.83752">
        <ele>18.1</ele>
        <time>2020-06-23T15:16:29Z</time>
      </trkpt>
      <trkpt lat="50.84309" lon="2.83759">
        <ele>18</ele>
        <time>2020-06-23T15:16:30Z</time>
      </trkpt>
      <trkpt lat="50.84305" lon="2.83767">
        <ele>18</ele>
        <time>2020-06-23T15:16:31Z</time>
      </trkpt>
      <trkpt lat="50.84301" lon="2.83776">
        <ele>17.9</ele>
        <time>2020-06-23T15:16:32Z</time>
      </trkpt>
      <trkpt lat="50.84297" lon="2.83785">
        <ele>17.8</ele>
        <time>2020-06-23T15:16:33Z</time>
      </trkpt>
      <trkpt lat="50.84293" lon="2.83793">
        <ele>17.8</ele>
        <time>2020-06-23T15:16:34Z</time>
      </trkpt>
      <trkpt lat="50.84289" lon="2.83802">
        <ele>17.7</ele>
        <time>2020-06-23T15:16:35Z</time>
      </trkpt>
      <trkpt lat="50.84285" lon="2.83811">
        <ele>17.6</ele>
        <time>2020-06-23T15:16:36Z</time>
      </trkpt>
      <trkpt lat="50.84281" lon="2.83818">
        <ele>17.6</ele>
        <time>2020-06-23T15:16:37Z</time>
      </trkpt>
      <trkpt lat="50.84276" lon="2.83827">
        <ele>17.5</ele>
        <time>2020-06-23T15:16:38Z</time>
      </trkpt>
      <trkpt lat="50.84272" lon="2.83834">
        <ele>17.5</ele>
        <time>2020-06-23T15:16:39Z</time>
      </trkpt>
      <trkpt lat="50.84268" lon="2.83842">
        <ele>17.5</ele>
        <time>2020-06-23T15:16:40Z</time>
      </trkpt>
      <trkpt lat="50.84264" lon="2.8385">
        <ele>17.4</ele>
        <time>2020-06-23T15:16:41Z</time>
      </trkpt>
      <trkpt lat="50.84261" lon="2.83858">
        <ele>17.4</ele>
        <time>2020-06-23T15:16:42Z</time>
      </trkpt>
      <trkpt lat="50.84257" lon="2.83866">
        <ele>17.4</ele>
        <time>2020-06-23T15:16:43Z</time>
      </trkpt>
      <trkpt lat="50.84252" lon="2.83875">
        <ele>17.4</ele>
        <time>2020-06-23T15:16:44Z</time>
      </trkpt>
      <trkpt lat="50.84248" lon="2.83882">
        <ele>17.4</ele>
        <time>2020-06-23T15:16:45Z</time>
      </trkpt>
      <trkpt lat="50.84244" lon="2.8389">
        <ele>17.4</ele>
        <time>2020-06-23T15:16:46Z</time>
      </trkpt>
      <trkpt lat="50.84241" lon="2.83896">
        <ele>17.3</ele>
        <time>2020-06-23T15:16:47Z</time>
      </trkpt>
      <trkpt lat="50.84237" lon="2.83903">
        <ele>17.3</ele>
        <time>2020-06-23T15:16:48Z</time>
      </trkpt>
      <trkpt lat="50.84233" lon="2.83912">
        <ele>17.3</ele>
        <time>2020-06-23T15:16:49Z</time>
      </trkpt>
      <trkpt lat="50.8423" lon="2.83919">
        <ele>17.3</ele>
        <time>2020-06-23T15:16:50Z</time>
      </trkpt>
      <trkpt lat="50.84226" lon="2.83926">
        <ele>17.3</ele>
        <time>2020-06-23T15:16:51Z</time>
      </trkpt>
      <trkpt lat="50.84222" lon="2.83934">
        <ele>17.2</ele>
        <time>2020-06-23T15:16:52Z</time>
      </trkpt>
      <trkpt lat="50.84218" lon="2.83941">
        <ele>17.2</ele>
        <time>2020-06-23T15:16:53Z</time>
      </trkpt>
      <trkpt lat="50.84213" lon="2.83948">
        <ele>17.1</ele>
        <time>2020-06-23T15:16:54Z</time>
      </trkpt>
      <trkpt lat="50.84208" lon="2.83954">
        <ele>17.1</ele>
        <time>2020-06-23T15:16:55Z</time>
      </trkpt>
      <trkpt lat="50.84204" lon="2.8396">
        <ele>17.1</ele>
        <time>2020-06-23T15:16:56Z</time>
      </trkpt>
      <trkpt lat="50.84198" lon="2.83965">
        <ele>17</ele>
        <time>2020-06-23T15:16:57Z</time>
      </trkpt>
      <trkpt lat="50.84191" lon="2.83967">
        <ele>17</ele>
        <time>2020-06-23T15:16:58Z</time>
      </trkpt>
      <trkpt lat="50.84186" lon="2.83967">
        <ele>16.9</ele>
        <time>2020-06-23T15:16:59Z</time>
      </trkpt>
      <trkpt lat="50.84179" lon="2.83967">
        <ele>16.9</ele>
        <time>2020-06-23T15:17:00Z</time>
      </trkpt>
      <trkpt lat="50.84173" lon="2.83966">
        <ele>16.8</ele>
        <time>2020-06-23T15:17:01Z</time>
      </trkpt>
      <trkpt lat="50.84166" lon="2.83966">
        <ele>16.8</ele>
        <time>2020-06-23T15:17:02Z</time>
      </trkpt>
      <trkpt lat="50.8416" lon="2.83966">
        <ele>16.7</ele>
        <time>2020-06-23T15:17:03Z</time>
      </trkpt>
      <trkpt lat="50.84154" lon="2.83966">
        <ele>16.7</ele>
        <time>2020-06-23T15:17:04Z</time>
      </trkpt>
      <trkpt lat="50.84148" lon="2.83966">
        <ele>16.8</ele>
        <time>2020-06-23T15:17:05Z</time>
      </trkpt>
      <trkpt lat="50.84141" lon="2.83966">
        <ele>16.8</ele>
        <time>2020-06-23T15:17:06Z</time>
      </trkpt>
      <trkpt lat="50.84134" lon="2.83966">
        <ele>16.7</ele>
        <time>2020-06-23T15:17:07Z</time>
      </trkpt>
      <trkpt lat="50.84127" lon="2.83966">
        <ele>16.7</ele>
        <time>2020-06-23T15:17:08Z</time>
      </trkpt>
      <trkpt lat="50.84121" lon="2.83967">
        <ele>16.7</ele>
        <time>2020-06-23T15:17:09Z</time>
      </trkpt>
      <trkpt lat="50.84114" lon="2.83967">
        <ele>16.7</ele>
        <time>2020-06-23T15:17:10Z</time>
      </trkpt>
      <trkpt lat="50.84107" lon="2.83967">
        <ele>16.8</ele>
        <time>2020-06-23T15:17:11Z</time>
      </trkpt>
      <trkpt lat="50.84101" lon="2.83967">
        <ele>16.8</ele>
        <time>2020-06-23T15:17:12Z</time>
      </trkpt>
      <trkpt lat="50.84094" lon="2.83968">
        <ele>16.8</ele>
        <time>2020-06-23T15:17:13Z</time>
      </trkpt>
      <trkpt lat="50.84087" lon="2.83967">
        <ele>16.8</ele>
        <time>2020-06-23T15:17:14Z</time>
      </trkpt>
      <trkpt lat="50.8408" lon="2.83968">
        <ele>16.8</ele>
        <time>2020-06-23T15:17:15Z</time>
      </trkpt>
      <trkpt lat="50.84074" lon="2.83968">
        <ele>16.8</ele>
        <time>2020-06-23T15:17:16Z</time>
      </trkpt>
      <trkpt lat="50.84067" lon="2.83968">
        <ele>16.8</ele>
        <time>2020-06-23T15:17:17Z</time>
      </trkpt>
      <trkpt lat="50.84061" lon="2.83968">
        <ele>16.8</ele>
        <time>2020-06-23T15:17:18Z</time>
      </trkpt>
      <trkpt lat="50.84055" lon="2.83969">
        <ele>16.8</ele>
        <time>2020-06-23T15:17:19Z</time>
      </trkpt>
      <trkpt lat="50.84048" lon="2.8397">
        <ele>16.8</ele>
        <time>2020-06-23T15:17:20Z</time>
      </trkpt>
      <trkpt lat="50.84042" lon="2.8397">
        <ele>16.9</ele>
        <time>2020-06-23T15:17:21Z</time>
      </trkpt>
      <trkpt lat="50.84035" lon="2.8397">
        <ele>16.9</ele>
        <time>2020-06-23T15:17:22Z</time>
      </trkpt>
      <trkpt lat="50.84029" lon="2.83971">
        <ele>17</ele>
        <time>2020-06-23T15:17:23Z</time>
      </trkpt>
      <trkpt lat="50.84022" lon="2.83971">
        <ele>17</ele>
        <time>2020-06-23T15:17:24Z</time>
      </trkpt>
      <trkpt lat="50.84016" lon="2.83971">
        <ele>17</ele>
        <time>2020-06-23T15:17:25Z</time>
      </trkpt>
      <trkpt lat="50.84009" lon="2.83972">
        <ele>17</ele>
        <time>2020-06-23T15:17:26Z</time>
      </trkpt>
      <trkpt lat="50.84003" lon="2.83973">
        <ele>17</ele>
        <time>2020-06-23T15:17:27Z</time>
      </trkpt>
      <trkpt lat="50.83996" lon="2.83974">
        <ele>17.1</ele>
        <time>2020-06-23T15:17:28Z</time>
      </trkpt>
      <trkpt lat="50.8399" lon="2.83974">
        <ele>17.1</ele>
        <time>2020-06-23T15:17:29Z</time>
      </trkpt>
      <trkpt lat="50.83983" lon="2.83974">
        <ele>17.1</ele>
        <time>2020-06-23T15:17:30Z</time>
      </trkpt>
      <trkpt lat="50.83977" lon="2.83974">
        <ele>17.2</ele>
        <time>2020-06-23T15:17:31Z</time>
      </trkpt>
      <trkpt lat="50.8397" lon="2.83975">
        <ele>17.2</ele>
        <time>2020-06-23T15:17:32Z</time>
      </trkpt>
      <trkpt lat="50.83963" lon="2.83975">
        <ele>17.2</ele>
        <time>2020-06-23T15:17:33Z</time>
      </trkpt>
      <trkpt lat="50.83957" lon="2.83976">
        <ele>17.3</ele>
        <time>2020-06-23T15:17:34Z</time>
      </trkpt>
      <trkpt lat="50.83951" lon="2.83977">
        <ele>17.4</ele>
        <time>2020-06-23T15:17:35Z</time>
      </trkpt>
      <trkpt lat="50.83944" lon="2.83978">
        <ele>17.5</ele>
        <time>2020-06-23T15:17:36Z</time>
      </trkpt>
      <trkpt lat="50.83938" lon="2.8398">
        <ele>17.6</ele>
        <time>2020-06-23T15:17:37Z</time>
      </trkpt>
      <trkpt lat="50.83932" lon="2.83983">
        <ele>17.7</ele>
        <time>2020-06-23T15:17:38Z</time>
      </trkpt>
      <trkpt lat="50.83927" lon="2.83987">
        <ele>17.9</ele>
        <time>2020-06-23T15:17:39Z</time>
      </trkpt>
      <trkpt lat="50.83921" lon="2.8399">
        <ele>17.8</ele>
        <time>2020-06-23T15:17:40Z</time>
      </trkpt>
      <trkpt lat="50.83916" lon="2.83995">
        <ele>17.7</ele>
        <time>2020-06-23T15:17:41Z</time>
      </trkpt>
      <trkpt lat="50.83911" lon="2.84">
        <ele>17.6</ele>
        <time>2020-06-23T15:17:42Z</time>
      </trkpt>
      <trkpt lat="50.83905" lon="2.84005">
        <ele>17.6</ele>
        <time>2020-06-23T15:17:43Z</time>
      </trkpt>
      <trkpt lat="50.83901" lon="2.84011">
        <ele>17.5</ele>
        <time>2020-06-23T15:17:44Z</time>
      </trkpt>
      <trkpt lat="50.83896" lon="2.84018">
        <ele>17.5</ele>
        <time>2020-06-23T15:17:45Z</time>
      </trkpt>
      <trkpt lat="50.83892" lon="2.84026">
        <ele>17.4</ele>
        <time>2020-06-23T15:17:46Z</time>
      </trkpt>
      <trkpt lat="50.83887" lon="2.84034">
        <ele>17.4</ele>
        <time>2020-06-23T15:17:47Z</time>
      </trkpt>
      <trkpt lat="50.83882" lon="2.84041">
        <ele>17.4</ele>
        <time>2020-06-23T15:17:48Z</time>
      </trkpt>
      <trkpt lat="50.83878" lon="2.84048">
        <ele>17.3</ele>
        <time>2020-06-23T15:17:49Z</time>
      </trkpt>
      <trkpt lat="50.83874" lon="2.84055">
        <ele>17.3</ele>
        <time>2020-06-23T15:17:50Z</time>
      </trkpt>
      <trkpt lat="50.83869" lon="2.84062">
        <ele>17.3</ele>
        <time>2020-06-23T15:17:51Z</time>
      </trkpt>
      <trkpt lat="50.83864" lon="2.84069">
        <ele>17.3</ele>
        <time>2020-06-23T15:17:52Z</time>
      </trkpt>
      <trkpt lat="50.83859" lon="2.84076">
        <ele>17.3</ele>
        <time>2020-06-23T15:17:53Z</time>
      </trkpt>
      <trkpt lat="50.83854" lon="2.84083">
        <ele>17.3</ele>
        <time>2020-06-23T15:17:54Z</time>
      </trkpt>
      <trkpt lat="50.83849" lon="2.8409">
        <ele>17.4</ele>
        <time>2020-06-23T15:17:55Z</time>
      </trkpt>
      <trkpt lat="50.83844" lon="2.84097">
        <ele>17.4</ele>
        <time>2020-06-23T15:17:56Z</time>
      </trkpt>
      <trkpt lat="50.8384" lon="2.84104">
        <ele>17.4</ele>
        <time>2020-06-23T15:17:57Z</time>
      </trkpt>
      <trkpt lat="50.83835" lon="2.84111">
        <ele>17.4</ele>
        <time>2020-06-23T15:17:58Z</time>
      </trkpt>
      <trkpt lat="50.83829" lon="2.84119">
        <ele>17.4</ele>
        <time>2020-06-23T15:17:59Z</time>
      </trkpt>
      <trkpt lat="50.83824" lon="2.84126">
        <ele>17.4</ele>
        <time>2020-06-23T15:18:00Z</time>
      </trkpt>
      <trkpt lat="50.83819" lon="2.84132">
        <ele>17.5</ele>
        <time>2020-06-23T15:18:01Z</time>
      </trkpt>
      <trkpt lat="50.83815" lon="2.84139">
        <ele>17.5</ele>
        <time>2020-06-23T15:18:02Z</time>
      </trkpt>
      <trkpt lat="50.8381" lon="2.84146">
        <ele>17.5</ele>
        <time>2020-06-23T15:18:03Z</time>
      </trkpt>
      <trkpt lat="50.83806" lon="2.84152">
        <ele>17.5</ele>
        <time>2020-06-23T15:18:04Z</time>
      </trkpt>
      <trkpt lat="50.83802" lon="2.84158">
        <ele>17.5</ele>
        <time>2020-06-23T15:18:05Z</time>
      </trkpt>
      <trkpt lat="50.83798" lon="2.84165">
        <ele>17.5</ele>
        <time>2020-06-23T15:18:06Z</time>
      </trkpt>
      <trkpt lat="50.83794" lon="2.84172">
        <ele>17.5</ele>
        <time>2020-06-23T15:18:07Z</time>
      </trkpt>
      <trkpt lat="50.83789" lon="2.84178">
        <ele>17.5</ele>
        <time>2020-06-23T15:18:08Z</time>
      </trkpt>
      <trkpt lat="50.83785" lon="2.84185">
        <ele>17.4</ele>
        <time>2020-06-23T15:18:09Z</time>
      </trkpt>
      <trkpt lat="50.83781" lon="2.84191">
        <ele>17.4</ele>
        <time>2020-06-23T15:18:10Z</time>
      </trkpt>
      <trkpt lat="50.83776" lon="2.84197">
        <ele>17.4</ele>
        <time>2020-06-23T15:18:11Z</time>
      </trkpt>
      <trkpt lat="50.83771" lon="2.84205">
        <ele>17.4</ele>
        <time>2020-06-23T15:18:12Z</time>
      </trkpt>
      <trkpt lat="50.83766" lon="2.84212">
        <ele>17.4</ele>
        <time>2020-06-23T15:18:13Z</time>
      </trkpt>
      <trkpt lat="50.83762" lon="2.84218">
        <ele>17.4</ele>
        <time>2020-06-23T15:18:14Z</time>
      </trkpt>
      <trkpt lat="50.83757" lon="2.84225">
        <ele>17.4</ele>
        <time>2020-06-23T15:18:15Z</time>
      </trkpt>
      <trkpt lat="50.83752" lon="2.84232">
        <ele>17.4</ele>
        <time>2020-06-23T15:18:16Z</time>
      </trkpt>
      <trkpt lat="50.83748" lon="2.84239">
        <ele>17.4</ele>
        <time>2020-06-23T15:18:17Z</time>
      </trkpt>
      <trkpt lat="50.83743" lon="2.84247">
        <ele>17.4</ele>
        <time>2020-06-23T15:18:18Z</time>
      </trkpt>
      <trkpt lat="50.83739" lon="2.84255">
        <ele>17.4</ele>
        <time>2020-06-23T15:18:19Z</time>
      </trkpt>
      <trkpt lat="50.83736" lon="2.84262">
        <ele>17.4</ele>
        <time>2020-06-23T15:18:20Z</time>
      </trkpt>
      <trkpt lat="50.83731" lon="2.8427">
        <ele>17.4</ele>
        <time>2020-06-23T15:18:21Z</time>
      </trkpt>
      <trkpt lat="50.83727" lon="2.84278">
        <ele>17.4</ele>
        <time>2020-06-23T15:18:22Z</time>
      </trkpt>
      <trkpt lat="50.83723" lon="2.84286">
        <ele>17.4</ele>
        <time>2020-06-23T15:18:23Z</time>
      </trkpt>
      <trkpt lat="50.83719" lon="2.84293">
        <ele>17.5</ele>
        <time>2020-06-23T15:18:24Z</time>
      </trkpt>
      <trkpt lat="50.83714" lon="2.84301">
        <ele>17.5</ele>
        <time>2020-06-23T15:18:25Z</time>
      </trkpt>
      <trkpt lat="50.8371" lon="2.84309">
        <ele>17.5</ele>
        <time>2020-06-23T15:18:26Z</time>
      </trkpt>
      <trkpt lat="50.83704" lon="2.84318">
        <ele>17.5</ele>
        <time>2020-06-23T15:18:27Z</time>
      </trkpt>
      <trkpt lat="50.837" lon="2.84326">
        <ele>17.5</ele>
        <time>2020-06-23T15:18:28Z</time>
      </trkpt>
      <trkpt lat="50.83695" lon="2.84335">
        <ele>17.5</ele>
        <time>2020-06-23T15:18:29Z</time>
      </trkpt>
      <trkpt lat="50.8369" lon="2.84342">
        <ele>17.5</ele>
        <time>2020-06-23T15:18:30Z</time>
      </trkpt>
      <trkpt lat="50.83685" lon="2.8435">
        <ele>17.5</ele>
        <time>2020-06-23T15:18:31Z</time>
      </trkpt>
      <trkpt lat="50.8368" lon="2.84358">
        <ele>17.5</ele>
        <time>2020-06-23T15:18:32Z</time>
      </trkpt>
      <trkpt lat="50.83677" lon="2.84366">
        <ele>17.5</ele>
        <time>2020-06-23T15:18:33Z</time>
      </trkpt>
      <trkpt lat="50.83672" lon="2.84375">
        <ele>17.4</ele>
        <time>2020-06-23T15:18:34Z</time>
      </trkpt>
      <trkpt lat="50.83668" lon="2.84383">
        <ele>17.4</ele>
        <time>2020-06-23T15:18:35Z</time>
      </trkpt>
      <trkpt lat="50.83664" lon="2.84391">
        <ele>17.4</ele>
        <time>2020-06-23T15:18:36Z</time>
      </trkpt>
      <trkpt lat="50.8366" lon="2.844">
        <ele>17.4</ele>
        <time>2020-06-23T15:18:37Z</time>
      </trkpt>
      <trkpt lat="50.83656" lon="2.84407">
        <ele>17.5</ele>
        <time>2020-06-23T15:18:38Z</time>
      </trkpt>
      <trkpt lat="50.83652" lon="2.84415">
        <ele>17.5</ele>
        <time>2020-06-23T15:18:39Z</time>
      </trkpt>
      <trkpt lat="50.83648" lon="2.84423">
        <ele>17.5</ele>
        <time>2020-06-23T15:18:40Z</time>
      </trkpt>
      <trkpt lat="50.83645" lon="2.8443">
        <ele>17.6</ele>
        <time>2020-06-23T15:18:41Z</time>
      </trkpt>
      <trkpt lat="50.8364" lon="2.84438">
        <ele>17.6</ele>
        <time>2020-06-23T15:18:42Z</time>
      </trkpt>
      <trkpt lat="50.83635" lon="2.84447">
        <ele>17.6</ele>
        <time>2020-06-23T15:18:43Z</time>
      </trkpt>
      <trkpt lat="50.83632" lon="2.84455">
        <ele>17.6</ele>
        <time>2020-06-23T15:18:44Z</time>
      </trkpt>
      <trkpt lat="50.83628" lon="2.84462">
        <ele>17.6</ele>
        <time>2020-06-23T15:18:45Z</time>
      </trkpt>
      <trkpt lat="50.83624" lon="2.84468">
        <ele>17.6</ele>
        <time>2020-06-23T15:18:46Z</time>
      </trkpt>
      <trkpt lat="50.8362" lon="2.84476">
        <ele>17.6</ele>
        <time>2020-06-23T15:18:47Z</time>
      </trkpt>
      <trkpt lat="50.83615" lon="2.84485">
        <ele>17.6</ele>
        <time>2020-06-23T15:18:48Z</time>
      </trkpt>
      <trkpt lat="50.83611" lon="2.84491">
        <ele>17.7</ele>
        <time>2020-06-23T15:18:49Z</time>
      </trkpt>
      <trkpt lat="50.83607" lon="2.84499">
        <ele>17.7</ele>
        <time>2020-06-23T15:18:50Z</time>
      </trkpt>
      <trkpt lat="50.83602" lon="2.84507">
        <ele>17.7</ele>
        <time>2020-06-23T15:18:51Z</time>
      </trkpt>
      <trkpt lat="50.83598" lon="2.84515">
        <ele>17.8</ele>
        <time>2020-06-23T15:18:52Z</time>
      </trkpt>
      <trkpt lat="50.83594" lon="2.84523">
        <ele>17.8</ele>
        <time>2020-06-23T15:18:53Z</time>
      </trkpt>
      <trkpt lat="50.83589" lon="2.84532">
        <ele>17.9</ele>
        <time>2020-06-23T15:18:54Z</time>
      </trkpt>
      <trkpt lat="50.83584" lon="2.84541">
        <ele>17.9</ele>
        <time>2020-06-23T15:18:55Z</time>
      </trkpt>
      <trkpt lat="50.8358" lon="2.84549">
        <ele>18</ele>
        <time>2020-06-23T15:18:56Z</time>
      </trkpt>
      <trkpt lat="50.83575" lon="2.84558">
        <ele>18</ele>
        <time>2020-06-23T15:18:57Z</time>
      </trkpt>
      <trkpt lat="50.83571" lon="2.84566">
        <ele>18.1</ele>
        <time>2020-06-23T15:18:58Z</time>
      </trkpt>
      <trkpt lat="50.83567" lon="2.84574">
        <ele>18.1</ele>
        <time>2020-06-23T15:18:59Z</time>
      </trkpt>
      <trkpt lat="50.83563" lon="2.84582">
        <ele>18.2</ele>
        <time>2020-06-23T15:19:00Z</time>
      </trkpt>
      <trkpt lat="50.83559" lon="2.8459">
        <ele>18.3</ele>
        <time>2020-06-23T15:19:01Z</time>
      </trkpt>
      <trkpt lat="50.83555" lon="2.84597">
        <ele>18.3</ele>
        <time>2020-06-23T15:19:02Z</time>
      </trkpt>
      <trkpt lat="50.8355" lon="2.84605">
        <ele>18.4</ele>
        <time>2020-06-23T15:19:03Z</time>
      </trkpt>
      <trkpt lat="50.83545" lon="2.84613">
        <ele>18.4</ele>
        <time>2020-06-23T15:19:04Z</time>
      </trkpt>
      <trkpt lat="50.8354" lon="2.84621">
        <ele>18.5</ele>
        <time>2020-06-23T15:19:05Z</time>
      </trkpt>
      <trkpt lat="50.83536" lon="2.84629">
        <ele>18.6</ele>
        <time>2020-06-23T15:19:06Z</time>
      </trkpt>
      <trkpt lat="50.83532" lon="2.84636">
        <ele>18.6</ele>
        <time>2020-06-23T15:19:07Z</time>
      </trkpt>
      <trkpt lat="50.83527" lon="2.84644">
        <ele>18.7</ele>
        <time>2020-06-23T15:19:08Z</time>
      </trkpt>
      <trkpt lat="50.83523" lon="2.84652">
        <ele>18.8</ele>
        <time>2020-06-23T15:19:09Z</time>
      </trkpt>
      <trkpt lat="50.83519" lon="2.84659">
        <ele>18.9</ele>
        <time>2020-06-23T15:19:10Z</time>
      </trkpt>
      <trkpt lat="50.83516" lon="2.84666">
        <ele>18.9</ele>
        <time>2020-06-23T15:19:11Z</time>
      </trkpt>
      <trkpt lat="50.83512" lon="2.84673">
        <ele>19</ele>
        <time>2020-06-23T15:19:12Z</time>
      </trkpt>
      <trkpt lat="50.83508" lon="2.84681">
        <ele>19.1</ele>
        <time>2020-06-23T15:19:13Z</time>
      </trkpt>
      <trkpt lat="50.83504" lon="2.84688">
        <ele>19.2</ele>
        <time>2020-06-23T15:19:14Z</time>
      </trkpt>
      <trkpt lat="50.835" lon="2.84695">
        <ele>19.2</ele>
        <time>2020-06-23T15:19:15Z</time>
      </trkpt>
      <trkpt lat="50.83496" lon="2.84703">
        <ele>19.3</ele>
        <time>2020-06-23T15:19:16Z</time>
      </trkpt>
      <trkpt lat="50.83492" lon="2.84708">
        <ele>19.4</ele>
        <time>2020-06-23T15:19:17Z</time>
      </trkpt>
      <trkpt lat="50.83488" lon="2.84714">
        <ele>19.4</ele>
        <time>2020-06-23T15:19:18Z</time>
      </trkpt>
      <trkpt lat="50.83484" lon="2.8472">
        <ele>19.5</ele>
        <time>2020-06-23T15:19:19Z</time>
      </trkpt>
      <trkpt lat="50.83479" lon="2.84726">
        <ele>19.5</ele>
        <time>2020-06-23T15:19:20Z</time>
      </trkpt>
      <trkpt lat="50.83474" lon="2.84732">
        <ele>19.5</ele>
        <time>2020-06-23T15:19:21Z</time>
      </trkpt>
      <trkpt lat="50.83469" lon="2.84737">
        <ele>19.6</ele>
        <time>2020-06-23T15:19:22Z</time>
      </trkpt>
      <trkpt lat="50.83464" lon="2.84743">
        <ele>19.6</ele>
        <time>2020-06-23T15:19:23Z</time>
      </trkpt>
      <trkpt lat="50.83459" lon="2.84748">
        <ele>19.7</ele>
        <time>2020-06-23T15:19:24Z</time>
      </trkpt>
      <trkpt lat="50.83454" lon="2.84753">
        <ele>19.9</ele>
        <time>2020-06-23T15:19:25Z</time>
      </trkpt>
      <trkpt lat="50.8345" lon="2.84759">
        <ele>20</ele>
        <time>2020-06-23T15:19:26Z</time>
      </trkpt>
      <trkpt lat="50.83445" lon="2.84765">
        <ele>20.1</ele>
        <time>2020-06-23T15:19:27Z</time>
      </trkpt>
      <trkpt lat="50.83441" lon="2.8477">
        <ele>20.1</ele>
        <time>2020-06-23T15:19:28Z</time>
      </trkpt>
      <trkpt lat="50.83436" lon="2.84775">
        <ele>20.2</ele>
        <time>2020-06-23T15:19:29Z</time>
      </trkpt>
      <trkpt lat="50.83431" lon="2.84781">
        <ele>20.2</ele>
        <time>2020-06-23T15:19:30Z</time>
      </trkpt>
      <trkpt lat="50.83426" lon="2.84787">
        <ele>20.2</ele>
        <time>2020-06-23T15:19:31Z</time>
      </trkpt>
      <trkpt lat="50.8342" lon="2.84794">
        <ele>20.3</ele>
        <time>2020-06-23T15:19:32Z</time>
      </trkpt>
      <trkpt lat="50.83417" lon="2.84799">
        <ele>20.3</ele>
        <time>2020-06-23T15:19:33Z</time>
      </trkpt>
      <trkpt lat="50.83413" lon="2.84803">
        <ele>20.3</ele>
        <time>2020-06-23T15:19:34Z</time>
      </trkpt>
      <trkpt lat="50.83408" lon="2.84811">
        <ele>20.4</ele>
        <time>2020-06-23T15:19:35Z</time>
      </trkpt>
      <trkpt lat="50.83402" lon="2.84817">
        <ele>20.4</ele>
        <time>2020-06-23T15:19:36Z</time>
      </trkpt>
      <trkpt lat="50.83396" lon="2.84824">
        <ele>20.5</ele>
        <time>2020-06-23T15:19:37Z</time>
      </trkpt>
      <trkpt lat="50.8339" lon="2.84831">
        <ele>20.6</ele>
        <time>2020-06-23T15:19:38Z</time>
      </trkpt>
      <trkpt lat="50.83384" lon="2.84838">
        <ele>20.7</ele>
        <time>2020-06-23T15:19:39Z</time>
      </trkpt>
      <trkpt lat="50.83379" lon="2.84844">
        <ele>20.8</ele>
        <time>2020-06-23T15:19:40Z</time>
      </trkpt>
      <trkpt lat="50.83373" lon="2.84851">
        <ele>20.9</ele>
        <time>2020-06-23T15:19:41Z</time>
      </trkpt>
      <trkpt lat="50.83368" lon="2.84857">
        <ele>21</ele>
        <time>2020-06-23T15:19:42Z</time>
      </trkpt>
      <trkpt lat="50.83363" lon="2.84863">
        <ele>21</ele>
        <time>2020-06-23T15:19:43Z</time>
      </trkpt>
      <trkpt lat="50.83358" lon="2.84869">
        <ele>21.1</ele>
        <time>2020-06-23T15:19:44Z</time>
      </trkpt>
      <trkpt lat="50.83352" lon="2.84875">
        <ele>21.2</ele>
        <time>2020-06-23T15:19:45Z</time>
      </trkpt>
      <trkpt lat="50.83347" lon="2.84881">
        <ele>21.3</ele>
        <time>2020-06-23T15:19:46Z</time>
      </trkpt>
      <trkpt lat="50.83342" lon="2.84888">
        <ele>21.4</ele>
        <time>2020-06-23T15:19:47Z</time>
      </trkpt>
      <trkpt lat="50.83338" lon="2.84895">
        <ele>21.4</ele>
        <time>2020-06-23T15:19:48Z</time>
      </trkpt>
      <trkpt lat="50.83332" lon="2.849">
        <ele>21.5</ele>
        <time>2020-06-23T15:19:49Z</time>
      </trkpt>
      <trkpt lat="50.83328" lon="2.84906">
        <ele>21.5</ele>
        <time>2020-06-23T15:19:50Z</time>
      </trkpt>
      <trkpt lat="50.83323" lon="2.84912">
        <ele>21.5</ele>
        <time>2020-06-23T15:19:51Z</time>
      </trkpt>
      <trkpt lat="50.83318" lon="2.84918">
        <ele>21.6</ele>
        <time>2020-06-23T15:19:52Z</time>
      </trkpt>
      <trkpt lat="50.83313" lon="2.84924">
        <ele>21.7</ele>
        <time>2020-06-23T15:19:53Z</time>
      </trkpt>
      <trkpt lat="50.83309" lon="2.84928">
        <ele>21.8</ele>
        <time>2020-06-23T15:19:54Z</time>
      </trkpt>
      <trkpt lat="50.83304" lon="2.84933">
        <ele>21.9</ele>
        <time>2020-06-23T15:19:55Z</time>
      </trkpt>
      <trkpt lat="50.83299" lon="2.84938">
        <ele>22</ele>
        <time>2020-06-23T15:19:56Z</time>
      </trkpt>
      <trkpt lat="50.83295" lon="2.84944">
        <ele>22.1</ele>
        <time>2020-06-23T15:19:57Z</time>
      </trkpt>
      <trkpt lat="50.8329" lon="2.84949">
        <ele>22.1</ele>
        <time>2020-06-23T15:19:58Z</time>
      </trkpt>
      <trkpt lat="50.83286" lon="2.84954">
        <ele>22.2</ele>
        <time>2020-06-23T15:19:59Z</time>
      </trkpt>
      <trkpt lat="50.83282" lon="2.84959">
        <ele>22.3</ele>
        <time>2020-06-23T15:20:00Z</time>
      </trkpt>
      <trkpt lat="50.83277" lon="2.84966">
        <ele>22.4</ele>
        <time>2020-06-23T15:20:01Z</time>
      </trkpt>
      <trkpt lat="50.83272" lon="2.84972">
        <ele>22.4</ele>
        <time>2020-06-23T15:20:02Z</time>
      </trkpt>
      <trkpt lat="50.83267" lon="2.84978">
        <ele>22.4</ele>
        <time>2020-06-23T15:20:03Z</time>
      </trkpt>
      <trkpt lat="50.83261" lon="2.84984">
        <ele>22.3</ele>
        <time>2020-06-23T15:20:04Z</time>
      </trkpt>
      <trkpt lat="50.83255" lon="2.84991">
        <ele>22.3</ele>
        <time>2020-06-23T15:20:05Z</time>
      </trkpt>
      <trkpt lat="50.83249" lon="2.84998">
        <ele>22.3</ele>
        <time>2020-06-23T15:20:06Z</time>
      </trkpt>
      <trkpt lat="50.83244" lon="2.85004">
        <ele>22.4</ele>
        <time>2020-06-23T15:20:07Z</time>
      </trkpt>
      <trkpt lat="50.8324" lon="2.85009">
        <ele>22.4</ele>
        <time>2020-06-23T15:20:08Z</time>
      </trkpt>
      <trkpt lat="50.83235" lon="2.85014">
        <ele>22.5</ele>
        <time>2020-06-23T15:20:09Z</time>
      </trkpt>
      <trkpt lat="50.8323" lon="2.8502">
        <ele>22.5</ele>
        <time>2020-06-23T15:20:10Z</time>
      </trkpt>
      <trkpt lat="50.83225" lon="2.85026">
        <ele>22.5</ele>
        <time>2020-06-23T15:20:11Z</time>
      </trkpt>
      <trkpt lat="50.8322" lon="2.85032">
        <ele>22.6</ele>
        <time>2020-06-23T15:20:12Z</time>
      </trkpt>
      <trkpt lat="50.83214" lon="2.85039">
        <ele>22.6</ele>
        <time>2020-06-23T15:20:13Z</time>
      </trkpt>
      <trkpt lat="50.83208" lon="2.85046">
        <ele>22.7</ele>
        <time>2020-06-23T15:20:14Z</time>
      </trkpt>
      <trkpt lat="50.83204" lon="2.85051">
        <ele>22.7</ele>
        <time>2020-06-23T15:20:15Z</time>
      </trkpt>
      <trkpt lat="50.83199" lon="2.85057">
        <ele>22.7</ele>
        <time>2020-06-23T15:20:16Z</time>
      </trkpt>
      <trkpt lat="50.83193" lon="2.85064">
        <ele>22.6</ele>
        <time>2020-06-23T15:20:17Z</time>
      </trkpt>
      <trkpt lat="50.83189" lon="2.8507">
        <ele>22.5</ele>
        <time>2020-06-23T15:20:18Z</time>
      </trkpt>
      <trkpt lat="50.83184" lon="2.85077">
        <ele>22.5</ele>
        <time>2020-06-23T15:20:19Z</time>
      </trkpt>
      <trkpt lat="50.83178" lon="2.85082">
        <ele>22.4</ele>
        <time>2020-06-23T15:20:20Z</time>
      </trkpt>
      <trkpt lat="50.83174" lon="2.85088">
        <ele>22.4</ele>
        <time>2020-06-23T15:20:21Z</time>
      </trkpt>
      <trkpt lat="50.83168" lon="2.85095">
        <ele>22.5</ele>
        <time>2020-06-23T15:20:22Z</time>
      </trkpt>
      <trkpt lat="50.83163" lon="2.85101">
        <ele>22.5</ele>
        <time>2020-06-23T15:20:23Z</time>
      </trkpt>
      <trkpt lat="50.83157" lon="2.85107">
        <ele>22.5</ele>
        <time>2020-06-23T15:20:24Z</time>
      </trkpt>
      <trkpt lat="50.83152" lon="2.85114">
        <ele>22.5</ele>
        <time>2020-06-23T15:20:25Z</time>
      </trkpt>
      <trkpt lat="50.83147" lon="2.8512">
        <ele>22.6</ele>
        <time>2020-06-23T15:20:26Z</time>
      </trkpt>
      <trkpt lat="50.83142" lon="2.85126">
        <ele>22.6</ele>
        <time>2020-06-23T15:20:27Z</time>
      </trkpt>
      <trkpt lat="50.83137" lon="2.85132">
        <ele>22.6</ele>
        <time>2020-06-23T15:20:28Z</time>
      </trkpt>
      <trkpt lat="50.83132" lon="2.85138">
        <ele>22.6</ele>
        <time>2020-06-23T15:20:29Z</time>
      </trkpt>
      <trkpt lat="50.83127" lon="2.85144">
        <ele>22.6</ele>
        <time>2020-06-23T15:20:30Z</time>
      </trkpt>
      <trkpt lat="50.83122" lon="2.85151">
        <ele>22.7</ele>
        <time>2020-06-23T15:20:31Z</time>
      </trkpt>
      <trkpt lat="50.83116" lon="2.85157">
        <ele>22.7</ele>
        <time>2020-06-23T15:20:32Z</time>
      </trkpt>
      <trkpt lat="50.83111" lon="2.85163">
        <ele>22.7</ele>
        <time>2020-06-23T15:20:33Z</time>
      </trkpt>
      <trkpt lat="50.83106" lon="2.8517">
        <ele>22.7</ele>
        <time>2020-06-23T15:20:34Z</time>
      </trkpt>
      <trkpt lat="50.83101" lon="2.85178">
        <ele>22.7</ele>
        <time>2020-06-23T15:20:35Z</time>
      </trkpt>
      <trkpt lat="50.83097" lon="2.85186">
        <ele>22.8</ele>
        <time>2020-06-23T15:20:36Z</time>
      </trkpt>
      <trkpt lat="50.83094" lon="2.85194">
        <ele>22.8</ele>
        <time>2020-06-23T15:20:37Z</time>
      </trkpt>
      <trkpt lat="50.83091" lon="2.85201">
        <ele>22.9</ele>
        <time>2020-06-23T15:20:38Z</time>
      </trkpt>
      <trkpt lat="50.83087" lon="2.85209">
        <ele>22.9</ele>
        <time>2020-06-23T15:20:39Z</time>
      </trkpt>
      <trkpt lat="50.83084" lon="2.85217">
        <ele>23</ele>
        <time>2020-06-23T15:20:40Z</time>
      </trkpt>
      <trkpt lat="50.83081" lon="2.85225">
        <ele>23</ele>
        <time>2020-06-23T15:20:41Z</time>
      </trkpt>
      <trkpt lat="50.83079" lon="2.85233">
        <ele>22.9</ele>
        <time>2020-06-23T15:20:42Z</time>
      </trkpt>
      <trkpt lat="50.83077" lon="2.85242">
        <ele>22.8</ele>
        <time>2020-06-23T15:20:43Z</time>
      </trkpt>
      <trkpt lat="50.83072" lon="2.85251">
        <ele>22.7</ele>
        <time>2020-06-23T15:20:44Z</time>
      </trkpt>
      <trkpt lat="50.83069" lon="2.8526">
        <ele>22.7</ele>
        <time>2020-06-23T15:20:45Z</time>
      </trkpt>
      <trkpt lat="50.83067" lon="2.8527">
        <ele>22.7</ele>
        <time>2020-06-23T15:20:46Z</time>
      </trkpt>
      <trkpt lat="50.83064" lon="2.85279">
        <ele>22.7</ele>
        <time>2020-06-23T15:20:47Z</time>
      </trkpt>
      <trkpt lat="50.83061" lon="2.85289">
        <ele>22.7</ele>
        <time>2020-06-23T15:20:48Z</time>
      </trkpt>
      <trkpt lat="50.83058" lon="2.853">
        <ele>22.8</ele>
        <time>2020-06-23T15:20:49Z</time>
      </trkpt>
      <trkpt lat="50.83055" lon="2.85311">
        <ele>22.9</ele>
        <time>2020-06-23T15:20:50Z</time>
      </trkpt>
      <trkpt lat="50.83052" lon="2.85321">
        <ele>22.9</ele>
        <time>2020-06-23T15:20:51Z</time>
      </trkpt>
      <trkpt lat="50.8305" lon="2.8533">
        <ele>23</ele>
        <time>2020-06-23T15:20:52Z</time>
      </trkpt>
      <trkpt lat="50.83047" lon="2.85338">
        <ele>23</ele>
        <time>2020-06-23T15:20:53Z</time>
      </trkpt>
      <trkpt lat="50.83043" lon="2.85348">
        <ele>23</ele>
        <time>2020-06-23T15:20:54Z</time>
      </trkpt>
      <trkpt lat="50.8304" lon="2.85357">
        <ele>23.1</ele>
        <time>2020-06-23T15:20:55Z</time>
      </trkpt>
      <trkpt lat="50.83038" lon="2.85365">
        <ele>23.2</ele>
        <time>2020-06-23T15:20:56Z</time>
      </trkpt>
      <trkpt lat="50.83035" lon="2.85374">
        <ele>23.2</ele>
        <time>2020-06-23T15:20:57Z</time>
      </trkpt>
      <trkpt lat="50.83032" lon="2.85383">
        <ele>23.3</ele>
        <time>2020-06-23T15:20:58Z</time>
      </trkpt>
      <trkpt lat="50.83029" lon="2.85392">
        <ele>23.4</ele>
        <time>2020-06-23T15:20:59Z</time>
      </trkpt>
      <trkpt lat="50.83027" lon="2.85401">
        <ele>23.4</ele>
        <time>2020-06-23T15:21:00Z</time>
      </trkpt>
      <trkpt lat="50.83024" lon="2.8541">
        <ele>23.5</ele>
        <time>2020-06-23T15:21:01Z</time>
      </trkpt>
      <trkpt lat="50.83022" lon="2.85419">
        <ele>23.5</ele>
        <time>2020-06-23T15:21:02Z</time>
      </trkpt>
      <trkpt lat="50.83019" lon="2.85428">
        <ele>23.6</ele>
        <time>2020-06-23T15:21:03Z</time>
      </trkpt>
      <trkpt lat="50.83016" lon="2.85437">
        <ele>23.7</ele>
        <time>2020-06-23T15:21:04Z</time>
      </trkpt>
      <trkpt lat="50.83014" lon="2.85445">
        <ele>23.7</ele>
        <time>2020-06-23T15:21:05Z</time>
      </trkpt>
      <trkpt lat="50.83012" lon="2.85453">
        <ele>23.7</ele>
        <time>2020-06-23T15:21:06Z</time>
      </trkpt>
      <trkpt lat="50.83009" lon="2.85461">
        <ele>23.7</ele>
        <time>2020-06-23T15:21:07Z</time>
      </trkpt>
      <trkpt lat="50.83005" lon="2.8547">
        <ele>23.8</ele>
        <time>2020-06-23T15:21:08Z</time>
      </trkpt>
      <trkpt lat="50.83002" lon="2.85478">
        <ele>23.8</ele>
        <time>2020-06-23T15:21:09Z</time>
      </trkpt>
      <trkpt lat="50.83" lon="2.85487">
        <ele>23.8</ele>
        <time>2020-06-23T15:21:10Z</time>
      </trkpt>
      <trkpt lat="50.82997" lon="2.85495">
        <ele>23.8</ele>
        <time>2020-06-23T15:21:11Z</time>
      </trkpt>
      <trkpt lat="50.82994" lon="2.85504">
        <ele>23.8</ele>
        <time>2020-06-23T15:21:12Z</time>
      </trkpt>
      <trkpt lat="50.82991" lon="2.85513">
        <ele>23.8</ele>
        <time>2020-06-23T15:21:13Z</time>
      </trkpt>
      <trkpt lat="50.82989" lon="2.8552">
        <ele>23.9</ele>
        <time>2020-06-23T15:21:14Z</time>
      </trkpt>
      <trkpt lat="50.82987" lon="2.85528">
        <ele>23.9</ele>
        <time>2020-06-23T15:21:15Z</time>
      </trkpt>
      <trkpt lat="50.82984" lon="2.85536">
        <ele>24</ele>
        <time>2020-06-23T15:21:16Z</time>
      </trkpt>
      <trkpt lat="50.82981" lon="2.85545">
        <ele>24.1</ele>
        <time>2020-06-23T15:21:17Z</time>
      </trkpt>
      <trkpt lat="50.82977" lon="2.85555">
        <ele>24.2</ele>
        <time>2020-06-23T15:21:18Z</time>
      </trkpt>
      <trkpt lat="50.82974" lon="2.85565">
        <ele>24.3</ele>
        <time>2020-06-23T15:21:19Z</time>
      </trkpt>
      <trkpt lat="50.82969" lon="2.85573">
        <ele>24.4</ele>
        <time>2020-06-23T15:21:20Z</time>
      </trkpt>
      <trkpt lat="50.82965" lon="2.85579">
        <ele>24.5</ele>
        <time>2020-06-23T15:21:21Z</time>
      </trkpt>
      <trkpt lat="50.8296" lon="2.85585">
        <ele>24.5</ele>
        <time>2020-06-23T15:21:22Z</time>
      </trkpt>
      <trkpt lat="50.82955" lon="2.85591">
        <ele>24.6</ele>
        <time>2020-06-23T15:21:23Z</time>
      </trkpt>
      <trkpt lat="50.8295" lon="2.85596">
        <ele>24.7</ele>
        <time>2020-06-23T15:21:24Z</time>
      </trkpt>
      <trkpt lat="50.82946" lon="2.85603">
        <ele>24.8</ele>
        <time>2020-06-23T15:21:25Z</time>
      </trkpt>
      <trkpt lat="50.82942" lon="2.8561">
        <ele>24.9</ele>
        <time>2020-06-23T15:21:26Z</time>
      </trkpt>
      <trkpt lat="50.82937" lon="2.85615">
        <ele>25</ele>
        <time>2020-06-23T15:21:27Z</time>
      </trkpt>
      <trkpt lat="50.82932" lon="2.8562">
        <ele>25.1</ele>
        <time>2020-06-23T15:21:28Z</time>
      </trkpt>
      <trkpt lat="50.82927" lon="2.85626">
        <ele>25.2</ele>
        <time>2020-06-23T15:21:29Z</time>
      </trkpt>
      <trkpt lat="50.82922" lon="2.85632">
        <ele>25.3</ele>
        <time>2020-06-23T15:21:30Z</time>
      </trkpt>
      <trkpt lat="50.82917" lon="2.85638">
        <ele>25.4</ele>
        <time>2020-06-23T15:21:31Z</time>
      </trkpt>
      <trkpt lat="50.82912" lon="2.85643">
        <ele>25.5</ele>
        <time>2020-06-23T15:21:32Z</time>
      </trkpt>
      <trkpt lat="50.82907" lon="2.85649">
        <ele>25.6</ele>
        <time>2020-06-23T15:21:33Z</time>
      </trkpt>
      <trkpt lat="50.82903" lon="2.85655">
        <ele>25.7</ele>
        <time>2020-06-23T15:21:34Z</time>
      </trkpt>
      <trkpt lat="50.82899" lon="2.8566">
        <ele>25.7</ele>
        <time>2020-06-23T15:21:35Z</time>
      </trkpt>
      <trkpt lat="50.82895" lon="2.85665">
        <ele>25.8</ele>
        <time>2020-06-23T15:21:36Z</time>
      </trkpt>
      <trkpt lat="50.82891" lon="2.8567">
        <ele>25.9</ele>
        <time>2020-06-23T15:21:37Z</time>
      </trkpt>
      <trkpt lat="50.82887" lon="2.85676">
        <ele>26</ele>
        <time>2020-06-23T15:21:38Z</time>
      </trkpt>
      <trkpt lat="50.82883" lon="2.85681">
        <ele>26.2</ele>
        <time>2020-06-23T15:21:39Z</time>
      </trkpt>
      <trkpt lat="50.82879" lon="2.85686">
        <ele>26.3</ele>
        <time>2020-06-23T15:21:40Z</time>
      </trkpt>
      <trkpt lat="50.82874" lon="2.85691">
        <ele>26.5</ele>
        <time>2020-06-23T15:21:41Z</time>
      </trkpt>
      <trkpt lat="50.82869" lon="2.85696">
        <ele>26.7</ele>
        <time>2020-06-23T15:21:42Z</time>
      </trkpt>
      <trkpt lat="50.82865" lon="2.85703">
        <ele>26.8</ele>
        <time>2020-06-23T15:21:43Z</time>
      </trkpt>
      <trkpt lat="50.82861" lon="2.85709">
        <ele>27</ele>
        <time>2020-06-23T15:21:44Z</time>
      </trkpt>
      <trkpt lat="50.82857" lon="2.85714">
        <ele>27.2</ele>
        <time>2020-06-23T15:21:45Z</time>
      </trkpt>
      <trkpt lat="50.82854" lon="2.85718">
        <ele>27.4</ele>
        <time>2020-06-23T15:21:46Z</time>
      </trkpt>
      <trkpt lat="50.8285" lon="2.8572">
        <ele>27.5</ele>
        <time>2020-06-23T15:21:47Z</time>
      </trkpt>
      <trkpt lat="50.82846" lon="2.85722">
        <ele>27.7</ele>
        <time>2020-06-23T15:21:48Z</time>
      </trkpt>
      <trkpt lat="50.82841" lon="2.85724">
        <ele>27.9</ele>
        <time>2020-06-23T15:21:49Z</time>
      </trkpt>
      <trkpt lat="50.82838" lon="2.85725">
        <ele>27.8</ele>
        <time>2020-06-23T15:21:50Z</time>
      </trkpt>
      <trkpt lat="50.82833" lon="2.85727">
        <ele>27.8</ele>
        <time>2020-06-23T15:21:51Z</time>
      </trkpt>
      <trkpt lat="50.82829" lon="2.8573">
        <ele>27.8</ele>
        <time>2020-06-23T15:21:52Z</time>
      </trkpt>
      <trkpt lat="50.82827" lon="2.85735">
        <ele>27.8</ele>
        <time>2020-06-23T15:21:53Z</time>
      </trkpt>
      <trkpt lat="50.82823" lon="2.85739">
        <ele>28</ele>
        <time>2020-06-23T15:21:54Z</time>
      </trkpt>
      <trkpt lat="50.8282" lon="2.85745">
        <ele>28</ele>
        <time>2020-06-23T15:21:55Z</time>
      </trkpt>
      <trkpt lat="50.82817" lon="2.85751">
        <ele>28.1</ele>
        <time>2020-06-23T15:21:56Z</time>
      </trkpt>
      <trkpt lat="50.82813" lon="2.85757">
        <ele>28.1</ele>
        <time>2020-06-23T15:21:57Z</time>
      </trkpt>
      <trkpt lat="50.82809" lon="2.85763">
        <ele>28.2</ele>
        <time>2020-06-23T15:21:58Z</time>
      </trkpt>
      <trkpt lat="50.82805" lon="2.85768">
        <ele>28.3</ele>
        <time>2020-06-23T15:21:59Z</time>
      </trkpt>
      <trkpt lat="50.82802" lon="2.85773">
        <ele>28.3</ele>
        <time>2020-06-23T15:22:00Z</time>
      </trkpt>
      <trkpt lat="50.82798" lon="2.85777">
        <ele>28.4</ele>
        <time>2020-06-23T15:22:01Z</time>
      </trkpt>
      <trkpt lat="50.82795" lon="2.8578">
        <ele>28.4</ele>
        <time>2020-06-23T15:22:02Z</time>
      </trkpt>
      <trkpt lat="50.82793" lon="2.85784">
        <ele>28.4</ele>
        <time>2020-06-23T15:22:03Z</time>
      </trkpt>
      <trkpt lat="50.8279" lon="2.85789">
        <ele>28.4</ele>
        <time>2020-06-23T15:22:04Z</time>
      </trkpt>
      <trkpt lat="50.82789" lon="2.85794">
        <ele>28.4</ele>
        <time>2020-06-23T15:22:05Z</time>
      </trkpt>
      <trkpt lat="50.82788" lon="2.85796">
        <ele>28.4</ele>
        <time>2020-06-23T15:22:06Z</time>
      </trkpt>
      <trkpt lat="50.82787" lon="2.858">
        <ele>28.4</ele>
        <time>2020-06-23T15:22:07Z</time>
      </trkpt>
      <trkpt lat="50.82785" lon="2.85806">
        <ele>28.5</ele>
        <time>2020-06-23T15:22:08Z</time>
      </trkpt>
      <trkpt lat="50.82783" lon="2.8581">
        <ele>28.6</ele>
        <time>2020-06-23T15:22:09Z</time>
      </trkpt>
      <trkpt lat="50.82781" lon="2.85815">
        <ele>28.7</ele>
        <time>2020-06-23T15:22:10Z</time>
      </trkpt>
      <trkpt lat="50.82779" lon="2.85821">
        <ele>28.8</ele>
        <time>2020-06-23T15:22:11Z</time>
      </trkpt>
      <trkpt lat="50.82776" lon="2.85827">
        <ele>28.9</ele>
        <time>2020-06-23T15:22:12Z</time>
      </trkpt>
      <trkpt lat="50.82772" lon="2.85833">
        <ele>29.1</ele>
        <time>2020-06-23T15:22:13Z</time>
      </trkpt>
      <trkpt lat="50.82768" lon="2.8584">
        <ele>29.2</ele>
        <time>2020-06-23T15:22:14Z</time>
      </trkpt>
      <trkpt lat="50.82764" lon="2.85846">
        <ele>29.3</ele>
        <time>2020-06-23T15:22:15Z</time>
      </trkpt>
      <trkpt lat="50.82761" lon="2.85851">
        <ele>29.4</ele>
        <time>2020-06-23T15:22:16Z</time>
      </trkpt>
      <trkpt lat="50.82756" lon="2.85856">
        <ele>29.5</ele>
        <time>2020-06-23T15:22:17Z</time>
      </trkpt>
      <trkpt lat="50.82752" lon="2.85863">
        <ele>29.6</ele>
        <time>2020-06-23T15:22:18Z</time>
      </trkpt>
      <trkpt lat="50.82747" lon="2.8587">
        <ele>29.8</ele>
        <time>2020-06-23T15:22:19Z</time>
      </trkpt>
      <trkpt lat="50.82742" lon="2.85876">
        <ele>29.9</ele>
        <time>2020-06-23T15:22:20Z</time>
      </trkpt>
      <trkpt lat="50.82737" lon="2.85883">
        <ele>30.1</ele>
        <time>2020-06-23T15:22:21Z</time>
      </trkpt>
      <trkpt lat="50.82732" lon="2.8589">
        <ele>30.3</ele>
        <time>2020-06-23T15:22:22Z</time>
      </trkpt>
      <trkpt lat="50.82726" lon="2.85898">
        <ele>30.4</ele>
        <time>2020-06-23T15:22:23Z</time>
      </trkpt>
      <trkpt lat="50.82721" lon="2.85905">
        <ele>30.6</ele>
        <time>2020-06-23T15:22:24Z</time>
      </trkpt>
      <trkpt lat="50.82716" lon="2.85912">
        <ele>30.8</ele>
        <time>2020-06-23T15:22:25Z</time>
      </trkpt>
      <trkpt lat="50.82712" lon="2.85919">
        <ele>30.9</ele>
        <time>2020-06-23T15:22:26Z</time>
      </trkpt>
      <trkpt lat="50.82706" lon="2.85927">
        <ele>31.1</ele>
        <time>2020-06-23T15:22:27Z</time>
      </trkpt>
      <trkpt lat="50.82702" lon="2.85933">
        <ele>31.3</ele>
        <time>2020-06-23T15:22:28Z</time>
      </trkpt>
      <trkpt lat="50.82696" lon="2.85939">
        <ele>31.5</ele>
        <time>2020-06-23T15:22:29Z</time>
      </trkpt>
      <trkpt lat="50.82693" lon="2.85945">
        <ele>31.6</ele>
        <time>2020-06-23T15:22:30Z</time>
      </trkpt>
      <trkpt lat="50.8269" lon="2.85951">
        <ele>31.7</ele>
        <time>2020-06-23T15:22:31Z</time>
      </trkpt>
      <trkpt lat="50.82686" lon="2.85956">
        <ele>31.9</ele>
        <time>2020-06-23T15:22:32Z</time>
      </trkpt>
      <trkpt lat="50.82682" lon="2.85962">
        <ele>32.1</ele>
        <time>2020-06-23T15:22:33Z</time>
      </trkpt>
      <trkpt lat="50.82679" lon="2.85967">
        <ele>32.3</ele>
        <time>2020-06-23T15:22:34Z</time>
      </trkpt>
      <trkpt lat="50.82675" lon="2.85973">
        <ele>32.5</ele>
        <time>2020-06-23T15:22:35Z</time>
      </trkpt>
      <trkpt lat="50.82672" lon="2.85979">
        <ele>32.6</ele>
        <time>2020-06-23T15:22:36Z</time>
      </trkpt>
      <trkpt lat="50.82667" lon="2.85985">
        <ele>32.9</ele>
        <time>2020-06-23T15:22:37Z</time>
      </trkpt>
      <trkpt lat="50.82664" lon="2.85989">
        <ele>33.1</ele>
        <time>2020-06-23T15:22:38Z</time>
      </trkpt>
      <trkpt lat="50.82659" lon="2.85993">
        <ele>33.3</ele>
        <time>2020-06-23T15:22:39Z</time>
      </trkpt>
      <trkpt lat="50.82655" lon="2.85999">
        <ele>33.5</ele>
        <time>2020-06-23T15:22:40Z</time>
      </trkpt>
      <trkpt lat="50.82651" lon="2.86004">
        <ele>33.7</ele>
        <time>2020-06-23T15:22:41Z</time>
      </trkpt>
      <trkpt lat="50.82648" lon="2.86008">
        <ele>33.9</ele>
        <time>2020-06-23T15:22:42Z</time>
      </trkpt>
      <trkpt lat="50.82644" lon="2.86013">
        <ele>34.1</ele>
        <time>2020-06-23T15:22:43Z</time>
      </trkpt>
      <trkpt lat="50.8264" lon="2.86018">
        <ele>34.3</ele>
        <time>2020-06-23T15:22:44Z</time>
      </trkpt>
      <trkpt lat="50.82636" lon="2.86024">
        <ele>34.5</ele>
        <time>2020-06-23T15:22:45Z</time>
      </trkpt>
      <trkpt lat="50.82632" lon="2.8603">
        <ele>34.7</ele>
        <time>2020-06-23T15:22:46Z</time>
      </trkpt>
      <trkpt lat="50.82629" lon="2.86036">
        <ele>34.9</ele>
        <time>2020-06-23T15:22:47Z</time>
      </trkpt>
      <trkpt lat="50.82625" lon="2.86041">
        <ele>35.1</ele>
        <time>2020-06-23T15:22:48Z</time>
      </trkpt>
      <trkpt lat="50.82621" lon="2.86047">
        <ele>35.2</ele>
        <time>2020-06-23T15:22:49Z</time>
      </trkpt>
      <trkpt lat="50.82616" lon="2.86052">
        <ele>35.4</ele>
        <time>2020-06-23T15:22:50Z</time>
      </trkpt>
      <trkpt lat="50.82612" lon="2.86059">
        <ele>35.6</ele>
        <time>2020-06-23T15:22:51Z</time>
      </trkpt>
      <trkpt lat="50.82608" lon="2.86065">
        <ele>35.8</ele>
        <time>2020-06-23T15:22:52Z</time>
      </trkpt>
      <trkpt lat="50.82604" lon="2.8607">
        <ele>36</ele>
        <time>2020-06-23T15:22:53Z</time>
      </trkpt>
      <trkpt lat="50.82599" lon="2.86076">
        <ele>36.2</ele>
        <time>2020-06-23T15:22:54Z</time>
      </trkpt>
      <trkpt lat="50.82596" lon="2.86082">
        <ele>36.3</ele>
        <time>2020-06-23T15:22:55Z</time>
      </trkpt>
      <trkpt lat="50.82592" lon="2.86087">
        <ele>36.5</ele>
        <time>2020-06-23T15:22:56Z</time>
      </trkpt>
      <trkpt lat="50.82589" lon="2.86091">
        <ele>36.6</ele>
        <time>2020-06-23T15:22:57Z</time>
      </trkpt>
      <trkpt lat="50.82586" lon="2.86095">
        <ele>36.7</ele>
        <time>2020-06-23T15:22:58Z</time>
      </trkpt>
      <trkpt lat="50.82583" lon="2.861">
        <ele>36.8</ele>
        <time>2020-06-23T15:22:59Z</time>
      </trkpt>
      <trkpt lat="50.8258" lon="2.86104">
        <ele>37</ele>
        <time>2020-06-23T15:23:00Z</time>
      </trkpt>
      <trkpt lat="50.82575" lon="2.86109">
        <ele>37</ele>
        <time>2020-06-23T15:23:01Z</time>
      </trkpt>
      <trkpt lat="50.82571" lon="2.86113">
        <ele>37</ele>
        <time>2020-06-23T15:23:02Z</time>
      </trkpt>
      <trkpt lat="50.8257" lon="2.86117">
        <ele>36.9</ele>
        <time>2020-06-23T15:23:03Z</time>
      </trkpt>
      <trkpt lat="50.82566" lon="2.86121">
        <ele>36.9</ele>
        <time>2020-06-23T15:23:04Z</time>
      </trkpt>
      <trkpt lat="50.82562" lon="2.86125">
        <ele>36.8</ele>
        <time>2020-06-23T15:23:05Z</time>
      </trkpt>
      <trkpt lat="50.82559" lon="2.86131">
        <ele>36.8</ele>
        <time>2020-06-23T15:23:06Z</time>
      </trkpt>
      <trkpt lat="50.82555" lon="2.86137">
        <ele>36.7</ele>
        <time>2020-06-23T15:23:07Z</time>
      </trkpt>
      <trkpt lat="50.82551" lon="2.86143">
        <ele>36.6</ele>
        <time>2020-06-23T15:23:08Z</time>
      </trkpt>
      <trkpt lat="50.82547" lon="2.86149">
        <ele>36.6</ele>
        <time>2020-06-23T15:23:09Z</time>
      </trkpt>
      <trkpt lat="50.82544" lon="2.86154">
        <ele>36.5</ele>
        <time>2020-06-23T15:23:10Z</time>
      </trkpt>
      <trkpt lat="50.8254" lon="2.86159">
        <ele>36.5</ele>
        <time>2020-06-23T15:23:11Z</time>
      </trkpt>
      <trkpt lat="50.82536" lon="2.86164">
        <ele>36.4</ele>
        <time>2020-06-23T15:23:12Z</time>
      </trkpt>
      <trkpt lat="50.82532" lon="2.86169">
        <ele>36.4</ele>
        <time>2020-06-23T15:23:13Z</time>
      </trkpt>
      <trkpt lat="50.82528" lon="2.86174">
        <ele>36.4</ele>
        <time>2020-06-23T15:23:14Z</time>
      </trkpt>
      <trkpt lat="50.82525" lon="2.8618">
        <ele>36.3</ele>
        <time>2020-06-23T15:23:15Z</time>
      </trkpt>
      <trkpt lat="50.82521" lon="2.86186">
        <ele>36.3</ele>
        <time>2020-06-23T15:23:16Z</time>
      </trkpt>
      <trkpt lat="50.82516" lon="2.86192">
        <ele>36.3</ele>
        <time>2020-06-23T15:23:17Z</time>
      </trkpt>
      <trkpt lat="50.82511" lon="2.86198">
        <ele>36.2</ele>
        <time>2020-06-23T15:23:18Z</time>
      </trkpt>
      <trkpt lat="50.82506" lon="2.86205">
        <ele>36.2</ele>
        <time>2020-06-23T15:23:19Z</time>
      </trkpt>
      <trkpt lat="50.82502" lon="2.86211">
        <ele>36.1</ele>
        <time>2020-06-23T15:23:20Z</time>
      </trkpt>
      <trkpt lat="50.825" lon="2.86215">
        <ele>36</ele>
        <time>2020-06-23T15:23:21Z</time>
      </trkpt>
      <trkpt lat="50.82496" lon="2.8622">
        <ele>35.9</ele>
        <time>2020-06-23T15:23:22Z</time>
      </trkpt>
      <trkpt lat="50.82493" lon="2.86225">
        <ele>35.9</ele>
        <time>2020-06-23T15:23:23Z</time>
      </trkpt>
      <trkpt lat="50.8249" lon="2.86229">
        <ele>35.8</ele>
        <time>2020-06-23T15:23:24Z</time>
      </trkpt>
      <trkpt lat="50.82486" lon="2.86234">
        <ele>35.7</ele>
        <time>2020-06-23T15:23:25Z</time>
      </trkpt>
      <trkpt lat="50.82482" lon="2.86239">
        <ele>35.6</ele>
        <time>2020-06-23T15:23:26Z</time>
      </trkpt>
      <trkpt lat="50.82479" lon="2.86245">
        <ele>35.5</ele>
        <time>2020-06-23T15:23:27Z</time>
      </trkpt>
      <trkpt lat="50.82475" lon="2.8625">
        <ele>35.4</ele>
        <time>2020-06-23T15:23:28Z</time>
      </trkpt>
      <trkpt lat="50.82471" lon="2.86256">
        <ele>35.3</ele>
        <time>2020-06-23T15:23:29Z</time>
      </trkpt>
      <trkpt lat="50.82468" lon="2.8626">
        <ele>35.2</ele>
        <time>2020-06-23T15:23:30Z</time>
      </trkpt>
      <trkpt lat="50.82465" lon="2.86264">
        <ele>35.1</ele>
        <time>2020-06-23T15:23:31Z</time>
      </trkpt>
      <trkpt lat="50.82461" lon="2.86269">
        <ele>35</ele>
        <time>2020-06-23T15:23:32Z</time>
      </trkpt>
      <trkpt lat="50.82457" lon="2.86273">
        <ele>34.9</ele>
        <time>2020-06-23T15:23:33Z</time>
      </trkpt>
      <trkpt lat="50.82454" lon="2.8628">
        <ele>34.8</ele>
        <time>2020-06-23T15:23:34Z</time>
      </trkpt>
      <trkpt lat="50.8245" lon="2.86286">
        <ele>34.7</ele>
        <time>2020-06-23T15:23:35Z</time>
      </trkpt>
      <trkpt lat="50.82446" lon="2.86291">
        <ele>34.6</ele>
        <time>2020-06-23T15:23:36Z</time>
      </trkpt>
      <trkpt lat="50.82443" lon="2.86296">
        <ele>34.5</ele>
        <time>2020-06-23T15:23:37Z</time>
      </trkpt>
      <trkpt lat="50.82439" lon="2.86301">
        <ele>34.4</ele>
        <time>2020-06-23T15:23:38Z</time>
      </trkpt>
      <trkpt lat="50.82434" lon="2.86307">
        <ele>34.3</ele>
        <time>2020-06-23T15:23:39Z</time>
      </trkpt>
      <trkpt lat="50.8243" lon="2.86313">
        <ele>34.2</ele>
        <time>2020-06-23T15:23:40Z</time>
      </trkpt>
      <trkpt lat="50.82425" lon="2.86319">
        <ele>34.1</ele>
        <time>2020-06-23T15:23:41Z</time>
      </trkpt>
      <trkpt lat="50.82421" lon="2.86325">
        <ele>34</ele>
        <time>2020-06-23T15:23:42Z</time>
      </trkpt>
      <trkpt lat="50.82417" lon="2.86332">
        <ele>33.9</ele>
        <time>2020-06-23T15:23:43Z</time>
      </trkpt>
      <trkpt lat="50.82412" lon="2.86337">
        <ele>33.8</ele>
        <time>2020-06-23T15:23:44Z</time>
      </trkpt>
      <trkpt lat="50.82408" lon="2.86344">
        <ele>33.6</ele>
        <time>2020-06-23T15:23:45Z</time>
      </trkpt>
      <trkpt lat="50.82404" lon="2.86349">
        <ele>33.5</ele>
        <time>2020-06-23T15:23:46Z</time>
      </trkpt>
      <trkpt lat="50.82399" lon="2.86355">
        <ele>33.4</ele>
        <time>2020-06-23T15:23:47Z</time>
      </trkpt>
      <trkpt lat="50.82395" lon="2.86362">
        <ele>33.3</ele>
        <time>2020-06-23T15:23:48Z</time>
      </trkpt>
      <trkpt lat="50.8239" lon="2.86368">
        <ele>33.1</ele>
        <time>2020-06-23T15:23:49Z</time>
      </trkpt>
      <trkpt lat="50.82385" lon="2.86373">
        <ele>33</ele>
        <time>2020-06-23T15:23:50Z</time>
      </trkpt>
      <trkpt lat="50.82382" lon="2.86379">
        <ele>32.9</ele>
        <time>2020-06-23T15:23:51Z</time>
      </trkpt>
      <trkpt lat="50.82378" lon="2.86385">
        <ele>32.8</ele>
        <time>2020-06-23T15:23:52Z</time>
      </trkpt>
      <trkpt lat="50.82373" lon="2.86392">
        <ele>32.7</ele>
        <time>2020-06-23T15:23:53Z</time>
      </trkpt>
      <trkpt lat="50.82368" lon="2.86399">
        <ele>32.5</ele>
        <time>2020-06-23T15:23:54Z</time>
      </trkpt>
      <trkpt lat="50.82364" lon="2.86406">
        <ele>32.4</ele>
        <time>2020-06-23T15:23:55Z</time>
      </trkpt>
      <trkpt lat="50.82359" lon="2.86413">
        <ele>32.3</ele>
        <time>2020-06-23T15:23:56Z</time>
      </trkpt>
      <trkpt lat="50.82355" lon="2.86421">
        <ele>32.2</ele>
        <time>2020-06-23T15:23:57Z</time>
      </trkpt>
      <trkpt lat="50.8235" lon="2.86429">
        <ele>32</ele>
        <time>2020-06-23T15:23:58Z</time>
      </trkpt>
      <trkpt lat="50.82346" lon="2.86438">
        <ele>31.9</ele>
        <time>2020-06-23T15:23:59Z</time>
      </trkpt>
      <trkpt lat="50.82343" lon="2.86446">
        <ele>31.8</ele>
        <time>2020-06-23T15:24:00Z</time>
      </trkpt>
      <trkpt lat="50.82339" lon="2.86454">
        <ele>31.7</ele>
        <time>2020-06-23T15:24:01Z</time>
      </trkpt>
      <trkpt lat="50.82336" lon="2.86461">
        <ele>31.6</ele>
        <time>2020-06-23T15:24:02Z</time>
      </trkpt>
      <trkpt lat="50.82333" lon="2.86469">
        <ele>31.5</ele>
        <time>2020-06-23T15:24:03Z</time>
      </trkpt>
      <trkpt lat="50.8233" lon="2.86478">
        <ele>31.5</ele>
        <time>2020-06-23T15:24:04Z</time>
      </trkpt>
      <trkpt lat="50.82327" lon="2.86485">
        <ele>31.4</ele>
        <time>2020-06-23T15:24:05Z</time>
      </trkpt>
      <trkpt lat="50.82323" lon="2.86493">
        <ele>31.3</ele>
        <time>2020-06-23T15:24:06Z</time>
      </trkpt>
      <trkpt lat="50.8232" lon="2.86502">
        <ele>31.2</ele>
        <time>2020-06-23T15:24:07Z</time>
      </trkpt>
      <trkpt lat="50.82316" lon="2.8651">
        <ele>31.1</ele>
        <time>2020-06-23T15:24:08Z</time>
      </trkpt>
      <trkpt lat="50.82313" lon="2.86519">
        <ele>31</ele>
        <time>2020-06-23T15:24:09Z</time>
      </trkpt>
      <trkpt lat="50.8231" lon="2.86528">
        <ele>30.9</ele>
        <time>2020-06-23T15:24:10Z</time>
      </trkpt>
      <trkpt lat="50.82307" lon="2.86538">
        <ele>30.8</ele>
        <time>2020-06-23T15:24:11Z</time>
      </trkpt>
      <trkpt lat="50.82305" lon="2.86547">
        <ele>30.7</ele>
        <time>2020-06-23T15:24:12Z</time>
      </trkpt>
      <trkpt lat="50.82303" lon="2.86557">
        <ele>30.6</ele>
        <time>2020-06-23T15:24:13Z</time>
      </trkpt>
      <trkpt lat="50.82301" lon="2.86566">
        <ele>30.5</ele>
        <time>2020-06-23T15:24:14Z</time>
      </trkpt>
      <trkpt lat="50.823" lon="2.86574">
        <ele>30.5</ele>
        <time>2020-06-23T15:24:15Z</time>
      </trkpt>
      <trkpt lat="50.82298" lon="2.86582">
        <ele>30.4</ele>
        <time>2020-06-23T15:24:16Z</time>
      </trkpt>
      <trkpt lat="50.82296" lon="2.8659">
        <ele>30.3</ele>
        <time>2020-06-23T15:24:17Z</time>
      </trkpt>
      <trkpt lat="50.82294" lon="2.86598">
        <ele>30.2</ele>
        <time>2020-06-23T15:24:18Z</time>
      </trkpt>
      <trkpt lat="50.82292" lon="2.86606">
        <ele>30.1</ele>
        <time>2020-06-23T15:24:19Z</time>
      </trkpt>
      <trkpt lat="50.82291" lon="2.86614">
        <ele>30</ele>
        <time>2020-06-23T15:24:20Z</time>
      </trkpt>
      <trkpt lat="50.82289" lon="2.86623">
        <ele>29.9</ele>
        <time>2020-06-23T15:24:21Z</time>
      </trkpt>
      <trkpt lat="50.82288" lon="2.86631">
        <ele>29.9</ele>
        <time>2020-06-23T15:24:22Z</time>
      </trkpt>
      <trkpt lat="50.82286" lon="2.86639">
        <ele>29.8</ele>
        <time>2020-06-23T15:24:23Z</time>
      </trkpt>
      <trkpt lat="50.82286" lon="2.86647">
        <ele>29.7</ele>
        <time>2020-06-23T15:24:24Z</time>
      </trkpt>
      <trkpt lat="50.82284" lon="2.86656">
        <ele>29.7</ele>
        <time>2020-06-23T15:24:25Z</time>
      </trkpt>
      <trkpt lat="50.82283" lon="2.86666">
        <ele>29.8</ele>
        <time>2020-06-23T15:24:26Z</time>
      </trkpt>
      <trkpt lat="50.82282" lon="2.86675">
        <ele>29.8</ele>
        <time>2020-06-23T15:24:27Z</time>
      </trkpt>
      <trkpt lat="50.82279" lon="2.86682">
        <ele>29.8</ele>
        <time>2020-06-23T15:24:28Z</time>
      </trkpt>
      <trkpt lat="50.82279" lon="2.86689">
        <ele>29.9</ele>
        <time>2020-06-23T15:24:29Z</time>
      </trkpt>
      <trkpt lat="50.82279" lon="2.86696">
        <ele>29.9</ele>
        <time>2020-06-23T15:24:30Z</time>
      </trkpt>
      <trkpt lat="50.82277" lon="2.867">
        <ele>30</ele>
        <time>2020-06-23T15:24:31Z</time>
      </trkpt>
      <trkpt lat="50.82275" lon="2.86704">
        <ele>30</ele>
        <time>2020-06-23T15:24:32Z</time>
      </trkpt>
      <trkpt lat="50.82271" lon="2.86707">
        <ele>30.1</ele>
        <time>2020-06-23T15:24:33Z</time>
      </trkpt>
      <trkpt lat="50.82267" lon="2.86709">
        <ele>30.2</ele>
        <time>2020-06-23T15:24:34Z</time>
      </trkpt>
      <trkpt lat="50.82263" lon="2.8671">
        <ele>30.4</ele>
        <time>2020-06-23T15:24:35Z</time>
      </trkpt>
      <trkpt lat="50.82258" lon="2.86714">
        <ele>30</ele>
        <time>2020-06-23T15:24:36Z</time>
      </trkpt>
      <trkpt lat="50.82255" lon="2.8672">
        <ele>29.8</ele>
        <time>2020-06-23T15:24:37Z</time>
      </trkpt>
      <trkpt lat="50.82254" lon="2.86727">
        <ele>29.8</ele>
        <time>2020-06-23T15:24:38Z</time>
      </trkpt>
      <trkpt lat="50.82254" lon="2.86735">
        <ele>29.7</ele>
        <time>2020-06-23T15:24:39Z</time>
      </trkpt>
      <trkpt lat="50.82255" lon="2.86742">
        <ele>29.7</ele>
        <time>2020-06-23T15:24:40Z</time>
      </trkpt>
      <trkpt lat="50.82256" lon="2.8675">
        <ele>29.4</ele>
        <time>2020-06-23T15:24:41Z</time>
      </trkpt>
      <trkpt lat="50.82258" lon="2.86756">
        <ele>29.3</ele>
        <time>2020-06-23T15:24:42Z</time>
      </trkpt>
      <trkpt lat="50.82259" lon="2.86762">
        <ele>29.1</ele>
        <time>2020-06-23T15:24:43Z</time>
      </trkpt>
      <trkpt lat="50.82259" lon="2.86767">
        <ele>29</ele>
        <time>2020-06-23T15:24:44Z</time>
      </trkpt>
      <trkpt lat="50.82258" lon="2.86768">
        <ele>29</ele>
        <time>2020-06-23T15:24:45Z</time>
      </trkpt>
      <trkpt lat="50.82258" lon="2.86771">
        <ele>29</ele>
        <time>2020-06-23T15:24:46Z</time>
      </trkpt>
      <trkpt lat="50.82258" lon="2.86771">
        <ele>29</ele>
        <time>2020-06-23T15:24:47Z</time>
      </trkpt>
      <trkpt lat="50.82259" lon="2.86769">
        <ele>28.9</ele>
        <time>2020-06-23T15:24:48Z</time>
      </trkpt>
      <trkpt lat="50.8226" lon="2.86767">
        <ele>28.9</ele>
        <time>2020-06-23T15:24:49Z</time>
      </trkpt>
      <trkpt lat="50.82261" lon="2.86766">
        <ele>28.9</ele>
        <time>2020-06-23T15:24:50Z</time>
      </trkpt>
      <trkpt lat="50.82263" lon="2.86767">
        <ele>28.8</ele>
        <time>2020-06-23T15:24:51Z</time>
      </trkpt>
      <trkpt lat="50.82265" lon="2.86767">
        <ele>28.8</ele>
        <time>2020-06-23T15:24:52Z</time>
      </trkpt>
      <trkpt lat="50.82266" lon="2.86766">
        <ele>28.8</ele>
        <time>2020-06-23T15:24:53Z</time>
      </trkpt>
      <trkpt lat="50.82267" lon="2.86767">
        <ele>28.8</ele>
        <time>2020-06-23T15:24:54Z</time>
      </trkpt>
      <trkpt lat="50.82268" lon="2.86768">
        <ele>28.7</ele>
        <time>2020-06-23T15:24:55Z</time>
      </trkpt>
      <trkpt lat="50.82268" lon="2.86769">
        <ele>28.7</ele>
        <time>2020-06-23T15:24:56Z</time>
      </trkpt>
      <trkpt lat="50.82267" lon="2.86772">
        <ele>28.7</ele>
        <time>2020-06-23T15:24:57Z</time>
      </trkpt>
      <trkpt lat="50.82266" lon="2.86779">
        <ele>28.6</ele>
        <time>2020-06-23T15:24:58Z</time>
      </trkpt>
      <trkpt lat="50.82266" lon="2.86782">
        <ele>28.5</ele>
        <time>2020-06-23T15:24:59Z</time>
      </trkpt>
      <trkpt lat="50.82265" lon="2.86787">
        <ele>28.5</ele>
        <time>2020-06-23T15:25:00Z</time>
      </trkpt>
      <trkpt lat="50.82263" lon="2.86791">
        <ele>28.4</ele>
        <time>2020-06-23T15:25:01Z</time>
      </trkpt>
      <trkpt lat="50.8226" lon="2.86797">
        <ele>28.2</ele>
        <time>2020-06-23T15:25:02Z</time>
      </trkpt>
      <trkpt lat="50.82257" lon="2.86804">
        <ele>28</ele>
        <time>2020-06-23T15:25:03Z</time>
      </trkpt>
      <trkpt lat="50.82254" lon="2.86811">
        <ele>27.7</ele>
        <time>2020-06-23T15:25:04Z</time>
      </trkpt>
      <trkpt lat="50.82251" lon="2.8682">
        <ele>27.5</ele>
        <time>2020-06-23T15:25:05Z</time>
      </trkpt>
      <trkpt lat="50.82249" lon="2.86828">
        <ele>27.3</ele>
        <time>2020-06-23T15:25:06Z</time>
      </trkpt>
      <trkpt lat="50.82247" lon="2.86835">
        <ele>27.2</ele>
        <time>2020-06-23T15:25:07Z</time>
      </trkpt>
      <trkpt lat="50.82244" lon="2.86843">
        <ele>27.1</ele>
        <time>2020-06-23T15:25:08Z</time>
      </trkpt>
      <trkpt lat="50.82241" lon="2.8685">
        <ele>26.9</ele>
        <time>2020-06-23T15:25:09Z</time>
      </trkpt>
      <trkpt lat="50.82238" lon="2.86857">
        <ele>26.8</ele>
        <time>2020-06-23T15:25:10Z</time>
      </trkpt>
      <trkpt lat="50.82235" lon="2.86864">
        <ele>26.7</ele>
        <time>2020-06-23T15:25:11Z</time>
      </trkpt>
      <trkpt lat="50.82231" lon="2.86872">
        <ele>26.6</ele>
        <time>2020-06-23T15:25:12Z</time>
      </trkpt>
      <trkpt lat="50.82228" lon="2.8688">
        <ele>26.4</ele>
        <time>2020-06-23T15:25:13Z</time>
      </trkpt>
      <trkpt lat="50.82224" lon="2.86886">
        <ele>26.2</ele>
        <time>2020-06-23T15:25:14Z</time>
      </trkpt>
      <trkpt lat="50.8222" lon="2.86893">
        <ele>26.1</ele>
        <time>2020-06-23T15:25:15Z</time>
      </trkpt>
      <trkpt lat="50.82216" lon="2.869">
        <ele>25.9</ele>
        <time>2020-06-23T15:25:16Z</time>
      </trkpt>
      <trkpt lat="50.82211" lon="2.86907">
        <ele>25.8</ele>
        <time>2020-06-23T15:25:17Z</time>
      </trkpt>
      <trkpt lat="50.82205" lon="2.86914">
        <ele>25.7</ele>
        <time>2020-06-23T15:25:18Z</time>
      </trkpt>
      <trkpt lat="50.822" lon="2.86922">
        <ele>25.6</ele>
        <time>2020-06-23T15:25:19Z</time>
      </trkpt>
      <trkpt lat="50.82195" lon="2.86928">
        <ele>25.5</ele>
        <time>2020-06-23T15:25:20Z</time>
      </trkpt>
      <trkpt lat="50.8219" lon="2.86934">
        <ele>25.4</ele>
        <time>2020-06-23T15:25:21Z</time>
      </trkpt>
      <trkpt lat="50.82186" lon="2.86939">
        <ele>25.3</ele>
        <time>2020-06-23T15:25:22Z</time>
      </trkpt>
      <trkpt lat="50.8218" lon="2.86946">
        <ele>25.1</ele>
        <time>2020-06-23T15:25:23Z</time>
      </trkpt>
      <trkpt lat="50.82175" lon="2.86952">
        <ele>25</ele>
        <time>2020-06-23T15:25:24Z</time>
      </trkpt>
      <trkpt lat="50.8217" lon="2.86957">
        <ele>25</ele>
        <time>2020-06-23T15:25:25Z</time>
      </trkpt>
      <trkpt lat="50.82166" lon="2.86962">
        <ele>24.9</ele>
        <time>2020-06-23T15:25:26Z</time>
      </trkpt>
      <trkpt lat="50.82161" lon="2.86966">
        <ele>24.9</ele>
        <time>2020-06-23T15:25:27Z</time>
      </trkpt>
      <trkpt lat="50.82156" lon="2.8697">
        <ele>24.8</ele>
        <time>2020-06-23T15:25:28Z</time>
      </trkpt>
      <trkpt lat="50.82152" lon="2.86973">
        <ele>24.8</ele>
        <time>2020-06-23T15:25:29Z</time>
      </trkpt>
      <trkpt lat="50.82147" lon="2.86976">
        <ele>24.8</ele>
        <time>2020-06-23T15:25:30Z</time>
      </trkpt>
      <trkpt lat="50.82142" lon="2.86981">
        <ele>24.7</ele>
        <time>2020-06-23T15:25:31Z</time>
      </trkpt>
      <trkpt lat="50.82135" lon="2.86987">
        <ele>24.7</ele>
        <time>2020-06-23T15:25:32Z</time>
      </trkpt>
      <trkpt lat="50.8213" lon="2.86993">
        <ele>24.7</ele>
        <time>2020-06-23T15:25:33Z</time>
      </trkpt>
      <trkpt lat="50.82124" lon="2.86998">
        <ele>24.7</ele>
        <time>2020-06-23T15:25:34Z</time>
      </trkpt>
      <trkpt lat="50.82119" lon="2.87003">
        <ele>24.7</ele>
        <time>2020-06-23T15:25:35Z</time>
      </trkpt>
      <trkpt lat="50.82114" lon="2.87007">
        <ele>24.7</ele>
        <time>2020-06-23T15:25:36Z</time>
      </trkpt>
      <trkpt lat="50.82109" lon="2.87012">
        <ele>24.7</ele>
        <time>2020-06-23T15:25:37Z</time>
      </trkpt>
      <trkpt lat="50.82104" lon="2.87017">
        <ele>24.7</ele>
        <time>2020-06-23T15:25:38Z</time>
      </trkpt>
      <trkpt lat="50.82099" lon="2.87021">
        <ele>24.7</ele>
        <time>2020-06-23T15:25:39Z</time>
      </trkpt>
      <trkpt lat="50.82094" lon="2.87026">
        <ele>24.7</ele>
        <time>2020-06-23T15:25:40Z</time>
      </trkpt>
      <trkpt lat="50.82091" lon="2.87032">
        <ele>24.7</ele>
        <time>2020-06-23T15:25:41Z</time>
      </trkpt>
      <trkpt lat="50.82086" lon="2.87037">
        <ele>24.7</ele>
        <time>2020-06-23T15:25:42Z</time>
      </trkpt>
      <trkpt lat="50.8208" lon="2.87043">
        <ele>24.7</ele>
        <time>2020-06-23T15:25:43Z</time>
      </trkpt>
      <trkpt lat="50.82075" lon="2.87049">
        <ele>24.7</ele>
        <time>2020-06-23T15:25:44Z</time>
      </trkpt>
      <trkpt lat="50.82069" lon="2.87054">
        <ele>24.7</ele>
        <time>2020-06-23T15:25:45Z</time>
      </trkpt>
      <trkpt lat="50.82064" lon="2.87059">
        <ele>24.8</ele>
        <time>2020-06-23T15:25:46Z</time>
      </trkpt>
      <trkpt lat="50.82057" lon="2.87064">
        <ele>24.8</ele>
        <time>2020-06-23T15:25:47Z</time>
      </trkpt>
      <trkpt lat="50.82053" lon="2.87069">
        <ele>24.8</ele>
        <time>2020-06-23T15:25:48Z</time>
      </trkpt>
      <trkpt lat="50.82046" lon="2.87073">
        <ele>24.8</ele>
        <time>2020-06-23T15:25:49Z</time>
      </trkpt>
      <trkpt lat="50.82042" lon="2.87079">
        <ele>24.9</ele>
        <time>2020-06-23T15:25:50Z</time>
      </trkpt>
      <trkpt lat="50.82038" lon="2.87083">
        <ele>24.9</ele>
        <time>2020-06-23T15:25:51Z</time>
      </trkpt>
      <trkpt lat="50.82033" lon="2.87089">
        <ele>24.9</ele>
        <time>2020-06-23T15:25:52Z</time>
      </trkpt>
      <trkpt lat="50.82028" lon="2.87094">
        <ele>25</ele>
        <time>2020-06-23T15:25:53Z</time>
      </trkpt>
      <trkpt lat="50.82022" lon="2.87099">
        <ele>25</ele>
        <time>2020-06-23T15:25:54Z</time>
      </trkpt>
      <trkpt lat="50.82016" lon="2.87105">
        <ele>25.1</ele>
        <time>2020-06-23T15:25:55Z</time>
      </trkpt>
      <trkpt lat="50.82011" lon="2.87109">
        <ele>25.1</ele>
        <time>2020-06-23T15:25:56Z</time>
      </trkpt>
      <trkpt lat="50.82006" lon="2.87114">
        <ele>25.2</ele>
        <time>2020-06-23T15:25:57Z</time>
      </trkpt>
      <trkpt lat="50.82001" lon="2.87118">
        <ele>25.2</ele>
        <time>2020-06-23T15:25:58Z</time>
      </trkpt>
      <trkpt lat="50.81995" lon="2.87123">
        <ele>25.3</ele>
        <time>2020-06-23T15:25:59Z</time>
      </trkpt>
      <trkpt lat="50.81989" lon="2.87128">
        <ele>25.3</ele>
        <time>2020-06-23T15:26:00Z</time>
      </trkpt>
      <trkpt lat="50.81985" lon="2.87132">
        <ele>25.3</ele>
        <time>2020-06-23T15:26:01Z</time>
      </trkpt>
      <trkpt lat="50.81979" lon="2.87138">
        <ele>25.4</ele>
        <time>2020-06-23T15:26:02Z</time>
      </trkpt>
      <trkpt lat="50.81974" lon="2.87144">
        <ele>25.4</ele>
        <time>2020-06-23T15:26:03Z</time>
      </trkpt>
      <trkpt lat="50.81969" lon="2.87148">
        <ele>25.4</ele>
        <time>2020-06-23T15:26:04Z</time>
      </trkpt>
      <trkpt lat="50.81964" lon="2.87153">
        <ele>25.5</ele>
        <time>2020-06-23T15:26:05Z</time>
      </trkpt>
      <trkpt lat="50.8196" lon="2.87157">
        <ele>25.5</ele>
        <time>2020-06-23T15:26:06Z</time>
      </trkpt>
      <trkpt lat="50.81955" lon="2.87161">
        <ele>25.6</ele>
        <time>2020-06-23T15:26:07Z</time>
      </trkpt>
      <trkpt lat="50.8195" lon="2.87165">
        <ele>25.5</ele>
        <time>2020-06-23T15:26:08Z</time>
      </trkpt>
      <trkpt lat="50.81946" lon="2.87171">
        <ele>25.4</ele>
        <time>2020-06-23T15:26:09Z</time>
      </trkpt>
      <trkpt lat="50.8194" lon="2.87175">
        <ele>25.3</ele>
        <time>2020-06-23T15:26:10Z</time>
      </trkpt>
      <trkpt lat="50.81936" lon="2.8718">
        <ele>25.3</ele>
        <time>2020-06-23T15:26:11Z</time>
      </trkpt>
      <trkpt lat="50.81932" lon="2.87185">
        <ele>25.2</ele>
        <time>2020-06-23T15:26:12Z</time>
      </trkpt>
      <trkpt lat="50.81927" lon="2.8719">
        <ele>25.2</ele>
        <time>2020-06-23T15:26:13Z</time>
      </trkpt>
      <trkpt lat="50.81922" lon="2.87196">
        <ele>25.3</ele>
        <time>2020-06-23T15:26:14Z</time>
      </trkpt>
      <trkpt lat="50.81918" lon="2.87201">
        <ele>25.3</ele>
        <time>2020-06-23T15:26:15Z</time>
      </trkpt>
      <trkpt lat="50.81913" lon="2.87206">
        <ele>25.3</ele>
        <time>2020-06-23T15:26:16Z</time>
      </trkpt>
      <trkpt lat="50.81909" lon="2.8721">
        <ele>25.3</ele>
        <time>2020-06-23T15:26:17Z</time>
      </trkpt>
      <trkpt lat="50.81904" lon="2.87216">
        <ele>25.3</ele>
        <time>2020-06-23T15:26:18Z</time>
      </trkpt>
      <trkpt lat="50.81899" lon="2.87222">
        <ele>25.4</ele>
        <time>2020-06-23T15:26:19Z</time>
      </trkpt>
      <trkpt lat="50.81894" lon="2.87229">
        <ele>25.4</ele>
        <time>2020-06-23T15:26:20Z</time>
      </trkpt>
      <trkpt lat="50.81888" lon="2.87235">
        <ele>25.4</ele>
        <time>2020-06-23T15:26:21Z</time>
      </trkpt>
      <trkpt lat="50.81884" lon="2.87242">
        <ele>25.4</ele>
        <time>2020-06-23T15:26:22Z</time>
      </trkpt>
      <trkpt lat="50.8188" lon="2.87248">
        <ele>25.4</ele>
        <time>2020-06-23T15:26:23Z</time>
      </trkpt>
      <trkpt lat="50.81876" lon="2.87254">
        <ele>25.4</ele>
        <time>2020-06-23T15:26:24Z</time>
      </trkpt>
      <trkpt lat="50.81871" lon="2.87261">
        <ele>25.4</ele>
        <time>2020-06-23T15:26:25Z</time>
      </trkpt>
      <trkpt lat="50.81866" lon="2.87267">
        <ele>25.4</ele>
        <time>2020-06-23T15:26:26Z</time>
      </trkpt>
      <trkpt lat="50.81862" lon="2.87274">
        <ele>25.4</ele>
        <time>2020-06-23T15:26:27Z</time>
      </trkpt>
      <trkpt lat="50.81858" lon="2.87281">
        <ele>25.4</ele>
        <time>2020-06-23T15:26:28Z</time>
      </trkpt>
      <trkpt lat="50.81852" lon="2.87287">
        <ele>25.4</ele>
        <time>2020-06-23T15:26:29Z</time>
      </trkpt>
      <trkpt lat="50.81847" lon="2.87294">
        <ele>25.4</ele>
        <time>2020-06-23T15:26:30Z</time>
      </trkpt>
      <trkpt lat="50.81843" lon="2.87301">
        <ele>25.4</ele>
        <time>2020-06-23T15:26:31Z</time>
      </trkpt>
      <trkpt lat="50.81839" lon="2.87308">
        <ele>25.4</ele>
        <time>2020-06-23T15:26:32Z</time>
      </trkpt>
      <trkpt lat="50.81834" lon="2.87315">
        <ele>25.4</ele>
        <time>2020-06-23T15:26:33Z</time>
      </trkpt>
      <trkpt lat="50.81829" lon="2.87323">
        <ele>25.4</ele>
        <time>2020-06-23T15:26:34Z</time>
      </trkpt>
      <trkpt lat="50.81825" lon="2.8733">
        <ele>25.5</ele>
        <time>2020-06-23T15:26:35Z</time>
      </trkpt>
      <trkpt lat="50.8182" lon="2.87337">
        <ele>25.5</ele>
        <time>2020-06-23T15:26:36Z</time>
      </trkpt>
      <trkpt lat="50.81817" lon="2.87341">
        <ele>25.6</ele>
        <time>2020-06-23T15:26:37Z</time>
      </trkpt>
      <trkpt lat="50.81813" lon="2.87347">
        <ele>25.6</ele>
        <time>2020-06-23T15:26:38Z</time>
      </trkpt>
      <trkpt lat="50.81809" lon="2.87354">
        <ele>25.6</ele>
        <time>2020-06-23T15:26:39Z</time>
      </trkpt>
      <trkpt lat="50.81804" lon="2.87361">
        <ele>25.6</ele>
        <time>2020-06-23T15:26:40Z</time>
      </trkpt>
      <trkpt lat="50.818" lon="2.87369">
        <ele>25.6</ele>
        <time>2020-06-23T15:26:41Z</time>
      </trkpt>
      <trkpt lat="50.81795" lon="2.87375">
        <ele>25.6</ele>
        <time>2020-06-23T15:26:42Z</time>
      </trkpt>
      <trkpt lat="50.8179" lon="2.87382">
        <ele>25.6</ele>
        <time>2020-06-23T15:26:43Z</time>
      </trkpt>
      <trkpt lat="50.81786" lon="2.87386">
        <ele>25.6</ele>
        <time>2020-06-23T15:26:44Z</time>
      </trkpt>
      <trkpt lat="50.81782" lon="2.87392">
        <ele>25.6</ele>
        <time>2020-06-23T15:26:45Z</time>
      </trkpt>
      <trkpt lat="50.81778" lon="2.87399">
        <ele>25.6</ele>
        <time>2020-06-23T15:26:46Z</time>
      </trkpt>
      <trkpt lat="50.81771" lon="2.87406">
        <ele>25.6</ele>
        <time>2020-06-23T15:26:47Z</time>
      </trkpt>
      <trkpt lat="50.81766" lon="2.87414">
        <ele>25.6</ele>
        <time>2020-06-23T15:26:48Z</time>
      </trkpt>
      <trkpt lat="50.81761" lon="2.87422">
        <ele>25.7</ele>
        <time>2020-06-23T15:26:49Z</time>
      </trkpt>
      <trkpt lat="50.81757" lon="2.87427">
        <ele>25.7</ele>
        <time>2020-06-23T15:26:50Z</time>
      </trkpt>
      <trkpt lat="50.81755" lon="2.87434">
        <ele>25.6</ele>
        <time>2020-06-23T15:26:51Z</time>
      </trkpt>
      <trkpt lat="50.81752" lon="2.87442">
        <ele>25.6</ele>
        <time>2020-06-23T15:26:52Z</time>
      </trkpt>
      <trkpt lat="50.81749" lon="2.87446">
        <ele>25.6</ele>
        <time>2020-06-23T15:26:53Z</time>
      </trkpt>
      <trkpt lat="50.81745" lon="2.87453">
        <ele>25.6</ele>
        <time>2020-06-23T15:26:54Z</time>
      </trkpt>
      <trkpt lat="50.81741" lon="2.8746">
        <ele>25.5</ele>
        <time>2020-06-23T15:26:55Z</time>
      </trkpt>
      <trkpt lat="50.81737" lon="2.87466">
        <ele>25.5</ele>
        <time>2020-06-23T15:26:56Z</time>
      </trkpt>
      <trkpt lat="50.81734" lon="2.87472">
        <ele>25.4</ele>
        <time>2020-06-23T15:26:57Z</time>
      </trkpt>
      <trkpt lat="50.8173" lon="2.87478">
        <ele>25.4</ele>
        <time>2020-06-23T15:26:58Z</time>
      </trkpt>
      <trkpt lat="50.81726" lon="2.87486">
        <ele>25.4</ele>
        <time>2020-06-23T15:26:59Z</time>
      </trkpt>
      <trkpt lat="50.81721" lon="2.87491">
        <ele>25.3</ele>
        <time>2020-06-23T15:27:00Z</time>
      </trkpt>
      <trkpt lat="50.81715" lon="2.87496">
        <ele>25.3</ele>
        <time>2020-06-23T15:27:01Z</time>
      </trkpt>
      <trkpt lat="50.8171" lon="2.87504">
        <ele>25.3</ele>
        <time>2020-06-23T15:27:02Z</time>
      </trkpt>
      <trkpt lat="50.81705" lon="2.8751">
        <ele>25.2</ele>
        <time>2020-06-23T15:27:03Z</time>
      </trkpt>
      <trkpt lat="50.817" lon="2.87516">
        <ele>25.2</ele>
        <time>2020-06-23T15:27:04Z</time>
      </trkpt>
      <trkpt lat="50.81695" lon="2.87522">
        <ele>25.1</ele>
        <time>2020-06-23T15:27:05Z</time>
      </trkpt>
      <trkpt lat="50.81691" lon="2.87528">
        <ele>25</ele>
        <time>2020-06-23T15:27:06Z</time>
      </trkpt>
      <trkpt lat="50.81688" lon="2.87537">
        <ele>25</ele>
        <time>2020-06-23T15:27:07Z</time>
      </trkpt>
      <trkpt lat="50.81684" lon="2.87543">
        <ele>25</ele>
        <time>2020-06-23T15:27:08Z</time>
      </trkpt>
      <trkpt lat="50.81681" lon="2.87546">
        <ele>24.9</ele>
        <time>2020-06-23T15:27:09Z</time>
      </trkpt>
      <trkpt lat="50.81674" lon="2.87552">
        <ele>24.9</ele>
        <time>2020-06-23T15:27:10Z</time>
      </trkpt>
      <trkpt lat="50.81668" lon="2.87557">
        <ele>24.8</ele>
        <time>2020-06-23T15:27:11Z</time>
      </trkpt>
      <trkpt lat="50.81664" lon="2.8756">
        <ele>24.8</ele>
        <time>2020-06-23T15:27:12Z</time>
      </trkpt>
      <trkpt lat="50.81659" lon="2.87564">
        <ele>24.9</ele>
        <time>2020-06-23T15:27:13Z</time>
      </trkpt>
      <trkpt lat="50.81653" lon="2.87568">
        <ele>24.9</ele>
        <time>2020-06-23T15:27:14Z</time>
      </trkpt>
      <trkpt lat="50.81647" lon="2.87573">
        <ele>24.9</ele>
        <time>2020-06-23T15:27:15Z</time>
      </trkpt>
      <trkpt lat="50.81642" lon="2.87576">
        <ele>24.9</ele>
        <time>2020-06-23T15:27:16Z</time>
      </trkpt>
      <trkpt lat="50.81636" lon="2.8758">
        <ele>24.9</ele>
        <time>2020-06-23T15:27:17Z</time>
      </trkpt>
      <trkpt lat="50.81629" lon="2.87583">
        <ele>24.9</ele>
        <time>2020-06-23T15:27:18Z</time>
      </trkpt>
      <trkpt lat="50.81625" lon="2.87584">
        <ele>24.9</ele>
        <time>2020-06-23T15:27:19Z</time>
      </trkpt>
      <trkpt lat="50.8162" lon="2.87584">
        <ele>24.9</ele>
        <time>2020-06-23T15:27:20Z</time>
      </trkpt>
      <trkpt lat="50.81615" lon="2.87585">
        <ele>25</ele>
        <time>2020-06-23T15:27:21Z</time>
      </trkpt>
      <trkpt lat="50.8161" lon="2.87588">
        <ele>25</ele>
        <time>2020-06-23T15:27:22Z</time>
      </trkpt>
      <trkpt lat="50.81602" lon="2.87589">
        <ele>25</ele>
        <time>2020-06-23T15:27:23Z</time>
      </trkpt>
      <trkpt lat="50.81596" lon="2.87588">
        <ele>24.9</ele>
        <time>2020-06-23T15:27:24Z</time>
      </trkpt>
      <trkpt lat="50.81592" lon="2.87581">
        <ele>24.8</ele>
        <time>2020-06-23T15:27:25Z</time>
      </trkpt>
      <trkpt lat="50.8159" lon="2.87571">
        <ele>24.7</ele>
        <time>2020-06-23T15:27:26Z</time>
      </trkpt>
      <trkpt lat="50.81585" lon="2.87563">
        <ele>24.6</ele>
        <time>2020-06-23T15:27:27Z</time>
      </trkpt>
      <trkpt lat="50.8158" lon="2.87556">
        <ele>24.6</ele>
        <time>2020-06-23T15:27:28Z</time>
      </trkpt>
      <trkpt lat="50.81576" lon="2.8755">
        <ele>24.5</ele>
        <time>2020-06-23T15:27:29Z</time>
      </trkpt>
      <trkpt lat="50.81572" lon="2.87544">
        <ele>24.5</ele>
        <time>2020-06-23T15:27:30Z</time>
      </trkpt>
      <trkpt lat="50.81566" lon="2.87538">
        <ele>24.4</ele>
        <time>2020-06-23T15:27:31Z</time>
      </trkpt>
      <trkpt lat="50.81561" lon="2.87532">
        <ele>24.4</ele>
        <time>2020-06-23T15:27:32Z</time>
      </trkpt>
      <trkpt lat="50.81555" lon="2.87527">
        <ele>24.4</ele>
        <time>2020-06-23T15:27:33Z</time>
      </trkpt>
      <trkpt lat="50.81549" lon="2.8752">
        <ele>24.4</ele>
        <time>2020-06-23T15:27:34Z</time>
      </trkpt>
      <trkpt lat="50.81544" lon="2.87513">
        <ele>24.3</ele>
        <time>2020-06-23T15:27:35Z</time>
      </trkpt>
      <trkpt lat="50.8154" lon="2.87508">
        <ele>24.3</ele>
        <time>2020-06-23T15:27:36Z</time>
      </trkpt>
      <trkpt lat="50.81533" lon="2.87505">
        <ele>24.3</ele>
        <time>2020-06-23T15:27:37Z</time>
      </trkpt>
      <trkpt lat="50.81528" lon="2.87502">
        <ele>24.2</ele>
        <time>2020-06-23T15:27:38Z</time>
      </trkpt>
      <trkpt lat="50.81523" lon="2.87496">
        <ele>24.2</ele>
        <time>2020-06-23T15:27:39Z</time>
      </trkpt>
      <trkpt lat="50.81518" lon="2.87492">
        <ele>24.1</ele>
        <time>2020-06-23T15:27:40Z</time>
      </trkpt>
      <trkpt lat="50.81512" lon="2.87489">
        <ele>24.1</ele>
        <time>2020-06-23T15:27:41Z</time>
      </trkpt>
      <trkpt lat="50.81507" lon="2.87485">
        <ele>24</ele>
        <time>2020-06-23T15:27:42Z</time>
      </trkpt>
      <trkpt lat="50.81501" lon="2.87481">
        <ele>24</ele>
        <time>2020-06-23T15:27:43Z</time>
      </trkpt>
      <trkpt lat="50.81495" lon="2.87478">
        <ele>24</ele>
        <time>2020-06-23T15:27:44Z</time>
      </trkpt>
      <trkpt lat="50.8149" lon="2.87473">
        <ele>23.9</ele>
        <time>2020-06-23T15:27:45Z</time>
      </trkpt>
      <trkpt lat="50.81484" lon="2.87469">
        <ele>23.9</ele>
        <time>2020-06-23T15:27:46Z</time>
      </trkpt>
      <trkpt lat="50.81478" lon="2.87467">
        <ele>23.9</ele>
        <time>2020-06-23T15:27:47Z</time>
      </trkpt>
      <trkpt lat="50.81472" lon="2.87462">
        <ele>23.9</ele>
        <time>2020-06-23T15:27:48Z</time>
      </trkpt>
      <trkpt lat="50.81466" lon="2.87459">
        <ele>23.9</ele>
        <time>2020-06-23T15:27:49Z</time>
      </trkpt>
      <trkpt lat="50.81461" lon="2.87456">
        <ele>23.9</ele>
        <time>2020-06-23T15:27:50Z</time>
      </trkpt>
      <trkpt lat="50.81454" lon="2.87453">
        <ele>24</ele>
        <time>2020-06-23T15:27:51Z</time>
      </trkpt>
      <trkpt lat="50.81448" lon="2.87449">
        <ele>24</ele>
        <time>2020-06-23T15:27:52Z</time>
      </trkpt>
      <trkpt lat="50.81441" lon="2.87442">
        <ele>24.1</ele>
        <time>2020-06-23T15:27:53Z</time>
      </trkpt>
      <trkpt lat="50.81434" lon="2.87438">
        <ele>24</ele>
        <time>2020-06-23T15:27:54Z</time>
      </trkpt>
      <trkpt lat="50.81428" lon="2.87436">
        <ele>24</ele>
        <time>2020-06-23T15:27:55Z</time>
      </trkpt>
      <trkpt lat="50.81421" lon="2.87432">
        <ele>23.9</ele>
        <time>2020-06-23T15:27:56Z</time>
      </trkpt>
      <trkpt lat="50.81414" lon="2.87428">
        <ele>23.9</ele>
        <time>2020-06-23T15:27:57Z</time>
      </trkpt>
      <trkpt lat="50.81408" lon="2.87424">
        <ele>23.9</ele>
        <time>2020-06-23T15:27:58Z</time>
      </trkpt>
      <trkpt lat="50.81402" lon="2.8742">
        <ele>23.9</ele>
        <time>2020-06-23T15:27:59Z</time>
      </trkpt>
      <trkpt lat="50.81396" lon="2.87417">
        <ele>23.9</ele>
        <time>2020-06-23T15:28:00Z</time>
      </trkpt>
      <trkpt lat="50.8139" lon="2.87413">
        <ele>23.9</ele>
        <time>2020-06-23T15:28:01Z</time>
      </trkpt>
      <trkpt lat="50.81384" lon="2.8741">
        <ele>23.9</ele>
        <time>2020-06-23T15:28:02Z</time>
      </trkpt>
      <trkpt lat="50.81378" lon="2.87407">
        <ele>24</ele>
        <time>2020-06-23T15:28:03Z</time>
      </trkpt>
      <trkpt lat="50.81372" lon="2.87404">
        <ele>24</ele>
        <time>2020-06-23T15:28:04Z</time>
      </trkpt>
      <trkpt lat="50.81365" lon="2.87401">
        <ele>24</ele>
        <time>2020-06-23T15:28:05Z</time>
      </trkpt>
      <trkpt lat="50.81359" lon="2.87398">
        <ele>24</ele>
        <time>2020-06-23T15:28:06Z</time>
      </trkpt>
      <trkpt lat="50.81353" lon="2.87394">
        <ele>24.1</ele>
        <time>2020-06-23T15:28:07Z</time>
      </trkpt>
      <trkpt lat="50.81348" lon="2.87391">
        <ele>24.1</ele>
        <time>2020-06-23T15:28:08Z</time>
      </trkpt>
      <trkpt lat="50.81342" lon="2.87386">
        <ele>24.2</ele>
        <time>2020-06-23T15:28:09Z</time>
      </trkpt>
      <trkpt lat="50.81336" lon="2.87383">
        <ele>24.3</ele>
        <time>2020-06-23T15:28:10Z</time>
      </trkpt>
      <trkpt lat="50.8133" lon="2.87379">
        <ele>24.4</ele>
        <time>2020-06-23T15:28:11Z</time>
      </trkpt>
      <trkpt lat="50.81324" lon="2.87375">
        <ele>24.5</ele>
        <time>2020-06-23T15:28:12Z</time>
      </trkpt>
      <trkpt lat="50.81318" lon="2.87372">
        <ele>24.6</ele>
        <time>2020-06-23T15:28:13Z</time>
      </trkpt>
      <trkpt lat="50.81313" lon="2.87368">
        <ele>24.6</ele>
        <time>2020-06-23T15:28:14Z</time>
      </trkpt>
      <trkpt lat="50.81307" lon="2.87364">
        <ele>24.6</ele>
        <time>2020-06-23T15:28:15Z</time>
      </trkpt>
      <trkpt lat="50.81301" lon="2.8736">
        <ele>24.6</ele>
        <time>2020-06-23T15:28:16Z</time>
      </trkpt>
      <trkpt lat="50.81296" lon="2.87357">
        <ele>24.7</ele>
        <time>2020-06-23T15:28:17Z</time>
      </trkpt>
      <trkpt lat="50.8129" lon="2.87353">
        <ele>24.7</ele>
        <time>2020-06-23T15:28:18Z</time>
      </trkpt>
      <trkpt lat="50.81284" lon="2.87349">
        <ele>24.8</ele>
        <time>2020-06-23T15:28:19Z</time>
      </trkpt>
      <trkpt lat="50.81278" lon="2.87345">
        <ele>24.9</ele>
        <time>2020-06-23T15:28:20Z</time>
      </trkpt>
      <trkpt lat="50.81273" lon="2.87342">
        <ele>24.9</ele>
        <time>2020-06-23T15:28:21Z</time>
      </trkpt>
      <trkpt lat="50.81268" lon="2.87338">
        <ele>25</ele>
        <time>2020-06-23T15:28:22Z</time>
      </trkpt>
      <trkpt lat="50.81262" lon="2.87335">
        <ele>25</ele>
        <time>2020-06-23T15:28:23Z</time>
      </trkpt>
      <trkpt lat="50.81257" lon="2.8733">
        <ele>25.1</ele>
        <time>2020-06-23T15:28:24Z</time>
      </trkpt>
      <trkpt lat="50.81251" lon="2.87327">
        <ele>25.1</ele>
        <time>2020-06-23T15:28:25Z</time>
      </trkpt>
      <trkpt lat="50.81245" lon="2.87324">
        <ele>25.2</ele>
        <time>2020-06-23T15:28:26Z</time>
      </trkpt>
      <trkpt lat="50.8124" lon="2.87321">
        <ele>25.3</ele>
        <time>2020-06-23T15:28:27Z</time>
      </trkpt>
      <trkpt lat="50.81234" lon="2.87317">
        <ele>25.4</ele>
        <time>2020-06-23T15:28:28Z</time>
      </trkpt>
      <trkpt lat="50.81228" lon="2.87314">
        <ele>25.5</ele>
        <time>2020-06-23T15:28:29Z</time>
      </trkpt>
      <trkpt lat="50.81222" lon="2.87311">
        <ele>25.6</ele>
        <time>2020-06-23T15:28:30Z</time>
      </trkpt>
      <trkpt lat="50.81218" lon="2.87307">
        <ele>25.7</ele>
        <time>2020-06-23T15:28:31Z</time>
      </trkpt>
      <trkpt lat="50.81212" lon="2.87303">
        <ele>25.8</ele>
        <time>2020-06-23T15:28:32Z</time>
      </trkpt>
      <trkpt lat="50.81206" lon="2.87302">
        <ele>26</ele>
        <time>2020-06-23T15:28:33Z</time>
      </trkpt>
      <trkpt lat="50.81199" lon="2.87301">
        <ele>26.1</ele>
        <time>2020-06-23T15:28:34Z</time>
      </trkpt>
      <trkpt lat="50.81194" lon="2.87303">
        <ele>26.2</ele>
        <time>2020-06-23T15:28:35Z</time>
      </trkpt>
      <trkpt lat="50.81188" lon="2.87305">
        <ele>26.3</ele>
        <time>2020-06-23T15:28:36Z</time>
      </trkpt>
      <trkpt lat="50.81181" lon="2.87306">
        <ele>26.4</ele>
        <time>2020-06-23T15:28:37Z</time>
      </trkpt>
      <trkpt lat="50.81176" lon="2.87307">
        <ele>26.5</ele>
        <time>2020-06-23T15:28:38Z</time>
      </trkpt>
      <trkpt lat="50.8117" lon="2.87308">
        <ele>26.5</ele>
        <time>2020-06-23T15:28:39Z</time>
      </trkpt>
      <trkpt lat="50.81165" lon="2.87309">
        <ele>26.6</ele>
        <time>2020-06-23T15:28:40Z</time>
      </trkpt>
      <trkpt lat="50.8116" lon="2.87309">
        <ele>26.7</ele>
        <time>2020-06-23T15:28:41Z</time>
      </trkpt>
      <trkpt lat="50.81155" lon="2.8731">
        <ele>26.8</ele>
        <time>2020-06-23T15:28:42Z</time>
      </trkpt>
      <trkpt lat="50.81148" lon="2.87311">
        <ele>26.8</ele>
        <time>2020-06-23T15:28:43Z</time>
      </trkpt>
      <trkpt lat="50.81143" lon="2.87313">
        <ele>26.9</ele>
        <time>2020-06-23T15:28:44Z</time>
      </trkpt>
      <trkpt lat="50.81137" lon="2.87314">
        <ele>27</ele>
        <time>2020-06-23T15:28:45Z</time>
      </trkpt>
      <trkpt lat="50.8113" lon="2.87315">
        <ele>27.1</ele>
        <time>2020-06-23T15:28:46Z</time>
      </trkpt>
      <trkpt lat="50.81124" lon="2.87316">
        <ele>27.2</ele>
        <time>2020-06-23T15:28:47Z</time>
      </trkpt>
      <trkpt lat="50.81119" lon="2.87318">
        <ele>27.3</ele>
        <time>2020-06-23T15:28:48Z</time>
      </trkpt>
      <trkpt lat="50.81114" lon="2.87319">
        <ele>27.4</ele>
        <time>2020-06-23T15:28:49Z</time>
      </trkpt>
      <trkpt lat="50.81109" lon="2.8732">
        <ele>27.5</ele>
        <time>2020-06-23T15:28:50Z</time>
      </trkpt>
      <trkpt lat="50.81104" lon="2.87321">
        <ele>27.6</ele>
        <time>2020-06-23T15:28:51Z</time>
      </trkpt>
      <trkpt lat="50.81099" lon="2.87322">
        <ele>27.7</ele>
        <time>2020-06-23T15:28:52Z</time>
      </trkpt>
      <trkpt lat="50.81095" lon="2.87321">
        <ele>27.8</ele>
        <time>2020-06-23T15:28:53Z</time>
      </trkpt>
      <trkpt lat="50.8109" lon="2.87321">
        <ele>28</ele>
        <time>2020-06-23T15:28:54Z</time>
      </trkpt>
      <trkpt lat="50.81083" lon="2.87322">
        <ele>28.1</ele>
        <time>2020-06-23T15:28:55Z</time>
      </trkpt>
      <trkpt lat="50.81077" lon="2.87322">
        <ele>28.3</ele>
        <time>2020-06-23T15:28:56Z</time>
      </trkpt>
      <trkpt lat="50.81072" lon="2.87323">
        <ele>28.4</ele>
        <time>2020-06-23T15:28:57Z</time>
      </trkpt>
      <trkpt lat="50.81067" lon="2.87324">
        <ele>28.5</ele>
        <time>2020-06-23T15:28:58Z</time>
      </trkpt>
      <trkpt lat="50.81061" lon="2.87325">
        <ele>28.7</ele>
        <time>2020-06-23T15:28:59Z</time>
      </trkpt>
      <trkpt lat="50.81055" lon="2.87326">
        <ele>28.8</ele>
        <time>2020-06-23T15:29:00Z</time>
      </trkpt>
      <trkpt lat="50.8105" lon="2.87328">
        <ele>28.9</ele>
        <time>2020-06-23T15:29:01Z</time>
      </trkpt>
      <trkpt lat="50.81044" lon="2.87328">
        <ele>29</ele>
        <time>2020-06-23T15:29:02Z</time>
      </trkpt>
      <trkpt lat="50.81039" lon="2.87328">
        <ele>29.1</ele>
        <time>2020-06-23T15:29:03Z</time>
      </trkpt>
      <trkpt lat="50.81034" lon="2.87329">
        <ele>29.1</ele>
        <time>2020-06-23T15:29:04Z</time>
      </trkpt>
      <trkpt lat="50.81029" lon="2.8733">
        <ele>29.2</ele>
        <time>2020-06-23T15:29:05Z</time>
      </trkpt>
      <trkpt lat="50.81024" lon="2.87329">
        <ele>29.2</ele>
        <time>2020-06-23T15:29:06Z</time>
      </trkpt>
      <trkpt lat="50.81019" lon="2.87329">
        <ele>29.2</ele>
        <time>2020-06-23T15:29:07Z</time>
      </trkpt>
      <trkpt lat="50.81013" lon="2.87329">
        <ele>29.2</ele>
        <time>2020-06-23T15:29:08Z</time>
      </trkpt>
      <trkpt lat="50.81007" lon="2.87329">
        <ele>29.2</ele>
        <time>2020-06-23T15:29:09Z</time>
      </trkpt>
      <trkpt lat="50.81001" lon="2.87329">
        <ele>29.2</ele>
        <time>2020-06-23T15:29:10Z</time>
      </trkpt>
      <trkpt lat="50.80995" lon="2.87329">
        <ele>29.2</ele>
        <time>2020-06-23T15:29:11Z</time>
      </trkpt>
      <trkpt lat="50.8099" lon="2.87329">
        <ele>29.3</ele>
        <time>2020-06-23T15:29:12Z</time>
      </trkpt>
      <trkpt lat="50.80984" lon="2.8733">
        <ele>29.3</ele>
        <time>2020-06-23T15:29:13Z</time>
      </trkpt>
      <trkpt lat="50.80979" lon="2.87329">
        <ele>29.3</ele>
        <time>2020-06-23T15:29:14Z</time>
      </trkpt>
      <trkpt lat="50.80974" lon="2.87329">
        <ele>29.3</ele>
        <time>2020-06-23T15:29:15Z</time>
      </trkpt>
      <trkpt lat="50.80968" lon="2.87328">
        <ele>29.3</ele>
        <time>2020-06-23T15:29:16Z</time>
      </trkpt>
      <trkpt lat="50.80962" lon="2.87327">
        <ele>29.3</ele>
        <time>2020-06-23T15:29:17Z</time>
      </trkpt>
      <trkpt lat="50.80957" lon="2.87327">
        <ele>29.3</ele>
        <time>2020-06-23T15:29:18Z</time>
      </trkpt>
      <trkpt lat="50.80951" lon="2.87327">
        <ele>29.3</ele>
        <time>2020-06-23T15:29:19Z</time>
      </trkpt>
      <trkpt lat="50.80946" lon="2.87328">
        <ele>29.3</ele>
        <time>2020-06-23T15:29:20Z</time>
      </trkpt>
      <trkpt lat="50.80941" lon="2.87329">
        <ele>29.3</ele>
        <time>2020-06-23T15:29:21Z</time>
      </trkpt>
      <trkpt lat="50.80935" lon="2.8733">
        <ele>29.4</ele>
        <time>2020-06-23T15:29:22Z</time>
      </trkpt>
      <trkpt lat="50.80929" lon="2.87331">
        <ele>29.4</ele>
        <time>2020-06-23T15:29:23Z</time>
      </trkpt>
      <trkpt lat="50.80923" lon="2.87331">
        <ele>29.4</ele>
        <time>2020-06-23T15:29:24Z</time>
      </trkpt>
      <trkpt lat="50.80917" lon="2.8733">
        <ele>29.5</ele>
        <time>2020-06-23T15:29:25Z</time>
      </trkpt>
      <trkpt lat="50.80911" lon="2.87331">
        <ele>29.5</ele>
        <time>2020-06-23T15:29:26Z</time>
      </trkpt>
      <trkpt lat="50.80905" lon="2.87331">
        <ele>29.6</ele>
        <time>2020-06-23T15:29:27Z</time>
      </trkpt>
      <trkpt lat="50.809" lon="2.87331">
        <ele>29.6</ele>
        <time>2020-06-23T15:29:28Z</time>
      </trkpt>
      <trkpt lat="50.80894" lon="2.87331">
        <ele>29.7</ele>
        <time>2020-06-23T15:29:29Z</time>
      </trkpt>
      <trkpt lat="50.80888" lon="2.87331">
        <ele>29.7</ele>
        <time>2020-06-23T15:29:30Z</time>
      </trkpt>
      <trkpt lat="50.80883" lon="2.87332">
        <ele>29.7</ele>
        <time>2020-06-23T15:29:31Z</time>
      </trkpt>
      <trkpt lat="50.80878" lon="2.87332">
        <ele>29.7</ele>
        <time>2020-06-23T15:29:32Z</time>
      </trkpt>
      <trkpt lat="50.80873" lon="2.87333">
        <ele>29.7</ele>
        <time>2020-06-23T15:29:33Z</time>
      </trkpt>
      <trkpt lat="50.80867" lon="2.87335">
        <ele>29.6</ele>
        <time>2020-06-23T15:29:34Z</time>
      </trkpt>
      <trkpt lat="50.8086" lon="2.87335">
        <ele>29.5</ele>
        <time>2020-06-23T15:29:35Z</time>
      </trkpt>
      <trkpt lat="50.80855" lon="2.87335">
        <ele>29.5</ele>
        <time>2020-06-23T15:29:36Z</time>
      </trkpt>
      <trkpt lat="50.80849" lon="2.87335">
        <ele>29.3</ele>
        <time>2020-06-23T15:29:37Z</time>
      </trkpt>
      <trkpt lat="50.80844" lon="2.87335">
        <ele>29.2</ele>
        <time>2020-06-23T15:29:38Z</time>
      </trkpt>
      <trkpt lat="50.80838" lon="2.87336">
        <ele>29.2</ele>
        <time>2020-06-23T15:29:39Z</time>
      </trkpt>
      <trkpt lat="50.80832" lon="2.87336">
        <ele>29.1</ele>
        <time>2020-06-23T15:29:40Z</time>
      </trkpt>
      <trkpt lat="50.80826" lon="2.87338">
        <ele>29</ele>
        <time>2020-06-23T15:29:41Z</time>
      </trkpt>
      <trkpt lat="50.8082" lon="2.87338">
        <ele>28.9</ele>
        <time>2020-06-23T15:29:42Z</time>
      </trkpt>
      <trkpt lat="50.80814" lon="2.87339">
        <ele>28.9</ele>
        <time>2020-06-23T15:29:43Z</time>
      </trkpt>
      <trkpt lat="50.80808" lon="2.8734">
        <ele>28.8</ele>
        <time>2020-06-23T15:29:44Z</time>
      </trkpt>
      <trkpt lat="50.80802" lon="2.87339">
        <ele>28.8</ele>
        <time>2020-06-23T15:29:45Z</time>
      </trkpt>
      <trkpt lat="50.80797" lon="2.87338">
        <ele>28.8</ele>
        <time>2020-06-23T15:29:46Z</time>
      </trkpt>
      <trkpt lat="50.80791" lon="2.87337">
        <ele>28.7</ele>
        <time>2020-06-23T15:29:47Z</time>
      </trkpt>
      <trkpt lat="50.80786" lon="2.87336">
        <ele>28.7</ele>
        <time>2020-06-23T15:29:48Z</time>
      </trkpt>
      <trkpt lat="50.8078" lon="2.87336">
        <ele>28.7</ele>
        <time>2020-06-23T15:29:49Z</time>
      </trkpt>
      <trkpt lat="50.80775" lon="2.87336">
        <ele>28.6</ele>
        <time>2020-06-23T15:29:50Z</time>
      </trkpt>
      <trkpt lat="50.80769" lon="2.87338">
        <ele>28.5</ele>
        <time>2020-06-23T15:29:51Z</time>
      </trkpt>
      <trkpt lat="50.80764" lon="2.8734">
        <ele>28.5</ele>
        <time>2020-06-23T15:29:52Z</time>
      </trkpt>
      <trkpt lat="50.80759" lon="2.87341">
        <ele>28.5</ele>
        <time>2020-06-23T15:29:53Z</time>
      </trkpt>
      <trkpt lat="50.80753" lon="2.87342">
        <ele>28.4</ele>
        <time>2020-06-23T15:29:54Z</time>
      </trkpt>
      <trkpt lat="50.80749" lon="2.87344">
        <ele>28.4</ele>
        <time>2020-06-23T15:29:55Z</time>
      </trkpt>
      <trkpt lat="50.80743" lon="2.87345">
        <ele>28.3</ele>
        <time>2020-06-23T15:29:56Z</time>
      </trkpt>
      <trkpt lat="50.80737" lon="2.87347">
        <ele>28.2</ele>
        <time>2020-06-23T15:29:57Z</time>
      </trkpt>
      <trkpt lat="50.80731" lon="2.87349">
        <ele>28.2</ele>
        <time>2020-06-23T15:29:58Z</time>
      </trkpt>
      <trkpt lat="50.80725" lon="2.87351">
        <ele>28.1</ele>
        <time>2020-06-23T15:29:59Z</time>
      </trkpt>
      <trkpt lat="50.80719" lon="2.87354">
        <ele>28</ele>
        <time>2020-06-23T15:30:00Z</time>
      </trkpt>
      <trkpt lat="50.80713" lon="2.87357">
        <ele>27.9</ele>
        <time>2020-06-23T15:30:01Z</time>
      </trkpt>
      <trkpt lat="50.80706" lon="2.87359">
        <ele>27.8</ele>
        <time>2020-06-23T15:30:02Z</time>
      </trkpt>
      <trkpt lat="50.807" lon="2.87362">
        <ele>27.7</ele>
        <time>2020-06-23T15:30:03Z</time>
      </trkpt>
      <trkpt lat="50.80693" lon="2.87364">
        <ele>27.5</ele>
        <time>2020-06-23T15:30:04Z</time>
      </trkpt>
      <trkpt lat="50.80686" lon="2.87367">
        <ele>27.3</ele>
        <time>2020-06-23T15:30:05Z</time>
      </trkpt>
      <trkpt lat="50.8068" lon="2.8737">
        <ele>27.1</ele>
        <time>2020-06-23T15:30:06Z</time>
      </trkpt>
      <trkpt lat="50.80673" lon="2.87373">
        <ele>26.9</ele>
        <time>2020-06-23T15:30:07Z</time>
      </trkpt>
      <trkpt lat="50.80666" lon="2.87376">
        <ele>26.8</ele>
        <time>2020-06-23T15:30:08Z</time>
      </trkpt>
      <trkpt lat="50.8066" lon="2.87378">
        <ele>26.6</ele>
        <time>2020-06-23T15:30:09Z</time>
      </trkpt>
      <trkpt lat="50.80653" lon="2.8738">
        <ele>26.5</ele>
        <time>2020-06-23T15:30:10Z</time>
      </trkpt>
      <trkpt lat="50.80646" lon="2.87383">
        <ele>26.4</ele>
        <time>2020-06-23T15:30:11Z</time>
      </trkpt>
      <trkpt lat="50.8064" lon="2.87385">
        <ele>26.3</ele>
        <time>2020-06-23T15:30:12Z</time>
      </trkpt>
      <trkpt lat="50.80633" lon="2.87387">
        <ele>26.2</ele>
        <time>2020-06-23T15:30:13Z</time>
      </trkpt>
      <trkpt lat="50.80626" lon="2.87388">
        <ele>26.1</ele>
        <time>2020-06-23T15:30:14Z</time>
      </trkpt>
      <trkpt lat="50.8062" lon="2.8739">
        <ele>26.2</ele>
        <time>2020-06-23T15:30:15Z</time>
      </trkpt>
      <trkpt lat="50.80613" lon="2.87392">
        <ele>26.2</ele>
        <time>2020-06-23T15:30:16Z</time>
      </trkpt>
      <trkpt lat="50.80606" lon="2.87395">
        <ele>26.3</ele>
        <time>2020-06-23T15:30:17Z</time>
      </trkpt>
      <trkpt lat="50.806" lon="2.87396">
        <ele>26.3</ele>
        <time>2020-06-23T15:30:18Z</time>
      </trkpt>
      <trkpt lat="50.80593" lon="2.87397">
        <ele>26.3</ele>
        <time>2020-06-23T15:30:19Z</time>
      </trkpt>
      <trkpt lat="50.80586" lon="2.87398">
        <ele>26.2</ele>
        <time>2020-06-23T15:30:20Z</time>
      </trkpt>
      <trkpt lat="50.80579" lon="2.87399">
        <ele>26.2</ele>
        <time>2020-06-23T15:30:21Z</time>
      </trkpt>
      <trkpt lat="50.80573" lon="2.874">
        <ele>26.1</ele>
        <time>2020-06-23T15:30:22Z</time>
      </trkpt>
      <trkpt lat="50.80566" lon="2.87402">
        <ele>26.1</ele>
        <time>2020-06-23T15:30:23Z</time>
      </trkpt>
      <trkpt lat="50.80559" lon="2.87405">
        <ele>26.1</ele>
        <time>2020-06-23T15:30:24Z</time>
      </trkpt>
      <trkpt lat="50.80553" lon="2.87408">
        <ele>26</ele>
        <time>2020-06-23T15:30:25Z</time>
      </trkpt>
      <trkpt lat="50.80546" lon="2.87409">
        <ele>26</ele>
        <time>2020-06-23T15:30:26Z</time>
      </trkpt>
      <trkpt lat="50.8054" lon="2.87411">
        <ele>25.9</ele>
        <time>2020-06-23T15:30:27Z</time>
      </trkpt>
      <trkpt lat="50.80533" lon="2.87413">
        <ele>25.9</ele>
        <time>2020-06-23T15:30:28Z</time>
      </trkpt>
      <trkpt lat="50.80527" lon="2.87413">
        <ele>25.9</ele>
        <time>2020-06-23T15:30:29Z</time>
      </trkpt>
      <trkpt lat="50.80521" lon="2.87412">
        <ele>25.9</ele>
        <time>2020-06-23T15:30:30Z</time>
      </trkpt>
      <trkpt lat="50.80514" lon="2.87412">
        <ele>25.9</ele>
        <time>2020-06-23T15:30:31Z</time>
      </trkpt>
      <trkpt lat="50.80508" lon="2.87412">
        <ele>25.9</ele>
        <time>2020-06-23T15:30:32Z</time>
      </trkpt>
      <trkpt lat="50.80502" lon="2.87413">
        <ele>26</ele>
        <time>2020-06-23T15:30:33Z</time>
      </trkpt>
      <trkpt lat="50.80496" lon="2.87414">
        <ele>26</ele>
        <time>2020-06-23T15:30:34Z</time>
      </trkpt>
      <trkpt lat="50.8049" lon="2.87415">
        <ele>26.1</ele>
        <time>2020-06-23T15:30:35Z</time>
      </trkpt>
      <trkpt lat="50.80484" lon="2.87416">
        <ele>26.1</ele>
        <time>2020-06-23T15:30:36Z</time>
      </trkpt>
      <trkpt lat="50.80478" lon="2.87416">
        <ele>26.2</ele>
        <time>2020-06-23T15:30:37Z</time>
      </trkpt>
      <trkpt lat="50.80473" lon="2.87417">
        <ele>26.3</ele>
        <time>2020-06-23T15:30:38Z</time>
      </trkpt>
      <trkpt lat="50.80467" lon="2.87416">
        <ele>26.3</ele>
        <time>2020-06-23T15:30:39Z</time>
      </trkpt>
      <trkpt lat="50.80461" lon="2.87417">
        <ele>26.4</ele>
        <time>2020-06-23T15:30:40Z</time>
      </trkpt>
      <trkpt lat="50.80456" lon="2.87417">
        <ele>26.4</ele>
        <time>2020-06-23T15:30:41Z</time>
      </trkpt>
      <trkpt lat="50.8045" lon="2.87418">
        <ele>26.4</ele>
        <time>2020-06-23T15:30:42Z</time>
      </trkpt>
      <trkpt lat="50.80444" lon="2.87418">
        <ele>26.5</ele>
        <time>2020-06-23T15:30:43Z</time>
      </trkpt>
      <trkpt lat="50.80439" lon="2.87418">
        <ele>26.5</ele>
        <time>2020-06-23T15:30:44Z</time>
      </trkpt>
      <trkpt lat="50.80433" lon="2.87416">
        <ele>26.6</ele>
        <time>2020-06-23T15:30:45Z</time>
      </trkpt>
      <trkpt lat="50.80428" lon="2.87414">
        <ele>26.7</ele>
        <time>2020-06-23T15:30:46Z</time>
      </trkpt>
      <trkpt lat="50.80422" lon="2.87413">
        <ele>26.8</ele>
        <time>2020-06-23T15:30:47Z</time>
      </trkpt>
      <trkpt lat="50.80415" lon="2.87411">
        <ele>26.9</ele>
        <time>2020-06-23T15:30:48Z</time>
      </trkpt>
      <trkpt lat="50.80409" lon="2.87409">
        <ele>27</ele>
        <time>2020-06-23T15:30:49Z</time>
      </trkpt>
      <trkpt lat="50.80403" lon="2.87407">
        <ele>27.1</ele>
        <time>2020-06-23T15:30:50Z</time>
      </trkpt>
      <trkpt lat="50.80396" lon="2.87407">
        <ele>27.2</ele>
        <time>2020-06-23T15:30:51Z</time>
      </trkpt>
      <trkpt lat="50.80391" lon="2.87407">
        <ele>27.2</ele>
        <time>2020-06-23T15:30:52Z</time>
      </trkpt>
      <trkpt lat="50.80385" lon="2.87407">
        <ele>27.3</ele>
        <time>2020-06-23T15:30:53Z</time>
      </trkpt>
      <trkpt lat="50.80378" lon="2.87407">
        <ele>27.4</ele>
        <time>2020-06-23T15:30:54Z</time>
      </trkpt>
      <trkpt lat="50.80372" lon="2.87407">
        <ele>27.6</ele>
        <time>2020-06-23T15:30:55Z</time>
      </trkpt>
      <trkpt lat="50.80367" lon="2.87408">
        <ele>27.6</ele>
        <time>2020-06-23T15:30:56Z</time>
      </trkpt>
      <trkpt lat="50.80362" lon="2.8741">
        <ele>27.7</ele>
        <time>2020-06-23T15:30:57Z</time>
      </trkpt>
      <trkpt lat="50.80357" lon="2.87411">
        <ele>27.8</ele>
        <time>2020-06-23T15:30:58Z</time>
      </trkpt>
      <trkpt lat="50.80351" lon="2.87412">
        <ele>27.9</ele>
        <time>2020-06-23T15:30:59Z</time>
      </trkpt>
      <trkpt lat="50.80343" lon="2.87414">
        <ele>28</ele>
        <time>2020-06-23T15:31:00Z</time>
      </trkpt>
      <trkpt lat="50.80336" lon="2.87416">
        <ele>28.1</ele>
        <time>2020-06-23T15:31:01Z</time>
      </trkpt>
      <trkpt lat="50.8033" lon="2.87418">
        <ele>28.2</ele>
        <time>2020-06-23T15:31:02Z</time>
      </trkpt>
      <trkpt lat="50.80326" lon="2.87421">
        <ele>28.3</ele>
        <time>2020-06-23T15:31:03Z</time>
      </trkpt>
      <trkpt lat="50.8032" lon="2.87425">
        <ele>28.4</ele>
        <time>2020-06-23T15:31:04Z</time>
      </trkpt>
      <trkpt lat="50.80316" lon="2.87428">
        <ele>28.5</ele>
        <time>2020-06-23T15:31:05Z</time>
      </trkpt>
      <trkpt lat="50.8031" lon="2.87431">
        <ele>28.7</ele>
        <time>2020-06-23T15:31:06Z</time>
      </trkpt>
      <trkpt lat="50.80304" lon="2.87434">
        <ele>28.9</ele>
        <time>2020-06-23T15:31:07Z</time>
      </trkpt>
      <trkpt lat="50.80299" lon="2.87436">
        <ele>29.1</ele>
        <time>2020-06-23T15:31:08Z</time>
      </trkpt>
      <trkpt lat="50.80294" lon="2.8744">
        <ele>29.3</ele>
        <time>2020-06-23T15:31:09Z</time>
      </trkpt>
      <trkpt lat="50.80289" lon="2.87442">
        <ele>29.5</ele>
        <time>2020-06-23T15:31:10Z</time>
      </trkpt>
      <trkpt lat="50.80285" lon="2.87444">
        <ele>29.7</ele>
        <time>2020-06-23T15:31:11Z</time>
      </trkpt>
      <trkpt lat="50.8028" lon="2.87447">
        <ele>29.9</ele>
        <time>2020-06-23T15:31:12Z</time>
      </trkpt>
      <trkpt lat="50.80276" lon="2.87449">
        <ele>30.1</ele>
        <time>2020-06-23T15:31:13Z</time>
      </trkpt>
      <trkpt lat="50.80271" lon="2.87451">
        <ele>30.3</ele>
        <time>2020-06-23T15:31:14Z</time>
      </trkpt>
      <trkpt lat="50.80267" lon="2.87454">
        <ele>30.6</ele>
        <time>2020-06-23T15:31:15Z</time>
      </trkpt>
      <trkpt lat="50.80263" lon="2.87458">
        <ele>30.8</ele>
        <time>2020-06-23T15:31:16Z</time>
      </trkpt>
      <trkpt lat="50.80258" lon="2.87461">
        <ele>31.1</ele>
        <time>2020-06-23T15:31:17Z</time>
      </trkpt>
      <trkpt lat="50.80251" lon="2.87465">
        <ele>31.5</ele>
        <time>2020-06-23T15:31:18Z</time>
      </trkpt>
      <trkpt lat="50.80246" lon="2.87467">
        <ele>31.8</ele>
        <time>2020-06-23T15:31:19Z</time>
      </trkpt>
      <trkpt lat="50.8024" lon="2.87471">
        <ele>32.1</ele>
        <time>2020-06-23T15:31:20Z</time>
      </trkpt>
      <trkpt lat="50.80236" lon="2.87474">
        <ele>32.4</ele>
        <time>2020-06-23T15:31:21Z</time>
      </trkpt>
      <trkpt lat="50.8023" lon="2.87476">
        <ele>32.6</ele>
        <time>2020-06-23T15:31:22Z</time>
      </trkpt>
      <trkpt lat="50.80227" lon="2.87478">
        <ele>32.9</ele>
        <time>2020-06-23T15:31:23Z</time>
      </trkpt>
      <trkpt lat="50.80223" lon="2.8748">
        <ele>33.1</ele>
        <time>2020-06-23T15:31:24Z</time>
      </trkpt>
      <trkpt lat="50.80219" lon="2.87482">
        <ele>33.3</ele>
        <time>2020-06-23T15:31:25Z</time>
      </trkpt>
      <trkpt lat="50.80215" lon="2.87484">
        <ele>33.6</ele>
        <time>2020-06-23T15:31:26Z</time>
      </trkpt>
      <trkpt lat="50.80211" lon="2.87486">
        <ele>33.8</ele>
        <time>2020-06-23T15:31:27Z</time>
      </trkpt>
      <trkpt lat="50.80207" lon="2.87489">
        <ele>34</ele>
        <time>2020-06-23T15:31:28Z</time>
      </trkpt>
      <trkpt lat="50.80202" lon="2.87491">
        <ele>34.4</ele>
        <time>2020-06-23T15:31:29Z</time>
      </trkpt>
      <trkpt lat="50.80198" lon="2.87494">
        <ele>34.6</ele>
        <time>2020-06-23T15:31:30Z</time>
      </trkpt>
      <trkpt lat="50.80194" lon="2.87497">
        <ele>34.9</ele>
        <time>2020-06-23T15:31:31Z</time>
      </trkpt>
      <trkpt lat="50.80189" lon="2.875">
        <ele>35.3</ele>
        <time>2020-06-23T15:31:32Z</time>
      </trkpt>
      <trkpt lat="50.80184" lon="2.87502">
        <ele>35.6</ele>
        <time>2020-06-23T15:31:33Z</time>
      </trkpt>
      <trkpt lat="50.8018" lon="2.87504">
        <ele>35.9</ele>
        <time>2020-06-23T15:31:34Z</time>
      </trkpt>
      <trkpt lat="50.80175" lon="2.87504">
        <ele>36.2</ele>
        <time>2020-06-23T15:31:35Z</time>
      </trkpt>
      <trkpt lat="50.80171" lon="2.87506">
        <ele>36.5</ele>
        <time>2020-06-23T15:31:36Z</time>
      </trkpt>
      <trkpt lat="50.80168" lon="2.87505">
        <ele>36.7</ele>
        <time>2020-06-23T15:31:37Z</time>
      </trkpt>
      <trkpt lat="50.80165" lon="2.87506">
        <ele>36.9</ele>
        <time>2020-06-23T15:31:38Z</time>
      </trkpt>
      <trkpt lat="50.80161" lon="2.87506">
        <ele>37.1</ele>
        <time>2020-06-23T15:31:39Z</time>
      </trkpt>
      <trkpt lat="50.80157" lon="2.87506">
        <ele>37.3</ele>
        <time>2020-06-23T15:31:40Z</time>
      </trkpt>
      <trkpt lat="50.80152" lon="2.87507">
        <ele>37.3</ele>
        <time>2020-06-23T15:31:41Z</time>
      </trkpt>
      <trkpt lat="50.80149" lon="2.87506">
        <ele>37.2</ele>
        <time>2020-06-23T15:31:42Z</time>
      </trkpt>
      <trkpt lat="50.80147" lon="2.87506">
        <ele>37.2</ele>
        <time>2020-06-23T15:31:43Z</time>
      </trkpt>
      <trkpt lat="50.80144" lon="2.87507">
        <ele>37.5</ele>
        <time>2020-06-23T15:31:44Z</time>
      </trkpt>
      <trkpt lat="50.8014" lon="2.87507">
        <ele>37.7</ele>
        <time>2020-06-23T15:31:45Z</time>
      </trkpt>
      <trkpt lat="50.80136" lon="2.87509">
        <ele>37.8</ele>
        <time>2020-06-23T15:31:46Z</time>
      </trkpt>
      <trkpt lat="50.80133" lon="2.87509">
        <ele>37.9</ele>
        <time>2020-06-23T15:31:47Z</time>
      </trkpt>
      <trkpt lat="50.80129" lon="2.8751">
        <ele>38.1</ele>
        <time>2020-06-23T15:31:48Z</time>
      </trkpt>
      <trkpt lat="50.80124" lon="2.87512">
        <ele>38.4</ele>
        <time>2020-06-23T15:31:49Z</time>
      </trkpt>
      <trkpt lat="50.8012" lon="2.87513">
        <ele>38.5</ele>
        <time>2020-06-23T15:31:50Z</time>
      </trkpt>
      <trkpt lat="50.80115" lon="2.87515">
        <ele>38.7</ele>
        <time>2020-06-23T15:31:51Z</time>
      </trkpt>
      <trkpt lat="50.80112" lon="2.87515">
        <ele>38.9</ele>
        <time>2020-06-23T15:31:52Z</time>
      </trkpt>
      <trkpt lat="50.80107" lon="2.87517">
        <ele>39.1</ele>
        <time>2020-06-23T15:31:53Z</time>
      </trkpt>
      <trkpt lat="50.80102" lon="2.87519">
        <ele>39.3</ele>
        <time>2020-06-23T15:31:54Z</time>
      </trkpt>
      <trkpt lat="50.80099" lon="2.8752">
        <ele>39.4</ele>
        <time>2020-06-23T15:31:55Z</time>
      </trkpt>
      <trkpt lat="50.80095" lon="2.87521">
        <ele>39.6</ele>
        <time>2020-06-23T15:31:56Z</time>
      </trkpt>
      <trkpt lat="50.80092" lon="2.87521">
        <ele>39.7</ele>
        <time>2020-06-23T15:31:57Z</time>
      </trkpt>
      <trkpt lat="50.80089" lon="2.87522">
        <ele>39.8</ele>
        <time>2020-06-23T15:31:58Z</time>
      </trkpt>
      <trkpt lat="50.80085" lon="2.87523">
        <ele>40</ele>
        <time>2020-06-23T15:31:59Z</time>
      </trkpt>
      <trkpt lat="50.8008" lon="2.87523">
        <ele>40.2</ele>
        <time>2020-06-23T15:32:00Z</time>
      </trkpt>
      <trkpt lat="50.80076" lon="2.87525">
        <ele>40.3</ele>
        <time>2020-06-23T15:32:01Z</time>
      </trkpt>
      <trkpt lat="50.80073" lon="2.87526">
        <ele>40.4</ele>
        <time>2020-06-23T15:32:02Z</time>
      </trkpt>
      <trkpt lat="50.80069" lon="2.87526">
        <ele>40.6</ele>
        <time>2020-06-23T15:32:03Z</time>
      </trkpt>
      <trkpt lat="50.80066" lon="2.87527">
        <ele>40.7</ele>
        <time>2020-06-23T15:32:04Z</time>
      </trkpt>
      <trkpt lat="50.80062" lon="2.87529">
        <ele>40.9</ele>
        <time>2020-06-23T15:32:05Z</time>
      </trkpt>
      <trkpt lat="50.80057" lon="2.8753">
        <ele>41.1</ele>
        <time>2020-06-23T15:32:06Z</time>
      </trkpt>
      <trkpt lat="50.80054" lon="2.87531">
        <ele>41.2</ele>
        <time>2020-06-23T15:32:07Z</time>
      </trkpt>
      <trkpt lat="50.8005" lon="2.87533">
        <ele>41.3</ele>
        <time>2020-06-23T15:32:08Z</time>
      </trkpt>
      <trkpt lat="50.80046" lon="2.87534">
        <ele>41.4</ele>
        <time>2020-06-23T15:32:09Z</time>
      </trkpt>
      <trkpt lat="50.80042" lon="2.87535">
        <ele>41.6</ele>
        <time>2020-06-23T15:32:10Z</time>
      </trkpt>
      <trkpt lat="50.80038" lon="2.87537">
        <ele>41.7</ele>
        <time>2020-06-23T15:32:11Z</time>
      </trkpt>
      <trkpt lat="50.80036" lon="2.87538">
        <ele>41.8</ele>
        <time>2020-06-23T15:32:12Z</time>
      </trkpt>
      <trkpt lat="50.80031" lon="2.8754">
        <ele>41.9</ele>
        <time>2020-06-23T15:32:13Z</time>
      </trkpt>
      <trkpt lat="50.80028" lon="2.87541">
        <ele>42</ele>
        <time>2020-06-23T15:32:14Z</time>
      </trkpt>
      <trkpt lat="50.80025" lon="2.87541">
        <ele>42.1</ele>
        <time>2020-06-23T15:32:15Z</time>
      </trkpt>
      <trkpt lat="50.80022" lon="2.87543">
        <ele>42.2</ele>
        <time>2020-06-23T15:32:16Z</time>
      </trkpt>
      <trkpt lat="50.80018" lon="2.87543">
        <ele>42.3</ele>
        <time>2020-06-23T15:32:17Z</time>
      </trkpt>
      <trkpt lat="50.80014" lon="2.87544">
        <ele>42.4</ele>
        <time>2020-06-23T15:32:18Z</time>
      </trkpt>
      <trkpt lat="50.8001" lon="2.87544">
        <ele>42.6</ele>
        <time>2020-06-23T15:32:19Z</time>
      </trkpt>
      <trkpt lat="50.80005" lon="2.87544">
        <ele>42.7</ele>
        <time>2020-06-23T15:32:20Z</time>
      </trkpt>
      <trkpt lat="50.8" lon="2.87546">
        <ele>42.8</ele>
        <time>2020-06-23T15:32:21Z</time>
      </trkpt>
      <trkpt lat="50.79996" lon="2.87546">
        <ele>42.9</ele>
        <time>2020-06-23T15:32:22Z</time>
      </trkpt>
      <trkpt lat="50.79992" lon="2.87547">
        <ele>43</ele>
        <time>2020-06-23T15:32:23Z</time>
      </trkpt>
      <trkpt lat="50.79988" lon="2.87547">
        <ele>43.1</ele>
        <time>2020-06-23T15:32:24Z</time>
      </trkpt>
      <trkpt lat="50.79984" lon="2.87547">
        <ele>43.2</ele>
        <time>2020-06-23T15:32:25Z</time>
      </trkpt>
      <trkpt lat="50.79979" lon="2.87548">
        <ele>43.3</ele>
        <time>2020-06-23T15:32:26Z</time>
      </trkpt>
      <trkpt lat="50.79974" lon="2.87547">
        <ele>43.4</ele>
        <time>2020-06-23T15:32:27Z</time>
      </trkpt>
      <trkpt lat="50.79969" lon="2.87549">
        <ele>43.5</ele>
        <time>2020-06-23T15:32:28Z</time>
      </trkpt>
      <trkpt lat="50.79966" lon="2.87549">
        <ele>43.5</ele>
        <time>2020-06-23T15:32:29Z</time>
      </trkpt>
      <trkpt lat="50.79961" lon="2.8755">
        <ele>43.6</ele>
        <time>2020-06-23T15:32:30Z</time>
      </trkpt>
      <trkpt lat="50.79957" lon="2.8755">
        <ele>43.6</ele>
        <time>2020-06-23T15:32:31Z</time>
      </trkpt>
      <trkpt lat="50.79954" lon="2.8755">
        <ele>43.7</ele>
        <time>2020-06-23T15:32:32Z</time>
      </trkpt>
      <trkpt lat="50.79949" lon="2.87551">
        <ele>43.7</ele>
        <time>2020-06-23T15:32:33Z</time>
      </trkpt>
      <trkpt lat="50.79945" lon="2.87551">
        <ele>43.8</ele>
        <time>2020-06-23T15:32:34Z</time>
      </trkpt>
      <trkpt lat="50.79941" lon="2.87551">
        <ele>43.8</ele>
        <time>2020-06-23T15:32:35Z</time>
      </trkpt>
      <trkpt lat="50.79937" lon="2.8755">
        <ele>43.8</ele>
        <time>2020-06-23T15:32:36Z</time>
      </trkpt>
      <trkpt lat="50.79933" lon="2.8755">
        <ele>43.9</ele>
        <time>2020-06-23T15:32:37Z</time>
      </trkpt>
      <trkpt lat="50.79928" lon="2.87549">
        <ele>43.9</ele>
        <time>2020-06-23T15:32:38Z</time>
      </trkpt>
      <trkpt lat="50.79924" lon="2.87548">
        <ele>43.9</ele>
        <time>2020-06-23T15:32:39Z</time>
      </trkpt>
      <trkpt lat="50.79918" lon="2.87547">
        <ele>44</ele>
        <time>2020-06-23T15:32:40Z</time>
      </trkpt>
      <trkpt lat="50.79913" lon="2.87547">
        <ele>44</ele>
        <time>2020-06-23T15:32:41Z</time>
      </trkpt>
      <trkpt lat="50.79907" lon="2.87546">
        <ele>44.1</ele>
        <time>2020-06-23T15:32:42Z</time>
      </trkpt>
      <trkpt lat="50.79902" lon="2.87547">
        <ele>44.1</ele>
        <time>2020-06-23T15:32:43Z</time>
      </trkpt>
      <trkpt lat="50.79896" lon="2.87547">
        <ele>44.1</ele>
        <time>2020-06-23T15:32:44Z</time>
      </trkpt>
      <trkpt lat="50.79891" lon="2.87547">
        <ele>44.2</ele>
        <time>2020-06-23T15:32:45Z</time>
      </trkpt>
      <trkpt lat="50.79886" lon="2.87548">
        <ele>44.2</ele>
        <time>2020-06-23T15:32:46Z</time>
      </trkpt>
      <trkpt lat="50.79881" lon="2.87549">
        <ele>44.2</ele>
        <time>2020-06-23T15:32:47Z</time>
      </trkpt>
      <trkpt lat="50.79876" lon="2.8755">
        <ele>44.2</ele>
        <time>2020-06-23T15:32:48Z</time>
      </trkpt>
      <trkpt lat="50.79871" lon="2.87551">
        <ele>44.2</ele>
        <time>2020-06-23T15:32:49Z</time>
      </trkpt>
      <trkpt lat="50.79865" lon="2.87553">
        <ele>44.2</ele>
        <time>2020-06-23T15:32:50Z</time>
      </trkpt>
      <trkpt lat="50.7986" lon="2.87554">
        <ele>44.2</ele>
        <time>2020-06-23T15:32:51Z</time>
      </trkpt>
      <trkpt lat="50.79855" lon="2.87554">
        <ele>44.2</ele>
        <time>2020-06-23T15:32:52Z</time>
      </trkpt>
      <trkpt lat="50.79849" lon="2.87554">
        <ele>44.2</ele>
        <time>2020-06-23T15:32:53Z</time>
      </trkpt>
      <trkpt lat="50.79844" lon="2.87554">
        <ele>44.2</ele>
        <time>2020-06-23T15:32:54Z</time>
      </trkpt>
      <trkpt lat="50.79838" lon="2.87553">
        <ele>44.2</ele>
        <time>2020-06-23T15:32:55Z</time>
      </trkpt>
      <trkpt lat="50.79834" lon="2.87553">
        <ele>44.2</ele>
        <time>2020-06-23T15:32:56Z</time>
      </trkpt>
      <trkpt lat="50.79828" lon="2.87552">
        <ele>44.2</ele>
        <time>2020-06-23T15:32:57Z</time>
      </trkpt>
      <trkpt lat="50.79823" lon="2.87552">
        <ele>44.3</ele>
        <time>2020-06-23T15:32:58Z</time>
      </trkpt>
      <trkpt lat="50.79817" lon="2.87552">
        <ele>44.3</ele>
        <time>2020-06-23T15:32:59Z</time>
      </trkpt>
      <trkpt lat="50.79811" lon="2.87551">
        <ele>44.4</ele>
        <time>2020-06-23T15:33:00Z</time>
      </trkpt>
      <trkpt lat="50.79804" lon="2.87551">
        <ele>44.4</ele>
        <time>2020-06-23T15:33:01Z</time>
      </trkpt>
      <trkpt lat="50.79798" lon="2.8755">
        <ele>44.4</ele>
        <time>2020-06-23T15:33:02Z</time>
      </trkpt>
      <trkpt lat="50.79792" lon="2.87549">
        <ele>44.5</ele>
        <time>2020-06-23T15:33:03Z</time>
      </trkpt>
      <trkpt lat="50.79785" lon="2.87549">
        <ele>44.5</ele>
        <time>2020-06-23T15:33:04Z</time>
      </trkpt>
      <trkpt lat="50.79779" lon="2.87549">
        <ele>44.5</ele>
        <time>2020-06-23T15:33:05Z</time>
      </trkpt>
      <trkpt lat="50.79773" lon="2.8755">
        <ele>44.6</ele>
        <time>2020-06-23T15:33:06Z</time>
      </trkpt>
      <trkpt lat="50.79767" lon="2.87551">
        <ele>44.6</ele>
        <time>2020-06-23T15:33:07Z</time>
      </trkpt>
      <trkpt lat="50.79761" lon="2.87551">
        <ele>44.6</ele>
        <time>2020-06-23T15:33:08Z</time>
      </trkpt>
      <trkpt lat="50.79755" lon="2.87551">
        <ele>44.6</ele>
        <time>2020-06-23T15:33:09Z</time>
      </trkpt>
      <trkpt lat="50.79749" lon="2.87552">
        <ele>44.7</ele>
        <time>2020-06-23T15:33:10Z</time>
      </trkpt>
      <trkpt lat="50.79744" lon="2.87553">
        <ele>44.7</ele>
        <time>2020-06-23T15:33:11Z</time>
      </trkpt>
      <trkpt lat="50.79738" lon="2.87553">
        <ele>44.7</ele>
        <time>2020-06-23T15:33:12Z</time>
      </trkpt>
      <trkpt lat="50.79732" lon="2.87553">
        <ele>44.8</ele>
        <time>2020-06-23T15:33:13Z</time>
      </trkpt>
      <trkpt lat="50.79727" lon="2.87551">
        <ele>44.9</ele>
        <time>2020-06-23T15:33:14Z</time>
      </trkpt>
      <trkpt lat="50.79721" lon="2.87549">
        <ele>45</ele>
        <time>2020-06-23T15:33:15Z</time>
      </trkpt>
      <trkpt lat="50.79717" lon="2.87545">
        <ele>45.1</ele>
        <time>2020-06-23T15:33:16Z</time>
      </trkpt>
      <trkpt lat="50.79712" lon="2.87541">
        <ele>45.3</ele>
        <time>2020-06-23T15:33:17Z</time>
      </trkpt>
      <trkpt lat="50.79708" lon="2.87536">
        <ele>45.4</ele>
        <time>2020-06-23T15:33:18Z</time>
      </trkpt>
      <trkpt lat="50.79704" lon="2.87531">
        <ele>45.5</ele>
        <time>2020-06-23T15:33:19Z</time>
      </trkpt>
      <trkpt lat="50.79699" lon="2.87527">
        <ele>45.6</ele>
        <time>2020-06-23T15:33:20Z</time>
      </trkpt>
      <trkpt lat="50.79694" lon="2.87521">
        <ele>45.7</ele>
        <time>2020-06-23T15:33:21Z</time>
      </trkpt>
      <trkpt lat="50.7969" lon="2.87517">
        <ele>45.8</ele>
        <time>2020-06-23T15:33:22Z</time>
      </trkpt>
      <trkpt lat="50.79686" lon="2.87513">
        <ele>46</ele>
        <time>2020-06-23T15:33:23Z</time>
      </trkpt>
      <trkpt lat="50.79682" lon="2.87509">
        <ele>46.1</ele>
        <time>2020-06-23T15:33:24Z</time>
      </trkpt>
      <trkpt lat="50.79678" lon="2.87506">
        <ele>46.2</ele>
        <time>2020-06-23T15:33:25Z</time>
      </trkpt>
      <trkpt lat="50.79674" lon="2.87501">
        <ele>46.4</ele>
        <time>2020-06-23T15:33:26Z</time>
      </trkpt>
      <trkpt lat="50.7967" lon="2.87499">
        <ele>46.5</ele>
        <time>2020-06-23T15:33:27Z</time>
      </trkpt>
      <trkpt lat="50.79666" lon="2.87496">
        <ele>46.6</ele>
        <time>2020-06-23T15:33:28Z</time>
      </trkpt>
      <trkpt lat="50.79663" lon="2.87494">
        <ele>46.7</ele>
        <time>2020-06-23T15:33:29Z</time>
      </trkpt>
      <trkpt lat="50.7966" lon="2.87491">
        <ele>46.7</ele>
        <time>2020-06-23T15:33:30Z</time>
      </trkpt>
      <trkpt lat="50.79657" lon="2.87489">
        <ele>46.8</ele>
        <time>2020-06-23T15:33:31Z</time>
      </trkpt>
      <trkpt lat="50.79653" lon="2.87487">
        <ele>46.9</ele>
        <time>2020-06-23T15:33:32Z</time>
      </trkpt>
      <trkpt lat="50.79648" lon="2.87485">
        <ele>47</ele>
        <time>2020-06-23T15:33:33Z</time>
      </trkpt>
      <trkpt lat="50.79644" lon="2.87483">
        <ele>47.1</ele>
        <time>2020-06-23T15:33:34Z</time>
      </trkpt>
      <trkpt lat="50.79639" lon="2.8748">
        <ele>47.3</ele>
        <time>2020-06-23T15:33:35Z</time>
      </trkpt>
      <trkpt lat="50.79636" lon="2.87478">
        <ele>47.3</ele>
        <time>2020-06-23T15:33:36Z</time>
      </trkpt>
      <trkpt lat="50.79633" lon="2.87477">
        <ele>47.4</ele>
        <time>2020-06-23T15:33:37Z</time>
      </trkpt>
      <trkpt lat="50.79629" lon="2.87477">
        <ele>47.5</ele>
        <time>2020-06-23T15:33:38Z</time>
      </trkpt>
      <trkpt lat="50.79626" lon="2.87476">
        <ele>47.6</ele>
        <time>2020-06-23T15:33:39Z</time>
      </trkpt>
      <trkpt lat="50.79623" lon="2.87476">
        <ele>47.6</ele>
        <time>2020-06-23T15:33:40Z</time>
      </trkpt>
      <trkpt lat="50.79619" lon="2.87475">
        <ele>47.7</ele>
        <time>2020-06-23T15:33:41Z</time>
      </trkpt>
      <trkpt lat="50.79615" lon="2.87475">
        <ele>47.8</ele>
        <time>2020-06-23T15:33:42Z</time>
      </trkpt>
      <trkpt lat="50.79612" lon="2.87474">
        <ele>47.9</ele>
        <time>2020-06-23T15:33:43Z</time>
      </trkpt>
      <trkpt lat="50.79608" lon="2.87474">
        <ele>48</ele>
        <time>2020-06-23T15:33:44Z</time>
      </trkpt>
      <trkpt lat="50.79604" lon="2.87474">
        <ele>48</ele>
        <time>2020-06-23T15:33:45Z</time>
      </trkpt>
      <trkpt lat="50.796" lon="2.87474">
        <ele>48.2</ele>
        <time>2020-06-23T15:33:46Z</time>
      </trkpt>
      <trkpt lat="50.79595" lon="2.87473">
        <ele>48.3</ele>
        <time>2020-06-23T15:33:47Z</time>
      </trkpt>
      <trkpt lat="50.79592" lon="2.87473">
        <ele>48.4</ele>
        <time>2020-06-23T15:33:48Z</time>
      </trkpt>
      <trkpt lat="50.79588" lon="2.87473">
        <ele>48.5</ele>
        <time>2020-06-23T15:33:49Z</time>
      </trkpt>
      <trkpt lat="50.79584" lon="2.87473">
        <ele>48.6</ele>
        <time>2020-06-23T15:33:50Z</time>
      </trkpt>
      <trkpt lat="50.7958" lon="2.87473">
        <ele>48.7</ele>
        <time>2020-06-23T15:33:51Z</time>
      </trkpt>
      <trkpt lat="50.79576" lon="2.87473">
        <ele>48.8</ele>
        <time>2020-06-23T15:33:52Z</time>
      </trkpt>
      <trkpt lat="50.79575" lon="2.87474">
        <ele>48.8</ele>
        <time>2020-06-23T15:33:53Z</time>
      </trkpt>
      <trkpt lat="50.79571" lon="2.87474">
        <ele>48.9</ele>
        <time>2020-06-23T15:33:54Z</time>
      </trkpt>
      <trkpt lat="50.7957" lon="2.87474">
        <ele>48.9</ele>
        <time>2020-06-23T15:33:55Z</time>
      </trkpt>
      <trkpt lat="50.79567" lon="2.87475">
        <ele>48.9</ele>
        <time>2020-06-23T15:33:56Z</time>
      </trkpt>
      <trkpt lat="50.79559" lon="2.87477">
        <ele>49.1</ele>
        <time>2020-06-23T15:33:57Z</time>
      </trkpt>
      <trkpt lat="50.79556" lon="2.87479">
        <ele>49.2</ele>
        <time>2020-06-23T15:33:58Z</time>
      </trkpt>
      <trkpt lat="50.79553" lon="2.87479">
        <ele>49.2</ele>
        <time>2020-06-23T15:33:59Z</time>
      </trkpt>
      <trkpt lat="50.7955" lon="2.87479">
        <ele>49.3</ele>
        <time>2020-06-23T15:34:00Z</time>
      </trkpt>
      <trkpt lat="50.79545" lon="2.87479">
        <ele>49.4</ele>
        <time>2020-06-23T15:34:01Z</time>
      </trkpt>
      <trkpt lat="50.7954" lon="2.87478">
        <ele>49.6</ele>
        <time>2020-06-23T15:34:02Z</time>
      </trkpt>
      <trkpt lat="50.79536" lon="2.87478">
        <ele>49.7</ele>
        <time>2020-06-23T15:34:03Z</time>
      </trkpt>
      <trkpt lat="50.79533" lon="2.87477">
        <ele>49.8</ele>
        <time>2020-06-23T15:34:04Z</time>
      </trkpt>
      <trkpt lat="50.79531" lon="2.87477">
        <ele>49.8</ele>
        <time>2020-06-23T15:34:05Z</time>
      </trkpt>
      <trkpt lat="50.79528" lon="2.87476">
        <ele>49.9</ele>
        <time>2020-06-23T15:34:06Z</time>
      </trkpt>
      <trkpt lat="50.79525" lon="2.87476">
        <ele>50.1</ele>
        <time>2020-06-23T15:34:07Z</time>
      </trkpt>
      <trkpt lat="50.79522" lon="2.87474">
        <ele>50.2</ele>
        <time>2020-06-23T15:34:08Z</time>
      </trkpt>
      <trkpt lat="50.79518" lon="2.87473">
        <ele>50.4</ele>
        <time>2020-06-23T15:34:09Z</time>
      </trkpt>
      <trkpt lat="50.79516" lon="2.87473">
        <ele>50.5</ele>
        <time>2020-06-23T15:34:10Z</time>
      </trkpt>
      <trkpt lat="50.79515" lon="2.87473">
        <ele>50.5</ele>
        <time>2020-06-23T15:34:11Z</time>
      </trkpt>
      <trkpt lat="50.79514" lon="2.87472">
        <ele>50.6</ele>
        <time>2020-06-23T15:34:12Z</time>
      </trkpt>
      <trkpt lat="50.79512" lon="2.87471">
        <ele>50.6</ele>
        <time>2020-06-23T15:34:13Z</time>
      </trkpt>
      <trkpt lat="50.7951" lon="2.87468">
        <ele>50.8</ele>
        <time>2020-06-23T15:34:14Z</time>
      </trkpt>
      <trkpt lat="50.79509" lon="2.87467">
        <ele>50.8</ele>
        <time>2020-06-23T15:34:15Z</time>
      </trkpt>
      <trkpt lat="50.79507" lon="2.87467">
        <ele>50.9</ele>
        <time>2020-06-23T15:34:16Z</time>
      </trkpt>
      <trkpt lat="50.79504" lon="2.87466">
        <ele>51.1</ele>
        <time>2020-06-23T15:34:17Z</time>
      </trkpt>
      <trkpt lat="50.79503" lon="2.87466">
        <ele>51.1</ele>
        <time>2020-06-23T15:34:18Z</time>
      </trkpt>
      <trkpt lat="50.795" lon="2.87466">
        <ele>51.2</ele>
        <time>2020-06-23T15:34:19Z</time>
      </trkpt>
      <trkpt lat="50.79499" lon="2.87467">
        <ele>51.3</ele>
        <time>2020-06-23T15:34:20Z</time>
      </trkpt>
      <trkpt lat="50.79499" lon="2.87467">
        <ele>51.3</ele>
        <time>2020-06-23T15:34:21Z</time>
      </trkpt>
      <trkpt lat="50.79496" lon="2.87466">
        <ele>51.4</ele>
        <time>2020-06-23T15:34:22Z</time>
      </trkpt>
      <trkpt lat="50.79495" lon="2.87465">
        <ele>51.5</ele>
        <time>2020-06-23T15:34:23Z</time>
      </trkpt>
      <trkpt lat="50.79494" lon="2.87464">
        <ele>51.5</ele>
        <time>2020-06-23T15:34:24Z</time>
      </trkpt>
      <trkpt lat="50.79493" lon="2.87462">
        <ele>51.6</ele>
        <time>2020-06-23T15:34:25Z</time>
      </trkpt>
      <trkpt lat="50.79492" lon="2.87463">
        <ele>51.6</ele>
        <time>2020-06-23T15:34:26Z</time>
      </trkpt>
      <trkpt lat="50.7949" lon="2.87463">
        <ele>51.7</ele>
        <time>2020-06-23T15:34:27Z</time>
      </trkpt>
      <trkpt lat="50.7949" lon="2.87462">
        <ele>51.7</ele>
        <time>2020-06-23T15:34:28Z</time>
      </trkpt>
      <trkpt lat="50.7949" lon="2.8746">
        <ele>51.8</ele>
        <time>2020-06-23T15:34:29Z</time>
      </trkpt>
      <trkpt lat="50.79489" lon="2.87459">
        <ele>51.8</ele>
        <time>2020-06-23T15:34:30Z</time>
      </trkpt>
      <trkpt lat="50.79488" lon="2.8746">
        <ele>51.9</ele>
        <time>2020-06-23T15:34:31Z</time>
      </trkpt>
      <trkpt lat="50.79488" lon="2.87461">
        <ele>51.9</ele>
        <time>2020-06-23T15:34:32Z</time>
      </trkpt>
      <trkpt lat="50.79487" lon="2.87463">
        <ele>51.9</ele>
        <time>2020-06-23T15:34:33Z</time>
      </trkpt>
      <trkpt lat="50.79487" lon="2.87463">
        <ele>52</ele>
        <time>2020-06-23T15:34:34Z</time>
      </trkpt>
      <trkpt lat="50.79486" lon="2.87464">
        <ele>52</ele>
        <time>2020-06-23T15:34:35Z</time>
      </trkpt>
      <trkpt lat="50.79486" lon="2.87464">
        <ele>52</ele>
        <time>2020-06-23T15:34:36Z</time>
      </trkpt>
      <trkpt lat="50.79485" lon="2.87465">
        <ele>52</ele>
        <time>2020-06-23T15:34:37Z</time>
      </trkpt>
      <trkpt lat="50.79485" lon="2.87466">
        <ele>52.1</ele>
        <time>2020-06-23T15:34:38Z</time>
      </trkpt>
      <trkpt lat="50.79485" lon="2.87466">
        <ele>52.1</ele>
        <time>2020-06-23T15:34:39Z</time>
      </trkpt>
      <trkpt lat="50.79485" lon="2.87465">
        <ele>52.1</ele>
        <time>2020-06-23T15:34:40Z</time>
      </trkpt>
      <trkpt lat="50.79485" lon="2.87464">
        <ele>52.1</ele>
        <time>2020-06-23T15:34:41Z</time>
      </trkpt>
      <trkpt lat="50.79484" lon="2.87464">
        <ele>52.1</ele>
        <time>2020-06-23T15:34:42Z</time>
      </trkpt>
      <trkpt lat="50.79484" lon="2.87464">
        <ele>52.1</ele>
        <time>2020-06-23T15:34:43Z</time>
      </trkpt>
      <trkpt lat="50.79483" lon="2.87464">
        <ele>52.2</ele>
        <time>2020-06-23T15:34:44Z</time>
      </trkpt>
      <trkpt lat="50.79483" lon="2.87464">
        <ele>52.2</ele>
        <time>2020-06-23T15:34:45Z</time>
      </trkpt>
      <trkpt lat="50.79483" lon="2.87466">
        <ele>52.2</ele>
        <time>2020-06-23T15:34:46Z</time>
      </trkpt>
      <trkpt lat="50.79483" lon="2.87467">
        <ele>52.2</ele>
        <time>2020-06-23T15:34:47Z</time>
      </trkpt>
      <trkpt lat="50.79483" lon="2.87467">
        <ele>52.3</ele>
        <time>2020-06-23T15:34:48Z</time>
      </trkpt>
      <trkpt lat="50.79482" lon="2.87466">
        <ele>52.3</ele>
        <time>2020-06-23T15:34:49Z</time>
      </trkpt>
      <trkpt lat="50.79482" lon="2.87466">
        <ele>52.3</ele>
        <time>2020-06-23T15:34:50Z</time>
      </trkpt>
      <trkpt lat="50.7948" lon="2.87465">
        <ele>52.4</ele>
        <time>2020-06-23T15:34:51Z</time>
      </trkpt>
      <trkpt lat="50.7948" lon="2.87464">
        <ele>52.4</ele>
        <time>2020-06-23T15:34:52Z</time>
      </trkpt>
      <trkpt lat="50.79479" lon="2.87464">
        <ele>52.5</ele>
        <time>2020-06-23T15:34:53Z</time>
      </trkpt>
      <trkpt lat="50.79478" lon="2.87464">
        <ele>52.5</ele>
        <time>2020-06-23T15:34:54Z</time>
      </trkpt>
      <trkpt lat="50.79478" lon="2.87463">
        <ele>52.5</ele>
        <time>2020-06-23T15:34:55Z</time>
      </trkpt>
      <trkpt lat="50.79477" lon="2.87463">
        <ele>52.6</ele>
        <time>2020-06-23T15:35:16Z</time>
      </trkpt>
      <trkpt lat="50.79476" lon="2.87462">
        <ele>52.6</ele>
        <time>2020-06-23T15:35:17Z</time>
      </trkpt>
      <trkpt lat="50.79476" lon="2.87462">
        <ele>52.6</ele>
        <time>2020-06-23T15:35:18Z</time>
      </trkpt>
      <trkpt lat="50.79475" lon="2.87461">
        <ele>52.6</ele>
        <time>2020-06-23T15:35:19Z</time>
      </trkpt>
      <trkpt lat="50.79474" lon="2.87461">
        <ele>52.7</ele>
        <time>2020-06-23T15:35:20Z</time>
      </trkpt>
      <trkpt lat="50.79474" lon="2.87461">
        <ele>52.7</ele>
        <time>2020-06-23T15:35:21Z</time>
      </trkpt>
      <trkpt lat="50.79473" lon="2.8746">
        <ele>52.7</ele>
        <time>2020-06-23T15:35:22Z</time>
      </trkpt>
      <trkpt lat="50.79472" lon="2.8746">
        <ele>52.8</ele>
        <time>2020-06-23T15:35:23Z</time>
      </trkpt>
      <trkpt lat="50.79472" lon="2.87459">
        <ele>52.8</ele>
        <time>2020-06-23T15:35:24Z</time>
      </trkpt>
      <trkpt lat="50.79471" lon="2.87459">
        <ele>52.8</ele>
        <time>2020-06-23T15:35:25Z</time>
      </trkpt>
      <trkpt lat="50.7947" lon="2.87458">
        <ele>52.9</ele>
        <time>2020-06-23T15:35:26Z</time>
      </trkpt>
      <trkpt lat="50.7947" lon="2.87458">
        <ele>52.9</ele>
        <time>2020-06-23T15:35:27Z</time>
      </trkpt>
      <trkpt lat="50.79469" lon="2.87458">
        <ele>52.9</ele>
        <time>2020-06-23T15:35:28Z</time>
      </trkpt>
      <trkpt lat="50.79468" lon="2.87457">
        <ele>53</ele>
        <time>2020-06-23T15:35:29Z</time>
      </trkpt>
      <trkpt lat="50.79468" lon="2.87457">
        <ele>53</ele>
        <time>2020-06-23T15:35:48Z</time>
      </trkpt>
      <trkpt lat="50.79467" lon="2.87456">
        <ele>53</ele>
        <time>2020-06-23T15:35:49Z</time>
      </trkpt>
      <trkpt lat="50.79464" lon="2.87454">
        <ele>53.2</ele>
        <time>2020-06-23T15:35:50Z</time>
      </trkpt>
      <trkpt lat="50.79461" lon="2.87454">
        <ele>53.3</ele>
        <time>2020-06-23T15:35:51Z</time>
      </trkpt>
      <trkpt lat="50.79458" lon="2.87453">
        <ele>53.5</ele>
        <time>2020-06-23T15:35:52Z</time>
      </trkpt>
      <trkpt lat="50.79454" lon="2.87452">
        <ele>53.6</ele>
        <time>2020-06-23T15:35:53Z</time>
      </trkpt>
      <trkpt lat="50.79451" lon="2.8745">
        <ele>53.8</ele>
        <time>2020-06-23T15:35:54Z</time>
      </trkpt>
      <trkpt lat="50.79446" lon="2.8745">
        <ele>54</ele>
        <time>2020-06-23T15:35:55Z</time>
      </trkpt>
      <trkpt lat="50.79443" lon="2.87449">
        <ele>54.1</ele>
        <time>2020-06-23T15:35:56Z</time>
      </trkpt>
      <trkpt lat="50.7944" lon="2.87448">
        <ele>54.2</ele>
        <time>2020-06-23T15:35:57Z</time>
      </trkpt>
      <trkpt lat="50.79437" lon="2.87448">
        <ele>54.4</ele>
        <time>2020-06-23T15:35:58Z</time>
      </trkpt>
      <trkpt lat="50.79434" lon="2.87448">
        <ele>54.5</ele>
        <time>2020-06-23T15:35:59Z</time>
      </trkpt>
      <trkpt lat="50.7943" lon="2.87449">
        <ele>54.7</ele>
        <time>2020-06-23T15:36:00Z</time>
      </trkpt>
      <trkpt lat="50.79424" lon="2.87449">
        <ele>55</ele>
        <time>2020-06-23T15:36:01Z</time>
      </trkpt>
      <trkpt lat="50.79418" lon="2.87448">
        <ele>55.2</ele>
        <time>2020-06-23T15:36:02Z</time>
      </trkpt>
      <trkpt lat="50.79415" lon="2.87447">
        <ele>55.4</ele>
        <time>2020-06-23T15:36:03Z</time>
      </trkpt>
      <trkpt lat="50.79411" lon="2.87446">
        <ele>55.6</ele>
        <time>2020-06-23T15:36:04Z</time>
      </trkpt>
      <trkpt lat="50.79408" lon="2.87446">
        <ele>55.8</ele>
        <time>2020-06-23T15:36:05Z</time>
      </trkpt>
      <trkpt lat="50.79405" lon="2.87445">
        <ele>56.1</ele>
        <time>2020-06-23T15:36:06Z</time>
      </trkpt>
      <trkpt lat="50.79401" lon="2.87443">
        <ele>56.3</ele>
        <time>2020-06-23T15:36:07Z</time>
      </trkpt>
      <trkpt lat="50.79397" lon="2.87442">
        <ele>56.6</ele>
        <time>2020-06-23T15:36:08Z</time>
      </trkpt>
      <trkpt lat="50.79394" lon="2.87441">
        <ele>56.8</ele>
        <time>2020-06-23T15:36:09Z</time>
      </trkpt>
      <trkpt lat="50.7939" lon="2.87439">
        <ele>57.1</ele>
        <time>2020-06-23T15:36:10Z</time>
      </trkpt>
      <trkpt lat="50.79387" lon="2.87438">
        <ele>57.5</ele>
        <time>2020-06-23T15:36:11Z</time>
      </trkpt>
      <trkpt lat="50.79383" lon="2.87436">
        <ele>57.6</ele>
        <time>2020-06-23T15:36:12Z</time>
      </trkpt>
      <trkpt lat="50.79379" lon="2.87434">
        <ele>57.7</ele>
        <time>2020-06-23T15:36:13Z</time>
      </trkpt>
      <trkpt lat="50.79375" lon="2.87433">
        <ele>57.8</ele>
        <time>2020-06-23T15:36:14Z</time>
      </trkpt>
      <trkpt lat="50.79371" lon="2.87431">
        <ele>57.9</ele>
        <time>2020-06-23T15:36:15Z</time>
      </trkpt>
      <trkpt lat="50.79368" lon="2.8743">
        <ele>58</ele>
        <time>2020-06-23T15:36:16Z</time>
      </trkpt>
      <trkpt lat="50.79365" lon="2.8743">
        <ele>58</ele>
        <time>2020-06-23T15:36:17Z</time>
      </trkpt>
      <trkpt lat="50.79361" lon="2.8743">
        <ele>58.1</ele>
        <time>2020-06-23T15:36:18Z</time>
      </trkpt>
      <trkpt lat="50.7936" lon="2.87431">
        <ele>58.1</ele>
        <time>2020-06-23T15:36:19Z</time>
      </trkpt>
      <trkpt lat="50.79356" lon="2.87434">
        <ele>58.1</ele>
        <time>2020-06-23T15:36:20Z</time>
      </trkpt>
      <trkpt lat="50.79355" lon="2.87436">
        <ele>58.2</ele>
        <time>2020-06-23T15:36:21Z</time>
      </trkpt>
      <trkpt lat="50.79353" lon="2.87441">
        <ele>58.3</ele>
        <time>2020-06-23T15:36:22Z</time>
      </trkpt>
      <trkpt lat="50.79352" lon="2.87443">
        <ele>58.3</ele>
        <time>2020-06-23T15:36:23Z</time>
      </trkpt>
      <trkpt lat="50.79351" lon="2.87447">
        <ele>58.4</ele>
        <time>2020-06-23T15:36:24Z</time>
      </trkpt>
      <trkpt lat="50.79348" lon="2.87452">
        <ele>58.6</ele>
        <time>2020-06-23T15:36:25Z</time>
      </trkpt>
      <trkpt lat="50.79347" lon="2.87453">
        <ele>58.6</ele>
        <time>2020-06-23T15:36:26Z</time>
      </trkpt>
      <trkpt lat="50.79345" lon="2.87457">
        <ele>58.7</ele>
        <time>2020-06-23T15:36:27Z</time>
      </trkpt>
      <trkpt lat="50.79344" lon="2.87458">
        <ele>58.8</ele>
        <time>2020-06-23T15:36:28Z</time>
      </trkpt>
      <trkpt lat="50.79343" lon="2.8746">
        <ele>58.8</ele>
        <time>2020-06-23T15:36:29Z</time>
      </trkpt>
      <trkpt lat="50.79342" lon="2.87461">
        <ele>58.8</ele>
        <time>2020-06-23T15:36:30Z</time>
      </trkpt>
      <trkpt lat="50.79342" lon="2.87462">
        <ele>58.9</ele>
        <time>2020-06-23T15:36:31Z</time>
      </trkpt>
      <trkpt lat="50.7934" lon="2.87465">
        <ele>58.9</ele>
        <time>2020-06-23T15:36:32Z</time>
      </trkpt>
      <trkpt lat="50.79339" lon="2.87466">
        <ele>59</ele>
        <time>2020-06-23T15:36:33Z</time>
      </trkpt>
      <trkpt lat="50.79338" lon="2.87467">
        <ele>59</ele>
        <time>2020-06-23T15:36:34Z</time>
      </trkpt>
      <trkpt lat="50.79337" lon="2.87469">
        <ele>59</ele>
        <time>2020-06-23T15:36:35Z</time>
      </trkpt>
      <trkpt lat="50.79335" lon="2.8747">
        <ele>59.1</ele>
        <time>2020-06-23T15:36:36Z</time>
      </trkpt>
      <trkpt lat="50.79334" lon="2.87472">
        <ele>59.1</ele>
        <time>2020-06-23T15:36:37Z</time>
      </trkpt>
      <trkpt lat="50.79333" lon="2.87473">
        <ele>59.1</ele>
        <time>2020-06-23T15:36:38Z</time>
      </trkpt>
      <trkpt lat="50.79332" lon="2.87474">
        <ele>59.2</ele>
        <time>2020-06-23T15:36:39Z</time>
      </trkpt>
      <trkpt lat="50.79331" lon="2.87476">
        <ele>59.2</ele>
        <time>2020-06-23T15:36:40Z</time>
      </trkpt>
      <trkpt lat="50.7933" lon="2.87477">
        <ele>59.2</ele>
        <time>2020-06-23T15:39:09Z</time>
      </trkpt>
      <trkpt lat="50.79329" lon="2.87478">
        <ele>59.3</ele>
        <time>2020-06-23T15:39:10Z</time>
      </trkpt>
      <trkpt lat="50.79327" lon="2.87484">
        <ele>59.3</ele>
        <time>2020-06-23T15:39:11Z</time>
      </trkpt>
      <trkpt lat="50.79326" lon="2.87485">
        <ele>59.4</ele>
        <time>2020-06-23T15:39:12Z</time>
      </trkpt>
      <trkpt lat="50.79324" lon="2.87488">
        <ele>59.4</ele>
        <time>2020-06-23T15:39:13Z</time>
      </trkpt>
      <trkpt lat="50.79321" lon="2.87492">
        <ele>59.5</ele>
        <time>2020-06-23T15:39:14Z</time>
      </trkpt>
      <trkpt lat="50.79319" lon="2.87496">
        <ele>59.6</ele>
        <time>2020-06-23T15:39:15Z</time>
      </trkpt>
      <trkpt lat="50.79316" lon="2.87501">
        <ele>59.6</ele>
        <time>2020-06-23T15:39:16Z</time>
      </trkpt>
      <trkpt lat="50.79313" lon="2.87503">
        <ele>59.7</ele>
        <time>2020-06-23T15:39:17Z</time>
      </trkpt>
      <trkpt lat="50.7931" lon="2.87505">
        <ele>59.8</ele>
        <time>2020-06-23T15:39:18Z</time>
      </trkpt>
      <trkpt lat="50.79307" lon="2.87508">
        <ele>59.8</ele>
        <time>2020-06-23T15:39:19Z</time>
      </trkpt>
      <trkpt lat="50.79305" lon="2.87511">
        <ele>59.9</ele>
        <time>2020-06-23T15:39:20Z</time>
      </trkpt>
      <trkpt lat="50.79302" lon="2.87514">
        <ele>59.9</ele>
        <time>2020-06-23T15:39:21Z</time>
      </trkpt>
      <trkpt lat="50.79301" lon="2.87516">
        <ele>60</ele>
        <time>2020-06-23T15:39:22Z</time>
      </trkpt>
      <trkpt lat="50.79298" lon="2.87519">
        <ele>60</ele>
        <time>2020-06-23T15:39:23Z</time>
      </trkpt>
      <trkpt lat="50.79294" lon="2.87523">
        <ele>60.1</ele>
        <time>2020-06-23T15:39:24Z</time>
      </trkpt>
      <trkpt lat="50.7929" lon="2.87527">
        <ele>60.2</ele>
        <time>2020-06-23T15:39:25Z</time>
      </trkpt>
      <trkpt lat="50.79287" lon="2.87531">
        <ele>60.3</ele>
        <time>2020-06-23T15:39:26Z</time>
      </trkpt>
      <trkpt lat="50.79283" lon="2.87533">
        <ele>60.3</ele>
        <time>2020-06-23T15:39:27Z</time>
      </trkpt>
      <trkpt lat="50.79279" lon="2.87537">
        <ele>60.4</ele>
        <time>2020-06-23T15:39:28Z</time>
      </trkpt>
      <trkpt lat="50.79275" lon="2.87539">
        <ele>60.5</ele>
        <time>2020-06-23T15:39:29Z</time>
      </trkpt>
      <trkpt lat="50.79271" lon="2.87541">
        <ele>60.6</ele>
        <time>2020-06-23T15:39:30Z</time>
      </trkpt>
      <trkpt lat="50.79268" lon="2.87544">
        <ele>60.6</ele>
        <time>2020-06-23T15:39:31Z</time>
      </trkpt>
      <trkpt lat="50.79264" lon="2.87547">
        <ele>60.7</ele>
        <time>2020-06-23T15:39:32Z</time>
      </trkpt>
      <trkpt lat="50.7926" lon="2.8755">
        <ele>60.8</ele>
        <time>2020-06-23T15:39:33Z</time>
      </trkpt>
      <trkpt lat="50.79256" lon="2.87553">
        <ele>60.8</ele>
        <time>2020-06-23T15:39:34Z</time>
      </trkpt>
      <trkpt lat="50.79252" lon="2.87556">
        <ele>60.9</ele>
        <time>2020-06-23T15:39:35Z</time>
      </trkpt>
      <trkpt lat="50.79249" lon="2.8756">
        <ele>61</ele>
        <time>2020-06-23T15:39:36Z</time>
      </trkpt>
      <trkpt lat="50.79245" lon="2.87563">
        <ele>61.1</ele>
        <time>2020-06-23T15:39:37Z</time>
      </trkpt>
      <trkpt lat="50.79241" lon="2.87567">
        <ele>61.2</ele>
        <time>2020-06-23T15:39:38Z</time>
      </trkpt>
      <trkpt lat="50.79237" lon="2.8757">
        <ele>61.3</ele>
        <time>2020-06-23T15:39:39Z</time>
      </trkpt>
      <trkpt lat="50.79233" lon="2.87573">
        <ele>61.3</ele>
        <time>2020-06-23T15:39:40Z</time>
      </trkpt>
      <trkpt lat="50.79229" lon="2.87576">
        <ele>61.4</ele>
        <time>2020-06-23T15:39:41Z</time>
      </trkpt>
      <trkpt lat="50.79225" lon="2.87579">
        <ele>61.5</ele>
        <time>2020-06-23T15:39:42Z</time>
      </trkpt>
      <trkpt lat="50.79222" lon="2.87582">
        <ele>61.6</ele>
        <time>2020-06-23T15:39:43Z</time>
      </trkpt>
      <trkpt lat="50.79219" lon="2.87585">
        <ele>61.7</ele>
        <time>2020-06-23T15:39:44Z</time>
      </trkpt>
      <trkpt lat="50.79215" lon="2.87587">
        <ele>61.8</ele>
        <time>2020-06-23T15:39:45Z</time>
      </trkpt>
      <trkpt lat="50.7921" lon="2.87591">
        <ele>62</ele>
        <time>2020-06-23T15:39:46Z</time>
      </trkpt>
      <trkpt lat="50.79206" lon="2.87593">
        <ele>62.2</ele>
        <time>2020-06-23T15:39:47Z</time>
      </trkpt>
      <trkpt lat="50.79202" lon="2.87596">
        <ele>62.4</ele>
        <time>2020-06-23T15:39:48Z</time>
      </trkpt>
      <trkpt lat="50.79199" lon="2.87599">
        <ele>62.6</ele>
        <time>2020-06-23T15:39:49Z</time>
      </trkpt>
      <trkpt lat="50.79194" lon="2.87602">
        <ele>62.9</ele>
        <time>2020-06-23T15:39:50Z</time>
      </trkpt>
      <trkpt lat="50.79188" lon="2.87605">
        <ele>63.1</ele>
        <time>2020-06-23T15:39:51Z</time>
      </trkpt>
      <trkpt lat="50.79183" lon="2.87608">
        <ele>63.3</ele>
        <time>2020-06-23T15:39:52Z</time>
      </trkpt>
      <trkpt lat="50.79179" lon="2.8761">
        <ele>63.4</ele>
        <time>2020-06-23T15:39:53Z</time>
      </trkpt>
      <trkpt lat="50.79175" lon="2.87613">
        <ele>63.6</ele>
        <time>2020-06-23T15:39:54Z</time>
      </trkpt>
      <trkpt lat="50.79171" lon="2.87617">
        <ele>63.8</ele>
        <time>2020-06-23T15:39:55Z</time>
      </trkpt>
      <trkpt lat="50.79167" lon="2.8762">
        <ele>64</ele>
        <time>2020-06-23T15:39:56Z</time>
      </trkpt>
      <trkpt lat="50.79162" lon="2.87624">
        <ele>64.2</ele>
        <time>2020-06-23T15:39:57Z</time>
      </trkpt>
      <trkpt lat="50.79159" lon="2.87626">
        <ele>64.4</ele>
        <time>2020-06-23T15:39:58Z</time>
      </trkpt>
      <trkpt lat="50.79155" lon="2.87628">
        <ele>64.5</ele>
        <time>2020-06-23T15:39:59Z</time>
      </trkpt>
      <trkpt lat="50.79152" lon="2.87631">
        <ele>64.7</ele>
        <time>2020-06-23T15:40:00Z</time>
      </trkpt>
      <trkpt lat="50.79148" lon="2.87635">
        <ele>64.8</ele>
        <time>2020-06-23T15:40:01Z</time>
      </trkpt>
      <trkpt lat="50.79145" lon="2.87639">
        <ele>65</ele>
        <time>2020-06-23T15:40:02Z</time>
      </trkpt>
      <trkpt lat="50.79141" lon="2.87642">
        <ele>65.2</ele>
        <time>2020-06-23T15:40:03Z</time>
      </trkpt>
      <trkpt lat="50.79137" lon="2.87644">
        <ele>65.3</ele>
        <time>2020-06-23T15:40:04Z</time>
      </trkpt>
      <trkpt lat="50.79133" lon="2.87647">
        <ele>65.5</ele>
        <time>2020-06-23T15:40:05Z</time>
      </trkpt>
      <trkpt lat="50.79129" lon="2.87651">
        <ele>65.6</ele>
        <time>2020-06-23T15:40:06Z</time>
      </trkpt>
      <trkpt lat="50.79125" lon="2.87654">
        <ele>66</ele>
        <time>2020-06-23T15:40:07Z</time>
      </trkpt>
      <trkpt lat="50.79121" lon="2.87658">
        <ele>66</ele>
        <time>2020-06-23T15:40:08Z</time>
      </trkpt>
      <trkpt lat="50.79118" lon="2.87662">
        <ele>66.1</ele>
        <time>2020-06-23T15:40:09Z</time>
      </trkpt>
      <trkpt lat="50.79115" lon="2.87664">
        <ele>66.1</ele>
        <time>2020-06-23T15:40:10Z</time>
      </trkpt>
      <trkpt lat="50.79111" lon="2.87666">
        <ele>66.2</ele>
        <time>2020-06-23T15:40:11Z</time>
      </trkpt>
      <trkpt lat="50.79107" lon="2.8767">
        <ele>66.4</ele>
        <time>2020-06-23T15:40:12Z</time>
      </trkpt>
      <trkpt lat="50.79103" lon="2.87674">
        <ele>66.5</ele>
        <time>2020-06-23T15:40:13Z</time>
      </trkpt>
      <trkpt lat="50.791" lon="2.87676">
        <ele>66.6</ele>
        <time>2020-06-23T15:40:14Z</time>
      </trkpt>
      <trkpt lat="50.79096" lon="2.8768">
        <ele>66.7</ele>
        <time>2020-06-23T15:40:15Z</time>
      </trkpt>
      <trkpt lat="50.79093" lon="2.87683">
        <ele>66.8</ele>
        <time>2020-06-23T15:40:16Z</time>
      </trkpt>
      <trkpt lat="50.79089" lon="2.87686">
        <ele>66.9</ele>
        <time>2020-06-23T15:40:17Z</time>
      </trkpt>
      <trkpt lat="50.79084" lon="2.87689">
        <ele>67</ele>
        <time>2020-06-23T15:40:18Z</time>
      </trkpt>
      <trkpt lat="50.7908" lon="2.87694">
        <ele>67.1</ele>
        <time>2020-06-23T15:40:19Z</time>
      </trkpt>
      <trkpt lat="50.79076" lon="2.87698">
        <ele>67.1</ele>
        <time>2020-06-23T15:40:20Z</time>
      </trkpt>
      <trkpt lat="50.79072" lon="2.87703">
        <ele>67.2</ele>
        <time>2020-06-23T15:40:21Z</time>
      </trkpt>
      <trkpt lat="50.79068" lon="2.87706">
        <ele>67.2</ele>
        <time>2020-06-23T15:40:22Z</time>
      </trkpt>
      <trkpt lat="50.79064" lon="2.8771">
        <ele>67.2</ele>
        <time>2020-06-23T15:40:23Z</time>
      </trkpt>
      <trkpt lat="50.7906" lon="2.87714">
        <ele>67.2</ele>
        <time>2020-06-23T15:40:24Z</time>
      </trkpt>
      <trkpt lat="50.79056" lon="2.87719">
        <ele>67.3</ele>
        <time>2020-06-23T15:40:25Z</time>
      </trkpt>
      <trkpt lat="50.79051" lon="2.87722">
        <ele>67.3</ele>
        <time>2020-06-23T15:40:26Z</time>
      </trkpt>
      <trkpt lat="50.79046" lon="2.87726">
        <ele>67.3</ele>
        <time>2020-06-23T15:40:27Z</time>
      </trkpt>
      <trkpt lat="50.79042" lon="2.87731">
        <ele>67.2</ele>
        <time>2020-06-23T15:40:28Z</time>
      </trkpt>
      <trkpt lat="50.79037" lon="2.87735">
        <ele>67.2</ele>
        <time>2020-06-23T15:40:29Z</time>
      </trkpt>
      <trkpt lat="50.79032" lon="2.87739">
        <ele>67.2</ele>
        <time>2020-06-23T15:40:30Z</time>
      </trkpt>
      <trkpt lat="50.79027" lon="2.87742">
        <ele>67.2</ele>
        <time>2020-06-23T15:40:31Z</time>
      </trkpt>
      <trkpt lat="50.79023" lon="2.87746">
        <ele>67.2</ele>
        <time>2020-06-23T15:40:32Z</time>
      </trkpt>
      <trkpt lat="50.79019" lon="2.87751">
        <ele>67.3</ele>
        <time>2020-06-23T15:40:33Z</time>
      </trkpt>
      <trkpt lat="50.79014" lon="2.87756">
        <ele>67.3</ele>
        <time>2020-06-23T15:40:34Z</time>
      </trkpt>
      <trkpt lat="50.7901" lon="2.8776">
        <ele>67.2</ele>
        <time>2020-06-23T15:40:35Z</time>
      </trkpt>
      <trkpt lat="50.79006" lon="2.87764">
        <ele>67.2</ele>
        <time>2020-06-23T15:40:36Z</time>
      </trkpt>
      <trkpt lat="50.79001" lon="2.87769">
        <ele>67.2</ele>
        <time>2020-06-23T15:40:37Z</time>
      </trkpt>
      <trkpt lat="50.78995" lon="2.87771">
        <ele>67.2</ele>
        <time>2020-06-23T15:40:38Z</time>
      </trkpt>
      <trkpt lat="50.78989" lon="2.87777">
        <ele>67.2</ele>
        <time>2020-06-23T15:40:39Z</time>
      </trkpt>
      <trkpt lat="50.78984" lon="2.87783">
        <ele>67.2</ele>
        <time>2020-06-23T15:40:40Z</time>
      </trkpt>
      <trkpt lat="50.78979" lon="2.87789">
        <ele>67.2</ele>
        <time>2020-06-23T15:40:41Z</time>
      </trkpt>
      <trkpt lat="50.78974" lon="2.87794">
        <ele>67.2</ele>
        <time>2020-06-23T15:40:42Z</time>
      </trkpt>
      <trkpt lat="50.78968" lon="2.878">
        <ele>67.3</ele>
        <time>2020-06-23T15:40:43Z</time>
      </trkpt>
      <trkpt lat="50.78962" lon="2.87806">
        <ele>67.3</ele>
        <time>2020-06-23T15:40:44Z</time>
      </trkpt>
      <trkpt lat="50.78957" lon="2.87811">
        <ele>67.3</ele>
        <time>2020-06-23T15:40:45Z</time>
      </trkpt>
      <trkpt lat="50.78952" lon="2.87816">
        <ele>67.3</ele>
        <time>2020-06-23T15:40:46Z</time>
      </trkpt>
      <trkpt lat="50.78947" lon="2.8782">
        <ele>67.3</ele>
        <time>2020-06-23T15:40:47Z</time>
      </trkpt>
      <trkpt lat="50.78942" lon="2.87824">
        <ele>67.4</ele>
        <time>2020-06-23T15:40:48Z</time>
      </trkpt>
      <trkpt lat="50.78938" lon="2.87828">
        <ele>67.4</ele>
        <time>2020-06-23T15:40:49Z</time>
      </trkpt>
      <trkpt lat="50.78933" lon="2.87832">
        <ele>67.5</ele>
        <time>2020-06-23T15:40:50Z</time>
      </trkpt>
      <trkpt lat="50.7893" lon="2.87836">
        <ele>67.5</ele>
        <time>2020-06-23T15:40:51Z</time>
      </trkpt>
      <trkpt lat="50.78925" lon="2.8784">
        <ele>67.6</ele>
        <time>2020-06-23T15:40:52Z</time>
      </trkpt>
      <trkpt lat="50.7892" lon="2.87844">
        <ele>67.7</ele>
        <time>2020-06-23T15:40:53Z</time>
      </trkpt>
      <trkpt lat="50.78915" lon="2.87849">
        <ele>67.7</ele>
        <time>2020-06-23T15:40:54Z</time>
      </trkpt>
      <trkpt lat="50.78911" lon="2.87855">
        <ele>67.8</ele>
        <time>2020-06-23T15:40:55Z</time>
      </trkpt>
      <trkpt lat="50.78905" lon="2.87858">
        <ele>67.9</ele>
        <time>2020-06-23T15:40:56Z</time>
      </trkpt>
      <trkpt lat="50.78901" lon="2.87862">
        <ele>67.9</ele>
        <time>2020-06-23T15:40:57Z</time>
      </trkpt>
      <trkpt lat="50.78896" lon="2.87866">
        <ele>68</ele>
        <time>2020-06-23T15:40:58Z</time>
      </trkpt>
      <trkpt lat="50.78892" lon="2.8787">
        <ele>68.1</ele>
        <time>2020-06-23T15:40:59Z</time>
      </trkpt>
      <trkpt lat="50.78887" lon="2.87874">
        <ele>68.2</ele>
        <time>2020-06-23T15:41:00Z</time>
      </trkpt>
      <trkpt lat="50.78883" lon="2.87878">
        <ele>68.3</ele>
        <time>2020-06-23T15:41:01Z</time>
      </trkpt>
      <trkpt lat="50.78879" lon="2.87883">
        <ele>68.4</ele>
        <time>2020-06-23T15:41:02Z</time>
      </trkpt>
      <trkpt lat="50.78875" lon="2.87888">
        <ele>68.5</ele>
        <time>2020-06-23T15:41:03Z</time>
      </trkpt>
      <trkpt lat="50.7887" lon="2.87894">
        <ele>68.7</ele>
        <time>2020-06-23T15:41:04Z</time>
      </trkpt>
      <trkpt lat="50.78865" lon="2.87899">
        <ele>68.8</ele>
        <time>2020-06-23T15:41:05Z</time>
      </trkpt>
      <trkpt lat="50.7886" lon="2.87905">
        <ele>68.9</ele>
        <time>2020-06-23T15:41:06Z</time>
      </trkpt>
      <trkpt lat="50.78855" lon="2.8791">
        <ele>69.1</ele>
        <time>2020-06-23T15:41:07Z</time>
      </trkpt>
      <trkpt lat="50.7885" lon="2.87916">
        <ele>69.3</ele>
        <time>2020-06-23T15:41:08Z</time>
      </trkpt>
      <trkpt lat="50.78846" lon="2.87922">
        <ele>69.4</ele>
        <time>2020-06-23T15:41:09Z</time>
      </trkpt>
      <trkpt lat="50.78841" lon="2.87927">
        <ele>69.6</ele>
        <time>2020-06-23T15:41:10Z</time>
      </trkpt>
      <trkpt lat="50.78837" lon="2.87932">
        <ele>69.7</ele>
        <time>2020-06-23T15:41:11Z</time>
      </trkpt>
      <trkpt lat="50.78832" lon="2.87938">
        <ele>69.9</ele>
        <time>2020-06-23T15:41:12Z</time>
      </trkpt>
      <trkpt lat="50.78828" lon="2.87942">
        <ele>70</ele>
        <time>2020-06-23T15:41:13Z</time>
      </trkpt>
      <trkpt lat="50.78825" lon="2.87948">
        <ele>70.1</ele>
        <time>2020-06-23T15:41:14Z</time>
      </trkpt>
      <trkpt lat="50.7882" lon="2.87954">
        <ele>70.2</ele>
        <time>2020-06-23T15:41:15Z</time>
      </trkpt>
      <trkpt lat="50.78816" lon="2.87959">
        <ele>70.3</ele>
        <time>2020-06-23T15:41:16Z</time>
      </trkpt>
      <trkpt lat="50.78811" lon="2.87964">
        <ele>70.3</ele>
        <time>2020-06-23T15:41:17Z</time>
      </trkpt>
      <trkpt lat="50.78806" lon="2.87969">
        <ele>70.4</ele>
        <time>2020-06-23T15:41:18Z</time>
      </trkpt>
      <trkpt lat="50.78802" lon="2.87974">
        <ele>70.4</ele>
        <time>2020-06-23T15:41:19Z</time>
      </trkpt>
      <trkpt lat="50.78797" lon="2.8798">
        <ele>70.5</ele>
        <time>2020-06-23T15:41:20Z</time>
      </trkpt>
      <trkpt lat="50.78792" lon="2.87984">
        <ele>70.5</ele>
        <time>2020-06-23T15:41:21Z</time>
      </trkpt>
      <trkpt lat="50.78789" lon="2.8799">
        <ele>70.6</ele>
        <time>2020-06-23T15:41:22Z</time>
      </trkpt>
      <trkpt lat="50.78786" lon="2.87995">
        <ele>70.7</ele>
        <time>2020-06-23T15:41:23Z</time>
      </trkpt>
      <trkpt lat="50.78782" lon="2.87999">
        <ele>70.7</ele>
        <time>2020-06-23T15:41:24Z</time>
      </trkpt>
      <trkpt lat="50.78778" lon="2.88004">
        <ele>70.7</ele>
        <time>2020-06-23T15:41:25Z</time>
      </trkpt>
      <trkpt lat="50.78775" lon="2.88007">
        <ele>70.8</ele>
        <time>2020-06-23T15:41:26Z</time>
      </trkpt>
      <trkpt lat="50.78771" lon="2.88012">
        <ele>70.8</ele>
        <time>2020-06-23T15:41:27Z</time>
      </trkpt>
      <trkpt lat="50.78768" lon="2.88019">
        <ele>70.8</ele>
        <time>2020-06-23T15:41:28Z</time>
      </trkpt>
      <trkpt lat="50.78765" lon="2.88024">
        <ele>70.8</ele>
        <time>2020-06-23T15:41:29Z</time>
      </trkpt>
      <trkpt lat="50.78762" lon="2.88029">
        <ele>70.8</ele>
        <time>2020-06-23T15:41:30Z</time>
      </trkpt>
      <trkpt lat="50.78758" lon="2.88034">
        <ele>70.9</ele>
        <time>2020-06-23T15:41:31Z</time>
      </trkpt>
      <trkpt lat="50.78753" lon="2.88038">
        <ele>70.9</ele>
        <time>2020-06-23T15:41:32Z</time>
      </trkpt>
      <trkpt lat="50.78748" lon="2.88043">
        <ele>71</ele>
        <time>2020-06-23T15:41:33Z</time>
      </trkpt>
      <trkpt lat="50.78743" lon="2.88048">
        <ele>71.1</ele>
        <time>2020-06-23T15:41:34Z</time>
      </trkpt>
      <trkpt lat="50.78738" lon="2.88052">
        <ele>71.2</ele>
        <time>2020-06-23T15:41:35Z</time>
      </trkpt>
      <trkpt lat="50.78735" lon="2.88057">
        <ele>71.3</ele>
        <time>2020-06-23T15:41:36Z</time>
      </trkpt>
      <trkpt lat="50.78731" lon="2.88062">
        <ele>71.4</ele>
        <time>2020-06-23T15:41:37Z</time>
      </trkpt>
      <trkpt lat="50.78727" lon="2.88066">
        <ele>71.5</ele>
        <time>2020-06-23T15:41:38Z</time>
      </trkpt>
      <trkpt lat="50.78724" lon="2.8807">
        <ele>71.7</ele>
        <time>2020-06-23T15:41:39Z</time>
      </trkpt>
      <trkpt lat="50.78721" lon="2.88074">
        <ele>71.8</ele>
        <time>2020-06-23T15:41:40Z</time>
      </trkpt>
      <trkpt lat="50.78717" lon="2.88078">
        <ele>72</ele>
        <time>2020-06-23T15:41:41Z</time>
      </trkpt>
      <trkpt lat="50.78713" lon="2.88082">
        <ele>72.2</ele>
        <time>2020-06-23T15:41:42Z</time>
      </trkpt>
      <trkpt lat="50.7871" lon="2.88087">
        <ele>72.4</ele>
        <time>2020-06-23T15:41:43Z</time>
      </trkpt>
      <trkpt lat="50.78705" lon="2.88092">
        <ele>72.6</ele>
        <time>2020-06-23T15:41:44Z</time>
      </trkpt>
      <trkpt lat="50.78698" lon="2.88097">
        <ele>73</ele>
        <time>2020-06-23T15:41:45Z</time>
      </trkpt>
      <trkpt lat="50.78692" lon="2.88102">
        <ele>73.3</ele>
        <time>2020-06-23T15:41:46Z</time>
      </trkpt>
      <trkpt lat="50.78688" lon="2.88106">
        <ele>73.5</ele>
        <time>2020-06-23T15:41:47Z</time>
      </trkpt>
      <trkpt lat="50.78683" lon="2.88111">
        <ele>73.8</ele>
        <time>2020-06-23T15:41:48Z</time>
      </trkpt>
      <trkpt lat="50.78679" lon="2.88114">
        <ele>74</ele>
        <time>2020-06-23T15:41:49Z</time>
      </trkpt>
      <trkpt lat="50.78676" lon="2.88116">
        <ele>74.1</ele>
        <time>2020-06-23T15:41:50Z</time>
      </trkpt>
      <trkpt lat="50.78673" lon="2.88118">
        <ele>74.3</ele>
        <time>2020-06-23T15:41:51Z</time>
      </trkpt>
      <trkpt lat="50.78669" lon="2.88121">
        <ele>74.5</ele>
        <time>2020-06-23T15:41:52Z</time>
      </trkpt>
      <trkpt lat="50.78666" lon="2.88126">
        <ele>74.7</ele>
        <time>2020-06-23T15:41:53Z</time>
      </trkpt>
      <trkpt lat="50.78662" lon="2.8813">
        <ele>74.9</ele>
        <time>2020-06-23T15:41:54Z</time>
      </trkpt>
      <trkpt lat="50.78658" lon="2.88133">
        <ele>75.1</ele>
        <time>2020-06-23T15:41:55Z</time>
      </trkpt>
      <trkpt lat="50.78655" lon="2.88137">
        <ele>75.3</ele>
        <time>2020-06-23T15:41:56Z</time>
      </trkpt>
      <trkpt lat="50.78651" lon="2.8814">
        <ele>75.5</ele>
        <time>2020-06-23T15:41:57Z</time>
      </trkpt>
      <trkpt lat="50.78648" lon="2.88142">
        <ele>75.7</ele>
        <time>2020-06-23T15:41:58Z</time>
      </trkpt>
      <trkpt lat="50.78644" lon="2.88145">
        <ele>76</ele>
        <time>2020-06-23T15:41:59Z</time>
      </trkpt>
      <trkpt lat="50.78639" lon="2.88147">
        <ele>76.2</ele>
        <time>2020-06-23T15:42:00Z</time>
      </trkpt>
      <trkpt lat="50.78636" lon="2.88149">
        <ele>76.4</ele>
        <time>2020-06-23T15:42:01Z</time>
      </trkpt>
      <trkpt lat="50.78633" lon="2.88151">
        <ele>76.8</ele>
        <time>2020-06-23T15:42:02Z</time>
      </trkpt>
      <trkpt lat="50.78629" lon="2.88156">
        <ele>76.9</ele>
        <time>2020-06-23T15:42:03Z</time>
      </trkpt>
      <trkpt lat="50.78625" lon="2.88159">
        <ele>76.9</ele>
        <time>2020-06-23T15:42:04Z</time>
      </trkpt>
      <trkpt lat="50.78621" lon="2.88161">
        <ele>77.2</ele>
        <time>2020-06-23T15:42:05Z</time>
      </trkpt>
      <trkpt lat="50.78617" lon="2.88163">
        <ele>77.4</ele>
        <time>2020-06-23T15:42:06Z</time>
      </trkpt>
      <trkpt lat="50.78613" lon="2.88165">
        <ele>77.7</ele>
        <time>2020-06-23T15:42:07Z</time>
      </trkpt>
      <trkpt lat="50.7861" lon="2.88167">
        <ele>78</ele>
        <time>2020-06-23T15:42:08Z</time>
      </trkpt>
      <trkpt lat="50.78606" lon="2.88168">
        <ele>78.2</ele>
        <time>2020-06-23T15:42:09Z</time>
      </trkpt>
      <trkpt lat="50.78604" lon="2.8817">
        <ele>78.4</ele>
        <time>2020-06-23T15:42:10Z</time>
      </trkpt>
      <trkpt lat="50.78602" lon="2.88171">
        <ele>78.5</ele>
        <time>2020-06-23T15:42:11Z</time>
      </trkpt>
      <trkpt lat="50.78599" lon="2.88175">
        <ele>78.7</ele>
        <time>2020-06-23T15:42:12Z</time>
      </trkpt>
      <trkpt lat="50.78596" lon="2.88177">
        <ele>79</ele>
        <time>2020-06-23T15:42:13Z</time>
      </trkpt>
      <trkpt lat="50.78592" lon="2.88179">
        <ele>79.2</ele>
        <time>2020-06-23T15:42:14Z</time>
      </trkpt>
      <trkpt lat="50.78589" lon="2.88181">
        <ele>79.4</ele>
        <time>2020-06-23T15:42:15Z</time>
      </trkpt>
      <trkpt lat="50.78585" lon="2.88181">
        <ele>79.7</ele>
        <time>2020-06-23T15:42:16Z</time>
      </trkpt>
      <trkpt lat="50.78583" lon="2.88181">
        <ele>79.8</ele>
        <time>2020-06-23T15:42:17Z</time>
      </trkpt>
      <trkpt lat="50.78582" lon="2.8818">
        <ele>79.9</ele>
        <time>2020-06-23T15:42:18Z</time>
      </trkpt>
      <trkpt lat="50.78578" lon="2.88181">
        <ele>80.2</ele>
        <time>2020-06-23T15:42:19Z</time>
      </trkpt>
      <trkpt lat="50.78575" lon="2.88181">
        <ele>80.2</ele>
        <time>2020-06-23T15:42:20Z</time>
      </trkpt>
      <trkpt lat="50.7857" lon="2.88184">
        <ele>80.2</ele>
        <time>2020-06-23T15:42:21Z</time>
      </trkpt>
      <trkpt lat="50.78566" lon="2.88187">
        <ele>80.3</ele>
        <time>2020-06-23T15:42:22Z</time>
      </trkpt>
      <trkpt lat="50.78561" lon="2.8819">
        <ele>80.3</ele>
        <time>2020-06-23T15:42:23Z</time>
      </trkpt>
      <trkpt lat="50.78557" lon="2.88193">
        <ele>80.3</ele>
        <time>2020-06-23T15:42:24Z</time>
      </trkpt>
      <trkpt lat="50.78552" lon="2.88195">
        <ele>80.4</ele>
        <time>2020-06-23T15:42:25Z</time>
      </trkpt>
      <trkpt lat="50.78547" lon="2.88194">
        <ele>80.4</ele>
        <time>2020-06-23T15:42:26Z</time>
      </trkpt>
      <trkpt lat="50.78542" lon="2.88195">
        <ele>80.5</ele>
        <time>2020-06-23T15:42:27Z</time>
      </trkpt>
      <trkpt lat="50.78538" lon="2.88197">
        <ele>80.5</ele>
        <time>2020-06-23T15:42:28Z</time>
      </trkpt>
      <trkpt lat="50.78536" lon="2.88201">
        <ele>80.5</ele>
        <time>2020-06-23T15:42:29Z</time>
      </trkpt>
      <trkpt lat="50.78534" lon="2.88204">
        <ele>80.5</ele>
        <time>2020-06-23T15:42:30Z</time>
      </trkpt>
      <trkpt lat="50.78533" lon="2.8821">
        <ele>80.6</ele>
        <time>2020-06-23T15:42:31Z</time>
      </trkpt>
      <trkpt lat="50.78533" lon="2.88217">
        <ele>80.5</ele>
        <time>2020-06-23T15:42:32Z</time>
      </trkpt>
      <trkpt lat="50.78535" lon="2.88225">
        <ele>80.3</ele>
        <time>2020-06-23T15:42:33Z</time>
      </trkpt>
      <trkpt lat="50.78536" lon="2.88233">
        <ele>80.2</ele>
        <time>2020-06-23T15:42:34Z</time>
      </trkpt>
      <trkpt lat="50.78538" lon="2.88241">
        <ele>80</ele>
        <time>2020-06-23T15:42:35Z</time>
      </trkpt>
      <trkpt lat="50.7854" lon="2.88247">
        <ele>79.9</ele>
        <time>2020-06-23T15:42:36Z</time>
      </trkpt>
      <trkpt lat="50.78541" lon="2.88253">
        <ele>79.8</ele>
        <time>2020-06-23T15:42:37Z</time>
      </trkpt>
      <trkpt lat="50.78543" lon="2.88262">
        <ele>79.6</ele>
        <time>2020-06-23T15:42:38Z</time>
      </trkpt>
      <trkpt lat="50.78545" lon="2.88271">
        <ele>79.5</ele>
        <time>2020-06-23T15:42:39Z</time>
      </trkpt>
      <trkpt lat="50.78546" lon="2.88277">
        <ele>79.4</ele>
        <time>2020-06-23T15:42:40Z</time>
      </trkpt>
      <trkpt lat="50.78547" lon="2.88283">
        <ele>79.3</ele>
        <time>2020-06-23T15:42:41Z</time>
      </trkpt>
      <trkpt lat="50.78548" lon="2.8829">
        <ele>79.2</ele>
        <time>2020-06-23T15:42:42Z</time>
      </trkpt>
      <trkpt lat="50.78549" lon="2.88297">
        <ele>79.1</ele>
        <time>2020-06-23T15:42:43Z</time>
      </trkpt>
      <trkpt lat="50.7855" lon="2.88304">
        <ele>79</ele>
        <time>2020-06-23T15:42:44Z</time>
      </trkpt>
      <trkpt lat="50.78552" lon="2.88313">
        <ele>78.9</ele>
        <time>2020-06-23T15:42:45Z</time>
      </trkpt>
      <trkpt lat="50.78553" lon="2.88322">
        <ele>78.7</ele>
        <time>2020-06-23T15:42:46Z</time>
      </trkpt>
      <trkpt lat="50.78555" lon="2.88328">
        <ele>78.7</ele>
        <time>2020-06-23T15:42:47Z</time>
      </trkpt>
      <trkpt lat="50.78557" lon="2.88335">
        <ele>78.5</ele>
        <time>2020-06-23T15:42:48Z</time>
      </trkpt>
      <trkpt lat="50.78558" lon="2.88342">
        <ele>78.4</ele>
        <time>2020-06-23T15:42:49Z</time>
      </trkpt>
      <trkpt lat="50.7856" lon="2.88351">
        <ele>78.3</ele>
        <time>2020-06-23T15:42:50Z</time>
      </trkpt>
      <trkpt lat="50.7856" lon="2.88359">
        <ele>78.1</ele>
        <time>2020-06-23T15:42:51Z</time>
      </trkpt>
      <trkpt lat="50.78559" lon="2.88366">
        <ele>77.9</ele>
        <time>2020-06-23T15:42:52Z</time>
      </trkpt>
      <trkpt lat="50.78559" lon="2.88372">
        <ele>77.7</ele>
        <time>2020-06-23T15:42:53Z</time>
      </trkpt>
      <trkpt lat="50.78558" lon="2.88378">
        <ele>77.5</ele>
        <time>2020-06-23T15:42:54Z</time>
      </trkpt>
      <trkpt lat="50.78556" lon="2.88387">
        <ele>77.2</ele>
        <time>2020-06-23T15:42:55Z</time>
      </trkpt>
      <trkpt lat="50.78553" lon="2.88394">
        <ele>77</ele>
        <time>2020-06-23T15:42:56Z</time>
      </trkpt>
      <trkpt lat="50.78553" lon="2.88404">
        <ele>76.7</ele>
        <time>2020-06-23T15:42:57Z</time>
      </trkpt>
      <trkpt lat="50.78551" lon="2.88413">
        <ele>76.4</ele>
        <time>2020-06-23T15:42:58Z</time>
      </trkpt>
      <trkpt lat="50.78549" lon="2.88422">
        <ele>76.1</ele>
        <time>2020-06-23T15:42:59Z</time>
      </trkpt>
      <trkpt lat="50.78547" lon="2.88433">
        <ele>75.8</ele>
        <time>2020-06-23T15:43:00Z</time>
      </trkpt>
      <trkpt lat="50.78545" lon="2.88445">
        <ele>75.5</ele>
        <time>2020-06-23T15:43:01Z</time>
      </trkpt>
      <trkpt lat="50.78544" lon="2.88453">
        <ele>75.3</ele>
        <time>2020-06-23T15:43:02Z</time>
      </trkpt>
      <trkpt lat="50.78541" lon="2.88461">
        <ele>75.1</ele>
        <time>2020-06-23T15:43:03Z</time>
      </trkpt>
      <trkpt lat="50.78537" lon="2.8847">
        <ele>74.9</ele>
        <time>2020-06-23T15:43:04Z</time>
      </trkpt>
      <trkpt lat="50.78534" lon="2.88478">
        <ele>74.7</ele>
        <time>2020-06-23T15:43:05Z</time>
      </trkpt>
      <trkpt lat="50.78531" lon="2.88487">
        <ele>74.5</ele>
        <time>2020-06-23T15:43:06Z</time>
      </trkpt>
      <trkpt lat="50.78529" lon="2.885">
        <ele>74.3</ele>
        <time>2020-06-23T15:43:07Z</time>
      </trkpt>
      <trkpt lat="50.78526" lon="2.88512">
        <ele>74</ele>
        <time>2020-06-23T15:43:08Z</time>
      </trkpt>
      <trkpt lat="50.78525" lon="2.88523">
        <ele>73.8</ele>
        <time>2020-06-23T15:43:09Z</time>
      </trkpt>
      <trkpt lat="50.78523" lon="2.88535">
        <ele>73.5</ele>
        <time>2020-06-23T15:43:10Z</time>
      </trkpt>
      <trkpt lat="50.78521" lon="2.88549">
        <ele>73.1</ele>
        <time>2020-06-23T15:43:11Z</time>
      </trkpt>
      <trkpt lat="50.78519" lon="2.88561">
        <ele>72.9</ele>
        <time>2020-06-23T15:43:12Z</time>
      </trkpt>
      <trkpt lat="50.78517" lon="2.88573">
        <ele>72.7</ele>
        <time>2020-06-23T15:43:13Z</time>
      </trkpt>
      <trkpt lat="50.78516" lon="2.88582">
        <ele>72.7</ele>
        <time>2020-06-23T15:43:14Z</time>
      </trkpt>
      <trkpt lat="50.78513" lon="2.88592">
        <ele>72.5</ele>
        <time>2020-06-23T15:43:15Z</time>
      </trkpt>
      <trkpt lat="50.78511" lon="2.88601">
        <ele>72.4</ele>
        <time>2020-06-23T15:43:16Z</time>
      </trkpt>
      <trkpt lat="50.78509" lon="2.88612">
        <ele>72.2</ele>
        <time>2020-06-23T15:43:17Z</time>
      </trkpt>
      <trkpt lat="50.78507" lon="2.88623">
        <ele>72</ele>
        <time>2020-06-23T15:43:18Z</time>
      </trkpt>
      <trkpt lat="50.78504" lon="2.88633">
        <ele>71.9</ele>
        <time>2020-06-23T15:43:19Z</time>
      </trkpt>
      <trkpt lat="50.78502" lon="2.88645">
        <ele>71.7</ele>
        <time>2020-06-23T15:43:20Z</time>
      </trkpt>
      <trkpt lat="50.785" lon="2.88655">
        <ele>71.5</ele>
        <time>2020-06-23T15:43:21Z</time>
      </trkpt>
      <trkpt lat="50.78498" lon="2.88663">
        <ele>71.4</ele>
        <time>2020-06-23T15:43:22Z</time>
      </trkpt>
      <trkpt lat="50.78495" lon="2.88672">
        <ele>71.3</ele>
        <time>2020-06-23T15:43:23Z</time>
      </trkpt>
      <trkpt lat="50.78494" lon="2.88677">
        <ele>71.2</ele>
        <time>2020-06-23T15:43:24Z</time>
      </trkpt>
      <trkpt lat="50.78493" lon="2.88682">
        <ele>71.2</ele>
        <time>2020-06-23T15:43:25Z</time>
      </trkpt>
      <trkpt lat="50.78493" lon="2.88687">
        <ele>71.2</ele>
        <time>2020-06-23T15:43:26Z</time>
      </trkpt>
      <trkpt lat="50.7849" lon="2.88691">
        <ele>71.1</ele>
        <time>2020-06-23T15:43:27Z</time>
      </trkpt>
      <trkpt lat="50.78489" lon="2.88693">
        <ele>71.1</ele>
        <time>2020-06-23T15:43:28Z</time>
      </trkpt>
      <trkpt lat="50.78487" lon="2.88696">
        <ele>71</ele>
        <time>2020-06-23T15:43:29Z</time>
      </trkpt>
      <trkpt lat="50.78482" lon="2.88695">
        <ele>70.9</ele>
        <time>2020-06-23T15:43:30Z</time>
      </trkpt>
      <trkpt lat="50.78476" lon="2.88694">
        <ele>70.7</ele>
        <time>2020-06-23T15:43:31Z</time>
      </trkpt>
      <trkpt lat="50.78468" lon="2.88694">
        <ele>70.5</ele>
        <time>2020-06-23T15:43:32Z</time>
      </trkpt>
      <trkpt lat="50.78461" lon="2.88693">
        <ele>70.3</ele>
        <time>2020-06-23T15:43:33Z</time>
      </trkpt>
      <trkpt lat="50.78455" lon="2.88694">
        <ele>70.1</ele>
        <time>2020-06-23T15:43:34Z</time>
      </trkpt>
      <trkpt lat="50.78449" lon="2.88695">
        <ele>69.9</ele>
        <time>2020-06-23T15:43:35Z</time>
      </trkpt>
      <trkpt lat="50.78443" lon="2.88696">
        <ele>69.7</ele>
        <time>2020-06-23T15:43:36Z</time>
      </trkpt>
      <trkpt lat="50.78436" lon="2.88698">
        <ele>69.6</ele>
        <time>2020-06-23T15:43:37Z</time>
      </trkpt>
      <trkpt lat="50.7843" lon="2.88699">
        <ele>69.4</ele>
        <time>2020-06-23T15:43:38Z</time>
      </trkpt>
      <trkpt lat="50.78423" lon="2.887">
        <ele>69.3</ele>
        <time>2020-06-23T15:43:39Z</time>
      </trkpt>
      <trkpt lat="50.78416" lon="2.88701">
        <ele>69.2</ele>
        <time>2020-06-23T15:43:40Z</time>
      </trkpt>
      <trkpt lat="50.7841" lon="2.88704">
        <ele>69</ele>
        <time>2020-06-23T15:43:41Z</time>
      </trkpt>
      <trkpt lat="50.78403" lon="2.88707">
        <ele>68.8</ele>
        <time>2020-06-23T15:43:42Z</time>
      </trkpt>
      <trkpt lat="50.78397" lon="2.88708">
        <ele>68.7</ele>
        <time>2020-06-23T15:43:43Z</time>
      </trkpt>
      <trkpt lat="50.7839" lon="2.8871">
        <ele>68.5</ele>
        <time>2020-06-23T15:43:44Z</time>
      </trkpt>
      <trkpt lat="50.78383" lon="2.88711">
        <ele>68.4</ele>
        <time>2020-06-23T15:43:45Z</time>
      </trkpt>
      <trkpt lat="50.78376" lon="2.88712">
        <ele>68.3</ele>
        <time>2020-06-23T15:43:46Z</time>
      </trkpt>
      <trkpt lat="50.7837" lon="2.88713">
        <ele>68.2</ele>
        <time>2020-06-23T15:43:47Z</time>
      </trkpt>
      <trkpt lat="50.78364" lon="2.88715">
        <ele>68.1</ele>
        <time>2020-06-23T15:43:48Z</time>
      </trkpt>
      <trkpt lat="50.78357" lon="2.88716">
        <ele>68.1</ele>
        <time>2020-06-23T15:43:49Z</time>
      </trkpt>
      <trkpt lat="50.78351" lon="2.88718">
        <ele>68</ele>
        <time>2020-06-23T15:43:50Z</time>
      </trkpt>
      <trkpt lat="50.78344" lon="2.88721">
        <ele>67.9</ele>
        <time>2020-06-23T15:43:51Z</time>
      </trkpt>
      <trkpt lat="50.78338" lon="2.88723">
        <ele>67.8</ele>
        <time>2020-06-23T15:43:52Z</time>
      </trkpt>
      <trkpt lat="50.78332" lon="2.88726">
        <ele>67.7</ele>
        <time>2020-06-23T15:43:53Z</time>
      </trkpt>
      <trkpt lat="50.78325" lon="2.88728">
        <ele>67.7</ele>
        <time>2020-06-23T15:43:54Z</time>
      </trkpt>
      <trkpt lat="50.78318" lon="2.88731">
        <ele>67.6</ele>
        <time>2020-06-23T15:43:55Z</time>
      </trkpt>
      <trkpt lat="50.78312" lon="2.88732">
        <ele>67.5</ele>
        <time>2020-06-23T15:43:56Z</time>
      </trkpt>
      <trkpt lat="50.78305" lon="2.88734">
        <ele>67.4</ele>
        <time>2020-06-23T15:43:57Z</time>
      </trkpt>
      <trkpt lat="50.78298" lon="2.88736">
        <ele>67.3</ele>
        <time>2020-06-23T15:43:58Z</time>
      </trkpt>
      <trkpt lat="50.78292" lon="2.88738">
        <ele>67.3</ele>
        <time>2020-06-23T15:43:59Z</time>
      </trkpt>
      <trkpt lat="50.78285" lon="2.88741">
        <ele>67.2</ele>
        <time>2020-06-23T15:44:00Z</time>
      </trkpt>
      <trkpt lat="50.78279" lon="2.88743">
        <ele>67.2</ele>
        <time>2020-06-23T15:44:01Z</time>
      </trkpt>
      <trkpt lat="50.78272" lon="2.88745">
        <ele>67.1</ele>
        <time>2020-06-23T15:44:02Z</time>
      </trkpt>
      <trkpt lat="50.78266" lon="2.88746">
        <ele>67.1</ele>
        <time>2020-06-23T15:44:03Z</time>
      </trkpt>
      <trkpt lat="50.7826" lon="2.88747">
        <ele>67</ele>
        <time>2020-06-23T15:44:04Z</time>
      </trkpt>
      <trkpt lat="50.78254" lon="2.88748">
        <ele>67</ele>
        <time>2020-06-23T15:44:05Z</time>
      </trkpt>
      <trkpt lat="50.78249" lon="2.88747">
        <ele>66.9</ele>
        <time>2020-06-23T15:44:06Z</time>
      </trkpt>
      <trkpt lat="50.78244" lon="2.88747">
        <ele>66.9</ele>
        <time>2020-06-23T15:44:07Z</time>
      </trkpt>
      <trkpt lat="50.78239" lon="2.8875">
        <ele>66.8</ele>
        <time>2020-06-23T15:44:08Z</time>
      </trkpt>
      <trkpt lat="50.78233" lon="2.88753">
        <ele>66.7</ele>
        <time>2020-06-23T15:44:09Z</time>
      </trkpt>
      <trkpt lat="50.78226" lon="2.88754">
        <ele>66.6</ele>
        <time>2020-06-23T15:44:10Z</time>
      </trkpt>
      <trkpt lat="50.7822" lon="2.88755">
        <ele>66.6</ele>
        <time>2020-06-23T15:44:11Z</time>
      </trkpt>
      <trkpt lat="50.78213" lon="2.88757">
        <ele>66.5</ele>
        <time>2020-06-23T15:44:12Z</time>
      </trkpt>
      <trkpt lat="50.78207" lon="2.88759">
        <ele>66.4</ele>
        <time>2020-06-23T15:44:13Z</time>
      </trkpt>
      <trkpt lat="50.782" lon="2.8876">
        <ele>66.3</ele>
        <time>2020-06-23T15:44:14Z</time>
      </trkpt>
      <trkpt lat="50.78193" lon="2.88762">
        <ele>66.2</ele>
        <time>2020-06-23T15:44:15Z</time>
      </trkpt>
      <trkpt lat="50.78186" lon="2.88763">
        <ele>66.1</ele>
        <time>2020-06-23T15:44:16Z</time>
      </trkpt>
      <trkpt lat="50.78179" lon="2.88765">
        <ele>66.1</ele>
        <time>2020-06-23T15:44:17Z</time>
      </trkpt>
      <trkpt lat="50.78172" lon="2.88767">
        <ele>66.1</ele>
        <time>2020-06-23T15:44:18Z</time>
      </trkpt>
      <trkpt lat="50.78165" lon="2.88769">
        <ele>66.1</ele>
        <time>2020-06-23T15:44:19Z</time>
      </trkpt>
      <trkpt lat="50.78158" lon="2.88772">
        <ele>66</ele>
        <time>2020-06-23T15:44:20Z</time>
      </trkpt>
      <trkpt lat="50.78152" lon="2.88777">
        <ele>65.9</ele>
        <time>2020-06-23T15:44:21Z</time>
      </trkpt>
      <trkpt lat="50.78145" lon="2.88782">
        <ele>65.9</ele>
        <time>2020-06-23T15:44:22Z</time>
      </trkpt>
      <trkpt lat="50.78138" lon="2.88786">
        <ele>65.8</ele>
        <time>2020-06-23T15:44:23Z</time>
      </trkpt>
      <trkpt lat="50.78132" lon="2.88792">
        <ele>65.7</ele>
        <time>2020-06-23T15:44:24Z</time>
      </trkpt>
      <trkpt lat="50.78125" lon="2.88798">
        <ele>65.7</ele>
        <time>2020-06-23T15:44:25Z</time>
      </trkpt>
      <trkpt lat="50.78119" lon="2.88803">
        <ele>65.6</ele>
        <time>2020-06-23T15:44:26Z</time>
      </trkpt>
      <trkpt lat="50.78113" lon="2.88808">
        <ele>65.6</ele>
        <time>2020-06-23T15:44:27Z</time>
      </trkpt>
      <trkpt lat="50.78107" lon="2.88811">
        <ele>65.7</ele>
        <time>2020-06-23T15:44:28Z</time>
      </trkpt>
      <trkpt lat="50.78101" lon="2.88815">
        <ele>65.7</ele>
        <time>2020-06-23T15:44:29Z</time>
      </trkpt>
      <trkpt lat="50.78095" lon="2.88818">
        <ele>65.7</ele>
        <time>2020-06-23T15:44:30Z</time>
      </trkpt>
      <trkpt lat="50.78089" lon="2.88821">
        <ele>65.7</ele>
        <time>2020-06-23T15:44:31Z</time>
      </trkpt>
      <trkpt lat="50.78083" lon="2.88823">
        <ele>65.6</ele>
        <time>2020-06-23T15:44:32Z</time>
      </trkpt>
      <trkpt lat="50.78077" lon="2.88826">
        <ele>65.6</ele>
        <time>2020-06-23T15:44:33Z</time>
      </trkpt>
      <trkpt lat="50.78071" lon="2.88828">
        <ele>65.5</ele>
        <time>2020-06-23T15:44:34Z</time>
      </trkpt>
      <trkpt lat="50.78065" lon="2.88832">
        <ele>65.5</ele>
        <time>2020-06-23T15:44:35Z</time>
      </trkpt>
      <trkpt lat="50.78059" lon="2.88836">
        <ele>65.4</ele>
        <time>2020-06-23T15:44:36Z</time>
      </trkpt>
      <trkpt lat="50.78052" lon="2.8884">
        <ele>65.4</ele>
        <time>2020-06-23T15:44:37Z</time>
      </trkpt>
      <trkpt lat="50.78045" lon="2.88843">
        <ele>65.4</ele>
        <time>2020-06-23T15:44:38Z</time>
      </trkpt>
      <trkpt lat="50.78039" lon="2.88846">
        <ele>65.4</ele>
        <time>2020-06-23T15:44:39Z</time>
      </trkpt>
      <trkpt lat="50.78033" lon="2.8885">
        <ele>65.5</ele>
        <time>2020-06-23T15:44:40Z</time>
      </trkpt>
      <trkpt lat="50.78027" lon="2.88854">
        <ele>65.5</ele>
        <time>2020-06-23T15:44:41Z</time>
      </trkpt>
      <trkpt lat="50.78021" lon="2.88859">
        <ele>65.5</ele>
        <time>2020-06-23T15:44:42Z</time>
      </trkpt>
      <trkpt lat="50.78014" lon="2.88862">
        <ele>65.5</ele>
        <time>2020-06-23T15:44:43Z</time>
      </trkpt>
      <trkpt lat="50.78007" lon="2.88865">
        <ele>65.5</ele>
        <time>2020-06-23T15:44:44Z</time>
      </trkpt>
      <trkpt lat="50.78001" lon="2.88868">
        <ele>65.5</ele>
        <time>2020-06-23T15:44:45Z</time>
      </trkpt>
      <trkpt lat="50.77995" lon="2.88872">
        <ele>65.5</ele>
        <time>2020-06-23T15:44:46Z</time>
      </trkpt>
      <trkpt lat="50.77988" lon="2.88876">
        <ele>65.5</ele>
        <time>2020-06-23T15:44:47Z</time>
      </trkpt>
      <trkpt lat="50.77982" lon="2.88879">
        <ele>65.5</ele>
        <time>2020-06-23T15:44:48Z</time>
      </trkpt>
      <trkpt lat="50.77976" lon="2.88881">
        <ele>65.6</ele>
        <time>2020-06-23T15:44:49Z</time>
      </trkpt>
      <trkpt lat="50.77971" lon="2.88886">
        <ele>65.6</ele>
        <time>2020-06-23T15:44:50Z</time>
      </trkpt>
      <trkpt lat="50.77965" lon="2.8889">
        <ele>65.6</ele>
        <time>2020-06-23T15:44:51Z</time>
      </trkpt>
      <trkpt lat="50.77959" lon="2.88893">
        <ele>65.6</ele>
        <time>2020-06-23T15:44:52Z</time>
      </trkpt>
      <trkpt lat="50.77952" lon="2.88894">
        <ele>65.6</ele>
        <time>2020-06-23T15:44:53Z</time>
      </trkpt>
      <trkpt lat="50.77946" lon="2.88898">
        <ele>65.6</ele>
        <time>2020-06-23T15:44:54Z</time>
      </trkpt>
      <trkpt lat="50.7794" lon="2.88901">
        <ele>65.6</ele>
        <time>2020-06-23T15:44:55Z</time>
      </trkpt>
      <trkpt lat="50.77933" lon="2.88903">
        <ele>65.6</ele>
        <time>2020-06-23T15:44:56Z</time>
      </trkpt>
      <trkpt lat="50.77927" lon="2.88906">
        <ele>65.5</ele>
        <time>2020-06-23T15:44:57Z</time>
      </trkpt>
      <trkpt lat="50.7792" lon="2.88909">
        <ele>65.5</ele>
        <time>2020-06-23T15:44:58Z</time>
      </trkpt>
      <trkpt lat="50.77914" lon="2.88913">
        <ele>65.5</ele>
        <time>2020-06-23T15:44:59Z</time>
      </trkpt>
      <trkpt lat="50.77908" lon="2.88916">
        <ele>65.4</ele>
        <time>2020-06-23T15:45:00Z</time>
      </trkpt>
      <trkpt lat="50.77902" lon="2.8892">
        <ele>65.4</ele>
        <time>2020-06-23T15:45:01Z</time>
      </trkpt>
      <trkpt lat="50.77896" lon="2.88925">
        <ele>65.4</ele>
        <time>2020-06-23T15:45:02Z</time>
      </trkpt>
      <trkpt lat="50.77891" lon="2.8893">
        <ele>65.4</ele>
        <time>2020-06-23T15:45:03Z</time>
      </trkpt>
      <trkpt lat="50.77885" lon="2.88935">
        <ele>65.4</ele>
        <time>2020-06-23T15:45:04Z</time>
      </trkpt>
      <trkpt lat="50.77879" lon="2.8894">
        <ele>65.3</ele>
        <time>2020-06-23T15:45:05Z</time>
      </trkpt>
      <trkpt lat="50.77872" lon="2.88944">
        <ele>65.3</ele>
        <time>2020-06-23T15:45:06Z</time>
      </trkpt>
      <trkpt lat="50.77866" lon="2.88948">
        <ele>65.2</ele>
        <time>2020-06-23T15:45:07Z</time>
      </trkpt>
      <trkpt lat="50.77859" lon="2.88952">
        <ele>65.2</ele>
        <time>2020-06-23T15:45:08Z</time>
      </trkpt>
      <trkpt lat="50.77853" lon="2.88955">
        <ele>65.1</ele>
        <time>2020-06-23T15:45:09Z</time>
      </trkpt>
      <trkpt lat="50.77846" lon="2.8896">
        <ele>65.1</ele>
        <time>2020-06-23T15:45:10Z</time>
      </trkpt>
      <trkpt lat="50.7784" lon="2.88964">
        <ele>65</ele>
        <time>2020-06-23T15:45:11Z</time>
      </trkpt>
      <trkpt lat="50.77833" lon="2.88969">
        <ele>64.9</ele>
        <time>2020-06-23T15:45:12Z</time>
      </trkpt>
      <trkpt lat="50.77826" lon="2.88972">
        <ele>64.9</ele>
        <time>2020-06-23T15:45:13Z</time>
      </trkpt>
      <trkpt lat="50.77819" lon="2.88976">
        <ele>64.9</ele>
        <time>2020-06-23T15:45:14Z</time>
      </trkpt>
      <trkpt lat="50.77812" lon="2.8898">
        <ele>64.9</ele>
        <time>2020-06-23T15:45:15Z</time>
      </trkpt>
      <trkpt lat="50.77805" lon="2.88984">
        <ele>64.8</ele>
        <time>2020-06-23T15:45:16Z</time>
      </trkpt>
      <trkpt lat="50.77799" lon="2.88988">
        <ele>64.8</ele>
        <time>2020-06-23T15:45:17Z</time>
      </trkpt>
      <trkpt lat="50.77792" lon="2.88992">
        <ele>64.8</ele>
        <time>2020-06-23T15:45:18Z</time>
      </trkpt>
      <trkpt lat="50.77785" lon="2.88996">
        <ele>64.8</ele>
        <time>2020-06-23T15:45:19Z</time>
      </trkpt>
      <trkpt lat="50.77779" lon="2.89">
        <ele>64.8</ele>
        <time>2020-06-23T15:45:20Z</time>
      </trkpt>
      <trkpt lat="50.77772" lon="2.89003">
        <ele>64.8</ele>
        <time>2020-06-23T15:45:21Z</time>
      </trkpt>
      <trkpt lat="50.77766" lon="2.89008">
        <ele>64.8</ele>
        <time>2020-06-23T15:45:22Z</time>
      </trkpt>
      <trkpt lat="50.7776" lon="2.89011">
        <ele>64.8</ele>
        <time>2020-06-23T15:45:23Z</time>
      </trkpt>
      <trkpt lat="50.77753" lon="2.89016">
        <ele>64.8</ele>
        <time>2020-06-23T15:45:24Z</time>
      </trkpt>
      <trkpt lat="50.77747" lon="2.8902">
        <ele>64.8</ele>
        <time>2020-06-23T15:45:25Z</time>
      </trkpt>
      <trkpt lat="50.77741" lon="2.89023">
        <ele>64.8</ele>
        <time>2020-06-23T15:45:26Z</time>
      </trkpt>
      <trkpt lat="50.77734" lon="2.89027">
        <ele>64.7</ele>
        <time>2020-06-23T15:45:27Z</time>
      </trkpt>
      <trkpt lat="50.77728" lon="2.89031">
        <ele>64.7</ele>
        <time>2020-06-23T15:45:28Z</time>
      </trkpt>
      <trkpt lat="50.77722" lon="2.89035">
        <ele>64.7</ele>
        <time>2020-06-23T15:45:29Z</time>
      </trkpt>
      <trkpt lat="50.77715" lon="2.89039">
        <ele>64.7</ele>
        <time>2020-06-23T15:45:30Z</time>
      </trkpt>
      <trkpt lat="50.77709" lon="2.89042">
        <ele>64.7</ele>
        <time>2020-06-23T15:45:31Z</time>
      </trkpt>
      <trkpt lat="50.77702" lon="2.89046">
        <ele>64.7</ele>
        <time>2020-06-23T15:45:32Z</time>
      </trkpt>
      <trkpt lat="50.77696" lon="2.8905">
        <ele>64.7</ele>
        <time>2020-06-23T15:45:33Z</time>
      </trkpt>
      <trkpt lat="50.7769" lon="2.89054">
        <ele>64.6</ele>
        <time>2020-06-23T15:45:34Z</time>
      </trkpt>
      <trkpt lat="50.77684" lon="2.89058">
        <ele>64.6</ele>
        <time>2020-06-23T15:45:35Z</time>
      </trkpt>
      <trkpt lat="50.77678" lon="2.89061">
        <ele>64.6</ele>
        <time>2020-06-23T15:45:36Z</time>
      </trkpt>
      <trkpt lat="50.77672" lon="2.89064">
        <ele>64.6</ele>
        <time>2020-06-23T15:45:37Z</time>
      </trkpt>
      <trkpt lat="50.77665" lon="2.89068">
        <ele>64.6</ele>
        <time>2020-06-23T15:45:38Z</time>
      </trkpt>
      <trkpt lat="50.77659" lon="2.89071">
        <ele>64.6</ele>
        <time>2020-06-23T15:45:39Z</time>
      </trkpt>
      <trkpt lat="50.77652" lon="2.89075">
        <ele>64.5</ele>
        <time>2020-06-23T15:45:40Z</time>
      </trkpt>
      <trkpt lat="50.77646" lon="2.89078">
        <ele>64.5</ele>
        <time>2020-06-23T15:45:41Z</time>
      </trkpt>
      <trkpt lat="50.7764" lon="2.89082">
        <ele>64.5</ele>
        <time>2020-06-23T15:45:42Z</time>
      </trkpt>
      <trkpt lat="50.77634" lon="2.89086">
        <ele>64.5</ele>
        <time>2020-06-23T15:45:43Z</time>
      </trkpt>
      <trkpt lat="50.77627" lon="2.8909">
        <ele>64.5</ele>
        <time>2020-06-23T15:45:44Z</time>
      </trkpt>
      <trkpt lat="50.7762" lon="2.89094">
        <ele>64.4</ele>
        <time>2020-06-23T15:45:45Z</time>
      </trkpt>
      <trkpt lat="50.77613" lon="2.89098">
        <ele>64.4</ele>
        <time>2020-06-23T15:45:46Z</time>
      </trkpt>
      <trkpt lat="50.77607" lon="2.89102">
        <ele>64.4</ele>
        <time>2020-06-23T15:45:47Z</time>
      </trkpt>
      <trkpt lat="50.776" lon="2.89106">
        <ele>64.3</ele>
        <time>2020-06-23T15:45:48Z</time>
      </trkpt>
      <trkpt lat="50.77594" lon="2.8911">
        <ele>64.3</ele>
        <time>2020-06-23T15:45:49Z</time>
      </trkpt>
      <trkpt lat="50.77587" lon="2.89114">
        <ele>64.2</ele>
        <time>2020-06-23T15:45:50Z</time>
      </trkpt>
      <trkpt lat="50.7758" lon="2.89117">
        <ele>64.2</ele>
        <time>2020-06-23T15:45:51Z</time>
      </trkpt>
      <trkpt lat="50.77574" lon="2.89121">
        <ele>64.1</ele>
        <time>2020-06-23T15:45:52Z</time>
      </trkpt>
      <trkpt lat="50.77567" lon="2.89124">
        <ele>64.1</ele>
        <time>2020-06-23T15:45:53Z</time>
      </trkpt>
      <trkpt lat="50.7756" lon="2.89128">
        <ele>64</ele>
        <time>2020-06-23T15:45:54Z</time>
      </trkpt>
      <trkpt lat="50.77553" lon="2.89132">
        <ele>64.1</ele>
        <time>2020-06-23T15:45:55Z</time>
      </trkpt>
      <trkpt lat="50.77547" lon="2.89136">
        <ele>64.2</ele>
        <time>2020-06-23T15:45:56Z</time>
      </trkpt>
      <trkpt lat="50.7754" lon="2.8914">
        <ele>64.1</ele>
        <time>2020-06-23T15:45:57Z</time>
      </trkpt>
      <trkpt lat="50.77533" lon="2.89144">
        <ele>63.8</ele>
        <time>2020-06-23T15:45:58Z</time>
      </trkpt>
      <trkpt lat="50.77526" lon="2.89147">
        <ele>63.6</ele>
        <time>2020-06-23T15:45:59Z</time>
      </trkpt>
      <trkpt lat="50.77519" lon="2.89152">
        <ele>63.4</ele>
        <time>2020-06-23T15:46:00Z</time>
      </trkpt>
      <trkpt lat="50.77512" lon="2.89156">
        <ele>63.3</ele>
        <time>2020-06-23T15:46:01Z</time>
      </trkpt>
      <trkpt lat="50.77505" lon="2.8916">
        <ele>63.2</ele>
        <time>2020-06-23T15:46:02Z</time>
      </trkpt>
      <trkpt lat="50.77498" lon="2.89164">
        <ele>63.1</ele>
        <time>2020-06-23T15:46:03Z</time>
      </trkpt>
      <trkpt lat="50.77491" lon="2.89167">
        <ele>63</ele>
        <time>2020-06-23T15:46:04Z</time>
      </trkpt>
      <trkpt lat="50.77484" lon="2.89171">
        <ele>62.9</ele>
        <time>2020-06-23T15:46:05Z</time>
      </trkpt>
      <trkpt lat="50.77477" lon="2.89174">
        <ele>62.9</ele>
        <time>2020-06-23T15:46:06Z</time>
      </trkpt>
      <trkpt lat="50.7747" lon="2.89177">
        <ele>62.9</ele>
        <time>2020-06-23T15:46:07Z</time>
      </trkpt>
      <trkpt lat="50.77463" lon="2.89181">
        <ele>62.8</ele>
        <time>2020-06-23T15:46:08Z</time>
      </trkpt>
      <trkpt lat="50.77456" lon="2.89184">
        <ele>62.9</ele>
        <time>2020-06-23T15:46:09Z</time>
      </trkpt>
      <trkpt lat="50.77449" lon="2.89188">
        <ele>62.9</ele>
        <time>2020-06-23T15:46:10Z</time>
      </trkpt>
      <trkpt lat="50.77443" lon="2.89192">
        <ele>62.9</ele>
        <time>2020-06-23T15:46:11Z</time>
      </trkpt>
      <trkpt lat="50.77436" lon="2.89195">
        <ele>63</ele>
        <time>2020-06-23T15:46:12Z</time>
      </trkpt>
      <trkpt lat="50.7743" lon="2.89198">
        <ele>63</ele>
        <time>2020-06-23T15:46:13Z</time>
      </trkpt>
      <trkpt lat="50.77423" lon="2.89201">
        <ele>63</ele>
        <time>2020-06-23T15:46:14Z</time>
      </trkpt>
      <trkpt lat="50.77416" lon="2.89204">
        <ele>63</ele>
        <time>2020-06-23T15:46:15Z</time>
      </trkpt>
      <trkpt lat="50.7741" lon="2.89207">
        <ele>63</ele>
        <time>2020-06-23T15:46:16Z</time>
      </trkpt>
      <trkpt lat="50.77403" lon="2.89211">
        <ele>63</ele>
        <time>2020-06-23T15:46:17Z</time>
      </trkpt>
      <trkpt lat="50.77397" lon="2.89215">
        <ele>63</ele>
        <time>2020-06-23T15:46:18Z</time>
      </trkpt>
      <trkpt lat="50.7739" lon="2.89218">
        <ele>63</ele>
        <time>2020-06-23T15:46:19Z</time>
      </trkpt>
      <trkpt lat="50.77383" lon="2.89222">
        <ele>63</ele>
        <time>2020-06-23T15:46:20Z</time>
      </trkpt>
      <trkpt lat="50.77377" lon="2.89226">
        <ele>62.9</ele>
        <time>2020-06-23T15:46:21Z</time>
      </trkpt>
      <trkpt lat="50.77371" lon="2.89232">
        <ele>62.8</ele>
        <time>2020-06-23T15:46:22Z</time>
      </trkpt>
      <trkpt lat="50.77364" lon="2.89236">
        <ele>62.7</ele>
        <time>2020-06-23T15:46:23Z</time>
      </trkpt>
      <trkpt lat="50.77358" lon="2.8924">
        <ele>62.6</ele>
        <time>2020-06-23T15:46:24Z</time>
      </trkpt>
      <trkpt lat="50.77351" lon="2.89244">
        <ele>62.5</ele>
        <time>2020-06-23T15:46:25Z</time>
      </trkpt>
      <trkpt lat="50.77345" lon="2.89249">
        <ele>62.4</ele>
        <time>2020-06-23T15:46:26Z</time>
      </trkpt>
      <trkpt lat="50.77338" lon="2.89253">
        <ele>62.3</ele>
        <time>2020-06-23T15:46:27Z</time>
      </trkpt>
      <trkpt lat="50.77332" lon="2.89257">
        <ele>62.3</ele>
        <time>2020-06-23T15:46:28Z</time>
      </trkpt>
      <trkpt lat="50.77325" lon="2.89261">
        <ele>62.2</ele>
        <time>2020-06-23T15:46:29Z</time>
      </trkpt>
      <trkpt lat="50.77318" lon="2.89265">
        <ele>62.2</ele>
        <time>2020-06-23T15:46:30Z</time>
      </trkpt>
      <trkpt lat="50.77311" lon="2.89269">
        <ele>62.1</ele>
        <time>2020-06-23T15:46:31Z</time>
      </trkpt>
      <trkpt lat="50.77304" lon="2.89273">
        <ele>62</ele>
        <time>2020-06-23T15:46:32Z</time>
      </trkpt>
      <trkpt lat="50.77297" lon="2.89277">
        <ele>62</ele>
        <time>2020-06-23T15:46:33Z</time>
      </trkpt>
      <trkpt lat="50.7729" lon="2.89282">
        <ele>61.9</ele>
        <time>2020-06-23T15:46:34Z</time>
      </trkpt>
      <trkpt lat="50.77283" lon="2.89286">
        <ele>61.8</ele>
        <time>2020-06-23T15:46:35Z</time>
      </trkpt>
      <trkpt lat="50.77276" lon="2.8929">
        <ele>61.7</ele>
        <time>2020-06-23T15:46:36Z</time>
      </trkpt>
      <trkpt lat="50.77269" lon="2.89295">
        <ele>61.7</ele>
        <time>2020-06-23T15:46:37Z</time>
      </trkpt>
      <trkpt lat="50.77261" lon="2.89299">
        <ele>61.7</ele>
        <time>2020-06-23T15:46:38Z</time>
      </trkpt>
      <trkpt lat="50.77254" lon="2.89303">
        <ele>61.6</ele>
        <time>2020-06-23T15:46:39Z</time>
      </trkpt>
      <trkpt lat="50.77247" lon="2.89308">
        <ele>61.6</ele>
        <time>2020-06-23T15:46:40Z</time>
      </trkpt>
      <trkpt lat="50.7724" lon="2.89312">
        <ele>61.5</ele>
        <time>2020-06-23T15:46:41Z</time>
      </trkpt>
      <trkpt lat="50.77233" lon="2.89316">
        <ele>61.5</ele>
        <time>2020-06-23T15:46:42Z</time>
      </trkpt>
      <trkpt lat="50.77226" lon="2.89321">
        <ele>61.5</ele>
        <time>2020-06-23T15:46:43Z</time>
      </trkpt>
      <trkpt lat="50.77219" lon="2.89325">
        <ele>61.5</ele>
        <time>2020-06-23T15:46:44Z</time>
      </trkpt>
      <trkpt lat="50.77212" lon="2.8933">
        <ele>61.5</ele>
        <time>2020-06-23T15:46:45Z</time>
      </trkpt>
      <trkpt lat="50.77205" lon="2.89334">
        <ele>61.4</ele>
        <time>2020-06-23T15:46:46Z</time>
      </trkpt>
      <trkpt lat="50.77198" lon="2.89339">
        <ele>61.3</ele>
        <time>2020-06-23T15:46:47Z</time>
      </trkpt>
      <trkpt lat="50.77191" lon="2.89343">
        <ele>61.3</ele>
        <time>2020-06-23T15:46:48Z</time>
      </trkpt>
      <trkpt lat="50.77184" lon="2.89347">
        <ele>61.2</ele>
        <time>2020-06-23T15:46:49Z</time>
      </trkpt>
      <trkpt lat="50.77177" lon="2.89352">
        <ele>61.2</ele>
        <time>2020-06-23T15:46:50Z</time>
      </trkpt>
      <trkpt lat="50.7717" lon="2.89357">
        <ele>61.2</ele>
        <time>2020-06-23T15:46:51Z</time>
      </trkpt>
      <trkpt lat="50.77163" lon="2.89361">
        <ele>61.2</ele>
        <time>2020-06-23T15:46:52Z</time>
      </trkpt>
      <trkpt lat="50.77156" lon="2.89366">
        <ele>61.1</ele>
        <time>2020-06-23T15:46:53Z</time>
      </trkpt>
      <trkpt lat="50.77149" lon="2.8937">
        <ele>61.1</ele>
        <time>2020-06-23T15:46:54Z</time>
      </trkpt>
      <trkpt lat="50.77142" lon="2.89374">
        <ele>61</ele>
        <time>2020-06-23T15:46:55Z</time>
      </trkpt>
      <trkpt lat="50.77135" lon="2.89378">
        <ele>61</ele>
        <time>2020-06-23T15:46:56Z</time>
      </trkpt>
      <trkpt lat="50.77129" lon="2.89383">
        <ele>61</ele>
        <time>2020-06-23T15:46:57Z</time>
      </trkpt>
      <trkpt lat="50.77123" lon="2.89386">
        <ele>61</ele>
        <time>2020-06-23T15:46:58Z</time>
      </trkpt>
      <trkpt lat="50.77116" lon="2.8939">
        <ele>61</ele>
        <time>2020-06-23T15:46:59Z</time>
      </trkpt>
      <trkpt lat="50.77109" lon="2.89394">
        <ele>61</ele>
        <time>2020-06-23T15:47:00Z</time>
      </trkpt>
      <trkpt lat="50.77102" lon="2.89399">
        <ele>61</ele>
        <time>2020-06-23T15:47:01Z</time>
      </trkpt>
      <trkpt lat="50.77095" lon="2.89404">
        <ele>60.9</ele>
        <time>2020-06-23T15:47:02Z</time>
      </trkpt>
      <trkpt lat="50.77088" lon="2.89407">
        <ele>60.9</ele>
        <time>2020-06-23T15:47:03Z</time>
      </trkpt>
      <trkpt lat="50.77081" lon="2.89411">
        <ele>61</ele>
        <time>2020-06-23T15:47:04Z</time>
      </trkpt>
      <trkpt lat="50.77074" lon="2.89415">
        <ele>61</ele>
        <time>2020-06-23T15:47:05Z</time>
      </trkpt>
      <trkpt lat="50.77067" lon="2.89419">
        <ele>61.1</ele>
        <time>2020-06-23T15:47:06Z</time>
      </trkpt>
      <trkpt lat="50.7706" lon="2.89424">
        <ele>61.2</ele>
        <time>2020-06-23T15:47:07Z</time>
      </trkpt>
      <trkpt lat="50.77054" lon="2.89428">
        <ele>61.3</ele>
        <time>2020-06-23T15:47:08Z</time>
      </trkpt>
      <trkpt lat="50.77047" lon="2.89432">
        <ele>61.4</ele>
        <time>2020-06-23T15:47:09Z</time>
      </trkpt>
      <trkpt lat="50.77041" lon="2.89437">
        <ele>61.5</ele>
        <time>2020-06-23T15:47:10Z</time>
      </trkpt>
      <trkpt lat="50.77034" lon="2.89441">
        <ele>61.5</ele>
        <time>2020-06-23T15:47:11Z</time>
      </trkpt>
      <trkpt lat="50.77028" lon="2.89445">
        <ele>61.5</ele>
        <time>2020-06-23T15:47:12Z</time>
      </trkpt>
      <trkpt lat="50.77022" lon="2.89449">
        <ele>61.5</ele>
        <time>2020-06-23T15:47:13Z</time>
      </trkpt>
      <trkpt lat="50.77015" lon="2.89453">
        <ele>61.5</ele>
        <time>2020-06-23T15:47:14Z</time>
      </trkpt>
      <trkpt lat="50.77009" lon="2.89458">
        <ele>61.5</ele>
        <time>2020-06-23T15:47:15Z</time>
      </trkpt>
      <trkpt lat="50.77003" lon="2.89462">
        <ele>61.6</ele>
        <time>2020-06-23T15:47:16Z</time>
      </trkpt>
      <trkpt lat="50.76997" lon="2.89466">
        <ele>61.6</ele>
        <time>2020-06-23T15:47:17Z</time>
      </trkpt>
      <trkpt lat="50.7699" lon="2.8947">
        <ele>61.7</ele>
        <time>2020-06-23T15:47:18Z</time>
      </trkpt>
      <trkpt lat="50.76984" lon="2.89474">
        <ele>61.7</ele>
        <time>2020-06-23T15:47:19Z</time>
      </trkpt>
      <trkpt lat="50.76978" lon="2.89478">
        <ele>61.7</ele>
        <time>2020-06-23T15:47:20Z</time>
      </trkpt>
      <trkpt lat="50.76972" lon="2.89481">
        <ele>61.8</ele>
        <time>2020-06-23T15:47:21Z</time>
      </trkpt>
      <trkpt lat="50.76966" lon="2.89484">
        <ele>61.8</ele>
        <time>2020-06-23T15:47:22Z</time>
      </trkpt>
      <trkpt lat="50.76959" lon="2.89487">
        <ele>61.8</ele>
        <time>2020-06-23T15:47:23Z</time>
      </trkpt>
      <trkpt lat="50.76953" lon="2.8949">
        <ele>61.9</ele>
        <time>2020-06-23T15:47:24Z</time>
      </trkpt>
      <trkpt lat="50.76947" lon="2.89493">
        <ele>61.9</ele>
        <time>2020-06-23T15:47:25Z</time>
      </trkpt>
      <trkpt lat="50.76941" lon="2.89496">
        <ele>61.9</ele>
        <time>2020-06-23T15:47:26Z</time>
      </trkpt>
      <trkpt lat="50.76935" lon="2.89499">
        <ele>61.9</ele>
        <time>2020-06-23T15:47:27Z</time>
      </trkpt>
      <trkpt lat="50.76929" lon="2.89502">
        <ele>62</ele>
        <time>2020-06-23T15:47:28Z</time>
      </trkpt>
      <trkpt lat="50.76923" lon="2.89503">
        <ele>62</ele>
        <time>2020-06-23T15:47:29Z</time>
      </trkpt>
      <trkpt lat="50.76917" lon="2.89506">
        <ele>62.1</ele>
        <time>2020-06-23T15:47:30Z</time>
      </trkpt>
      <trkpt lat="50.7691" lon="2.89508">
        <ele>62.1</ele>
        <time>2020-06-23T15:47:31Z</time>
      </trkpt>
      <trkpt lat="50.76904" lon="2.89511">
        <ele>62.2</ele>
        <time>2020-06-23T15:47:32Z</time>
      </trkpt>
      <trkpt lat="50.76898" lon="2.89514">
        <ele>62.3</ele>
        <time>2020-06-23T15:47:33Z</time>
      </trkpt>
      <trkpt lat="50.76891" lon="2.89517">
        <ele>62.3</ele>
        <time>2020-06-23T15:47:34Z</time>
      </trkpt>
      <trkpt lat="50.76885" lon="2.8952">
        <ele>62.5</ele>
        <time>2020-06-23T15:47:35Z</time>
      </trkpt>
      <trkpt lat="50.76878" lon="2.89523">
        <ele>62.5</ele>
        <time>2020-06-23T15:47:36Z</time>
      </trkpt>
      <trkpt lat="50.76872" lon="2.89526">
        <ele>62.5</ele>
        <time>2020-06-23T15:47:37Z</time>
      </trkpt>
      <trkpt lat="50.76866" lon="2.89527">
        <ele>62.6</ele>
        <time>2020-06-23T15:47:38Z</time>
      </trkpt>
      <trkpt lat="50.76859" lon="2.89529">
        <ele>62.6</ele>
        <time>2020-06-23T15:47:39Z</time>
      </trkpt>
      <trkpt lat="50.76854" lon="2.89532">
        <ele>62.6</ele>
        <time>2020-06-23T15:47:40Z</time>
      </trkpt>
      <trkpt lat="50.76848" lon="2.89535">
        <ele>62.7</ele>
        <time>2020-06-23T15:47:41Z</time>
      </trkpt>
      <trkpt lat="50.7684" lon="2.89539">
        <ele>62.7</ele>
        <time>2020-06-23T15:47:42Z</time>
      </trkpt>
      <trkpt lat="50.76833" lon="2.89543">
        <ele>62.7</ele>
        <time>2020-06-23T15:47:43Z</time>
      </trkpt>
      <trkpt lat="50.76827" lon="2.89547">
        <ele>62.7</ele>
        <time>2020-06-23T15:47:44Z</time>
      </trkpt>
      <trkpt lat="50.7682" lon="2.89552">
        <ele>62.7</ele>
        <time>2020-06-23T15:47:45Z</time>
      </trkpt>
      <trkpt lat="50.76814" lon="2.89557">
        <ele>62.7</ele>
        <time>2020-06-23T15:47:46Z</time>
      </trkpt>
      <trkpt lat="50.76808" lon="2.89562">
        <ele>62.7</ele>
        <time>2020-06-23T15:47:47Z</time>
      </trkpt>
      <trkpt lat="50.76802" lon="2.89567">
        <ele>62.8</ele>
        <time>2020-06-23T15:47:48Z</time>
      </trkpt>
      <trkpt lat="50.76797" lon="2.89571">
        <ele>62.8</ele>
        <time>2020-06-23T15:47:49Z</time>
      </trkpt>
      <trkpt lat="50.76791" lon="2.89576">
        <ele>62.9</ele>
        <time>2020-06-23T15:47:50Z</time>
      </trkpt>
      <trkpt lat="50.76786" lon="2.89579">
        <ele>63</ele>
        <time>2020-06-23T15:47:51Z</time>
      </trkpt>
      <trkpt lat="50.7678" lon="2.89581">
        <ele>63.1</ele>
        <time>2020-06-23T15:47:52Z</time>
      </trkpt>
      <trkpt lat="50.76773" lon="2.89584">
        <ele>63.1</ele>
        <time>2020-06-23T15:47:53Z</time>
      </trkpt>
      <trkpt lat="50.76767" lon="2.89587">
        <ele>63.2</ele>
        <time>2020-06-23T15:47:54Z</time>
      </trkpt>
      <trkpt lat="50.76761" lon="2.89589">
        <ele>63.2</ele>
        <time>2020-06-23T15:47:55Z</time>
      </trkpt>
      <trkpt lat="50.76756" lon="2.89593">
        <ele>63.2</ele>
        <time>2020-06-23T15:47:56Z</time>
      </trkpt>
      <trkpt lat="50.7675" lon="2.89596">
        <ele>63.3</ele>
        <time>2020-06-23T15:47:57Z</time>
      </trkpt>
      <trkpt lat="50.76745" lon="2.89599">
        <ele>63.3</ele>
        <time>2020-06-23T15:47:58Z</time>
      </trkpt>
      <trkpt lat="50.76739" lon="2.89603">
        <ele>63.4</ele>
        <time>2020-06-23T15:47:59Z</time>
      </trkpt>
      <trkpt lat="50.76733" lon="2.89607">
        <ele>63.4</ele>
        <time>2020-06-23T15:48:00Z</time>
      </trkpt>
      <trkpt lat="50.76727" lon="2.8961">
        <ele>63.5</ele>
        <time>2020-06-23T15:48:01Z</time>
      </trkpt>
      <trkpt lat="50.76722" lon="2.89614">
        <ele>63.5</ele>
        <time>2020-06-23T15:48:02Z</time>
      </trkpt>
      <trkpt lat="50.76717" lon="2.89617">
        <ele>63.6</ele>
        <time>2020-06-23T15:48:03Z</time>
      </trkpt>
      <trkpt lat="50.76712" lon="2.89621">
        <ele>63.6</ele>
        <time>2020-06-23T15:48:04Z</time>
      </trkpt>
      <trkpt lat="50.76707" lon="2.89624">
        <ele>63.7</ele>
        <time>2020-06-23T15:48:05Z</time>
      </trkpt>
      <trkpt lat="50.76703" lon="2.89626">
        <ele>63.7</ele>
        <time>2020-06-23T15:48:06Z</time>
      </trkpt>
      <trkpt lat="50.76699" lon="2.89629">
        <ele>63.8</ele>
        <time>2020-06-23T15:48:07Z</time>
      </trkpt>
      <trkpt lat="50.76695" lon="2.89631">
        <ele>63.8</ele>
        <time>2020-06-23T15:48:08Z</time>
      </trkpt>
      <trkpt lat="50.76691" lon="2.89633">
        <ele>63.8</ele>
        <time>2020-06-23T15:48:09Z</time>
      </trkpt>
      <trkpt lat="50.76687" lon="2.89635">
        <ele>63.8</ele>
        <time>2020-06-23T15:48:10Z</time>
      </trkpt>
      <trkpt lat="50.76683" lon="2.89637">
        <ele>63.9</ele>
        <time>2020-06-23T15:48:11Z</time>
      </trkpt>
      <trkpt lat="50.7668" lon="2.89638">
        <ele>63.9</ele>
        <time>2020-06-23T15:48:12Z</time>
      </trkpt>
      <trkpt lat="50.76675" lon="2.89639">
        <ele>63.9</ele>
        <time>2020-06-23T15:48:13Z</time>
      </trkpt>
      <trkpt lat="50.7667" lon="2.89639">
        <ele>64</ele>
        <time>2020-06-23T15:48:14Z</time>
      </trkpt>
      <trkpt lat="50.76664" lon="2.89639">
        <ele>64.2</ele>
        <time>2020-06-23T15:48:15Z</time>
      </trkpt>
      <trkpt lat="50.76659" lon="2.8964">
        <ele>64.3</ele>
        <time>2020-06-23T15:48:16Z</time>
      </trkpt>
      <trkpt lat="50.76654" lon="2.8964">
        <ele>64.4</ele>
        <time>2020-06-23T15:48:17Z</time>
      </trkpt>
      <trkpt lat="50.7665" lon="2.89639">
        <ele>64.4</ele>
        <time>2020-06-23T15:48:18Z</time>
      </trkpt>
      <trkpt lat="50.76647" lon="2.89639">
        <ele>64.5</ele>
        <time>2020-06-23T15:48:19Z</time>
      </trkpt>
      <trkpt lat="50.76643" lon="2.89639">
        <ele>64.6</ele>
        <time>2020-06-23T15:48:20Z</time>
      </trkpt>
      <trkpt lat="50.76641" lon="2.8964">
        <ele>64.6</ele>
        <time>2020-06-23T15:48:21Z</time>
      </trkpt>
      <trkpt lat="50.76638" lon="2.8964">
        <ele>64.6</ele>
        <time>2020-06-23T15:48:22Z</time>
      </trkpt>
      <trkpt lat="50.76634" lon="2.89641">
        <ele>64.5</ele>
        <time>2020-06-23T15:48:23Z</time>
      </trkpt>
      <trkpt lat="50.76632" lon="2.89643">
        <ele>64.5</ele>
        <time>2020-06-23T15:48:24Z</time>
      </trkpt>
      <trkpt lat="50.76628" lon="2.89644">
        <ele>64.5</ele>
        <time>2020-06-23T15:48:25Z</time>
      </trkpt>
      <trkpt lat="50.76625" lon="2.89645">
        <ele>64.5</ele>
        <time>2020-06-23T15:48:26Z</time>
      </trkpt>
      <trkpt lat="50.76621" lon="2.89646">
        <ele>64.5</ele>
        <time>2020-06-23T15:48:27Z</time>
      </trkpt>
      <trkpt lat="50.76617" lon="2.89648">
        <ele>64.5</ele>
        <time>2020-06-23T15:48:28Z</time>
      </trkpt>
      <trkpt lat="50.76614" lon="2.89649">
        <ele>64.4</ele>
        <time>2020-06-23T15:48:29Z</time>
      </trkpt>
      <trkpt lat="50.7661" lon="2.89651">
        <ele>64.4</ele>
        <time>2020-06-23T15:48:30Z</time>
      </trkpt>
      <trkpt lat="50.76607" lon="2.89652">
        <ele>64.4</ele>
        <time>2020-06-23T15:48:31Z</time>
      </trkpt>
      <trkpt lat="50.76602" lon="2.89655">
        <ele>64.3</ele>
        <time>2020-06-23T15:48:32Z</time>
      </trkpt>
      <trkpt lat="50.76597" lon="2.89657">
        <ele>64.2</ele>
        <time>2020-06-23T15:48:33Z</time>
      </trkpt>
      <trkpt lat="50.76592" lon="2.89659">
        <ele>64.2</ele>
        <time>2020-06-23T15:48:34Z</time>
      </trkpt>
      <trkpt lat="50.76586" lon="2.89661">
        <ele>64.1</ele>
        <time>2020-06-23T15:48:35Z</time>
      </trkpt>
      <trkpt lat="50.7658" lon="2.89663">
        <ele>64</ele>
        <time>2020-06-23T15:48:36Z</time>
      </trkpt>
      <trkpt lat="50.76575" lon="2.89665">
        <ele>63.9</ele>
        <time>2020-06-23T15:48:37Z</time>
      </trkpt>
      <trkpt lat="50.7657" lon="2.89668">
        <ele>63.8</ele>
        <time>2020-06-23T15:48:38Z</time>
      </trkpt>
      <trkpt lat="50.76565" lon="2.8967">
        <ele>63.8</ele>
        <time>2020-06-23T15:48:39Z</time>
      </trkpt>
      <trkpt lat="50.76561" lon="2.89672">
        <ele>63.7</ele>
        <time>2020-06-23T15:48:40Z</time>
      </trkpt>
      <trkpt lat="50.76557" lon="2.89674">
        <ele>63.7</ele>
        <time>2020-06-23T15:48:41Z</time>
      </trkpt>
      <trkpt lat="50.76552" lon="2.89676">
        <ele>63.6</ele>
        <time>2020-06-23T15:48:42Z</time>
      </trkpt>
      <trkpt lat="50.76548" lon="2.89678">
        <ele>63.6</ele>
        <time>2020-06-23T15:48:43Z</time>
      </trkpt>
      <trkpt lat="50.76545" lon="2.89679">
        <ele>63.6</ele>
        <time>2020-06-23T15:48:44Z</time>
      </trkpt>
      <trkpt lat="50.76542" lon="2.8968">
        <ele>63.5</ele>
        <time>2020-06-23T15:48:45Z</time>
      </trkpt>
      <trkpt lat="50.76541" lon="2.8968">
        <ele>63.5</ele>
        <time>2020-06-23T15:48:46Z</time>
      </trkpt>
      <trkpt lat="50.7654" lon="2.89681">
        <ele>63.5</ele>
        <time>2020-06-23T15:48:47Z</time>
      </trkpt>
      <trkpt lat="50.76539" lon="2.8968">
        <ele>63.5</ele>
        <time>2020-06-23T15:48:48Z</time>
      </trkpt>
      <trkpt lat="50.76539" lon="2.89681">
        <ele>63.5</ele>
        <time>2020-06-23T15:48:49Z</time>
      </trkpt>
      <trkpt lat="50.76539" lon="2.89681">
        <ele>63.5</ele>
        <time>2020-06-23T15:48:50Z</time>
      </trkpt>
      <trkpt lat="50.76539" lon="2.89681">
        <ele>63.5</ele>
        <time>2020-06-23T15:48:51Z</time>
      </trkpt>
      <trkpt lat="50.76538" lon="2.89681">
        <ele>63.5</ele>
        <time>2020-06-23T15:48:52Z</time>
      </trkpt>
      <trkpt lat="50.76538" lon="2.89681">
        <ele>63.5</ele>
        <time>2020-06-23T15:48:53Z</time>
      </trkpt>
      <trkpt lat="50.76537" lon="2.89681">
        <ele>63.5</ele>
        <time>2020-06-23T15:48:54Z</time>
      </trkpt>
      <trkpt lat="50.76537" lon="2.89681">
        <ele>63.5</ele>
        <time>2020-06-23T15:48:55Z</time>
      </trkpt>
      <trkpt lat="50.76536" lon="2.89681">
        <ele>63.4</ele>
        <time>2020-06-23T15:48:56Z</time>
      </trkpt>
      <trkpt lat="50.76535" lon="2.89681">
        <ele>63.4</ele>
        <time>2020-06-23T15:48:57Z</time>
      </trkpt>
      <trkpt lat="50.76536" lon="2.89681">
        <ele>63.4</ele>
        <time>2020-06-23T15:48:58Z</time>
      </trkpt>
      <trkpt lat="50.76535" lon="2.89681">
        <ele>63.4</ele>
        <time>2020-06-23T15:48:59Z</time>
      </trkpt>
      <trkpt lat="50.76535" lon="2.89682">
        <ele>63.4</ele>
        <time>2020-06-23T15:49:00Z</time>
      </trkpt>
      <trkpt lat="50.76535" lon="2.89682">
        <ele>63.4</ele>
        <time>2020-06-23T15:49:01Z</time>
      </trkpt>
      <trkpt lat="50.76536" lon="2.89682">
        <ele>63.4</ele>
        <time>2020-06-23T15:49:02Z</time>
      </trkpt>
      <trkpt lat="50.76536" lon="2.89683">
        <ele>63.4</ele>
        <time>2020-06-23T15:49:03Z</time>
      </trkpt>
      <trkpt lat="50.76536" lon="2.89683">
        <ele>63.4</ele>
        <time>2020-06-23T15:49:04Z</time>
      </trkpt>
      <trkpt lat="50.76536" lon="2.89683">
        <ele>63.4</ele>
        <time>2020-06-23T15:49:05Z</time>
      </trkpt>
      <trkpt lat="50.76536" lon="2.89684">
        <ele>63.4</ele>
        <time>2020-06-23T15:49:06Z</time>
      </trkpt>
      <trkpt lat="50.76536" lon="2.89684">
        <ele>63.4</ele>
        <time>2020-06-23T15:49:07Z</time>
      </trkpt>
      <trkpt lat="50.76533" lon="2.89682">
        <ele>63.4</ele>
        <time>2020-06-23T15:55:18Z</time>
      </trkpt>
      <trkpt lat="50.76532" lon="2.89682">
        <ele>63.4</ele>
        <time>2020-06-23T15:55:19Z</time>
      </trkpt>
      <trkpt lat="50.7653" lon="2.89682">
        <ele>63.4</ele>
        <time>2020-06-23T15:55:20Z</time>
      </trkpt>
      <trkpt lat="50.76528" lon="2.8968">
        <ele>63.4</ele>
        <time>2020-06-23T15:55:21Z</time>
      </trkpt>
      <trkpt lat="50.76527" lon="2.8968">
        <ele>63.4</ele>
        <time>2020-06-23T15:55:22Z</time>
      </trkpt>
      <trkpt lat="50.76526" lon="2.8968">
        <ele>63.4</ele>
        <time>2020-06-23T15:55:23Z</time>
      </trkpt>
      <trkpt lat="50.76523" lon="2.8968">
        <ele>63.4</ele>
        <time>2020-06-23T15:55:24Z</time>
      </trkpt>
      <trkpt lat="50.76522" lon="2.8968">
        <ele>63.3</ele>
        <time>2020-06-23T15:55:25Z</time>
      </trkpt>
      <trkpt lat="50.7652" lon="2.89684">
        <ele>63.3</ele>
        <time>2020-06-23T15:55:26Z</time>
      </trkpt>
      <trkpt lat="50.76519" lon="2.89685">
        <ele>63.3</ele>
        <time>2020-06-23T15:55:27Z</time>
      </trkpt>
      <trkpt lat="50.7652" lon="2.89691">
        <ele>63.3</ele>
        <time>2020-06-23T15:55:28Z</time>
      </trkpt>
      <trkpt lat="50.7652" lon="2.89692">
        <ele>63.3</ele>
        <time>2020-06-23T15:55:29Z</time>
      </trkpt>
      <trkpt lat="50.76521" lon="2.89694">
        <ele>63.3</ele>
        <time>2020-06-23T15:55:30Z</time>
      </trkpt>
      <trkpt lat="50.76522" lon="2.89692">
        <ele>63.3</ele>
        <time>2020-06-23T15:55:31Z</time>
      </trkpt>
      <trkpt lat="50.76523" lon="2.89691">
        <ele>63.3</ele>
        <time>2020-06-23T15:55:32Z</time>
      </trkpt>
      <trkpt lat="50.76526" lon="2.89689">
        <ele>63.3</ele>
        <time>2020-06-23T15:55:33Z</time>
      </trkpt>
      <trkpt lat="50.76526" lon="2.89688">
        <ele>63.3</ele>
        <time>2020-06-23T15:55:34Z</time>
      </trkpt>
      <trkpt lat="50.76529" lon="2.89686">
        <ele>63.3</ele>
        <time>2020-06-23T15:55:35Z</time>
      </trkpt>
      <trkpt lat="50.7653" lon="2.89686">
        <ele>63.3</ele>
        <time>2020-06-23T15:55:36Z</time>
      </trkpt>
      <trkpt lat="50.76531" lon="2.89685">
        <ele>63.4</ele>
        <time>2020-06-23T15:55:37Z</time>
      </trkpt>
      <trkpt lat="50.76533" lon="2.89685">
        <ele>63.4</ele>
        <time>2020-06-23T15:55:38Z</time>
      </trkpt>
      <trkpt lat="50.76534" lon="2.89685">
        <ele>63.4</ele>
        <time>2020-06-23T15:55:39Z</time>
      </trkpt>
      <trkpt lat="50.76535" lon="2.89685">
        <ele>63.4</ele>
        <time>2020-06-23T15:55:40Z</time>
      </trkpt>
      <trkpt lat="50.76536" lon="2.89686">
        <ele>63.5</ele>
        <time>2020-06-23T15:55:41Z</time>
      </trkpt>
      <trkpt lat="50.76537" lon="2.89686">
        <ele>63.5</ele>
        <time>2020-06-23T15:55:42Z</time>
      </trkpt>
      <trkpt lat="50.76539" lon="2.89685">
        <ele>63.5</ele>
        <time>2020-06-23T15:55:43Z</time>
      </trkpt>
      <trkpt lat="50.7654" lon="2.89685">
        <ele>63.5</ele>
        <time>2020-06-23T15:55:44Z</time>
      </trkpt>
      <trkpt lat="50.76541" lon="2.89686">
        <ele>63.5</ele>
        <time>2020-06-23T15:55:45Z</time>
      </trkpt>
      <trkpt lat="50.76542" lon="2.89686">
        <ele>63.5</ele>
        <time>2020-06-23T15:55:46Z</time>
      </trkpt>
      <trkpt lat="50.76543" lon="2.89685">
        <ele>63.5</ele>
        <time>2020-06-23T15:55:47Z</time>
      </trkpt>
      <trkpt lat="50.76545" lon="2.89684">
        <ele>63.5</ele>
        <time>2020-06-23T15:55:48Z</time>
      </trkpt>
      <trkpt lat="50.76546" lon="2.89683">
        <ele>63.6</ele>
        <time>2020-06-23T15:55:49Z</time>
      </trkpt>
      <trkpt lat="50.76547" lon="2.89682">
        <ele>63.6</ele>
        <time>2020-06-23T15:55:50Z</time>
      </trkpt>
      <trkpt lat="50.76551" lon="2.89681">
        <ele>63.6</ele>
        <time>2020-06-23T15:55:51Z</time>
      </trkpt>
      <trkpt lat="50.76552" lon="2.8968">
        <ele>63.6</ele>
        <time>2020-06-23T15:55:52Z</time>
      </trkpt>
      <trkpt lat="50.76556" lon="2.89679">
        <ele>63.6</ele>
        <time>2020-06-23T15:55:53Z</time>
      </trkpt>
      <trkpt lat="50.76557" lon="2.89678">
        <ele>63.7</ele>
        <time>2020-06-23T15:55:54Z</time>
      </trkpt>
      <trkpt lat="50.7656" lon="2.89677">
        <ele>63.7</ele>
        <time>2020-06-23T15:55:55Z</time>
      </trkpt>
      <trkpt lat="50.76563" lon="2.89676">
        <ele>63.7</ele>
        <time>2020-06-23T15:55:56Z</time>
      </trkpt>
      <trkpt lat="50.76566" lon="2.89675">
        <ele>63.7</ele>
        <time>2020-06-23T15:55:57Z</time>
      </trkpt>
      <trkpt lat="50.7657" lon="2.89674">
        <ele>63.8</ele>
        <time>2020-06-23T15:55:58Z</time>
      </trkpt>
      <trkpt lat="50.76571" lon="2.89674">
        <ele>63.8</ele>
        <time>2020-06-23T15:55:59Z</time>
      </trkpt>
      <trkpt lat="50.76574" lon="2.89674">
        <ele>63.8</ele>
        <time>2020-06-23T15:56:00Z</time>
      </trkpt>
      <trkpt lat="50.76577" lon="2.89673">
        <ele>63.9</ele>
        <time>2020-06-23T15:56:01Z</time>
      </trkpt>
      <trkpt lat="50.7658" lon="2.89672">
        <ele>63.9</ele>
        <time>2020-06-23T15:56:02Z</time>
      </trkpt>
      <trkpt lat="50.76584" lon="2.89671">
        <ele>64</ele>
        <time>2020-06-23T15:56:03Z</time>
      </trkpt>
      <trkpt lat="50.76588" lon="2.8967">
        <ele>64.1</ele>
        <time>2020-06-23T15:56:04Z</time>
      </trkpt>
      <trkpt lat="50.76592" lon="2.89668">
        <ele>64.1</ele>
        <time>2020-06-23T15:56:05Z</time>
      </trkpt>
      <trkpt lat="50.76596" lon="2.89667">
        <ele>64.2</ele>
        <time>2020-06-23T15:56:06Z</time>
      </trkpt>
      <trkpt lat="50.76599" lon="2.89667">
        <ele>64.2</ele>
        <time>2020-06-23T15:56:07Z</time>
      </trkpt>
      <trkpt lat="50.76603" lon="2.89665">
        <ele>64.3</ele>
        <time>2020-06-23T15:56:08Z</time>
      </trkpt>
      <trkpt lat="50.76607" lon="2.89663">
        <ele>64.3</ele>
        <time>2020-06-23T15:56:09Z</time>
      </trkpt>
      <trkpt lat="50.7661" lon="2.89662">
        <ele>64.4</ele>
        <time>2020-06-23T15:56:10Z</time>
      </trkpt>
      <trkpt lat="50.76613" lon="2.89661">
        <ele>64.4</ele>
        <time>2020-06-23T15:56:11Z</time>
      </trkpt>
      <trkpt lat="50.76616" lon="2.89661">
        <ele>64.4</ele>
        <time>2020-06-23T15:56:12Z</time>
      </trkpt>
      <trkpt lat="50.7662" lon="2.89661">
        <ele>64.5</ele>
        <time>2020-06-23T15:56:13Z</time>
      </trkpt>
      <trkpt lat="50.76621" lon="2.89662">
        <ele>64.5</ele>
        <time>2020-06-23T15:56:14Z</time>
      </trkpt>
      <trkpt lat="50.76623" lon="2.89665">
        <ele>64.5</ele>
        <time>2020-06-23T15:56:15Z</time>
      </trkpt>
      <trkpt lat="50.76626" lon="2.89667">
        <ele>64.5</ele>
        <time>2020-06-23T15:56:16Z</time>
      </trkpt>
      <trkpt lat="50.76628" lon="2.89671">
        <ele>64.5</ele>
        <time>2020-06-23T15:56:17Z</time>
      </trkpt>
      <trkpt lat="50.7663" lon="2.89676">
        <ele>64.4</ele>
        <time>2020-06-23T15:56:18Z</time>
      </trkpt>
      <trkpt lat="50.76632" lon="2.89682">
        <ele>64.3</ele>
        <time>2020-06-23T15:56:19Z</time>
      </trkpt>
      <trkpt lat="50.76634" lon="2.89689">
        <ele>64.2</ele>
        <time>2020-06-23T15:56:20Z</time>
      </trkpt>
      <trkpt lat="50.76635" lon="2.89696">
        <ele>64.2</ele>
        <time>2020-06-23T15:56:21Z</time>
      </trkpt>
      <trkpt lat="50.76636" lon="2.89702">
        <ele>64.1</ele>
        <time>2020-06-23T15:56:22Z</time>
      </trkpt>
      <trkpt lat="50.76637" lon="2.89708">
        <ele>64</ele>
        <time>2020-06-23T15:56:23Z</time>
      </trkpt>
      <trkpt lat="50.76638" lon="2.89714">
        <ele>64</ele>
        <time>2020-06-23T15:56:24Z</time>
      </trkpt>
      <trkpt lat="50.76639" lon="2.89719">
        <ele>63.9</ele>
        <time>2020-06-23T15:56:25Z</time>
      </trkpt>
      <trkpt lat="50.7664" lon="2.89724">
        <ele>63.9</ele>
        <time>2020-06-23T15:56:26Z</time>
      </trkpt>
      <trkpt lat="50.7664" lon="2.89729">
        <ele>63.2</ele>
        <time>2020-06-23T15:56:27Z</time>
      </trkpt>
      <trkpt lat="50.76637" lon="2.89732">
        <ele>63.1</ele>
        <time>2020-06-23T15:56:28Z</time>
      </trkpt>
      <trkpt lat="50.76636" lon="2.89732">
        <ele>63.1</ele>
        <time>2020-06-23T15:56:29Z</time>
      </trkpt>
      <trkpt lat="50.76632" lon="2.89732">
        <ele>63</ele>
        <time>2020-06-23T15:56:30Z</time>
      </trkpt>
      <trkpt lat="50.76629" lon="2.89731">
        <ele>63</ele>
        <time>2020-06-23T15:56:31Z</time>
      </trkpt>
      <trkpt lat="50.76626" lon="2.89732">
        <ele>62.9</ele>
        <time>2020-06-23T15:56:32Z</time>
      </trkpt>
      <trkpt lat="50.76623" lon="2.89733">
        <ele>62.9</ele>
        <time>2020-06-23T15:56:33Z</time>
      </trkpt>
      <trkpt lat="50.7662" lon="2.89734">
        <ele>62.8</ele>
        <time>2020-06-23T15:56:34Z</time>
      </trkpt>
      <trkpt lat="50.76617" lon="2.89736">
        <ele>62.7</ele>
        <time>2020-06-23T15:56:35Z</time>
      </trkpt>
      <trkpt lat="50.76615" lon="2.89738">
        <ele>62.7</ele>
        <time>2020-06-23T15:56:36Z</time>
      </trkpt>
      <trkpt lat="50.76612" lon="2.8974">
        <ele>62.6</ele>
        <time>2020-06-23T15:56:37Z</time>
      </trkpt>
      <trkpt lat="50.76611" lon="2.89741">
        <ele>62.6</ele>
        <time>2020-06-23T15:56:38Z</time>
      </trkpt>
      <trkpt lat="50.76609" lon="2.89743">
        <ele>62.6</ele>
        <time>2020-06-23T15:56:39Z</time>
      </trkpt>
      <trkpt lat="50.76607" lon="2.89745">
        <ele>62.5</ele>
        <time>2020-06-23T15:56:40Z</time>
      </trkpt>
      <trkpt lat="50.76603" lon="2.89748">
        <ele>62.5</ele>
        <time>2020-06-23T15:56:41Z</time>
      </trkpt>
      <trkpt lat="50.76602" lon="2.8975">
        <ele>62.4</ele>
        <time>2020-06-23T15:56:42Z</time>
      </trkpt>
      <trkpt lat="50.76599" lon="2.89753">
        <ele>62.4</ele>
        <time>2020-06-23T15:56:43Z</time>
      </trkpt>
      <trkpt lat="50.76596" lon="2.89757">
        <ele>62.3</ele>
        <time>2020-06-23T15:56:44Z</time>
      </trkpt>
      <trkpt lat="50.76593" lon="2.89761">
        <ele>62.3</ele>
        <time>2020-06-23T15:56:45Z</time>
      </trkpt>
      <trkpt lat="50.76591" lon="2.89764">
        <ele>62.2</ele>
        <time>2020-06-23T15:56:46Z</time>
      </trkpt>
      <trkpt lat="50.76587" lon="2.89769">
        <ele>62.2</ele>
        <time>2020-06-23T15:56:47Z</time>
      </trkpt>
      <trkpt lat="50.76583" lon="2.89773">
        <ele>62.1</ele>
        <time>2020-06-23T15:56:48Z</time>
      </trkpt>
      <trkpt lat="50.7658" lon="2.89777">
        <ele>62.1</ele>
        <time>2020-06-23T15:56:49Z</time>
      </trkpt>
      <trkpt lat="50.76576" lon="2.89781">
        <ele>62</ele>
        <time>2020-06-23T15:56:50Z</time>
      </trkpt>
      <trkpt lat="50.76572" lon="2.89784">
        <ele>62</ele>
        <time>2020-06-23T15:56:51Z</time>
      </trkpt>
      <trkpt lat="50.76569" lon="2.89787">
        <ele>62</ele>
        <time>2020-06-23T15:56:52Z</time>
      </trkpt>
      <trkpt lat="50.76567" lon="2.89789">
        <ele>62</ele>
        <time>2020-06-23T15:56:53Z</time>
      </trkpt>
      <trkpt lat="50.76563" lon="2.89792">
        <ele>62</ele>
        <time>2020-06-23T15:56:54Z</time>
      </trkpt>
      <trkpt lat="50.76561" lon="2.89794">
        <ele>62.1</ele>
        <time>2020-06-23T15:56:55Z</time>
      </trkpt>
      <trkpt lat="50.76558" lon="2.89796">
        <ele>62.1</ele>
        <time>2020-06-23T15:56:56Z</time>
      </trkpt>
      <trkpt lat="50.76555" lon="2.89798">
        <ele>62.1</ele>
        <time>2020-06-23T15:56:57Z</time>
      </trkpt>
      <trkpt lat="50.76553" lon="2.89798">
        <ele>62.2</ele>
        <time>2020-06-23T15:56:58Z</time>
      </trkpt>
      <trkpt lat="50.76551" lon="2.89801">
        <ele>62.2</ele>
        <time>2020-06-23T15:56:59Z</time>
      </trkpt>
      <trkpt lat="50.76548" lon="2.89803">
        <ele>62.2</ele>
        <time>2020-06-23T15:57:00Z</time>
      </trkpt>
      <trkpt lat="50.76545" lon="2.89804">
        <ele>62.3</ele>
        <time>2020-06-23T15:57:01Z</time>
      </trkpt>
      <trkpt lat="50.76542" lon="2.89805">
        <ele>62.3</ele>
        <time>2020-06-23T15:57:02Z</time>
      </trkpt>
      <trkpt lat="50.76541" lon="2.89805">
        <ele>62.3</ele>
        <time>2020-06-23T15:57:03Z</time>
      </trkpt>
      <trkpt lat="50.76538" lon="2.89807">
        <ele>62.3</ele>
        <time>2020-06-23T15:57:04Z</time>
      </trkpt>
      <trkpt lat="50.76537" lon="2.89807">
        <ele>62.3</ele>
        <time>2020-06-23T15:57:05Z</time>
      </trkpt>
      <trkpt lat="50.76534" lon="2.89808">
        <ele>62.3</ele>
        <time>2020-06-23T15:57:06Z</time>
      </trkpt>
      <trkpt lat="50.76534" lon="2.89808">
        <ele>62.3</ele>
        <time>2020-06-23T15:57:07Z</time>
      </trkpt>
      <trkpt lat="50.7653" lon="2.89808">
        <ele>62.4</ele>
        <time>2020-06-23T15:57:08Z</time>
      </trkpt>
      <trkpt lat="50.76528" lon="2.89808">
        <ele>62.4</ele>
        <time>2020-06-23T15:57:09Z</time>
      </trkpt>
      <trkpt lat="50.76525" lon="2.89809">
        <ele>62.4</ele>
        <time>2020-06-23T15:57:10Z</time>
      </trkpt>
      <trkpt lat="50.76521" lon="2.8981">
        <ele>62.5</ele>
        <time>2020-06-23T15:57:11Z</time>
      </trkpt>
      <trkpt lat="50.76517" lon="2.89811">
        <ele>62.4</ele>
        <time>2020-06-23T15:57:12Z</time>
      </trkpt>
      <trkpt lat="50.76512" lon="2.89811">
        <ele>62.3</ele>
        <time>2020-06-23T15:57:13Z</time>
      </trkpt>
      <trkpt lat="50.76508" lon="2.89812">
        <ele>62.2</ele>
        <time>2020-06-23T15:57:14Z</time>
      </trkpt>
      <trkpt lat="50.76503" lon="2.89813">
        <ele>62.1</ele>
        <time>2020-06-23T15:57:15Z</time>
      </trkpt>
      <trkpt lat="50.76499" lon="2.89813">
        <ele>62</ele>
        <time>2020-06-23T15:57:16Z</time>
      </trkpt>
      <trkpt lat="50.76495" lon="2.89813">
        <ele>62</ele>
        <time>2020-06-23T15:57:17Z</time>
      </trkpt>
      <trkpt lat="50.76491" lon="2.89813">
        <ele>61.9</ele>
        <time>2020-06-23T15:57:18Z</time>
      </trkpt>
      <trkpt lat="50.76489" lon="2.89813">
        <ele>61.8</ele>
        <time>2020-06-23T15:57:19Z</time>
      </trkpt>
      <trkpt lat="50.76487" lon="2.89813">
        <ele>61.8</ele>
        <time>2020-06-23T15:57:20Z</time>
      </trkpt>
      <trkpt lat="50.76486" lon="2.89816">
        <ele>61.8</ele>
        <time>2020-06-23T15:57:21Z</time>
      </trkpt>
      <trkpt lat="50.76487" lon="2.8982">
        <ele>61.7</ele>
        <time>2020-06-23T15:57:22Z</time>
      </trkpt>
      <trkpt lat="50.76489" lon="2.89825">
        <ele>61.7</ele>
        <time>2020-06-23T15:57:23Z</time>
      </trkpt>
      <trkpt lat="50.7649" lon="2.89831">
        <ele>61.7</ele>
        <time>2020-06-23T15:57:24Z</time>
      </trkpt>
      <trkpt lat="50.76491" lon="2.89838">
        <ele>61.6</ele>
        <time>2020-06-23T15:57:25Z</time>
      </trkpt>
      <trkpt lat="50.76493" lon="2.89843">
        <ele>61.6</ele>
        <time>2020-06-23T15:57:26Z</time>
      </trkpt>
      <trkpt lat="50.76495" lon="2.8985">
        <ele>61.6</ele>
        <time>2020-06-23T15:57:27Z</time>
      </trkpt>
      <trkpt lat="50.76497" lon="2.89856">
        <ele>61.6</ele>
        <time>2020-06-23T15:57:28Z</time>
      </trkpt>
      <trkpt lat="50.76498" lon="2.89861">
        <ele>61.5</ele>
        <time>2020-06-23T15:57:29Z</time>
      </trkpt>
      <trkpt lat="50.76498" lon="2.89867">
        <ele>61.5</ele>
        <time>2020-06-23T15:57:30Z</time>
      </trkpt>
      <trkpt lat="50.76499" lon="2.89871">
        <ele>61.4</ele>
        <time>2020-06-23T15:57:31Z</time>
      </trkpt>
      <trkpt lat="50.76501" lon="2.89876">
        <ele>61.4</ele>
        <time>2020-06-23T15:57:32Z</time>
      </trkpt>
      <trkpt lat="50.76502" lon="2.8988">
        <ele>61.3</ele>
        <time>2020-06-23T15:57:33Z</time>
      </trkpt>
      <trkpt lat="50.76504" lon="2.89885">
        <ele>61.2</ele>
        <time>2020-06-23T15:57:34Z</time>
      </trkpt>
      <trkpt lat="50.76505" lon="2.89889">
        <ele>61.2</ele>
        <time>2020-06-23T15:57:35Z</time>
      </trkpt>
      <trkpt lat="50.76506" lon="2.89891">
        <ele>61.2</ele>
        <time>2020-06-23T15:57:36Z</time>
      </trkpt>
      <trkpt lat="50.76507" lon="2.89893">
        <ele>61.2</ele>
        <time>2020-06-23T15:57:37Z</time>
      </trkpt>
      <trkpt lat="50.76508" lon="2.89895">
        <ele>61.2</ele>
        <time>2020-06-23T15:57:38Z</time>
      </trkpt>
      <trkpt lat="50.76508" lon="2.89895">
        <ele>61.2</ele>
        <time>2020-06-23T15:57:39Z</time>
      </trkpt>
      <trkpt lat="50.76507" lon="2.89896">
        <ele>61.1</ele>
        <time>2020-06-23T15:57:40Z</time>
      </trkpt>
      <trkpt lat="50.76505" lon="2.89896">
        <ele>61.1</ele>
        <time>2020-06-23T15:57:41Z</time>
      </trkpt>
      <trkpt lat="50.76502" lon="2.89897">
        <ele>61.1</ele>
        <time>2020-06-23T15:57:42Z</time>
      </trkpt>
      <trkpt lat="50.76498" lon="2.89896">
        <ele>61</ele>
        <time>2020-06-23T15:57:43Z</time>
      </trkpt>
      <trkpt lat="50.76495" lon="2.89898">
        <ele>60.9</ele>
        <time>2020-06-23T15:57:44Z</time>
      </trkpt>
      <trkpt lat="50.76491" lon="2.89898">
        <ele>60.8</ele>
        <time>2020-06-23T15:57:45Z</time>
      </trkpt>
      <trkpt lat="50.76487" lon="2.899">
        <ele>60.8</ele>
        <time>2020-06-23T15:57:46Z</time>
      </trkpt>
      <trkpt lat="50.76484" lon="2.89902">
        <ele>60.7</ele>
        <time>2020-06-23T15:57:47Z</time>
      </trkpt>
      <trkpt lat="50.76481" lon="2.89907">
        <ele>60.6</ele>
        <time>2020-06-23T15:57:48Z</time>
      </trkpt>
      <trkpt lat="50.76478" lon="2.8991">
        <ele>60.5</ele>
        <time>2020-06-23T15:57:49Z</time>
      </trkpt>
      <trkpt lat="50.76475" lon="2.89914">
        <ele>60.4</ele>
        <time>2020-06-23T15:57:50Z</time>
      </trkpt>
      <trkpt lat="50.76472" lon="2.89916">
        <ele>60.3</ele>
        <time>2020-06-23T15:57:51Z</time>
      </trkpt>
      <trkpt lat="50.7647" lon="2.89919">
        <ele>60.2</ele>
        <time>2020-06-23T15:57:52Z</time>
      </trkpt>
      <trkpt lat="50.76469" lon="2.89921">
        <ele>60.2</ele>
        <time>2020-06-23T15:57:53Z</time>
      </trkpt>
      <trkpt lat="50.76467" lon="2.89922">
        <ele>60.2</ele>
        <time>2020-06-23T15:57:54Z</time>
      </trkpt>
      <trkpt lat="50.76467" lon="2.89923">
        <ele>60.1</ele>
        <time>2020-06-23T15:57:55Z</time>
      </trkpt>
      <trkpt lat="50.76467" lon="2.89925">
        <ele>60.1</ele>
        <time>2020-06-23T15:57:56Z</time>
      </trkpt>
      <trkpt lat="50.76468" lon="2.89926">
        <ele>60.1</ele>
        <time>2020-06-23T15:57:57Z</time>
      </trkpt>
      <trkpt lat="50.76468" lon="2.89927">
        <ele>60.1</ele>
        <time>2020-06-23T15:57:58Z</time>
      </trkpt>
      <trkpt lat="50.76469" lon="2.89928">
        <ele>60</ele>
        <time>2020-06-23T15:57:59Z</time>
      </trkpt>
      <trkpt lat="50.76469" lon="2.89929">
        <ele>60</ele>
        <time>2020-06-23T15:58:00Z</time>
      </trkpt>
      <trkpt lat="50.76468" lon="2.89931">
        <ele>60</ele>
        <time>2020-06-23T15:58:01Z</time>
      </trkpt>
      <trkpt lat="50.76468" lon="2.89934">
        <ele>59.9</ele>
        <time>2020-06-23T15:58:02Z</time>
      </trkpt>
      <trkpt lat="50.76468" lon="2.89936">
        <ele>59.9</ele>
        <time>2020-06-23T15:58:03Z</time>
      </trkpt>
      <trkpt lat="50.76467" lon="2.89938">
        <ele>59.8</ele>
        <time>2020-06-23T15:58:04Z</time>
      </trkpt>
      <trkpt lat="50.76467" lon="2.89941">
        <ele>59.7</ele>
        <time>2020-06-23T15:58:16Z</time>
      </trkpt>
      <trkpt lat="50.76466" lon="2.89943">
        <ele>59.7</ele>
        <time>2020-06-23T15:58:17Z</time>
      </trkpt>
      <trkpt lat="50.76469" lon="2.89948">
        <ele>59.7</ele>
        <time>2020-06-23T15:58:18Z</time>
      </trkpt>
      <trkpt lat="50.7647" lon="2.89949">
        <ele>59.7</ele>
        <time>2020-06-23T15:58:19Z</time>
      </trkpt>
      <trkpt lat="50.76471" lon="2.8995">
        <ele>59.6</ele>
        <time>2020-06-23T15:58:20Z</time>
      </trkpt>
      <trkpt lat="50.76474" lon="2.89953">
        <ele>59.7</ele>
        <time>2020-06-23T15:58:21Z</time>
      </trkpt>
      <trkpt lat="50.76477" lon="2.89958">
        <ele>59.6</ele>
        <time>2020-06-23T15:58:22Z</time>
      </trkpt>
      <trkpt lat="50.76479" lon="2.89962">
        <ele>59.6</ele>
        <time>2020-06-23T15:58:23Z</time>
      </trkpt>
      <trkpt lat="50.76482" lon="2.89964">
        <ele>59.6</ele>
        <time>2020-06-23T15:58:24Z</time>
      </trkpt>
      <trkpt lat="50.76484" lon="2.89967">
        <ele>59.5</ele>
        <time>2020-06-23T15:58:25Z</time>
      </trkpt>
      <trkpt lat="50.76485" lon="2.89968">
        <ele>59.5</ele>
        <time>2020-06-23T15:58:26Z</time>
      </trkpt>
      <trkpt lat="50.76486" lon="2.89968">
        <ele>59.5</ele>
        <time>2020-06-23T15:58:27Z</time>
      </trkpt>
      <trkpt lat="50.76486" lon="2.89968">
        <ele>59.5</ele>
        <time>2020-06-23T15:58:28Z</time>
      </trkpt>
      <trkpt lat="50.76487" lon="2.89969">
        <ele>59.5</ele>
        <time>2020-06-23T15:58:29Z</time>
      </trkpt>
      <trkpt lat="50.76488" lon="2.89969">
        <ele>59.5</ele>
        <time>2020-06-23T15:58:30Z</time>
      </trkpt>
      <trkpt lat="50.76489" lon="2.89969">
        <ele>59.5</ele>
        <time>2020-06-23T15:58:31Z</time>
      </trkpt>
      <trkpt lat="50.76488" lon="2.89969">
        <ele>59.5</ele>
        <time>2020-06-23T15:58:32Z</time>
      </trkpt>
      <trkpt lat="50.76488" lon="2.89968">
        <ele>59.5</ele>
        <time>2020-06-23T15:58:33Z</time>
      </trkpt>
      <trkpt lat="50.76489" lon="2.8997">
        <ele>59.5</ele>
        <time>2020-06-23T15:58:34Z</time>
      </trkpt>
      <trkpt lat="50.76489" lon="2.89972">
        <ele>59.4</ele>
        <time>2020-06-23T15:58:35Z</time>
      </trkpt>
      <trkpt lat="50.76489" lon="2.89974">
        <ele>59.4</ele>
        <time>2020-06-23T15:58:36Z</time>
      </trkpt>
      <trkpt lat="50.76488" lon="2.89976">
        <ele>59.3</ele>
        <time>2020-06-23T15:58:37Z</time>
      </trkpt>
      <trkpt lat="50.76486" lon="2.89977">
        <ele>59.3</ele>
        <time>2020-06-23T15:58:38Z</time>
      </trkpt>
      <trkpt lat="50.76485" lon="2.89977">
        <ele>59.2</ele>
        <time>2020-06-23T15:58:39Z</time>
      </trkpt>
      <trkpt lat="50.76484" lon="2.89977">
        <ele>59.2</ele>
        <time>2020-06-23T15:58:40Z</time>
      </trkpt>
      <trkpt lat="50.76483" lon="2.89978">
        <ele>59.2</ele>
        <time>2020-06-23T15:58:41Z</time>
      </trkpt>
      <trkpt lat="50.76482" lon="2.89978">
        <ele>59.2</ele>
        <time>2020-06-23T15:58:42Z</time>
      </trkpt>
      <trkpt lat="50.76481" lon="2.89979">
        <ele>59.1</ele>
        <time>2020-06-23T15:58:43Z</time>
      </trkpt>
      <trkpt lat="50.7648" lon="2.8998">
        <ele>59</ele>
        <time>2020-06-23T15:58:44Z</time>
      </trkpt>
      <trkpt lat="50.76479" lon="2.89981">
        <ele>59</ele>
        <time>2020-06-23T15:58:45Z</time>
      </trkpt>
      <trkpt lat="50.76475" lon="2.89982">
        <ele>59</ele>
        <time>2020-06-23T15:58:46Z</time>
      </trkpt>
      <trkpt lat="50.76473" lon="2.89983">
        <ele>58.9</ele>
        <time>2020-06-23T15:58:47Z</time>
      </trkpt>
      <trkpt lat="50.76469" lon="2.89984">
        <ele>58.7</ele>
        <time>2020-06-23T15:58:48Z</time>
      </trkpt>
      <trkpt lat="50.76464" lon="2.89987">
        <ele>58.6</ele>
        <time>2020-06-23T15:58:49Z</time>
      </trkpt>
      <trkpt lat="50.76459" lon="2.8999">
        <ele>58.4</ele>
        <time>2020-06-23T15:58:50Z</time>
      </trkpt>
      <trkpt lat="50.76454" lon="2.89992">
        <ele>58.2</ele>
        <time>2020-06-23T15:58:51Z</time>
      </trkpt>
      <trkpt lat="50.76449" lon="2.89996">
        <ele>57.9</ele>
        <time>2020-06-23T15:58:52Z</time>
      </trkpt>
      <trkpt lat="50.76442" lon="2.89999">
        <ele>57.6</ele>
        <time>2020-06-23T15:58:53Z</time>
      </trkpt>
      <trkpt lat="50.76436" lon="2.90006">
        <ele>57.3</ele>
        <time>2020-06-23T15:58:54Z</time>
      </trkpt>
      <trkpt lat="50.7643" lon="2.90012">
        <ele>56.9</ele>
        <time>2020-06-23T15:58:55Z</time>
      </trkpt>
      <trkpt lat="50.76424" lon="2.9002">
        <ele>56.6</ele>
        <time>2020-06-23T15:58:56Z</time>
      </trkpt>
      <trkpt lat="50.76418" lon="2.90029">
        <ele>56.2</ele>
        <time>2020-06-23T15:58:57Z</time>
      </trkpt>
      <trkpt lat="50.76413" lon="2.9004">
        <ele>55.8</ele>
        <time>2020-06-23T15:58:58Z</time>
      </trkpt>
      <trkpt lat="50.76407" lon="2.90052">
        <ele>55.4</ele>
        <time>2020-06-23T15:58:59Z</time>
      </trkpt>
      <trkpt lat="50.76401" lon="2.90064">
        <ele>55</ele>
        <time>2020-06-23T15:59:00Z</time>
      </trkpt>
      <trkpt lat="50.76394" lon="2.90081">
        <ele>54.3</ele>
        <time>2020-06-23T15:59:01Z</time>
      </trkpt>
      <trkpt lat="50.76388" lon="2.90098">
        <ele>53.7</ele>
        <time>2020-06-23T15:59:02Z</time>
      </trkpt>
      <trkpt lat="50.76384" lon="2.90113">
        <ele>53.1</ele>
        <time>2020-06-23T15:59:03Z</time>
      </trkpt>
      <trkpt lat="50.7638" lon="2.90126">
        <ele>52.6</ele>
        <time>2020-06-23T15:59:04Z</time>
      </trkpt>
      <trkpt lat="50.76377" lon="2.9014">
        <ele>52</ele>
        <time>2020-06-23T15:59:05Z</time>
      </trkpt>
      <trkpt lat="50.76374" lon="2.90155">
        <ele>51.5</ele>
        <time>2020-06-23T15:59:06Z</time>
      </trkpt>
      <trkpt lat="50.76371" lon="2.90169">
        <ele>50.9</ele>
        <time>2020-06-23T15:59:07Z</time>
      </trkpt>
      <trkpt lat="50.76367" lon="2.90183">
        <ele>50.3</ele>
        <time>2020-06-23T15:59:08Z</time>
      </trkpt>
      <trkpt lat="50.76365" lon="2.90196">
        <ele>49.8</ele>
        <time>2020-06-23T15:59:09Z</time>
      </trkpt>
      <trkpt lat="50.76362" lon="2.90211">
        <ele>49.2</ele>
        <time>2020-06-23T15:59:10Z</time>
      </trkpt>
      <trkpt lat="50.7636" lon="2.90226">
        <ele>48.6</ele>
        <time>2020-06-23T15:59:11Z</time>
      </trkpt>
      <trkpt lat="50.76358" lon="2.90241">
        <ele>48</ele>
        <time>2020-06-23T15:59:12Z</time>
      </trkpt>
      <trkpt lat="50.76354" lon="2.90257">
        <ele>47.3</ele>
        <time>2020-06-23T15:59:13Z</time>
      </trkpt>
      <trkpt lat="50.76351" lon="2.90272">
        <ele>46.7</ele>
        <time>2020-06-23T15:59:14Z</time>
      </trkpt>
      <trkpt lat="50.76347" lon="2.90289">
        <ele>46</ele>
        <time>2020-06-23T15:59:15Z</time>
      </trkpt>
      <trkpt lat="50.76342" lon="2.90306">
        <ele>45.2</ele>
        <time>2020-06-23T15:59:16Z</time>
      </trkpt>
      <trkpt lat="50.76337" lon="2.90321">
        <ele>44.5</ele>
        <time>2020-06-23T15:59:17Z</time>
      </trkpt>
      <trkpt lat="50.76331" lon="2.90334">
        <ele>43.9</ele>
        <time>2020-06-23T15:59:18Z</time>
      </trkpt>
      <trkpt lat="50.76325" lon="2.90346">
        <ele>43.4</ele>
        <time>2020-06-23T15:59:19Z</time>
      </trkpt>
      <trkpt lat="50.76319" lon="2.90358">
        <ele>42.9</ele>
        <time>2020-06-23T15:59:20Z</time>
      </trkpt>
      <trkpt lat="50.76314" lon="2.90371">
        <ele>42.5</ele>
        <time>2020-06-23T15:59:21Z</time>
      </trkpt>
      <trkpt lat="50.76308" lon="2.90383">
        <ele>42</ele>
        <time>2020-06-23T15:59:22Z</time>
      </trkpt>
      <trkpt lat="50.76303" lon="2.90393">
        <ele>41.6</ele>
        <time>2020-06-23T15:59:23Z</time>
      </trkpt>
      <trkpt lat="50.76297" lon="2.90406">
        <ele>41.1</ele>
        <time>2020-06-23T15:59:24Z</time>
      </trkpt>
      <trkpt lat="50.7629" lon="2.90417">
        <ele>40.7</ele>
        <time>2020-06-23T15:59:25Z</time>
      </trkpt>
      <trkpt lat="50.76284" lon="2.9043">
        <ele>40.2</ele>
        <time>2020-06-23T15:59:26Z</time>
      </trkpt>
      <trkpt lat="50.76278" lon="2.90443">
        <ele>39.6</ele>
        <time>2020-06-23T15:59:27Z</time>
      </trkpt>
      <trkpt lat="50.76272" lon="2.90455">
        <ele>39.4</ele>
        <time>2020-06-23T15:59:28Z</time>
      </trkpt>
      <trkpt lat="50.76267" lon="2.90466">
        <ele>39.3</ele>
        <time>2020-06-23T15:59:29Z</time>
      </trkpt>
      <trkpt lat="50.76262" lon="2.90475">
        <ele>39.2</ele>
        <time>2020-06-23T15:59:30Z</time>
      </trkpt>
      <trkpt lat="50.76257" lon="2.90487">
        <ele>39</ele>
        <time>2020-06-23T15:59:31Z</time>
      </trkpt>
      <trkpt lat="50.76252" lon="2.90499">
        <ele>38.7</ele>
        <time>2020-06-23T15:59:32Z</time>
      </trkpt>
      <trkpt lat="50.76246" lon="2.90511">
        <ele>38.2</ele>
        <time>2020-06-23T15:59:33Z</time>
      </trkpt>
      <trkpt lat="50.7624" lon="2.90523">
        <ele>37.8</ele>
        <time>2020-06-23T15:59:34Z</time>
      </trkpt>
      <trkpt lat="50.76235" lon="2.90535">
        <ele>37.4</ele>
        <time>2020-06-23T15:59:35Z</time>
      </trkpt>
      <trkpt lat="50.7623" lon="2.90546">
        <ele>37.1</ele>
        <time>2020-06-23T15:59:36Z</time>
      </trkpt>
      <trkpt lat="50.76224" lon="2.90558">
        <ele>36.7</ele>
        <time>2020-06-23T15:59:37Z</time>
      </trkpt>
      <trkpt lat="50.76217" lon="2.90571">
        <ele>36.4</ele>
        <time>2020-06-23T15:59:38Z</time>
      </trkpt>
      <trkpt lat="50.76211" lon="2.90584">
        <ele>36</ele>
        <time>2020-06-23T15:59:39Z</time>
      </trkpt>
      <trkpt lat="50.76205" lon="2.90598">
        <ele>35.7</ele>
        <time>2020-06-23T15:59:40Z</time>
      </trkpt>
      <trkpt lat="50.76198" lon="2.90611">
        <ele>35.4</ele>
        <time>2020-06-23T15:59:41Z</time>
      </trkpt>
      <trkpt lat="50.76192" lon="2.90622">
        <ele>35.2</ele>
        <time>2020-06-23T15:59:42Z</time>
      </trkpt>
      <trkpt lat="50.76186" lon="2.90635">
        <ele>34.9</ele>
        <time>2020-06-23T15:59:43Z</time>
      </trkpt>
      <trkpt lat="50.7618" lon="2.90648">
        <ele>34.6</ele>
        <time>2020-06-23T15:59:44Z</time>
      </trkpt>
      <trkpt lat="50.76174" lon="2.90662">
        <ele>34.3</ele>
        <time>2020-06-23T15:59:45Z</time>
      </trkpt>
      <trkpt lat="50.76168" lon="2.90674">
        <ele>34.1</ele>
        <time>2020-06-23T15:59:46Z</time>
      </trkpt>
      <trkpt lat="50.76162" lon="2.90685">
        <ele>33.8</ele>
        <time>2020-06-23T15:59:47Z</time>
      </trkpt>
      <trkpt lat="50.76155" lon="2.90698">
        <ele>33.6</ele>
        <time>2020-06-23T15:59:48Z</time>
      </trkpt>
      <trkpt lat="50.76148" lon="2.90708">
        <ele>33.4</ele>
        <time>2020-06-23T15:59:49Z</time>
      </trkpt>
      <trkpt lat="50.76141" lon="2.90719">
        <ele>33.2</ele>
        <time>2020-06-23T15:59:50Z</time>
      </trkpt>
      <trkpt lat="50.76134" lon="2.9073">
        <ele>32.9</ele>
        <time>2020-06-23T15:59:51Z</time>
      </trkpt>
      <trkpt lat="50.76127" lon="2.9074">
        <ele>32.7</ele>
        <time>2020-06-23T15:59:52Z</time>
      </trkpt>
      <trkpt lat="50.7612" lon="2.90748">
        <ele>32.5</ele>
        <time>2020-06-23T15:59:53Z</time>
      </trkpt>
      <trkpt lat="50.76111" lon="2.90755">
        <ele>32.3</ele>
        <time>2020-06-23T15:59:54Z</time>
      </trkpt>
      <trkpt lat="50.76102" lon="2.90763">
        <ele>32.1</ele>
        <time>2020-06-23T15:59:55Z</time>
      </trkpt>
      <trkpt lat="50.76094" lon="2.90772">
        <ele>31.9</ele>
        <time>2020-06-23T15:59:56Z</time>
      </trkpt>
      <trkpt lat="50.76085" lon="2.90781">
        <ele>31.7</ele>
        <time>2020-06-23T15:59:57Z</time>
      </trkpt>
      <trkpt lat="50.76077" lon="2.9079">
        <ele>31.4</ele>
        <time>2020-06-23T15:59:58Z</time>
      </trkpt>
      <trkpt lat="50.76068" lon="2.90798">
        <ele>31.2</ele>
        <time>2020-06-23T15:59:59Z</time>
      </trkpt>
      <trkpt lat="50.76059" lon="2.90807">
        <ele>31</ele>
        <time>2020-06-23T16:00:00Z</time>
      </trkpt>
      <trkpt lat="50.76051" lon="2.90815">
        <ele>30.9</ele>
        <time>2020-06-23T16:00:01Z</time>
      </trkpt>
      <trkpt lat="50.76043" lon="2.90822">
        <ele>30.8</ele>
        <time>2020-06-23T16:00:02Z</time>
      </trkpt>
      <trkpt lat="50.76035" lon="2.9083">
        <ele>30.6</ele>
        <time>2020-06-23T16:00:03Z</time>
      </trkpt>
      <trkpt lat="50.76027" lon="2.90838">
        <ele>30.4</ele>
        <time>2020-06-23T16:00:04Z</time>
      </trkpt>
      <trkpt lat="50.7602" lon="2.90846">
        <ele>30.2</ele>
        <time>2020-06-23T16:00:05Z</time>
      </trkpt>
      <trkpt lat="50.76012" lon="2.90854">
        <ele>30.1</ele>
        <time>2020-06-23T16:00:06Z</time>
      </trkpt>
      <trkpt lat="50.76003" lon="2.90863">
        <ele>29.9</ele>
        <time>2020-06-23T16:00:07Z</time>
      </trkpt>
      <trkpt lat="50.75995" lon="2.90871">
        <ele>29.7</ele>
        <time>2020-06-23T16:00:08Z</time>
      </trkpt>
      <trkpt lat="50.75987" lon="2.90878">
        <ele>29.5</ele>
        <time>2020-06-23T16:00:09Z</time>
      </trkpt>
      <trkpt lat="50.7598" lon="2.90886">
        <ele>29.3</ele>
        <time>2020-06-23T16:00:10Z</time>
      </trkpt>
      <trkpt lat="50.75972" lon="2.90894">
        <ele>29.1</ele>
        <time>2020-06-23T16:00:11Z</time>
      </trkpt>
      <trkpt lat="50.75964" lon="2.90902">
        <ele>29</ele>
        <time>2020-06-23T16:00:12Z</time>
      </trkpt>
      <trkpt lat="50.75958" lon="2.9091">
        <ele>28.9</ele>
        <time>2020-06-23T16:00:13Z</time>
      </trkpt>
      <trkpt lat="50.75951" lon="2.90917">
        <ele>28.9</ele>
        <time>2020-06-23T16:00:14Z</time>
      </trkpt>
      <trkpt lat="50.75943" lon="2.90924">
        <ele>28.8</ele>
        <time>2020-06-23T16:00:15Z</time>
      </trkpt>
      <trkpt lat="50.75935" lon="2.90932">
        <ele>28.8</ele>
        <time>2020-06-23T16:00:16Z</time>
      </trkpt>
      <trkpt lat="50.75928" lon="2.90939">
        <ele>28.7</ele>
        <time>2020-06-23T16:00:17Z</time>
      </trkpt>
      <trkpt lat="50.7592" lon="2.90946">
        <ele>28.6</ele>
        <time>2020-06-23T16:00:18Z</time>
      </trkpt>
      <trkpt lat="50.75914" lon="2.90953">
        <ele>28.5</ele>
        <time>2020-06-23T16:00:19Z</time>
      </trkpt>
      <trkpt lat="50.75907" lon="2.9096">
        <ele>28.3</ele>
        <time>2020-06-23T16:00:20Z</time>
      </trkpt>
      <trkpt lat="50.75901" lon="2.90967">
        <ele>28.2</ele>
        <time>2020-06-23T16:00:21Z</time>
      </trkpt>
      <trkpt lat="50.75894" lon="2.90975">
        <ele>28</ele>
        <time>2020-06-23T16:00:22Z</time>
      </trkpt>
      <trkpt lat="50.75887" lon="2.90984">
        <ele>28</ele>
        <time>2020-06-23T16:00:23Z</time>
      </trkpt>
      <trkpt lat="50.75881" lon="2.90992">
        <ele>27.9</ele>
        <time>2020-06-23T16:00:24Z</time>
      </trkpt>
      <trkpt lat="50.75874" lon="2.91">
        <ele>27.7</ele>
        <time>2020-06-23T16:00:25Z</time>
      </trkpt>
      <trkpt lat="50.75868" lon="2.91007">
        <ele>27.4</ele>
        <time>2020-06-23T16:00:26Z</time>
      </trkpt>
      <trkpt lat="50.75861" lon="2.91013">
        <ele>27.1</ele>
        <time>2020-06-23T16:00:27Z</time>
      </trkpt>
      <trkpt lat="50.75854" lon="2.91019">
        <ele>26.9</ele>
        <time>2020-06-23T16:00:28Z</time>
      </trkpt>
      <trkpt lat="50.75847" lon="2.91024">
        <ele>26.8</ele>
        <time>2020-06-23T16:00:29Z</time>
      </trkpt>
      <trkpt lat="50.75841" lon="2.91031">
        <ele>26.6</ele>
        <time>2020-06-23T16:00:30Z</time>
      </trkpt>
      <trkpt lat="50.75835" lon="2.91037">
        <ele>26.5</ele>
        <time>2020-06-23T16:00:31Z</time>
      </trkpt>
      <trkpt lat="50.75828" lon="2.91045">
        <ele>26.3</ele>
        <time>2020-06-23T16:00:32Z</time>
      </trkpt>
      <trkpt lat="50.75822" lon="2.91053">
        <ele>26.2</ele>
        <time>2020-06-23T16:00:33Z</time>
      </trkpt>
      <trkpt lat="50.75815" lon="2.91059">
        <ele>26.1</ele>
        <time>2020-06-23T16:00:34Z</time>
      </trkpt>
      <trkpt lat="50.75808" lon="2.91065">
        <ele>25.9</ele>
        <time>2020-06-23T16:00:35Z</time>
      </trkpt>
      <trkpt lat="50.75802" lon="2.9107">
        <ele>25.8</ele>
        <time>2020-06-23T16:00:36Z</time>
      </trkpt>
      <trkpt lat="50.75796" lon="2.91076">
        <ele>25.6</ele>
        <time>2020-06-23T16:00:37Z</time>
      </trkpt>
      <trkpt lat="50.7579" lon="2.91081">
        <ele>25.5</ele>
        <time>2020-06-23T16:00:38Z</time>
      </trkpt>
      <trkpt lat="50.75783" lon="2.91087">
        <ele>25.3</ele>
        <time>2020-06-23T16:00:39Z</time>
      </trkpt>
      <trkpt lat="50.75777" lon="2.91093">
        <ele>25.2</ele>
        <time>2020-06-23T16:00:40Z</time>
      </trkpt>
      <trkpt lat="50.75771" lon="2.911">
        <ele>25.1</ele>
        <time>2020-06-23T16:00:41Z</time>
      </trkpt>
      <trkpt lat="50.75764" lon="2.91107">
        <ele>25</ele>
        <time>2020-06-23T16:00:42Z</time>
      </trkpt>
      <trkpt lat="50.75756" lon="2.91113">
        <ele>24.8</ele>
        <time>2020-06-23T16:00:43Z</time>
      </trkpt>
      <trkpt lat="50.7575" lon="2.9112">
        <ele>24.7</ele>
        <time>2020-06-23T16:00:44Z</time>
      </trkpt>
      <trkpt lat="50.75744" lon="2.91126">
        <ele>24.5</ele>
        <time>2020-06-23T16:00:45Z</time>
      </trkpt>
      <trkpt lat="50.75739" lon="2.91133">
        <ele>24.3</ele>
        <time>2020-06-23T16:00:46Z</time>
      </trkpt>
      <trkpt lat="50.75733" lon="2.91138">
        <ele>24.1</ele>
        <time>2020-06-23T16:00:47Z</time>
      </trkpt>
      <trkpt lat="50.75728" lon="2.91145">
        <ele>23.9</ele>
        <time>2020-06-23T16:00:48Z</time>
      </trkpt>
      <trkpt lat="50.75722" lon="2.9115">
        <ele>23.7</ele>
        <time>2020-06-23T16:00:49Z</time>
      </trkpt>
      <trkpt lat="50.75715" lon="2.91156">
        <ele>23.5</ele>
        <time>2020-06-23T16:00:50Z</time>
      </trkpt>
      <trkpt lat="50.75709" lon="2.91162">
        <ele>23.3</ele>
        <time>2020-06-23T16:00:51Z</time>
      </trkpt>
      <trkpt lat="50.75703" lon="2.91168">
        <ele>23.1</ele>
        <time>2020-06-23T16:00:52Z</time>
      </trkpt>
      <trkpt lat="50.75696" lon="2.91174">
        <ele>22.9</ele>
        <time>2020-06-23T16:00:53Z</time>
      </trkpt>
      <trkpt lat="50.7569" lon="2.91181">
        <ele>22.7</ele>
        <time>2020-06-23T16:00:54Z</time>
      </trkpt>
      <trkpt lat="50.75684" lon="2.91188">
        <ele>22.6</ele>
        <time>2020-06-23T16:00:55Z</time>
      </trkpt>
      <trkpt lat="50.75677" lon="2.91194">
        <ele>22.4</ele>
        <time>2020-06-23T16:00:56Z</time>
      </trkpt>
      <trkpt lat="50.75671" lon="2.91201">
        <ele>22.2</ele>
        <time>2020-06-23T16:00:57Z</time>
      </trkpt>
      <trkpt lat="50.75665" lon="2.91208">
        <ele>22</ele>
        <time>2020-06-23T16:00:58Z</time>
      </trkpt>
      <trkpt lat="50.75659" lon="2.91214">
        <ele>21.9</ele>
        <time>2020-06-23T16:00:59Z</time>
      </trkpt>
      <trkpt lat="50.75652" lon="2.91221">
        <ele>21.7</ele>
        <time>2020-06-23T16:01:00Z</time>
      </trkpt>
      <trkpt lat="50.75645" lon="2.91228">
        <ele>21.5</ele>
        <time>2020-06-23T16:01:01Z</time>
      </trkpt>
      <trkpt lat="50.75638" lon="2.91235">
        <ele>21.3</ele>
        <time>2020-06-23T16:01:02Z</time>
      </trkpt>
      <trkpt lat="50.75631" lon="2.91241">
        <ele>21.2</ele>
        <time>2020-06-23T16:01:03Z</time>
      </trkpt>
      <trkpt lat="50.75624" lon="2.91247">
        <ele>21</ele>
        <time>2020-06-23T16:01:04Z</time>
      </trkpt>
      <trkpt lat="50.75617" lon="2.91253">
        <ele>20.9</ele>
        <time>2020-06-23T16:01:05Z</time>
      </trkpt>
      <trkpt lat="50.75611" lon="2.9126">
        <ele>20.8</ele>
        <time>2020-06-23T16:01:06Z</time>
      </trkpt>
      <trkpt lat="50.75605" lon="2.91266">
        <ele>20.7</ele>
        <time>2020-06-23T16:01:07Z</time>
      </trkpt>
      <trkpt lat="50.75599" lon="2.91272">
        <ele>20.6</ele>
        <time>2020-06-23T16:01:08Z</time>
      </trkpt>
      <trkpt lat="50.75592" lon="2.91278">
        <ele>20.5</ele>
        <time>2020-06-23T16:01:09Z</time>
      </trkpt>
      <trkpt lat="50.75586" lon="2.91285">
        <ele>20.4</ele>
        <time>2020-06-23T16:01:10Z</time>
      </trkpt>
      <trkpt lat="50.75579" lon="2.91291">
        <ele>20.4</ele>
        <time>2020-06-23T16:01:11Z</time>
      </trkpt>
      <trkpt lat="50.75573" lon="2.91298">
        <ele>20.3</ele>
        <time>2020-06-23T16:01:12Z</time>
      </trkpt>
      <trkpt lat="50.75567" lon="2.91304">
        <ele>20.3</ele>
        <time>2020-06-23T16:01:13Z</time>
      </trkpt>
      <trkpt lat="50.75561" lon="2.91311">
        <ele>20.3</ele>
        <time>2020-06-23T16:01:14Z</time>
      </trkpt>
      <trkpt lat="50.75555" lon="2.91318">
        <ele>20.3</ele>
        <time>2020-06-23T16:01:15Z</time>
      </trkpt>
      <trkpt lat="50.75549" lon="2.91323">
        <ele>20.3</ele>
        <time>2020-06-23T16:01:16Z</time>
      </trkpt>
      <trkpt lat="50.75542" lon="2.9133">
        <ele>20.6</ele>
        <time>2020-06-23T16:01:17Z</time>
      </trkpt>
      <trkpt lat="50.75536" lon="2.91336">
        <ele>20.7</ele>
        <time>2020-06-23T16:01:18Z</time>
      </trkpt>
      <trkpt lat="50.7553" lon="2.91341">
        <ele>20.5</ele>
        <time>2020-06-23T16:01:19Z</time>
      </trkpt>
      <trkpt lat="50.75523" lon="2.91347">
        <ele>20.4</ele>
        <time>2020-06-23T16:01:20Z</time>
      </trkpt>
      <trkpt lat="50.75517" lon="2.91352">
        <ele>20.3</ele>
        <time>2020-06-23T16:01:21Z</time>
      </trkpt>
      <trkpt lat="50.75511" lon="2.91357">
        <ele>20.2</ele>
        <time>2020-06-23T16:01:22Z</time>
      </trkpt>
      <trkpt lat="50.75505" lon="2.91361">
        <ele>20.2</ele>
        <time>2020-06-23T16:01:23Z</time>
      </trkpt>
      <trkpt lat="50.75499" lon="2.91364">
        <ele>20.2</ele>
        <time>2020-06-23T16:01:24Z</time>
      </trkpt>
      <trkpt lat="50.75493" lon="2.91368">
        <ele>20.2</ele>
        <time>2020-06-23T16:01:25Z</time>
      </trkpt>
      <trkpt lat="50.75487" lon="2.91371">
        <ele>20.3</ele>
        <time>2020-06-23T16:01:26Z</time>
      </trkpt>
      <trkpt lat="50.75481" lon="2.91375">
        <ele>20.3</ele>
        <time>2020-06-23T16:01:27Z</time>
      </trkpt>
      <trkpt lat="50.75476" lon="2.91379">
        <ele>20.4</ele>
        <time>2020-06-23T16:01:28Z</time>
      </trkpt>
      <trkpt lat="50.7547" lon="2.91383">
        <ele>20.5</ele>
        <time>2020-06-23T16:01:29Z</time>
      </trkpt>
      <trkpt lat="50.75464" lon="2.91388">
        <ele>20.6</ele>
        <time>2020-06-23T16:01:30Z</time>
      </trkpt>
      <trkpt lat="50.75459" lon="2.91391">
        <ele>20.7</ele>
        <time>2020-06-23T16:01:31Z</time>
      </trkpt>
      <trkpt lat="50.75453" lon="2.91395">
        <ele>20.7</ele>
        <time>2020-06-23T16:01:32Z</time>
      </trkpt>
      <trkpt lat="50.75448" lon="2.91398">
        <ele>20.8</ele>
        <time>2020-06-23T16:01:33Z</time>
      </trkpt>
      <trkpt lat="50.75442" lon="2.91402">
        <ele>21</ele>
        <time>2020-06-23T16:01:34Z</time>
      </trkpt>
      <trkpt lat="50.75435" lon="2.91406">
        <ele>21.1</ele>
        <time>2020-06-23T16:01:35Z</time>
      </trkpt>
      <trkpt lat="50.75429" lon="2.9141">
        <ele>21.2</ele>
        <time>2020-06-23T16:01:36Z</time>
      </trkpt>
      <trkpt lat="50.75423" lon="2.91413">
        <ele>21.3</ele>
        <time>2020-06-23T16:01:37Z</time>
      </trkpt>
      <trkpt lat="50.75417" lon="2.91417">
        <ele>21.4</ele>
        <time>2020-06-23T16:01:38Z</time>
      </trkpt>
      <trkpt lat="50.7541" lon="2.91419">
        <ele>21.5</ele>
        <time>2020-06-23T16:01:39Z</time>
      </trkpt>
      <trkpt lat="50.75404" lon="2.91423">
        <ele>21.5</ele>
        <time>2020-06-23T16:01:40Z</time>
      </trkpt>
      <trkpt lat="50.75399" lon="2.91427">
        <ele>21.6</ele>
        <time>2020-06-23T16:01:41Z</time>
      </trkpt>
      <trkpt lat="50.75392" lon="2.9143">
        <ele>21.7</ele>
        <time>2020-06-23T16:01:42Z</time>
      </trkpt>
      <trkpt lat="50.75386" lon="2.91432">
        <ele>21.8</ele>
        <time>2020-06-23T16:01:43Z</time>
      </trkpt>
      <trkpt lat="50.75381" lon="2.91434">
        <ele>21.9</ele>
        <time>2020-06-23T16:01:44Z</time>
      </trkpt>
      <trkpt lat="50.75374" lon="2.91438">
        <ele>22.1</ele>
        <time>2020-06-23T16:01:45Z</time>
      </trkpt>
      <trkpt lat="50.75368" lon="2.91441">
        <ele>22.2</ele>
        <time>2020-06-23T16:01:46Z</time>
      </trkpt>
      <trkpt lat="50.75362" lon="2.91445">
        <ele>22.2</ele>
        <time>2020-06-23T16:01:47Z</time>
      </trkpt>
      <trkpt lat="50.75357" lon="2.91449">
        <ele>22.3</ele>
        <time>2020-06-23T16:01:48Z</time>
      </trkpt>
      <trkpt lat="50.75353" lon="2.91453">
        <ele>22.3</ele>
        <time>2020-06-23T16:01:49Z</time>
      </trkpt>
      <trkpt lat="50.75348" lon="2.91457">
        <ele>22.4</ele>
        <time>2020-06-23T16:01:50Z</time>
      </trkpt>
      <trkpt lat="50.75342" lon="2.91461">
        <ele>22.3</ele>
        <time>2020-06-23T16:01:51Z</time>
      </trkpt>
      <trkpt lat="50.75337" lon="2.91464">
        <ele>22.2</ele>
        <time>2020-06-23T16:01:52Z</time>
      </trkpt>
      <trkpt lat="50.75332" lon="2.91468">
        <ele>22.1</ele>
        <time>2020-06-23T16:01:53Z</time>
      </trkpt>
      <trkpt lat="50.75327" lon="2.91471">
        <ele>22.1</ele>
        <time>2020-06-23T16:01:54Z</time>
      </trkpt>
      <trkpt lat="50.75323" lon="2.91474">
        <ele>22.1</ele>
        <time>2020-06-23T16:01:55Z</time>
      </trkpt>
      <trkpt lat="50.75318" lon="2.91478">
        <ele>22.1</ele>
        <time>2020-06-23T16:01:56Z</time>
      </trkpt>
      <trkpt lat="50.75313" lon="2.91482">
        <ele>22.2</ele>
        <time>2020-06-23T16:01:57Z</time>
      </trkpt>
      <trkpt lat="50.75308" lon="2.91486">
        <ele>22.2</ele>
        <time>2020-06-23T16:01:58Z</time>
      </trkpt>
      <trkpt lat="50.75302" lon="2.9149">
        <ele>22.3</ele>
        <time>2020-06-23T16:01:59Z</time>
      </trkpt>
      <trkpt lat="50.75297" lon="2.91494">
        <ele>22.5</ele>
        <time>2020-06-23T16:02:00Z</time>
      </trkpt>
      <trkpt lat="50.75291" lon="2.91498">
        <ele>22.6</ele>
        <time>2020-06-23T16:02:01Z</time>
      </trkpt>
      <trkpt lat="50.75287" lon="2.91502">
        <ele>22.6</ele>
        <time>2020-06-23T16:02:02Z</time>
      </trkpt>
      <trkpt lat="50.75282" lon="2.91505">
        <ele>22.7</ele>
        <time>2020-06-23T16:02:03Z</time>
      </trkpt>
      <trkpt lat="50.75277" lon="2.91508">
        <ele>22.7</ele>
        <time>2020-06-23T16:02:04Z</time>
      </trkpt>
      <trkpt lat="50.75271" lon="2.91512">
        <ele>22.7</ele>
        <time>2020-06-23T16:02:05Z</time>
      </trkpt>
      <trkpt lat="50.75267" lon="2.91515">
        <ele>22.8</ele>
        <time>2020-06-23T16:02:06Z</time>
      </trkpt>
      <trkpt lat="50.75262" lon="2.91518">
        <ele>22.8</ele>
        <time>2020-06-23T16:02:07Z</time>
      </trkpt>
      <trkpt lat="50.75257" lon="2.91522">
        <ele>22.8</ele>
        <time>2020-06-23T16:02:08Z</time>
      </trkpt>
      <trkpt lat="50.75251" lon="2.91527">
        <ele>22.9</ele>
        <time>2020-06-23T16:02:09Z</time>
      </trkpt>
      <trkpt lat="50.75245" lon="2.91531">
        <ele>22.9</ele>
        <time>2020-06-23T16:02:10Z</time>
      </trkpt>
      <trkpt lat="50.7524" lon="2.91536">
        <ele>23</ele>
        <time>2020-06-23T16:02:11Z</time>
      </trkpt>
      <trkpt lat="50.75236" lon="2.9154">
        <ele>23</ele>
        <time>2020-06-23T16:02:12Z</time>
      </trkpt>
      <trkpt lat="50.7523" lon="2.91544">
        <ele>23.1</ele>
        <time>2020-06-23T16:02:13Z</time>
      </trkpt>
      <trkpt lat="50.75225" lon="2.91549">
        <ele>23.2</ele>
        <time>2020-06-23T16:02:14Z</time>
      </trkpt>
      <trkpt lat="50.7522" lon="2.91553">
        <ele>23.2</ele>
        <time>2020-06-23T16:02:15Z</time>
      </trkpt>
      <trkpt lat="50.75215" lon="2.91556">
        <ele>23.3</ele>
        <time>2020-06-23T16:02:16Z</time>
      </trkpt>
      <trkpt lat="50.7521" lon="2.91559">
        <ele>23.3</ele>
        <time>2020-06-23T16:02:17Z</time>
      </trkpt>
      <trkpt lat="50.75205" lon="2.91561">
        <ele>23.4</ele>
        <time>2020-06-23T16:02:18Z</time>
      </trkpt>
      <trkpt lat="50.752" lon="2.91564">
        <ele>23.5</ele>
        <time>2020-06-23T16:02:19Z</time>
      </trkpt>
      <trkpt lat="50.75195" lon="2.91567">
        <ele>23.5</ele>
        <time>2020-06-23T16:02:20Z</time>
      </trkpt>
      <trkpt lat="50.75189" lon="2.9157">
        <ele>23.6</ele>
        <time>2020-06-23T16:02:21Z</time>
      </trkpt>
      <trkpt lat="50.75184" lon="2.91573">
        <ele>23.7</ele>
        <time>2020-06-23T16:02:22Z</time>
      </trkpt>
      <trkpt lat="50.75179" lon="2.91576">
        <ele>23.7</ele>
        <time>2020-06-23T16:02:23Z</time>
      </trkpt>
      <trkpt lat="50.75174" lon="2.91579">
        <ele>23.8</ele>
        <time>2020-06-23T16:02:24Z</time>
      </trkpt>
      <trkpt lat="50.75169" lon="2.91582">
        <ele>23.9</ele>
        <time>2020-06-23T16:02:25Z</time>
      </trkpt>
      <trkpt lat="50.75164" lon="2.91585">
        <ele>23.9</ele>
        <time>2020-06-23T16:02:26Z</time>
      </trkpt>
      <trkpt lat="50.75159" lon="2.91588">
        <ele>24</ele>
        <time>2020-06-23T16:02:27Z</time>
      </trkpt>
      <trkpt lat="50.75153" lon="2.91591">
        <ele>24</ele>
        <time>2020-06-23T16:02:28Z</time>
      </trkpt>
      <trkpt lat="50.75148" lon="2.91596">
        <ele>24.1</ele>
        <time>2020-06-23T16:02:29Z</time>
      </trkpt>
      <trkpt lat="50.75142" lon="2.916">
        <ele>24.1</ele>
        <time>2020-06-23T16:02:30Z</time>
      </trkpt>
      <trkpt lat="50.75137" lon="2.91605">
        <ele>24.2</ele>
        <time>2020-06-23T16:02:31Z</time>
      </trkpt>
      <trkpt lat="50.75131" lon="2.9161">
        <ele>24.2</ele>
        <time>2020-06-23T16:02:32Z</time>
      </trkpt>
      <trkpt lat="50.75125" lon="2.91613">
        <ele>24.3</ele>
        <time>2020-06-23T16:02:33Z</time>
      </trkpt>
      <trkpt lat="50.7512" lon="2.91616">
        <ele>24.3</ele>
        <time>2020-06-23T16:02:34Z</time>
      </trkpt>
      <trkpt lat="50.75115" lon="2.91619">
        <ele>24.3</ele>
        <time>2020-06-23T16:02:35Z</time>
      </trkpt>
      <trkpt lat="50.75109" lon="2.91622">
        <ele>24.4</ele>
        <time>2020-06-23T16:02:36Z</time>
      </trkpt>
      <trkpt lat="50.75103" lon="2.91625">
        <ele>24.4</ele>
        <time>2020-06-23T16:02:37Z</time>
      </trkpt>
      <trkpt lat="50.75099" lon="2.91629">
        <ele>24.4</ele>
        <time>2020-06-23T16:02:38Z</time>
      </trkpt>
      <trkpt lat="50.75094" lon="2.91633">
        <ele>24.5</ele>
        <time>2020-06-23T16:02:39Z</time>
      </trkpt>
      <trkpt lat="50.75089" lon="2.91638">
        <ele>24.5</ele>
        <time>2020-06-23T16:02:40Z</time>
      </trkpt>
      <trkpt lat="50.75084" lon="2.91642">
        <ele>24.6</ele>
        <time>2020-06-23T16:02:41Z</time>
      </trkpt>
      <trkpt lat="50.7508" lon="2.91646">
        <ele>24.7</ele>
        <time>2020-06-23T16:02:42Z</time>
      </trkpt>
      <trkpt lat="50.75075" lon="2.9165">
        <ele>24.8</ele>
        <time>2020-06-23T16:02:43Z</time>
      </trkpt>
      <trkpt lat="50.7507" lon="2.91652">
        <ele>24.8</ele>
        <time>2020-06-23T16:02:44Z</time>
      </trkpt>
      <trkpt lat="50.75066" lon="2.91655">
        <ele>24.9</ele>
        <time>2020-06-23T16:02:45Z</time>
      </trkpt>
      <trkpt lat="50.75061" lon="2.9166">
        <ele>24.9</ele>
        <time>2020-06-23T16:02:46Z</time>
      </trkpt>
      <trkpt lat="50.75057" lon="2.91666">
        <ele>25</ele>
        <time>2020-06-23T16:02:47Z</time>
      </trkpt>
      <trkpt lat="50.75055" lon="2.91674">
        <ele>24.9</ele>
        <time>2020-06-23T16:02:48Z</time>
      </trkpt>
      <trkpt lat="50.75054" lon="2.91683">
        <ele>24.8</ele>
        <time>2020-06-23T16:02:49Z</time>
      </trkpt>
      <trkpt lat="50.75054" lon="2.91691">
        <ele>24.8</ele>
        <time>2020-06-23T16:02:50Z</time>
      </trkpt>
      <trkpt lat="50.75056" lon="2.91699">
        <ele>24.7</ele>
        <time>2020-06-23T16:02:51Z</time>
      </trkpt>
      <trkpt lat="50.75057" lon="2.91706">
        <ele>24.6</ele>
        <time>2020-06-23T16:02:52Z</time>
      </trkpt>
      <trkpt lat="50.75058" lon="2.91714">
        <ele>24.6</ele>
        <time>2020-06-23T16:02:53Z</time>
      </trkpt>
      <trkpt lat="50.7506" lon="2.91722">
        <ele>24.6</ele>
        <time>2020-06-23T16:02:54Z</time>
      </trkpt>
      <trkpt lat="50.75062" lon="2.91729">
        <ele>24.5</ele>
        <time>2020-06-23T16:02:55Z</time>
      </trkpt>
      <trkpt lat="50.75064" lon="2.91736">
        <ele>24.5</ele>
        <time>2020-06-23T16:02:56Z</time>
      </trkpt>
      <trkpt lat="50.75065" lon="2.91743">
        <ele>24.5</ele>
        <time>2020-06-23T16:02:57Z</time>
      </trkpt>
      <trkpt lat="50.75067" lon="2.91751">
        <ele>24.5</ele>
        <time>2020-06-23T16:02:58Z</time>
      </trkpt>
      <trkpt lat="50.75069" lon="2.9176">
        <ele>24.5</ele>
        <time>2020-06-23T16:02:59Z</time>
      </trkpt>
      <trkpt lat="50.75072" lon="2.9177">
        <ele>24.4</ele>
        <time>2020-06-23T16:03:00Z</time>
      </trkpt>
      <trkpt lat="50.75074" lon="2.91777">
        <ele>24.4</ele>
        <time>2020-06-23T16:03:01Z</time>
      </trkpt>
      <trkpt lat="50.75076" lon="2.91786">
        <ele>24.4</ele>
        <time>2020-06-23T16:03:02Z</time>
      </trkpt>
      <trkpt lat="50.75078" lon="2.91794">
        <ele>24.4</ele>
        <time>2020-06-23T16:03:03Z</time>
      </trkpt>
      <trkpt lat="50.7508" lon="2.91803">
        <ele>24.3</ele>
        <time>2020-06-23T16:03:04Z</time>
      </trkpt>
      <trkpt lat="50.75082" lon="2.91811">
        <ele>24.3</ele>
        <time>2020-06-23T16:03:05Z</time>
      </trkpt>
      <trkpt lat="50.75084" lon="2.91819">
        <ele>24.4</ele>
        <time>2020-06-23T16:03:06Z</time>
      </trkpt>
      <trkpt lat="50.75086" lon="2.91827">
        <ele>24.4</ele>
        <time>2020-06-23T16:03:07Z</time>
      </trkpt>
      <trkpt lat="50.75088" lon="2.91835">
        <ele>24.4</ele>
        <time>2020-06-23T16:03:08Z</time>
      </trkpt>
      <trkpt lat="50.7509" lon="2.91843">
        <ele>24.3</ele>
        <time>2020-06-23T16:03:09Z</time>
      </trkpt>
      <trkpt lat="50.75091" lon="2.91852">
        <ele>24.3</ele>
        <time>2020-06-23T16:03:10Z</time>
      </trkpt>
      <trkpt lat="50.75092" lon="2.91861">
        <ele>24.3</ele>
        <time>2020-06-23T16:03:11Z</time>
      </trkpt>
      <trkpt lat="50.75092" lon="2.91871">
        <ele>24.3</ele>
        <time>2020-06-23T16:03:12Z</time>
      </trkpt>
      <trkpt lat="50.75092" lon="2.9188">
        <ele>24.3</ele>
        <time>2020-06-23T16:03:13Z</time>
      </trkpt>
      <trkpt lat="50.75092" lon="2.9189">
        <ele>24.3</ele>
        <time>2020-06-23T16:03:14Z</time>
      </trkpt>
      <trkpt lat="50.75092" lon="2.91899">
        <ele>24.3</ele>
        <time>2020-06-23T16:03:15Z</time>
      </trkpt>
      <trkpt lat="50.75091" lon="2.91908">
        <ele>24.3</ele>
        <time>2020-06-23T16:03:16Z</time>
      </trkpt>
      <trkpt lat="50.7509" lon="2.91917">
        <ele>24.4</ele>
        <time>2020-06-23T16:03:17Z</time>
      </trkpt>
      <trkpt lat="50.75089" lon="2.91925">
        <ele>24.4</ele>
        <time>2020-06-23T16:03:18Z</time>
      </trkpt>
      <trkpt lat="50.75087" lon="2.91933">
        <ele>24.4</ele>
        <time>2020-06-23T16:03:19Z</time>
      </trkpt>
      <trkpt lat="50.75086" lon="2.9194">
        <ele>24.4</ele>
        <time>2020-06-23T16:03:20Z</time>
      </trkpt>
      <trkpt lat="50.75085" lon="2.91948">
        <ele>24.4</ele>
        <time>2020-06-23T16:03:21Z</time>
      </trkpt>
      <trkpt lat="50.75083" lon="2.91956">
        <ele>24.4</ele>
        <time>2020-06-23T16:03:22Z</time>
      </trkpt>
      <trkpt lat="50.75081" lon="2.91963">
        <ele>24.4</ele>
        <time>2020-06-23T16:03:23Z</time>
      </trkpt>
      <trkpt lat="50.75079" lon="2.9197">
        <ele>24.4</ele>
        <time>2020-06-23T16:03:24Z</time>
      </trkpt>
      <trkpt lat="50.75077" lon="2.91977">
        <ele>24.4</ele>
        <time>2020-06-23T16:03:25Z</time>
      </trkpt>
      <trkpt lat="50.75075" lon="2.91984">
        <ele>24.4</ele>
        <time>2020-06-23T16:03:26Z</time>
      </trkpt>
      <trkpt lat="50.75073" lon="2.9199">
        <ele>24.4</ele>
        <time>2020-06-23T16:03:27Z</time>
      </trkpt>
      <trkpt lat="50.75072" lon="2.91997">
        <ele>24.5</ele>
        <time>2020-06-23T16:03:28Z</time>
      </trkpt>
      <trkpt lat="50.7507" lon="2.92004">
        <ele>24.5</ele>
        <time>2020-06-23T16:03:29Z</time>
      </trkpt>
      <trkpt lat="50.75068" lon="2.92013">
        <ele>24.5</ele>
        <time>2020-06-23T16:03:30Z</time>
      </trkpt>
      <trkpt lat="50.75067" lon="2.9202">
        <ele>24.5</ele>
        <time>2020-06-23T16:03:31Z</time>
      </trkpt>
      <trkpt lat="50.75065" lon="2.92028">
        <ele>24.5</ele>
        <time>2020-06-23T16:03:32Z</time>
      </trkpt>
      <trkpt lat="50.75063" lon="2.92037">
        <ele>24.5</ele>
        <time>2020-06-23T16:03:33Z</time>
      </trkpt>
      <trkpt lat="50.75061" lon="2.92046">
        <ele>24.5</ele>
        <time>2020-06-23T16:03:34Z</time>
      </trkpt>
      <trkpt lat="50.75059" lon="2.92054">
        <ele>24.5</ele>
        <time>2020-06-23T16:03:35Z</time>
      </trkpt>
      <trkpt lat="50.75057" lon="2.92063">
        <ele>24.5</ele>
        <time>2020-06-23T16:03:36Z</time>
      </trkpt>
      <trkpt lat="50.75055" lon="2.92072">
        <ele>24.5</ele>
        <time>2020-06-23T16:03:37Z</time>
      </trkpt>
      <trkpt lat="50.75053" lon="2.9208">
        <ele>24.6</ele>
        <time>2020-06-23T16:03:38Z</time>
      </trkpt>
      <trkpt lat="50.75051" lon="2.9209">
        <ele>24.6</ele>
        <time>2020-06-23T16:03:39Z</time>
      </trkpt>
      <trkpt lat="50.75049" lon="2.921">
        <ele>24.6</ele>
        <time>2020-06-23T16:03:40Z</time>
      </trkpt>
      <trkpt lat="50.75047" lon="2.92108">
        <ele>24.6</ele>
        <time>2020-06-23T16:03:41Z</time>
      </trkpt>
      <trkpt lat="50.75045" lon="2.92118">
        <ele>24.6</ele>
        <time>2020-06-23T16:03:42Z</time>
      </trkpt>
      <trkpt lat="50.75043" lon="2.92129">
        <ele>24.6</ele>
        <time>2020-06-23T16:03:43Z</time>
      </trkpt>
      <trkpt lat="50.75041" lon="2.9214">
        <ele>24.5</ele>
        <time>2020-06-23T16:03:44Z</time>
      </trkpt>
      <trkpt lat="50.75039" lon="2.92149">
        <ele>24.4</ele>
        <time>2020-06-23T16:03:45Z</time>
      </trkpt>
      <trkpt lat="50.75036" lon="2.92158">
        <ele>24.4</ele>
        <time>2020-06-23T16:03:46Z</time>
      </trkpt>
      <trkpt lat="50.75034" lon="2.92169">
        <ele>24.3</ele>
        <time>2020-06-23T16:03:47Z</time>
      </trkpt>
      <trkpt lat="50.75031" lon="2.92179">
        <ele>24.2</ele>
        <time>2020-06-23T16:03:48Z</time>
      </trkpt>
      <trkpt lat="50.75028" lon="2.92189">
        <ele>24.1</ele>
        <time>2020-06-23T16:03:49Z</time>
      </trkpt>
      <trkpt lat="50.75025" lon="2.92199">
        <ele>24.1</ele>
        <time>2020-06-23T16:03:50Z</time>
      </trkpt>
      <trkpt lat="50.75022" lon="2.92209">
        <ele>24</ele>
        <time>2020-06-23T16:03:51Z</time>
      </trkpt>
      <trkpt lat="50.75019" lon="2.92217">
        <ele>24</ele>
        <time>2020-06-23T16:03:52Z</time>
      </trkpt>
      <trkpt lat="50.75016" lon="2.92227">
        <ele>24</ele>
        <time>2020-06-23T16:03:53Z</time>
      </trkpt>
      <trkpt lat="50.75012" lon="2.92237">
        <ele>24</ele>
        <time>2020-06-23T16:03:54Z</time>
      </trkpt>
      <trkpt lat="50.75009" lon="2.92246">
        <ele>23.9</ele>
        <time>2020-06-23T16:03:55Z</time>
      </trkpt>
      <trkpt lat="50.75005" lon="2.92257">
        <ele>23.9</ele>
        <time>2020-06-23T16:03:56Z</time>
      </trkpt>
      <trkpt lat="50.75002" lon="2.92266">
        <ele>24</ele>
        <time>2020-06-23T16:03:57Z</time>
      </trkpt>
      <trkpt lat="50.75" lon="2.92275">
        <ele>24</ele>
        <time>2020-06-23T16:03:58Z</time>
      </trkpt>
      <trkpt lat="50.74997" lon="2.92284">
        <ele>24</ele>
        <time>2020-06-23T16:03:59Z</time>
      </trkpt>
      <trkpt lat="50.74993" lon="2.92294">
        <ele>24.1</ele>
        <time>2020-06-23T16:04:00Z</time>
      </trkpt>
      <trkpt lat="50.7499" lon="2.92304">
        <ele>24.1</ele>
        <time>2020-06-23T16:04:01Z</time>
      </trkpt>
      <trkpt lat="50.74987" lon="2.92313">
        <ele>24.2</ele>
        <time>2020-06-23T16:04:02Z</time>
      </trkpt>
      <trkpt lat="50.74983" lon="2.92322">
        <ele>24.3</ele>
        <time>2020-06-23T16:04:03Z</time>
      </trkpt>
      <trkpt lat="50.74979" lon="2.92331">
        <ele>24.4</ele>
        <time>2020-06-23T16:04:04Z</time>
      </trkpt>
      <trkpt lat="50.74975" lon="2.92339">
        <ele>24.5</ele>
        <time>2020-06-23T16:04:05Z</time>
      </trkpt>
      <trkpt lat="50.74971" lon="2.92347">
        <ele>24.6</ele>
        <time>2020-06-23T16:04:06Z</time>
      </trkpt>
      <trkpt lat="50.74967" lon="2.92353">
        <ele>24.7</ele>
        <time>2020-06-23T16:04:07Z</time>
      </trkpt>
      <trkpt lat="50.74962" lon="2.9236">
        <ele>24.8</ele>
        <time>2020-06-23T16:04:08Z</time>
      </trkpt>
      <trkpt lat="50.74957" lon="2.92366">
        <ele>24.8</ele>
        <time>2020-06-23T16:04:09Z</time>
      </trkpt>
      <trkpt lat="50.74952" lon="2.92372">
        <ele>24.9</ele>
        <time>2020-06-23T16:04:10Z</time>
      </trkpt>
      <trkpt lat="50.74947" lon="2.92378">
        <ele>24.9</ele>
        <time>2020-06-23T16:04:11Z</time>
      </trkpt>
      <trkpt lat="50.74942" lon="2.92384">
        <ele>25</ele>
        <time>2020-06-23T16:04:12Z</time>
      </trkpt>
      <trkpt lat="50.74938" lon="2.92391">
        <ele>25.1</ele>
        <time>2020-06-23T16:04:13Z</time>
      </trkpt>
      <trkpt lat="50.74933" lon="2.92397">
        <ele>25.1</ele>
        <time>2020-06-23T16:04:14Z</time>
      </trkpt>
      <trkpt lat="50.74927" lon="2.92403">
        <ele>25.2</ele>
        <time>2020-06-23T16:04:15Z</time>
      </trkpt>
      <trkpt lat="50.74922" lon="2.9241">
        <ele>25.2</ele>
        <time>2020-06-23T16:04:16Z</time>
      </trkpt>
      <trkpt lat="50.74916" lon="2.92417">
        <ele>25.2</ele>
        <time>2020-06-23T16:04:17Z</time>
      </trkpt>
      <trkpt lat="50.7491" lon="2.92425">
        <ele>25.2</ele>
        <time>2020-06-23T16:04:18Z</time>
      </trkpt>
      <trkpt lat="50.74905" lon="2.92431">
        <ele>25.2</ele>
        <time>2020-06-23T16:04:19Z</time>
      </trkpt>
      <trkpt lat="50.74901" lon="2.92436">
        <ele>25.2</ele>
        <time>2020-06-23T16:04:20Z</time>
      </trkpt>
      <trkpt lat="50.74898" lon="2.9244">
        <ele>25.3</ele>
        <time>2020-06-23T16:04:21Z</time>
      </trkpt>
      <trkpt lat="50.74893" lon="2.92445">
        <ele>25.3</ele>
        <time>2020-06-23T16:04:22Z</time>
      </trkpt>
      <trkpt lat="50.74887" lon="2.92451">
        <ele>25.4</ele>
        <time>2020-06-23T16:04:23Z</time>
      </trkpt>
      <trkpt lat="50.74883" lon="2.92457">
        <ele>25.5</ele>
        <time>2020-06-23T16:04:24Z</time>
      </trkpt>
      <trkpt lat="50.74879" lon="2.92462">
        <ele>25.6</ele>
        <time>2020-06-23T16:04:25Z</time>
      </trkpt>
      <trkpt lat="50.74875" lon="2.92467">
        <ele>25.7</ele>
        <time>2020-06-23T16:04:26Z</time>
      </trkpt>
      <trkpt lat="50.74869" lon="2.92474">
        <ele>25.8</ele>
        <time>2020-06-23T16:04:27Z</time>
      </trkpt>
      <trkpt lat="50.74865" lon="2.9248">
        <ele>25.8</ele>
        <time>2020-06-23T16:04:28Z</time>
      </trkpt>
      <trkpt lat="50.74859" lon="2.92487">
        <ele>25.9</ele>
        <time>2020-06-23T16:04:29Z</time>
      </trkpt>
      <trkpt lat="50.74853" lon="2.92494">
        <ele>25.9</ele>
        <time>2020-06-23T16:04:30Z</time>
      </trkpt>
      <trkpt lat="50.74847" lon="2.92502">
        <ele>25.9</ele>
        <time>2020-06-23T16:04:31Z</time>
      </trkpt>
      <trkpt lat="50.74843" lon="2.92509">
        <ele>25.9</ele>
        <time>2020-06-23T16:04:32Z</time>
      </trkpt>
      <trkpt lat="50.74838" lon="2.92515">
        <ele>26</ele>
        <time>2020-06-23T16:04:33Z</time>
      </trkpt>
      <trkpt lat="50.74833" lon="2.92522">
        <ele>26</ele>
        <time>2020-06-23T16:04:34Z</time>
      </trkpt>
      <trkpt lat="50.74827" lon="2.92528">
        <ele>26</ele>
        <time>2020-06-23T16:04:35Z</time>
      </trkpt>
      <trkpt lat="50.74823" lon="2.92533">
        <ele>26</ele>
        <time>2020-06-23T16:04:36Z</time>
      </trkpt>
      <trkpt lat="50.74819" lon="2.92538">
        <ele>26</ele>
        <time>2020-06-23T16:04:37Z</time>
      </trkpt>
      <trkpt lat="50.74814" lon="2.92543">
        <ele>26</ele>
        <time>2020-06-23T16:04:38Z</time>
      </trkpt>
      <trkpt lat="50.74809" lon="2.92549">
        <ele>25.9</ele>
        <time>2020-06-23T16:04:39Z</time>
      </trkpt>
      <trkpt lat="50.74803" lon="2.92556">
        <ele>25.9</ele>
        <time>2020-06-23T16:04:40Z</time>
      </trkpt>
      <trkpt lat="50.74798" lon="2.92562">
        <ele>25.8</ele>
        <time>2020-06-23T16:04:41Z</time>
      </trkpt>
      <trkpt lat="50.74793" lon="2.9257">
        <ele>25.7</ele>
        <time>2020-06-23T16:04:42Z</time>
      </trkpt>
      <trkpt lat="50.74788" lon="2.92577">
        <ele>25.7</ele>
        <time>2020-06-23T16:04:43Z</time>
      </trkpt>
      <trkpt lat="50.74783" lon="2.92585">
        <ele>25.6</ele>
        <time>2020-06-23T16:04:44Z</time>
      </trkpt>
      <trkpt lat="50.74779" lon="2.9259">
        <ele>25.5</ele>
        <time>2020-06-23T16:04:45Z</time>
      </trkpt>
      <trkpt lat="50.74774" lon="2.92596">
        <ele>25.5</ele>
        <time>2020-06-23T16:04:46Z</time>
      </trkpt>
      <trkpt lat="50.7477" lon="2.92603">
        <ele>25.4</ele>
        <time>2020-06-23T16:04:47Z</time>
      </trkpt>
      <trkpt lat="50.74765" lon="2.9261">
        <ele>25.3</ele>
        <time>2020-06-23T16:04:48Z</time>
      </trkpt>
      <trkpt lat="50.74761" lon="2.92616">
        <ele>25.2</ele>
        <time>2020-06-23T16:04:49Z</time>
      </trkpt>
      <trkpt lat="50.74757" lon="2.92623">
        <ele>25.1</ele>
        <time>2020-06-23T16:04:50Z</time>
      </trkpt>
      <trkpt lat="50.74752" lon="2.92629">
        <ele>24.9</ele>
        <time>2020-06-23T16:04:51Z</time>
      </trkpt>
      <trkpt lat="50.74747" lon="2.92635">
        <ele>24.8</ele>
        <time>2020-06-23T16:04:52Z</time>
      </trkpt>
      <trkpt lat="50.74743" lon="2.92641">
        <ele>24.7</ele>
        <time>2020-06-23T16:04:53Z</time>
      </trkpt>
      <trkpt lat="50.74738" lon="2.92647">
        <ele>24.6</ele>
        <time>2020-06-23T16:04:54Z</time>
      </trkpt>
      <trkpt lat="50.74732" lon="2.92652">
        <ele>24.5</ele>
        <time>2020-06-23T16:04:55Z</time>
      </trkpt>
      <trkpt lat="50.74727" lon="2.92658">
        <ele>24.3</ele>
        <time>2020-06-23T16:04:56Z</time>
      </trkpt>
      <trkpt lat="50.74722" lon="2.92666">
        <ele>24.2</ele>
        <time>2020-06-23T16:04:57Z</time>
      </trkpt>
      <trkpt lat="50.74717" lon="2.92673">
        <ele>24.1</ele>
        <time>2020-06-23T16:04:58Z</time>
      </trkpt>
      <trkpt lat="50.74712" lon="2.9268">
        <ele>23.9</ele>
        <time>2020-06-23T16:04:59Z</time>
      </trkpt>
      <trkpt lat="50.74707" lon="2.92688">
        <ele>23.8</ele>
        <time>2020-06-23T16:05:00Z</time>
      </trkpt>
      <trkpt lat="50.74702" lon="2.92695">
        <ele>23.7</ele>
        <time>2020-06-23T16:05:01Z</time>
      </trkpt>
      <trkpt lat="50.74697" lon="2.92702">
        <ele>23.6</ele>
        <time>2020-06-23T16:05:02Z</time>
      </trkpt>
      <trkpt lat="50.74691" lon="2.9271">
        <ele>23.5</ele>
        <time>2020-06-23T16:05:03Z</time>
      </trkpt>
      <trkpt lat="50.74686" lon="2.92717">
        <ele>23.4</ele>
        <time>2020-06-23T16:05:04Z</time>
      </trkpt>
      <trkpt lat="50.74681" lon="2.92725">
        <ele>23.3</ele>
        <time>2020-06-23T16:05:05Z</time>
      </trkpt>
      <trkpt lat="50.74676" lon="2.92733">
        <ele>23.1</ele>
        <time>2020-06-23T16:05:06Z</time>
      </trkpt>
      <trkpt lat="50.7467" lon="2.92741">
        <ele>23</ele>
        <time>2020-06-23T16:05:07Z</time>
      </trkpt>
      <trkpt lat="50.74664" lon="2.92747">
        <ele>22.8</ele>
        <time>2020-06-23T16:05:08Z</time>
      </trkpt>
      <trkpt lat="50.7466" lon="2.92753">
        <ele>22.7</ele>
        <time>2020-06-23T16:05:09Z</time>
      </trkpt>
      <trkpt lat="50.74656" lon="2.92758">
        <ele>22.6</ele>
        <time>2020-06-23T16:05:10Z</time>
      </trkpt>
      <trkpt lat="50.74651" lon="2.92763">
        <ele>22.5</ele>
        <time>2020-06-23T16:05:11Z</time>
      </trkpt>
      <trkpt lat="50.74646" lon="2.9277">
        <ele>22.4</ele>
        <time>2020-06-23T16:05:12Z</time>
      </trkpt>
      <trkpt lat="50.7464" lon="2.92777">
        <ele>22.3</ele>
        <time>2020-06-23T16:05:13Z</time>
      </trkpt>
      <trkpt lat="50.74635" lon="2.92786">
        <ele>22.2</ele>
        <time>2020-06-23T16:05:14Z</time>
      </trkpt>
      <trkpt lat="50.7463" lon="2.92794">
        <ele>22.1</ele>
        <time>2020-06-23T16:05:15Z</time>
      </trkpt>
      <trkpt lat="50.74623" lon="2.928">
        <ele>22</ele>
        <time>2020-06-23T16:05:16Z</time>
      </trkpt>
      <trkpt lat="50.74618" lon="2.92806">
        <ele>21.9</ele>
        <time>2020-06-23T16:05:17Z</time>
      </trkpt>
      <trkpt lat="50.74613" lon="2.92811">
        <ele>21.8</ele>
        <time>2020-06-23T16:05:18Z</time>
      </trkpt>
      <trkpt lat="50.74608" lon="2.92817">
        <ele>21.7</ele>
        <time>2020-06-23T16:05:19Z</time>
      </trkpt>
      <trkpt lat="50.74604" lon="2.92821">
        <ele>21.6</ele>
        <time>2020-06-23T16:05:20Z</time>
      </trkpt>
      <trkpt lat="50.746" lon="2.92826">
        <ele>21.5</ele>
        <time>2020-06-23T16:05:21Z</time>
      </trkpt>
      <trkpt lat="50.74595" lon="2.92832">
        <ele>21.5</ele>
        <time>2020-06-23T16:05:22Z</time>
      </trkpt>
      <trkpt lat="50.7459" lon="2.92838">
        <ele>21.4</ele>
        <time>2020-06-23T16:05:23Z</time>
      </trkpt>
      <trkpt lat="50.74585" lon="2.92845">
        <ele>21.4</ele>
        <time>2020-06-23T16:05:24Z</time>
      </trkpt>
      <trkpt lat="50.74579" lon="2.92852">
        <ele>20.8</ele>
        <time>2020-06-23T16:05:25Z</time>
      </trkpt>
      <trkpt lat="50.74573" lon="2.92859">
        <ele>20.6</ele>
        <time>2020-06-23T16:05:26Z</time>
      </trkpt>
      <trkpt lat="50.74568" lon="2.92866">
        <ele>20.4</ele>
        <time>2020-06-23T16:05:27Z</time>
      </trkpt>
      <trkpt lat="50.74562" lon="2.92875">
        <ele>20.3</ele>
        <time>2020-06-23T16:05:28Z</time>
      </trkpt>
      <trkpt lat="50.74557" lon="2.92883">
        <ele>20.2</ele>
        <time>2020-06-23T16:05:29Z</time>
      </trkpt>
      <trkpt lat="50.74552" lon="2.92891">
        <ele>20.1</ele>
        <time>2020-06-23T16:05:30Z</time>
      </trkpt>
      <trkpt lat="50.74546" lon="2.929">
        <ele>20</ele>
        <time>2020-06-23T16:05:31Z</time>
      </trkpt>
      <trkpt lat="50.74541" lon="2.92908">
        <ele>19.9</ele>
        <time>2020-06-23T16:05:32Z</time>
      </trkpt>
      <trkpt lat="50.74535" lon="2.92916">
        <ele>19.9</ele>
        <time>2020-06-23T16:05:33Z</time>
      </trkpt>
      <trkpt lat="50.74529" lon="2.92925">
        <ele>19.8</ele>
        <time>2020-06-23T16:05:34Z</time>
      </trkpt>
      <trkpt lat="50.74524" lon="2.92933">
        <ele>19.7</ele>
        <time>2020-06-23T16:05:35Z</time>
      </trkpt>
      <trkpt lat="50.74519" lon="2.92941">
        <ele>19.7</ele>
        <time>2020-06-23T16:05:36Z</time>
      </trkpt>
      <trkpt lat="50.74515" lon="2.92949">
        <ele>19.6</ele>
        <time>2020-06-23T16:05:37Z</time>
      </trkpt>
      <trkpt lat="50.7451" lon="2.92958">
        <ele>19.6</ele>
        <time>2020-06-23T16:05:38Z</time>
      </trkpt>
      <trkpt lat="50.74506" lon="2.92966">
        <ele>19.5</ele>
        <time>2020-06-23T16:05:39Z</time>
      </trkpt>
      <trkpt lat="50.74502" lon="2.92974">
        <ele>19.5</ele>
        <time>2020-06-23T16:05:40Z</time>
      </trkpt>
      <trkpt lat="50.74498" lon="2.92983">
        <ele>19.4</ele>
        <time>2020-06-23T16:05:41Z</time>
      </trkpt>
      <trkpt lat="50.74495" lon="2.92991">
        <ele>19.3</ele>
        <time>2020-06-23T16:05:42Z</time>
      </trkpt>
      <trkpt lat="50.74492" lon="2.93">
        <ele>19.3</ele>
        <time>2020-06-23T16:05:43Z</time>
      </trkpt>
      <trkpt lat="50.74488" lon="2.93009">
        <ele>19.3</ele>
        <time>2020-06-23T16:05:44Z</time>
      </trkpt>
      <trkpt lat="50.74487" lon="2.93017">
        <ele>19.3</ele>
        <time>2020-06-23T16:05:45Z</time>
      </trkpt>
      <trkpt lat="50.74485" lon="2.93026">
        <ele>19.3</ele>
        <time>2020-06-23T16:05:46Z</time>
      </trkpt>
      <trkpt lat="50.74483" lon="2.93035">
        <ele>19.3</ele>
        <time>2020-06-23T16:05:47Z</time>
      </trkpt>
      <trkpt lat="50.7448" lon="2.93045">
        <ele>19.3</ele>
        <time>2020-06-23T16:05:48Z</time>
      </trkpt>
      <trkpt lat="50.74478" lon="2.93054">
        <ele>19.3</ele>
        <time>2020-06-23T16:05:49Z</time>
      </trkpt>
      <trkpt lat="50.74476" lon="2.93063">
        <ele>19.3</ele>
        <time>2020-06-23T16:05:50Z</time>
      </trkpt>
      <trkpt lat="50.74473" lon="2.93071">
        <ele>19.3</ele>
        <time>2020-06-23T16:05:51Z</time>
      </trkpt>
      <trkpt lat="50.74472" lon="2.93079">
        <ele>19.4</ele>
        <time>2020-06-23T16:05:52Z</time>
      </trkpt>
      <trkpt lat="50.7447" lon="2.93086">
        <ele>19.4</ele>
        <time>2020-06-23T16:05:53Z</time>
      </trkpt>
      <trkpt lat="50.74469" lon="2.93092">
        <ele>19.5</ele>
        <time>2020-06-23T16:05:54Z</time>
      </trkpt>
      <trkpt lat="50.74467" lon="2.93099">
        <ele>19.6</ele>
        <time>2020-06-23T16:05:55Z</time>
      </trkpt>
      <trkpt lat="50.74465" lon="2.93105">
        <ele>19.7</ele>
        <time>2020-06-23T16:05:56Z</time>
      </trkpt>
      <trkpt lat="50.74463" lon="2.93111">
        <ele>19.8</ele>
        <time>2020-06-23T16:05:57Z</time>
      </trkpt>
      <trkpt lat="50.7446" lon="2.93117">
        <ele>19.9</ele>
        <time>2020-06-23T16:05:58Z</time>
      </trkpt>
      <trkpt lat="50.74457" lon="2.93123">
        <ele>20</ele>
        <time>2020-06-23T16:05:59Z</time>
      </trkpt>
      <trkpt lat="50.74453" lon="2.93127">
        <ele>20.1</ele>
        <time>2020-06-23T16:06:00Z</time>
      </trkpt>
      <trkpt lat="50.74447" lon="2.93128">
        <ele>19.9</ele>
        <time>2020-06-23T16:06:01Z</time>
      </trkpt>
      <trkpt lat="50.74443" lon="2.93128">
        <ele>19.8</ele>
        <time>2020-06-23T16:06:02Z</time>
      </trkpt>
      <trkpt lat="50.74438" lon="2.93127">
        <ele>19.7</ele>
        <time>2020-06-23T16:06:03Z</time>
      </trkpt>
      <trkpt lat="50.74434" lon="2.93125">
        <ele>19.6</ele>
        <time>2020-06-23T16:06:04Z</time>
      </trkpt>
      <trkpt lat="50.74428" lon="2.93122">
        <ele>19.5</ele>
        <time>2020-06-23T16:06:05Z</time>
      </trkpt>
      <trkpt lat="50.74422" lon="2.93117">
        <ele>19.4</ele>
        <time>2020-06-23T16:06:06Z</time>
      </trkpt>
      <trkpt lat="50.74417" lon="2.93112">
        <ele>19.3</ele>
        <time>2020-06-23T16:06:07Z</time>
      </trkpt>
      <trkpt lat="50.74412" lon="2.93107">
        <ele>19.2</ele>
        <time>2020-06-23T16:06:08Z</time>
      </trkpt>
      <trkpt lat="50.74406" lon="2.93101">
        <ele>19.1</ele>
        <time>2020-06-23T16:06:09Z</time>
      </trkpt>
      <trkpt lat="50.74401" lon="2.93096">
        <ele>19.1</ele>
        <time>2020-06-23T16:06:10Z</time>
      </trkpt>
      <trkpt lat="50.74396" lon="2.93091">
        <ele>19</ele>
        <time>2020-06-23T16:06:11Z</time>
      </trkpt>
      <trkpt lat="50.7439" lon="2.93085">
        <ele>19</ele>
        <time>2020-06-23T16:06:12Z</time>
      </trkpt>
      <trkpt lat="50.74384" lon="2.9308">
        <ele>18.9</ele>
        <time>2020-06-23T16:06:13Z</time>
      </trkpt>
      <trkpt lat="50.74378" lon="2.93074">
        <ele>18.9</ele>
        <time>2020-06-23T16:06:14Z</time>
      </trkpt>
      <trkpt lat="50.74372" lon="2.93069">
        <ele>18.8</ele>
        <time>2020-06-23T16:06:15Z</time>
      </trkpt>
      <trkpt lat="50.74366" lon="2.93064">
        <ele>18.8</ele>
        <time>2020-06-23T16:06:16Z</time>
      </trkpt>
      <trkpt lat="50.74361" lon="2.9306">
        <ele>18.8</ele>
        <time>2020-06-23T16:06:17Z</time>
      </trkpt>
      <trkpt lat="50.74355" lon="2.93055">
        <ele>18.7</ele>
        <time>2020-06-23T16:06:18Z</time>
      </trkpt>
      <trkpt lat="50.7435" lon="2.93052">
        <ele>18.7</ele>
        <time>2020-06-23T16:06:19Z</time>
      </trkpt>
      <trkpt lat="50.74345" lon="2.93047">
        <ele>18.7</ele>
        <time>2020-06-23T16:06:20Z</time>
      </trkpt>
      <trkpt lat="50.7434" lon="2.93043">
        <ele>18.7</ele>
        <time>2020-06-23T16:06:21Z</time>
      </trkpt>
      <trkpt lat="50.74335" lon="2.93039">
        <ele>18.7</ele>
        <time>2020-06-23T16:06:22Z</time>
      </trkpt>
      <trkpt lat="50.7433" lon="2.93034">
        <ele>18.7</ele>
        <time>2020-06-23T16:06:23Z</time>
      </trkpt>
      <trkpt lat="50.74325" lon="2.93031">
        <ele>18.7</ele>
        <time>2020-06-23T16:06:24Z</time>
      </trkpt>
      <trkpt lat="50.74319" lon="2.93024">
        <ele>18.7</ele>
        <time>2020-06-23T16:06:25Z</time>
      </trkpt>
      <trkpt lat="50.74314" lon="2.93018">
        <ele>18.7</ele>
        <time>2020-06-23T16:06:26Z</time>
      </trkpt>
      <trkpt lat="50.74308" lon="2.93013">
        <ele>18.7</ele>
        <time>2020-06-23T16:06:27Z</time>
      </trkpt>
      <trkpt lat="50.74304" lon="2.93008">
        <ele>18.7</ele>
        <time>2020-06-23T16:06:28Z</time>
      </trkpt>
      <trkpt lat="50.74299" lon="2.93003">
        <ele>18.7</ele>
        <time>2020-06-23T16:06:29Z</time>
      </trkpt>
      <trkpt lat="50.74293" lon="2.92998">
        <ele>18.7</ele>
        <time>2020-06-23T16:06:30Z</time>
      </trkpt>
      <trkpt lat="50.74287" lon="2.92992">
        <ele>18.8</ele>
        <time>2020-06-23T16:06:31Z</time>
      </trkpt>
      <trkpt lat="50.74281" lon="2.92987">
        <ele>18.8</ele>
        <time>2020-06-23T16:06:32Z</time>
      </trkpt>
      <trkpt lat="50.74276" lon="2.92983">
        <ele>18.8</ele>
        <time>2020-06-23T16:06:33Z</time>
      </trkpt>
      <trkpt lat="50.7427" lon="2.92978">
        <ele>18.9</ele>
        <time>2020-06-23T16:06:34Z</time>
      </trkpt>
      <trkpt lat="50.74265" lon="2.92973">
        <ele>18.9</ele>
        <time>2020-06-23T16:06:35Z</time>
      </trkpt>
      <trkpt lat="50.7426" lon="2.92967">
        <ele>18.9</ele>
        <time>2020-06-23T16:06:36Z</time>
      </trkpt>
      <trkpt lat="50.74254" lon="2.92962">
        <ele>19</ele>
        <time>2020-06-23T16:06:37Z</time>
      </trkpt>
      <trkpt lat="50.74249" lon="2.92958">
        <ele>19</ele>
        <time>2020-06-23T16:06:38Z</time>
      </trkpt>
      <trkpt lat="50.74243" lon="2.92953">
        <ele>19.1</ele>
        <time>2020-06-23T16:06:39Z</time>
      </trkpt>
      <trkpt lat="50.74238" lon="2.92947">
        <ele>19.1</ele>
        <time>2020-06-23T16:06:40Z</time>
      </trkpt>
      <trkpt lat="50.74231" lon="2.92941">
        <ele>19.1</ele>
        <time>2020-06-23T16:06:41Z</time>
      </trkpt>
      <trkpt lat="50.74225" lon="2.92934">
        <ele>19.2</ele>
        <time>2020-06-23T16:06:42Z</time>
      </trkpt>
      <trkpt lat="50.74219" lon="2.92929">
        <ele>19.2</ele>
        <time>2020-06-23T16:06:43Z</time>
      </trkpt>
      <trkpt lat="50.74212" lon="2.92923">
        <ele>19.2</ele>
        <time>2020-06-23T16:06:44Z</time>
      </trkpt>
      <trkpt lat="50.74207" lon="2.92919">
        <ele>19.2</ele>
        <time>2020-06-23T16:06:45Z</time>
      </trkpt>
      <trkpt lat="50.74201" lon="2.92914">
        <ele>19.2</ele>
        <time>2020-06-23T16:06:46Z</time>
      </trkpt>
      <trkpt lat="50.74196" lon="2.92909">
        <ele>19.2</ele>
        <time>2020-06-23T16:06:47Z</time>
      </trkpt>
      <trkpt lat="50.7419" lon="2.92904">
        <ele>19.2</ele>
        <time>2020-06-23T16:06:48Z</time>
      </trkpt>
      <trkpt lat="50.74184" lon="2.92899">
        <ele>19.2</ele>
        <time>2020-06-23T16:06:49Z</time>
      </trkpt>
      <trkpt lat="50.74178" lon="2.92893">
        <ele>19.1</ele>
        <time>2020-06-23T16:06:50Z</time>
      </trkpt>
      <trkpt lat="50.74174" lon="2.92887">
        <ele>19.1</ele>
        <time>2020-06-23T16:06:51Z</time>
      </trkpt>
      <trkpt lat="50.74169" lon="2.9288">
        <ele>19.2</ele>
        <time>2020-06-23T16:06:52Z</time>
      </trkpt>
      <trkpt lat="50.74164" lon="2.92874">
        <ele>19.2</ele>
        <time>2020-06-23T16:06:53Z</time>
      </trkpt>
      <trkpt lat="50.74159" lon="2.92867">
        <ele>19.2</ele>
        <time>2020-06-23T16:06:54Z</time>
      </trkpt>
      <trkpt lat="50.74154" lon="2.92861">
        <ele>19.3</ele>
        <time>2020-06-23T16:06:55Z</time>
      </trkpt>
      <trkpt lat="50.74147" lon="2.92855">
        <ele>19.3</ele>
        <time>2020-06-23T16:06:56Z</time>
      </trkpt>
      <trkpt lat="50.74141" lon="2.92847">
        <ele>19.4</ele>
        <time>2020-06-23T16:06:57Z</time>
      </trkpt>
      <trkpt lat="50.74135" lon="2.9284">
        <ele>19.3</ele>
        <time>2020-06-23T16:06:58Z</time>
      </trkpt>
      <trkpt lat="50.7413" lon="2.92833">
        <ele>19.2</ele>
        <time>2020-06-23T16:06:59Z</time>
      </trkpt>
      <trkpt lat="50.74125" lon="2.92827">
        <ele>19.1</ele>
        <time>2020-06-23T16:07:00Z</time>
      </trkpt>
      <trkpt lat="50.7412" lon="2.9282">
        <ele>19</ele>
        <time>2020-06-23T16:07:01Z</time>
      </trkpt>
      <trkpt lat="50.74115" lon="2.92813">
        <ele>18.9</ele>
        <time>2020-06-23T16:07:02Z</time>
      </trkpt>
      <trkpt lat="50.74111" lon="2.92807">
        <ele>18.9</ele>
        <time>2020-06-23T16:07:03Z</time>
      </trkpt>
      <trkpt lat="50.74107" lon="2.92801">
        <ele>18.8</ele>
        <time>2020-06-23T16:07:04Z</time>
      </trkpt>
      <trkpt lat="50.74102" lon="2.92795">
        <ele>18.8</ele>
        <time>2020-06-23T16:07:05Z</time>
      </trkpt>
      <trkpt lat="50.74097" lon="2.92788">
        <ele>18.7</ele>
        <time>2020-06-23T16:07:06Z</time>
      </trkpt>
      <trkpt lat="50.74092" lon="2.92781">
        <ele>18.7</ele>
        <time>2020-06-23T16:07:07Z</time>
      </trkpt>
      <trkpt lat="50.74087" lon="2.92774">
        <ele>18.6</ele>
        <time>2020-06-23T16:07:08Z</time>
      </trkpt>
      <trkpt lat="50.74085" lon="2.92769">
        <ele>18.6</ele>
        <time>2020-06-23T16:07:09Z</time>
      </trkpt>
      <trkpt lat="50.7408" lon="2.92763">
        <ele>18.6</ele>
        <time>2020-06-23T16:07:10Z</time>
      </trkpt>
      <trkpt lat="50.74075" lon="2.92757">
        <ele>18.5</ele>
        <time>2020-06-23T16:07:11Z</time>
      </trkpt>
      <trkpt lat="50.74069" lon="2.92749">
        <ele>18.5</ele>
        <time>2020-06-23T16:07:12Z</time>
      </trkpt>
      <trkpt lat="50.74065" lon="2.92743">
        <ele>18.4</ele>
        <time>2020-06-23T16:07:13Z</time>
      </trkpt>
      <trkpt lat="50.7406" lon="2.92735">
        <ele>18.4</ele>
        <time>2020-06-23T16:07:14Z</time>
      </trkpt>
      <trkpt lat="50.74055" lon="2.92728">
        <ele>18.4</ele>
        <time>2020-06-23T16:07:15Z</time>
      </trkpt>
      <trkpt lat="50.7405" lon="2.92721">
        <ele>18.4</ele>
        <time>2020-06-23T16:07:16Z</time>
      </trkpt>
      <trkpt lat="50.74045" lon="2.92712">
        <ele>18.4</ele>
        <time>2020-06-23T16:07:17Z</time>
      </trkpt>
      <trkpt lat="50.74041" lon="2.92705">
        <ele>18.4</ele>
        <time>2020-06-23T16:07:18Z</time>
      </trkpt>
      <trkpt lat="50.74036" lon="2.92698">
        <ele>18.4</ele>
        <time>2020-06-23T16:07:19Z</time>
      </trkpt>
      <trkpt lat="50.74032" lon="2.9269">
        <ele>18.5</ele>
        <time>2020-06-23T16:07:20Z</time>
      </trkpt>
      <trkpt lat="50.74028" lon="2.92681">
        <ele>18.5</ele>
        <time>2020-06-23T16:07:21Z</time>
      </trkpt>
      <trkpt lat="50.74026" lon="2.92672">
        <ele>18.6</ele>
        <time>2020-06-23T16:07:22Z</time>
      </trkpt>
      <trkpt lat="50.74024" lon="2.92664">
        <ele>18.6</ele>
        <time>2020-06-23T16:07:23Z</time>
      </trkpt>
      <trkpt lat="50.74023" lon="2.92654">
        <ele>18.6</ele>
        <time>2020-06-23T16:07:24Z</time>
      </trkpt>
      <trkpt lat="50.74023" lon="2.92646">
        <ele>18.6</ele>
        <time>2020-06-23T16:07:25Z</time>
      </trkpt>
      <trkpt lat="50.74023" lon="2.92638">
        <ele>18.7</ele>
        <time>2020-06-23T16:07:26Z</time>
      </trkpt>
      <trkpt lat="50.74022" lon="2.9263">
        <ele>18.7</ele>
        <time>2020-06-23T16:07:27Z</time>
      </trkpt>
      <trkpt lat="50.74021" lon="2.92624">
        <ele>18.7</ele>
        <time>2020-06-23T16:07:28Z</time>
      </trkpt>
      <trkpt lat="50.7402" lon="2.92617">
        <ele>18.7</ele>
        <time>2020-06-23T16:07:29Z</time>
      </trkpt>
      <trkpt lat="50.74018" lon="2.92608">
        <ele>18.8</ele>
        <time>2020-06-23T16:07:30Z</time>
      </trkpt>
      <trkpt lat="50.74017" lon="2.92601">
        <ele>18.8</ele>
        <time>2020-06-23T16:07:31Z</time>
      </trkpt>
      <trkpt lat="50.74014" lon="2.92597">
        <ele>18.9</ele>
        <time>2020-06-23T16:07:32Z</time>
      </trkpt>
      <trkpt lat="50.74011" lon="2.92594">
        <ele>18.9</ele>
        <time>2020-06-23T16:07:33Z</time>
      </trkpt>
      <trkpt lat="50.74008" lon="2.92592">
        <ele>19</ele>
        <time>2020-06-23T16:07:34Z</time>
      </trkpt>
      <trkpt lat="50.74004" lon="2.92589">
        <ele>19.1</ele>
        <time>2020-06-23T16:07:35Z</time>
      </trkpt>
      <trkpt lat="50.74001" lon="2.92589">
        <ele>19.1</ele>
        <time>2020-06-23T16:07:36Z</time>
      </trkpt>
      <trkpt lat="50.73999" lon="2.92589">
        <ele>19.2</ele>
        <time>2020-06-23T16:07:37Z</time>
      </trkpt>
      <trkpt lat="50.73999" lon="2.92589">
        <ele>19.2</ele>
        <time>2020-06-23T16:07:38Z</time>
      </trkpt>
      <trkpt lat="50.74" lon="2.92589">
        <ele>19.2</ele>
        <time>2020-06-23T16:07:39Z</time>
      </trkpt>
      <trkpt lat="50.74" lon="2.9259">
        <ele>19.2</ele>
        <time>2020-06-23T16:07:40Z</time>
      </trkpt>
      <trkpt lat="50.74002" lon="2.92592">
        <ele>19.2</ele>
        <time>2020-06-23T16:07:41Z</time>
      </trkpt>
      <trkpt lat="50.74003" lon="2.92593">
        <ele>19.3</ele>
        <time>2020-06-23T16:07:42Z</time>
      </trkpt>
      <trkpt lat="50.74004" lon="2.92594">
        <ele>19.3</ele>
        <time>2020-06-23T16:07:43Z</time>
      </trkpt>
      <trkpt lat="50.74006" lon="2.92596">
        <ele>19.3</ele>
        <time>2020-06-23T16:07:44Z</time>
      </trkpt>
      <trkpt lat="50.74005" lon="2.92597">
        <ele>19.3</ele>
        <time>2020-06-23T16:07:45Z</time>
      </trkpt>
      <trkpt lat="50.74004" lon="2.92597">
        <ele>19.3</ele>
        <time>2020-06-23T16:07:46Z</time>
      </trkpt>
      <trkpt lat="50.74003" lon="2.92597">
        <ele>19.4</ele>
        <time>2020-06-23T16:07:47Z</time>
      </trkpt>
      <trkpt lat="50.74003" lon="2.92598">
        <ele>19.4</ele>
        <time>2020-06-23T16:07:48Z</time>
      </trkpt>
      <trkpt lat="50.74002" lon="2.92598">
        <ele>19.4</ele>
        <time>2020-06-23T16:07:49Z</time>
      </trkpt>
      <trkpt lat="50.74001" lon="2.92598">
        <ele>19.4</ele>
        <time>2020-06-23T16:07:50Z</time>
      </trkpt>
      <trkpt lat="50.73999" lon="2.92599">
        <ele>19.4</ele>
        <time>2020-06-23T16:07:51Z</time>
      </trkpt>
      <trkpt lat="50.73998" lon="2.92602">
        <ele>19.4</ele>
        <time>2020-06-23T16:07:52Z</time>
      </trkpt>
      <trkpt lat="50.73997" lon="2.92606">
        <ele>19.4</ele>
        <time>2020-06-23T16:07:53Z</time>
      </trkpt>
      <trkpt lat="50.73997" lon="2.92608">
        <ele>19.4</ele>
        <time>2020-06-23T16:07:54Z</time>
      </trkpt>
      <trkpt lat="50.73997" lon="2.92613">
        <ele>19.4</ele>
        <time>2020-06-23T16:07:55Z</time>
      </trkpt>
      <trkpt lat="50.73997" lon="2.92615">
        <ele>19.4</ele>
        <time>2020-06-23T16:07:56Z</time>
      </trkpt>
      <trkpt lat="50.73997" lon="2.92621">
        <ele>19.4</ele>
        <time>2020-06-23T16:07:57Z</time>
      </trkpt>
      <trkpt lat="50.73998" lon="2.92627">
        <ele>19.3</ele>
        <time>2020-06-23T16:07:58Z</time>
      </trkpt>
      <trkpt lat="50.73998" lon="2.92633">
        <ele>19.3</ele>
        <time>2020-06-23T16:07:59Z</time>
      </trkpt>
      <trkpt lat="50.73998" lon="2.9264">
        <ele>19.2</ele>
        <time>2020-06-23T16:08:00Z</time>
      </trkpt>
      <trkpt lat="50.73998" lon="2.92647">
        <ele>19.2</ele>
        <time>2020-06-23T16:08:01Z</time>
      </trkpt>
      <trkpt lat="50.73998" lon="2.92654">
        <ele>19.2</ele>
        <time>2020-06-23T16:08:02Z</time>
      </trkpt>
      <trkpt lat="50.73999" lon="2.92662">
        <ele>19.1</ele>
        <time>2020-06-23T16:08:03Z</time>
      </trkpt>
      <trkpt lat="50.73999" lon="2.92669">
        <ele>19.1</ele>
        <time>2020-06-23T16:08:04Z</time>
      </trkpt>
      <trkpt lat="50.73999" lon="2.92677">
        <ele>19.1</ele>
        <time>2020-06-23T16:08:05Z</time>
      </trkpt>
      <trkpt lat="50.74" lon="2.92685">
        <ele>19.1</ele>
        <time>2020-06-23T16:08:06Z</time>
      </trkpt>
      <trkpt lat="50.74001" lon="2.92692">
        <ele>19.1</ele>
        <time>2020-06-23T16:08:07Z</time>
      </trkpt>
      <trkpt lat="50.74001" lon="2.92697">
        <ele>19.1</ele>
        <time>2020-06-23T16:08:08Z</time>
      </trkpt>
      <trkpt lat="50.74001" lon="2.92702">
        <ele>19</ele>
        <time>2020-06-23T16:08:09Z</time>
      </trkpt>
      <trkpt lat="50.73999" lon="2.92712">
        <ele>19</ele>
        <time>2020-06-23T16:08:10Z</time>
      </trkpt>
      <trkpt lat="50.73997" lon="2.92718">
        <ele>19</ele>
        <time>2020-06-23T16:08:11Z</time>
      </trkpt>
      <trkpt lat="50.73995" lon="2.92724">
        <ele>18.9</ele>
        <time>2020-06-23T16:08:12Z</time>
      </trkpt>
      <trkpt lat="50.73993" lon="2.92729">
        <ele>18.9</ele>
        <time>2020-06-23T16:08:13Z</time>
      </trkpt>
      <trkpt lat="50.73991" lon="2.92735">
        <ele>18.9</ele>
        <time>2020-06-23T16:08:14Z</time>
      </trkpt>
      <trkpt lat="50.73989" lon="2.92741">
        <ele>18.9</ele>
        <time>2020-06-23T16:08:15Z</time>
      </trkpt>
      <trkpt lat="50.73987" lon="2.92747">
        <ele>18.9</ele>
        <time>2020-06-23T16:08:16Z</time>
      </trkpt>
      <trkpt lat="50.73986" lon="2.92753">
        <ele>18.9</ele>
        <time>2020-06-23T16:08:17Z</time>
      </trkpt>
      <trkpt lat="50.73986" lon="2.92758">
        <ele>18.9</ele>
        <time>2020-06-23T16:08:18Z</time>
      </trkpt>
      <trkpt lat="50.73988" lon="2.92765">
        <ele>18.9</ele>
        <time>2020-06-23T16:08:19Z</time>
      </trkpt>
      <trkpt lat="50.7399" lon="2.92769">
        <ele>18.9</ele>
        <time>2020-06-23T16:08:20Z</time>
      </trkpt>
      <trkpt lat="50.73991" lon="2.92777">
        <ele>18.9</ele>
        <time>2020-06-23T16:08:21Z</time>
      </trkpt>
      <trkpt lat="50.73994" lon="2.92787">
        <ele>18.9</ele>
        <time>2020-06-23T16:08:22Z</time>
      </trkpt>
      <trkpt lat="50.73995" lon="2.92795">
        <ele>19</ele>
        <time>2020-06-23T16:08:23Z</time>
      </trkpt>
      <trkpt lat="50.73996" lon="2.928">
        <ele>19</ele>
        <time>2020-06-23T16:08:24Z</time>
      </trkpt>
      <trkpt lat="50.73997" lon="2.92807">
        <ele>19</ele>
        <time>2020-06-23T16:08:25Z</time>
      </trkpt>
      <trkpt lat="50.73999" lon="2.92814">
        <ele>19</ele>
        <time>2020-06-23T16:08:26Z</time>
      </trkpt>
      <trkpt lat="50.74001" lon="2.92822">
        <ele>19.1</ele>
        <time>2020-06-23T16:08:27Z</time>
      </trkpt>
      <trkpt lat="50.74005" lon="2.92832">
        <ele>19.1</ele>
        <time>2020-06-23T16:08:28Z</time>
      </trkpt>
      <trkpt lat="50.74008" lon="2.9284">
        <ele>19.2</ele>
        <time>2020-06-23T16:08:29Z</time>
      </trkpt>
      <trkpt lat="50.7401" lon="2.92846">
        <ele>19.2</ele>
        <time>2020-06-23T16:08:30Z</time>
      </trkpt>
      <trkpt lat="50.7401" lon="2.92852">
        <ele>19.3</ele>
        <time>2020-06-23T16:08:31Z</time>
      </trkpt>
      <trkpt lat="50.74007" lon="2.92857">
        <ele>19.3</ele>
        <time>2020-06-23T16:08:32Z</time>
      </trkpt>
      <trkpt lat="50.74005" lon="2.92865">
        <ele>19.8</ele>
        <time>2020-06-23T16:08:33Z</time>
      </trkpt>
      <trkpt lat="50.74004" lon="2.92871">
        <ele>19.8</ele>
        <time>2020-06-23T16:08:34Z</time>
      </trkpt>
      <trkpt lat="50.74003" lon="2.92878">
        <ele>19.6</ele>
        <time>2020-06-23T16:08:35Z</time>
      </trkpt>
      <trkpt lat="50.74001" lon="2.92883">
        <ele>19.5</ele>
        <time>2020-06-23T16:08:36Z</time>
      </trkpt>
      <trkpt lat="50.73999" lon="2.92889">
        <ele>19.4</ele>
        <time>2020-06-23T16:08:37Z</time>
      </trkpt>
      <trkpt lat="50.73998" lon="2.92896">
        <ele>19.3</ele>
        <time>2020-06-23T16:08:38Z</time>
      </trkpt>
      <trkpt lat="50.73997" lon="2.92904">
        <ele>19.2</ele>
        <time>2020-06-23T16:08:39Z</time>
      </trkpt>
      <trkpt lat="50.73996" lon="2.92911">
        <ele>19.1</ele>
        <time>2020-06-23T16:08:40Z</time>
      </trkpt>
      <trkpt lat="50.73995" lon="2.92917">
        <ele>19.1</ele>
        <time>2020-06-23T16:08:41Z</time>
      </trkpt>
      <trkpt lat="50.73992" lon="2.92924">
        <ele>19</ele>
        <time>2020-06-23T16:08:42Z</time>
      </trkpt>
      <trkpt lat="50.73987" lon="2.92932">
        <ele>18.9</ele>
        <time>2020-06-23T16:08:43Z</time>
      </trkpt>
      <trkpt lat="50.73984" lon="2.92938">
        <ele>18.8</ele>
        <time>2020-06-23T16:08:44Z</time>
      </trkpt>
      <trkpt lat="50.73981" lon="2.92943">
        <ele>18.7</ele>
        <time>2020-06-23T16:08:45Z</time>
      </trkpt>
      <trkpt lat="50.73977" lon="2.92948">
        <ele>18.7</ele>
        <time>2020-06-23T16:08:46Z</time>
      </trkpt>
      <trkpt lat="50.73973" lon="2.92953">
        <ele>18.6</ele>
        <time>2020-06-23T16:08:47Z</time>
      </trkpt>
      <trkpt lat="50.73969" lon="2.92958">
        <ele>18.5</ele>
        <time>2020-06-23T16:08:48Z</time>
      </trkpt>
      <trkpt lat="50.73963" lon="2.92963">
        <ele>18.3</ele>
        <time>2020-06-23T16:08:49Z</time>
      </trkpt>
      <trkpt lat="50.73958" lon="2.92967">
        <ele>18.3</ele>
        <time>2020-06-23T16:08:50Z</time>
      </trkpt>
      <trkpt lat="50.73954" lon="2.92972">
        <ele>18.2</ele>
        <time>2020-06-23T16:08:51Z</time>
      </trkpt>
      <trkpt lat="50.73949" lon="2.92978">
        <ele>18.1</ele>
        <time>2020-06-23T16:08:52Z</time>
      </trkpt>
      <trkpt lat="50.73945" lon="2.92984">
        <ele>18</ele>
        <time>2020-06-23T16:08:53Z</time>
      </trkpt>
      <trkpt lat="50.73942" lon="2.9299">
        <ele>18</ele>
        <time>2020-06-23T16:08:54Z</time>
      </trkpt>
      <trkpt lat="50.73939" lon="2.92997">
        <ele>17.9</ele>
        <time>2020-06-23T16:08:55Z</time>
      </trkpt>
      <trkpt lat="50.73937" lon="2.93004">
        <ele>17.9</ele>
        <time>2020-06-23T16:08:56Z</time>
      </trkpt>
      <trkpt lat="50.73934" lon="2.93011">
        <ele>17.9</ele>
        <time>2020-06-23T16:08:57Z</time>
      </trkpt>
      <trkpt lat="50.73931" lon="2.93018">
        <ele>17.9</ele>
        <time>2020-06-23T16:08:58Z</time>
      </trkpt>
      <trkpt lat="50.73929" lon="2.93027">
        <ele>17.9</ele>
        <time>2020-06-23T16:08:59Z</time>
      </trkpt>
      <trkpt lat="50.73928" lon="2.93036">
        <ele>17.9</ele>
        <time>2020-06-23T16:09:00Z</time>
      </trkpt>
      <trkpt lat="50.73926" lon="2.93043">
        <ele>17.8</ele>
        <time>2020-06-23T16:09:01Z</time>
      </trkpt>
      <trkpt lat="50.73927" lon="2.93049">
        <ele>17.8</ele>
        <time>2020-06-23T16:09:02Z</time>
      </trkpt>
      <trkpt lat="50.73927" lon="2.93056">
        <ele>17.8</ele>
        <time>2020-06-23T16:09:03Z</time>
      </trkpt>
      <trkpt lat="50.73928" lon="2.93063">
        <ele>17.8</ele>
        <time>2020-06-23T16:09:04Z</time>
      </trkpt>
      <trkpt lat="50.73928" lon="2.9307">
        <ele>17.8</ele>
        <time>2020-06-23T16:09:05Z</time>
      </trkpt>
      <trkpt lat="50.73929" lon="2.93077">
        <ele>17.8</ele>
        <time>2020-06-23T16:09:06Z</time>
      </trkpt>
      <trkpt lat="50.73928" lon="2.93084">
        <ele>17.8</ele>
        <time>2020-06-23T16:09:07Z</time>
      </trkpt>
      <trkpt lat="50.73929" lon="2.93091">
        <ele>17.8</ele>
        <time>2020-06-23T16:09:08Z</time>
      </trkpt>
      <trkpt lat="50.73928" lon="2.93099">
        <ele>17.8</ele>
        <time>2020-06-23T16:09:09Z</time>
      </trkpt>
      <trkpt lat="50.73927" lon="2.93107">
        <ele>17.8</ele>
        <time>2020-06-23T16:09:10Z</time>
      </trkpt>
      <trkpt lat="50.73927" lon="2.93114">
        <ele>17.8</ele>
        <time>2020-06-23T16:09:11Z</time>
      </trkpt>
      <trkpt lat="50.73927" lon="2.93122">
        <ele>17.9</ele>
        <time>2020-06-23T16:09:12Z</time>
      </trkpt>
      <trkpt lat="50.73927" lon="2.93128">
        <ele>17.9</ele>
        <time>2020-06-23T16:09:13Z</time>
      </trkpt>
      <trkpt lat="50.73928" lon="2.93134">
        <ele>17.9</ele>
        <time>2020-06-23T16:09:14Z</time>
      </trkpt>
      <trkpt lat="50.73927" lon="2.9314">
        <ele>18</ele>
        <time>2020-06-23T16:09:15Z</time>
      </trkpt>
      <trkpt lat="50.73927" lon="2.93146">
        <ele>18</ele>
        <time>2020-06-23T16:09:16Z</time>
      </trkpt>
      <trkpt lat="50.73927" lon="2.93153">
        <ele>17.9</ele>
        <time>2020-06-23T16:09:17Z</time>
      </trkpt>
      <trkpt lat="50.73928" lon="2.93161">
        <ele>17.9</ele>
        <time>2020-06-23T16:09:18Z</time>
      </trkpt>
      <trkpt lat="50.73928" lon="2.93167">
        <ele>17.9</ele>
        <time>2020-06-23T16:09:19Z</time>
      </trkpt>
      <trkpt lat="50.73928" lon="2.93175">
        <ele>17.9</ele>
        <time>2020-06-23T16:09:20Z</time>
      </trkpt>
      <trkpt lat="50.73928" lon="2.93181">
        <ele>17.9</ele>
        <time>2020-06-23T16:09:21Z</time>
      </trkpt>
      <trkpt lat="50.73928" lon="2.93188">
        <ele>17.9</ele>
        <time>2020-06-23T16:09:22Z</time>
      </trkpt>
      <trkpt lat="50.73928" lon="2.93193">
        <ele>17.9</ele>
        <time>2020-06-23T16:09:23Z</time>
      </trkpt>
      <trkpt lat="50.73928" lon="2.93198">
        <ele>17.9</ele>
        <time>2020-06-23T16:09:24Z</time>
      </trkpt>
      <trkpt lat="50.73928" lon="2.93204">
        <ele>17.9</ele>
        <time>2020-06-23T16:09:25Z</time>
      </trkpt>
      <trkpt lat="50.73928" lon="2.93209">
        <ele>17.9</ele>
        <time>2020-06-23T16:09:26Z</time>
      </trkpt>
      <trkpt lat="50.73928" lon="2.93214">
        <ele>17.9</ele>
        <time>2020-06-23T16:09:27Z</time>
      </trkpt>
      <trkpt lat="50.73929" lon="2.93216">
        <ele>17.9</ele>
        <time>2020-06-23T16:09:28Z</time>
      </trkpt>
      <trkpt lat="50.73928" lon="2.93219">
        <ele>17.8</ele>
        <time>2020-06-23T16:09:29Z</time>
      </trkpt>
      <trkpt lat="50.73926" lon="2.9322">
        <ele>17.8</ele>
        <time>2020-06-23T16:09:30Z</time>
      </trkpt>
      <trkpt lat="50.73924" lon="2.93221">
        <ele>17.7</ele>
        <time>2020-06-23T16:09:31Z</time>
      </trkpt>
      <trkpt lat="50.7392" lon="2.93221">
        <ele>17.6</ele>
        <time>2020-06-23T16:09:32Z</time>
      </trkpt>
      <trkpt lat="50.73916" lon="2.93221">
        <ele>17.5</ele>
        <time>2020-06-23T16:09:33Z</time>
      </trkpt>
      <trkpt lat="50.73912" lon="2.93221">
        <ele>17.4</ele>
        <time>2020-06-23T16:09:34Z</time>
      </trkpt>
      <trkpt lat="50.73908" lon="2.93223">
        <ele>17.3</ele>
        <time>2020-06-23T16:09:35Z</time>
      </trkpt>
      <trkpt lat="50.73902" lon="2.93224">
        <ele>17.1</ele>
        <time>2020-06-23T16:09:36Z</time>
      </trkpt>
      <trkpt lat="50.73896" lon="2.93225">
        <ele>17.1</ele>
        <time>2020-06-23T16:09:37Z</time>
      </trkpt>
      <trkpt lat="50.73891" lon="2.93227">
        <ele>17</ele>
        <time>2020-06-23T16:09:38Z</time>
      </trkpt>
      <trkpt lat="50.73885" lon="2.93228">
        <ele>16.9</ele>
        <time>2020-06-23T16:09:39Z</time>
      </trkpt>
      <trkpt lat="50.7388" lon="2.93227">
        <ele>16.8</ele>
        <time>2020-06-23T16:09:40Z</time>
      </trkpt>
      <trkpt lat="50.73875" lon="2.93225">
        <ele>16.8</ele>
        <time>2020-06-23T16:09:41Z</time>
      </trkpt>
      <trkpt lat="50.73868" lon="2.93225">
        <ele>16.7</ele>
        <time>2020-06-23T16:09:42Z</time>
      </trkpt>
      <trkpt lat="50.73861" lon="2.93226">
        <ele>16.6</ele>
        <time>2020-06-23T16:09:43Z</time>
      </trkpt>
      <trkpt lat="50.73856" lon="2.93227">
        <ele>16.6</ele>
        <time>2020-06-23T16:09:44Z</time>
      </trkpt>
      <trkpt lat="50.7385" lon="2.93228">
        <ele>16.5</ele>
        <time>2020-06-23T16:09:45Z</time>
      </trkpt>
      <trkpt lat="50.73844" lon="2.93229">
        <ele>16.5</ele>
        <time>2020-06-23T16:09:46Z</time>
      </trkpt>
      <trkpt lat="50.73838" lon="2.93229">
        <ele>16.5</ele>
        <time>2020-06-23T16:09:47Z</time>
      </trkpt>
      <trkpt lat="50.73832" lon="2.9323">
        <ele>16.5</ele>
        <time>2020-06-23T16:09:48Z</time>
      </trkpt>
      <trkpt lat="50.73825" lon="2.93231">
        <ele>16.5</ele>
        <time>2020-06-23T16:09:49Z</time>
      </trkpt>
      <trkpt lat="50.73818" lon="2.93232">
        <ele>16.5</ele>
        <time>2020-06-23T16:09:50Z</time>
      </trkpt>
      <trkpt lat="50.73812" lon="2.93233">
        <ele>16.5</ele>
        <time>2020-06-23T16:09:51Z</time>
      </trkpt>
      <trkpt lat="50.73805" lon="2.93233">
        <ele>16.5</ele>
        <time>2020-06-23T16:09:52Z</time>
      </trkpt>
      <trkpt lat="50.73797" lon="2.93233">
        <ele>16.5</ele>
        <time>2020-06-23T16:09:53Z</time>
      </trkpt>
      <trkpt lat="50.7379" lon="2.93234">
        <ele>16.6</ele>
        <time>2020-06-23T16:09:54Z</time>
      </trkpt>
      <trkpt lat="50.73783" lon="2.93234">
        <ele>16.6</ele>
        <time>2020-06-23T16:09:55Z</time>
      </trkpt>
      <trkpt lat="50.73777" lon="2.93233">
        <ele>16.7</ele>
        <time>2020-06-23T16:09:56Z</time>
      </trkpt>
      <trkpt lat="50.73771" lon="2.93233">
        <ele>16.7</ele>
        <time>2020-06-23T16:09:57Z</time>
      </trkpt>
      <trkpt lat="50.73765" lon="2.93233">
        <ele>16.7</ele>
        <time>2020-06-23T16:09:58Z</time>
      </trkpt>
      <trkpt lat="50.73759" lon="2.93233">
        <ele>16.7</ele>
        <time>2020-06-23T16:09:59Z</time>
      </trkpt>
      <trkpt lat="50.73753" lon="2.93233">
        <ele>16.7</ele>
        <time>2020-06-23T16:10:00Z</time>
      </trkpt>
      <trkpt lat="50.73747" lon="2.93234">
        <ele>16.7</ele>
        <time>2020-06-23T16:10:01Z</time>
      </trkpt>
      <trkpt lat="50.73741" lon="2.93235">
        <ele>16.7</ele>
        <time>2020-06-23T16:10:02Z</time>
      </trkpt>
      <trkpt lat="50.73734" lon="2.93235">
        <ele>16.7</ele>
        <time>2020-06-23T16:10:03Z</time>
      </trkpt>
      <trkpt lat="50.73729" lon="2.93234">
        <ele>16.8</ele>
        <time>2020-06-23T16:10:04Z</time>
      </trkpt>
      <trkpt lat="50.73725" lon="2.93232">
        <ele>16.8</ele>
        <time>2020-06-23T16:10:05Z</time>
      </trkpt>
      <trkpt lat="50.73719" lon="2.93231">
        <ele>16.8</ele>
        <time>2020-06-23T16:10:06Z</time>
      </trkpt>
      <trkpt lat="50.73713" lon="2.9323">
        <ele>16.8</ele>
        <time>2020-06-23T16:10:07Z</time>
      </trkpt>
      <trkpt lat="50.73708" lon="2.93231">
        <ele>16.8</ele>
        <time>2020-06-23T16:10:08Z</time>
      </trkpt>
      <trkpt lat="50.73702" lon="2.93232">
        <ele>16.8</ele>
        <time>2020-06-23T16:10:09Z</time>
      </trkpt>
      <trkpt lat="50.73696" lon="2.93231">
        <ele>16.9</ele>
        <time>2020-06-23T16:10:10Z</time>
      </trkpt>
      <trkpt lat="50.7369" lon="2.93232">
        <ele>16.9</ele>
        <time>2020-06-23T16:10:11Z</time>
      </trkpt>
      <trkpt lat="50.73684" lon="2.93231">
        <ele>16.9</ele>
        <time>2020-06-23T16:10:12Z</time>
      </trkpt>
      <trkpt lat="50.73678" lon="2.93231">
        <ele>16.9</ele>
        <time>2020-06-23T16:10:13Z</time>
      </trkpt>
      <trkpt lat="50.73673" lon="2.9323">
        <ele>16.8</ele>
        <time>2020-06-23T16:10:14Z</time>
      </trkpt>
      <trkpt lat="50.73667" lon="2.93229">
        <ele>16.8</ele>
        <time>2020-06-23T16:10:15Z</time>
      </trkpt>
      <trkpt lat="50.73659" lon="2.93229">
        <ele>16.8</ele>
        <time>2020-06-23T16:10:16Z</time>
      </trkpt>
      <trkpt lat="50.73653" lon="2.93228">
        <ele>16.8</ele>
        <time>2020-06-23T16:10:17Z</time>
      </trkpt>
      <trkpt lat="50.73646" lon="2.93227">
        <ele>16.8</ele>
        <time>2020-06-23T16:10:18Z</time>
      </trkpt>
      <trkpt lat="50.7364" lon="2.93225">
        <ele>16.8</ele>
        <time>2020-06-23T16:10:19Z</time>
      </trkpt>
      <trkpt lat="50.73635" lon="2.93224">
        <ele>16.9</ele>
        <time>2020-06-23T16:10:20Z</time>
      </trkpt>
      <trkpt lat="50.73629" lon="2.93223">
        <ele>16.9</ele>
        <time>2020-06-23T16:10:21Z</time>
      </trkpt>
      <trkpt lat="50.73623" lon="2.93221">
        <ele>17</ele>
        <time>2020-06-23T16:10:22Z</time>
      </trkpt>
      <trkpt lat="50.73617" lon="2.93219">
        <ele>17.1</ele>
        <time>2020-06-23T16:10:23Z</time>
      </trkpt>
      <trkpt lat="50.73612" lon="2.93217">
        <ele>17.1</ele>
        <time>2020-06-23T16:10:24Z</time>
      </trkpt>
      <trkpt lat="50.73607" lon="2.93215">
        <ele>17.2</ele>
        <time>2020-06-23T16:10:25Z</time>
      </trkpt>
      <trkpt lat="50.736" lon="2.93214">
        <ele>17.1</ele>
        <time>2020-06-23T16:10:26Z</time>
      </trkpt>
      <trkpt lat="50.73594" lon="2.93213">
        <ele>17.1</ele>
        <time>2020-06-23T16:10:27Z</time>
      </trkpt>
      <trkpt lat="50.73588" lon="2.93211">
        <ele>17.1</ele>
        <time>2020-06-23T16:10:28Z</time>
      </trkpt>
      <trkpt lat="50.73582" lon="2.9321">
        <ele>17.1</ele>
        <time>2020-06-23T16:10:29Z</time>
      </trkpt>
      <trkpt lat="50.73576" lon="2.9321">
        <ele>17.1</ele>
        <time>2020-06-23T16:10:30Z</time>
      </trkpt>
      <trkpt lat="50.7357" lon="2.93209">
        <ele>17.1</ele>
        <time>2020-06-23T16:10:31Z</time>
      </trkpt>
      <trkpt lat="50.73564" lon="2.93209">
        <ele>17</ele>
        <time>2020-06-23T16:10:32Z</time>
      </trkpt>
      <trkpt lat="50.73557" lon="2.93209">
        <ele>17</ele>
        <time>2020-06-23T16:10:33Z</time>
      </trkpt>
      <trkpt lat="50.73551" lon="2.93209">
        <ele>16.9</ele>
        <time>2020-06-23T16:10:34Z</time>
      </trkpt>
      <trkpt lat="50.73545" lon="2.93211">
        <ele>16.9</ele>
        <time>2020-06-23T16:10:35Z</time>
      </trkpt>
      <trkpt lat="50.7354" lon="2.93215">
        <ele>16.8</ele>
        <time>2020-06-23T16:10:36Z</time>
      </trkpt>
      <trkpt lat="50.73532" lon="2.93221">
        <ele>16.7</ele>
        <time>2020-06-23T16:10:37Z</time>
      </trkpt>
      <trkpt lat="50.73525" lon="2.93227">
        <ele>16.7</ele>
        <time>2020-06-23T16:10:38Z</time>
      </trkpt>
      <trkpt lat="50.73519" lon="2.93232">
        <ele>16.6</ele>
        <time>2020-06-23T16:10:39Z</time>
      </trkpt>
      <trkpt lat="50.73513" lon="2.93237">
        <ele>16.6</ele>
        <time>2020-06-23T16:10:40Z</time>
      </trkpt>
      <trkpt lat="50.73508" lon="2.93241">
        <ele>16.5</ele>
        <time>2020-06-23T16:10:41Z</time>
      </trkpt>
      <trkpt lat="50.73503" lon="2.93245">
        <ele>16.4</ele>
        <time>2020-06-23T16:10:42Z</time>
      </trkpt>
      <trkpt lat="50.73497" lon="2.93248">
        <ele>16.2</ele>
        <time>2020-06-23T16:10:43Z</time>
      </trkpt>
      <trkpt lat="50.73491" lon="2.93252">
        <ele>16.1</ele>
        <time>2020-06-23T16:10:44Z</time>
      </trkpt>
      <trkpt lat="50.73485" lon="2.93255">
        <ele>16</ele>
        <time>2020-06-23T16:10:45Z</time>
      </trkpt>
      <trkpt lat="50.73479" lon="2.93257">
        <ele>15.9</ele>
        <time>2020-06-23T16:10:46Z</time>
      </trkpt>
      <trkpt lat="50.73472" lon="2.9326">
        <ele>15.9</ele>
        <time>2020-06-23T16:10:47Z</time>
      </trkpt>
      <trkpt lat="50.73466" lon="2.93262">
        <ele>15.8</ele>
        <time>2020-06-23T16:10:48Z</time>
      </trkpt>
      <trkpt lat="50.73459" lon="2.93264">
        <ele>15.7</ele>
        <time>2020-06-23T16:10:49Z</time>
      </trkpt>
      <trkpt lat="50.73453" lon="2.93266">
        <ele>15.5</ele>
        <time>2020-06-23T16:10:50Z</time>
      </trkpt>
      <trkpt lat="50.73447" lon="2.93267">
        <ele>15.4</ele>
        <time>2020-06-23T16:10:51Z</time>
      </trkpt>
      <trkpt lat="50.7344" lon="2.93269">
        <ele>15.3</ele>
        <time>2020-06-23T16:10:52Z</time>
      </trkpt>
      <trkpt lat="50.73435" lon="2.93269">
        <ele>15.2</ele>
        <time>2020-06-23T16:10:53Z</time>
      </trkpt>
      <trkpt lat="50.73429" lon="2.93269">
        <ele>15.1</ele>
        <time>2020-06-23T16:10:54Z</time>
      </trkpt>
      <trkpt lat="50.73423" lon="2.93269">
        <ele>15</ele>
        <time>2020-06-23T16:10:55Z</time>
      </trkpt>
      <trkpt lat="50.73418" lon="2.9327">
        <ele>14.9</ele>
        <time>2020-06-23T16:10:56Z</time>
      </trkpt>
      <trkpt lat="50.73412" lon="2.93271">
        <ele>14.9</ele>
        <time>2020-06-23T16:10:57Z</time>
      </trkpt>
      <trkpt lat="50.73407" lon="2.93271">
        <ele>14.8</ele>
        <time>2020-06-23T16:10:58Z</time>
      </trkpt>
      <trkpt lat="50.73401" lon="2.93271">
        <ele>14.7</ele>
        <time>2020-06-23T16:10:59Z</time>
      </trkpt>
      <trkpt lat="50.73395" lon="2.93271">
        <ele>14.6</ele>
        <time>2020-06-23T16:11:00Z</time>
      </trkpt>
      <trkpt lat="50.73389" lon="2.9327">
        <ele>14.5</ele>
        <time>2020-06-23T16:11:01Z</time>
      </trkpt>
      <trkpt lat="50.73382" lon="2.9327">
        <ele>14.4</ele>
        <time>2020-06-23T16:11:02Z</time>
      </trkpt>
      <trkpt lat="50.73376" lon="2.93272">
        <ele>14.3</ele>
        <time>2020-06-23T16:11:03Z</time>
      </trkpt>
      <trkpt lat="50.7337" lon="2.93274">
        <ele>14.2</ele>
        <time>2020-06-23T16:11:04Z</time>
      </trkpt>
      <trkpt lat="50.73363" lon="2.93277">
        <ele>14.1</ele>
        <time>2020-06-23T16:11:05Z</time>
      </trkpt>
      <trkpt lat="50.73357" lon="2.9328">
        <ele>14.1</ele>
        <time>2020-06-23T16:11:06Z</time>
      </trkpt>
      <trkpt lat="50.7335" lon="2.93286">
        <ele>14.1</ele>
        <time>2020-06-23T16:11:07Z</time>
      </trkpt>
      <trkpt lat="50.73343" lon="2.93291">
        <ele>14.2</ele>
        <time>2020-06-23T16:11:08Z</time>
      </trkpt>
      <trkpt lat="50.73337" lon="2.93295">
        <ele>14.3</ele>
        <time>2020-06-23T16:11:09Z</time>
      </trkpt>
      <trkpt lat="50.7333" lon="2.93299">
        <ele>14.3</ele>
        <time>2020-06-23T16:11:10Z</time>
      </trkpt>
      <trkpt lat="50.73324" lon="2.93304">
        <ele>14.3</ele>
        <time>2020-06-23T16:11:11Z</time>
      </trkpt>
      <trkpt lat="50.73317" lon="2.93308">
        <ele>14.4</ele>
        <time>2020-06-23T16:11:12Z</time>
      </trkpt>
      <trkpt lat="50.73311" lon="2.93312">
        <ele>14.4</ele>
        <time>2020-06-23T16:11:13Z</time>
      </trkpt>
      <trkpt lat="50.73306" lon="2.93317">
        <ele>14.4</ele>
        <time>2020-06-23T16:11:14Z</time>
      </trkpt>
      <trkpt lat="50.73299" lon="2.93323">
        <ele>14.5</ele>
        <time>2020-06-23T16:11:15Z</time>
      </trkpt>
      <trkpt lat="50.73294" lon="2.93327">
        <ele>14.5</ele>
        <time>2020-06-23T16:11:16Z</time>
      </trkpt>
      <trkpt lat="50.73289" lon="2.93332">
        <ele>14.4</ele>
        <time>2020-06-23T16:11:17Z</time>
      </trkpt>
      <trkpt lat="50.73284" lon="2.93337">
        <ele>14.4</ele>
        <time>2020-06-23T16:11:18Z</time>
      </trkpt>
      <trkpt lat="50.73278" lon="2.93342">
        <ele>14.4</ele>
        <time>2020-06-23T16:11:19Z</time>
      </trkpt>
      <trkpt lat="50.73272" lon="2.93346">
        <ele>14.5</ele>
        <time>2020-06-23T16:11:20Z</time>
      </trkpt>
      <trkpt lat="50.73267" lon="2.9335">
        <ele>14.5</ele>
        <time>2020-06-23T16:11:21Z</time>
      </trkpt>
      <trkpt lat="50.7326" lon="2.93355">
        <ele>14.5</ele>
        <time>2020-06-23T16:11:22Z</time>
      </trkpt>
      <trkpt lat="50.73253" lon="2.93358">
        <ele>14.6</ele>
        <time>2020-06-23T16:11:23Z</time>
      </trkpt>
      <trkpt lat="50.73248" lon="2.93363">
        <ele>14.6</ele>
        <time>2020-06-23T16:11:24Z</time>
      </trkpt>
      <trkpt lat="50.73242" lon="2.93369">
        <ele>14.6</ele>
        <time>2020-06-23T16:11:25Z</time>
      </trkpt>
      <trkpt lat="50.73236" lon="2.93374">
        <ele>14.6</ele>
        <time>2020-06-23T16:11:26Z</time>
      </trkpt>
      <trkpt lat="50.7323" lon="2.93379">
        <ele>14.7</ele>
        <time>2020-06-23T16:11:27Z</time>
      </trkpt>
      <trkpt lat="50.73225" lon="2.93384">
        <ele>14.6</ele>
        <time>2020-06-23T16:11:28Z</time>
      </trkpt>
      <trkpt lat="50.7322" lon="2.93388">
        <ele>14.6</ele>
        <time>2020-06-23T16:11:29Z</time>
      </trkpt>
      <trkpt lat="50.73215" lon="2.93393">
        <ele>14.6</ele>
        <time>2020-06-23T16:11:30Z</time>
      </trkpt>
      <trkpt lat="50.73209" lon="2.93398">
        <ele>14.7</ele>
        <time>2020-06-23T16:11:31Z</time>
      </trkpt>
      <trkpt lat="50.73203" lon="2.93402">
        <ele>14.7</ele>
        <time>2020-06-23T16:11:32Z</time>
      </trkpt>
      <trkpt lat="50.73197" lon="2.93408">
        <ele>14.7</ele>
        <time>2020-06-23T16:11:33Z</time>
      </trkpt>
      <trkpt lat="50.73192" lon="2.93413">
        <ele>14.7</ele>
        <time>2020-06-23T16:11:34Z</time>
      </trkpt>
      <trkpt lat="50.73187" lon="2.93419">
        <ele>14.7</ele>
        <time>2020-06-23T16:11:35Z</time>
      </trkpt>
      <trkpt lat="50.73182" lon="2.93425">
        <ele>14.7</ele>
        <time>2020-06-23T16:11:36Z</time>
      </trkpt>
      <trkpt lat="50.73177" lon="2.9343">
        <ele>14.7</ele>
        <time>2020-06-23T16:11:37Z</time>
      </trkpt>
      <trkpt lat="50.73173" lon="2.93435">
        <ele>14.7</ele>
        <time>2020-06-23T16:11:38Z</time>
      </trkpt>
      <trkpt lat="50.73168" lon="2.93439">
        <ele>14.7</ele>
        <time>2020-06-23T16:11:39Z</time>
      </trkpt>
      <trkpt lat="50.73164" lon="2.93443">
        <ele>14.7</ele>
        <time>2020-06-23T16:11:40Z</time>
      </trkpt>
      <trkpt lat="50.73159" lon="2.93448">
        <ele>14.7</ele>
        <time>2020-06-23T16:11:41Z</time>
      </trkpt>
      <trkpt lat="50.73154" lon="2.93453">
        <ele>14.7</ele>
        <time>2020-06-23T16:11:42Z</time>
      </trkpt>
      <trkpt lat="50.73149" lon="2.9346">
        <ele>14.7</ele>
        <time>2020-06-23T16:11:43Z</time>
      </trkpt>
      <trkpt lat="50.73144" lon="2.93468">
        <ele>14.7</ele>
        <time>2020-06-23T16:11:44Z</time>
      </trkpt>
      <trkpt lat="50.7314" lon="2.93474">
        <ele>14.7</ele>
        <time>2020-06-23T16:11:45Z</time>
      </trkpt>
      <trkpt lat="50.73136" lon="2.93481">
        <ele>14.7</ele>
        <time>2020-06-23T16:11:46Z</time>
      </trkpt>
      <trkpt lat="50.73132" lon="2.93487">
        <ele>14.7</ele>
        <time>2020-06-23T16:11:47Z</time>
      </trkpt>
      <trkpt lat="50.73128" lon="2.93492">
        <ele>14.7</ele>
        <time>2020-06-23T16:11:48Z</time>
      </trkpt>
      <trkpt lat="50.73124" lon="2.93499">
        <ele>14.7</ele>
        <time>2020-06-23T16:11:49Z</time>
      </trkpt>
      <trkpt lat="50.7312" lon="2.93504">
        <ele>14.7</ele>
        <time>2020-06-23T16:11:50Z</time>
      </trkpt>
      <trkpt lat="50.73116" lon="2.9351">
        <ele>14.8</ele>
        <time>2020-06-23T16:11:51Z</time>
      </trkpt>
      <trkpt lat="50.73112" lon="2.93516">
        <ele>14.8</ele>
        <time>2020-06-23T16:11:52Z</time>
      </trkpt>
      <trkpt lat="50.73108" lon="2.93522">
        <ele>14.9</ele>
        <time>2020-06-23T16:11:53Z</time>
      </trkpt>
      <trkpt lat="50.73104" lon="2.93527">
        <ele>14.9</ele>
        <time>2020-06-23T16:11:54Z</time>
      </trkpt>
      <trkpt lat="50.73099" lon="2.93534">
        <ele>15</ele>
        <time>2020-06-23T16:11:55Z</time>
      </trkpt>
      <trkpt lat="50.73095" lon="2.93541">
        <ele>15.1</ele>
        <time>2020-06-23T16:11:56Z</time>
      </trkpt>
      <trkpt lat="50.73091" lon="2.93547">
        <ele>15.2</ele>
        <time>2020-06-23T16:11:57Z</time>
      </trkpt>
      <trkpt lat="50.73086" lon="2.93554">
        <ele>15.2</ele>
        <time>2020-06-23T16:11:58Z</time>
      </trkpt>
      <trkpt lat="50.73082" lon="2.9356">
        <ele>15.3</ele>
        <time>2020-06-23T16:11:59Z</time>
      </trkpt>
      <trkpt lat="50.73077" lon="2.93567">
        <ele>15.4</ele>
        <time>2020-06-23T16:12:00Z</time>
      </trkpt>
      <trkpt lat="50.73073" lon="2.93572">
        <ele>15.5</ele>
        <time>2020-06-23T16:12:01Z</time>
      </trkpt>
      <trkpt lat="50.73069" lon="2.93578">
        <ele>15.6</ele>
        <time>2020-06-23T16:12:02Z</time>
      </trkpt>
      <trkpt lat="50.73066" lon="2.93583">
        <ele>15.6</ele>
        <time>2020-06-23T16:12:03Z</time>
      </trkpt>
      <trkpt lat="50.73062" lon="2.93588">
        <ele>15.7</ele>
        <time>2020-06-23T16:12:04Z</time>
      </trkpt>
      <trkpt lat="50.73058" lon="2.93594">
        <ele>15.8</ele>
        <time>2020-06-23T16:12:05Z</time>
      </trkpt>
      <trkpt lat="50.73054" lon="2.936">
        <ele>15.8</ele>
        <time>2020-06-23T16:12:06Z</time>
      </trkpt>
      <trkpt lat="50.73049" lon="2.93606">
        <ele>15.9</ele>
        <time>2020-06-23T16:12:07Z</time>
      </trkpt>
      <trkpt lat="50.73045" lon="2.93612">
        <ele>16</ele>
        <time>2020-06-23T16:12:08Z</time>
      </trkpt>
      <trkpt lat="50.73041" lon="2.93619">
        <ele>16.1</ele>
        <time>2020-06-23T16:12:09Z</time>
      </trkpt>
      <trkpt lat="50.73037" lon="2.93625">
        <ele>16.2</ele>
        <time>2020-06-23T16:12:10Z</time>
      </trkpt>
      <trkpt lat="50.73034" lon="2.93632">
        <ele>16.3</ele>
        <time>2020-06-23T16:12:11Z</time>
      </trkpt>
      <trkpt lat="50.73031" lon="2.93638">
        <ele>16.4</ele>
        <time>2020-06-23T16:12:12Z</time>
      </trkpt>
      <trkpt lat="50.73029" lon="2.93643">
        <ele>16.6</ele>
        <time>2020-06-23T16:12:13Z</time>
      </trkpt>
      <trkpt lat="50.73027" lon="2.93647">
        <ele>16.7</ele>
        <time>2020-06-23T16:12:14Z</time>
      </trkpt>
      <trkpt lat="50.73025" lon="2.93651">
        <ele>16.8</ele>
        <time>2020-06-23T16:12:15Z</time>
      </trkpt>
      <trkpt lat="50.73023" lon="2.93656">
        <ele>16.9</ele>
        <time>2020-06-23T16:12:16Z</time>
      </trkpt>
      <trkpt lat="50.73022" lon="2.93658">
        <ele>16.9</ele>
        <time>2020-06-23T16:12:17Z</time>
      </trkpt>
      <trkpt lat="50.7302" lon="2.93662">
        <ele>16.9</ele>
        <time>2020-06-23T16:12:18Z</time>
      </trkpt>
      <trkpt lat="50.73017" lon="2.93667">
        <ele>16.9</ele>
        <time>2020-06-23T16:12:19Z</time>
      </trkpt>
      <trkpt lat="50.73015" lon="2.93669">
        <ele>16.9</ele>
        <time>2020-06-23T16:12:20Z</time>
      </trkpt>
      <trkpt lat="50.73012" lon="2.93673">
        <ele>16.9</ele>
        <time>2020-06-23T16:12:21Z</time>
      </trkpt>
      <trkpt lat="50.7301" lon="2.93677">
        <ele>16.9</ele>
        <time>2020-06-23T16:12:22Z</time>
      </trkpt>
      <trkpt lat="50.73008" lon="2.93681">
        <ele>16.9</ele>
        <time>2020-06-23T16:12:23Z</time>
      </trkpt>
      <trkpt lat="50.73005" lon="2.93687">
        <ele>16.9</ele>
        <time>2020-06-23T16:12:24Z</time>
      </trkpt>
      <trkpt lat="50.73004" lon="2.93691">
        <ele>16.9</ele>
        <time>2020-06-23T16:12:25Z</time>
      </trkpt>
      <trkpt lat="50.73002" lon="2.93695">
        <ele>16.9</ele>
        <time>2020-06-23T16:12:26Z</time>
      </trkpt>
      <trkpt lat="50.73001" lon="2.937">
        <ele>16.8</ele>
        <time>2020-06-23T16:12:27Z</time>
      </trkpt>
      <trkpt lat="50.72998" lon="2.93704">
        <ele>16.8</ele>
        <time>2020-06-23T16:12:28Z</time>
      </trkpt>
      <trkpt lat="50.72996" lon="2.93708">
        <ele>16.8</ele>
        <time>2020-06-23T16:12:29Z</time>
      </trkpt>
      <trkpt lat="50.72994" lon="2.93714">
        <ele>16.8</ele>
        <time>2020-06-23T16:12:30Z</time>
      </trkpt>
      <trkpt lat="50.72994" lon="2.93716">
        <ele>16.8</ele>
        <time>2020-06-23T16:12:31Z</time>
      </trkpt>
      <trkpt lat="50.72991" lon="2.93721">
        <ele>16.7</ele>
        <time>2020-06-23T16:12:32Z</time>
      </trkpt>
      <trkpt lat="50.7299" lon="2.93724">
        <ele>16.7</ele>
        <time>2020-06-23T16:12:33Z</time>
      </trkpt>
      <trkpt lat="50.72989" lon="2.93728">
        <ele>16.6</ele>
        <time>2020-06-23T16:12:34Z</time>
      </trkpt>
      <trkpt lat="50.72987" lon="2.93735">
        <ele>16.5</ele>
        <time>2020-06-23T16:12:35Z</time>
      </trkpt>
      <trkpt lat="50.72985" lon="2.93743">
        <ele>16.4</ele>
        <time>2020-06-23T16:12:36Z</time>
      </trkpt>
      <trkpt lat="50.72982" lon="2.93749">
        <ele>16.3</ele>
        <time>2020-06-23T16:12:37Z</time>
      </trkpt>
      <trkpt lat="50.72979" lon="2.93756">
        <ele>16.2</ele>
        <time>2020-06-23T16:12:38Z</time>
      </trkpt>
      <trkpt lat="50.72974" lon="2.93761">
        <ele>16</ele>
        <time>2020-06-23T16:12:39Z</time>
      </trkpt>
      <trkpt lat="50.7297" lon="2.93766">
        <ele>16</ele>
        <time>2020-06-23T16:12:40Z</time>
      </trkpt>
      <trkpt lat="50.72966" lon="2.93772">
        <ele>15.9</ele>
        <time>2020-06-23T16:12:41Z</time>
      </trkpt>
      <trkpt lat="50.72962" lon="2.93776">
        <ele>15.9</ele>
        <time>2020-06-23T16:12:42Z</time>
      </trkpt>
      <trkpt lat="50.7296" lon="2.9378">
        <ele>15.9</ele>
        <time>2020-06-23T16:12:43Z</time>
      </trkpt>
      <trkpt lat="50.72957" lon="2.93784">
        <ele>15.8</ele>
        <time>2020-06-23T16:12:44Z</time>
      </trkpt>
      <trkpt lat="50.72955" lon="2.93788">
        <ele>15.7</ele>
        <time>2020-06-23T16:12:45Z</time>
      </trkpt>
      <trkpt lat="50.72952" lon="2.93792">
        <ele>15.7</ele>
        <time>2020-06-23T16:12:46Z</time>
      </trkpt>
      <trkpt lat="50.72949" lon="2.93795">
        <ele>15.6</ele>
        <time>2020-06-23T16:12:47Z</time>
      </trkpt>
      <trkpt lat="50.72947" lon="2.93801">
        <ele>15.6</ele>
        <time>2020-06-23T16:12:48Z</time>
      </trkpt>
      <trkpt lat="50.72944" lon="2.93807">
        <ele>15.5</ele>
        <time>2020-06-23T16:12:49Z</time>
      </trkpt>
      <trkpt lat="50.72941" lon="2.93812">
        <ele>15.5</ele>
        <time>2020-06-23T16:12:50Z</time>
      </trkpt>
      <trkpt lat="50.72939" lon="2.93816">
        <ele>15.4</ele>
        <time>2020-06-23T16:12:51Z</time>
      </trkpt>
      <trkpt lat="50.72937" lon="2.9382">
        <ele>15.4</ele>
        <time>2020-06-23T16:12:52Z</time>
      </trkpt>
      <trkpt lat="50.72934" lon="2.93823">
        <ele>15.4</ele>
        <time>2020-06-23T16:12:53Z</time>
      </trkpt>
      <trkpt lat="50.72931" lon="2.93827">
        <ele>15.3</ele>
        <time>2020-06-23T16:12:54Z</time>
      </trkpt>
      <trkpt lat="50.7293" lon="2.93828">
        <ele>15.3</ele>
        <time>2020-06-23T16:12:55Z</time>
      </trkpt>
      <trkpt lat="50.72927" lon="2.93831">
        <ele>15.3</ele>
        <time>2020-06-23T16:12:56Z</time>
      </trkpt>
      <trkpt lat="50.72926" lon="2.93832">
        <ele>15.3</ele>
        <time>2020-06-23T16:12:57Z</time>
      </trkpt>
      <trkpt lat="50.72924" lon="2.93834">
        <ele>15.3</ele>
        <time>2020-06-23T16:12:58Z</time>
      </trkpt>
      <trkpt lat="50.72921" lon="2.93838">
        <ele>15.2</ele>
        <time>2020-06-23T16:12:59Z</time>
      </trkpt>
      <trkpt lat="50.7292" lon="2.93839">
        <ele>15.2</ele>
        <time>2020-06-23T16:13:00Z</time>
      </trkpt>
      <trkpt lat="50.72918" lon="2.93844">
        <ele>15.2</ele>
        <time>2020-06-23T16:13:01Z</time>
      </trkpt>
      <trkpt lat="50.72916" lon="2.93846">
        <ele>15.2</ele>
        <time>2020-06-23T16:13:02Z</time>
      </trkpt>
      <trkpt lat="50.72915" lon="2.9385">
        <ele>15.1</ele>
        <time>2020-06-23T16:13:03Z</time>
      </trkpt>
      <trkpt lat="50.72913" lon="2.93855">
        <ele>15.1</ele>
        <time>2020-06-23T16:13:04Z</time>
      </trkpt>
      <trkpt lat="50.72911" lon="2.93859">
        <ele>15</ele>
        <time>2020-06-23T16:13:05Z</time>
      </trkpt>
      <trkpt lat="50.72908" lon="2.93865">
        <ele>14.9</ele>
        <time>2020-06-23T16:13:06Z</time>
      </trkpt>
      <trkpt lat="50.72905" lon="2.93871">
        <ele>14.9</ele>
        <time>2020-06-23T16:13:07Z</time>
      </trkpt>
      <trkpt lat="50.72903" lon="2.93878">
        <ele>14.8</ele>
        <time>2020-06-23T16:13:08Z</time>
      </trkpt>
      <trkpt lat="50.729" lon="2.93885">
        <ele>14.8</ele>
        <time>2020-06-23T16:13:09Z</time>
      </trkpt>
      <trkpt lat="50.72896" lon="2.93893">
        <ele>14.7</ele>
        <time>2020-06-23T16:13:10Z</time>
      </trkpt>
      <trkpt lat="50.72893" lon="2.93898">
        <ele>14.7</ele>
        <time>2020-06-23T16:13:11Z</time>
      </trkpt>
      <trkpt lat="50.7289" lon="2.93902">
        <ele>14.8</ele>
        <time>2020-06-23T16:13:12Z</time>
      </trkpt>
      <trkpt lat="50.72888" lon="2.93906">
        <ele>14.8</ele>
        <time>2020-06-23T16:13:13Z</time>
      </trkpt>
      <trkpt lat="50.72885" lon="2.9391">
        <ele>14.8</ele>
        <time>2020-06-23T16:13:14Z</time>
      </trkpt>
      <trkpt lat="50.72882" lon="2.93914">
        <ele>14.9</ele>
        <time>2020-06-23T16:13:15Z</time>
      </trkpt>
      <trkpt lat="50.72879" lon="2.93917">
        <ele>14.9</ele>
        <time>2020-06-23T16:13:16Z</time>
      </trkpt>
      <trkpt lat="50.72876" lon="2.93922">
        <ele>15</ele>
        <time>2020-06-23T16:13:17Z</time>
      </trkpt>
      <trkpt lat="50.72872" lon="2.93927">
        <ele>15</ele>
        <time>2020-06-23T16:13:18Z</time>
      </trkpt>
      <trkpt lat="50.7287" lon="2.93931">
        <ele>15.1</ele>
        <time>2020-06-23T16:13:19Z</time>
      </trkpt>
      <trkpt lat="50.72868" lon="2.93935">
        <ele>15.2</ele>
        <time>2020-06-23T16:13:20Z</time>
      </trkpt>
      <trkpt lat="50.72866" lon="2.9394">
        <ele>15.2</ele>
        <time>2020-06-23T16:13:21Z</time>
      </trkpt>
      <trkpt lat="50.72864" lon="2.93945">
        <ele>15.3</ele>
        <time>2020-06-23T16:13:22Z</time>
      </trkpt>
      <trkpt lat="50.72861" lon="2.9395">
        <ele>15.4</ele>
        <time>2020-06-23T16:13:23Z</time>
      </trkpt>
      <trkpt lat="50.72858" lon="2.93955">
        <ele>15.5</ele>
        <time>2020-06-23T16:13:24Z</time>
      </trkpt>
      <trkpt lat="50.72856" lon="2.93961">
        <ele>15.6</ele>
        <time>2020-06-23T16:13:25Z</time>
      </trkpt>
      <trkpt lat="50.72852" lon="2.93966">
        <ele>15.7</ele>
        <time>2020-06-23T16:13:26Z</time>
      </trkpt>
      <trkpt lat="50.72848" lon="2.93971">
        <ele>15.8</ele>
        <time>2020-06-23T16:13:27Z</time>
      </trkpt>
      <trkpt lat="50.72844" lon="2.93976">
        <ele>15.8</ele>
        <time>2020-06-23T16:13:28Z</time>
      </trkpt>
      <trkpt lat="50.72841" lon="2.93983">
        <ele>15.9</ele>
        <time>2020-06-23T16:13:29Z</time>
      </trkpt>
      <trkpt lat="50.72838" lon="2.93989">
        <ele>16</ele>
        <time>2020-06-23T16:13:30Z</time>
      </trkpt>
      <trkpt lat="50.72835" lon="2.93995">
        <ele>16</ele>
        <time>2020-06-23T16:13:31Z</time>
      </trkpt>
      <trkpt lat="50.72832" lon="2.94">
        <ele>16.1</ele>
        <time>2020-06-23T16:13:32Z</time>
      </trkpt>
      <trkpt lat="50.72829" lon="2.94006">
        <ele>16.2</ele>
        <time>2020-06-23T16:13:33Z</time>
      </trkpt>
      <trkpt lat="50.72825" lon="2.94012">
        <ele>16.2</ele>
        <time>2020-06-23T16:13:34Z</time>
      </trkpt>
      <trkpt lat="50.72821" lon="2.94018">
        <ele>16.3</ele>
        <time>2020-06-23T16:13:35Z</time>
      </trkpt>
      <trkpt lat="50.72818" lon="2.94024">
        <ele>16.4</ele>
        <time>2020-06-23T16:13:36Z</time>
      </trkpt>
      <trkpt lat="50.72814" lon="2.94029">
        <ele>16.4</ele>
        <time>2020-06-23T16:13:37Z</time>
      </trkpt>
      <trkpt lat="50.72811" lon="2.94035">
        <ele>16.5</ele>
        <time>2020-06-23T16:13:38Z</time>
      </trkpt>
      <trkpt lat="50.72808" lon="2.94039">
        <ele>16.6</ele>
        <time>2020-06-23T16:13:39Z</time>
      </trkpt>
      <trkpt lat="50.72805" lon="2.94044">
        <ele>16.6</ele>
        <time>2020-06-23T16:13:40Z</time>
      </trkpt>
      <trkpt lat="50.72801" lon="2.9405">
        <ele>16.7</ele>
        <time>2020-06-23T16:13:41Z</time>
      </trkpt>
      <trkpt lat="50.72797" lon="2.94054">
        <ele>16.8</ele>
        <time>2020-06-23T16:13:42Z</time>
      </trkpt>
      <trkpt lat="50.72794" lon="2.94059">
        <ele>16.8</ele>
        <time>2020-06-23T16:13:43Z</time>
      </trkpt>
      <trkpt lat="50.7279" lon="2.94063">
        <ele>16.9</ele>
        <time>2020-06-23T16:13:44Z</time>
      </trkpt>
      <trkpt lat="50.72786" lon="2.94067">
        <ele>16.9</ele>
        <time>2020-06-23T16:13:45Z</time>
      </trkpt>
      <trkpt lat="50.72783" lon="2.94073">
        <ele>17</ele>
        <time>2020-06-23T16:13:46Z</time>
      </trkpt>
      <trkpt lat="50.7278" lon="2.94077">
        <ele>17</ele>
        <time>2020-06-23T16:13:47Z</time>
      </trkpt>
      <trkpt lat="50.72776" lon="2.94082">
        <ele>17.1</ele>
        <time>2020-06-23T16:13:48Z</time>
      </trkpt>
      <trkpt lat="50.72773" lon="2.94087">
        <ele>17.1</ele>
        <time>2020-06-23T16:13:49Z</time>
      </trkpt>
      <trkpt lat="50.7277" lon="2.94091">
        <ele>17.1</ele>
        <time>2020-06-23T16:13:50Z</time>
      </trkpt>
      <trkpt lat="50.72768" lon="2.94095">
        <ele>17.2</ele>
        <time>2020-06-23T16:13:51Z</time>
      </trkpt>
      <trkpt lat="50.72766" lon="2.94098">
        <ele>17.3</ele>
        <time>2020-06-23T16:13:52Z</time>
      </trkpt>
      <trkpt lat="50.72764" lon="2.94103">
        <ele>17.3</ele>
        <time>2020-06-23T16:13:53Z</time>
      </trkpt>
      <trkpt lat="50.72764" lon="2.94104">
        <ele>17.4</ele>
        <time>2020-06-23T16:13:54Z</time>
      </trkpt>
      <trkpt lat="50.72763" lon="2.94105">
        <ele>17.4</ele>
        <time>2020-06-23T16:13:55Z</time>
      </trkpt>
      <trkpt lat="50.72763" lon="2.94105">
        <ele>17.4</ele>
        <time>2020-06-23T16:13:56Z</time>
      </trkpt>
      <trkpt lat="50.72763" lon="2.94105">
        <ele>17.4</ele>
        <time>2020-06-23T16:13:57Z</time>
      </trkpt>
      <trkpt lat="50.72762" lon="2.94106">
        <ele>17.4</ele>
        <time>2020-06-23T16:13:58Z</time>
      </trkpt>
      <trkpt lat="50.72762" lon="2.94107">
        <ele>17.4</ele>
        <time>2020-06-23T16:13:59Z</time>
      </trkpt>
      <trkpt lat="50.72762" lon="2.94108">
        <ele>17.4</ele>
        <time>2020-06-23T16:14:00Z</time>
      </trkpt>
      <trkpt lat="50.72762" lon="2.94108">
        <ele>17.4</ele>
        <time>2020-06-23T16:14:01Z</time>
      </trkpt>
      <trkpt lat="50.72762" lon="2.94109">
        <ele>17.4</ele>
        <time>2020-06-23T16:14:02Z</time>
      </trkpt>
      <trkpt lat="50.72761" lon="2.9411">
        <ele>17.4</ele>
        <time>2020-06-23T16:14:03Z</time>
      </trkpt>
      <trkpt lat="50.72761" lon="2.94111">
        <ele>17.4</ele>
        <time>2020-06-23T16:14:04Z</time>
      </trkpt>
      <trkpt lat="50.7276" lon="2.94111">
        <ele>17.5</ele>
        <time>2020-06-23T16:14:05Z</time>
      </trkpt>
      <trkpt lat="50.72759" lon="2.94113">
        <ele>17.5</ele>
        <time>2020-06-23T16:14:06Z</time>
      </trkpt>
      <trkpt lat="50.72758" lon="2.94115">
        <ele>17.5</ele>
        <time>2020-06-23T16:14:07Z</time>
      </trkpt>
      <trkpt lat="50.72758" lon="2.94116">
        <ele>17.7</ele>
        <time>2020-06-23T16:14:08Z</time>
      </trkpt>
      <trkpt lat="50.72757" lon="2.94121">
        <ele>17.7</ele>
        <time>2020-06-23T16:14:09Z</time>
      </trkpt>
      <trkpt lat="50.72756" lon="2.94123">
        <ele>17.7</ele>
        <time>2020-06-23T16:14:10Z</time>
      </trkpt>
      <trkpt lat="50.72754" lon="2.94126">
        <ele>17.7</ele>
        <time>2020-06-23T16:14:11Z</time>
      </trkpt>
      <trkpt lat="50.72752" lon="2.9413">
        <ele>17.8</ele>
        <time>2020-06-23T16:14:12Z</time>
      </trkpt>
      <trkpt lat="50.72749" lon="2.94133">
        <ele>17.7</ele>
        <time>2020-06-23T16:14:13Z</time>
      </trkpt>
      <trkpt lat="50.72746" lon="2.94135">
        <ele>17.7</ele>
        <time>2020-06-23T16:14:14Z</time>
      </trkpt>
      <trkpt lat="50.72743" lon="2.94139">
        <ele>17.7</ele>
        <time>2020-06-23T16:14:15Z</time>
      </trkpt>
      <trkpt lat="50.7274" lon="2.94145">
        <ele>17.6</ele>
        <time>2020-06-23T16:14:16Z</time>
      </trkpt>
      <trkpt lat="50.72738" lon="2.94149">
        <ele>17.5</ele>
        <time>2020-06-23T16:14:17Z</time>
      </trkpt>
      <trkpt lat="50.72735" lon="2.94153">
        <ele>17.5</ele>
        <time>2020-06-23T16:14:18Z</time>
      </trkpt>
      <trkpt lat="50.72732" lon="2.94158">
        <ele>17.4</ele>
        <time>2020-06-23T16:14:19Z</time>
      </trkpt>
      <trkpt lat="50.72728" lon="2.94163">
        <ele>17.3</ele>
        <time>2020-06-23T16:14:20Z</time>
      </trkpt>
      <trkpt lat="50.72725" lon="2.94168">
        <ele>17.2</ele>
        <time>2020-06-23T16:14:21Z</time>
      </trkpt>
      <trkpt lat="50.72722" lon="2.94173">
        <ele>17.2</ele>
        <time>2020-06-23T16:14:22Z</time>
      </trkpt>
      <trkpt lat="50.72719" lon="2.94178">
        <ele>17.2</ele>
        <time>2020-06-23T16:14:23Z</time>
      </trkpt>
      <trkpt lat="50.72716" lon="2.94184">
        <ele>17.1</ele>
        <time>2020-06-23T16:14:24Z</time>
      </trkpt>
      <trkpt lat="50.72712" lon="2.9419">
        <ele>17.1</ele>
        <time>2020-06-23T16:14:25Z</time>
      </trkpt>
      <trkpt lat="50.72709" lon="2.94197">
        <ele>17.1</ele>
        <time>2020-06-23T16:14:26Z</time>
      </trkpt>
      <trkpt lat="50.72705" lon="2.94205">
        <ele>17.1</ele>
        <time>2020-06-23T16:14:27Z</time>
      </trkpt>
      <trkpt lat="50.72701" lon="2.94213">
        <ele>17.1</ele>
        <time>2020-06-23T16:14:28Z</time>
      </trkpt>
      <trkpt lat="50.72698" lon="2.94221">
        <ele>17.1</ele>
        <time>2020-06-23T16:14:29Z</time>
      </trkpt>
      <trkpt lat="50.72695" lon="2.94229">
        <ele>17.1</ele>
        <time>2020-06-23T16:14:30Z</time>
      </trkpt>
      <trkpt lat="50.72691" lon="2.94236">
        <ele>17.1</ele>
        <time>2020-06-23T16:14:31Z</time>
      </trkpt>
      <trkpt lat="50.72688" lon="2.94243">
        <ele>17.2</ele>
        <time>2020-06-23T16:14:32Z</time>
      </trkpt>
      <trkpt lat="50.72684" lon="2.9425">
        <ele>17.2</ele>
        <time>2020-06-23T16:14:33Z</time>
      </trkpt>
      <trkpt lat="50.72682" lon="2.94256">
        <ele>17.2</ele>
        <time>2020-06-23T16:14:34Z</time>
      </trkpt>
      <trkpt lat="50.72679" lon="2.94264">
        <ele>17.2</ele>
        <time>2020-06-23T16:14:35Z</time>
      </trkpt>
      <trkpt lat="50.72675" lon="2.94272">
        <ele>17.2</ele>
        <time>2020-06-23T16:14:36Z</time>
      </trkpt>
      <trkpt lat="50.7267" lon="2.94277">
        <ele>17.2</ele>
        <time>2020-06-23T16:14:37Z</time>
      </trkpt>
      <trkpt lat="50.72666" lon="2.94283">
        <ele>17.2</ele>
        <time>2020-06-23T16:14:38Z</time>
      </trkpt>
      <trkpt lat="50.72662" lon="2.94288">
        <ele>17.3</ele>
        <time>2020-06-23T16:14:39Z</time>
      </trkpt>
      <trkpt lat="50.72659" lon="2.94293">
        <ele>17.3</ele>
        <time>2020-06-23T16:14:40Z</time>
      </trkpt>
      <trkpt lat="50.72656" lon="2.94297">
        <ele>17.3</ele>
        <time>2020-06-23T16:14:41Z</time>
      </trkpt>
      <trkpt lat="50.72653" lon="2.94302">
        <ele>17.3</ele>
        <time>2020-06-23T16:14:42Z</time>
      </trkpt>
      <trkpt lat="50.72649" lon="2.94307">
        <ele>17.3</ele>
        <time>2020-06-23T16:14:43Z</time>
      </trkpt>
      <trkpt lat="50.72645" lon="2.94312">
        <ele>17.3</ele>
        <time>2020-06-23T16:14:44Z</time>
      </trkpt>
      <trkpt lat="50.72642" lon="2.94315">
        <ele>17.4</ele>
        <time>2020-06-23T16:14:45Z</time>
      </trkpt>
      <trkpt lat="50.72639" lon="2.94319">
        <ele>17.4</ele>
        <time>2020-06-23T16:14:46Z</time>
      </trkpt>
      <trkpt lat="50.72636" lon="2.94326">
        <ele>17.4</ele>
        <time>2020-06-23T16:14:47Z</time>
      </trkpt>
      <trkpt lat="50.72632" lon="2.94333">
        <ele>17.4</ele>
        <time>2020-06-23T16:14:48Z</time>
      </trkpt>
      <trkpt lat="50.72628" lon="2.94339">
        <ele>17.5</ele>
        <time>2020-06-23T16:14:49Z</time>
      </trkpt>
      <trkpt lat="50.72624" lon="2.94345">
        <ele>17.5</ele>
        <time>2020-06-23T16:14:50Z</time>
      </trkpt>
      <trkpt lat="50.7262" lon="2.94351">
        <ele>17.5</ele>
        <time>2020-06-23T16:14:51Z</time>
      </trkpt>
      <trkpt lat="50.72616" lon="2.94359">
        <ele>17.5</ele>
        <time>2020-06-23T16:14:52Z</time>
      </trkpt>
      <trkpt lat="50.72612" lon="2.94367">
        <ele>17.6</ele>
        <time>2020-06-23T16:14:53Z</time>
      </trkpt>
      <trkpt lat="50.72608" lon="2.94375">
        <ele>17.6</ele>
        <time>2020-06-23T16:14:54Z</time>
      </trkpt>
      <trkpt lat="50.72604" lon="2.94382">
        <ele>17.6</ele>
        <time>2020-06-23T16:14:55Z</time>
      </trkpt>
      <trkpt lat="50.726" lon="2.9439">
        <ele>17.6</ele>
        <time>2020-06-23T16:14:56Z</time>
      </trkpt>
      <trkpt lat="50.72596" lon="2.94398">
        <ele>17.7</ele>
        <time>2020-06-23T16:14:57Z</time>
      </trkpt>
      <trkpt lat="50.72593" lon="2.94404">
        <ele>17.7</ele>
        <time>2020-06-23T16:14:58Z</time>
      </trkpt>
      <trkpt lat="50.72589" lon="2.9441">
        <ele>17.7</ele>
        <time>2020-06-23T16:14:59Z</time>
      </trkpt>
      <trkpt lat="50.72586" lon="2.94416">
        <ele>17.7</ele>
        <time>2020-06-23T16:15:00Z</time>
      </trkpt>
      <trkpt lat="50.72582" lon="2.94422">
        <ele>17.7</ele>
        <time>2020-06-23T16:15:01Z</time>
      </trkpt>
      <trkpt lat="50.72579" lon="2.94428">
        <ele>17.7</ele>
        <time>2020-06-23T16:15:02Z</time>
      </trkpt>
      <trkpt lat="50.72575" lon="2.94434">
        <ele>17.7</ele>
        <time>2020-06-23T16:15:03Z</time>
      </trkpt>
      <trkpt lat="50.72572" lon="2.94441">
        <ele>17.8</ele>
        <time>2020-06-23T16:15:04Z</time>
      </trkpt>
      <trkpt lat="50.72569" lon="2.94447">
        <ele>17.8</ele>
        <time>2020-06-23T16:15:05Z</time>
      </trkpt>
      <trkpt lat="50.72565" lon="2.94453">
        <ele>17.8</ele>
        <time>2020-06-23T16:15:06Z</time>
      </trkpt>
      <trkpt lat="50.72562" lon="2.9446">
        <ele>17.8</ele>
        <time>2020-06-23T16:15:07Z</time>
      </trkpt>
      <trkpt lat="50.72558" lon="2.94467">
        <ele>17.9</ele>
        <time>2020-06-23T16:15:08Z</time>
      </trkpt>
      <trkpt lat="50.72554" lon="2.94474">
        <ele>17.9</ele>
        <time>2020-06-23T16:15:09Z</time>
      </trkpt>
      <trkpt lat="50.7255" lon="2.94481">
        <ele>17.9</ele>
        <time>2020-06-23T16:15:10Z</time>
      </trkpt>
      <trkpt lat="50.72546" lon="2.94487">
        <ele>18</ele>
        <time>2020-06-23T16:15:11Z</time>
      </trkpt>
      <trkpt lat="50.72542" lon="2.94494">
        <ele>18</ele>
        <time>2020-06-23T16:15:12Z</time>
      </trkpt>
      <trkpt lat="50.72538" lon="2.94502">
        <ele>18</ele>
        <time>2020-06-23T16:15:13Z</time>
      </trkpt>
      <trkpt lat="50.72534" lon="2.94509">
        <ele>18.1</ele>
        <time>2020-06-23T16:15:14Z</time>
      </trkpt>
      <trkpt lat="50.72529" lon="2.94516">
        <ele>18.1</ele>
        <time>2020-06-23T16:15:15Z</time>
      </trkpt>
      <trkpt lat="50.72525" lon="2.94521">
        <ele>18.1</ele>
        <time>2020-06-23T16:15:16Z</time>
      </trkpt>
      <trkpt lat="50.72521" lon="2.94528">
        <ele>18.2</ele>
        <time>2020-06-23T16:15:17Z</time>
      </trkpt>
      <trkpt lat="50.72517" lon="2.94535">
        <ele>18.3</ele>
        <time>2020-06-23T16:15:18Z</time>
      </trkpt>
      <trkpt lat="50.72513" lon="2.94542">
        <ele>18.5</ele>
        <time>2020-06-23T16:15:19Z</time>
      </trkpt>
      <trkpt lat="50.72509" lon="2.9455">
        <ele>18.3</ele>
        <time>2020-06-23T16:15:20Z</time>
      </trkpt>
      <trkpt lat="50.72505" lon="2.94558">
        <ele>18.2</ele>
        <time>2020-06-23T16:15:21Z</time>
      </trkpt>
      <trkpt lat="50.72502" lon="2.94565">
        <ele>18.1</ele>
        <time>2020-06-23T16:15:22Z</time>
      </trkpt>
      <trkpt lat="50.72498" lon="2.94573">
        <ele>18.1</ele>
        <time>2020-06-23T16:15:23Z</time>
      </trkpt>
      <trkpt lat="50.72495" lon="2.94581">
        <ele>18.1</ele>
        <time>2020-06-23T16:15:24Z</time>
      </trkpt>
      <trkpt lat="50.72491" lon="2.94588">
        <ele>18.1</ele>
        <time>2020-06-23T16:15:25Z</time>
      </trkpt>
      <trkpt lat="50.72486" lon="2.94595">
        <ele>18.1</ele>
        <time>2020-06-23T16:15:26Z</time>
      </trkpt>
      <trkpt lat="50.72482" lon="2.94601">
        <ele>18.1</ele>
        <time>2020-06-23T16:15:27Z</time>
      </trkpt>
      <trkpt lat="50.72478" lon="2.94609">
        <ele>18.1</ele>
        <time>2020-06-23T16:15:28Z</time>
      </trkpt>
      <trkpt lat="50.72473" lon="2.94616">
        <ele>18.1</ele>
        <time>2020-06-23T16:15:29Z</time>
      </trkpt>
      <trkpt lat="50.7247" lon="2.94623">
        <ele>18.1</ele>
        <time>2020-06-23T16:15:30Z</time>
      </trkpt>
      <trkpt lat="50.72467" lon="2.94631">
        <ele>18.1</ele>
        <time>2020-06-23T16:15:31Z</time>
      </trkpt>
      <trkpt lat="50.72463" lon="2.94638">
        <ele>18.1</ele>
        <time>2020-06-23T16:15:32Z</time>
      </trkpt>
      <trkpt lat="50.72459" lon="2.94644">
        <ele>18.1</ele>
        <time>2020-06-23T16:15:33Z</time>
      </trkpt>
      <trkpt lat="50.72455" lon="2.9465">
        <ele>18</ele>
        <time>2020-06-23T16:15:34Z</time>
      </trkpt>
      <trkpt lat="50.72451" lon="2.94656">
        <ele>18</ele>
        <time>2020-06-23T16:15:35Z</time>
      </trkpt>
      <trkpt lat="50.72448" lon="2.94661">
        <ele>18</ele>
        <time>2020-06-23T16:15:36Z</time>
      </trkpt>
      <trkpt lat="50.72444" lon="2.94668">
        <ele>18</ele>
        <time>2020-06-23T16:15:37Z</time>
      </trkpt>
      <trkpt lat="50.7244" lon="2.94674">
        <ele>18</ele>
        <time>2020-06-23T16:15:38Z</time>
      </trkpt>
      <trkpt lat="50.72437" lon="2.94679">
        <ele>18</ele>
        <time>2020-06-23T16:15:39Z</time>
      </trkpt>
      <trkpt lat="50.72432" lon="2.94685">
        <ele>17.9</ele>
        <time>2020-06-23T16:15:40Z</time>
      </trkpt>
      <trkpt lat="50.72428" lon="2.94692">
        <ele>17.9</ele>
        <time>2020-06-23T16:15:41Z</time>
      </trkpt>
      <trkpt lat="50.72423" lon="2.94699">
        <ele>17.9</ele>
        <time>2020-06-23T16:15:42Z</time>
      </trkpt>
      <trkpt lat="50.72418" lon="2.94706">
        <ele>17.9</ele>
        <time>2020-06-23T16:15:43Z</time>
      </trkpt>
      <trkpt lat="50.72412" lon="2.94713">
        <ele>17.9</ele>
        <time>2020-06-23T16:15:44Z</time>
      </trkpt>
      <trkpt lat="50.72407" lon="2.94719">
        <ele>17.9</ele>
        <time>2020-06-23T16:15:45Z</time>
      </trkpt>
      <trkpt lat="50.72403" lon="2.94726">
        <ele>17.9</ele>
        <time>2020-06-23T16:15:46Z</time>
      </trkpt>
      <trkpt lat="50.72396" lon="2.94732">
        <ele>17.9</ele>
        <time>2020-06-23T16:15:47Z</time>
      </trkpt>
      <trkpt lat="50.72389" lon="2.94738">
        <ele>17.9</ele>
        <time>2020-06-23T16:15:48Z</time>
      </trkpt>
      <trkpt lat="50.72383" lon="2.94743">
        <ele>17.9</ele>
        <time>2020-06-23T16:15:49Z</time>
      </trkpt>
      <trkpt lat="50.72377" lon="2.94748">
        <ele>17.9</ele>
        <time>2020-06-23T16:15:50Z</time>
      </trkpt>
      <trkpt lat="50.72369" lon="2.94754">
        <ele>17.9</ele>
        <time>2020-06-23T16:15:51Z</time>
      </trkpt>
      <trkpt lat="50.72362" lon="2.94758">
        <ele>17.8</ele>
        <time>2020-06-23T16:15:52Z</time>
      </trkpt>
      <trkpt lat="50.72356" lon="2.9476">
        <ele>17.7</ele>
        <time>2020-06-23T16:15:53Z</time>
      </trkpt>
      <trkpt lat="50.72349" lon="2.94764">
        <ele>17.6</ele>
        <time>2020-06-23T16:15:54Z</time>
      </trkpt>
      <trkpt lat="50.72344" lon="2.94767">
        <ele>17.6</ele>
        <time>2020-06-23T16:15:55Z</time>
      </trkpt>
      <trkpt lat="50.72338" lon="2.9477">
        <ele>17.6</ele>
        <time>2020-06-23T16:15:56Z</time>
      </trkpt>
      <trkpt lat="50.72332" lon="2.94773">
        <ele>17.6</ele>
        <time>2020-06-23T16:15:57Z</time>
      </trkpt>
      <trkpt lat="50.72326" lon="2.94777">
        <ele>17.6</ele>
        <time>2020-06-23T16:15:58Z</time>
      </trkpt>
      <trkpt lat="50.72321" lon="2.9478">
        <ele>17.6</ele>
        <time>2020-06-23T16:15:59Z</time>
      </trkpt>
      <trkpt lat="50.72314" lon="2.94784">
        <ele>17.7</ele>
        <time>2020-06-23T16:16:00Z</time>
      </trkpt>
      <trkpt lat="50.72308" lon="2.94787">
        <ele>17.7</ele>
        <time>2020-06-23T16:16:01Z</time>
      </trkpt>
      <trkpt lat="50.72302" lon="2.94791">
        <ele>17.8</ele>
        <time>2020-06-23T16:16:02Z</time>
      </trkpt>
      <trkpt lat="50.72296" lon="2.94795">
        <ele>17.8</ele>
        <time>2020-06-23T16:16:03Z</time>
      </trkpt>
      <trkpt lat="50.72291" lon="2.94799">
        <ele>17.9</ele>
        <time>2020-06-23T16:16:04Z</time>
      </trkpt>
      <trkpt lat="50.72286" lon="2.94802">
        <ele>17.9</ele>
        <time>2020-06-23T16:16:05Z</time>
      </trkpt>
      <trkpt lat="50.72281" lon="2.94806">
        <ele>17.9</ele>
        <time>2020-06-23T16:16:06Z</time>
      </trkpt>
      <trkpt lat="50.72276" lon="2.9481">
        <ele>17.9</ele>
        <time>2020-06-23T16:16:07Z</time>
      </trkpt>
      <trkpt lat="50.72271" lon="2.94813">
        <ele>17.9</ele>
        <time>2020-06-23T16:16:08Z</time>
      </trkpt>
      <trkpt lat="50.72266" lon="2.94814">
        <ele>18</ele>
        <time>2020-06-23T16:16:09Z</time>
      </trkpt>
      <trkpt lat="50.7226" lon="2.94817">
        <ele>17.8</ele>
        <time>2020-06-23T16:16:10Z</time>
      </trkpt>
      <trkpt lat="50.72253" lon="2.94821">
        <ele>17.6</ele>
        <time>2020-06-23T16:16:11Z</time>
      </trkpt>
      <trkpt lat="50.72246" lon="2.94824">
        <ele>17.4</ele>
        <time>2020-06-23T16:16:12Z</time>
      </trkpt>
      <trkpt lat="50.72239" lon="2.94826">
        <ele>17.3</ele>
        <time>2020-06-23T16:16:13Z</time>
      </trkpt>
      <trkpt lat="50.72232" lon="2.9483">
        <ele>17.2</ele>
        <time>2020-06-23T16:16:14Z</time>
      </trkpt>
      <trkpt lat="50.72226" lon="2.94833">
        <ele>17.1</ele>
        <time>2020-06-23T16:16:15Z</time>
      </trkpt>
      <trkpt lat="50.72221" lon="2.94836">
        <ele>17</ele>
        <time>2020-06-23T16:16:16Z</time>
      </trkpt>
      <trkpt lat="50.72214" lon="2.9484">
        <ele>17</ele>
        <time>2020-06-23T16:16:17Z</time>
      </trkpt>
      <trkpt lat="50.72206" lon="2.94843">
        <ele>17</ele>
        <time>2020-06-23T16:16:18Z</time>
      </trkpt>
      <trkpt lat="50.72198" lon="2.94847">
        <ele>17</ele>
        <time>2020-06-23T16:16:19Z</time>
      </trkpt>
      <trkpt lat="50.72191" lon="2.94851">
        <ele>17</ele>
        <time>2020-06-23T16:16:20Z</time>
      </trkpt>
      <trkpt lat="50.72184" lon="2.94855">
        <ele>16.9</ele>
        <time>2020-06-23T16:16:21Z</time>
      </trkpt>
      <trkpt lat="50.72178" lon="2.94857">
        <ele>16.9</ele>
        <time>2020-06-23T16:16:22Z</time>
      </trkpt>
      <trkpt lat="50.72171" lon="2.94858">
        <ele>16.9</ele>
        <time>2020-06-23T16:16:23Z</time>
      </trkpt>
      <trkpt lat="50.72164" lon="2.94861">
        <ele>16.9</ele>
        <time>2020-06-23T16:16:24Z</time>
      </trkpt>
      <trkpt lat="50.72157" lon="2.94864">
        <ele>16.9</ele>
        <time>2020-06-23T16:16:25Z</time>
      </trkpt>
      <trkpt lat="50.72151" lon="2.94867">
        <ele>16.9</ele>
        <time>2020-06-23T16:16:26Z</time>
      </trkpt>
      <trkpt lat="50.72144" lon="2.9487">
        <ele>16.9</ele>
        <time>2020-06-23T16:16:27Z</time>
      </trkpt>
      <trkpt lat="50.72137" lon="2.94873">
        <ele>16.9</ele>
        <time>2020-06-23T16:16:28Z</time>
      </trkpt>
      <trkpt lat="50.72131" lon="2.94876">
        <ele>16.9</ele>
        <time>2020-06-23T16:16:29Z</time>
      </trkpt>
      <trkpt lat="50.72124" lon="2.94879">
        <ele>16.9</ele>
        <time>2020-06-23T16:16:30Z</time>
      </trkpt>
      <trkpt lat="50.72118" lon="2.94882">
        <ele>16.9</ele>
        <time>2020-06-23T16:16:31Z</time>
      </trkpt>
      <trkpt lat="50.72113" lon="2.94885">
        <ele>16.8</ele>
        <time>2020-06-23T16:16:32Z</time>
      </trkpt>
      <trkpt lat="50.72107" lon="2.94887">
        <ele>16.8</ele>
        <time>2020-06-23T16:16:33Z</time>
      </trkpt>
      <trkpt lat="50.72102" lon="2.9489">
        <ele>16.7</ele>
        <time>2020-06-23T16:16:34Z</time>
      </trkpt>
      <trkpt lat="50.72095" lon="2.94893">
        <ele>16.7</ele>
        <time>2020-06-23T16:16:35Z</time>
      </trkpt>
      <trkpt lat="50.72088" lon="2.94896">
        <ele>16.6</ele>
        <time>2020-06-23T16:16:36Z</time>
      </trkpt>
      <trkpt lat="50.72082" lon="2.94901">
        <ele>16.6</ele>
        <time>2020-06-23T16:16:37Z</time>
      </trkpt>
      <trkpt lat="50.72077" lon="2.94904">
        <ele>16.6</ele>
        <time>2020-06-23T16:16:38Z</time>
      </trkpt>
      <trkpt lat="50.72071" lon="2.94907">
        <ele>16.5</ele>
        <time>2020-06-23T16:16:39Z</time>
      </trkpt>
      <trkpt lat="50.72065" lon="2.94908">
        <ele>16.5</ele>
        <time>2020-06-23T16:16:40Z</time>
      </trkpt>
      <trkpt lat="50.72059" lon="2.94911">
        <ele>16.5</ele>
        <time>2020-06-23T16:16:41Z</time>
      </trkpt>
      <trkpt lat="50.72053" lon="2.94915">
        <ele>16.5</ele>
        <time>2020-06-23T16:16:42Z</time>
      </trkpt>
      <trkpt lat="50.72047" lon="2.94918">
        <ele>16.6</ele>
        <time>2020-06-23T16:16:43Z</time>
      </trkpt>
      <trkpt lat="50.7204" lon="2.94923">
        <ele>16.6</ele>
        <time>2020-06-23T16:16:44Z</time>
      </trkpt>
      <trkpt lat="50.72034" lon="2.94928">
        <ele>16.6</ele>
        <time>2020-06-23T16:16:45Z</time>
      </trkpt>
      <trkpt lat="50.72027" lon="2.94932">
        <ele>16.6</ele>
        <time>2020-06-23T16:16:46Z</time>
      </trkpt>
      <trkpt lat="50.7202" lon="2.94935">
        <ele>16.6</ele>
        <time>2020-06-23T16:16:47Z</time>
      </trkpt>
      <trkpt lat="50.72014" lon="2.94939">
        <ele>16.6</ele>
        <time>2020-06-23T16:16:48Z</time>
      </trkpt>
      <trkpt lat="50.72007" lon="2.94941">
        <ele>16.6</ele>
        <time>2020-06-23T16:16:49Z</time>
      </trkpt>
      <trkpt lat="50.72" lon="2.9494">
        <ele>16.5</ele>
        <time>2020-06-23T16:16:50Z</time>
      </trkpt>
      <trkpt lat="50.71993" lon="2.94939">
        <ele>16.5</ele>
        <time>2020-06-23T16:16:51Z</time>
      </trkpt>
      <trkpt lat="50.71987" lon="2.94936">
        <ele>16.4</ele>
        <time>2020-06-23T16:16:52Z</time>
      </trkpt>
      <trkpt lat="50.71981" lon="2.94932">
        <ele>16.4</ele>
        <time>2020-06-23T16:16:53Z</time>
      </trkpt>
      <trkpt lat="50.71975" lon="2.9493">
        <ele>16.4</ele>
        <time>2020-06-23T16:16:54Z</time>
      </trkpt>
      <trkpt lat="50.71968" lon="2.94925">
        <ele>16.4</ele>
        <time>2020-06-23T16:16:55Z</time>
      </trkpt>
      <trkpt lat="50.71962" lon="2.94917">
        <ele>16.4</ele>
        <time>2020-06-23T16:16:56Z</time>
      </trkpt>
      <trkpt lat="50.71956" lon="2.9491">
        <ele>16.5</ele>
        <time>2020-06-23T16:16:57Z</time>
      </trkpt>
      <trkpt lat="50.7195" lon="2.94903">
        <ele>16.5</ele>
        <time>2020-06-23T16:16:58Z</time>
      </trkpt>
      <trkpt lat="50.71943" lon="2.94896">
        <ele>16.6</ele>
        <time>2020-06-23T16:16:59Z</time>
      </trkpt>
      <trkpt lat="50.71937" lon="2.9489">
        <ele>16.6</ele>
        <time>2020-06-23T16:17:00Z</time>
      </trkpt>
      <trkpt lat="50.7193" lon="2.94883">
        <ele>16.6</ele>
        <time>2020-06-23T16:17:01Z</time>
      </trkpt>
      <trkpt lat="50.71924" lon="2.94877">
        <ele>16.7</ele>
        <time>2020-06-23T16:17:02Z</time>
      </trkpt>
      <trkpt lat="50.71919" lon="2.94871">
        <ele>16.7</ele>
        <time>2020-06-23T16:17:03Z</time>
      </trkpt>
      <trkpt lat="50.71914" lon="2.94867">
        <ele>16.8</ele>
        <time>2020-06-23T16:17:04Z</time>
      </trkpt>
      <trkpt lat="50.71909" lon="2.94863">
        <ele>16.8</ele>
        <time>2020-06-23T16:17:05Z</time>
      </trkpt>
      <trkpt lat="50.71903" lon="2.94859">
        <ele>16.9</ele>
        <time>2020-06-23T16:17:06Z</time>
      </trkpt>
      <trkpt lat="50.71896" lon="2.94855">
        <ele>16.9</ele>
        <time>2020-06-23T16:17:07Z</time>
      </trkpt>
      <trkpt lat="50.71891" lon="2.94855">
        <ele>17</ele>
        <time>2020-06-23T16:17:08Z</time>
      </trkpt>
      <trkpt lat="50.71885" lon="2.94854">
        <ele>17</ele>
        <time>2020-06-23T16:17:09Z</time>
      </trkpt>
      <trkpt lat="50.71879" lon="2.94854">
        <ele>17.1</ele>
        <time>2020-06-23T16:17:10Z</time>
      </trkpt>
      <trkpt lat="50.7187" lon="2.94855">
        <ele>17.1</ele>
        <time>2020-06-23T16:17:11Z</time>
      </trkpt>
      <trkpt lat="50.71863" lon="2.94857">
        <ele>17.1</ele>
        <time>2020-06-23T16:17:12Z</time>
      </trkpt>
      <trkpt lat="50.71856" lon="2.94858">
        <ele>17.1</ele>
        <time>2020-06-23T16:17:13Z</time>
      </trkpt>
      <trkpt lat="50.7185" lon="2.9486">
        <ele>17.2</ele>
        <time>2020-06-23T16:17:14Z</time>
      </trkpt>
      <trkpt lat="50.71844" lon="2.94863">
        <ele>17.2</ele>
        <time>2020-06-23T16:17:15Z</time>
      </trkpt>
      <trkpt lat="50.71838" lon="2.94865">
        <ele>17.2</ele>
        <time>2020-06-23T16:17:16Z</time>
      </trkpt>
      <trkpt lat="50.71831" lon="2.94868">
        <ele>17.2</ele>
        <time>2020-06-23T16:17:17Z</time>
      </trkpt>
      <trkpt lat="50.71825" lon="2.94871">
        <ele>17.2</ele>
        <time>2020-06-23T16:17:18Z</time>
      </trkpt>
      <trkpt lat="50.71819" lon="2.94874">
        <ele>17.2</ele>
        <time>2020-06-23T16:17:19Z</time>
      </trkpt>
      <trkpt lat="50.71813" lon="2.94877">
        <ele>17.3</ele>
        <time>2020-06-23T16:17:20Z</time>
      </trkpt>
      <trkpt lat="50.71808" lon="2.94879">
        <ele>17.3</ele>
        <time>2020-06-23T16:17:21Z</time>
      </trkpt>
      <trkpt lat="50.71803" lon="2.9488">
        <ele>17.3</ele>
        <time>2020-06-23T16:17:22Z</time>
      </trkpt>
      <trkpt lat="50.71795" lon="2.94882">
        <ele>17.3</ele>
        <time>2020-06-23T16:17:23Z</time>
      </trkpt>
      <trkpt lat="50.71788" lon="2.94885">
        <ele>17.3</ele>
        <time>2020-06-23T16:17:24Z</time>
      </trkpt>
      <trkpt lat="50.71782" lon="2.94888">
        <ele>17.4</ele>
        <time>2020-06-23T16:17:25Z</time>
      </trkpt>
      <trkpt lat="50.71776" lon="2.94891">
        <ele>17.5</ele>
        <time>2020-06-23T16:17:26Z</time>
      </trkpt>
      <trkpt lat="50.71769" lon="2.94894">
        <ele>17.5</ele>
        <time>2020-06-23T16:17:27Z</time>
      </trkpt>
      <trkpt lat="50.71761" lon="2.94899">
        <ele>17.6</ele>
        <time>2020-06-23T16:17:28Z</time>
      </trkpt>
      <trkpt lat="50.71754" lon="2.94903">
        <ele>17.5</ele>
        <time>2020-06-23T16:17:29Z</time>
      </trkpt>
      <trkpt lat="50.71747" lon="2.94905">
        <ele>17.4</ele>
        <time>2020-06-23T16:17:30Z</time>
      </trkpt>
      <trkpt lat="50.71741" lon="2.94908">
        <ele>17.3</ele>
        <time>2020-06-23T16:17:31Z</time>
      </trkpt>
      <trkpt lat="50.71735" lon="2.94913">
        <ele>17.3</ele>
        <time>2020-06-23T16:17:32Z</time>
      </trkpt>
      <trkpt lat="50.71729" lon="2.94917">
        <ele>17.3</ele>
        <time>2020-06-23T16:17:33Z</time>
      </trkpt>
      <trkpt lat="50.71723" lon="2.94922">
        <ele>17.3</ele>
        <time>2020-06-23T16:17:34Z</time>
      </trkpt>
      <trkpt lat="50.71717" lon="2.94927">
        <ele>17.3</ele>
        <time>2020-06-23T16:17:35Z</time>
      </trkpt>
      <trkpt lat="50.71711" lon="2.94931">
        <ele>17.3</ele>
        <time>2020-06-23T16:17:36Z</time>
      </trkpt>
      <trkpt lat="50.71705" lon="2.94935">
        <ele>17.4</ele>
        <time>2020-06-23T16:17:37Z</time>
      </trkpt>
      <trkpt lat="50.717" lon="2.9494">
        <ele>17.4</ele>
        <time>2020-06-23T16:17:38Z</time>
      </trkpt>
      <trkpt lat="50.71695" lon="2.94944">
        <ele>17.4</ele>
        <time>2020-06-23T16:17:39Z</time>
      </trkpt>
      <trkpt lat="50.7169" lon="2.94947">
        <ele>17.4</ele>
        <time>2020-06-23T16:17:40Z</time>
      </trkpt>
      <trkpt lat="50.71685" lon="2.9495">
        <ele>17.4</ele>
        <time>2020-06-23T16:17:41Z</time>
      </trkpt>
      <trkpt lat="50.71681" lon="2.94954">
        <ele>17.4</ele>
        <time>2020-06-23T16:17:42Z</time>
      </trkpt>
      <trkpt lat="50.71675" lon="2.94958">
        <ele>17.4</ele>
        <time>2020-06-23T16:17:43Z</time>
      </trkpt>
      <trkpt lat="50.7167" lon="2.94961">
        <ele>17.4</ele>
        <time>2020-06-23T16:17:44Z</time>
      </trkpt>
      <trkpt lat="50.71665" lon="2.94965">
        <ele>17.4</ele>
        <time>2020-06-23T16:17:45Z</time>
      </trkpt>
      <trkpt lat="50.7166" lon="2.94969">
        <ele>17.4</ele>
        <time>2020-06-23T16:17:46Z</time>
      </trkpt>
      <trkpt lat="50.71654" lon="2.94974">
        <ele>17.4</ele>
        <time>2020-06-23T16:17:47Z</time>
      </trkpt>
      <trkpt lat="50.71648" lon="2.94978">
        <ele>17.4</ele>
        <time>2020-06-23T16:17:48Z</time>
      </trkpt>
      <trkpt lat="50.71642" lon="2.94981">
        <ele>17.4</ele>
        <time>2020-06-23T16:17:49Z</time>
      </trkpt>
      <trkpt lat="50.71637" lon="2.94985">
        <ele>17.4</ele>
        <time>2020-06-23T16:17:50Z</time>
      </trkpt>
      <trkpt lat="50.7163" lon="2.94989">
        <ele>17.4</ele>
        <time>2020-06-23T16:17:51Z</time>
      </trkpt>
      <trkpt lat="50.71623" lon="2.94993">
        <ele>17.4</ele>
        <time>2020-06-23T16:17:52Z</time>
      </trkpt>
      <trkpt lat="50.71617" lon="2.94998">
        <ele>17.3</ele>
        <time>2020-06-23T16:17:53Z</time>
      </trkpt>
      <trkpt lat="50.71611" lon="2.95003">
        <ele>17.3</ele>
        <time>2020-06-23T16:17:54Z</time>
      </trkpt>
      <trkpt lat="50.71605" lon="2.95007">
        <ele>17.3</ele>
        <time>2020-06-23T16:17:55Z</time>
      </trkpt>
      <trkpt lat="50.71599" lon="2.95011">
        <ele>17.2</ele>
        <time>2020-06-23T16:17:56Z</time>
      </trkpt>
      <trkpt lat="50.71592" lon="2.95015">
        <ele>17.2</ele>
        <time>2020-06-23T16:17:57Z</time>
      </trkpt>
      <trkpt lat="50.71585" lon="2.95019">
        <ele>17.2</ele>
        <time>2020-06-23T16:17:58Z</time>
      </trkpt>
      <trkpt lat="50.71578" lon="2.95022">
        <ele>17.2</ele>
        <time>2020-06-23T16:17:59Z</time>
      </trkpt>
      <trkpt lat="50.71572" lon="2.95027">
        <ele>17.2</ele>
        <time>2020-06-23T16:18:00Z</time>
      </trkpt>
      <trkpt lat="50.71565" lon="2.95032">
        <ele>17.1</ele>
        <time>2020-06-23T16:18:01Z</time>
      </trkpt>
      <trkpt lat="50.71559" lon="2.95039">
        <ele>17.1</ele>
        <time>2020-06-23T16:18:02Z</time>
      </trkpt>
      <trkpt lat="50.71552" lon="2.95045">
        <ele>17.1</ele>
        <time>2020-06-23T16:18:03Z</time>
      </trkpt>
      <trkpt lat="50.71545" lon="2.95051">
        <ele>17</ele>
        <time>2020-06-23T16:18:04Z</time>
      </trkpt>
      <trkpt lat="50.71539" lon="2.95058">
        <ele>17</ele>
        <time>2020-06-23T16:18:05Z</time>
      </trkpt>
      <trkpt lat="50.71532" lon="2.95065">
        <ele>17</ele>
        <time>2020-06-23T16:18:06Z</time>
      </trkpt>
      <trkpt lat="50.71525" lon="2.95072">
        <ele>17</ele>
        <time>2020-06-23T16:18:07Z</time>
      </trkpt>
      <trkpt lat="50.71519" lon="2.95079">
        <ele>17</ele>
        <time>2020-06-23T16:18:08Z</time>
      </trkpt>
      <trkpt lat="50.71513" lon="2.95087">
        <ele>16.9</ele>
        <time>2020-06-23T16:18:09Z</time>
      </trkpt>
      <trkpt lat="50.71507" lon="2.95093">
        <ele>16.9</ele>
        <time>2020-06-23T16:18:10Z</time>
      </trkpt>
      <trkpt lat="50.71502" lon="2.95099">
        <ele>16.9</ele>
        <time>2020-06-23T16:18:11Z</time>
      </trkpt>
      <trkpt lat="50.71496" lon="2.95103">
        <ele>16.9</ele>
        <time>2020-06-23T16:18:12Z</time>
      </trkpt>
      <trkpt lat="50.71491" lon="2.95108">
        <ele>16.9</ele>
        <time>2020-06-23T16:18:13Z</time>
      </trkpt>
      <trkpt lat="50.71486" lon="2.95112">
        <ele>16.9</ele>
        <time>2020-06-23T16:18:14Z</time>
      </trkpt>
      <trkpt lat="50.7148" lon="2.95117">
        <ele>16.9</ele>
        <time>2020-06-23T16:18:15Z</time>
      </trkpt>
      <trkpt lat="50.71475" lon="2.95121">
        <ele>16.9</ele>
        <time>2020-06-23T16:18:16Z</time>
      </trkpt>
      <trkpt lat="50.7147" lon="2.95126">
        <ele>16.9</ele>
        <time>2020-06-23T16:18:17Z</time>
      </trkpt>
      <trkpt lat="50.71464" lon="2.9513">
        <ele>16.9</ele>
        <time>2020-06-23T16:18:18Z</time>
      </trkpt>
      <trkpt lat="50.7146" lon="2.95136">
        <ele>16.9</ele>
        <time>2020-06-23T16:18:19Z</time>
      </trkpt>
      <trkpt lat="50.71456" lon="2.9514">
        <ele>16.9</ele>
        <time>2020-06-23T16:18:20Z</time>
      </trkpt>
      <trkpt lat="50.71451" lon="2.95145">
        <ele>16.8</ele>
        <time>2020-06-23T16:18:21Z</time>
      </trkpt>
      <trkpt lat="50.71447" lon="2.9515">
        <ele>16.8</ele>
        <time>2020-06-23T16:18:22Z</time>
      </trkpt>
      <trkpt lat="50.71442" lon="2.95157">
        <ele>16.8</ele>
        <time>2020-06-23T16:18:23Z</time>
      </trkpt>
      <trkpt lat="50.71437" lon="2.95162">
        <ele>16.7</ele>
        <time>2020-06-23T16:18:24Z</time>
      </trkpt>
      <trkpt lat="50.71432" lon="2.95168">
        <ele>16.7</ele>
        <time>2020-06-23T16:18:25Z</time>
      </trkpt>
      <trkpt lat="50.71427" lon="2.95173">
        <ele>16.7</ele>
        <time>2020-06-23T16:18:26Z</time>
      </trkpt>
      <trkpt lat="50.71423" lon="2.95178">
        <ele>16.7</ele>
        <time>2020-06-23T16:18:27Z</time>
      </trkpt>
      <trkpt lat="50.71418" lon="2.95183">
        <ele>16.7</ele>
        <time>2020-06-23T16:18:28Z</time>
      </trkpt>
      <trkpt lat="50.71413" lon="2.95188">
        <ele>16.7</ele>
        <time>2020-06-23T16:18:29Z</time>
      </trkpt>
      <trkpt lat="50.71408" lon="2.95193">
        <ele>16.7</ele>
        <time>2020-06-23T16:18:30Z</time>
      </trkpt>
      <trkpt lat="50.71404" lon="2.95197">
        <ele>16.8</ele>
        <time>2020-06-23T16:18:31Z</time>
      </trkpt>
      <trkpt lat="50.71399" lon="2.95203">
        <ele>16.8</ele>
        <time>2020-06-23T16:18:32Z</time>
      </trkpt>
      <trkpt lat="50.71394" lon="2.95208">
        <ele>16.8</ele>
        <time>2020-06-23T16:18:33Z</time>
      </trkpt>
      <trkpt lat="50.71391" lon="2.95213">
        <ele>16.8</ele>
        <time>2020-06-23T16:18:34Z</time>
      </trkpt>
      <trkpt lat="50.71388" lon="2.95218">
        <ele>16.8</ele>
        <time>2020-06-23T16:18:35Z</time>
      </trkpt>
      <trkpt lat="50.71385" lon="2.95225">
        <ele>16.8</ele>
        <time>2020-06-23T16:18:36Z</time>
      </trkpt>
      <trkpt lat="50.71381" lon="2.95231">
        <ele>16.8</ele>
        <time>2020-06-23T16:18:37Z</time>
      </trkpt>
      <trkpt lat="50.71377" lon="2.95239">
        <ele>16.8</ele>
        <time>2020-06-23T16:18:38Z</time>
      </trkpt>
      <trkpt lat="50.71374" lon="2.95245">
        <ele>16.8</ele>
        <time>2020-06-23T16:18:39Z</time>
      </trkpt>
      <trkpt lat="50.7137" lon="2.95251">
        <ele>16.8</ele>
        <time>2020-06-23T16:18:40Z</time>
      </trkpt>
      <trkpt lat="50.71367" lon="2.95258">
        <ele>16.8</ele>
        <time>2020-06-23T16:18:41Z</time>
      </trkpt>
      <trkpt lat="50.71363" lon="2.95265">
        <ele>16.8</ele>
        <time>2020-06-23T16:18:42Z</time>
      </trkpt>
      <trkpt lat="50.71358" lon="2.95271">
        <ele>16.8</ele>
        <time>2020-06-23T16:18:43Z</time>
      </trkpt>
      <trkpt lat="50.71353" lon="2.95276">
        <ele>16.8</ele>
        <time>2020-06-23T16:18:44Z</time>
      </trkpt>
      <trkpt lat="50.71347" lon="2.95281">
        <ele>16.8</ele>
        <time>2020-06-23T16:18:45Z</time>
      </trkpt>
      <trkpt lat="50.7134" lon="2.95284">
        <ele>16.8</ele>
        <time>2020-06-23T16:18:46Z</time>
      </trkpt>
      <trkpt lat="50.71334" lon="2.95288">
        <ele>16.8</ele>
        <time>2020-06-23T16:18:47Z</time>
      </trkpt>
      <trkpt lat="50.71328" lon="2.95291">
        <ele>16.8</ele>
        <time>2020-06-23T16:18:48Z</time>
      </trkpt>
      <trkpt lat="50.71322" lon="2.95294">
        <ele>16.9</ele>
        <time>2020-06-23T16:18:49Z</time>
      </trkpt>
      <trkpt lat="50.71317" lon="2.95296">
        <ele>16.9</ele>
        <time>2020-06-23T16:18:50Z</time>
      </trkpt>
      <trkpt lat="50.71311" lon="2.95298">
        <ele>16.9</ele>
        <time>2020-06-23T16:18:51Z</time>
      </trkpt>
      <trkpt lat="50.71305" lon="2.95301">
        <ele>16.9</ele>
        <time>2020-06-23T16:18:52Z</time>
      </trkpt>
      <trkpt lat="50.713" lon="2.95304">
        <ele>16.9</ele>
        <time>2020-06-23T16:18:53Z</time>
      </trkpt>
      <trkpt lat="50.71294" lon="2.95307">
        <ele>17</ele>
        <time>2020-06-23T16:18:54Z</time>
      </trkpt>
      <trkpt lat="50.71288" lon="2.95311">
        <ele>17</ele>
        <time>2020-06-23T16:18:55Z</time>
      </trkpt>
      <trkpt lat="50.71282" lon="2.95313">
        <ele>17</ele>
        <time>2020-06-23T16:18:56Z</time>
      </trkpt>
      <trkpt lat="50.71275" lon="2.95315">
        <ele>17.1</ele>
        <time>2020-06-23T16:18:57Z</time>
      </trkpt>
      <trkpt lat="50.71269" lon="2.95317">
        <ele>17.1</ele>
        <time>2020-06-23T16:18:58Z</time>
      </trkpt>
      <trkpt lat="50.71263" lon="2.95319">
        <ele>17.1</ele>
        <time>2020-06-23T16:18:59Z</time>
      </trkpt>
      <trkpt lat="50.71257" lon="2.95321">
        <ele>17.2</ele>
        <time>2020-06-23T16:19:00Z</time>
      </trkpt>
      <trkpt lat="50.71251" lon="2.95323">
        <ele>17.2</ele>
        <time>2020-06-23T16:19:01Z</time>
      </trkpt>
      <trkpt lat="50.71245" lon="2.95325">
        <ele>17.3</ele>
        <time>2020-06-23T16:19:02Z</time>
      </trkpt>
      <trkpt lat="50.71238" lon="2.95326">
        <ele>17.3</ele>
        <time>2020-06-23T16:19:03Z</time>
      </trkpt>
      <trkpt lat="50.71232" lon="2.95328">
        <ele>17.3</ele>
        <time>2020-06-23T16:19:04Z</time>
      </trkpt>
      <trkpt lat="50.71227" lon="2.95329">
        <ele>17.4</ele>
        <time>2020-06-23T16:19:05Z</time>
      </trkpt>
      <trkpt lat="50.7122" lon="2.95331">
        <ele>17.4</ele>
        <time>2020-06-23T16:19:06Z</time>
      </trkpt>
      <trkpt lat="50.71214" lon="2.95333">
        <ele>17.5</ele>
        <time>2020-06-23T16:19:07Z</time>
      </trkpt>
      <trkpt lat="50.71207" lon="2.95338">
        <ele>17.6</ele>
        <time>2020-06-23T16:19:08Z</time>
      </trkpt>
      <trkpt lat="50.71201" lon="2.9534">
        <ele>17.6</ele>
        <time>2020-06-23T16:19:09Z</time>
      </trkpt>
      <trkpt lat="50.71196" lon="2.95342">
        <ele>17.7</ele>
        <time>2020-06-23T16:19:10Z</time>
      </trkpt>
      <trkpt lat="50.7119" lon="2.95344">
        <ele>17.8</ele>
        <time>2020-06-23T16:19:11Z</time>
      </trkpt>
      <trkpt lat="50.71183" lon="2.95348">
        <ele>17.8</ele>
        <time>2020-06-23T16:19:12Z</time>
      </trkpt>
      <trkpt lat="50.71176" lon="2.95351">
        <ele>17.9</ele>
        <time>2020-06-23T16:19:13Z</time>
      </trkpt>
      <trkpt lat="50.71169" lon="2.95353">
        <ele>17.9</ele>
        <time>2020-06-23T16:19:14Z</time>
      </trkpt>
      <trkpt lat="50.71163" lon="2.95355">
        <ele>17.9</ele>
        <time>2020-06-23T16:19:15Z</time>
      </trkpt>
      <trkpt lat="50.71157" lon="2.95358">
        <ele>18</ele>
        <time>2020-06-23T16:19:16Z</time>
      </trkpt>
      <trkpt lat="50.71151" lon="2.95361">
        <ele>18</ele>
        <time>2020-06-23T16:19:17Z</time>
      </trkpt>
      <trkpt lat="50.71145" lon="2.95364">
        <ele>18</ele>
        <time>2020-06-23T16:19:18Z</time>
      </trkpt>
      <trkpt lat="50.7114" lon="2.95366">
        <ele>18</ele>
        <time>2020-06-23T16:19:19Z</time>
      </trkpt>
      <trkpt lat="50.71133" lon="2.95368">
        <ele>18</ele>
        <time>2020-06-23T16:19:20Z</time>
      </trkpt>
      <trkpt lat="50.71127" lon="2.95371">
        <ele>18.1</ele>
        <time>2020-06-23T16:19:21Z</time>
      </trkpt>
      <trkpt lat="50.71123" lon="2.95372">
        <ele>18.1</ele>
        <time>2020-06-23T16:19:22Z</time>
      </trkpt>
      <trkpt lat="50.71117" lon="2.95374">
        <ele>18.1</ele>
        <time>2020-06-23T16:19:23Z</time>
      </trkpt>
      <trkpt lat="50.71111" lon="2.95375">
        <ele>18.1</ele>
        <time>2020-06-23T16:19:24Z</time>
      </trkpt>
      <trkpt lat="50.71105" lon="2.95377">
        <ele>18.1</ele>
        <time>2020-06-23T16:19:25Z</time>
      </trkpt>
      <trkpt lat="50.711" lon="2.95379">
        <ele>18.1</ele>
        <time>2020-06-23T16:19:26Z</time>
      </trkpt>
      <trkpt lat="50.71094" lon="2.95381">
        <ele>18.1</ele>
        <time>2020-06-23T16:19:27Z</time>
      </trkpt>
      <trkpt lat="50.71089" lon="2.95383">
        <ele>18.1</ele>
        <time>2020-06-23T16:19:28Z</time>
      </trkpt>
      <trkpt lat="50.71083" lon="2.95385">
        <ele>18.1</ele>
        <time>2020-06-23T16:19:29Z</time>
      </trkpt>
      <trkpt lat="50.71075" lon="2.95388">
        <ele>18.2</ele>
        <time>2020-06-23T16:19:30Z</time>
      </trkpt>
      <trkpt lat="50.71068" lon="2.95391">
        <ele>18.2</ele>
        <time>2020-06-23T16:19:31Z</time>
      </trkpt>
      <trkpt lat="50.71061" lon="2.95396">
        <ele>18.2</ele>
        <time>2020-06-23T16:19:32Z</time>
      </trkpt>
      <trkpt lat="50.71055" lon="2.95399">
        <ele>18.2</ele>
        <time>2020-06-23T16:19:33Z</time>
      </trkpt>
      <trkpt lat="50.71048" lon="2.95403">
        <ele>18.3</ele>
        <time>2020-06-23T16:19:34Z</time>
      </trkpt>
      <trkpt lat="50.71041" lon="2.95407">
        <ele>18.3</ele>
        <time>2020-06-23T16:19:35Z</time>
      </trkpt>
      <trkpt lat="50.71035" lon="2.9541">
        <ele>18.3</ele>
        <time>2020-06-23T16:19:36Z</time>
      </trkpt>
      <trkpt lat="50.71029" lon="2.95414">
        <ele>18.4</ele>
        <time>2020-06-23T16:19:37Z</time>
      </trkpt>
      <trkpt lat="50.71023" lon="2.95417">
        <ele>18.4</ele>
        <time>2020-06-23T16:19:38Z</time>
      </trkpt>
      <trkpt lat="50.71018" lon="2.9542">
        <ele>18.4</ele>
        <time>2020-06-23T16:19:39Z</time>
      </trkpt>
      <trkpt lat="50.71012" lon="2.95423">
        <ele>18.4</ele>
        <time>2020-06-23T16:19:40Z</time>
      </trkpt>
      <trkpt lat="50.71005" lon="2.95427">
        <ele>18.4</ele>
        <time>2020-06-23T16:19:41Z</time>
      </trkpt>
      <trkpt lat="50.71" lon="2.9543">
        <ele>18.4</ele>
        <time>2020-06-23T16:19:42Z</time>
      </trkpt>
      <trkpt lat="50.70995" lon="2.95433">
        <ele>18.4</ele>
        <time>2020-06-23T16:19:43Z</time>
      </trkpt>
      <trkpt lat="50.7099" lon="2.95437">
        <ele>18.3</ele>
        <time>2020-06-23T16:19:44Z</time>
      </trkpt>
      <trkpt lat="50.70984" lon="2.9544">
        <ele>18.3</ele>
        <time>2020-06-23T16:19:45Z</time>
      </trkpt>
      <trkpt lat="50.70974" lon="2.95445">
        <ele>18.2</ele>
        <time>2020-06-23T16:19:46Z</time>
      </trkpt>
      <trkpt lat="50.70966" lon="2.95449">
        <ele>18.2</ele>
        <time>2020-06-23T16:19:47Z</time>
      </trkpt>
      <trkpt lat="50.70961" lon="2.95453">
        <ele>18.2</ele>
        <time>2020-06-23T16:19:48Z</time>
      </trkpt>
      <trkpt lat="50.70956" lon="2.95457">
        <ele>18.2</ele>
        <time>2020-06-23T16:19:49Z</time>
      </trkpt>
      <trkpt lat="50.7095" lon="2.95462">
        <ele>18.2</ele>
        <time>2020-06-23T16:19:50Z</time>
      </trkpt>
      <trkpt lat="50.70945" lon="2.95467">
        <ele>18.2</ele>
        <time>2020-06-23T16:19:51Z</time>
      </trkpt>
      <trkpt lat="50.70939" lon="2.95471">
        <ele>18.1</ele>
        <time>2020-06-23T16:19:52Z</time>
      </trkpt>
      <trkpt lat="50.70932" lon="2.95476">
        <ele>18.1</ele>
        <time>2020-06-23T16:19:53Z</time>
      </trkpt>
      <trkpt lat="50.70925" lon="2.95479">
        <ele>18.1</ele>
        <time>2020-06-23T16:19:54Z</time>
      </trkpt>
      <trkpt lat="50.70918" lon="2.95483">
        <ele>18.1</ele>
        <time>2020-06-23T16:19:55Z</time>
      </trkpt>
      <trkpt lat="50.70912" lon="2.95487">
        <ele>18.1</ele>
        <time>2020-06-23T16:19:56Z</time>
      </trkpt>
      <trkpt lat="50.70906" lon="2.9549">
        <ele>18.1</ele>
        <time>2020-06-23T16:19:57Z</time>
      </trkpt>
      <trkpt lat="50.70899" lon="2.95494">
        <ele>18.1</ele>
        <time>2020-06-23T16:19:58Z</time>
      </trkpt>
      <trkpt lat="50.70893" lon="2.955">
        <ele>18.1</ele>
        <time>2020-06-23T16:19:59Z</time>
      </trkpt>
      <trkpt lat="50.70888" lon="2.95505">
        <ele>18.1</ele>
        <time>2020-06-23T16:20:00Z</time>
      </trkpt>
      <trkpt lat="50.70882" lon="2.95509">
        <ele>18.1</ele>
        <time>2020-06-23T16:20:01Z</time>
      </trkpt>
      <trkpt lat="50.70876" lon="2.95513">
        <ele>18.1</ele>
        <time>2020-06-23T16:20:02Z</time>
      </trkpt>
      <trkpt lat="50.7087" lon="2.95517">
        <ele>18.2</ele>
        <time>2020-06-23T16:20:03Z</time>
      </trkpt>
      <trkpt lat="50.70864" lon="2.95522">
        <ele>18.2</ele>
        <time>2020-06-23T16:20:04Z</time>
      </trkpt>
      <trkpt lat="50.70858" lon="2.95527">
        <ele>18.2</ele>
        <time>2020-06-23T16:20:05Z</time>
      </trkpt>
      <trkpt lat="50.70852" lon="2.95532">
        <ele>18.2</ele>
        <time>2020-06-23T16:20:06Z</time>
      </trkpt>
      <trkpt lat="50.70846" lon="2.95537">
        <ele>18.2</ele>
        <time>2020-06-23T16:20:07Z</time>
      </trkpt>
      <trkpt lat="50.7084" lon="2.95542">
        <ele>18.1</ele>
        <time>2020-06-23T16:20:08Z</time>
      </trkpt>
      <trkpt lat="50.70835" lon="2.95546">
        <ele>18.1</ele>
        <time>2020-06-23T16:20:09Z</time>
      </trkpt>
      <trkpt lat="50.7083" lon="2.9555">
        <ele>18.1</ele>
        <time>2020-06-23T16:20:10Z</time>
      </trkpt>
      <trkpt lat="50.70824" lon="2.95553">
        <ele>18.2</ele>
        <time>2020-06-23T16:20:11Z</time>
      </trkpt>
      <trkpt lat="50.70819" lon="2.95556">
        <ele>18.2</ele>
        <time>2020-06-23T16:20:12Z</time>
      </trkpt>
      <trkpt lat="50.70812" lon="2.95562">
        <ele>18.2</ele>
        <time>2020-06-23T16:20:13Z</time>
      </trkpt>
      <trkpt lat="50.70806" lon="2.95567">
        <ele>18.2</ele>
        <time>2020-06-23T16:20:14Z</time>
      </trkpt>
      <trkpt lat="50.708" lon="2.95572">
        <ele>18.2</ele>
        <time>2020-06-23T16:20:15Z</time>
      </trkpt>
      <trkpt lat="50.70794" lon="2.95577">
        <ele>18.2</ele>
        <time>2020-06-23T16:20:16Z</time>
      </trkpt>
      <trkpt lat="50.70787" lon="2.95582">
        <ele>18.2</ele>
        <time>2020-06-23T16:20:17Z</time>
      </trkpt>
      <trkpt lat="50.70781" lon="2.95586">
        <ele>18.2</ele>
        <time>2020-06-23T16:20:18Z</time>
      </trkpt>
      <trkpt lat="50.70776" lon="2.9559">
        <ele>18.2</ele>
        <time>2020-06-23T16:20:19Z</time>
      </trkpt>
      <trkpt lat="50.7077" lon="2.95595">
        <ele>18.2</ele>
        <time>2020-06-23T16:20:20Z</time>
      </trkpt>
      <trkpt lat="50.70764" lon="2.956">
        <ele>18.2</ele>
        <time>2020-06-23T16:20:21Z</time>
      </trkpt>
      <trkpt lat="50.70758" lon="2.95605">
        <ele>18.1</ele>
        <time>2020-06-23T16:20:22Z</time>
      </trkpt>
      <trkpt lat="50.70752" lon="2.95609">
        <ele>18.1</ele>
        <time>2020-06-23T16:20:23Z</time>
      </trkpt>
      <trkpt lat="50.70746" lon="2.95614">
        <ele>18.1</ele>
        <time>2020-06-23T16:20:24Z</time>
      </trkpt>
      <trkpt lat="50.70741" lon="2.95618">
        <ele>18.1</ele>
        <time>2020-06-23T16:20:25Z</time>
      </trkpt>
      <trkpt lat="50.70735" lon="2.95621">
        <ele>18.1</ele>
        <time>2020-06-23T16:20:26Z</time>
      </trkpt>
      <trkpt lat="50.70729" lon="2.95625">
        <ele>18.1</ele>
        <time>2020-06-23T16:20:27Z</time>
      </trkpt>
      <trkpt lat="50.70722" lon="2.9563">
        <ele>18.2</ele>
        <time>2020-06-23T16:20:28Z</time>
      </trkpt>
      <trkpt lat="50.70717" lon="2.95635">
        <ele>18.2</ele>
        <time>2020-06-23T16:20:29Z</time>
      </trkpt>
      <trkpt lat="50.70711" lon="2.95639">
        <ele>18.3</ele>
        <time>2020-06-23T16:20:30Z</time>
      </trkpt>
      <trkpt lat="50.70705" lon="2.95644">
        <ele>18.3</ele>
        <time>2020-06-23T16:20:31Z</time>
      </trkpt>
      <trkpt lat="50.70699" lon="2.95648">
        <ele>18.3</ele>
        <time>2020-06-23T16:20:32Z</time>
      </trkpt>
      <trkpt lat="50.70692" lon="2.95653">
        <ele>18.3</ele>
        <time>2020-06-23T16:20:33Z</time>
      </trkpt>
      <trkpt lat="50.70686" lon="2.95657">
        <ele>18.3</ele>
        <time>2020-06-23T16:20:34Z</time>
      </trkpt>
      <trkpt lat="50.7068" lon="2.95663">
        <ele>18.3</ele>
        <time>2020-06-23T16:20:35Z</time>
      </trkpt>
      <trkpt lat="50.70675" lon="2.95666">
        <ele>18.3</ele>
        <time>2020-06-23T16:20:36Z</time>
      </trkpt>
      <trkpt lat="50.70669" lon="2.95669">
        <ele>18.4</ele>
        <time>2020-06-23T16:20:37Z</time>
      </trkpt>
      <trkpt lat="50.70662" lon="2.95673">
        <ele>18.4</ele>
        <time>2020-06-23T16:20:38Z</time>
      </trkpt>
      <trkpt lat="50.70656" lon="2.95677">
        <ele>18.5</ele>
        <time>2020-06-23T16:20:39Z</time>
      </trkpt>
      <trkpt lat="50.7065" lon="2.95681">
        <ele>18.5</ele>
        <time>2020-06-23T16:20:40Z</time>
      </trkpt>
      <trkpt lat="50.70644" lon="2.95686">
        <ele>18.5</ele>
        <time>2020-06-23T16:20:41Z</time>
      </trkpt>
      <trkpt lat="50.70637" lon="2.95691">
        <ele>18.5</ele>
        <time>2020-06-23T16:20:42Z</time>
      </trkpt>
      <trkpt lat="50.70631" lon="2.95697">
        <ele>18.5</ele>
        <time>2020-06-23T16:20:43Z</time>
      </trkpt>
      <trkpt lat="50.70625" lon="2.95702">
        <ele>18.5</ele>
        <time>2020-06-23T16:20:44Z</time>
      </trkpt>
      <trkpt lat="50.70619" lon="2.95706">
        <ele>18.5</ele>
        <time>2020-06-23T16:20:45Z</time>
      </trkpt>
      <trkpt lat="50.70614" lon="2.95711">
        <ele>18.5</ele>
        <time>2020-06-23T16:20:46Z</time>
      </trkpt>
      <trkpt lat="50.70608" lon="2.95716">
        <ele>18.6</ele>
        <time>2020-06-23T16:20:47Z</time>
      </trkpt>
      <trkpt lat="50.70603" lon="2.95721">
        <ele>18.6</ele>
        <time>2020-06-23T16:20:48Z</time>
      </trkpt>
      <trkpt lat="50.70598" lon="2.95727">
        <ele>18.7</ele>
        <time>2020-06-23T16:20:49Z</time>
      </trkpt>
      <trkpt lat="50.70593" lon="2.95731">
        <ele>18.8</ele>
        <time>2020-06-23T16:20:50Z</time>
      </trkpt>
      <trkpt lat="50.70588" lon="2.95735">
        <ele>18.9</ele>
        <time>2020-06-23T16:20:51Z</time>
      </trkpt>
      <trkpt lat="50.70583" lon="2.95738">
        <ele>18.9</ele>
        <time>2020-06-23T16:20:52Z</time>
      </trkpt>
      <trkpt lat="50.70578" lon="2.95738">
        <ele>19</ele>
        <time>2020-06-23T16:20:53Z</time>
      </trkpt>
      <trkpt lat="50.70573" lon="2.95736">
        <ele>19.1</ele>
        <time>2020-06-23T16:20:54Z</time>
      </trkpt>
      <trkpt lat="50.70569" lon="2.95733">
        <ele>19.2</ele>
        <time>2020-06-23T16:20:55Z</time>
      </trkpt>
      <trkpt lat="50.70565" lon="2.9573">
        <ele>19.2</ele>
        <time>2020-06-23T16:20:56Z</time>
      </trkpt>
      <trkpt lat="50.70562" lon="2.95728">
        <ele>19.3</ele>
        <time>2020-06-23T16:20:57Z</time>
      </trkpt>
      <trkpt lat="50.70559" lon="2.95725">
        <ele>19.3</ele>
        <time>2020-06-23T16:20:58Z</time>
      </trkpt>
      <trkpt lat="50.70557" lon="2.95724">
        <ele>19.3</ele>
        <time>2020-06-23T16:20:59Z</time>
      </trkpt>
      <trkpt lat="50.70553" lon="2.95723">
        <ele>19.4</ele>
        <time>2020-06-23T16:21:00Z</time>
      </trkpt>
      <trkpt lat="50.70549" lon="2.95725">
        <ele>19.3</ele>
        <time>2020-06-23T16:21:01Z</time>
      </trkpt>
      <trkpt lat="50.70546" lon="2.95727">
        <ele>19.2</ele>
        <time>2020-06-23T16:21:02Z</time>
      </trkpt>
      <trkpt lat="50.70543" lon="2.95731">
        <ele>19.2</ele>
        <time>2020-06-23T16:21:03Z</time>
      </trkpt>
      <trkpt lat="50.7054" lon="2.95735">
        <ele>19.1</ele>
        <time>2020-06-23T16:21:04Z</time>
      </trkpt>
      <trkpt lat="50.7054" lon="2.95736">
        <ele>19.1</ele>
        <time>2020-06-23T16:21:05Z</time>
      </trkpt>
      <trkpt lat="50.70536" lon="2.95741">
        <ele>19.1</ele>
        <time>2020-06-23T16:21:06Z</time>
      </trkpt>
      <trkpt lat="50.70534" lon="2.95744">
        <ele>19.1</ele>
        <time>2020-06-23T16:21:07Z</time>
      </trkpt>
      <trkpt lat="50.70531" lon="2.95749">
        <ele>19</ele>
        <time>2020-06-23T16:21:08Z</time>
      </trkpt>
      <trkpt lat="50.70528" lon="2.95754">
        <ele>19</ele>
        <time>2020-06-23T16:21:09Z</time>
      </trkpt>
      <trkpt lat="50.70526" lon="2.95759">
        <ele>19</ele>
        <time>2020-06-23T16:21:10Z</time>
      </trkpt>
      <trkpt lat="50.70524" lon="2.95764">
        <ele>19</ele>
        <time>2020-06-23T16:21:11Z</time>
      </trkpt>
      <trkpt lat="50.70521" lon="2.95769">
        <ele>19</ele>
        <time>2020-06-23T16:21:12Z</time>
      </trkpt>
      <trkpt lat="50.70518" lon="2.95774">
        <ele>19</ele>
        <time>2020-06-23T16:21:13Z</time>
      </trkpt>
      <trkpt lat="50.70515" lon="2.9578">
        <ele>19</ele>
        <time>2020-06-23T16:21:14Z</time>
      </trkpt>
      <trkpt lat="50.70512" lon="2.95786">
        <ele>19</ele>
        <time>2020-06-23T16:21:15Z</time>
      </trkpt>
      <trkpt lat="50.70508" lon="2.95793">
        <ele>19</ele>
        <time>2020-06-23T16:21:16Z</time>
      </trkpt>
      <trkpt lat="50.70505" lon="2.958">
        <ele>19</ele>
        <time>2020-06-23T16:21:17Z</time>
      </trkpt>
      <trkpt lat="50.70503" lon="2.95805">
        <ele>19</ele>
        <time>2020-06-23T16:21:18Z</time>
      </trkpt>
      <trkpt lat="50.705" lon="2.95812">
        <ele>19</ele>
        <time>2020-06-23T16:21:19Z</time>
      </trkpt>
      <trkpt lat="50.70497" lon="2.95819">
        <ele>19</ele>
        <time>2020-06-23T16:21:20Z</time>
      </trkpt>
      <trkpt lat="50.70494" lon="2.95826">
        <ele>19</ele>
        <time>2020-06-23T16:21:21Z</time>
      </trkpt>
      <trkpt lat="50.70491" lon="2.95833">
        <ele>19</ele>
        <time>2020-06-23T16:21:22Z</time>
      </trkpt>
      <trkpt lat="50.70487" lon="2.9584">
        <ele>19</ele>
        <time>2020-06-23T16:21:23Z</time>
      </trkpt>
      <trkpt lat="50.70484" lon="2.95848">
        <ele>18.9</ele>
        <time>2020-06-23T16:21:24Z</time>
      </trkpt>
      <trkpt lat="50.7048" lon="2.95855">
        <ele>18.9</ele>
        <time>2020-06-23T16:21:25Z</time>
      </trkpt>
      <trkpt lat="50.70476" lon="2.95862">
        <ele>18.9</ele>
        <time>2020-06-23T16:21:26Z</time>
      </trkpt>
      <trkpt lat="50.70472" lon="2.9587">
        <ele>19</ele>
        <time>2020-06-23T16:21:27Z</time>
      </trkpt>
      <trkpt lat="50.70467" lon="2.95877">
        <ele>19</ele>
        <time>2020-06-23T16:21:28Z</time>
      </trkpt>
      <trkpt lat="50.70463" lon="2.95885">
        <ele>19</ele>
        <time>2020-06-23T16:21:29Z</time>
      </trkpt>
      <trkpt lat="50.70458" lon="2.95892">
        <ele>19</ele>
        <time>2020-06-23T16:21:30Z</time>
      </trkpt>
      <trkpt lat="50.70454" lon="2.95901">
        <ele>19.1</ele>
        <time>2020-06-23T16:21:31Z</time>
      </trkpt>
      <trkpt lat="50.7045" lon="2.95909">
        <ele>19.1</ele>
        <time>2020-06-23T16:21:32Z</time>
      </trkpt>
      <trkpt lat="50.70447" lon="2.95917">
        <ele>19.1</ele>
        <time>2020-06-23T16:21:33Z</time>
      </trkpt>
      <trkpt lat="50.70443" lon="2.95926">
        <ele>19.1</ele>
        <time>2020-06-23T16:21:34Z</time>
      </trkpt>
      <trkpt lat="50.7044" lon="2.95934">
        <ele>19.1</ele>
        <time>2020-06-23T16:21:35Z</time>
      </trkpt>
      <trkpt lat="50.70436" lon="2.95943">
        <ele>19.1</ele>
        <time>2020-06-23T16:21:36Z</time>
      </trkpt>
      <trkpt lat="50.70433" lon="2.95952">
        <ele>19.1</ele>
        <time>2020-06-23T16:21:37Z</time>
      </trkpt>
      <trkpt lat="50.7043" lon="2.95961">
        <ele>19.1</ele>
        <time>2020-06-23T16:21:38Z</time>
      </trkpt>
      <trkpt lat="50.70428" lon="2.9597">
        <ele>19.1</ele>
        <time>2020-06-23T16:21:39Z</time>
      </trkpt>
      <trkpt lat="50.70425" lon="2.95978">
        <ele>19.1</ele>
        <time>2020-06-23T16:21:40Z</time>
      </trkpt>
      <trkpt lat="50.70423" lon="2.95987">
        <ele>19.1</ele>
        <time>2020-06-23T16:21:41Z</time>
      </trkpt>
      <trkpt lat="50.7042" lon="2.95995">
        <ele>19.1</ele>
        <time>2020-06-23T16:21:42Z</time>
      </trkpt>
      <trkpt lat="50.70416" lon="2.96004">
        <ele>19.1</ele>
        <time>2020-06-23T16:21:43Z</time>
      </trkpt>
      <trkpt lat="50.70413" lon="2.96012">
        <ele>19.1</ele>
        <time>2020-06-23T16:21:44Z</time>
      </trkpt>
      <trkpt lat="50.7041" lon="2.96021">
        <ele>19.1</ele>
        <time>2020-06-23T16:21:45Z</time>
      </trkpt>
      <trkpt lat="50.70407" lon="2.96029">
        <ele>19.1</ele>
        <time>2020-06-23T16:21:46Z</time>
      </trkpt>
      <trkpt lat="50.70405" lon="2.96036">
        <ele>19.1</ele>
        <time>2020-06-23T16:21:47Z</time>
      </trkpt>
      <trkpt lat="50.70402" lon="2.96044">
        <ele>19.1</ele>
        <time>2020-06-23T16:21:48Z</time>
      </trkpt>
      <trkpt lat="50.704" lon="2.96052">
        <ele>19.1</ele>
        <time>2020-06-23T16:21:49Z</time>
      </trkpt>
      <trkpt lat="50.70398" lon="2.9606">
        <ele>19.1</ele>
        <time>2020-06-23T16:21:50Z</time>
      </trkpt>
      <trkpt lat="50.70396" lon="2.96068">
        <ele>19.1</ele>
        <time>2020-06-23T16:21:51Z</time>
      </trkpt>
      <trkpt lat="50.70394" lon="2.96075">
        <ele>19.1</ele>
        <time>2020-06-23T16:21:52Z</time>
      </trkpt>
      <trkpt lat="50.70392" lon="2.96083">
        <ele>19.1</ele>
        <time>2020-06-23T16:21:53Z</time>
      </trkpt>
      <trkpt lat="50.70389" lon="2.96091">
        <ele>19.1</ele>
        <time>2020-06-23T16:21:54Z</time>
      </trkpt>
      <trkpt lat="50.70387" lon="2.961">
        <ele>19.1</ele>
        <time>2020-06-23T16:21:55Z</time>
      </trkpt>
      <trkpt lat="50.70384" lon="2.96108">
        <ele>19</ele>
        <time>2020-06-23T16:21:56Z</time>
      </trkpt>
      <trkpt lat="50.7038" lon="2.96116">
        <ele>19</ele>
        <time>2020-06-23T16:21:57Z</time>
      </trkpt>
      <trkpt lat="50.70377" lon="2.96126">
        <ele>19</ele>
        <time>2020-06-23T16:21:58Z</time>
      </trkpt>
      <trkpt lat="50.70374" lon="2.96134">
        <ele>19</ele>
        <time>2020-06-23T16:21:59Z</time>
      </trkpt>
      <trkpt lat="50.70372" lon="2.96142">
        <ele>19.1</ele>
        <time>2020-06-23T16:22:00Z</time>
      </trkpt>
      <trkpt lat="50.70369" lon="2.96149">
        <ele>19.1</ele>
        <time>2020-06-23T16:22:01Z</time>
      </trkpt>
      <trkpt lat="50.70365" lon="2.96157">
        <ele>19.1</ele>
        <time>2020-06-23T16:22:02Z</time>
      </trkpt>
      <trkpt lat="50.70362" lon="2.96165">
        <ele>19.1</ele>
        <time>2020-06-23T16:22:03Z</time>
      </trkpt>
      <trkpt lat="50.70359" lon="2.96174">
        <ele>19.2</ele>
        <time>2020-06-23T16:22:04Z</time>
      </trkpt>
      <trkpt lat="50.70355" lon="2.96182">
        <ele>19.2</ele>
        <time>2020-06-23T16:22:05Z</time>
      </trkpt>
      <trkpt lat="50.70352" lon="2.9619">
        <ele>19.2</ele>
        <time>2020-06-23T16:22:06Z</time>
      </trkpt>
      <trkpt lat="50.70349" lon="2.96198">
        <ele>19.2</ele>
        <time>2020-06-23T16:22:07Z</time>
      </trkpt>
      <trkpt lat="50.70346" lon="2.96206">
        <ele>19.2</ele>
        <time>2020-06-23T16:22:08Z</time>
      </trkpt>
      <trkpt lat="50.70343" lon="2.96214">
        <ele>19.1</ele>
        <time>2020-06-23T16:22:09Z</time>
      </trkpt>
      <trkpt lat="50.7034" lon="2.96223">
        <ele>19.1</ele>
        <time>2020-06-23T16:22:10Z</time>
      </trkpt>
      <trkpt lat="50.70336" lon="2.96233">
        <ele>19.1</ele>
        <time>2020-06-23T16:22:11Z</time>
      </trkpt>
      <trkpt lat="50.70334" lon="2.96242">
        <ele>19.2</ele>
        <time>2020-06-23T16:22:12Z</time>
      </trkpt>
      <trkpt lat="50.70331" lon="2.96252">
        <ele>19.2</ele>
        <time>2020-06-23T16:22:13Z</time>
      </trkpt>
      <trkpt lat="50.70327" lon="2.9626">
        <ele>19.2</ele>
        <time>2020-06-23T16:22:14Z</time>
      </trkpt>
      <trkpt lat="50.70325" lon="2.96269">
        <ele>19.2</ele>
        <time>2020-06-23T16:22:15Z</time>
      </trkpt>
      <trkpt lat="50.70323" lon="2.96277">
        <ele>19.2</ele>
        <time>2020-06-23T16:22:16Z</time>
      </trkpt>
      <trkpt lat="50.7032" lon="2.96285">
        <ele>19.2</ele>
        <time>2020-06-23T16:22:17Z</time>
      </trkpt>
      <trkpt lat="50.70317" lon="2.96293">
        <ele>19.2</ele>
        <time>2020-06-23T16:22:18Z</time>
      </trkpt>
      <trkpt lat="50.70314" lon="2.96301">
        <ele>19.2</ele>
        <time>2020-06-23T16:22:19Z</time>
      </trkpt>
      <trkpt lat="50.70311" lon="2.96309">
        <ele>19.2</ele>
        <time>2020-06-23T16:22:20Z</time>
      </trkpt>
      <trkpt lat="50.70308" lon="2.96318">
        <ele>19.2</ele>
        <time>2020-06-23T16:22:21Z</time>
      </trkpt>
      <trkpt lat="50.70306" lon="2.96325">
        <ele>19.2</ele>
        <time>2020-06-23T16:22:22Z</time>
      </trkpt>
      <trkpt lat="50.70303" lon="2.96333">
        <ele>19.2</ele>
        <time>2020-06-23T16:22:23Z</time>
      </trkpt>
      <trkpt lat="50.703" lon="2.96341">
        <ele>19.1</ele>
        <time>2020-06-23T16:22:24Z</time>
      </trkpt>
      <trkpt lat="50.70297" lon="2.9635">
        <ele>19.1</ele>
        <time>2020-06-23T16:22:25Z</time>
      </trkpt>
      <trkpt lat="50.70293" lon="2.96357">
        <ele>19.1</ele>
        <time>2020-06-23T16:22:26Z</time>
      </trkpt>
      <trkpt lat="50.70291" lon="2.96365">
        <ele>19.1</ele>
        <time>2020-06-23T16:22:27Z</time>
      </trkpt>
      <trkpt lat="50.70288" lon="2.96374">
        <ele>19.1</ele>
        <time>2020-06-23T16:22:28Z</time>
      </trkpt>
      <trkpt lat="50.70285" lon="2.96381">
        <ele>19.1</ele>
        <time>2020-06-23T16:22:29Z</time>
      </trkpt>
      <trkpt lat="50.70281" lon="2.96391">
        <ele>19.1</ele>
        <time>2020-06-23T16:22:30Z</time>
      </trkpt>
      <trkpt lat="50.70277" lon="2.96401">
        <ele>19.1</ele>
        <time>2020-06-23T16:22:31Z</time>
      </trkpt>
      <trkpt lat="50.70273" lon="2.96411">
        <ele>19.1</ele>
        <time>2020-06-23T16:22:32Z</time>
      </trkpt>
      <trkpt lat="50.70269" lon="2.96421">
        <ele>19.1</ele>
        <time>2020-06-23T16:22:33Z</time>
      </trkpt>
      <trkpt lat="50.70266" lon="2.96431">
        <ele>19.1</ele>
        <time>2020-06-23T16:22:34Z</time>
      </trkpt>
      <trkpt lat="50.70263" lon="2.96441">
        <ele>19.2</ele>
        <time>2020-06-23T16:22:35Z</time>
      </trkpt>
      <trkpt lat="50.70261" lon="2.9645">
        <ele>19.2</ele>
        <time>2020-06-23T16:22:36Z</time>
      </trkpt>
      <trkpt lat="50.70258" lon="2.96458">
        <ele>19.2</ele>
        <time>2020-06-23T16:22:37Z</time>
      </trkpt>
      <trkpt lat="50.70255" lon="2.96467">
        <ele>19.2</ele>
        <time>2020-06-23T16:22:38Z</time>
      </trkpt>
      <trkpt lat="50.70252" lon="2.96476">
        <ele>19.2</ele>
        <time>2020-06-23T16:22:39Z</time>
      </trkpt>
      <trkpt lat="50.70249" lon="2.96484">
        <ele>19.2</ele>
        <time>2020-06-23T16:22:40Z</time>
      </trkpt>
      <trkpt lat="50.70246" lon="2.96492">
        <ele>19.3</ele>
        <time>2020-06-23T16:22:41Z</time>
      </trkpt>
      <trkpt lat="50.70243" lon="2.965">
        <ele>19.3</ele>
        <time>2020-06-23T16:22:42Z</time>
      </trkpt>
      <trkpt lat="50.70241" lon="2.96508">
        <ele>19.3</ele>
        <time>2020-06-23T16:22:43Z</time>
      </trkpt>
      <trkpt lat="50.70239" lon="2.96516">
        <ele>19.3</ele>
        <time>2020-06-23T16:22:44Z</time>
      </trkpt>
      <trkpt lat="50.70236" lon="2.96525">
        <ele>19.4</ele>
        <time>2020-06-23T16:22:45Z</time>
      </trkpt>
      <trkpt lat="50.70234" lon="2.96533">
        <ele>19.4</ele>
        <time>2020-06-23T16:22:46Z</time>
      </trkpt>
      <trkpt lat="50.70232" lon="2.9654">
        <ele>19.4</ele>
        <time>2020-06-23T16:22:47Z</time>
      </trkpt>
      <trkpt lat="50.70228" lon="2.96548">
        <ele>19.4</ele>
        <time>2020-06-23T16:22:48Z</time>
      </trkpt>
      <trkpt lat="50.70225" lon="2.96556">
        <ele>19.4</ele>
        <time>2020-06-23T16:22:49Z</time>
      </trkpt>
      <trkpt lat="50.70222" lon="2.96564">
        <ele>19.4</ele>
        <time>2020-06-23T16:22:50Z</time>
      </trkpt>
      <trkpt lat="50.70218" lon="2.96572">
        <ele>19.4</ele>
        <time>2020-06-23T16:22:51Z</time>
      </trkpt>
      <trkpt lat="50.70216" lon="2.96581">
        <ele>19.4</ele>
        <time>2020-06-23T16:22:52Z</time>
      </trkpt>
      <trkpt lat="50.70213" lon="2.96589">
        <ele>19.4</ele>
        <time>2020-06-23T16:22:53Z</time>
      </trkpt>
      <trkpt lat="50.7021" lon="2.96596">
        <ele>19.4</ele>
        <time>2020-06-23T16:22:54Z</time>
      </trkpt>
      <trkpt lat="50.70207" lon="2.96604">
        <ele>19.4</ele>
        <time>2020-06-23T16:22:55Z</time>
      </trkpt>
      <trkpt lat="50.70204" lon="2.96612">
        <ele>19.4</ele>
        <time>2020-06-23T16:22:56Z</time>
      </trkpt>
      <trkpt lat="50.70201" lon="2.96619">
        <ele>19.5</ele>
        <time>2020-06-23T16:22:57Z</time>
      </trkpt>
      <trkpt lat="50.70198" lon="2.96628">
        <ele>19.5</ele>
        <time>2020-06-23T16:22:58Z</time>
      </trkpt>
      <trkpt lat="50.70194" lon="2.96638">
        <ele>19.5</ele>
        <time>2020-06-23T16:22:59Z</time>
      </trkpt>
      <trkpt lat="50.70191" lon="2.96647">
        <ele>19.5</ele>
        <time>2020-06-23T16:23:00Z</time>
      </trkpt>
      <trkpt lat="50.70188" lon="2.96656">
        <ele>19.5</ele>
        <time>2020-06-23T16:23:01Z</time>
      </trkpt>
      <trkpt lat="50.70184" lon="2.96665">
        <ele>19.5</ele>
        <time>2020-06-23T16:23:02Z</time>
      </trkpt>
      <trkpt lat="50.70181" lon="2.96674">
        <ele>19.6</ele>
        <time>2020-06-23T16:23:03Z</time>
      </trkpt>
      <trkpt lat="50.70178" lon="2.96682">
        <ele>19.6</ele>
        <time>2020-06-23T16:23:04Z</time>
      </trkpt>
      <trkpt lat="50.70175" lon="2.9669">
        <ele>19.5</ele>
        <time>2020-06-23T16:23:05Z</time>
      </trkpt>
      <trkpt lat="50.70172" lon="2.96699">
        <ele>19.5</ele>
        <time>2020-06-23T16:23:06Z</time>
      </trkpt>
      <trkpt lat="50.70169" lon="2.96708">
        <ele>19.5</ele>
        <time>2020-06-23T16:23:07Z</time>
      </trkpt>
      <trkpt lat="50.70165" lon="2.96715">
        <ele>19.5</ele>
        <time>2020-06-23T16:23:08Z</time>
      </trkpt>
      <trkpt lat="50.70161" lon="2.96723">
        <ele>19.5</ele>
        <time>2020-06-23T16:23:09Z</time>
      </trkpt>
      <trkpt lat="50.70158" lon="2.96732">
        <ele>19.5</ele>
        <time>2020-06-23T16:23:10Z</time>
      </trkpt>
      <trkpt lat="50.70156" lon="2.96742">
        <ele>19.5</ele>
        <time>2020-06-23T16:23:11Z</time>
      </trkpt>
      <trkpt lat="50.70153" lon="2.96751">
        <ele>19.5</ele>
        <time>2020-06-23T16:23:12Z</time>
      </trkpt>
      <trkpt lat="50.7015" lon="2.96759">
        <ele>19.5</ele>
        <time>2020-06-23T16:23:13Z</time>
      </trkpt>
      <trkpt lat="50.70147" lon="2.96767">
        <ele>19.5</ele>
        <time>2020-06-23T16:23:14Z</time>
      </trkpt>
      <trkpt lat="50.70144" lon="2.96775">
        <ele>19.6</ele>
        <time>2020-06-23T16:23:15Z</time>
      </trkpt>
      <trkpt lat="50.70141" lon="2.96783">
        <ele>19.6</ele>
        <time>2020-06-23T16:23:16Z</time>
      </trkpt>
      <trkpt lat="50.70137" lon="2.96791">
        <ele>19.7</ele>
        <time>2020-06-23T16:23:17Z</time>
      </trkpt>
      <trkpt lat="50.70133" lon="2.96799">
        <ele>19.9</ele>
        <time>2020-06-23T16:23:18Z</time>
      </trkpt>
      <trkpt lat="50.7013" lon="2.96808">
        <ele>20.1</ele>
        <time>2020-06-23T16:23:19Z</time>
      </trkpt>
      <trkpt lat="50.70127" lon="2.96819">
        <ele>20.2</ele>
        <time>2020-06-23T16:23:20Z</time>
      </trkpt>
      <trkpt lat="50.70124" lon="2.96826">
        <ele>20.2</ele>
        <time>2020-06-23T16:23:21Z</time>
      </trkpt>
      <trkpt lat="50.70121" lon="2.96835">
        <ele>20.1</ele>
        <time>2020-06-23T16:23:22Z</time>
      </trkpt>
      <trkpt lat="50.70117" lon="2.96842">
        <ele>20</ele>
        <time>2020-06-23T16:23:23Z</time>
      </trkpt>
      <trkpt lat="50.70114" lon="2.9685">
        <ele>20</ele>
        <time>2020-06-23T16:23:24Z</time>
      </trkpt>
      <trkpt lat="50.70111" lon="2.96858">
        <ele>20</ele>
        <time>2020-06-23T16:23:25Z</time>
      </trkpt>
      <trkpt lat="50.70108" lon="2.96866">
        <ele>20</ele>
        <time>2020-06-23T16:23:26Z</time>
      </trkpt>
      <trkpt lat="50.70105" lon="2.96873">
        <ele>20</ele>
        <time>2020-06-23T16:23:27Z</time>
      </trkpt>
      <trkpt lat="50.70102" lon="2.96881">
        <ele>19.9</ele>
        <time>2020-06-23T16:23:28Z</time>
      </trkpt>
      <trkpt lat="50.70098" lon="2.96888">
        <ele>19.9</ele>
        <time>2020-06-23T16:23:29Z</time>
      </trkpt>
      <trkpt lat="50.70094" lon="2.96896">
        <ele>19.9</ele>
        <time>2020-06-23T16:23:30Z</time>
      </trkpt>
      <trkpt lat="50.70091" lon="2.96905">
        <ele>19.9</ele>
        <time>2020-06-23T16:23:31Z</time>
      </trkpt>
      <trkpt lat="50.70088" lon="2.96914">
        <ele>19.9</ele>
        <time>2020-06-23T16:23:32Z</time>
      </trkpt>
      <trkpt lat="50.70085" lon="2.96921">
        <ele>19.9</ele>
        <time>2020-06-23T16:23:33Z</time>
      </trkpt>
      <trkpt lat="50.70081" lon="2.96928">
        <ele>19.9</ele>
        <time>2020-06-23T16:23:34Z</time>
      </trkpt>
      <trkpt lat="50.70077" lon="2.96935">
        <ele>19.9</ele>
        <time>2020-06-23T16:23:35Z</time>
      </trkpt>
      <trkpt lat="50.70074" lon="2.96944">
        <ele>19.9</ele>
        <time>2020-06-23T16:23:36Z</time>
      </trkpt>
      <trkpt lat="50.7007" lon="2.96951">
        <ele>19.9</ele>
        <time>2020-06-23T16:23:37Z</time>
      </trkpt>
      <trkpt lat="50.70067" lon="2.9696">
        <ele>19.9</ele>
        <time>2020-06-23T16:23:38Z</time>
      </trkpt>
      <trkpt lat="50.70063" lon="2.9697">
        <ele>19.9</ele>
        <time>2020-06-23T16:23:39Z</time>
      </trkpt>
      <trkpt lat="50.7006" lon="2.96977">
        <ele>19.9</ele>
        <time>2020-06-23T16:23:40Z</time>
      </trkpt>
      <trkpt lat="50.70057" lon="2.96985">
        <ele>19.9</ele>
        <time>2020-06-23T16:23:41Z</time>
      </trkpt>
      <trkpt lat="50.70053" lon="2.96993">
        <ele>19.9</ele>
        <time>2020-06-23T16:23:42Z</time>
      </trkpt>
      <trkpt lat="50.70048" lon="2.97001">
        <ele>19.9</ele>
        <time>2020-06-23T16:23:43Z</time>
      </trkpt>
      <trkpt lat="50.70043" lon="2.97008">
        <ele>20</ele>
        <time>2020-06-23T16:23:44Z</time>
      </trkpt>
      <trkpt lat="50.70038" lon="2.97015">
        <ele>20</ele>
        <time>2020-06-23T16:23:45Z</time>
      </trkpt>
      <trkpt lat="50.70035" lon="2.97023">
        <ele>20</ele>
        <time>2020-06-23T16:23:46Z</time>
      </trkpt>
      <trkpt lat="50.7003" lon="2.97029">
        <ele>19.9</ele>
        <time>2020-06-23T16:23:47Z</time>
      </trkpt>
      <trkpt lat="50.70025" lon="2.97035">
        <ele>19.8</ele>
        <time>2020-06-23T16:23:48Z</time>
      </trkpt>
      <trkpt lat="50.70021" lon="2.97043">
        <ele>19.7</ele>
        <time>2020-06-23T16:23:49Z</time>
      </trkpt>
      <trkpt lat="50.70017" lon="2.9705">
        <ele>19.7</ele>
        <time>2020-06-23T16:23:50Z</time>
      </trkpt>
      <trkpt lat="50.70014" lon="2.97057">
        <ele>19.6</ele>
        <time>2020-06-23T16:23:51Z</time>
      </trkpt>
      <trkpt lat="50.7001" lon="2.97065">
        <ele>19.6</ele>
        <time>2020-06-23T16:23:52Z</time>
      </trkpt>
      <trkpt lat="50.70006" lon="2.97072">
        <ele>19.6</ele>
        <time>2020-06-23T16:23:53Z</time>
      </trkpt>
      <trkpt lat="50.70002" lon="2.97078">
        <ele>19.5</ele>
        <time>2020-06-23T16:23:54Z</time>
      </trkpt>
      <trkpt lat="50.69998" lon="2.97085">
        <ele>19.5</ele>
        <time>2020-06-23T16:23:55Z</time>
      </trkpt>
      <trkpt lat="50.69993" lon="2.97093">
        <ele>19.5</ele>
        <time>2020-06-23T16:23:56Z</time>
      </trkpt>
      <trkpt lat="50.69989" lon="2.97101">
        <ele>19.5</ele>
        <time>2020-06-23T16:23:57Z</time>
      </trkpt>
      <trkpt lat="50.69985" lon="2.97108">
        <ele>19.4</ele>
        <time>2020-06-23T16:23:58Z</time>
      </trkpt>
      <trkpt lat="50.69981" lon="2.97115">
        <ele>19.4</ele>
        <time>2020-06-23T16:23:59Z</time>
      </trkpt>
      <trkpt lat="50.69977" lon="2.97121">
        <ele>19.4</ele>
        <time>2020-06-23T16:24:00Z</time>
      </trkpt>
      <trkpt lat="50.69973" lon="2.97128">
        <ele>19.4</ele>
        <time>2020-06-23T16:24:01Z</time>
      </trkpt>
      <trkpt lat="50.69969" lon="2.97135">
        <ele>19.4</ele>
        <time>2020-06-23T16:24:02Z</time>
      </trkpt>
      <trkpt lat="50.69965" lon="2.97142">
        <ele>19.4</ele>
        <time>2020-06-23T16:24:03Z</time>
      </trkpt>
      <trkpt lat="50.6996" lon="2.9715">
        <ele>19.4</ele>
        <time>2020-06-23T16:24:04Z</time>
      </trkpt>
      <trkpt lat="50.69956" lon="2.97158">
        <ele>19.4</ele>
        <time>2020-06-23T16:24:05Z</time>
      </trkpt>
      <trkpt lat="50.6995" lon="2.97166">
        <ele>19.3</ele>
        <time>2020-06-23T16:24:06Z</time>
      </trkpt>
      <trkpt lat="50.69946" lon="2.97173">
        <ele>19.3</ele>
        <time>2020-06-23T16:24:07Z</time>
      </trkpt>
      <trkpt lat="50.69941" lon="2.97181">
        <ele>19.3</ele>
        <time>2020-06-23T16:24:08Z</time>
      </trkpt>
      <trkpt lat="50.69937" lon="2.97188">
        <ele>19.2</ele>
        <time>2020-06-23T16:24:09Z</time>
      </trkpt>
      <trkpt lat="50.69932" lon="2.97196">
        <ele>19.2</ele>
        <time>2020-06-23T16:24:10Z</time>
      </trkpt>
      <trkpt lat="50.69928" lon="2.97202">
        <ele>19.2</ele>
        <time>2020-06-23T16:24:11Z</time>
      </trkpt>
      <trkpt lat="50.69923" lon="2.9721">
        <ele>19.2</ele>
        <time>2020-06-23T16:24:12Z</time>
      </trkpt>
      <trkpt lat="50.69919" lon="2.97217">
        <ele>19.2</ele>
        <time>2020-06-23T16:24:13Z</time>
      </trkpt>
      <trkpt lat="50.69915" lon="2.97224">
        <ele>19.2</ele>
        <time>2020-06-23T16:24:14Z</time>
      </trkpt>
      <trkpt lat="50.6991" lon="2.97232">
        <ele>19.2</ele>
        <time>2020-06-23T16:24:15Z</time>
      </trkpt>
      <trkpt lat="50.69906" lon="2.9724">
        <ele>19.2</ele>
        <time>2020-06-23T16:24:16Z</time>
      </trkpt>
      <trkpt lat="50.69901" lon="2.97247">
        <ele>19.1</ele>
        <time>2020-06-23T16:24:17Z</time>
      </trkpt>
      <trkpt lat="50.69896" lon="2.97254">
        <ele>19.1</ele>
        <time>2020-06-23T16:24:18Z</time>
      </trkpt>
      <trkpt lat="50.69892" lon="2.97261">
        <ele>19.1</ele>
        <time>2020-06-23T16:24:19Z</time>
      </trkpt>
      <trkpt lat="50.69887" lon="2.97269">
        <ele>19.1</ele>
        <time>2020-06-23T16:24:20Z</time>
      </trkpt>
      <trkpt lat="50.69883" lon="2.97275">
        <ele>19</ele>
        <time>2020-06-23T16:24:21Z</time>
      </trkpt>
      <trkpt lat="50.69879" lon="2.97281">
        <ele>19</ele>
        <time>2020-06-23T16:24:22Z</time>
      </trkpt>
      <trkpt lat="50.69874" lon="2.97287">
        <ele>19</ele>
        <time>2020-06-23T16:24:23Z</time>
      </trkpt>
      <trkpt lat="50.69869" lon="2.97292">
        <ele>19</ele>
        <time>2020-06-23T16:24:24Z</time>
      </trkpt>
      <trkpt lat="50.69864" lon="2.97298">
        <ele>19</ele>
        <time>2020-06-23T16:24:25Z</time>
      </trkpt>
      <trkpt lat="50.69859" lon="2.97303">
        <ele>19</ele>
        <time>2020-06-23T16:24:26Z</time>
      </trkpt>
      <trkpt lat="50.69854" lon="2.97307">
        <ele>19</ele>
        <time>2020-06-23T16:24:27Z</time>
      </trkpt>
      <trkpt lat="50.69849" lon="2.97313">
        <ele>19</ele>
        <time>2020-06-23T16:24:28Z</time>
      </trkpt>
      <trkpt lat="50.69844" lon="2.97318">
        <ele>19</ele>
        <time>2020-06-23T16:24:29Z</time>
      </trkpt>
      <trkpt lat="50.69838" lon="2.97324">
        <ele>18.9</ele>
        <time>2020-06-23T16:24:30Z</time>
      </trkpt>
      <trkpt lat="50.69833" lon="2.9733">
        <ele>18.9</ele>
        <time>2020-06-23T16:24:31Z</time>
      </trkpt>
      <trkpt lat="50.69829" lon="2.97335">
        <ele>18.9</ele>
        <time>2020-06-23T16:24:32Z</time>
      </trkpt>
      <trkpt lat="50.69823" lon="2.97341">
        <ele>18.9</ele>
        <time>2020-06-23T16:24:33Z</time>
      </trkpt>
      <trkpt lat="50.69819" lon="2.97346">
        <ele>18.8</ele>
        <time>2020-06-23T16:24:34Z</time>
      </trkpt>
      <trkpt lat="50.69814" lon="2.97352">
        <ele>18.8</ele>
        <time>2020-06-23T16:24:35Z</time>
      </trkpt>
      <trkpt lat="50.69809" lon="2.97358">
        <ele>18.9</ele>
        <time>2020-06-23T16:24:36Z</time>
      </trkpt>
      <trkpt lat="50.69804" lon="2.97364">
        <ele>18.9</ele>
        <time>2020-06-23T16:24:37Z</time>
      </trkpt>
      <trkpt lat="50.69799" lon="2.97371">
        <ele>18.9</ele>
        <time>2020-06-23T16:24:38Z</time>
      </trkpt>
      <trkpt lat="50.69794" lon="2.97379">
        <ele>19</ele>
        <time>2020-06-23T16:24:39Z</time>
      </trkpt>
      <trkpt lat="50.69789" lon="2.97385">
        <ele>19</ele>
        <time>2020-06-23T16:24:40Z</time>
      </trkpt>
      <trkpt lat="50.69784" lon="2.97392">
        <ele>19</ele>
        <time>2020-06-23T16:24:41Z</time>
      </trkpt>
      <trkpt lat="50.6978" lon="2.97399">
        <ele>19</ele>
        <time>2020-06-23T16:24:42Z</time>
      </trkpt>
      <trkpt lat="50.69775" lon="2.97407">
        <ele>19</ele>
        <time>2020-06-23T16:24:43Z</time>
      </trkpt>
      <trkpt lat="50.69771" lon="2.97414">
        <ele>19.1</ele>
        <time>2020-06-23T16:24:44Z</time>
      </trkpt>
      <trkpt lat="50.69768" lon="2.97422">
        <ele>19.2</ele>
        <time>2020-06-23T16:24:45Z</time>
      </trkpt>
      <trkpt lat="50.69764" lon="2.97428">
        <ele>19.4</ele>
        <time>2020-06-23T16:24:46Z</time>
      </trkpt>
      <trkpt lat="50.69761" lon="2.97436">
        <ele>19.3</ele>
        <time>2020-06-23T16:24:47Z</time>
      </trkpt>
      <trkpt lat="50.69758" lon="2.97445">
        <ele>19.3</ele>
        <time>2020-06-23T16:24:48Z</time>
      </trkpt>
      <trkpt lat="50.69756" lon="2.97456">
        <ele>19.2</ele>
        <time>2020-06-23T16:24:49Z</time>
      </trkpt>
      <trkpt lat="50.69754" lon="2.97466">
        <ele>19.2</ele>
        <time>2020-06-23T16:24:50Z</time>
      </trkpt>
      <trkpt lat="50.69752" lon="2.97474">
        <ele>19.1</ele>
        <time>2020-06-23T16:24:51Z</time>
      </trkpt>
      <trkpt lat="50.6975" lon="2.97485">
        <ele>19.1</ele>
        <time>2020-06-23T16:24:52Z</time>
      </trkpt>
      <trkpt lat="50.69749" lon="2.97495">
        <ele>19</ele>
        <time>2020-06-23T16:24:53Z</time>
      </trkpt>
      <trkpt lat="50.69748" lon="2.97504">
        <ele>19</ele>
        <time>2020-06-23T16:24:54Z</time>
      </trkpt>
      <trkpt lat="50.69747" lon="2.97512">
        <ele>19</ele>
        <time>2020-06-23T16:24:55Z</time>
      </trkpt>
      <trkpt lat="50.69747" lon="2.97522">
        <ele>19</ele>
        <time>2020-06-23T16:24:56Z</time>
      </trkpt>
      <trkpt lat="50.69746" lon="2.97529">
        <ele>19</ele>
        <time>2020-06-23T16:24:57Z</time>
      </trkpt>
      <trkpt lat="50.69745" lon="2.97536">
        <ele>19</ele>
        <time>2020-06-23T16:24:58Z</time>
      </trkpt>
      <trkpt lat="50.69744" lon="2.97546">
        <ele>19</ele>
        <time>2020-06-23T16:24:59Z</time>
      </trkpt>
      <trkpt lat="50.69743" lon="2.97554">
        <ele>19</ele>
        <time>2020-06-23T16:25:00Z</time>
      </trkpt>
      <trkpt lat="50.69742" lon="2.97564">
        <ele>19</ele>
        <time>2020-06-23T16:25:01Z</time>
      </trkpt>
      <trkpt lat="50.69741" lon="2.97571">
        <ele>19</ele>
        <time>2020-06-23T16:25:02Z</time>
      </trkpt>
      <trkpt lat="50.69741" lon="2.97576">
        <ele>19</ele>
        <time>2020-06-23T16:25:03Z</time>
      </trkpt>
      <trkpt lat="50.69741" lon="2.97583">
        <ele>19</ele>
        <time>2020-06-23T16:25:04Z</time>
      </trkpt>
      <trkpt lat="50.6974" lon="2.97591">
        <ele>19</ele>
        <time>2020-06-23T16:25:05Z</time>
      </trkpt>
      <trkpt lat="50.69738" lon="2.97599">
        <ele>19</ele>
        <time>2020-06-23T16:25:06Z</time>
      </trkpt>
      <trkpt lat="50.69735" lon="2.97609">
        <ele>19</ele>
        <time>2020-06-23T16:25:07Z</time>
      </trkpt>
      <trkpt lat="50.69732" lon="2.97618">
        <ele>18.9</ele>
        <time>2020-06-23T16:25:08Z</time>
      </trkpt>
      <trkpt lat="50.69728" lon="2.97626">
        <ele>18.9</ele>
        <time>2020-06-23T16:25:09Z</time>
      </trkpt>
      <trkpt lat="50.69725" lon="2.97632">
        <ele>18.9</ele>
        <time>2020-06-23T16:25:10Z</time>
      </trkpt>
      <trkpt lat="50.69721" lon="2.97637">
        <ele>18.8</ele>
        <time>2020-06-23T16:25:11Z</time>
      </trkpt>
      <trkpt lat="50.69716" lon="2.97643">
        <ele>18.8</ele>
        <time>2020-06-23T16:25:12Z</time>
      </trkpt>
      <trkpt lat="50.69711" lon="2.97648">
        <ele>18.8</ele>
        <time>2020-06-23T16:25:13Z</time>
      </trkpt>
      <trkpt lat="50.69705" lon="2.97654">
        <ele>18.8</ele>
        <time>2020-06-23T16:25:14Z</time>
      </trkpt>
      <trkpt lat="50.69701" lon="2.97661">
        <ele>18.8</ele>
        <time>2020-06-23T16:25:15Z</time>
      </trkpt>
      <trkpt lat="50.69699" lon="2.97667">
        <ele>18.9</ele>
        <time>2020-06-23T16:25:16Z</time>
      </trkpt>
      <trkpt lat="50.69697" lon="2.97674">
        <ele>18.9</ele>
        <time>2020-06-23T16:25:17Z</time>
      </trkpt>
      <trkpt lat="50.69695" lon="2.9768">
        <ele>18.9</ele>
        <time>2020-06-23T16:25:18Z</time>
      </trkpt>
      <trkpt lat="50.69693" lon="2.97686">
        <ele>18.9</ele>
        <time>2020-06-23T16:25:19Z</time>
      </trkpt>
      <trkpt lat="50.69691" lon="2.97694">
        <ele>18.9</ele>
        <time>2020-06-23T16:25:20Z</time>
      </trkpt>
      <trkpt lat="50.69687" lon="2.97704">
        <ele>18.9</ele>
        <time>2020-06-23T16:25:21Z</time>
      </trkpt>
      <trkpt lat="50.69684" lon="2.97713">
        <ele>19</ele>
        <time>2020-06-23T16:25:22Z</time>
      </trkpt>
      <trkpt lat="50.6968" lon="2.97723">
        <ele>19</ele>
        <time>2020-06-23T16:25:23Z</time>
      </trkpt>
      <trkpt lat="50.69676" lon="2.97733">
        <ele>19</ele>
        <time>2020-06-23T16:25:24Z</time>
      </trkpt>
      <trkpt lat="50.69674" lon="2.9774">
        <ele>19</ele>
        <time>2020-06-23T16:25:25Z</time>
      </trkpt>
      <trkpt lat="50.6967" lon="2.97748">
        <ele>19.1</ele>
        <time>2020-06-23T16:25:26Z</time>
      </trkpt>
      <trkpt lat="50.69667" lon="2.97755">
        <ele>19.1</ele>
        <time>2020-06-23T16:25:27Z</time>
      </trkpt>
      <trkpt lat="50.69663" lon="2.97762">
        <ele>19.1</ele>
        <time>2020-06-23T16:25:28Z</time>
      </trkpt>
      <trkpt lat="50.6966" lon="2.97769">
        <ele>19.1</ele>
        <time>2020-06-23T16:25:29Z</time>
      </trkpt>
      <trkpt lat="50.69657" lon="2.97776">
        <ele>19.1</ele>
        <time>2020-06-23T16:25:30Z</time>
      </trkpt>
      <trkpt lat="50.69653" lon="2.97783">
        <ele>19.1</ele>
        <time>2020-06-23T16:25:31Z</time>
      </trkpt>
      <trkpt lat="50.69649" lon="2.9779">
        <ele>19.1</ele>
        <time>2020-06-23T16:25:32Z</time>
      </trkpt>
      <trkpt lat="50.69644" lon="2.97798">
        <ele>19.1</ele>
        <time>2020-06-23T16:25:33Z</time>
      </trkpt>
      <trkpt lat="50.69639" lon="2.97804">
        <ele>19.1</ele>
        <time>2020-06-23T16:25:34Z</time>
      </trkpt>
      <trkpt lat="50.69634" lon="2.9781">
        <ele>19.1</ele>
        <time>2020-06-23T16:25:35Z</time>
      </trkpt>
      <trkpt lat="50.69629" lon="2.97816">
        <ele>19.2</ele>
        <time>2020-06-23T16:25:36Z</time>
      </trkpt>
      <trkpt lat="50.69625" lon="2.97823">
        <ele>19.2</ele>
        <time>2020-06-23T16:25:37Z</time>
      </trkpt>
      <trkpt lat="50.6962" lon="2.9783">
        <ele>19.3</ele>
        <time>2020-06-23T16:25:38Z</time>
      </trkpt>
      <trkpt lat="50.69616" lon="2.97837">
        <ele>19.3</ele>
        <time>2020-06-23T16:25:39Z</time>
      </trkpt>
      <trkpt lat="50.69611" lon="2.97843">
        <ele>19.3</ele>
        <time>2020-06-23T16:25:40Z</time>
      </trkpt>
      <trkpt lat="50.69607" lon="2.97849">
        <ele>19.4</ele>
        <time>2020-06-23T16:25:41Z</time>
      </trkpt>
      <trkpt lat="50.69602" lon="2.97858">
        <ele>19.4</ele>
        <time>2020-06-23T16:25:42Z</time>
      </trkpt>
      <trkpt lat="50.69598" lon="2.97864">
        <ele>19.5</ele>
        <time>2020-06-23T16:25:43Z</time>
      </trkpt>
      <trkpt lat="50.69593" lon="2.97869">
        <ele>19.5</ele>
        <time>2020-06-23T16:25:44Z</time>
      </trkpt>
      <trkpt lat="50.69589" lon="2.97874">
        <ele>19.6</ele>
        <time>2020-06-23T16:25:45Z</time>
      </trkpt>
      <trkpt lat="50.69585" lon="2.9788">
        <ele>19.6</ele>
        <time>2020-06-23T16:25:46Z</time>
      </trkpt>
      <trkpt lat="50.69581" lon="2.97887">
        <ele>19.7</ele>
        <time>2020-06-23T16:25:47Z</time>
      </trkpt>
      <trkpt lat="50.69576" lon="2.97895">
        <ele>19.8</ele>
        <time>2020-06-23T16:25:48Z</time>
      </trkpt>
      <trkpt lat="50.69571" lon="2.97902">
        <ele>19.8</ele>
        <time>2020-06-23T16:25:49Z</time>
      </trkpt>
      <trkpt lat="50.69567" lon="2.97909">
        <ele>19.9</ele>
        <time>2020-06-23T16:25:50Z</time>
      </trkpt>
      <trkpt lat="50.69563" lon="2.97915">
        <ele>19.9</ele>
        <time>2020-06-23T16:25:51Z</time>
      </trkpt>
      <trkpt lat="50.69558" lon="2.9792">
        <ele>19.9</ele>
        <time>2020-06-23T16:25:52Z</time>
      </trkpt>
      <trkpt lat="50.69554" lon="2.97925">
        <ele>20</ele>
        <time>2020-06-23T16:25:53Z</time>
      </trkpt>
      <trkpt lat="50.6955" lon="2.97931">
        <ele>20</ele>
        <time>2020-06-23T16:25:54Z</time>
      </trkpt>
      <trkpt lat="50.69545" lon="2.97937">
        <ele>20</ele>
        <time>2020-06-23T16:25:55Z</time>
      </trkpt>
      <trkpt lat="50.69541" lon="2.97944">
        <ele>20</ele>
        <time>2020-06-23T16:25:56Z</time>
      </trkpt>
      <trkpt lat="50.69536" lon="2.97949">
        <ele>20.1</ele>
        <time>2020-06-23T16:25:57Z</time>
      </trkpt>
      <trkpt lat="50.69532" lon="2.97955">
        <ele>20.1</ele>
        <time>2020-06-23T16:25:58Z</time>
      </trkpt>
      <trkpt lat="50.69528" lon="2.97961">
        <ele>20.1</ele>
        <time>2020-06-23T16:25:59Z</time>
      </trkpt>
      <trkpt lat="50.69523" lon="2.97968">
        <ele>20.1</ele>
        <time>2020-06-23T16:26:00Z</time>
      </trkpt>
      <trkpt lat="50.69519" lon="2.97973">
        <ele>20.1</ele>
        <time>2020-06-23T16:26:01Z</time>
      </trkpt>
      <trkpt lat="50.69515" lon="2.97979">
        <ele>20.2</ele>
        <time>2020-06-23T16:26:02Z</time>
      </trkpt>
      <trkpt lat="50.6951" lon="2.97984">
        <ele>20.2</ele>
        <time>2020-06-23T16:26:03Z</time>
      </trkpt>
      <trkpt lat="50.69506" lon="2.9799">
        <ele>20.2</ele>
        <time>2020-06-23T16:26:04Z</time>
      </trkpt>
      <trkpt lat="50.69501" lon="2.97996">
        <ele>20.1</ele>
        <time>2020-06-23T16:26:05Z</time>
      </trkpt>
      <trkpt lat="50.69497" lon="2.98002">
        <ele>20.1</ele>
        <time>2020-06-23T16:26:06Z</time>
      </trkpt>
      <trkpt lat="50.69493" lon="2.98009">
        <ele>20.1</ele>
        <time>2020-06-23T16:26:07Z</time>
      </trkpt>
      <trkpt lat="50.69488" lon="2.98016">
        <ele>20</ele>
        <time>2020-06-23T16:26:08Z</time>
      </trkpt>
      <trkpt lat="50.69484" lon="2.98021">
        <ele>20</ele>
        <time>2020-06-23T16:26:09Z</time>
      </trkpt>
      <trkpt lat="50.69479" lon="2.98027">
        <ele>20</ele>
        <time>2020-06-23T16:26:10Z</time>
      </trkpt>
      <trkpt lat="50.69475" lon="2.98034">
        <ele>20</ele>
        <time>2020-06-23T16:26:11Z</time>
      </trkpt>
      <trkpt lat="50.6947" lon="2.98039">
        <ele>20</ele>
        <time>2020-06-23T16:26:12Z</time>
      </trkpt>
      <trkpt lat="50.69465" lon="2.98045">
        <ele>20</ele>
        <time>2020-06-23T16:26:13Z</time>
      </trkpt>
      <trkpt lat="50.6946" lon="2.98053">
        <ele>20</ele>
        <time>2020-06-23T16:26:14Z</time>
      </trkpt>
      <trkpt lat="50.69456" lon="2.9806">
        <ele>20</ele>
        <time>2020-06-23T16:26:15Z</time>
      </trkpt>
      <trkpt lat="50.69451" lon="2.98068">
        <ele>20</ele>
        <time>2020-06-23T16:26:16Z</time>
      </trkpt>
      <trkpt lat="50.69446" lon="2.98074">
        <ele>20</ele>
        <time>2020-06-23T16:26:17Z</time>
      </trkpt>
      <trkpt lat="50.69441" lon="2.9808">
        <ele>20</ele>
        <time>2020-06-23T16:26:18Z</time>
      </trkpt>
      <trkpt lat="50.69436" lon="2.98086">
        <ele>20</ele>
        <time>2020-06-23T16:26:19Z</time>
      </trkpt>
      <trkpt lat="50.69431" lon="2.98092">
        <ele>19.9</ele>
        <time>2020-06-23T16:26:20Z</time>
      </trkpt>
      <trkpt lat="50.69426" lon="2.98097">
        <ele>19.9</ele>
        <time>2020-06-23T16:26:21Z</time>
      </trkpt>
      <trkpt lat="50.69422" lon="2.98103">
        <ele>19.9</ele>
        <time>2020-06-23T16:26:22Z</time>
      </trkpt>
      <trkpt lat="50.69417" lon="2.98109">
        <ele>19.9</ele>
        <time>2020-06-23T16:26:23Z</time>
      </trkpt>
      <trkpt lat="50.69413" lon="2.98114">
        <ele>19.9</ele>
        <time>2020-06-23T16:26:24Z</time>
      </trkpt>
      <trkpt lat="50.69409" lon="2.9812">
        <ele>19.9</ele>
        <time>2020-06-23T16:26:25Z</time>
      </trkpt>
      <trkpt lat="50.69404" lon="2.98125">
        <ele>19.9</ele>
        <time>2020-06-23T16:26:26Z</time>
      </trkpt>
      <trkpt lat="50.69401" lon="2.9813">
        <ele>19.9</ele>
        <time>2020-06-23T16:26:27Z</time>
      </trkpt>
      <trkpt lat="50.69396" lon="2.98137">
        <ele>19.9</ele>
        <time>2020-06-23T16:26:28Z</time>
      </trkpt>
      <trkpt lat="50.69391" lon="2.98144">
        <ele>19.9</ele>
        <time>2020-06-23T16:26:29Z</time>
      </trkpt>
      <trkpt lat="50.69385" lon="2.9815">
        <ele>19.9</ele>
        <time>2020-06-23T16:26:30Z</time>
      </trkpt>
      <trkpt lat="50.69381" lon="2.98156">
        <ele>19.9</ele>
        <time>2020-06-23T16:26:31Z</time>
      </trkpt>
      <trkpt lat="50.69376" lon="2.98162">
        <ele>19.9</ele>
        <time>2020-06-23T16:26:32Z</time>
      </trkpt>
      <trkpt lat="50.69372" lon="2.98168">
        <ele>19.9</ele>
        <time>2020-06-23T16:26:33Z</time>
      </trkpt>
      <trkpt lat="50.69368" lon="2.98174">
        <ele>19.9</ele>
        <time>2020-06-23T16:26:34Z</time>
      </trkpt>
      <trkpt lat="50.69363" lon="2.98181">
        <ele>20</ele>
        <time>2020-06-23T16:26:35Z</time>
      </trkpt>
      <trkpt lat="50.69358" lon="2.98187">
        <ele>20</ele>
        <time>2020-06-23T16:26:36Z</time>
      </trkpt>
      <trkpt lat="50.69353" lon="2.98193">
        <ele>20.1</ele>
        <time>2020-06-23T16:26:37Z</time>
      </trkpt>
      <trkpt lat="50.69349" lon="2.98198">
        <ele>20.1</ele>
        <time>2020-06-23T16:26:38Z</time>
      </trkpt>
      <trkpt lat="50.69344" lon="2.98205">
        <ele>20</ele>
        <time>2020-06-23T16:26:39Z</time>
      </trkpt>
      <trkpt lat="50.69338" lon="2.98213">
        <ele>19.9</ele>
        <time>2020-06-23T16:26:40Z</time>
      </trkpt>
      <trkpt lat="50.69334" lon="2.98221">
        <ele>19.8</ele>
        <time>2020-06-23T16:26:41Z</time>
      </trkpt>
      <trkpt lat="50.69329" lon="2.98228">
        <ele>19.8</ele>
        <time>2020-06-23T16:26:42Z</time>
      </trkpt>
      <trkpt lat="50.69325" lon="2.98235">
        <ele>19.8</ele>
        <time>2020-06-23T16:26:43Z</time>
      </trkpt>
      <trkpt lat="50.6932" lon="2.98242">
        <ele>19.8</ele>
        <time>2020-06-23T16:26:44Z</time>
      </trkpt>
      <trkpt lat="50.69315" lon="2.98249">
        <ele>19.8</ele>
        <time>2020-06-23T16:26:45Z</time>
      </trkpt>
      <trkpt lat="50.6931" lon="2.98256">
        <ele>19.8</ele>
        <time>2020-06-23T16:26:46Z</time>
      </trkpt>
      <trkpt lat="50.69306" lon="2.98264">
        <ele>19.8</ele>
        <time>2020-06-23T16:26:47Z</time>
      </trkpt>
      <trkpt lat="50.69301" lon="2.9827">
        <ele>19.8</ele>
        <time>2020-06-23T16:26:48Z</time>
      </trkpt>
      <trkpt lat="50.69297" lon="2.98276">
        <ele>19.8</ele>
        <time>2020-06-23T16:26:49Z</time>
      </trkpt>
      <trkpt lat="50.69293" lon="2.98282">
        <ele>19.9</ele>
        <time>2020-06-23T16:26:50Z</time>
      </trkpt>
      <trkpt lat="50.69288" lon="2.98288">
        <ele>19.9</ele>
        <time>2020-06-23T16:26:51Z</time>
      </trkpt>
      <trkpt lat="50.69284" lon="2.98295">
        <ele>20</ele>
        <time>2020-06-23T16:26:52Z</time>
      </trkpt>
      <trkpt lat="50.6928" lon="2.98301">
        <ele>20</ele>
        <time>2020-06-23T16:26:53Z</time>
      </trkpt>
      <trkpt lat="50.69275" lon="2.98308">
        <ele>20</ele>
        <time>2020-06-23T16:26:54Z</time>
      </trkpt>
      <trkpt lat="50.6927" lon="2.98315">
        <ele>20</ele>
        <time>2020-06-23T16:26:55Z</time>
      </trkpt>
      <trkpt lat="50.69266" lon="2.98321">
        <ele>20</ele>
        <time>2020-06-23T16:26:56Z</time>
      </trkpt>
      <trkpt lat="50.69262" lon="2.98328">
        <ele>20</ele>
        <time>2020-06-23T16:26:57Z</time>
      </trkpt>
      <trkpt lat="50.69257" lon="2.98337">
        <ele>20</ele>
        <time>2020-06-23T16:26:58Z</time>
      </trkpt>
      <trkpt lat="50.69253" lon="2.98345">
        <ele>20</ele>
        <time>2020-06-23T16:26:59Z</time>
      </trkpt>
      <trkpt lat="50.69249" lon="2.98353">
        <ele>20</ele>
        <time>2020-06-23T16:27:00Z</time>
      </trkpt>
      <trkpt lat="50.69245" lon="2.9836">
        <ele>20</ele>
        <time>2020-06-23T16:27:01Z</time>
      </trkpt>
      <trkpt lat="50.6924" lon="2.98366">
        <ele>20</ele>
        <time>2020-06-23T16:27:02Z</time>
      </trkpt>
      <trkpt lat="50.69236" lon="2.98372">
        <ele>20</ele>
        <time>2020-06-23T16:27:03Z</time>
      </trkpt>
      <trkpt lat="50.69232" lon="2.98379">
        <ele>20</ele>
        <time>2020-06-23T16:27:04Z</time>
      </trkpt>
      <trkpt lat="50.69228" lon="2.98385">
        <ele>20</ele>
        <time>2020-06-23T16:27:05Z</time>
      </trkpt>
      <trkpt lat="50.69224" lon="2.98392">
        <ele>20</ele>
        <time>2020-06-23T16:27:06Z</time>
      </trkpt>
      <trkpt lat="50.69219" lon="2.984">
        <ele>20</ele>
        <time>2020-06-23T16:27:07Z</time>
      </trkpt>
      <trkpt lat="50.69215" lon="2.98406">
        <ele>20.1</ele>
        <time>2020-06-23T16:27:08Z</time>
      </trkpt>
      <trkpt lat="50.69211" lon="2.98413">
        <ele>20.1</ele>
        <time>2020-06-23T16:27:09Z</time>
      </trkpt>
      <trkpt lat="50.69206" lon="2.98419">
        <ele>20.1</ele>
        <time>2020-06-23T16:27:10Z</time>
      </trkpt>
      <trkpt lat="50.69202" lon="2.98427">
        <ele>20.1</ele>
        <time>2020-06-23T16:27:11Z</time>
      </trkpt>
      <trkpt lat="50.69198" lon="2.98434">
        <ele>20.2</ele>
        <time>2020-06-23T16:27:12Z</time>
      </trkpt>
      <trkpt lat="50.69194" lon="2.98441">
        <ele>20.2</ele>
        <time>2020-06-23T16:27:13Z</time>
      </trkpt>
      <trkpt lat="50.6919" lon="2.98447">
        <ele>20.2</ele>
        <time>2020-06-23T16:27:14Z</time>
      </trkpt>
      <trkpt lat="50.69186" lon="2.98453">
        <ele>20.3</ele>
        <time>2020-06-23T16:27:15Z</time>
      </trkpt>
      <trkpt lat="50.69181" lon="2.9846">
        <ele>20.3</ele>
        <time>2020-06-23T16:27:16Z</time>
      </trkpt>
      <trkpt lat="50.69177" lon="2.98466">
        <ele>20.3</ele>
        <time>2020-06-23T16:27:17Z</time>
      </trkpt>
      <trkpt lat="50.69173" lon="2.98473">
        <ele>20.3</ele>
        <time>2020-06-23T16:27:18Z</time>
      </trkpt>
      <trkpt lat="50.69168" lon="2.9848">
        <ele>20.3</ele>
        <time>2020-06-23T16:27:19Z</time>
      </trkpt>
      <trkpt lat="50.69164" lon="2.98486">
        <ele>20.3</ele>
        <time>2020-06-23T16:27:20Z</time>
      </trkpt>
      <trkpt lat="50.69159" lon="2.98493">
        <ele>20.3</ele>
        <time>2020-06-23T16:27:21Z</time>
      </trkpt>
      <trkpt lat="50.69154" lon="2.98501">
        <ele>20.3</ele>
        <time>2020-06-23T16:27:22Z</time>
      </trkpt>
      <trkpt lat="50.69147" lon="2.98509">
        <ele>20.3</ele>
        <time>2020-06-23T16:27:23Z</time>
      </trkpt>
      <trkpt lat="50.69143" lon="2.98516">
        <ele>20.2</ele>
        <time>2020-06-23T16:27:24Z</time>
      </trkpt>
      <trkpt lat="50.69138" lon="2.98522">
        <ele>20.2</ele>
        <time>2020-06-23T16:27:25Z</time>
      </trkpt>
      <trkpt lat="50.69133" lon="2.98529">
        <ele>20.1</ele>
        <time>2020-06-23T16:27:26Z</time>
      </trkpt>
      <trkpt lat="50.69128" lon="2.98535">
        <ele>20.1</ele>
        <time>2020-06-23T16:27:27Z</time>
      </trkpt>
      <trkpt lat="50.69123" lon="2.98542">
        <ele>20.1</ele>
        <time>2020-06-23T16:27:28Z</time>
      </trkpt>
      <trkpt lat="50.69119" lon="2.98548">
        <ele>20</ele>
        <time>2020-06-23T16:27:29Z</time>
      </trkpt>
      <trkpt lat="50.69114" lon="2.98556">
        <ele>20</ele>
        <time>2020-06-23T16:27:30Z</time>
      </trkpt>
      <trkpt lat="50.69108" lon="2.98563">
        <ele>20</ele>
        <time>2020-06-23T16:27:31Z</time>
      </trkpt>
      <trkpt lat="50.69103" lon="2.98571">
        <ele>20</ele>
        <time>2020-06-23T16:27:32Z</time>
      </trkpt>
      <trkpt lat="50.69099" lon="2.98579">
        <ele>19.9</ele>
        <time>2020-06-23T16:27:33Z</time>
      </trkpt>
      <trkpt lat="50.69094" lon="2.98586">
        <ele>19.9</ele>
        <time>2020-06-23T16:27:34Z</time>
      </trkpt>
      <trkpt lat="50.6909" lon="2.98593">
        <ele>19.9</ele>
        <time>2020-06-23T16:27:35Z</time>
      </trkpt>
      <trkpt lat="50.69086" lon="2.98601">
        <ele>19.9</ele>
        <time>2020-06-23T16:27:36Z</time>
      </trkpt>
      <trkpt lat="50.69081" lon="2.98608">
        <ele>19.9</ele>
        <time>2020-06-23T16:27:37Z</time>
      </trkpt>
      <trkpt lat="50.69077" lon="2.98615">
        <ele>19.9</ele>
        <time>2020-06-23T16:27:38Z</time>
      </trkpt>
      <trkpt lat="50.69073" lon="2.98622">
        <ele>20</ele>
        <time>2020-06-23T16:27:39Z</time>
      </trkpt>
      <trkpt lat="50.69068" lon="2.98629">
        <ele>20</ele>
        <time>2020-06-23T16:27:40Z</time>
      </trkpt>
      <trkpt lat="50.69064" lon="2.98636">
        <ele>20</ele>
        <time>2020-06-23T16:27:41Z</time>
      </trkpt>
      <trkpt lat="50.69059" lon="2.98644">
        <ele>20</ele>
        <time>2020-06-23T16:27:42Z</time>
      </trkpt>
      <trkpt lat="50.69054" lon="2.98651">
        <ele>19.9</ele>
        <time>2020-06-23T16:27:43Z</time>
      </trkpt>
      <trkpt lat="50.69049" lon="2.98659">
        <ele>19.9</ele>
        <time>2020-06-23T16:27:44Z</time>
      </trkpt>
      <trkpt lat="50.69044" lon="2.98666">
        <ele>19.9</ele>
        <time>2020-06-23T16:27:45Z</time>
      </trkpt>
      <trkpt lat="50.69039" lon="2.98674">
        <ele>19.9</ele>
        <time>2020-06-23T16:27:46Z</time>
      </trkpt>
      <trkpt lat="50.69034" lon="2.98682">
        <ele>19.8</ele>
        <time>2020-06-23T16:27:47Z</time>
      </trkpt>
      <trkpt lat="50.6903" lon="2.98689">
        <ele>19.8</ele>
        <time>2020-06-23T16:27:48Z</time>
      </trkpt>
      <trkpt lat="50.69025" lon="2.98697">
        <ele>19.8</ele>
        <time>2020-06-23T16:27:49Z</time>
      </trkpt>
      <trkpt lat="50.69021" lon="2.98705">
        <ele>19.8</ele>
        <time>2020-06-23T16:27:50Z</time>
      </trkpt>
      <trkpt lat="50.69017" lon="2.98712">
        <ele>19.8</ele>
        <time>2020-06-23T16:27:51Z</time>
      </trkpt>
      <trkpt lat="50.69012" lon="2.98719">
        <ele>19.8</ele>
        <time>2020-06-23T16:27:52Z</time>
      </trkpt>
      <trkpt lat="50.69008" lon="2.98726">
        <ele>19.8</ele>
        <time>2020-06-23T16:27:53Z</time>
      </trkpt>
      <trkpt lat="50.69003" lon="2.98734">
        <ele>19.8</ele>
        <time>2020-06-23T16:27:54Z</time>
      </trkpt>
      <trkpt lat="50.68999" lon="2.98741">
        <ele>19.7</ele>
        <time>2020-06-23T16:27:55Z</time>
      </trkpt>
      <trkpt lat="50.68995" lon="2.98749">
        <ele>19.7</ele>
        <time>2020-06-23T16:27:56Z</time>
      </trkpt>
      <trkpt lat="50.6899" lon="2.98757">
        <ele>19.7</ele>
        <time>2020-06-23T16:27:57Z</time>
      </trkpt>
      <trkpt lat="50.68986" lon="2.98765">
        <ele>19.7</ele>
        <time>2020-06-23T16:27:58Z</time>
      </trkpt>
      <trkpt lat="50.68982" lon="2.98771">
        <ele>19.7</ele>
        <time>2020-06-23T16:27:59Z</time>
      </trkpt>
      <trkpt lat="50.68979" lon="2.98778">
        <ele>19.7</ele>
        <time>2020-06-23T16:28:00Z</time>
      </trkpt>
      <trkpt lat="50.68975" lon="2.98786">
        <ele>19.7</ele>
        <time>2020-06-23T16:28:01Z</time>
      </trkpt>
      <trkpt lat="50.6897" lon="2.98794">
        <ele>19.7</ele>
        <time>2020-06-23T16:28:02Z</time>
      </trkpt>
      <trkpt lat="50.68966" lon="2.98801">
        <ele>19.7</ele>
        <time>2020-06-23T16:28:03Z</time>
      </trkpt>
      <trkpt lat="50.68962" lon="2.98808">
        <ele>19.8</ele>
        <time>2020-06-23T16:28:04Z</time>
      </trkpt>
      <trkpt lat="50.68957" lon="2.98814">
        <ele>19.8</ele>
        <time>2020-06-23T16:28:05Z</time>
      </trkpt>
      <trkpt lat="50.68954" lon="2.98821">
        <ele>19.8</ele>
        <time>2020-06-23T16:28:06Z</time>
      </trkpt>
      <trkpt lat="50.6895" lon="2.98828">
        <ele>19.8</ele>
        <time>2020-06-23T16:28:07Z</time>
      </trkpt>
      <trkpt lat="50.68945" lon="2.98836">
        <ele>19.9</ele>
        <time>2020-06-23T16:28:08Z</time>
      </trkpt>
      <trkpt lat="50.68941" lon="2.98844">
        <ele>19.9</ele>
        <time>2020-06-23T16:28:09Z</time>
      </trkpt>
      <trkpt lat="50.68938" lon="2.98851">
        <ele>19.9</ele>
        <time>2020-06-23T16:28:10Z</time>
      </trkpt>
      <trkpt lat="50.68934" lon="2.98858">
        <ele>20</ele>
        <time>2020-06-23T16:28:11Z</time>
      </trkpt>
      <trkpt lat="50.6893" lon="2.98866">
        <ele>20.1</ele>
        <time>2020-06-23T16:28:12Z</time>
      </trkpt>
      <trkpt lat="50.68925" lon="2.98875">
        <ele>20.1</ele>
        <time>2020-06-23T16:28:13Z</time>
      </trkpt>
      <trkpt lat="50.68922" lon="2.98883">
        <ele>20.2</ele>
        <time>2020-06-23T16:28:14Z</time>
      </trkpt>
      <trkpt lat="50.68919" lon="2.98891">
        <ele>20.2</ele>
        <time>2020-06-23T16:28:15Z</time>
      </trkpt>
      <trkpt lat="50.68915" lon="2.98899">
        <ele>20.2</ele>
        <time>2020-06-23T16:28:16Z</time>
      </trkpt>
      <trkpt lat="50.68911" lon="2.98909">
        <ele>20.3</ele>
        <time>2020-06-23T16:28:17Z</time>
      </trkpt>
      <trkpt lat="50.68908" lon="2.98918">
        <ele>20.3</ele>
        <time>2020-06-23T16:28:18Z</time>
      </trkpt>
      <trkpt lat="50.68903" lon="2.98927">
        <ele>20.3</ele>
        <time>2020-06-23T16:28:19Z</time>
      </trkpt>
      <trkpt lat="50.689" lon="2.98935">
        <ele>20.3</ele>
        <time>2020-06-23T16:28:20Z</time>
      </trkpt>
      <trkpt lat="50.68896" lon="2.98942">
        <ele>20.3</ele>
        <time>2020-06-23T16:28:21Z</time>
      </trkpt>
      <trkpt lat="50.68893" lon="2.9895">
        <ele>20.3</ele>
        <time>2020-06-23T16:28:22Z</time>
      </trkpt>
      <trkpt lat="50.68889" lon="2.98958">
        <ele>20.4</ele>
        <time>2020-06-23T16:28:23Z</time>
      </trkpt>
      <trkpt lat="50.68886" lon="2.98965">
        <ele>20.4</ele>
        <time>2020-06-23T16:28:24Z</time>
      </trkpt>
      <trkpt lat="50.68883" lon="2.98973">
        <ele>20.4</ele>
        <time>2020-06-23T16:28:25Z</time>
      </trkpt>
      <trkpt lat="50.6888" lon="2.98982">
        <ele>20.4</ele>
        <time>2020-06-23T16:28:26Z</time>
      </trkpt>
      <trkpt lat="50.68877" lon="2.98991">
        <ele>20.4</ele>
        <time>2020-06-23T16:28:27Z</time>
      </trkpt>
      <trkpt lat="50.68873" lon="2.99001">
        <ele>20.4</ele>
        <time>2020-06-23T16:28:28Z</time>
      </trkpt>
      <trkpt lat="50.68869" lon="2.9901">
        <ele>20.4</ele>
        <time>2020-06-23T16:28:29Z</time>
      </trkpt>
      <trkpt lat="50.68865" lon="2.9902">
        <ele>20.4</ele>
        <time>2020-06-23T16:28:30Z</time>
      </trkpt>
      <trkpt lat="50.68862" lon="2.9903">
        <ele>20.4</ele>
        <time>2020-06-23T16:28:31Z</time>
      </trkpt>
      <trkpt lat="50.68858" lon="2.9904">
        <ele>20.4</ele>
        <time>2020-06-23T16:28:32Z</time>
      </trkpt>
      <trkpt lat="50.68855" lon="2.99048">
        <ele>20.4</ele>
        <time>2020-06-23T16:28:33Z</time>
      </trkpt>
      <trkpt lat="50.68851" lon="2.99057">
        <ele>20.4</ele>
        <time>2020-06-23T16:28:34Z</time>
      </trkpt>
      <trkpt lat="50.68848" lon="2.99066">
        <ele>20.5</ele>
        <time>2020-06-23T16:28:35Z</time>
      </trkpt>
      <trkpt lat="50.68844" lon="2.99074">
        <ele>20.5</ele>
        <time>2020-06-23T16:28:36Z</time>
      </trkpt>
      <trkpt lat="50.68841" lon="2.99083">
        <ele>20.5</ele>
        <time>2020-06-23T16:28:37Z</time>
      </trkpt>
      <trkpt lat="50.68837" lon="2.99092">
        <ele>20.5</ele>
        <time>2020-06-23T16:28:38Z</time>
      </trkpt>
      <trkpt lat="50.68834" lon="2.99101">
        <ele>20.5</ele>
        <time>2020-06-23T16:28:39Z</time>
      </trkpt>
      <trkpt lat="50.6883" lon="2.99109">
        <ele>20.5</ele>
        <time>2020-06-23T16:28:40Z</time>
      </trkpt>
      <trkpt lat="50.68827" lon="2.99116">
        <ele>20.5</ele>
        <time>2020-06-23T16:28:41Z</time>
      </trkpt>
      <trkpt lat="50.68824" lon="2.99123">
        <ele>20.4</ele>
        <time>2020-06-23T16:28:42Z</time>
      </trkpt>
      <trkpt lat="50.68821" lon="2.99132">
        <ele>20.4</ele>
        <time>2020-06-23T16:28:43Z</time>
      </trkpt>
      <trkpt lat="50.68819" lon="2.99141">
        <ele>20.4</ele>
        <time>2020-06-23T16:28:44Z</time>
      </trkpt>
      <trkpt lat="50.68816" lon="2.9915">
        <ele>20.4</ele>
        <time>2020-06-23T16:28:45Z</time>
      </trkpt>
      <trkpt lat="50.68814" lon="2.99158">
        <ele>20.4</ele>
        <time>2020-06-23T16:28:46Z</time>
      </trkpt>
      <trkpt lat="50.68812" lon="2.99167">
        <ele>20.4</ele>
        <time>2020-06-23T16:28:47Z</time>
      </trkpt>
      <trkpt lat="50.68809" lon="2.99175">
        <ele>20.4</ele>
        <time>2020-06-23T16:28:48Z</time>
      </trkpt>
      <trkpt lat="50.68806" lon="2.99183">
        <ele>20.5</ele>
        <time>2020-06-23T16:28:49Z</time>
      </trkpt>
      <trkpt lat="50.68804" lon="2.99191">
        <ele>20.5</ele>
        <time>2020-06-23T16:28:50Z</time>
      </trkpt>
      <trkpt lat="50.68802" lon="2.99197">
        <ele>20.5</ele>
        <time>2020-06-23T16:28:51Z</time>
      </trkpt>
      <trkpt lat="50.688" lon="2.99203">
        <ele>20.5</ele>
        <time>2020-06-23T16:28:52Z</time>
      </trkpt>
      <trkpt lat="50.68797" lon="2.99211">
        <ele>20.5</ele>
        <time>2020-06-23T16:28:53Z</time>
      </trkpt>
      <trkpt lat="50.68793" lon="2.99217">
        <ele>20.6</ele>
        <time>2020-06-23T16:28:54Z</time>
      </trkpt>
      <trkpt lat="50.6879" lon="2.99224">
        <ele>20.6</ele>
        <time>2020-06-23T16:28:55Z</time>
      </trkpt>
      <trkpt lat="50.68788" lon="2.9923">
        <ele>20.7</ele>
        <time>2020-06-23T16:28:56Z</time>
      </trkpt>
      <trkpt lat="50.68786" lon="2.99237">
        <ele>20.7</ele>
        <time>2020-06-23T16:28:57Z</time>
      </trkpt>
      <trkpt lat="50.68783" lon="2.99246">
        <ele>20.8</ele>
        <time>2020-06-23T16:28:58Z</time>
      </trkpt>
      <trkpt lat="50.68781" lon="2.99254">
        <ele>20.8</ele>
        <time>2020-06-23T16:28:59Z</time>
      </trkpt>
      <trkpt lat="50.68779" lon="2.99262">
        <ele>20.8</ele>
        <time>2020-06-23T16:29:00Z</time>
      </trkpt>
      <trkpt lat="50.68777" lon="2.99269">
        <ele>20.8</ele>
        <time>2020-06-23T16:29:01Z</time>
      </trkpt>
      <trkpt lat="50.68775" lon="2.99277">
        <ele>20.8</ele>
        <time>2020-06-23T16:29:02Z</time>
      </trkpt>
      <trkpt lat="50.68772" lon="2.99285">
        <ele>20.8</ele>
        <time>2020-06-23T16:29:03Z</time>
      </trkpt>
      <trkpt lat="50.68769" lon="2.99294">
        <ele>20.8</ele>
        <time>2020-06-23T16:29:04Z</time>
      </trkpt>
      <trkpt lat="50.68766" lon="2.99301">
        <ele>20.8</ele>
        <time>2020-06-23T16:29:05Z</time>
      </trkpt>
      <trkpt lat="50.68763" lon="2.99307">
        <ele>20.8</ele>
        <time>2020-06-23T16:29:06Z</time>
      </trkpt>
      <trkpt lat="50.68761" lon="2.99313">
        <ele>20.8</ele>
        <time>2020-06-23T16:29:07Z</time>
      </trkpt>
      <trkpt lat="50.68758" lon="2.99319">
        <ele>20.8</ele>
        <time>2020-06-23T16:29:08Z</time>
      </trkpt>
      <trkpt lat="50.68756" lon="2.99325">
        <ele>20.8</ele>
        <time>2020-06-23T16:29:09Z</time>
      </trkpt>
      <trkpt lat="50.68755" lon="2.99332">
        <ele>20.8</ele>
        <time>2020-06-23T16:29:10Z</time>
      </trkpt>
      <trkpt lat="50.68753" lon="2.99339">
        <ele>20.8</ele>
        <time>2020-06-23T16:29:11Z</time>
      </trkpt>
      <trkpt lat="50.68751" lon="2.99346">
        <ele>20.8</ele>
        <time>2020-06-23T16:29:12Z</time>
      </trkpt>
      <trkpt lat="50.68748" lon="2.99353">
        <ele>20.8</ele>
        <time>2020-06-23T16:29:13Z</time>
      </trkpt>
      <trkpt lat="50.68746" lon="2.99362">
        <ele>20.8</ele>
        <time>2020-06-23T16:29:14Z</time>
      </trkpt>
      <trkpt lat="50.68744" lon="2.99369">
        <ele>20.8</ele>
        <time>2020-06-23T16:29:15Z</time>
      </trkpt>
      <trkpt lat="50.68742" lon="2.99376">
        <ele>20.8</ele>
        <time>2020-06-23T16:29:16Z</time>
      </trkpt>
      <trkpt lat="50.68738" lon="2.99385">
        <ele>20.8</ele>
        <time>2020-06-23T16:29:17Z</time>
      </trkpt>
      <trkpt lat="50.68736" lon="2.99392">
        <ele>20.8</ele>
        <time>2020-06-23T16:29:18Z</time>
      </trkpt>
      <trkpt lat="50.68733" lon="2.99401">
        <ele>20.8</ele>
        <time>2020-06-23T16:29:19Z</time>
      </trkpt>
      <trkpt lat="50.6873" lon="2.9941">
        <ele>20.9</ele>
        <time>2020-06-23T16:29:20Z</time>
      </trkpt>
      <trkpt lat="50.68727" lon="2.9942">
        <ele>21</ele>
        <time>2020-06-23T16:29:21Z</time>
      </trkpt>
      <trkpt lat="50.68723" lon="2.99429">
        <ele>21.1</ele>
        <time>2020-06-23T16:29:22Z</time>
      </trkpt>
      <trkpt lat="50.6872" lon="2.99438">
        <ele>21.2</ele>
        <time>2020-06-23T16:29:23Z</time>
      </trkpt>
      <trkpt lat="50.68716" lon="2.99446">
        <ele>21.2</ele>
        <time>2020-06-23T16:29:24Z</time>
      </trkpt>
      <trkpt lat="50.68712" lon="2.99455">
        <ele>21.2</ele>
        <time>2020-06-23T16:29:25Z</time>
      </trkpt>
      <trkpt lat="50.68708" lon="2.99464">
        <ele>21.1</ele>
        <time>2020-06-23T16:29:26Z</time>
      </trkpt>
      <trkpt lat="50.68705" lon="2.99472">
        <ele>21</ele>
        <time>2020-06-23T16:29:27Z</time>
      </trkpt>
      <trkpt lat="50.68702" lon="2.99483">
        <ele>20.9</ele>
        <time>2020-06-23T16:29:28Z</time>
      </trkpt>
      <trkpt lat="50.68696" lon="2.99496">
        <ele>20.8</ele>
        <time>2020-06-23T16:29:29Z</time>
      </trkpt>
      <trkpt lat="50.68693" lon="2.99505">
        <ele>20.7</ele>
        <time>2020-06-23T16:29:30Z</time>
      </trkpt>
      <trkpt lat="50.6869" lon="2.99515">
        <ele>20.7</ele>
        <time>2020-06-23T16:29:31Z</time>
      </trkpt>
      <trkpt lat="50.68687" lon="2.99523">
        <ele>20.6</ele>
        <time>2020-06-23T16:29:32Z</time>
      </trkpt>
      <trkpt lat="50.68684" lon="2.99532">
        <ele>20.6</ele>
        <time>2020-06-23T16:29:33Z</time>
      </trkpt>
      <trkpt lat="50.6868" lon="2.99543">
        <ele>20.6</ele>
        <time>2020-06-23T16:29:34Z</time>
      </trkpt>
      <trkpt lat="50.68677" lon="2.99549">
        <ele>20.6</ele>
        <time>2020-06-23T16:29:35Z</time>
      </trkpt>
      <trkpt lat="50.68674" lon="2.99558">
        <ele>20.6</ele>
        <time>2020-06-23T16:29:36Z</time>
      </trkpt>
      <trkpt lat="50.68672" lon="2.99567">
        <ele>20.5</ele>
        <time>2020-06-23T16:29:37Z</time>
      </trkpt>
      <trkpt lat="50.68668" lon="2.99576">
        <ele>20.5</ele>
        <time>2020-06-23T16:29:38Z</time>
      </trkpt>
      <trkpt lat="50.68665" lon="2.99586">
        <ele>20.5</ele>
        <time>2020-06-23T16:29:39Z</time>
      </trkpt>
      <trkpt lat="50.6866" lon="2.99595">
        <ele>20.5</ele>
        <time>2020-06-23T16:29:40Z</time>
      </trkpt>
      <trkpt lat="50.68657" lon="2.99604">
        <ele>20.5</ele>
        <time>2020-06-23T16:29:41Z</time>
      </trkpt>
      <trkpt lat="50.68653" lon="2.99614">
        <ele>20.5</ele>
        <time>2020-06-23T16:29:42Z</time>
      </trkpt>
      <trkpt lat="50.6865" lon="2.99623">
        <ele>20.5</ele>
        <time>2020-06-23T16:29:43Z</time>
      </trkpt>
      <trkpt lat="50.68647" lon="2.99633">
        <ele>20.6</ele>
        <time>2020-06-23T16:29:44Z</time>
      </trkpt>
      <trkpt lat="50.68643" lon="2.99642">
        <ele>20.7</ele>
        <time>2020-06-23T16:29:45Z</time>
      </trkpt>
      <trkpt lat="50.68639" lon="2.99649">
        <ele>20.8</ele>
        <time>2020-06-23T16:29:46Z</time>
      </trkpt>
      <trkpt lat="50.68635" lon="2.99655">
        <ele>20.8</ele>
        <time>2020-06-23T16:29:47Z</time>
      </trkpt>
      <trkpt lat="50.68633" lon="2.99661">
        <ele>20.8</ele>
        <time>2020-06-23T16:29:48Z</time>
      </trkpt>
      <trkpt lat="50.6863" lon="2.99669">
        <ele>20.8</ele>
        <time>2020-06-23T16:29:49Z</time>
      </trkpt>
      <trkpt lat="50.68628" lon="2.99676">
        <ele>20.9</ele>
        <time>2020-06-23T16:29:50Z</time>
      </trkpt>
      <trkpt lat="50.68624" lon="2.99685">
        <ele>20.9</ele>
        <time>2020-06-23T16:29:51Z</time>
      </trkpt>
      <trkpt lat="50.68622" lon="2.99692">
        <ele>21</ele>
        <time>2020-06-23T16:29:52Z</time>
      </trkpt>
      <trkpt lat="50.68619" lon="2.99699">
        <ele>21.1</ele>
        <time>2020-06-23T16:29:53Z</time>
      </trkpt>
      <trkpt lat="50.68617" lon="2.99707">
        <ele>21.1</ele>
        <time>2020-06-23T16:29:54Z</time>
      </trkpt>
      <trkpt lat="50.68614" lon="2.99715">
        <ele>21.2</ele>
        <time>2020-06-23T16:29:55Z</time>
      </trkpt>
      <trkpt lat="50.68612" lon="2.99723">
        <ele>21.3</ele>
        <time>2020-06-23T16:29:56Z</time>
      </trkpt>
      <trkpt lat="50.68609" lon="2.9973">
        <ele>21.4</ele>
        <time>2020-06-23T16:29:57Z</time>
      </trkpt>
      <trkpt lat="50.68607" lon="2.99738">
        <ele>21.4</ele>
        <time>2020-06-23T16:29:58Z</time>
      </trkpt>
      <trkpt lat="50.68604" lon="2.99744">
        <ele>21.5</ele>
        <time>2020-06-23T16:29:59Z</time>
      </trkpt>
      <trkpt lat="50.68601" lon="2.99751">
        <ele>21.7</ele>
        <time>2020-06-23T16:30:00Z</time>
      </trkpt>
      <trkpt lat="50.68598" lon="2.99757">
        <ele>21.7</ele>
        <time>2020-06-23T16:30:01Z</time>
      </trkpt>
      <trkpt lat="50.68596" lon="2.99761">
        <ele>21.8</ele>
        <time>2020-06-23T16:30:02Z</time>
      </trkpt>
      <trkpt lat="50.68593" lon="2.99767">
        <ele>21.8</ele>
        <time>2020-06-23T16:30:03Z</time>
      </trkpt>
      <trkpt lat="50.68591" lon="2.99772">
        <ele>21.9</ele>
        <time>2020-06-23T16:30:04Z</time>
      </trkpt>
      <trkpt lat="50.6859" lon="2.99777">
        <ele>21.9</ele>
        <time>2020-06-23T16:30:05Z</time>
      </trkpt>
      <trkpt lat="50.68589" lon="2.99778">
        <ele>22</ele>
        <time>2020-06-23T16:30:06Z</time>
      </trkpt>
      <trkpt lat="50.68587" lon="2.99782">
        <ele>22</ele>
        <time>2020-06-23T16:30:07Z</time>
      </trkpt>
      <trkpt lat="50.68586" lon="2.99788">
        <ele>22.1</ele>
        <time>2020-06-23T16:30:08Z</time>
      </trkpt>
      <trkpt lat="50.68585" lon="2.99793">
        <ele>22.1</ele>
        <time>2020-06-23T16:30:09Z</time>
      </trkpt>
      <trkpt lat="50.68583" lon="2.99798">
        <ele>22.2</ele>
        <time>2020-06-23T16:30:10Z</time>
      </trkpt>
      <trkpt lat="50.68583" lon="2.998">
        <ele>22.3</ele>
        <time>2020-06-23T16:30:11Z</time>
      </trkpt>
      <trkpt lat="50.68581" lon="2.99804">
        <ele>22.3</ele>
        <time>2020-06-23T16:30:12Z</time>
      </trkpt>
      <trkpt lat="50.68579" lon="2.99809">
        <ele>22.4</ele>
        <time>2020-06-23T16:30:13Z</time>
      </trkpt>
      <trkpt lat="50.68578" lon="2.99814">
        <ele>22.4</ele>
        <time>2020-06-23T16:30:14Z</time>
      </trkpt>
      <trkpt lat="50.68576" lon="2.99818">
        <ele>22.5</ele>
        <time>2020-06-23T16:30:15Z</time>
      </trkpt>
      <trkpt lat="50.68573" lon="2.99819">
        <ele>22.6</ele>
        <time>2020-06-23T16:30:16Z</time>
      </trkpt>
      <trkpt lat="50.68572" lon="2.99819">
        <ele>22.6</ele>
        <time>2020-06-23T16:30:17Z</time>
      </trkpt>
      <trkpt lat="50.68569" lon="2.99819">
        <ele>22.6</ele>
        <time>2020-06-23T16:30:18Z</time>
      </trkpt>
      <trkpt lat="50.68566" lon="2.99818">
        <ele>22.6</ele>
        <time>2020-06-23T16:30:19Z</time>
      </trkpt>
      <trkpt lat="50.68565" lon="2.99817">
        <ele>22.6</ele>
        <time>2020-06-23T16:30:20Z</time>
      </trkpt>
      <trkpt lat="50.68563" lon="2.99818">
        <ele>22.6</ele>
        <time>2020-06-23T16:30:21Z</time>
      </trkpt>
      <trkpt lat="50.6856" lon="2.99814">
        <ele>22.6</ele>
        <time>2020-06-23T16:30:22Z</time>
      </trkpt>
      <trkpt lat="50.68559" lon="2.99812">
        <ele>22.6</ele>
        <time>2020-06-23T16:30:23Z</time>
      </trkpt>
      <trkpt lat="50.68555" lon="2.99806">
        <ele>22.6</ele>
        <time>2020-06-23T16:30:24Z</time>
      </trkpt>
      <trkpt lat="50.6855" lon="2.99799">
        <ele>22.7</ele>
        <time>2020-06-23T16:30:25Z</time>
      </trkpt>
      <trkpt lat="50.68545" lon="2.99792">
        <ele>22.7</ele>
        <time>2020-06-23T16:30:26Z</time>
      </trkpt>
      <trkpt lat="50.68541" lon="2.99783">
        <ele>22.8</ele>
        <time>2020-06-23T16:30:27Z</time>
      </trkpt>
      <trkpt lat="50.68536" lon="2.99774">
        <ele>22.8</ele>
        <time>2020-06-23T16:30:28Z</time>
      </trkpt>
      <trkpt lat="50.68533" lon="2.99767">
        <ele>22.9</ele>
        <time>2020-06-23T16:30:29Z</time>
      </trkpt>
      <trkpt lat="50.6853" lon="2.99761">
        <ele>23</ele>
        <time>2020-06-23T16:30:30Z</time>
      </trkpt>
      <trkpt lat="50.68527" lon="2.99755">
        <ele>23</ele>
        <time>2020-06-23T16:30:31Z</time>
      </trkpt>
      <trkpt lat="50.68525" lon="2.9975">
        <ele>23.1</ele>
        <time>2020-06-23T16:30:32Z</time>
      </trkpt>
      <trkpt lat="50.68522" lon="2.99743">
        <ele>23.2</ele>
        <time>2020-06-23T16:30:33Z</time>
      </trkpt>
      <trkpt lat="50.6852" lon="2.99736">
        <ele>23.3</ele>
        <time>2020-06-23T16:30:34Z</time>
      </trkpt>
      <trkpt lat="50.68517" lon="2.99729">
        <ele>23.4</ele>
        <time>2020-06-23T16:30:35Z</time>
      </trkpt>
      <trkpt lat="50.68513" lon="2.99721">
        <ele>23.6</ele>
        <time>2020-06-23T16:30:36Z</time>
      </trkpt>
      <trkpt lat="50.6851" lon="2.99714">
        <ele>23.5</ele>
        <time>2020-06-23T16:30:37Z</time>
      </trkpt>
      <trkpt lat="50.68507" lon="2.99707">
        <ele>23.5</ele>
        <time>2020-06-23T16:30:38Z</time>
      </trkpt>
      <trkpt lat="50.68503" lon="2.997">
        <ele>23.4</ele>
        <time>2020-06-23T16:30:39Z</time>
      </trkpt>
      <trkpt lat="50.685" lon="2.99692">
        <ele>23.4</ele>
        <time>2020-06-23T16:30:40Z</time>
      </trkpt>
      <trkpt lat="50.68496" lon="2.99685">
        <ele>23.3</ele>
        <time>2020-06-23T16:30:41Z</time>
      </trkpt>
      <trkpt lat="50.68493" lon="2.9968">
        <ele>23.3</ele>
        <time>2020-06-23T16:30:42Z</time>
      </trkpt>
      <trkpt lat="50.68489" lon="2.99674">
        <ele>23.3</ele>
        <time>2020-06-23T16:30:43Z</time>
      </trkpt>
      <trkpt lat="50.68485" lon="2.99668">
        <ele>23.2</ele>
        <time>2020-06-23T16:30:44Z</time>
      </trkpt>
      <trkpt lat="50.68481" lon="2.99661">
        <ele>23.2</ele>
        <time>2020-06-23T16:30:45Z</time>
      </trkpt>
      <trkpt lat="50.68478" lon="2.99654">
        <ele>23.2</ele>
        <time>2020-06-23T16:30:46Z</time>
      </trkpt>
      <trkpt lat="50.68474" lon="2.99649">
        <ele>23.2</ele>
        <time>2020-06-23T16:30:47Z</time>
      </trkpt>
      <trkpt lat="50.68471" lon="2.99643">
        <ele>23.2</ele>
        <time>2020-06-23T16:30:48Z</time>
      </trkpt>
      <trkpt lat="50.68467" lon="2.99638">
        <ele>23.2</ele>
        <time>2020-06-23T16:30:49Z</time>
      </trkpt>
      <trkpt lat="50.68463" lon="2.99633">
        <ele>23.2</ele>
        <time>2020-06-23T16:30:50Z</time>
      </trkpt>
      <trkpt lat="50.68458" lon="2.99629">
        <ele>23.1</ele>
        <time>2020-06-23T16:30:51Z</time>
      </trkpt>
      <trkpt lat="50.68453" lon="2.99624">
        <ele>23.1</ele>
        <time>2020-06-23T16:30:52Z</time>
      </trkpt>
      <trkpt lat="50.68448" lon="2.99619">
        <ele>23.1</ele>
        <time>2020-06-23T16:30:53Z</time>
      </trkpt>
      <trkpt lat="50.68444" lon="2.99615">
        <ele>23.1</ele>
        <time>2020-06-23T16:30:54Z</time>
      </trkpt>
      <trkpt lat="50.6844" lon="2.9961">
        <ele>23.1</ele>
        <time>2020-06-23T16:30:55Z</time>
      </trkpt>
      <trkpt lat="50.68436" lon="2.99605">
        <ele>23.1</ele>
        <time>2020-06-23T16:30:56Z</time>
      </trkpt>
      <trkpt lat="50.68432" lon="2.996">
        <ele>23.1</ele>
        <time>2020-06-23T16:30:57Z</time>
      </trkpt>
      <trkpt lat="50.68429" lon="2.99595">
        <ele>23.1</ele>
        <time>2020-06-23T16:30:58Z</time>
      </trkpt>
      <trkpt lat="50.68424" lon="2.99591">
        <ele>23.1</ele>
        <time>2020-06-23T16:30:59Z</time>
      </trkpt>
      <trkpt lat="50.68421" lon="2.99588">
        <ele>23.1</ele>
        <time>2020-06-23T16:31:00Z</time>
      </trkpt>
      <trkpt lat="50.68418" lon="2.99585">
        <ele>23</ele>
        <time>2020-06-23T16:31:01Z</time>
      </trkpt>
      <trkpt lat="50.68414" lon="2.99582">
        <ele>23</ele>
        <time>2020-06-23T16:31:02Z</time>
      </trkpt>
      <trkpt lat="50.68411" lon="2.99579">
        <ele>23</ele>
        <time>2020-06-23T16:31:03Z</time>
      </trkpt>
      <trkpt lat="50.68408" lon="2.99576">
        <ele>23</ele>
        <time>2020-06-23T16:31:04Z</time>
      </trkpt>
      <trkpt lat="50.68406" lon="2.99573">
        <ele>23</ele>
        <time>2020-06-23T16:31:05Z</time>
      </trkpt>
      <trkpt lat="50.68403" lon="2.9957">
        <ele>23</ele>
        <time>2020-06-23T16:31:06Z</time>
      </trkpt>
      <trkpt lat="50.684" lon="2.99567">
        <ele>23</ele>
        <time>2020-06-23T16:31:07Z</time>
      </trkpt>
      <trkpt lat="50.68396" lon="2.99564">
        <ele>23</ele>
        <time>2020-06-23T16:31:08Z</time>
      </trkpt>
      <trkpt lat="50.68393" lon="2.99562">
        <ele>23</ele>
        <time>2020-06-23T16:31:09Z</time>
      </trkpt>
      <trkpt lat="50.6839" lon="2.9956">
        <ele>23</ele>
        <time>2020-06-23T16:31:10Z</time>
      </trkpt>
      <trkpt lat="50.68386" lon="2.99558">
        <ele>23</ele>
        <time>2020-06-23T16:31:11Z</time>
      </trkpt>
      <trkpt lat="50.68383" lon="2.99556">
        <ele>23</ele>
        <time>2020-06-23T16:31:12Z</time>
      </trkpt>
      <trkpt lat="50.6838" lon="2.99554">
        <ele>23</ele>
        <time>2020-06-23T16:31:13Z</time>
      </trkpt>
      <trkpt lat="50.68378" lon="2.99554">
        <ele>23</ele>
        <time>2020-06-23T16:31:14Z</time>
      </trkpt>
      <trkpt lat="50.68375" lon="2.99552">
        <ele>23</ele>
        <time>2020-06-23T16:31:15Z</time>
      </trkpt>
      <trkpt lat="50.68375" lon="2.99551">
        <ele>23</ele>
        <time>2020-06-23T16:31:16Z</time>
      </trkpt>
      <trkpt lat="50.68372" lon="2.99549">
        <ele>23</ele>
        <time>2020-06-23T16:31:17Z</time>
      </trkpt>
      <trkpt lat="50.68371" lon="2.99548">
        <ele>23</ele>
        <time>2020-06-23T16:31:18Z</time>
      </trkpt>
      <trkpt lat="50.68369" lon="2.99546">
        <ele>23</ele>
        <time>2020-06-23T16:31:19Z</time>
      </trkpt>
      <trkpt lat="50.68368" lon="2.99545">
        <ele>23</ele>
        <time>2020-06-23T16:31:20Z</time>
      </trkpt>
      <trkpt lat="50.68365" lon="2.99543">
        <ele>23</ele>
        <time>2020-06-23T16:31:21Z</time>
      </trkpt>
      <trkpt lat="50.68364" lon="2.99542">
        <ele>23</ele>
        <time>2020-06-23T16:31:22Z</time>
      </trkpt>
      <trkpt lat="50.68362" lon="2.9954">
        <ele>23</ele>
        <time>2020-06-23T16:31:23Z</time>
      </trkpt>
      <trkpt lat="50.6836" lon="2.99537">
        <ele>23</ele>
        <time>2020-06-23T16:31:24Z</time>
      </trkpt>
      <trkpt lat="50.68359" lon="2.99537">
        <ele>23</ele>
        <time>2020-06-23T16:31:25Z</time>
      </trkpt>
      <trkpt lat="50.68357" lon="2.99534">
        <ele>23</ele>
        <time>2020-06-23T16:31:26Z</time>
      </trkpt>
      <trkpt lat="50.68356" lon="2.99533">
        <ele>23</ele>
        <time>2020-06-23T16:31:27Z</time>
      </trkpt>
      <trkpt lat="50.68354" lon="2.99531">
        <ele>23</ele>
        <time>2020-06-23T16:31:28Z</time>
      </trkpt>
      <trkpt lat="50.68351" lon="2.99527">
        <ele>23</ele>
        <time>2020-06-23T16:31:29Z</time>
      </trkpt>
      <trkpt lat="50.68349" lon="2.99524">
        <ele>23</ele>
        <time>2020-06-23T16:31:30Z</time>
      </trkpt>
      <trkpt lat="50.68347" lon="2.99522">
        <ele>23</ele>
        <time>2020-06-23T16:31:31Z</time>
      </trkpt>
      <trkpt lat="50.68347" lon="2.99521">
        <ele>23</ele>
        <time>2020-06-23T16:31:32Z</time>
      </trkpt>
      <trkpt lat="50.68347" lon="2.9952">
        <ele>23</ele>
        <time>2020-06-23T16:31:33Z</time>
      </trkpt>
      <trkpt lat="50.68346" lon="2.99518">
        <ele>23</ele>
        <time>2020-06-23T16:31:34Z</time>
      </trkpt>
      <trkpt lat="50.68345" lon="2.99517">
        <ele>23</ele>
        <time>2020-06-23T16:31:35Z</time>
      </trkpt>
      <trkpt lat="50.68344" lon="2.99516">
        <ele>23.1</ele>
        <time>2020-06-23T16:31:36Z</time>
      </trkpt>
      <trkpt lat="50.68343" lon="2.99515">
        <ele>23.1</ele>
        <time>2020-06-23T16:31:37Z</time>
      </trkpt>
      <trkpt lat="50.68343" lon="2.99515">
        <ele>23.1</ele>
        <time>2020-06-23T16:31:38Z</time>
      </trkpt>
      <trkpt lat="50.68343" lon="2.99514">
        <ele>23.1</ele>
        <time>2020-06-23T16:31:39Z</time>
      </trkpt>
      <trkpt lat="50.68343" lon="2.99514">
        <ele>23.1</ele>
        <time>2020-06-23T16:31:40Z</time>
      </trkpt>
      <trkpt lat="50.68342" lon="2.99514">
        <ele>23.1</ele>
        <time>2020-06-23T16:31:41Z</time>
      </trkpt>
      <trkpt lat="50.68341" lon="2.99513">
        <ele>23.1</ele>
        <time>2020-06-23T16:31:42Z</time>
      </trkpt>
      <trkpt lat="50.6834" lon="2.99513">
        <ele>23.1</ele>
        <time>2020-06-23T16:31:43Z</time>
      </trkpt>
      <trkpt lat="50.6834" lon="2.99513">
        <ele>23.1</ele>
        <time>2020-06-23T16:31:44Z</time>
      </trkpt>
      <trkpt lat="50.6834" lon="2.99513">
        <ele>23.1</ele>
        <time>2020-06-23T16:31:45Z</time>
      </trkpt>
      <trkpt lat="50.6834" lon="2.99513">
        <ele>23.1</ele>
        <time>2020-06-23T16:31:46Z</time>
      </trkpt>
      <trkpt lat="50.6834" lon="2.99513">
        <ele>23.1</ele>
        <time>2020-06-23T16:31:47Z</time>
      </trkpt>
      <trkpt lat="50.68341" lon="2.99514">
        <ele>23.1</ele>
        <time>2020-06-23T16:31:48Z</time>
      </trkpt>
      <trkpt lat="50.68342" lon="2.99515">
        <ele>23.1</ele>
        <time>2020-06-23T16:31:49Z</time>
      </trkpt>
      <trkpt lat="50.68343" lon="2.99516">
        <ele>23.1</ele>
        <time>2020-06-23T16:31:50Z</time>
      </trkpt>
      <trkpt lat="50.68344" lon="2.99517">
        <ele>23.1</ele>
        <time>2020-06-23T16:31:51Z</time>
      </trkpt>
      <trkpt lat="50.68345" lon="2.99517">
        <ele>23.1</ele>
        <time>2020-06-23T16:31:52Z</time>
      </trkpt>
      <trkpt lat="50.68345" lon="2.99518">
        <ele>23.1</ele>
        <time>2020-06-23T16:31:53Z</time>
      </trkpt>
      <trkpt lat="50.68345" lon="2.99518">
        <ele>23.1</ele>
        <time>2020-06-23T16:31:54Z</time>
      </trkpt>
      <trkpt lat="50.68346" lon="2.99519">
        <ele>23.1</ele>
        <time>2020-06-23T16:31:55Z</time>
      </trkpt>
      <trkpt lat="50.68347" lon="2.99519">
        <ele>23.1</ele>
        <time>2020-06-23T16:31:56Z</time>
      </trkpt>
      <trkpt lat="50.68348" lon="2.9952">
        <ele>23.1</ele>
        <time>2020-06-23T16:31:57Z</time>
      </trkpt>
      <trkpt lat="50.68348" lon="2.9952">
        <ele>23.1</ele>
        <time>2020-06-23T16:31:58Z</time>
      </trkpt>
      <trkpt lat="50.68349" lon="2.9952">
        <ele>23.1</ele>
        <time>2020-06-23T16:31:59Z</time>
      </trkpt>
      <trkpt lat="50.68348" lon="2.9952">
        <ele>23.1</ele>
        <time>2020-06-23T16:32:00Z</time>
      </trkpt>
      <trkpt lat="50.68348" lon="2.9952">
        <ele>23.1</ele>
        <time>2020-06-23T16:32:01Z</time>
      </trkpt>
      <trkpt lat="50.68349" lon="2.9952">
        <ele>23.1</ele>
        <time>2020-06-23T16:32:02Z</time>
      </trkpt>
      <trkpt lat="50.68349" lon="2.99518">
        <ele>23.1</ele>
        <time>2020-06-23T16:32:03Z</time>
      </trkpt>
      <trkpt lat="50.68348" lon="2.99517">
        <ele>23.1</ele>
        <time>2020-06-23T16:32:04Z</time>
      </trkpt>
      <trkpt lat="50.68349" lon="2.99516">
        <ele>23.1</ele>
        <time>2020-06-23T16:32:05Z</time>
      </trkpt>
      <trkpt lat="50.68351" lon="2.99516">
        <ele>23.1</ele>
        <time>2020-06-23T16:32:06Z</time>
      </trkpt>
      <trkpt lat="50.68352" lon="2.99516">
        <ele>23.1</ele>
        <time>2020-06-23T16:32:07Z</time>
      </trkpt>
      <trkpt lat="50.68353" lon="2.99516">
        <ele>23.1</ele>
        <time>2020-06-23T16:32:08Z</time>
      </trkpt>
      <trkpt lat="50.68353" lon="2.99516">
        <ele>23.1</ele>
        <time>2020-06-23T16:32:09Z</time>
      </trkpt>
      <trkpt lat="50.68354" lon="2.99516">
        <ele>23.1</ele>
        <time>2020-06-23T16:32:10Z</time>
      </trkpt>
      <trkpt lat="50.68355" lon="2.99516">
        <ele>23.1</ele>
        <time>2020-06-23T16:32:11Z</time>
      </trkpt>
      <trkpt lat="50.68355" lon="2.99516">
        <ele>23.1</ele>
        <time>2020-06-23T16:32:12Z</time>
      </trkpt>
      <trkpt lat="50.68356" lon="2.99515">
        <ele>23.1</ele>
        <time>2020-06-23T16:32:13Z</time>
      </trkpt>
      <trkpt lat="50.68356" lon="2.99514">
        <ele>23.1</ele>
        <time>2020-06-23T16:32:14Z</time>
      </trkpt>
      <trkpt lat="50.68356" lon="2.99514">
        <ele>23.1</ele>
        <time>2020-06-23T16:32:15Z</time>
      </trkpt>
      <trkpt lat="50.68357" lon="2.99513">
        <ele>23.1</ele>
        <time>2020-06-23T16:32:16Z</time>
      </trkpt>
      <trkpt lat="50.68357" lon="2.99513">
        <ele>23.1</ele>
        <time>2020-06-23T16:32:17Z</time>
      </trkpt>
      <trkpt lat="50.68357" lon="2.99512">
        <ele>23.1</ele>
        <time>2020-06-23T16:32:18Z</time>
      </trkpt>
      <trkpt lat="50.68357" lon="2.99512">
        <ele>23.1</ele>
        <time>2020-06-23T16:32:19Z</time>
      </trkpt>
      <trkpt lat="50.68357" lon="2.99512">
        <ele>23.1</ele>
        <time>2020-06-23T16:32:20Z</time>
      </trkpt>
      <trkpt lat="50.68357" lon="2.99512">
        <ele>23.1</ele>
        <time>2020-06-23T16:32:21Z</time>
      </trkpt>
      <trkpt lat="50.68357" lon="2.99513">
        <ele>23.1</ele>
        <time>2020-06-23T16:32:22Z</time>
      </trkpt>
      <trkpt lat="50.68357" lon="2.99513">
        <ele>23.1</ele>
        <time>2020-06-23T16:32:23Z</time>
      </trkpt>
      <trkpt lat="50.68357" lon="2.99514">
        <ele>23.1</ele>
        <time>2020-06-23T16:32:24Z</time>
      </trkpt>
      <trkpt lat="50.68357" lon="2.99514">
        <ele>23.1</ele>
        <time>2020-06-23T16:32:25Z</time>
      </trkpt>
      <trkpt lat="50.68358" lon="2.99533">
        <ele>23.1</ele>
        <time>2020-06-23T16:32:46Z</time>
      </trkpt>
      <trkpt lat="50.68358" lon="2.99536">
        <ele>23.1</ele>
        <time>2020-06-23T16:32:47Z</time>
      </trkpt>
      <trkpt lat="50.68358" lon="2.99538">
        <ele>23.1</ele>
        <time>2020-06-23T16:32:48Z</time>
      </trkpt>
      <trkpt lat="50.68358" lon="2.99539">
        <ele>23.1</ele>
        <time>2020-06-23T16:32:49Z</time>
      </trkpt>
      <trkpt lat="50.68357" lon="2.9954">
        <ele>23</ele>
        <time>2020-06-23T16:32:50Z</time>
      </trkpt>
      <trkpt lat="50.68356" lon="2.99541">
        <ele>23</ele>
        <time>2020-06-23T16:32:51Z</time>
      </trkpt>
      <trkpt lat="50.68356" lon="2.99541">
        <ele>23</ele>
        <time>2020-06-23T16:32:52Z</time>
      </trkpt>
      <trkpt lat="50.68357" lon="2.99541">
        <ele>23</ele>
        <time>2020-06-23T16:32:53Z</time>
      </trkpt>
      <trkpt lat="50.68358" lon="2.99542">
        <ele>23</ele>
        <time>2020-06-23T16:32:54Z</time>
      </trkpt>
      <trkpt lat="50.68359" lon="2.99542">
        <ele>23</ele>
        <time>2020-06-23T16:32:55Z</time>
      </trkpt>
      <trkpt lat="50.68359" lon="2.99543">
        <ele>23</ele>
        <time>2020-06-23T16:32:56Z</time>
      </trkpt>
      <trkpt lat="50.68359" lon="2.99542">
        <ele>23</ele>
        <time>2020-06-23T16:32:57Z</time>
      </trkpt>
      <trkpt lat="50.68358" lon="2.99543">
        <ele>23</ele>
        <time>2020-06-23T16:32:58Z</time>
      </trkpt>
      <trkpt lat="50.68357" lon="2.99543">
        <ele>23</ele>
        <time>2020-06-23T16:32:59Z</time>
      </trkpt>
      <trkpt lat="50.68357" lon="2.99541">
        <ele>23</ele>
        <time>2020-06-23T16:33:00Z</time>
      </trkpt>
      <trkpt lat="50.68357" lon="2.99541">
        <ele>23</ele>
        <time>2020-06-23T16:33:01Z</time>
      </trkpt>
      <trkpt lat="50.68357" lon="2.9954">
        <ele>23</ele>
        <time>2020-06-23T16:33:02Z</time>
      </trkpt>
      <trkpt lat="50.68357" lon="2.9954">
        <ele>23</ele>
        <time>2020-06-23T16:33:03Z</time>
      </trkpt>
      <trkpt lat="50.68357" lon="2.99539">
        <ele>23</ele>
        <time>2020-06-23T16:33:04Z</time>
      </trkpt>
      <trkpt lat="50.68356" lon="2.99539">
        <ele>23</ele>
        <time>2020-06-23T16:33:05Z</time>
      </trkpt>
      <trkpt lat="50.68356" lon="2.99539">
        <ele>23</ele>
        <time>2020-06-23T16:33:06Z</time>
      </trkpt>
      <trkpt lat="50.68356" lon="2.9954">
        <ele>23</ele>
        <time>2020-06-23T16:33:07Z</time>
      </trkpt>
      <trkpt lat="50.68356" lon="2.9954">
        <ele>23</ele>
        <time>2020-06-23T16:33:08Z</time>
      </trkpt>
      <trkpt lat="50.68356" lon="2.9954">
        <ele>23</ele>
        <time>2020-06-23T16:33:09Z</time>
      </trkpt>
      <trkpt lat="50.68355" lon="2.99541">
        <ele>23</ele>
        <time>2020-06-23T16:33:10Z</time>
      </trkpt>
      <trkpt lat="50.68355" lon="2.99541">
        <ele>23</ele>
        <time>2020-06-23T16:33:11Z</time>
      </trkpt>
      <trkpt lat="50.68355" lon="2.99541">
        <ele>23</ele>
        <time>2020-06-23T16:33:12Z</time>
      </trkpt>
      <trkpt lat="50.68355" lon="2.9954">
        <ele>23</ele>
        <time>2020-06-23T16:33:13Z</time>
      </trkpt>
      <trkpt lat="50.68355" lon="2.9954">
        <ele>23</ele>
        <time>2020-06-23T16:33:14Z</time>
      </trkpt>
      <trkpt lat="50.68355" lon="2.9954">
        <ele>23</ele>
        <time>2020-06-23T16:33:15Z</time>
      </trkpt>
      <trkpt lat="50.68355" lon="2.9954">
        <ele>23</ele>
        <time>2020-06-23T16:33:16Z</time>
      </trkpt>
      <trkpt lat="50.68355" lon="2.9954">
        <ele>23</ele>
        <time>2020-06-23T16:33:17Z</time>
      </trkpt>
      <trkpt lat="50.68356" lon="2.9954">
        <ele>23</ele>
        <time>2020-06-23T16:33:18Z</time>
      </trkpt>
      <trkpt lat="50.68356" lon="2.99541">
        <ele>23</ele>
        <time>2020-06-23T16:33:19Z</time>
      </trkpt>
      <trkpt lat="50.68356" lon="2.99542">
        <ele>23</ele>
        <time>2020-06-23T16:33:20Z</time>
      </trkpt>
      <trkpt lat="50.68355" lon="2.99541">
        <ele>23</ele>
        <time>2020-06-23T16:33:21Z</time>
      </trkpt>
      <trkpt lat="50.68355" lon="2.9954">
        <ele>23</ele>
        <time>2020-06-23T16:33:22Z</time>
      </trkpt>
      <trkpt lat="50.68355" lon="2.99541">
        <ele>23</ele>
        <time>2020-06-23T16:33:23Z</time>
      </trkpt>
      <trkpt lat="50.68355" lon="2.99541">
        <ele>23</ele>
        <time>2020-06-23T16:33:24Z</time>
      </trkpt>
      <trkpt lat="50.68355" lon="2.99541">
        <ele>23</ele>
        <time>2020-06-23T16:33:25Z</time>
      </trkpt>
      <trkpt lat="50.68355" lon="2.99541">
        <ele>23</ele>
        <time>2020-06-23T16:33:26Z</time>
      </trkpt>
      <trkpt lat="50.68355" lon="2.9954">
        <ele>23</ele>
        <time>2020-06-23T16:33:27Z</time>
      </trkpt>
      <trkpt lat="50.68355" lon="2.99541">
        <ele>23</ele>
        <time>2020-06-23T16:33:28Z</time>
      </trkpt>
      <trkpt lat="50.68355" lon="2.99542">
        <ele>23</ele>
        <time>2020-06-23T16:33:29Z</time>
      </trkpt>
      <trkpt lat="50.68356" lon="2.99542">
        <ele>23</ele>
        <time>2020-06-23T16:33:30Z</time>
      </trkpt>
      <trkpt lat="50.68355" lon="2.99541">
        <ele>23</ele>
        <time>2020-06-23T16:33:31Z</time>
      </trkpt>
      <trkpt lat="50.68355" lon="2.9954">
        <ele>23</ele>
        <time>2020-06-23T16:33:32Z</time>
      </trkpt>
      <trkpt lat="50.68355" lon="2.9954">
        <ele>23</ele>
        <time>2020-06-23T16:33:33Z</time>
      </trkpt>
      <trkpt lat="50.68354" lon="2.99539">
        <ele>23</ele>
        <time>2020-06-23T16:33:34Z</time>
      </trkpt>
      <trkpt lat="50.68354" lon="2.99539">
        <ele>23</ele>
        <time>2020-06-23T16:33:35Z</time>
      </trkpt>
      <trkpt lat="50.68353" lon="2.9954">
        <ele>23</ele>
        <time>2020-06-23T16:33:36Z</time>
      </trkpt>
      <trkpt lat="50.68352" lon="2.99541">
        <ele>23</ele>
        <time>2020-06-23T16:33:37Z</time>
      </trkpt>
      <trkpt lat="50.68352" lon="2.99542">
        <ele>23</ele>
        <time>2020-06-23T16:33:38Z</time>
      </trkpt>
      <trkpt lat="50.68351" lon="2.99529">
        <ele>23</ele>
        <time>2020-06-23T16:34:10Z</time>
      </trkpt>
      <trkpt lat="50.68349" lon="2.99526">
        <ele>23</ele>
        <time>2020-06-23T16:34:11Z</time>
      </trkpt>
      <trkpt lat="50.68348" lon="2.99525">
        <ele>23</ele>
        <time>2020-06-23T16:34:12Z</time>
      </trkpt>
      <trkpt lat="50.68346" lon="2.99523">
        <ele>23</ele>
        <time>2020-06-23T16:34:13Z</time>
      </trkpt>
      <trkpt lat="50.68345" lon="2.99521">
        <ele>23</ele>
        <time>2020-06-23T16:34:14Z</time>
      </trkpt>
      <trkpt lat="50.68344" lon="2.99519">
        <ele>23</ele>
        <time>2020-06-23T16:34:15Z</time>
      </trkpt>
      <trkpt lat="50.68343" lon="2.99518">
        <ele>23</ele>
        <time>2020-06-23T16:34:16Z</time>
      </trkpt>
      <trkpt lat="50.68342" lon="2.99517">
        <ele>23</ele>
        <time>2020-06-23T16:34:17Z</time>
      </trkpt>
      <trkpt lat="50.68342" lon="2.99517">
        <ele>23</ele>
        <time>2020-06-23T16:34:18Z</time>
      </trkpt>
      <trkpt lat="50.68342" lon="2.99516">
        <ele>23</ele>
        <time>2020-06-23T16:34:19Z</time>
      </trkpt>
      <trkpt lat="50.68341" lon="2.99515">
        <ele>23</ele>
        <time>2020-06-23T16:34:20Z</time>
      </trkpt>
      <trkpt lat="50.68341" lon="2.99513">
        <ele>23</ele>
        <time>2020-06-23T16:34:21Z</time>
      </trkpt>
      <trkpt lat="50.6834" lon="2.99512">
        <ele>23</ele>
        <time>2020-06-23T16:34:22Z</time>
      </trkpt>
      <trkpt lat="50.6834" lon="2.99511">
        <ele>23</ele>
        <time>2020-06-23T16:34:23Z</time>
      </trkpt>
      <trkpt lat="50.6834" lon="2.9951">
        <ele>23</ele>
        <time>2020-06-23T16:34:24Z</time>
      </trkpt>
      <trkpt lat="50.6834" lon="2.99509">
        <ele>23</ele>
        <time>2020-06-23T16:34:25Z</time>
      </trkpt>
      <trkpt lat="50.6834" lon="2.99509">
        <ele>23</ele>
        <time>2020-06-23T16:34:26Z</time>
      </trkpt>
      <trkpt lat="50.68339" lon="2.99509">
        <ele>23</ele>
        <time>2020-06-23T16:34:27Z</time>
      </trkpt>
      <trkpt lat="50.68338" lon="2.99509">
        <ele>23</ele>
        <time>2020-06-23T16:34:28Z</time>
      </trkpt>
      <trkpt lat="50.68337" lon="2.99509">
        <ele>23</ele>
        <time>2020-06-23T16:34:29Z</time>
      </trkpt>
      <trkpt lat="50.68337" lon="2.99509">
        <ele>23</ele>
        <time>2020-06-23T16:34:30Z</time>
      </trkpt>
      <trkpt lat="50.68337" lon="2.99509">
        <ele>23</ele>
        <time>2020-06-23T16:34:31Z</time>
      </trkpt>
      <trkpt lat="50.68337" lon="2.9951">
        <ele>23</ele>
        <time>2020-06-23T16:34:32Z</time>
      </trkpt>
      <trkpt lat="50.68337" lon="2.9951">
        <ele>23</ele>
        <time>2020-06-23T16:34:33Z</time>
      </trkpt>
      <trkpt lat="50.68337" lon="2.9951">
        <ele>23</ele>
        <time>2020-06-23T16:34:34Z</time>
      </trkpt>
      <trkpt lat="50.68337" lon="2.9951">
        <ele>23</ele>
        <time>2020-06-23T16:34:35Z</time>
      </trkpt>
      <trkpt lat="50.68337" lon="2.99511">
        <ele>23</ele>
        <time>2020-06-23T16:34:36Z</time>
      </trkpt>
      <trkpt lat="50.68337" lon="2.99511">
        <ele>23</ele>
        <time>2020-06-23T16:34:37Z</time>
      </trkpt>
      <trkpt lat="50.68337" lon="2.99512">
        <ele>23</ele>
        <time>2020-06-23T16:34:38Z</time>
      </trkpt>
      <trkpt lat="50.68336" lon="2.99506">
        <ele>23</ele>
        <time>2020-06-23T16:35:07Z</time>
      </trkpt>
      <trkpt lat="50.68336" lon="2.99506">
        <ele>23</ele>
        <time>2020-06-23T16:35:08Z</time>
      </trkpt>
      <trkpt lat="50.68337" lon="2.99506">
        <ele>23</ele>
        <time>2020-06-23T16:35:09Z</time>
      </trkpt>
      <trkpt lat="50.68339" lon="2.99506">
        <ele>23</ele>
        <time>2020-06-23T16:35:10Z</time>
      </trkpt>
      <trkpt lat="50.6834" lon="2.99506">
        <ele>23</ele>
        <time>2020-06-23T16:35:11Z</time>
      </trkpt>
      <trkpt lat="50.6834" lon="2.99505">
        <ele>23</ele>
        <time>2020-06-23T16:35:12Z</time>
      </trkpt>
      <trkpt lat="50.68341" lon="2.99504">
        <ele>23</ele>
        <time>2020-06-23T16:35:13Z</time>
      </trkpt>
      <trkpt lat="50.68341" lon="2.99504">
        <ele>23</ele>
        <time>2020-06-23T16:35:14Z</time>
      </trkpt>
      <trkpt lat="50.68341" lon="2.99504">
        <ele>23</ele>
        <time>2020-06-23T16:35:15Z</time>
      </trkpt>
      <trkpt lat="50.68342" lon="2.99503">
        <ele>23</ele>
        <time>2020-06-23T16:35:16Z</time>
      </trkpt>
      <trkpt lat="50.68342" lon="2.99502">
        <ele>23</ele>
        <time>2020-06-23T16:35:17Z</time>
      </trkpt>
      <trkpt lat="50.68342" lon="2.99502">
        <ele>23</ele>
        <time>2020-06-23T16:35:18Z</time>
      </trkpt>
      <trkpt lat="50.68342" lon="2.99502">
        <ele>23</ele>
        <time>2020-06-23T16:35:19Z</time>
      </trkpt>
      <trkpt lat="50.68342" lon="2.99502">
        <ele>23</ele>
        <time>2020-06-23T16:35:20Z</time>
      </trkpt>
      <trkpt lat="50.68341" lon="2.99503">
        <ele>23</ele>
        <time>2020-06-23T16:35:21Z</time>
      </trkpt>
      <trkpt lat="50.68341" lon="2.99504">
        <ele>23</ele>
        <time>2020-06-23T16:35:22Z</time>
      </trkpt>
      <trkpt lat="50.68341" lon="2.99504">
        <ele>23</ele>
        <time>2020-06-23T16:35:23Z</time>
      </trkpt>
      <trkpt lat="50.6834" lon="2.99508">
        <ele>23</ele>
        <time>2020-06-23T16:35:24Z</time>
      </trkpt>
      <trkpt lat="50.68339" lon="2.99512">
        <ele>23</ele>
        <time>2020-06-23T16:35:25Z</time>
      </trkpt>
      <trkpt lat="50.68339" lon="2.99512">
        <ele>23</ele>
        <time>2020-06-23T16:35:26Z</time>
      </trkpt>
      <trkpt lat="50.68339" lon="2.99513">
        <ele>23</ele>
        <time>2020-06-23T16:35:27Z</time>
      </trkpt>
      <trkpt lat="50.68339" lon="2.99513">
        <ele>23</ele>
        <time>2020-06-23T16:35:28Z</time>
      </trkpt>
      <trkpt lat="50.68338" lon="2.99514">
        <ele>23</ele>
        <time>2020-06-23T16:35:29Z</time>
      </trkpt>
      <trkpt lat="50.68338" lon="2.99515">
        <ele>23</ele>
        <time>2020-06-23T16:35:30Z</time>
      </trkpt>
      <trkpt lat="50.68338" lon="2.99515">
        <ele>23</ele>
        <time>2020-06-23T16:35:31Z</time>
      </trkpt>
      <trkpt lat="50.68338" lon="2.99516">
        <ele>23</ele>
        <time>2020-06-23T16:35:32Z</time>
      </trkpt>
      <trkpt lat="50.68338" lon="2.99516">
        <ele>23</ele>
        <time>2020-06-23T16:35:33Z</time>
      </trkpt>
      <trkpt lat="50.68338" lon="2.99517">
        <ele>23</ele>
        <time>2020-06-23T16:35:34Z</time>
      </trkpt>
      <trkpt lat="50.68338" lon="2.99517">
        <ele>23</ele>
        <time>2020-06-23T16:35:35Z</time>
      </trkpt>
      <trkpt lat="50.68338" lon="2.99518">
        <ele>23</ele>
        <time>2020-06-23T16:35:36Z</time>
      </trkpt>
      <trkpt lat="50.68338" lon="2.99519">
        <ele>23</ele>
        <time>2020-06-23T16:35:37Z</time>
      </trkpt>
      <trkpt lat="50.68338" lon="2.99519">
        <ele>23</ele>
        <time>2020-06-23T16:35:38Z</time>
      </trkpt>
      <trkpt lat="50.68338" lon="2.9952">
        <ele>23</ele>
        <time>2020-06-23T16:35:39Z</time>
      </trkpt>
      <trkpt lat="50.68338" lon="2.9952">
        <ele>23</ele>
        <time>2020-06-23T16:35:40Z</time>
      </trkpt>
      <trkpt lat="50.68338" lon="2.99521">
        <ele>23</ele>
        <time>2020-06-23T16:35:41Z</time>
      </trkpt>
      <trkpt lat="50.68338" lon="2.99522">
        <ele>23</ele>
        <time>2020-06-23T16:35:42Z</time>
      </trkpt>
      <trkpt lat="50.68337" lon="2.99522">
        <ele>23</ele>
        <time>2020-06-23T16:35:43Z</time>
      </trkpt>
      <trkpt lat="50.68337" lon="2.99523">
        <ele>23</ele>
        <time>2020-06-23T16:37:47Z</time>
      </trkpt>
      <trkpt lat="50.68337" lon="2.99523">
        <ele>23</ele>
        <time>2020-06-23T16:37:48Z</time>
      </trkpt>
      <trkpt lat="50.6834" lon="2.99527">
        <ele>23</ele>
        <time>2020-06-23T16:37:49Z</time>
      </trkpt>
      <trkpt lat="50.68342" lon="2.99531">
        <ele>23</ele>
        <time>2020-06-23T16:37:50Z</time>
      </trkpt>
      <trkpt lat="50.68345" lon="2.99536">
        <ele>23</ele>
        <time>2020-06-23T16:37:51Z</time>
      </trkpt>
      <trkpt lat="50.68349" lon="2.9954">
        <ele>23</ele>
        <time>2020-06-23T16:37:52Z</time>
      </trkpt>
      <trkpt lat="50.68352" lon="2.99545">
        <ele>23</ele>
        <time>2020-06-23T16:37:53Z</time>
      </trkpt>
      <trkpt lat="50.68356" lon="2.99551">
        <ele>23</ele>
        <time>2020-06-23T16:37:54Z</time>
      </trkpt>
      <trkpt lat="50.6836" lon="2.99555">
        <ele>23</ele>
        <time>2020-06-23T16:37:55Z</time>
      </trkpt>
      <trkpt lat="50.68364" lon="2.99558">
        <ele>23</ele>
        <time>2020-06-23T16:37:56Z</time>
      </trkpt>
      <trkpt lat="50.68369" lon="2.99561">
        <ele>23</ele>
        <time>2020-06-23T16:37:57Z</time>
      </trkpt>
      <trkpt lat="50.68373" lon="2.99562">
        <ele>23</ele>
        <time>2020-06-23T16:37:58Z</time>
      </trkpt>
      <trkpt lat="50.68378" lon="2.99565">
        <ele>23</ele>
        <time>2020-06-23T16:37:59Z</time>
      </trkpt>
      <trkpt lat="50.68382" lon="2.99566">
        <ele>23</ele>
        <time>2020-06-23T16:38:00Z</time>
      </trkpt>
      <trkpt lat="50.68387" lon="2.99568">
        <ele>23</ele>
        <time>2020-06-23T16:38:01Z</time>
      </trkpt>
      <trkpt lat="50.68391" lon="2.9957">
        <ele>23</ele>
        <time>2020-06-23T16:38:02Z</time>
      </trkpt>
      <trkpt lat="50.68395" lon="2.99574">
        <ele>23</ele>
        <time>2020-06-23T16:38:03Z</time>
      </trkpt>
      <trkpt lat="50.68399" lon="2.99578">
        <ele>23</ele>
        <time>2020-06-23T16:38:04Z</time>
      </trkpt>
      <trkpt lat="50.68402" lon="2.99581">
        <ele>23</ele>
        <time>2020-06-23T16:38:05Z</time>
      </trkpt>
      <trkpt lat="50.68405" lon="2.99586">
        <ele>23</ele>
        <time>2020-06-23T16:38:06Z</time>
      </trkpt>
      <trkpt lat="50.68409" lon="2.99589">
        <ele>23</ele>
        <time>2020-06-23T16:38:07Z</time>
      </trkpt>
      <trkpt lat="50.68414" lon="2.99593">
        <ele>23</ele>
        <time>2020-06-23T16:38:08Z</time>
      </trkpt>
      <trkpt lat="50.68418" lon="2.99597">
        <ele>23.1</ele>
        <time>2020-06-23T16:38:09Z</time>
      </trkpt>
      <trkpt lat="50.68423" lon="2.99601">
        <ele>23.1</ele>
        <time>2020-06-23T16:38:10Z</time>
      </trkpt>
      <trkpt lat="50.68427" lon="2.99606">
        <ele>23.1</ele>
        <time>2020-06-23T16:38:11Z</time>
      </trkpt>
      <trkpt lat="50.6843" lon="2.9961">
        <ele>23.1</ele>
        <time>2020-06-23T16:38:12Z</time>
      </trkpt>
      <trkpt lat="50.68433" lon="2.99613">
        <ele>23.1</ele>
        <time>2020-06-23T16:38:13Z</time>
      </trkpt>
      <trkpt lat="50.68436" lon="2.99617">
        <ele>23.1</ele>
        <time>2020-06-23T16:38:14Z</time>
      </trkpt>
      <trkpt lat="50.6844" lon="2.99622">
        <ele>23.1</ele>
        <time>2020-06-23T16:38:15Z</time>
      </trkpt>
      <trkpt lat="50.68444" lon="2.99628">
        <ele>23.1</ele>
        <time>2020-06-23T16:38:16Z</time>
      </trkpt>
      <trkpt lat="50.68449" lon="2.99633">
        <ele>23.1</ele>
        <time>2020-06-23T16:38:17Z</time>
      </trkpt>
      <trkpt lat="50.68453" lon="2.99637">
        <ele>23.1</ele>
        <time>2020-06-23T16:38:18Z</time>
      </trkpt>
      <trkpt lat="50.68458" lon="2.99641">
        <ele>23.1</ele>
        <time>2020-06-23T16:38:19Z</time>
      </trkpt>
      <trkpt lat="50.68462" lon="2.99646">
        <ele>23.2</ele>
        <time>2020-06-23T16:38:20Z</time>
      </trkpt>
      <trkpt lat="50.68467" lon="2.99651">
        <ele>23.2</ele>
        <time>2020-06-23T16:38:21Z</time>
      </trkpt>
      <trkpt lat="50.68471" lon="2.99656">
        <ele>23.2</ele>
        <time>2020-06-23T16:38:22Z</time>
      </trkpt>
      <trkpt lat="50.68475" lon="2.99661">
        <ele>23.2</ele>
        <time>2020-06-23T16:38:23Z</time>
      </trkpt>
      <trkpt lat="50.68479" lon="2.99665">
        <ele>23.2</ele>
        <time>2020-06-23T16:38:24Z</time>
      </trkpt>
      <trkpt lat="50.68484" lon="2.9967">
        <ele>23.2</ele>
        <time>2020-06-23T16:38:25Z</time>
      </trkpt>
      <trkpt lat="50.68488" lon="2.99675">
        <ele>23.3</ele>
        <time>2020-06-23T16:38:26Z</time>
      </trkpt>
      <trkpt lat="50.68493" lon="2.99681">
        <ele>23.3</ele>
        <time>2020-06-23T16:38:27Z</time>
      </trkpt>
      <trkpt lat="50.68497" lon="2.99687">
        <ele>23.4</ele>
        <time>2020-06-23T16:38:28Z</time>
      </trkpt>
      <trkpt lat="50.68502" lon="2.99693">
        <ele>23.4</ele>
        <time>2020-06-23T16:38:29Z</time>
      </trkpt>
      <trkpt lat="50.68505" lon="2.997">
        <ele>23.4</ele>
        <time>2020-06-23T16:38:30Z</time>
      </trkpt>
      <trkpt lat="50.6851" lon="2.99707">
        <ele>23.5</ele>
        <time>2020-06-23T16:38:31Z</time>
      </trkpt>
      <trkpt lat="50.68514" lon="2.99713">
        <ele>23.5</ele>
        <time>2020-06-23T16:38:32Z</time>
      </trkpt>
      <trkpt lat="50.68517" lon="2.99719">
        <ele>23.5</ele>
        <time>2020-06-23T16:38:33Z</time>
      </trkpt>
      <trkpt lat="50.6852" lon="2.99724">
        <ele>23.4</ele>
        <time>2020-06-23T16:38:34Z</time>
      </trkpt>
      <trkpt lat="50.68523" lon="2.99728">
        <ele>23.4</ele>
        <time>2020-06-23T16:38:35Z</time>
      </trkpt>
      <trkpt lat="50.68525" lon="2.99733">
        <ele>23.3</ele>
        <time>2020-06-23T16:38:36Z</time>
      </trkpt>
      <trkpt lat="50.68529" lon="2.99737">
        <ele>23.2</ele>
        <time>2020-06-23T16:38:37Z</time>
      </trkpt>
      <trkpt lat="50.68532" lon="2.99743">
        <ele>23.1</ele>
        <time>2020-06-23T16:38:38Z</time>
      </trkpt>
      <trkpt lat="50.68535" lon="2.99749">
        <ele>23</ele>
        <time>2020-06-23T16:38:39Z</time>
      </trkpt>
      <trkpt lat="50.68537" lon="2.99756">
        <ele>22.9</ele>
        <time>2020-06-23T16:38:40Z</time>
      </trkpt>
      <trkpt lat="50.6854" lon="2.99762">
        <ele>22.9</ele>
        <time>2020-06-23T16:38:41Z</time>
      </trkpt>
      <trkpt lat="50.68543" lon="2.99769">
        <ele>22.8</ele>
        <time>2020-06-23T16:38:42Z</time>
      </trkpt>
      <trkpt lat="50.68547" lon="2.99775">
        <ele>22.8</ele>
        <time>2020-06-23T16:38:43Z</time>
      </trkpt>
      <trkpt lat="50.6855" lon="2.99782">
        <ele>22.7</ele>
        <time>2020-06-23T16:38:44Z</time>
      </trkpt>
      <trkpt lat="50.68553" lon="2.99788">
        <ele>22.7</ele>
        <time>2020-06-23T16:38:45Z</time>
      </trkpt>
      <trkpt lat="50.68557" lon="2.99794">
        <ele>22.7</ele>
        <time>2020-06-23T16:38:46Z</time>
      </trkpt>
      <trkpt lat="50.6856" lon="2.998">
        <ele>22.6</ele>
        <time>2020-06-23T16:38:47Z</time>
      </trkpt>
      <trkpt lat="50.68563" lon="2.99806">
        <ele>22.6</ele>
        <time>2020-06-23T16:38:48Z</time>
      </trkpt>
      <trkpt lat="50.68566" lon="2.99812">
        <ele>22.6</ele>
        <time>2020-06-23T16:38:49Z</time>
      </trkpt>
      <trkpt lat="50.68569" lon="2.99817">
        <ele>22.6</ele>
        <time>2020-06-23T16:38:50Z</time>
      </trkpt>
      <trkpt lat="50.6857" lon="2.99823">
        <ele>22.6</ele>
        <time>2020-06-23T16:38:51Z</time>
      </trkpt>
      <trkpt lat="50.68573" lon="2.99826">
        <ele>22.6</ele>
        <time>2020-06-23T16:38:52Z</time>
      </trkpt>
      <trkpt lat="50.68573" lon="2.99827">
        <ele>22.6</ele>
        <time>2020-06-23T16:38:53Z</time>
      </trkpt>
      <trkpt lat="50.68572" lon="2.99831">
        <ele>22.6</ele>
        <time>2020-06-23T16:38:54Z</time>
      </trkpt>
      <trkpt lat="50.68572" lon="2.99833">
        <ele>22.8</ele>
        <time>2020-06-23T16:38:55Z</time>
      </trkpt>
      <trkpt lat="50.68572" lon="2.99834">
        <ele>22.8</ele>
        <time>2020-06-23T16:38:56Z</time>
      </trkpt>
      <trkpt lat="50.68569" lon="2.99839">
        <ele>23</ele>
        <time>2020-06-23T16:38:57Z</time>
      </trkpt>
      <trkpt lat="50.68568" lon="2.99842">
        <ele>23</ele>
        <time>2020-06-23T16:38:58Z</time>
      </trkpt>
      <trkpt lat="50.68566" lon="2.99848">
        <ele>23.2</ele>
        <time>2020-06-23T16:38:59Z</time>
      </trkpt>
      <trkpt lat="50.68564" lon="2.99855">
        <ele>23.3</ele>
        <time>2020-06-23T16:39:00Z</time>
      </trkpt>
      <trkpt lat="50.68561" lon="2.99861">
        <ele>23.4</ele>
        <time>2020-06-23T16:39:01Z</time>
      </trkpt>
      <trkpt lat="50.68558" lon="2.99867">
        <ele>23.5</ele>
        <time>2020-06-23T16:39:02Z</time>
      </trkpt>
      <trkpt lat="50.68555" lon="2.99874">
        <ele>23.7</ele>
        <time>2020-06-23T16:39:03Z</time>
      </trkpt>
      <trkpt lat="50.68552" lon="2.99881">
        <ele>23.9</ele>
        <time>2020-06-23T16:39:04Z</time>
      </trkpt>
      <trkpt lat="50.68548" lon="2.99888">
        <ele>24</ele>
        <time>2020-06-23T16:39:05Z</time>
      </trkpt>
      <trkpt lat="50.68544" lon="2.99896">
        <ele>24.2</ele>
        <time>2020-06-23T16:39:06Z</time>
      </trkpt>
      <trkpt lat="50.68541" lon="2.99903">
        <ele>24.4</ele>
        <time>2020-06-23T16:39:07Z</time>
      </trkpt>
      <trkpt lat="50.68538" lon="2.99909">
        <ele>24.5</ele>
        <time>2020-06-23T16:39:08Z</time>
      </trkpt>
      <trkpt lat="50.68536" lon="2.99916">
        <ele>24.6</ele>
        <time>2020-06-23T16:39:09Z</time>
      </trkpt>
      <trkpt lat="50.68533" lon="2.99922">
        <ele>24.8</ele>
        <time>2020-06-23T16:39:10Z</time>
      </trkpt>
      <trkpt lat="50.6853" lon="2.9993">
        <ele>24.9</ele>
        <time>2020-06-23T16:39:11Z</time>
      </trkpt>
      <trkpt lat="50.68527" lon="2.99937">
        <ele>25.1</ele>
        <time>2020-06-23T16:39:12Z</time>
      </trkpt>
      <trkpt lat="50.68525" lon="2.99943">
        <ele>25.2</ele>
        <time>2020-06-23T16:39:13Z</time>
      </trkpt>
      <trkpt lat="50.68521" lon="2.99949">
        <ele>25.3</ele>
        <time>2020-06-23T16:39:14Z</time>
      </trkpt>
      <trkpt lat="50.68519" lon="2.99956">
        <ele>25.4</ele>
        <time>2020-06-23T16:39:15Z</time>
      </trkpt>
      <trkpt lat="50.68517" lon="2.99962">
        <ele>25.5</ele>
        <time>2020-06-23T16:39:16Z</time>
      </trkpt>
      <trkpt lat="50.68514" lon="2.99968">
        <ele>25.6</ele>
        <time>2020-06-23T16:39:17Z</time>
      </trkpt>
      <trkpt lat="50.68511" lon="2.99974">
        <ele>25.7</ele>
        <time>2020-06-23T16:39:18Z</time>
      </trkpt>
      <trkpt lat="50.68508" lon="2.9998">
        <ele>25.9</ele>
        <time>2020-06-23T16:39:19Z</time>
      </trkpt>
      <trkpt lat="50.68504" lon="2.99986">
        <ele>26</ele>
        <time>2020-06-23T16:39:20Z</time>
      </trkpt>
      <trkpt lat="50.68501" lon="2.99993">
        <ele>26</ele>
        <time>2020-06-23T16:39:21Z</time>
      </trkpt>
      <trkpt lat="50.68497" lon="2.99999">
        <ele>26.1</ele>
        <time>2020-06-23T16:39:22Z</time>
      </trkpt>
      <trkpt lat="50.68493" lon="3.00007">
        <ele>26.1</ele>
        <time>2020-06-23T16:39:23Z</time>
      </trkpt>
      <trkpt lat="50.6849" lon="3.00014">
        <ele>26.2</ele>
        <time>2020-06-23T16:39:24Z</time>
      </trkpt>
      <trkpt lat="50.68487" lon="3.0002">
        <ele>26.2</ele>
        <time>2020-06-23T16:39:25Z</time>
      </trkpt>
      <trkpt lat="50.68483" lon="3.00028">
        <ele>26.2</ele>
        <time>2020-06-23T16:39:26Z</time>
      </trkpt>
      <trkpt lat="50.6848" lon="3.00036">
        <ele>26.3</ele>
        <time>2020-06-23T16:39:27Z</time>
      </trkpt>
      <trkpt lat="50.68477" lon="3.00044">
        <ele>26.4</ele>
        <time>2020-06-23T16:39:28Z</time>
      </trkpt>
      <trkpt lat="50.68474" lon="3.00051">
        <ele>26.4</ele>
        <time>2020-06-23T16:39:29Z</time>
      </trkpt>
      <trkpt lat="50.68471" lon="3.00057">
        <ele>26.5</ele>
        <time>2020-06-23T16:39:30Z</time>
      </trkpt>
      <trkpt lat="50.68468" lon="3.00064">
        <ele>26.5</ele>
        <time>2020-06-23T16:39:31Z</time>
      </trkpt>
      <trkpt lat="50.68465" lon="3.00069">
        <ele>26.6</ele>
        <time>2020-06-23T16:39:32Z</time>
      </trkpt>
      <trkpt lat="50.68462" lon="3.00074">
        <ele>26.7</ele>
        <time>2020-06-23T16:39:33Z</time>
      </trkpt>
      <trkpt lat="50.68458" lon="3.0008">
        <ele>26.8</ele>
        <time>2020-06-23T16:39:34Z</time>
      </trkpt>
      <trkpt lat="50.68455" lon="3.00082">
        <ele>26.8</ele>
        <time>2020-06-23T16:39:35Z</time>
      </trkpt>
      <trkpt lat="50.68452" lon="3.00085">
        <ele>27.6</ele>
        <time>2020-06-23T16:39:36Z</time>
      </trkpt>
      <trkpt lat="50.68451" lon="3.00086">
        <ele>27.5</ele>
        <time>2020-06-23T16:39:37Z</time>
      </trkpt>
      <trkpt lat="50.68448" lon="3.00085">
        <ele>27.3</ele>
        <time>2020-06-23T16:39:38Z</time>
      </trkpt>
      <trkpt lat="50.68446" lon="3.00086">
        <ele>27.3</ele>
        <time>2020-06-23T16:39:39Z</time>
      </trkpt>
      <trkpt lat="50.68444" lon="3.00088">
        <ele>27.1</ele>
        <time>2020-06-23T16:39:40Z</time>
      </trkpt>
      <trkpt lat="50.6844" lon="3.0009">
        <ele>26.9</ele>
        <time>2020-06-23T16:39:41Z</time>
      </trkpt>
      <trkpt lat="50.68437" lon="3.00092">
        <ele>26.7</ele>
        <time>2020-06-23T16:39:42Z</time>
      </trkpt>
      <trkpt lat="50.68434" lon="3.00098">
        <ele>26.5</ele>
        <time>2020-06-23T16:39:43Z</time>
      </trkpt>
      <trkpt lat="50.68434" lon="3.00104">
        <ele>26.5</ele>
        <time>2020-06-23T16:39:44Z</time>
      </trkpt>
      <trkpt lat="50.68432" lon="3.00112">
        <ele>26.5</ele>
        <time>2020-06-23T16:39:45Z</time>
      </trkpt>
      <trkpt lat="50.68429" lon="3.0012">
        <ele>26.5</ele>
        <time>2020-06-23T16:39:46Z</time>
      </trkpt>
      <trkpt lat="50.68425" lon="3.00126">
        <ele>26.5</ele>
        <time>2020-06-23T16:39:47Z</time>
      </trkpt>
      <trkpt lat="50.68422" lon="3.00132">
        <ele>26.5</ele>
        <time>2020-06-23T16:39:48Z</time>
      </trkpt>
      <trkpt lat="50.68418" lon="3.0014">
        <ele>26.6</ele>
        <time>2020-06-23T16:39:49Z</time>
      </trkpt>
      <trkpt lat="50.68414" lon="3.00147">
        <ele>26.6</ele>
        <time>2020-06-23T16:39:50Z</time>
      </trkpt>
      <trkpt lat="50.68409" lon="3.00154">
        <ele>26.7</ele>
        <time>2020-06-23T16:39:51Z</time>
      </trkpt>
      <trkpt lat="50.68405" lon="3.00161">
        <ele>26.7</ele>
        <time>2020-06-23T16:39:52Z</time>
      </trkpt>
      <trkpt lat="50.68401" lon="3.00168">
        <ele>26.7</ele>
        <time>2020-06-23T16:39:53Z</time>
      </trkpt>
      <trkpt lat="50.68396" lon="3.00175">
        <ele>26.7</ele>
        <time>2020-06-23T16:39:54Z</time>
      </trkpt>
      <trkpt lat="50.68393" lon="3.00183">
        <ele>26.7</ele>
        <time>2020-06-23T16:39:55Z</time>
      </trkpt>
      <trkpt lat="50.68388" lon="3.00191">
        <ele>26.7</ele>
        <time>2020-06-23T16:39:56Z</time>
      </trkpt>
      <trkpt lat="50.68384" lon="3.00199">
        <ele>26.7</ele>
        <time>2020-06-23T16:39:57Z</time>
      </trkpt>
      <trkpt lat="50.68379" lon="3.00206">
        <ele>26.7</ele>
        <time>2020-06-23T16:39:58Z</time>
      </trkpt>
      <trkpt lat="50.68375" lon="3.00213">
        <ele>26.7</ele>
        <time>2020-06-23T16:39:59Z</time>
      </trkpt>
      <trkpt lat="50.68371" lon="3.0022">
        <ele>26.7</ele>
        <time>2020-06-23T16:40:00Z</time>
      </trkpt>
      <trkpt lat="50.68367" lon="3.00226">
        <ele>26.7</ele>
        <time>2020-06-23T16:40:01Z</time>
      </trkpt>
      <trkpt lat="50.68363" lon="3.00234">
        <ele>26.7</ele>
        <time>2020-06-23T16:40:02Z</time>
      </trkpt>
      <trkpt lat="50.6836" lon="3.0024">
        <ele>26.7</ele>
        <time>2020-06-23T16:40:03Z</time>
      </trkpt>
      <trkpt lat="50.68354" lon="3.00247">
        <ele>26.7</ele>
        <time>2020-06-23T16:40:04Z</time>
      </trkpt>
      <trkpt lat="50.68349" lon="3.00257">
        <ele>26.7</ele>
        <time>2020-06-23T16:40:05Z</time>
      </trkpt>
      <trkpt lat="50.68344" lon="3.00267">
        <ele>26.7</ele>
        <time>2020-06-23T16:40:06Z</time>
      </trkpt>
      <trkpt lat="50.68339" lon="3.00275">
        <ele>26.7</ele>
        <time>2020-06-23T16:40:07Z</time>
      </trkpt>
      <trkpt lat="50.68334" lon="3.00283">
        <ele>26.8</ele>
        <time>2020-06-23T16:40:08Z</time>
      </trkpt>
      <trkpt lat="50.6833" lon="3.0029">
        <ele>26.8</ele>
        <time>2020-06-23T16:40:09Z</time>
      </trkpt>
      <trkpt lat="50.68325" lon="3.00298">
        <ele>26.8</ele>
        <time>2020-06-23T16:40:10Z</time>
      </trkpt>
      <trkpt lat="50.68321" lon="3.00306">
        <ele>26.9</ele>
        <time>2020-06-23T16:40:11Z</time>
      </trkpt>
      <trkpt lat="50.68316" lon="3.00313">
        <ele>26.9</ele>
        <time>2020-06-23T16:40:12Z</time>
      </trkpt>
      <trkpt lat="50.68312" lon="3.0032">
        <ele>26.9</ele>
        <time>2020-06-23T16:40:13Z</time>
      </trkpt>
      <trkpt lat="50.68307" lon="3.00327">
        <ele>27</ele>
        <time>2020-06-23T16:40:14Z</time>
      </trkpt>
      <trkpt lat="50.68303" lon="3.00334">
        <ele>27</ele>
        <time>2020-06-23T16:40:15Z</time>
      </trkpt>
      <trkpt lat="50.68299" lon="3.00342">
        <ele>27.1</ele>
        <time>2020-06-23T16:40:16Z</time>
      </trkpt>
      <trkpt lat="50.68294" lon="3.00349">
        <ele>27.1</ele>
        <time>2020-06-23T16:40:17Z</time>
      </trkpt>
      <trkpt lat="50.6829" lon="3.00357">
        <ele>27.2</ele>
        <time>2020-06-23T16:40:18Z</time>
      </trkpt>
      <trkpt lat="50.68285" lon="3.00363">
        <ele>27.2</ele>
        <time>2020-06-23T16:40:19Z</time>
      </trkpt>
      <trkpt lat="50.6828" lon="3.0037">
        <ele>27.2</ele>
        <time>2020-06-23T16:40:20Z</time>
      </trkpt>
      <trkpt lat="50.68275" lon="3.00377">
        <ele>27.3</ele>
        <time>2020-06-23T16:40:21Z</time>
      </trkpt>
      <trkpt lat="50.68271" lon="3.00385">
        <ele>27.3</ele>
        <time>2020-06-23T16:40:22Z</time>
      </trkpt>
      <trkpt lat="50.68267" lon="3.00392">
        <ele>27.4</ele>
        <time>2020-06-23T16:40:23Z</time>
      </trkpt>
      <trkpt lat="50.68262" lon="3.004">
        <ele>27.4</ele>
        <time>2020-06-23T16:40:24Z</time>
      </trkpt>
      <trkpt lat="50.68258" lon="3.00407">
        <ele>27.4</ele>
        <time>2020-06-23T16:40:25Z</time>
      </trkpt>
      <trkpt lat="50.68253" lon="3.00415">
        <ele>27.4</ele>
        <time>2020-06-23T16:40:26Z</time>
      </trkpt>
      <trkpt lat="50.68249" lon="3.00422">
        <ele>27.4</ele>
        <time>2020-06-23T16:40:27Z</time>
      </trkpt>
      <trkpt lat="50.68244" lon="3.00429">
        <ele>27.4</ele>
        <time>2020-06-23T16:40:28Z</time>
      </trkpt>
      <trkpt lat="50.68239" lon="3.00437">
        <ele>27.5</ele>
        <time>2020-06-23T16:40:29Z</time>
      </trkpt>
      <trkpt lat="50.68235" lon="3.00445">
        <ele>27.5</ele>
        <time>2020-06-23T16:40:30Z</time>
      </trkpt>
      <trkpt lat="50.6823" lon="3.00453">
        <ele>27.6</ele>
        <time>2020-06-23T16:40:31Z</time>
      </trkpt>
      <trkpt lat="50.68226" lon="3.00462">
        <ele>27.6</ele>
        <time>2020-06-23T16:40:32Z</time>
      </trkpt>
      <trkpt lat="50.68221" lon="3.0047">
        <ele>27.7</ele>
        <time>2020-06-23T16:40:33Z</time>
      </trkpt>
      <trkpt lat="50.68217" lon="3.00478">
        <ele>27.7</ele>
        <time>2020-06-23T16:40:34Z</time>
      </trkpt>
      <trkpt lat="50.68212" lon="3.00486">
        <ele>27.7</ele>
        <time>2020-06-23T16:40:35Z</time>
      </trkpt>
      <trkpt lat="50.68207" lon="3.00494">
        <ele>27.6</ele>
        <time>2020-06-23T16:40:36Z</time>
      </trkpt>
      <trkpt lat="50.68203" lon="3.00502">
        <ele>27.6</ele>
        <time>2020-06-23T16:40:37Z</time>
      </trkpt>
      <trkpt lat="50.68198" lon="3.0051">
        <ele>27.6</ele>
        <time>2020-06-23T16:40:38Z</time>
      </trkpt>
      <trkpt lat="50.68194" lon="3.00518">
        <ele>27.5</ele>
        <time>2020-06-23T16:40:39Z</time>
      </trkpt>
      <trkpt lat="50.68189" lon="3.00526">
        <ele>27.5</ele>
        <time>2020-06-23T16:40:40Z</time>
      </trkpt>
      <trkpt lat="50.68185" lon="3.00534">
        <ele>27.5</ele>
        <time>2020-06-23T16:40:41Z</time>
      </trkpt>
      <trkpt lat="50.6818" lon="3.00541">
        <ele>27.4</ele>
        <time>2020-06-23T16:40:42Z</time>
      </trkpt>
      <trkpt lat="50.68175" lon="3.00549">
        <ele>27.4</ele>
        <time>2020-06-23T16:40:43Z</time>
      </trkpt>
      <trkpt lat="50.6817" lon="3.00557">
        <ele>27.4</ele>
        <time>2020-06-23T16:40:44Z</time>
      </trkpt>
      <trkpt lat="50.68165" lon="3.00565">
        <ele>27.4</ele>
        <time>2020-06-23T16:40:45Z</time>
      </trkpt>
      <trkpt lat="50.6816" lon="3.00573">
        <ele>27.4</ele>
        <time>2020-06-23T16:40:46Z</time>
      </trkpt>
      <trkpt lat="50.68155" lon="3.00581">
        <ele>27.4</ele>
        <time>2020-06-23T16:40:47Z</time>
      </trkpt>
      <trkpt lat="50.68151" lon="3.00589">
        <ele>27.4</ele>
        <time>2020-06-23T16:40:48Z</time>
      </trkpt>
      <trkpt lat="50.68146" lon="3.00597">
        <ele>27.4</ele>
        <time>2020-06-23T16:40:49Z</time>
      </trkpt>
      <trkpt lat="50.68142" lon="3.00606">
        <ele>27.4</ele>
        <time>2020-06-23T16:40:50Z</time>
      </trkpt>
      <trkpt lat="50.68137" lon="3.00614">
        <ele>27.4</ele>
        <time>2020-06-23T16:40:51Z</time>
      </trkpt>
      <trkpt lat="50.68133" lon="3.00622">
        <ele>27.4</ele>
        <time>2020-06-23T16:40:52Z</time>
      </trkpt>
      <trkpt lat="50.68128" lon="3.00629">
        <ele>27.4</ele>
        <time>2020-06-23T16:40:53Z</time>
      </trkpt>
      <trkpt lat="50.68123" lon="3.00637">
        <ele>27.4</ele>
        <time>2020-06-23T16:40:54Z</time>
      </trkpt>
      <trkpt lat="50.68118" lon="3.00645">
        <ele>27.4</ele>
        <time>2020-06-23T16:40:55Z</time>
      </trkpt>
      <trkpt lat="50.68114" lon="3.00654">
        <ele>27.4</ele>
        <time>2020-06-23T16:40:56Z</time>
      </trkpt>
      <trkpt lat="50.6811" lon="3.00662">
        <ele>27.4</ele>
        <time>2020-06-23T16:40:57Z</time>
      </trkpt>
      <trkpt lat="50.68105" lon="3.00671">
        <ele>27.4</ele>
        <time>2020-06-23T16:40:58Z</time>
      </trkpt>
      <trkpt lat="50.68101" lon="3.00679">
        <ele>27.4</ele>
        <time>2020-06-23T16:40:59Z</time>
      </trkpt>
      <trkpt lat="50.68097" lon="3.00687">
        <ele>27.4</ele>
        <time>2020-06-23T16:41:00Z</time>
      </trkpt>
      <trkpt lat="50.68092" lon="3.00696">
        <ele>27.4</ele>
        <time>2020-06-23T16:41:01Z</time>
      </trkpt>
      <trkpt lat="50.68087" lon="3.00704">
        <ele>27.5</ele>
        <time>2020-06-23T16:41:02Z</time>
      </trkpt>
      <trkpt lat="50.68082" lon="3.00711">
        <ele>27.4</ele>
        <time>2020-06-23T16:41:03Z</time>
      </trkpt>
      <trkpt lat="50.68078" lon="3.00719">
        <ele>27.4</ele>
        <time>2020-06-23T16:41:04Z</time>
      </trkpt>
      <trkpt lat="50.68073" lon="3.00727">
        <ele>27.4</ele>
        <time>2020-06-23T16:41:05Z</time>
      </trkpt>
      <trkpt lat="50.68068" lon="3.00735">
        <ele>27.4</ele>
        <time>2020-06-23T16:41:06Z</time>
      </trkpt>
      <trkpt lat="50.68064" lon="3.00743">
        <ele>27.4</ele>
        <time>2020-06-23T16:41:07Z</time>
      </trkpt>
      <trkpt lat="50.68059" lon="3.00752">
        <ele>27.4</ele>
        <time>2020-06-23T16:41:08Z</time>
      </trkpt>
      <trkpt lat="50.68055" lon="3.0076">
        <ele>27.3</ele>
        <time>2020-06-23T16:41:09Z</time>
      </trkpt>
      <trkpt lat="50.6805" lon="3.00769">
        <ele>27.3</ele>
        <time>2020-06-23T16:41:10Z</time>
      </trkpt>
      <trkpt lat="50.68046" lon="3.00777">
        <ele>27.3</ele>
        <time>2020-06-23T16:41:11Z</time>
      </trkpt>
      <trkpt lat="50.68041" lon="3.00786">
        <ele>27.3</ele>
        <time>2020-06-23T16:41:12Z</time>
      </trkpt>
      <trkpt lat="50.68036" lon="3.00794">
        <ele>27.3</ele>
        <time>2020-06-23T16:41:13Z</time>
      </trkpt>
      <trkpt lat="50.68031" lon="3.00803">
        <ele>27.3</ele>
        <time>2020-06-23T16:41:14Z</time>
      </trkpt>
      <trkpt lat="50.68027" lon="3.00811">
        <ele>27.2</ele>
        <time>2020-06-23T16:41:15Z</time>
      </trkpt>
      <trkpt lat="50.68022" lon="3.0082">
        <ele>27.2</ele>
        <time>2020-06-23T16:41:16Z</time>
      </trkpt>
      <trkpt lat="50.68017" lon="3.00829">
        <ele>27.1</ele>
        <time>2020-06-23T16:41:17Z</time>
      </trkpt>
      <trkpt lat="50.68013" lon="3.00838">
        <ele>27</ele>
        <time>2020-06-23T16:41:18Z</time>
      </trkpt>
      <trkpt lat="50.68008" lon="3.00847">
        <ele>26.9</ele>
        <time>2020-06-23T16:41:19Z</time>
      </trkpt>
      <trkpt lat="50.68003" lon="3.00855">
        <ele>26.9</ele>
        <time>2020-06-23T16:41:20Z</time>
      </trkpt>
      <trkpt lat="50.67998" lon="3.00864">
        <ele>26.8</ele>
        <time>2020-06-23T16:41:21Z</time>
      </trkpt>
      <trkpt lat="50.67993" lon="3.00872">
        <ele>26.8</ele>
        <time>2020-06-23T16:41:22Z</time>
      </trkpt>
      <trkpt lat="50.67988" lon="3.00881">
        <ele>26.7</ele>
        <time>2020-06-23T16:41:23Z</time>
      </trkpt>
      <trkpt lat="50.67984" lon="3.00889">
        <ele>26.7</ele>
        <time>2020-06-23T16:41:24Z</time>
      </trkpt>
      <trkpt lat="50.67979" lon="3.00897">
        <ele>26.7</ele>
        <time>2020-06-23T16:41:25Z</time>
      </trkpt>
      <trkpt lat="50.67974" lon="3.00905">
        <ele>26.6</ele>
        <time>2020-06-23T16:41:26Z</time>
      </trkpt>
      <trkpt lat="50.67969" lon="3.00913">
        <ele>26.6</ele>
        <time>2020-06-23T16:41:27Z</time>
      </trkpt>
      <trkpt lat="50.67964" lon="3.00921">
        <ele>26.5</ele>
        <time>2020-06-23T16:41:28Z</time>
      </trkpt>
      <trkpt lat="50.6796" lon="3.0093">
        <ele>26.5</ele>
        <time>2020-06-23T16:41:29Z</time>
      </trkpt>
      <trkpt lat="50.67955" lon="3.00938">
        <ele>26.4</ele>
        <time>2020-06-23T16:41:30Z</time>
      </trkpt>
      <trkpt lat="50.67951" lon="3.00947">
        <ele>26.3</ele>
        <time>2020-06-23T16:41:31Z</time>
      </trkpt>
      <trkpt lat="50.67946" lon="3.00955">
        <ele>26.3</ele>
        <time>2020-06-23T16:41:32Z</time>
      </trkpt>
      <trkpt lat="50.67941" lon="3.00962">
        <ele>26.2</ele>
        <time>2020-06-23T16:41:33Z</time>
      </trkpt>
      <trkpt lat="50.67936" lon="3.0097">
        <ele>26.1</ele>
        <time>2020-06-23T16:41:34Z</time>
      </trkpt>
      <trkpt lat="50.67931" lon="3.00978">
        <ele>26</ele>
        <time>2020-06-23T16:41:35Z</time>
      </trkpt>
      <trkpt lat="50.67926" lon="3.00985">
        <ele>25.9</ele>
        <time>2020-06-23T16:41:36Z</time>
      </trkpt>
      <trkpt lat="50.67921" lon="3.00993">
        <ele>25.8</ele>
        <time>2020-06-23T16:41:37Z</time>
      </trkpt>
      <trkpt lat="50.67917" lon="3.01002">
        <ele>25.8</ele>
        <time>2020-06-23T16:41:38Z</time>
      </trkpt>
      <trkpt lat="50.67912" lon="3.0101">
        <ele>25.8</ele>
        <time>2020-06-23T16:41:39Z</time>
      </trkpt>
      <trkpt lat="50.67907" lon="3.01018">
        <ele>25.8</ele>
        <time>2020-06-23T16:41:40Z</time>
      </trkpt>
      <trkpt lat="50.67903" lon="3.01026">
        <ele>25.8</ele>
        <time>2020-06-23T16:41:41Z</time>
      </trkpt>
      <trkpt lat="50.67898" lon="3.01034">
        <ele>25.7</ele>
        <time>2020-06-23T16:41:42Z</time>
      </trkpt>
      <trkpt lat="50.67894" lon="3.01043">
        <ele>25.7</ele>
        <time>2020-06-23T16:41:43Z</time>
      </trkpt>
      <trkpt lat="50.67889" lon="3.0105">
        <ele>25.7</ele>
        <time>2020-06-23T16:41:44Z</time>
      </trkpt>
      <trkpt lat="50.67885" lon="3.01058">
        <ele>25.6</ele>
        <time>2020-06-23T16:41:45Z</time>
      </trkpt>
      <trkpt lat="50.6788" lon="3.01067">
        <ele>25.6</ele>
        <time>2020-06-23T16:41:46Z</time>
      </trkpt>
      <trkpt lat="50.67876" lon="3.01076">
        <ele>25.5</ele>
        <time>2020-06-23T16:41:47Z</time>
      </trkpt>
      <trkpt lat="50.67871" lon="3.01084">
        <ele>25.5</ele>
        <time>2020-06-23T16:41:48Z</time>
      </trkpt>
      <trkpt lat="50.67867" lon="3.01092">
        <ele>25.5</ele>
        <time>2020-06-23T16:41:49Z</time>
      </trkpt>
      <trkpt lat="50.67861" lon="3.011">
        <ele>25.4</ele>
        <time>2020-06-23T16:41:50Z</time>
      </trkpt>
      <trkpt lat="50.67857" lon="3.01108">
        <ele>25.4</ele>
        <time>2020-06-23T16:41:51Z</time>
      </trkpt>
      <trkpt lat="50.67852" lon="3.01117">
        <ele>25.4</ele>
        <time>2020-06-23T16:41:52Z</time>
      </trkpt>
      <trkpt lat="50.67847" lon="3.01125">
        <ele>25.4</ele>
        <time>2020-06-23T16:41:53Z</time>
      </trkpt>
      <trkpt lat="50.67842" lon="3.01133">
        <ele>25.4</ele>
        <time>2020-06-23T16:41:54Z</time>
      </trkpt>
      <trkpt lat="50.67838" lon="3.01141">
        <ele>25.3</ele>
        <time>2020-06-23T16:41:55Z</time>
      </trkpt>
      <trkpt lat="50.67833" lon="3.0115">
        <ele>25.3</ele>
        <time>2020-06-23T16:41:56Z</time>
      </trkpt>
      <trkpt lat="50.67829" lon="3.01158">
        <ele>25.3</ele>
        <time>2020-06-23T16:41:57Z</time>
      </trkpt>
      <trkpt lat="50.67825" lon="3.01167">
        <ele>25.3</ele>
        <time>2020-06-23T16:41:58Z</time>
      </trkpt>
      <trkpt lat="50.67821" lon="3.01175">
        <ele>25.4</ele>
        <time>2020-06-23T16:41:59Z</time>
      </trkpt>
      <trkpt lat="50.67816" lon="3.01183">
        <ele>25.4</ele>
        <time>2020-06-23T16:42:00Z</time>
      </trkpt>
      <trkpt lat="50.67812" lon="3.01191">
        <ele>25.4</ele>
        <time>2020-06-23T16:42:01Z</time>
      </trkpt>
      <trkpt lat="50.67807" lon="3.01199">
        <ele>25.4</ele>
        <time>2020-06-23T16:42:02Z</time>
      </trkpt>
      <trkpt lat="50.67803" lon="3.01207">
        <ele>25.3</ele>
        <time>2020-06-23T16:42:03Z</time>
      </trkpt>
      <trkpt lat="50.67798" lon="3.01215">
        <ele>25.2</ele>
        <time>2020-06-23T16:42:04Z</time>
      </trkpt>
      <trkpt lat="50.67793" lon="3.01222">
        <ele>25.2</ele>
        <time>2020-06-23T16:42:05Z</time>
      </trkpt>
      <trkpt lat="50.67789" lon="3.0123">
        <ele>25.1</ele>
        <time>2020-06-23T16:42:06Z</time>
      </trkpt>
      <trkpt lat="50.67784" lon="3.01238">
        <ele>25.1</ele>
        <time>2020-06-23T16:42:07Z</time>
      </trkpt>
      <trkpt lat="50.6778" lon="3.01246">
        <ele>25</ele>
        <time>2020-06-23T16:42:08Z</time>
      </trkpt>
      <trkpt lat="50.67776" lon="3.01254">
        <ele>25</ele>
        <time>2020-06-23T16:42:09Z</time>
      </trkpt>
      <trkpt lat="50.67771" lon="3.01262">
        <ele>25</ele>
        <time>2020-06-23T16:42:10Z</time>
      </trkpt>
      <trkpt lat="50.67767" lon="3.01271">
        <ele>25.1</ele>
        <time>2020-06-23T16:42:11Z</time>
      </trkpt>
      <trkpt lat="50.67762" lon="3.01279">
        <ele>25.1</ele>
        <time>2020-06-23T16:42:12Z</time>
      </trkpt>
      <trkpt lat="50.67758" lon="3.01286">
        <ele>25.1</ele>
        <time>2020-06-23T16:42:13Z</time>
      </trkpt>
      <trkpt lat="50.67753" lon="3.01294">
        <ele>25.1</ele>
        <time>2020-06-23T16:42:14Z</time>
      </trkpt>
      <trkpt lat="50.67749" lon="3.01302">
        <ele>25.2</ele>
        <time>2020-06-23T16:42:15Z</time>
      </trkpt>
      <trkpt lat="50.67744" lon="3.01308">
        <ele>25.2</ele>
        <time>2020-06-23T16:42:16Z</time>
      </trkpt>
      <trkpt lat="50.67739" lon="3.01315">
        <ele>25.1</ele>
        <time>2020-06-23T16:42:17Z</time>
      </trkpt>
      <trkpt lat="50.67734" lon="3.01322">
        <ele>25.1</ele>
        <time>2020-06-23T16:42:18Z</time>
      </trkpt>
      <trkpt lat="50.6773" lon="3.0133">
        <ele>25.1</ele>
        <time>2020-06-23T16:42:19Z</time>
      </trkpt>
      <trkpt lat="50.67725" lon="3.01338">
        <ele>25.1</ele>
        <time>2020-06-23T16:42:20Z</time>
      </trkpt>
      <trkpt lat="50.6772" lon="3.01344">
        <ele>25.1</ele>
        <time>2020-06-23T16:42:21Z</time>
      </trkpt>
      <trkpt lat="50.67714" lon="3.01351">
        <ele>25</ele>
        <time>2020-06-23T16:42:22Z</time>
      </trkpt>
      <trkpt lat="50.67709" lon="3.01357">
        <ele>25</ele>
        <time>2020-06-23T16:42:23Z</time>
      </trkpt>
      <trkpt lat="50.67703" lon="3.01364">
        <ele>24.9</ele>
        <time>2020-06-23T16:42:24Z</time>
      </trkpt>
      <trkpt lat="50.67698" lon="3.01371">
        <ele>24.9</ele>
        <time>2020-06-23T16:42:25Z</time>
      </trkpt>
      <trkpt lat="50.67693" lon="3.01379">
        <ele>24.9</ele>
        <time>2020-06-23T16:42:26Z</time>
      </trkpt>
      <trkpt lat="50.67688" lon="3.01387">
        <ele>24.9</ele>
        <time>2020-06-23T16:42:27Z</time>
      </trkpt>
      <trkpt lat="50.67683" lon="3.01394">
        <ele>24.9</ele>
        <time>2020-06-23T16:42:28Z</time>
      </trkpt>
      <trkpt lat="50.67678" lon="3.01401">
        <ele>25</ele>
        <time>2020-06-23T16:42:29Z</time>
      </trkpt>
      <trkpt lat="50.67674" lon="3.01406">
        <ele>24.9</ele>
        <time>2020-06-23T16:42:30Z</time>
      </trkpt>
      <trkpt lat="50.67669" lon="3.01411">
        <ele>24.9</ele>
        <time>2020-06-23T16:42:31Z</time>
      </trkpt>
      <trkpt lat="50.67665" lon="3.01416">
        <ele>24.8</ele>
        <time>2020-06-23T16:42:32Z</time>
      </trkpt>
      <trkpt lat="50.67661" lon="3.01422">
        <ele>24.7</ele>
        <time>2020-06-23T16:42:33Z</time>
      </trkpt>
      <trkpt lat="50.67657" lon="3.0143">
        <ele>24.7</ele>
        <time>2020-06-23T16:42:34Z</time>
      </trkpt>
      <trkpt lat="50.67652" lon="3.01437">
        <ele>24.6</ele>
        <time>2020-06-23T16:42:35Z</time>
      </trkpt>
      <trkpt lat="50.67648" lon="3.01445">
        <ele>24.6</ele>
        <time>2020-06-23T16:42:36Z</time>
      </trkpt>
      <trkpt lat="50.67643" lon="3.01452">
        <ele>24.4</ele>
        <time>2020-06-23T16:42:37Z</time>
      </trkpt>
      <trkpt lat="50.67638" lon="3.0146">
        <ele>24.3</ele>
        <time>2020-06-23T16:42:38Z</time>
      </trkpt>
      <trkpt lat="50.67633" lon="3.01468">
        <ele>24.1</ele>
        <time>2020-06-23T16:42:39Z</time>
      </trkpt>
      <trkpt lat="50.67627" lon="3.01476">
        <ele>24</ele>
        <time>2020-06-23T16:42:40Z</time>
      </trkpt>
      <trkpt lat="50.67622" lon="3.01484">
        <ele>23.8</ele>
        <time>2020-06-23T16:42:41Z</time>
      </trkpt>
      <trkpt lat="50.67616" lon="3.01492">
        <ele>23.8</ele>
        <time>2020-06-23T16:42:42Z</time>
      </trkpt>
      <trkpt lat="50.6761" lon="3.015">
        <ele>23.7</ele>
        <time>2020-06-23T16:42:43Z</time>
      </trkpt>
      <trkpt lat="50.67604" lon="3.01507">
        <ele>23.7</ele>
        <time>2020-06-23T16:42:44Z</time>
      </trkpt>
      <trkpt lat="50.67598" lon="3.01515">
        <ele>23.6</ele>
        <time>2020-06-23T16:42:45Z</time>
      </trkpt>
      <trkpt lat="50.67591" lon="3.01522">
        <ele>23.5</ele>
        <time>2020-06-23T16:42:46Z</time>
      </trkpt>
      <trkpt lat="50.67585" lon="3.0153">
        <ele>23.4</ele>
        <time>2020-06-23T16:42:47Z</time>
      </trkpt>
      <trkpt lat="50.67579" lon="3.01537">
        <ele>23.3</ele>
        <time>2020-06-23T16:42:48Z</time>
      </trkpt>
      <trkpt lat="50.67573" lon="3.01545">
        <ele>23.2</ele>
        <time>2020-06-23T16:42:49Z</time>
      </trkpt>
      <trkpt lat="50.67567" lon="3.01552">
        <ele>23.1</ele>
        <time>2020-06-23T16:42:50Z</time>
      </trkpt>
      <trkpt lat="50.67561" lon="3.0156">
        <ele>23</ele>
        <time>2020-06-23T16:42:51Z</time>
      </trkpt>
      <trkpt lat="50.67555" lon="3.01568">
        <ele>23</ele>
        <time>2020-06-23T16:42:52Z</time>
      </trkpt>
      <trkpt lat="50.6755" lon="3.01578">
        <ele>22.9</ele>
        <time>2020-06-23T16:42:53Z</time>
      </trkpt>
      <trkpt lat="50.67545" lon="3.01586">
        <ele>22.9</ele>
        <time>2020-06-23T16:42:54Z</time>
      </trkpt>
      <trkpt lat="50.67539" lon="3.01594">
        <ele>22.8</ele>
        <time>2020-06-23T16:42:55Z</time>
      </trkpt>
      <trkpt lat="50.67533" lon="3.01602">
        <ele>22.7</ele>
        <time>2020-06-23T16:42:56Z</time>
      </trkpt>
      <trkpt lat="50.67528" lon="3.01609">
        <ele>22.6</ele>
        <time>2020-06-23T16:42:57Z</time>
      </trkpt>
      <trkpt lat="50.67522" lon="3.01617">
        <ele>22.6</ele>
        <time>2020-06-23T16:42:58Z</time>
      </trkpt>
      <trkpt lat="50.67517" lon="3.01624">
        <ele>22.5</ele>
        <time>2020-06-23T16:42:59Z</time>
      </trkpt>
      <trkpt lat="50.67511" lon="3.01631">
        <ele>22.5</ele>
        <time>2020-06-23T16:43:00Z</time>
      </trkpt>
      <trkpt lat="50.67506" lon="3.01639">
        <ele>22.5</ele>
        <time>2020-06-23T16:43:01Z</time>
      </trkpt>
      <trkpt lat="50.675" lon="3.01645">
        <ele>22.4</ele>
        <time>2020-06-23T16:43:02Z</time>
      </trkpt>
      <trkpt lat="50.67495" lon="3.01652">
        <ele>22.3</ele>
        <time>2020-06-23T16:43:03Z</time>
      </trkpt>
      <trkpt lat="50.6749" lon="3.0166">
        <ele>22.2</ele>
        <time>2020-06-23T16:43:04Z</time>
      </trkpt>
      <trkpt lat="50.67484" lon="3.01667">
        <ele>22.1</ele>
        <time>2020-06-23T16:43:05Z</time>
      </trkpt>
      <trkpt lat="50.67479" lon="3.01674">
        <ele>22.1</ele>
        <time>2020-06-23T16:43:06Z</time>
      </trkpt>
      <trkpt lat="50.67474" lon="3.01681">
        <ele>22</ele>
        <time>2020-06-23T16:43:07Z</time>
      </trkpt>
      <trkpt lat="50.67469" lon="3.01688">
        <ele>22</ele>
        <time>2020-06-23T16:43:08Z</time>
      </trkpt>
      <trkpt lat="50.67464" lon="3.01696">
        <ele>21.9</ele>
        <time>2020-06-23T16:43:09Z</time>
      </trkpt>
      <trkpt lat="50.67459" lon="3.01703">
        <ele>21.9</ele>
        <time>2020-06-23T16:43:10Z</time>
      </trkpt>
      <trkpt lat="50.67453" lon="3.0171">
        <ele>21.8</ele>
        <time>2020-06-23T16:43:11Z</time>
      </trkpt>
      <trkpt lat="50.67448" lon="3.01718">
        <ele>21.7</ele>
        <time>2020-06-23T16:43:12Z</time>
      </trkpt>
      <trkpt lat="50.67442" lon="3.01725">
        <ele>21.6</ele>
        <time>2020-06-23T16:43:13Z</time>
      </trkpt>
      <trkpt lat="50.67437" lon="3.01733">
        <ele>21.5</ele>
        <time>2020-06-23T16:43:14Z</time>
      </trkpt>
      <trkpt lat="50.67432" lon="3.01741">
        <ele>21.5</ele>
        <time>2020-06-23T16:43:15Z</time>
      </trkpt>
      <trkpt lat="50.67426" lon="3.01747">
        <ele>21.4</ele>
        <time>2020-06-23T16:43:16Z</time>
      </trkpt>
      <trkpt lat="50.67421" lon="3.01755">
        <ele>21.3</ele>
        <time>2020-06-23T16:43:17Z</time>
      </trkpt>
      <trkpt lat="50.67415" lon="3.01762">
        <ele>21.3</ele>
        <time>2020-06-23T16:43:18Z</time>
      </trkpt>
      <trkpt lat="50.6741" lon="3.0177">
        <ele>21.3</ele>
        <time>2020-06-23T16:43:19Z</time>
      </trkpt>
      <trkpt lat="50.67405" lon="3.01778">
        <ele>21.2</ele>
        <time>2020-06-23T16:43:20Z</time>
      </trkpt>
      <trkpt lat="50.674" lon="3.01785">
        <ele>21.2</ele>
        <time>2020-06-23T16:43:21Z</time>
      </trkpt>
      <trkpt lat="50.67395" lon="3.01792">
        <ele>21.2</ele>
        <time>2020-06-23T16:43:22Z</time>
      </trkpt>
      <trkpt lat="50.67389" lon="3.018">
        <ele>21.1</ele>
        <time>2020-06-23T16:43:23Z</time>
      </trkpt>
      <trkpt lat="50.67384" lon="3.01807">
        <ele>21.1</ele>
        <time>2020-06-23T16:43:24Z</time>
      </trkpt>
      <trkpt lat="50.67379" lon="3.01815">
        <ele>21.1</ele>
        <time>2020-06-23T16:43:25Z</time>
      </trkpt>
      <trkpt lat="50.67374" lon="3.01822">
        <ele>21.1</ele>
        <time>2020-06-23T16:43:26Z</time>
      </trkpt>
      <trkpt lat="50.67369" lon="3.01829">
        <ele>21.2</ele>
        <time>2020-06-23T16:43:27Z</time>
      </trkpt>
      <trkpt lat="50.67363" lon="3.01836">
        <ele>21.2</ele>
        <time>2020-06-23T16:43:28Z</time>
      </trkpt>
      <trkpt lat="50.67358" lon="3.01843">
        <ele>21.2</ele>
        <time>2020-06-23T16:43:29Z</time>
      </trkpt>
      <trkpt lat="50.67353" lon="3.0185">
        <ele>21.2</ele>
        <time>2020-06-23T16:43:30Z</time>
      </trkpt>
      <trkpt lat="50.67347" lon="3.01856">
        <ele>21.2</ele>
        <time>2020-06-23T16:43:31Z</time>
      </trkpt>
      <trkpt lat="50.67342" lon="3.01864">
        <ele>21.1</ele>
        <time>2020-06-23T16:43:32Z</time>
      </trkpt>
      <trkpt lat="50.67337" lon="3.01871">
        <ele>21.1</ele>
        <time>2020-06-23T16:43:33Z</time>
      </trkpt>
      <trkpt lat="50.67332" lon="3.01877">
        <ele>21.1</ele>
        <time>2020-06-23T16:43:34Z</time>
      </trkpt>
      <trkpt lat="50.67327" lon="3.01885">
        <ele>21.1</ele>
        <time>2020-06-23T16:43:35Z</time>
      </trkpt>
      <trkpt lat="50.67323" lon="3.01892">
        <ele>21.1</ele>
        <time>2020-06-23T16:43:36Z</time>
      </trkpt>
      <trkpt lat="50.67318" lon="3.01899">
        <ele>21.1</ele>
        <time>2020-06-23T16:43:37Z</time>
      </trkpt>
      <trkpt lat="50.67313" lon="3.01906">
        <ele>21.2</ele>
        <time>2020-06-23T16:43:38Z</time>
      </trkpt>
      <trkpt lat="50.67309" lon="3.01914">
        <ele>21.2</ele>
        <time>2020-06-23T16:43:39Z</time>
      </trkpt>
      <trkpt lat="50.67304" lon="3.0192">
        <ele>21.2</ele>
        <time>2020-06-23T16:43:40Z</time>
      </trkpt>
      <trkpt lat="50.67298" lon="3.01926">
        <ele>21.3</ele>
        <time>2020-06-23T16:43:41Z</time>
      </trkpt>
      <trkpt lat="50.67293" lon="3.01932">
        <ele>21.3</ele>
        <time>2020-06-23T16:43:42Z</time>
      </trkpt>
      <trkpt lat="50.67288" lon="3.01938">
        <ele>21.4</ele>
        <time>2020-06-23T16:43:43Z</time>
      </trkpt>
      <trkpt lat="50.67283" lon="3.01944">
        <ele>21.4</ele>
        <time>2020-06-23T16:43:44Z</time>
      </trkpt>
      <trkpt lat="50.67278" lon="3.0195">
        <ele>21.4</ele>
        <time>2020-06-23T16:43:45Z</time>
      </trkpt>
      <trkpt lat="50.67272" lon="3.01956">
        <ele>21.4</ele>
        <time>2020-06-23T16:43:46Z</time>
      </trkpt>
      <trkpt lat="50.67267" lon="3.01962">
        <ele>21.4</ele>
        <time>2020-06-23T16:43:47Z</time>
      </trkpt>
      <trkpt lat="50.67262" lon="3.01967">
        <ele>21.4</ele>
        <time>2020-06-23T16:43:48Z</time>
      </trkpt>
      <trkpt lat="50.67257" lon="3.01973">
        <ele>21.4</ele>
        <time>2020-06-23T16:43:49Z</time>
      </trkpt>
      <trkpt lat="50.67252" lon="3.01978">
        <ele>21.4</ele>
        <time>2020-06-23T16:43:50Z</time>
      </trkpt>
      <trkpt lat="50.67246" lon="3.01983">
        <ele>21.5</ele>
        <time>2020-06-23T16:43:51Z</time>
      </trkpt>
      <trkpt lat="50.67241" lon="3.01989">
        <ele>21.5</ele>
        <time>2020-06-23T16:43:52Z</time>
      </trkpt>
      <trkpt lat="50.67236" lon="3.01995">
        <ele>21.4</ele>
        <time>2020-06-23T16:43:53Z</time>
      </trkpt>
      <trkpt lat="50.67231" lon="3.02001">
        <ele>21.3</ele>
        <time>2020-06-23T16:43:54Z</time>
      </trkpt>
      <trkpt lat="50.67227" lon="3.02007">
        <ele>21.2</ele>
        <time>2020-06-23T16:43:55Z</time>
      </trkpt>
      <trkpt lat="50.67223" lon="3.02015">
        <ele>21.2</ele>
        <time>2020-06-23T16:43:56Z</time>
      </trkpt>
      <trkpt lat="50.67219" lon="3.02022">
        <ele>21.1</ele>
        <time>2020-06-23T16:43:57Z</time>
      </trkpt>
      <trkpt lat="50.67216" lon="3.02031">
        <ele>21.1</ele>
        <time>2020-06-23T16:43:58Z</time>
      </trkpt>
      <trkpt lat="50.67211" lon="3.02039">
        <ele>21.1</ele>
        <time>2020-06-23T16:43:59Z</time>
      </trkpt>
      <trkpt lat="50.67207" lon="3.02046">
        <ele>21.1</ele>
        <time>2020-06-23T16:44:00Z</time>
      </trkpt>
      <trkpt lat="50.67203" lon="3.02054">
        <ele>21.1</ele>
        <time>2020-06-23T16:44:01Z</time>
      </trkpt>
      <trkpt lat="50.67198" lon="3.02062">
        <ele>21.1</ele>
        <time>2020-06-23T16:44:02Z</time>
      </trkpt>
      <trkpt lat="50.67193" lon="3.02069">
        <ele>21.1</ele>
        <time>2020-06-23T16:44:03Z</time>
      </trkpt>
      <trkpt lat="50.67188" lon="3.02075">
        <ele>21.1</ele>
        <time>2020-06-23T16:44:04Z</time>
      </trkpt>
      <trkpt lat="50.67183" lon="3.02082">
        <ele>21</ele>
        <time>2020-06-23T16:44:05Z</time>
      </trkpt>
      <trkpt lat="50.67179" lon="3.0209">
        <ele>21</ele>
        <time>2020-06-23T16:44:06Z</time>
      </trkpt>
      <trkpt lat="50.67175" lon="3.02097">
        <ele>20.9</ele>
        <time>2020-06-23T16:44:07Z</time>
      </trkpt>
      <trkpt lat="50.67171" lon="3.02104">
        <ele>20.9</ele>
        <time>2020-06-23T16:44:08Z</time>
      </trkpt>
      <trkpt lat="50.67166" lon="3.02111">
        <ele>20.8</ele>
        <time>2020-06-23T16:44:09Z</time>
      </trkpt>
      <trkpt lat="50.67162" lon="3.02118">
        <ele>20.8</ele>
        <time>2020-06-23T16:44:10Z</time>
      </trkpt>
      <trkpt lat="50.67157" lon="3.02126">
        <ele>20.8</ele>
        <time>2020-06-23T16:44:11Z</time>
      </trkpt>
      <trkpt lat="50.67152" lon="3.02134">
        <ele>20.8</ele>
        <time>2020-06-23T16:44:12Z</time>
      </trkpt>
      <trkpt lat="50.67147" lon="3.02142">
        <ele>20.8</ele>
        <time>2020-06-23T16:44:13Z</time>
      </trkpt>
      <trkpt lat="50.67142" lon="3.02149">
        <ele>20.8</ele>
        <time>2020-06-23T16:44:14Z</time>
      </trkpt>
      <trkpt lat="50.67138" lon="3.02156">
        <ele>20.8</ele>
        <time>2020-06-23T16:44:15Z</time>
      </trkpt>
      <trkpt lat="50.67133" lon="3.02163">
        <ele>20.8</ele>
        <time>2020-06-23T16:44:16Z</time>
      </trkpt>
      <trkpt lat="50.67128" lon="3.0217">
        <ele>20.8</ele>
        <time>2020-06-23T16:44:17Z</time>
      </trkpt>
      <trkpt lat="50.67123" lon="3.02178">
        <ele>20.8</ele>
        <time>2020-06-23T16:44:18Z</time>
      </trkpt>
      <trkpt lat="50.67118" lon="3.02186">
        <ele>20.8</ele>
        <time>2020-06-23T16:44:19Z</time>
      </trkpt>
      <trkpt lat="50.67113" lon="3.02194">
        <ele>20.8</ele>
        <time>2020-06-23T16:44:20Z</time>
      </trkpt>
      <trkpt lat="50.67108" lon="3.02201">
        <ele>20.9</ele>
        <time>2020-06-23T16:44:21Z</time>
      </trkpt>
      <trkpt lat="50.67103" lon="3.02208">
        <ele>20.9</ele>
        <time>2020-06-23T16:44:22Z</time>
      </trkpt>
      <trkpt lat="50.67098" lon="3.02217">
        <ele>20.9</ele>
        <time>2020-06-23T16:44:23Z</time>
      </trkpt>
      <trkpt lat="50.67092" lon="3.02225">
        <ele>20.9</ele>
        <time>2020-06-23T16:44:24Z</time>
      </trkpt>
      <trkpt lat="50.67087" lon="3.02232">
        <ele>20.9</ele>
        <time>2020-06-23T16:44:25Z</time>
      </trkpt>
      <trkpt lat="50.67082" lon="3.02241">
        <ele>20.9</ele>
        <time>2020-06-23T16:44:26Z</time>
      </trkpt>
      <trkpt lat="50.67077" lon="3.02249">
        <ele>21</ele>
        <time>2020-06-23T16:44:27Z</time>
      </trkpt>
      <trkpt lat="50.67072" lon="3.02257">
        <ele>21</ele>
        <time>2020-06-23T16:44:28Z</time>
      </trkpt>
      <trkpt lat="50.67068" lon="3.02265">
        <ele>21.1</ele>
        <time>2020-06-23T16:44:29Z</time>
      </trkpt>
      <trkpt lat="50.67063" lon="3.02272">
        <ele>21.1</ele>
        <time>2020-06-23T16:44:30Z</time>
      </trkpt>
      <trkpt lat="50.67058" lon="3.0228">
        <ele>21.2</ele>
        <time>2020-06-23T16:44:31Z</time>
      </trkpt>
      <trkpt lat="50.67053" lon="3.02287">
        <ele>21.2</ele>
        <time>2020-06-23T16:44:32Z</time>
      </trkpt>
      <trkpt lat="50.67049" lon="3.02294">
        <ele>21.3</ele>
        <time>2020-06-23T16:44:33Z</time>
      </trkpt>
      <trkpt lat="50.67044" lon="3.02302">
        <ele>21.3</ele>
        <time>2020-06-23T16:44:34Z</time>
      </trkpt>
      <trkpt lat="50.6704" lon="3.0231">
        <ele>21.3</ele>
        <time>2020-06-23T16:44:35Z</time>
      </trkpt>
      <trkpt lat="50.67035" lon="3.02318">
        <ele>21.4</ele>
        <time>2020-06-23T16:44:36Z</time>
      </trkpt>
      <trkpt lat="50.67031" lon="3.02325">
        <ele>21.4</ele>
        <time>2020-06-23T16:44:37Z</time>
      </trkpt>
      <trkpt lat="50.67026" lon="3.02332">
        <ele>21.3</ele>
        <time>2020-06-23T16:44:38Z</time>
      </trkpt>
      <trkpt lat="50.67021" lon="3.02339">
        <ele>21.3</ele>
        <time>2020-06-23T16:44:39Z</time>
      </trkpt>
      <trkpt lat="50.67017" lon="3.02346">
        <ele>21.3</ele>
        <time>2020-06-23T16:44:40Z</time>
      </trkpt>
      <trkpt lat="50.67012" lon="3.02353">
        <ele>21.4</ele>
        <time>2020-06-23T16:44:41Z</time>
      </trkpt>
      <trkpt lat="50.67008" lon="3.02361">
        <ele>21.4</ele>
        <time>2020-06-23T16:44:42Z</time>
      </trkpt>
      <trkpt lat="50.67004" lon="3.02369">
        <ele>21.5</ele>
        <time>2020-06-23T16:44:43Z</time>
      </trkpt>
      <trkpt lat="50.66998" lon="3.02375">
        <ele>21.6</ele>
        <time>2020-06-23T16:44:44Z</time>
      </trkpt>
      <trkpt lat="50.66994" lon="3.02382">
        <ele>21.6</ele>
        <time>2020-06-23T16:44:45Z</time>
      </trkpt>
      <trkpt lat="50.66989" lon="3.02389">
        <ele>21.7</ele>
        <time>2020-06-23T16:44:46Z</time>
      </trkpt>
      <trkpt lat="50.66985" lon="3.02396">
        <ele>21.7</ele>
        <time>2020-06-23T16:44:47Z</time>
      </trkpt>
      <trkpt lat="50.6698" lon="3.02403">
        <ele>21.7</ele>
        <time>2020-06-23T16:44:48Z</time>
      </trkpt>
      <trkpt lat="50.66975" lon="3.0241">
        <ele>21.7</ele>
        <time>2020-06-23T16:44:49Z</time>
      </trkpt>
      <trkpt lat="50.6697" lon="3.02417">
        <ele>21.8</ele>
        <time>2020-06-23T16:44:50Z</time>
      </trkpt>
      <trkpt lat="50.66966" lon="3.02425">
        <ele>21.8</ele>
        <time>2020-06-23T16:44:51Z</time>
      </trkpt>
      <trkpt lat="50.66962" lon="3.02432">
        <ele>21.8</ele>
        <time>2020-06-23T16:44:52Z</time>
      </trkpt>
      <trkpt lat="50.66957" lon="3.0244">
        <ele>21.9</ele>
        <time>2020-06-23T16:44:53Z</time>
      </trkpt>
      <trkpt lat="50.66952" lon="3.02449">
        <ele>21.9</ele>
        <time>2020-06-23T16:44:54Z</time>
      </trkpt>
      <trkpt lat="50.66947" lon="3.02456">
        <ele>22</ele>
        <time>2020-06-23T16:44:55Z</time>
      </trkpt>
      <trkpt lat="50.66942" lon="3.02463">
        <ele>22</ele>
        <time>2020-06-23T16:44:56Z</time>
      </trkpt>
      <trkpt lat="50.66937" lon="3.02471">
        <ele>22.1</ele>
        <time>2020-06-23T16:44:57Z</time>
      </trkpt>
      <trkpt lat="50.66933" lon="3.0248">
        <ele>22.1</ele>
        <time>2020-06-23T16:44:58Z</time>
      </trkpt>
      <trkpt lat="50.66928" lon="3.02487">
        <ele>22.2</ele>
        <time>2020-06-23T16:44:59Z</time>
      </trkpt>
      <trkpt lat="50.66923" lon="3.02495">
        <ele>22.3</ele>
        <time>2020-06-23T16:45:00Z</time>
      </trkpt>
      <trkpt lat="50.66918" lon="3.02502">
        <ele>22.4</ele>
        <time>2020-06-23T16:45:01Z</time>
      </trkpt>
      <trkpt lat="50.66914" lon="3.02511">
        <ele>22.4</ele>
        <time>2020-06-23T16:45:02Z</time>
      </trkpt>
      <trkpt lat="50.6691" lon="3.02519">
        <ele>22.4</ele>
        <time>2020-06-23T16:45:03Z</time>
      </trkpt>
      <trkpt lat="50.66905" lon="3.02526">
        <ele>22.4</ele>
        <time>2020-06-23T16:45:04Z</time>
      </trkpt>
      <trkpt lat="50.669" lon="3.02533">
        <ele>22.5</ele>
        <time>2020-06-23T16:45:05Z</time>
      </trkpt>
      <trkpt lat="50.66896" lon="3.0254">
        <ele>22.5</ele>
        <time>2020-06-23T16:45:06Z</time>
      </trkpt>
      <trkpt lat="50.66892" lon="3.02548">
        <ele>22.5</ele>
        <time>2020-06-23T16:45:07Z</time>
      </trkpt>
      <trkpt lat="50.66887" lon="3.02555">
        <ele>22.6</ele>
        <time>2020-06-23T16:45:08Z</time>
      </trkpt>
      <trkpt lat="50.66883" lon="3.02562">
        <ele>22.6</ele>
        <time>2020-06-23T16:45:09Z</time>
      </trkpt>
      <trkpt lat="50.66878" lon="3.0257">
        <ele>22.6</ele>
        <time>2020-06-23T16:45:10Z</time>
      </trkpt>
      <trkpt lat="50.66873" lon="3.02576">
        <ele>22.6</ele>
        <time>2020-06-23T16:45:11Z</time>
      </trkpt>
      <trkpt lat="50.66869" lon="3.02584">
        <ele>22.6</ele>
        <time>2020-06-23T16:45:12Z</time>
      </trkpt>
      <trkpt lat="50.66864" lon="3.0259">
        <ele>22.6</ele>
        <time>2020-06-23T16:45:13Z</time>
      </trkpt>
      <trkpt lat="50.66859" lon="3.02597">
        <ele>22.6</ele>
        <time>2020-06-23T16:45:14Z</time>
      </trkpt>
      <trkpt lat="50.66855" lon="3.02604">
        <ele>22.6</ele>
        <time>2020-06-23T16:45:15Z</time>
      </trkpt>
      <trkpt lat="50.66851" lon="3.02611">
        <ele>22.6</ele>
        <time>2020-06-23T16:45:16Z</time>
      </trkpt>
      <trkpt lat="50.66846" lon="3.02617">
        <ele>22.7</ele>
        <time>2020-06-23T16:45:17Z</time>
      </trkpt>
      <trkpt lat="50.66842" lon="3.02624">
        <ele>22.7</ele>
        <time>2020-06-23T16:45:18Z</time>
      </trkpt>
      <trkpt lat="50.66837" lon="3.02631">
        <ele>22.7</ele>
        <time>2020-06-23T16:45:19Z</time>
      </trkpt>
      <trkpt lat="50.66833" lon="3.02638">
        <ele>22.7</ele>
        <time>2020-06-23T16:45:20Z</time>
      </trkpt>
      <trkpt lat="50.66829" lon="3.02645">
        <ele>22.7</ele>
        <time>2020-06-23T16:45:21Z</time>
      </trkpt>
      <trkpt lat="50.66825" lon="3.02652">
        <ele>22.7</ele>
        <time>2020-06-23T16:45:22Z</time>
      </trkpt>
      <trkpt lat="50.6682" lon="3.0266">
        <ele>22.7</ele>
        <time>2020-06-23T16:45:23Z</time>
      </trkpt>
      <trkpt lat="50.66815" lon="3.02667">
        <ele>22.8</ele>
        <time>2020-06-23T16:45:24Z</time>
      </trkpt>
      <trkpt lat="50.66811" lon="3.02675">
        <ele>22.8</ele>
        <time>2020-06-23T16:45:25Z</time>
      </trkpt>
      <trkpt lat="50.66806" lon="3.02682">
        <ele>22.9</ele>
        <time>2020-06-23T16:45:26Z</time>
      </trkpt>
      <trkpt lat="50.66802" lon="3.02688">
        <ele>22.9</ele>
        <time>2020-06-23T16:45:27Z</time>
      </trkpt>
      <trkpt lat="50.66797" lon="3.02694">
        <ele>23</ele>
        <time>2020-06-23T16:45:28Z</time>
      </trkpt>
      <trkpt lat="50.66792" lon="3.02699">
        <ele>22.9</ele>
        <time>2020-06-23T16:45:29Z</time>
      </trkpt>
      <trkpt lat="50.66784" lon="3.02706">
        <ele>22.8</ele>
        <time>2020-06-23T16:45:30Z</time>
      </trkpt>
      <trkpt lat="50.66778" lon="3.02711">
        <ele>22.8</ele>
        <time>2020-06-23T16:45:31Z</time>
      </trkpt>
      <trkpt lat="50.66772" lon="3.02715">
        <ele>22.7</ele>
        <time>2020-06-23T16:45:32Z</time>
      </trkpt>
      <trkpt lat="50.66766" lon="3.02719">
        <ele>22.7</ele>
        <time>2020-06-23T16:45:33Z</time>
      </trkpt>
      <trkpt lat="50.66761" lon="3.02724">
        <ele>22.7</ele>
        <time>2020-06-23T16:45:34Z</time>
      </trkpt>
      <trkpt lat="50.66756" lon="3.02728">
        <ele>22.7</ele>
        <time>2020-06-23T16:45:35Z</time>
      </trkpt>
      <trkpt lat="50.6675" lon="3.02733">
        <ele>22.8</ele>
        <time>2020-06-23T16:45:36Z</time>
      </trkpt>
      <trkpt lat="50.66744" lon="3.02739">
        <ele>22.8</ele>
        <time>2020-06-23T16:45:37Z</time>
      </trkpt>
      <trkpt lat="50.6674" lon="3.02742">
        <ele>22.9</ele>
        <time>2020-06-23T16:45:38Z</time>
      </trkpt>
      <trkpt lat="50.66734" lon="3.02746">
        <ele>23</ele>
        <time>2020-06-23T16:45:39Z</time>
      </trkpt>
      <trkpt lat="50.66729" lon="3.0275">
        <ele>23.1</ele>
        <time>2020-06-23T16:45:40Z</time>
      </trkpt>
      <trkpt lat="50.66725" lon="3.02753">
        <ele>23.1</ele>
        <time>2020-06-23T16:45:41Z</time>
      </trkpt>
      <trkpt lat="50.66719" lon="3.02755">
        <ele>23.2</ele>
        <time>2020-06-23T16:45:42Z</time>
      </trkpt>
      <trkpt lat="50.66713" lon="3.02755">
        <ele>23.3</ele>
        <time>2020-06-23T16:45:43Z</time>
      </trkpt>
      <trkpt lat="50.66708" lon="3.02752">
        <ele>23.4</ele>
        <time>2020-06-23T16:45:44Z</time>
      </trkpt>
      <trkpt lat="50.66705" lon="3.02748">
        <ele>23.5</ele>
        <time>2020-06-23T16:45:45Z</time>
      </trkpt>
      <trkpt lat="50.66701" lon="3.02746">
        <ele>23.6</ele>
        <time>2020-06-23T16:45:46Z</time>
      </trkpt>
      <trkpt lat="50.66697" lon="3.02746">
        <ele>23.6</ele>
        <time>2020-06-23T16:45:47Z</time>
      </trkpt>
      <trkpt lat="50.66693" lon="3.02747">
        <ele>23.7</ele>
        <time>2020-06-23T16:45:48Z</time>
      </trkpt>
      <trkpt lat="50.6669" lon="3.0275">
        <ele>23.8</ele>
        <time>2020-06-23T16:45:49Z</time>
      </trkpt>
      <trkpt lat="50.66686" lon="3.02752">
        <ele>23.9</ele>
        <time>2020-06-23T16:45:50Z</time>
      </trkpt>
      <trkpt lat="50.66684" lon="3.02756">
        <ele>24.7</ele>
        <time>2020-06-23T16:45:51Z</time>
      </trkpt>
      <trkpt lat="50.6668" lon="3.02763">
        <ele>24.4</ele>
        <time>2020-06-23T16:45:52Z</time>
      </trkpt>
      <trkpt lat="50.6668" lon="3.02772">
        <ele>24.2</ele>
        <time>2020-06-23T16:45:53Z</time>
      </trkpt>
      <trkpt lat="50.66679" lon="3.0278">
        <ele>24</ele>
        <time>2020-06-23T16:45:54Z</time>
      </trkpt>
      <trkpt lat="50.6668" lon="3.02789">
        <ele>23.7</ele>
        <time>2020-06-23T16:45:55Z</time>
      </trkpt>
      <trkpt lat="50.66682" lon="3.02798">
        <ele>23.4</ele>
        <time>2020-06-23T16:45:56Z</time>
      </trkpt>
      <trkpt lat="50.66685" lon="3.02807">
        <ele>23.4</ele>
        <time>2020-06-23T16:45:57Z</time>
      </trkpt>
      <trkpt lat="50.66688" lon="3.02814">
        <ele>23.4</ele>
        <time>2020-06-23T16:45:58Z</time>
      </trkpt>
      <trkpt lat="50.66689" lon="3.02821">
        <ele>23.4</ele>
        <time>2020-06-23T16:45:59Z</time>
      </trkpt>
      <trkpt lat="50.6669" lon="3.02828">
        <ele>23.3</ele>
        <time>2020-06-23T16:46:00Z</time>
      </trkpt>
      <trkpt lat="50.6669" lon="3.02836">
        <ele>23.3</ele>
        <time>2020-06-23T16:46:01Z</time>
      </trkpt>
      <trkpt lat="50.66689" lon="3.0284">
        <ele>23.3</ele>
        <time>2020-06-23T16:46:02Z</time>
      </trkpt>
      <trkpt lat="50.66688" lon="3.0284">
        <ele>23.3</ele>
        <time>2020-06-23T16:46:03Z</time>
      </trkpt>
      <trkpt lat="50.66686" lon="3.02841">
        <ele>23.3</ele>
        <time>2020-06-23T16:46:04Z</time>
      </trkpt>
      <trkpt lat="50.66685" lon="3.02842">
        <ele>23.3</ele>
        <time>2020-06-23T16:46:05Z</time>
      </trkpt>
      <trkpt lat="50.66684" lon="3.02844">
        <ele>23.3</ele>
        <time>2020-06-23T16:46:06Z</time>
      </trkpt>
      <trkpt lat="50.66684" lon="3.02844">
        <ele>23.3</ele>
        <time>2020-06-23T16:46:07Z</time>
      </trkpt>
      <trkpt lat="50.66683" lon="3.02844">
        <ele>23.3</ele>
        <time>2020-06-23T16:46:08Z</time>
      </trkpt>
      <trkpt lat="50.66683" lon="3.02844">
        <ele>23.3</ele>
        <time>2020-06-23T16:46:09Z</time>
      </trkpt>
      <trkpt lat="50.66683" lon="3.02844">
        <ele>23.3</ele>
        <time>2020-06-23T16:46:10Z</time>
      </trkpt>
      <trkpt lat="50.66682" lon="3.02845">
        <ele>23.3</ele>
        <time>2020-06-23T16:46:11Z</time>
      </trkpt>
      <trkpt lat="50.66683" lon="3.02845">
        <ele>23.3</ele>
        <time>2020-06-23T16:46:12Z</time>
      </trkpt>
      <trkpt lat="50.66682" lon="3.02845">
        <ele>23.3</ele>
        <time>2020-06-23T16:46:13Z</time>
      </trkpt>
      <trkpt lat="50.66682" lon="3.02846">
        <ele>23.3</ele>
        <time>2020-06-23T16:46:14Z</time>
      </trkpt>
      <trkpt lat="50.66682" lon="3.02846">
        <ele>23.3</ele>
        <time>2020-06-23T16:46:15Z</time>
      </trkpt>
      <trkpt lat="50.66681" lon="3.02846">
        <ele>23.3</ele>
        <time>2020-06-23T16:46:16Z</time>
      </trkpt>
      <trkpt lat="50.66681" lon="3.02847">
        <ele>23.3</ele>
        <time>2020-06-23T16:46:17Z</time>
      </trkpt>
      <trkpt lat="50.66681" lon="3.02847">
        <ele>23.3</ele>
        <time>2020-06-23T16:46:18Z</time>
      </trkpt>
      <trkpt lat="50.6668" lon="3.02848">
        <ele>23.3</ele>
        <time>2020-06-23T16:46:19Z</time>
      </trkpt>
      <trkpt lat="50.6668" lon="3.02848">
        <ele>23.3</ele>
        <time>2020-06-23T16:46:20Z</time>
      </trkpt>
      <trkpt lat="50.6668" lon="3.02848">
        <ele>23.3</ele>
        <time>2020-06-23T16:46:21Z</time>
      </trkpt>
      <trkpt lat="50.66679" lon="3.02849">
        <ele>23.3</ele>
        <time>2020-06-23T16:46:22Z</time>
      </trkpt>
      <trkpt lat="50.66679" lon="3.02849">
        <ele>23.3</ele>
        <time>2020-06-23T16:46:23Z</time>
      </trkpt>
      <trkpt lat="50.66679" lon="3.0285">
        <ele>23.3</ele>
        <time>2020-06-23T16:46:24Z</time>
      </trkpt>
      <trkpt lat="50.66678" lon="3.0285">
        <ele>23.3</ele>
        <time>2020-06-23T16:46:25Z</time>
      </trkpt>
      <trkpt lat="50.66678" lon="3.0285">
        <ele>23.2</ele>
        <time>2020-06-23T16:46:26Z</time>
      </trkpt>
      <trkpt lat="50.66677" lon="3.02851">
        <ele>23.2</ele>
        <time>2020-06-23T16:46:27Z</time>
      </trkpt>
      <trkpt lat="50.66677" lon="3.02851">
        <ele>23.2</ele>
        <time>2020-06-23T16:46:28Z</time>
      </trkpt>
      <trkpt lat="50.66677" lon="3.02852">
        <ele>23.2</ele>
        <time>2020-06-23T16:46:47Z</time>
      </trkpt>
      <trkpt lat="50.66676" lon="3.02852">
        <ele>23.2</ele>
        <time>2020-06-23T16:46:48Z</time>
      </trkpt>
      <trkpt lat="50.66675" lon="3.02855">
        <ele>23.2</ele>
        <time>2020-06-23T16:46:49Z</time>
      </trkpt>
      <trkpt lat="50.66673" lon="3.02859">
        <ele>23.2</ele>
        <time>2020-06-23T16:46:50Z</time>
      </trkpt>
      <trkpt lat="50.66671" lon="3.02864">
        <ele>23.2</ele>
        <time>2020-06-23T16:46:51Z</time>
      </trkpt>
      <trkpt lat="50.6667" lon="3.02865">
        <ele>23.2</ele>
        <time>2020-06-23T16:46:52Z</time>
      </trkpt>
      <trkpt lat="50.66666" lon="3.02869">
        <ele>23.2</ele>
        <time>2020-06-23T16:46:53Z</time>
      </trkpt>
      <trkpt lat="50.66663" lon="3.02873">
        <ele>23.2</ele>
        <time>2020-06-23T16:46:54Z</time>
      </trkpt>
      <trkpt lat="50.6666" lon="3.02875">
        <ele>23.2</ele>
        <time>2020-06-23T16:46:55Z</time>
      </trkpt>
      <trkpt lat="50.66657" lon="3.02876">
        <ele>23.2</ele>
        <time>2020-06-23T16:46:56Z</time>
      </trkpt>
      <trkpt lat="50.66655" lon="3.02875">
        <ele>23.2</ele>
        <time>2020-06-23T16:46:57Z</time>
      </trkpt>
      <trkpt lat="50.66652" lon="3.02873">
        <ele>23.2</ele>
        <time>2020-06-23T16:46:58Z</time>
      </trkpt>
      <trkpt lat="50.6665" lon="3.02872">
        <ele>23.2</ele>
        <time>2020-06-23T16:46:59Z</time>
      </trkpt>
      <trkpt lat="50.66647" lon="3.0287">
        <ele>23.3</ele>
        <time>2020-06-23T16:47:00Z</time>
      </trkpt>
      <trkpt lat="50.66645" lon="3.0287">
        <ele>23.3</ele>
        <time>2020-06-23T16:47:01Z</time>
      </trkpt>
      <trkpt lat="50.66645" lon="3.02869">
        <ele>23.3</ele>
        <time>2020-06-23T16:47:02Z</time>
      </trkpt>
      <trkpt lat="50.66643" lon="3.0287">
        <ele>23.3</ele>
        <time>2020-06-23T16:47:03Z</time>
      </trkpt>
      <trkpt lat="50.66641" lon="3.02871">
        <ele>23.4</ele>
        <time>2020-06-23T16:47:04Z</time>
      </trkpt>
      <trkpt lat="50.6664" lon="3.02872">
        <ele>23.4</ele>
        <time>2020-06-23T16:47:05Z</time>
      </trkpt>
      <trkpt lat="50.6664" lon="3.02871">
        <ele>23.4</ele>
        <time>2020-06-23T16:47:06Z</time>
      </trkpt>
      <trkpt lat="50.6664" lon="3.02872">
        <ele>23.4</ele>
        <time>2020-06-23T16:47:07Z</time>
      </trkpt>
      <trkpt lat="50.66639" lon="3.02872">
        <ele>23.4</ele>
        <time>2020-06-23T16:47:08Z</time>
      </trkpt>
      <trkpt lat="50.66639" lon="3.02872">
        <ele>23.5</ele>
        <time>2020-06-23T16:47:09Z</time>
      </trkpt>
      <trkpt lat="50.66639" lon="3.02872">
        <ele>23.5</ele>
        <time>2020-06-23T16:47:10Z</time>
      </trkpt>
      <trkpt lat="50.66637" lon="3.02871">
        <ele>23.5</ele>
        <time>2020-06-23T16:47:11Z</time>
      </trkpt>
      <trkpt lat="50.66637" lon="3.02871">
        <ele>23.5</ele>
        <time>2020-06-23T16:47:12Z</time>
      </trkpt>
      <trkpt lat="50.66635" lon="3.02875">
        <ele>23.5</ele>
        <time>2020-06-23T16:47:13Z</time>
      </trkpt>
      <trkpt lat="50.66635" lon="3.02877">
        <ele>23.5</ele>
        <time>2020-06-23T16:47:14Z</time>
      </trkpt>
      <trkpt lat="50.66632" lon="3.02882">
        <ele>23.6</ele>
        <time>2020-06-23T16:47:15Z</time>
      </trkpt>
      <trkpt lat="50.6663" lon="3.02884">
        <ele>23.6</ele>
        <time>2020-06-23T16:47:16Z</time>
      </trkpt>
      <trkpt lat="50.66627" lon="3.02889">
        <ele>23.7</ele>
        <time>2020-06-23T16:47:17Z</time>
      </trkpt>
      <trkpt lat="50.66624" lon="3.02894">
        <ele>23.6</ele>
        <time>2020-06-23T16:47:18Z</time>
      </trkpt>
      <trkpt lat="50.66622" lon="3.029">
        <ele>23.6</ele>
        <time>2020-06-23T16:47:19Z</time>
      </trkpt>
      <trkpt lat="50.66621" lon="3.02905">
        <ele>23.6</ele>
        <time>2020-06-23T16:47:20Z</time>
      </trkpt>
      <trkpt lat="50.66619" lon="3.02911">
        <ele>23.6</ele>
        <time>2020-06-23T16:47:21Z</time>
      </trkpt>
      <trkpt lat="50.66619" lon="3.02917">
        <ele>23.6</ele>
        <time>2020-06-23T16:47:22Z</time>
      </trkpt>
      <trkpt lat="50.66619" lon="3.02922">
        <ele>23.6</ele>
        <time>2020-06-23T16:47:23Z</time>
      </trkpt>
      <trkpt lat="50.66619" lon="3.02927">
        <ele>23.6</ele>
        <time>2020-06-23T16:47:24Z</time>
      </trkpt>
      <trkpt lat="50.66618" lon="3.02932">
        <ele>23.6</ele>
        <time>2020-06-23T16:47:25Z</time>
      </trkpt>
      <trkpt lat="50.66618" lon="3.02933">
        <ele>23.6</ele>
        <time>2020-06-23T16:47:26Z</time>
      </trkpt>
      <trkpt lat="50.66615" lon="3.02937">
        <ele>23.6</ele>
        <time>2020-06-23T16:47:27Z</time>
      </trkpt>
      <trkpt lat="50.66614" lon="3.02943">
        <ele>23.7</ele>
        <time>2020-06-23T16:47:28Z</time>
      </trkpt>
      <trkpt lat="50.66612" lon="3.02949">
        <ele>23.7</ele>
        <time>2020-06-23T16:47:29Z</time>
      </trkpt>
      <trkpt lat="50.66609" lon="3.02953">
        <ele>23.7</ele>
        <time>2020-06-23T16:47:30Z</time>
      </trkpt>
      <trkpt lat="50.66607" lon="3.02957">
        <ele>23.7</ele>
        <time>2020-06-23T16:47:31Z</time>
      </trkpt>
      <trkpt lat="50.66604" lon="3.02961">
        <ele>23.8</ele>
        <time>2020-06-23T16:47:32Z</time>
      </trkpt>
      <trkpt lat="50.66603" lon="3.02962">
        <ele>23.8</ele>
        <time>2020-06-23T16:47:33Z</time>
      </trkpt>
      <trkpt lat="50.666" lon="3.02966">
        <ele>23.8</ele>
        <time>2020-06-23T16:47:34Z</time>
      </trkpt>
      <trkpt lat="50.66597" lon="3.0297">
        <ele>23.9</ele>
        <time>2020-06-23T16:47:35Z</time>
      </trkpt>
      <trkpt lat="50.66595" lon="3.02973">
        <ele>23.9</ele>
        <time>2020-06-23T16:47:36Z</time>
      </trkpt>
      <trkpt lat="50.66591" lon="3.02978">
        <ele>23.9</ele>
        <time>2020-06-23T16:47:37Z</time>
      </trkpt>
      <trkpt lat="50.66587" lon="3.02984">
        <ele>23.9</ele>
        <time>2020-06-23T16:47:38Z</time>
      </trkpt>
      <trkpt lat="50.66583" lon="3.02989">
        <ele>23.9</ele>
        <time>2020-06-23T16:47:39Z</time>
      </trkpt>
      <trkpt lat="50.66579" lon="3.02995">
        <ele>23.8</ele>
        <time>2020-06-23T16:47:40Z</time>
      </trkpt>
      <trkpt lat="50.66575" lon="3.03002">
        <ele>23.8</ele>
        <time>2020-06-23T16:47:41Z</time>
      </trkpt>
      <trkpt lat="50.66571" lon="3.03007">
        <ele>23.7</ele>
        <time>2020-06-23T16:47:42Z</time>
      </trkpt>
      <trkpt lat="50.66565" lon="3.03013">
        <ele>23.7</ele>
        <time>2020-06-23T16:47:43Z</time>
      </trkpt>
      <trkpt lat="50.66559" lon="3.03019">
        <ele>23.6</ele>
        <time>2020-06-23T16:47:44Z</time>
      </trkpt>
      <trkpt lat="50.66556" lon="3.03025">
        <ele>23.6</ele>
        <time>2020-06-23T16:47:45Z</time>
      </trkpt>
      <trkpt lat="50.66552" lon="3.0303">
        <ele>23.6</ele>
        <time>2020-06-23T16:47:46Z</time>
      </trkpt>
      <trkpt lat="50.66549" lon="3.03037">
        <ele>23.5</ele>
        <time>2020-06-23T16:47:47Z</time>
      </trkpt>
      <trkpt lat="50.66545" lon="3.03041">
        <ele>23.5</ele>
        <time>2020-06-23T16:47:48Z</time>
      </trkpt>
      <trkpt lat="50.66541" lon="3.03046">
        <ele>23.5</ele>
        <time>2020-06-23T16:47:49Z</time>
      </trkpt>
      <trkpt lat="50.66536" lon="3.03052">
        <ele>23.4</ele>
        <time>2020-06-23T16:47:50Z</time>
      </trkpt>
      <trkpt lat="50.66532" lon="3.03057">
        <ele>23.4</ele>
        <time>2020-06-23T16:47:51Z</time>
      </trkpt>
      <trkpt lat="50.66529" lon="3.0306">
        <ele>23.4</ele>
        <time>2020-06-23T16:47:52Z</time>
      </trkpt>
      <trkpt lat="50.66525" lon="3.03063">
        <ele>23.4</ele>
        <time>2020-06-23T16:47:53Z</time>
      </trkpt>
      <trkpt lat="50.66523" lon="3.03067">
        <ele>23.4</ele>
        <time>2020-06-23T16:47:54Z</time>
      </trkpt>
      <trkpt lat="50.6652" lon="3.0307">
        <ele>23.4</ele>
        <time>2020-06-23T16:47:55Z</time>
      </trkpt>
      <trkpt lat="50.66517" lon="3.03075">
        <ele>23.4</ele>
        <time>2020-06-23T16:47:56Z</time>
      </trkpt>
      <trkpt lat="50.66513" lon="3.0308">
        <ele>23.4</ele>
        <time>2020-06-23T16:47:57Z</time>
      </trkpt>
      <trkpt lat="50.66511" lon="3.03083">
        <ele>23.4</ele>
        <time>2020-06-23T16:47:58Z</time>
      </trkpt>
      <trkpt lat="50.66508" lon="3.03086">
        <ele>23.4</ele>
        <time>2020-06-23T16:47:59Z</time>
      </trkpt>
      <trkpt lat="50.66506" lon="3.0309">
        <ele>23.4</ele>
        <time>2020-06-23T16:48:00Z</time>
      </trkpt>
      <trkpt lat="50.66504" lon="3.03094">
        <ele>23.3</ele>
        <time>2020-06-23T16:48:01Z</time>
      </trkpt>
      <trkpt lat="50.66501" lon="3.03098">
        <ele>23.3</ele>
        <time>2020-06-23T16:48:02Z</time>
      </trkpt>
      <trkpt lat="50.66498" lon="3.03102">
        <ele>23.3</ele>
        <time>2020-06-23T16:48:03Z</time>
      </trkpt>
      <trkpt lat="50.66495" lon="3.03107">
        <ele>23.3</ele>
        <time>2020-06-23T16:48:04Z</time>
      </trkpt>
      <trkpt lat="50.6649" lon="3.03113">
        <ele>23.3</ele>
        <time>2020-06-23T16:48:05Z</time>
      </trkpt>
      <trkpt lat="50.66485" lon="3.03119">
        <ele>23.4</ele>
        <time>2020-06-23T16:48:06Z</time>
      </trkpt>
      <trkpt lat="50.66479" lon="3.03123">
        <ele>23.3</ele>
        <time>2020-06-23T16:48:07Z</time>
      </trkpt>
      <trkpt lat="50.66475" lon="3.03126">
        <ele>23.3</ele>
        <time>2020-06-23T16:48:08Z</time>
      </trkpt>
      <trkpt lat="50.66473" lon="3.03128">
        <ele>23.3</ele>
        <time>2020-06-23T16:48:09Z</time>
      </trkpt>
      <trkpt lat="50.6647" lon="3.03129">
        <ele>23.3</ele>
        <time>2020-06-23T16:48:10Z</time>
      </trkpt>
      <trkpt lat="50.66468" lon="3.0313">
        <ele>23.3</ele>
        <time>2020-06-23T16:48:11Z</time>
      </trkpt>
      <trkpt lat="50.66465" lon="3.03132">
        <ele>23.3</ele>
        <time>2020-06-23T16:48:12Z</time>
      </trkpt>
      <trkpt lat="50.66464" lon="3.03133">
        <ele>23.3</ele>
        <time>2020-06-23T16:48:13Z</time>
      </trkpt>
      <trkpt lat="50.66461" lon="3.03132">
        <ele>23.4</ele>
        <time>2020-06-23T16:48:14Z</time>
      </trkpt>
      <trkpt lat="50.6646" lon="3.03135">
        <ele>23.4</ele>
        <time>2020-06-23T16:48:15Z</time>
      </trkpt>
      <trkpt lat="50.66459" lon="3.03136">
        <ele>23.4</ele>
        <time>2020-06-23T16:48:16Z</time>
      </trkpt>
      <trkpt lat="50.66458" lon="3.03137">
        <ele>23.4</ele>
        <time>2020-06-23T16:48:17Z</time>
      </trkpt>
      <trkpt lat="50.66456" lon="3.03141">
        <ele>23.4</ele>
        <time>2020-06-23T16:48:18Z</time>
      </trkpt>
      <trkpt lat="50.66453" lon="3.03144">
        <ele>23.4</ele>
        <time>2020-06-23T16:48:19Z</time>
      </trkpt>
      <trkpt lat="50.6645" lon="3.03147">
        <ele>23.4</ele>
        <time>2020-06-23T16:48:20Z</time>
      </trkpt>
      <trkpt lat="50.66447" lon="3.0315">
        <ele>23.4</ele>
        <time>2020-06-23T16:48:21Z</time>
      </trkpt>
      <trkpt lat="50.66444" lon="3.03154">
        <ele>23.4</ele>
        <time>2020-06-23T16:48:22Z</time>
      </trkpt>
      <trkpt lat="50.66439" lon="3.0316">
        <ele>23.3</ele>
        <time>2020-06-23T16:48:23Z</time>
      </trkpt>
      <trkpt lat="50.66434" lon="3.03164">
        <ele>23.2</ele>
        <time>2020-06-23T16:48:24Z</time>
      </trkpt>
      <trkpt lat="50.66429" lon="3.03168">
        <ele>23.2</ele>
        <time>2020-06-23T16:48:25Z</time>
      </trkpt>
      <trkpt lat="50.66424" lon="3.03172">
        <ele>23.1</ele>
        <time>2020-06-23T16:48:26Z</time>
      </trkpt>
      <trkpt lat="50.66418" lon="3.03177">
        <ele>23</ele>
        <time>2020-06-23T16:48:27Z</time>
      </trkpt>
      <trkpt lat="50.66412" lon="3.03184">
        <ele>22.9</ele>
        <time>2020-06-23T16:48:28Z</time>
      </trkpt>
      <trkpt lat="50.66405" lon="3.03191">
        <ele>22.9</ele>
        <time>2020-06-23T16:48:29Z</time>
      </trkpt>
      <trkpt lat="50.66399" lon="3.03196">
        <ele>22.8</ele>
        <time>2020-06-23T16:48:30Z</time>
      </trkpt>
      <trkpt lat="50.66392" lon="3.03202">
        <ele>22.7</ele>
        <time>2020-06-23T16:48:31Z</time>
      </trkpt>
      <trkpt lat="50.66386" lon="3.03208">
        <ele>22.6</ele>
        <time>2020-06-23T16:48:32Z</time>
      </trkpt>
      <trkpt lat="50.6638" lon="3.03213">
        <ele>22.5</ele>
        <time>2020-06-23T16:48:33Z</time>
      </trkpt>
      <trkpt lat="50.66374" lon="3.03218">
        <ele>22.5</ele>
        <time>2020-06-23T16:48:34Z</time>
      </trkpt>
      <trkpt lat="50.66367" lon="3.03224">
        <ele>22.4</ele>
        <time>2020-06-23T16:48:35Z</time>
      </trkpt>
      <trkpt lat="50.66362" lon="3.0323">
        <ele>22.4</ele>
        <time>2020-06-23T16:48:36Z</time>
      </trkpt>
      <trkpt lat="50.66357" lon="3.03236">
        <ele>22.3</ele>
        <time>2020-06-23T16:48:37Z</time>
      </trkpt>
      <trkpt lat="50.6635" lon="3.03242">
        <ele>22.3</ele>
        <time>2020-06-23T16:48:38Z</time>
      </trkpt>
      <trkpt lat="50.66344" lon="3.03249">
        <ele>22.2</ele>
        <time>2020-06-23T16:48:39Z</time>
      </trkpt>
      <trkpt lat="50.66338" lon="3.03255">
        <ele>22.1</ele>
        <time>2020-06-23T16:48:40Z</time>
      </trkpt>
      <trkpt lat="50.66332" lon="3.0326">
        <ele>22.1</ele>
        <time>2020-06-23T16:48:41Z</time>
      </trkpt>
      <trkpt lat="50.66327" lon="3.03265">
        <ele>22</ele>
        <time>2020-06-23T16:48:42Z</time>
      </trkpt>
      <trkpt lat="50.66322" lon="3.0327">
        <ele>22</ele>
        <time>2020-06-23T16:48:43Z</time>
      </trkpt>
      <trkpt lat="50.66316" lon="3.03277">
        <ele>21.9</ele>
        <time>2020-06-23T16:48:44Z</time>
      </trkpt>
      <trkpt lat="50.66309" lon="3.03284">
        <ele>21.9</ele>
        <time>2020-06-23T16:48:45Z</time>
      </trkpt>
      <trkpt lat="50.66304" lon="3.03289">
        <ele>21.9</ele>
        <time>2020-06-23T16:48:46Z</time>
      </trkpt>
      <trkpt lat="50.66298" lon="3.03296">
        <ele>21.8</ele>
        <time>2020-06-23T16:48:47Z</time>
      </trkpt>
      <trkpt lat="50.66291" lon="3.03302">
        <ele>21.8</ele>
        <time>2020-06-23T16:48:48Z</time>
      </trkpt>
      <trkpt lat="50.66284" lon="3.03308">
        <ele>21.8</ele>
        <time>2020-06-23T16:48:49Z</time>
      </trkpt>
      <trkpt lat="50.66278" lon="3.03313">
        <ele>21.8</ele>
        <time>2020-06-23T16:48:50Z</time>
      </trkpt>
      <trkpt lat="50.6627" lon="3.03318">
        <ele>21.7</ele>
        <time>2020-06-23T16:48:51Z</time>
      </trkpt>
      <trkpt lat="50.66266" lon="3.03321">
        <ele>21.7</ele>
        <time>2020-06-23T16:48:52Z</time>
      </trkpt>
      <trkpt lat="50.66261" lon="3.03326">
        <ele>21.7</ele>
        <time>2020-06-23T16:48:53Z</time>
      </trkpt>
      <trkpt lat="50.66255" lon="3.03332">
        <ele>21.6</ele>
        <time>2020-06-23T16:48:54Z</time>
      </trkpt>
      <trkpt lat="50.66248" lon="3.03338">
        <ele>21.6</ele>
        <time>2020-06-23T16:48:55Z</time>
      </trkpt>
      <trkpt lat="50.66242" lon="3.03344">
        <ele>21.6</ele>
        <time>2020-06-23T16:48:56Z</time>
      </trkpt>
      <trkpt lat="50.66237" lon="3.03349">
        <ele>21.6</ele>
        <time>2020-06-23T16:48:57Z</time>
      </trkpt>
      <trkpt lat="50.66231" lon="3.03357">
        <ele>21.6</ele>
        <time>2020-06-23T16:48:58Z</time>
      </trkpt>
      <trkpt lat="50.66225" lon="3.03365">
        <ele>21.6</ele>
        <time>2020-06-23T16:48:59Z</time>
      </trkpt>
      <trkpt lat="50.66221" lon="3.03371">
        <ele>21.6</ele>
        <time>2020-06-23T16:49:00Z</time>
      </trkpt>
      <trkpt lat="50.66216" lon="3.0338">
        <ele>21.6</ele>
        <time>2020-06-23T16:49:01Z</time>
      </trkpt>
      <trkpt lat="50.66212" lon="3.0339">
        <ele>21.6</ele>
        <time>2020-06-23T16:49:02Z</time>
      </trkpt>
      <trkpt lat="50.66208" lon="3.03399">
        <ele>21.6</ele>
        <time>2020-06-23T16:49:03Z</time>
      </trkpt>
      <trkpt lat="50.66204" lon="3.03407">
        <ele>21.6</ele>
        <time>2020-06-23T16:49:04Z</time>
      </trkpt>
      <trkpt lat="50.662" lon="3.03417">
        <ele>21.6</ele>
        <time>2020-06-23T16:49:05Z</time>
      </trkpt>
      <trkpt lat="50.66196" lon="3.03425">
        <ele>21.6</ele>
        <time>2020-06-23T16:49:06Z</time>
      </trkpt>
      <trkpt lat="50.66193" lon="3.03434">
        <ele>21.7</ele>
        <time>2020-06-23T16:49:07Z</time>
      </trkpt>
      <trkpt lat="50.66189" lon="3.03443">
        <ele>21.7</ele>
        <time>2020-06-23T16:49:08Z</time>
      </trkpt>
      <trkpt lat="50.66186" lon="3.03451">
        <ele>21.8</ele>
        <time>2020-06-23T16:49:09Z</time>
      </trkpt>
      <trkpt lat="50.66183" lon="3.03458">
        <ele>21.8</ele>
        <time>2020-06-23T16:49:10Z</time>
      </trkpt>
      <trkpt lat="50.66179" lon="3.03465">
        <ele>22</ele>
        <time>2020-06-23T16:49:11Z</time>
      </trkpt>
      <trkpt lat="50.66177" lon="3.03472">
        <ele>22.1</ele>
        <time>2020-06-23T16:49:12Z</time>
      </trkpt>
      <trkpt lat="50.66174" lon="3.03479">
        <ele>22.2</ele>
        <time>2020-06-23T16:49:13Z</time>
      </trkpt>
      <trkpt lat="50.66171" lon="3.03485">
        <ele>22.3</ele>
        <time>2020-06-23T16:49:14Z</time>
      </trkpt>
      <trkpt lat="50.66169" lon="3.03491">
        <ele>22.3</ele>
        <time>2020-06-23T16:49:15Z</time>
      </trkpt>
      <trkpt lat="50.66167" lon="3.03496">
        <ele>22.4</ele>
        <time>2020-06-23T16:49:16Z</time>
      </trkpt>
      <trkpt lat="50.66166" lon="3.035">
        <ele>22.4</ele>
        <time>2020-06-23T16:49:17Z</time>
      </trkpt>
      <trkpt lat="50.66164" lon="3.03501">
        <ele>22.5</ele>
        <time>2020-06-23T16:49:18Z</time>
      </trkpt>
      <trkpt lat="50.66163" lon="3.03502">
        <ele>22.5</ele>
        <time>2020-06-23T16:49:19Z</time>
      </trkpt>
      <trkpt lat="50.66161" lon="3.03502">
        <ele>22.5</ele>
        <time>2020-06-23T16:49:20Z</time>
      </trkpt>
      <trkpt lat="50.66161" lon="3.03502">
        <ele>22.5</ele>
        <time>2020-06-23T16:49:21Z</time>
      </trkpt>
      <trkpt lat="50.66161" lon="3.03503">
        <ele>22.5</ele>
        <time>2020-06-23T16:49:22Z</time>
      </trkpt>
      <trkpt lat="50.6616" lon="3.03503">
        <ele>22.5</ele>
        <time>2020-06-23T16:49:23Z</time>
      </trkpt>
      <trkpt lat="50.6616" lon="3.03503">
        <ele>22.5</ele>
        <time>2020-06-23T16:49:24Z</time>
      </trkpt>
      <trkpt lat="50.6616" lon="3.03504">
        <ele>22.5</ele>
        <time>2020-06-23T16:49:25Z</time>
      </trkpt>
      <trkpt lat="50.66159" lon="3.03504">
        <ele>22.5</ele>
        <time>2020-06-23T16:49:26Z</time>
      </trkpt>
      <trkpt lat="50.66159" lon="3.03504">
        <ele>22.5</ele>
        <time>2020-06-23T16:49:27Z</time>
      </trkpt>
      <trkpt lat="50.66157" lon="3.03509">
        <ele>22.7</ele>
        <time>2020-06-23T16:49:28Z</time>
      </trkpt>
      <trkpt lat="50.66156" lon="3.0351">
        <ele>22.7</ele>
        <time>2020-06-23T16:49:29Z</time>
      </trkpt>
      <trkpt lat="50.66155" lon="3.03516">
        <ele>22.6</ele>
        <time>2020-06-23T16:49:30Z</time>
      </trkpt>
      <trkpt lat="50.66154" lon="3.03521">
        <ele>22.5</ele>
        <time>2020-06-23T16:49:31Z</time>
      </trkpt>
      <trkpt lat="50.66153" lon="3.03529">
        <ele>22.4</ele>
        <time>2020-06-23T16:49:32Z</time>
      </trkpt>
      <trkpt lat="50.66151" lon="3.03536">
        <ele>22.3</ele>
        <time>2020-06-23T16:49:33Z</time>
      </trkpt>
      <trkpt lat="50.66149" lon="3.03542">
        <ele>22.2</ele>
        <time>2020-06-23T16:49:34Z</time>
      </trkpt>
      <trkpt lat="50.66146" lon="3.03549">
        <ele>22.1</ele>
        <time>2020-06-23T16:49:35Z</time>
      </trkpt>
      <trkpt lat="50.66144" lon="3.03556">
        <ele>22</ele>
        <time>2020-06-23T16:49:36Z</time>
      </trkpt>
      <trkpt lat="50.6614" lon="3.03564">
        <ele>21.9</ele>
        <time>2020-06-23T16:49:37Z</time>
      </trkpt>
      <trkpt lat="50.66135" lon="3.03573">
        <ele>21.7</ele>
        <time>2020-06-23T16:49:38Z</time>
      </trkpt>
      <trkpt lat="50.66132" lon="3.03582">
        <ele>21.6</ele>
        <time>2020-06-23T16:49:39Z</time>
      </trkpt>
      <trkpt lat="50.66128" lon="3.03591">
        <ele>21.5</ele>
        <time>2020-06-23T16:49:40Z</time>
      </trkpt>
      <trkpt lat="50.66124" lon="3.036">
        <ele>21.5</ele>
        <time>2020-06-23T16:49:41Z</time>
      </trkpt>
      <trkpt lat="50.6612" lon="3.03608">
        <ele>21.5</ele>
        <time>2020-06-23T16:49:42Z</time>
      </trkpt>
      <trkpt lat="50.66117" lon="3.03618">
        <ele>21.5</ele>
        <time>2020-06-23T16:49:43Z</time>
      </trkpt>
      <trkpt lat="50.66112" lon="3.03627">
        <ele>21.5</ele>
        <time>2020-06-23T16:49:44Z</time>
      </trkpt>
      <trkpt lat="50.66109" lon="3.03636">
        <ele>21.5</ele>
        <time>2020-06-23T16:49:45Z</time>
      </trkpt>
      <trkpt lat="50.66105" lon="3.03645">
        <ele>21.6</ele>
        <time>2020-06-23T16:49:46Z</time>
      </trkpt>
      <trkpt lat="50.66102" lon="3.03653">
        <ele>21.6</ele>
        <time>2020-06-23T16:49:47Z</time>
      </trkpt>
      <trkpt lat="50.66097" lon="3.03662">
        <ele>21.6</ele>
        <time>2020-06-23T16:49:48Z</time>
      </trkpt>
      <trkpt lat="50.66094" lon="3.03671">
        <ele>21.5</ele>
        <time>2020-06-23T16:49:49Z</time>
      </trkpt>
      <trkpt lat="50.66089" lon="3.0368">
        <ele>21.5</ele>
        <time>2020-06-23T16:49:50Z</time>
      </trkpt>
      <trkpt lat="50.66085" lon="3.03688">
        <ele>21.5</ele>
        <time>2020-06-23T16:49:51Z</time>
      </trkpt>
      <trkpt lat="50.66081" lon="3.03696">
        <ele>21.4</ele>
        <time>2020-06-23T16:49:52Z</time>
      </trkpt>
      <trkpt lat="50.66077" lon="3.03704">
        <ele>21.4</ele>
        <time>2020-06-23T16:49:53Z</time>
      </trkpt>
      <trkpt lat="50.66072" lon="3.03712">
        <ele>21.4</ele>
        <time>2020-06-23T16:49:54Z</time>
      </trkpt>
      <trkpt lat="50.66067" lon="3.0372">
        <ele>21.4</ele>
        <time>2020-06-23T16:49:55Z</time>
      </trkpt>
      <trkpt lat="50.66062" lon="3.03726">
        <ele>21.3</ele>
        <time>2020-06-23T16:49:56Z</time>
      </trkpt>
      <trkpt lat="50.66057" lon="3.03733">
        <ele>21.3</ele>
        <time>2020-06-23T16:49:57Z</time>
      </trkpt>
      <trkpt lat="50.66052" lon="3.03739">
        <ele>21.3</ele>
        <time>2020-06-23T16:49:58Z</time>
      </trkpt>
      <trkpt lat="50.66046" lon="3.03744">
        <ele>21.3</ele>
        <time>2020-06-23T16:49:59Z</time>
      </trkpt>
      <trkpt lat="50.66041" lon="3.0375">
        <ele>21.4</ele>
        <time>2020-06-23T16:50:00Z</time>
      </trkpt>
      <trkpt lat="50.66035" lon="3.03756">
        <ele>21.4</ele>
        <time>2020-06-23T16:50:01Z</time>
      </trkpt>
      <trkpt lat="50.6603" lon="3.03762">
        <ele>21.5</ele>
        <time>2020-06-23T16:50:02Z</time>
      </trkpt>
      <trkpt lat="50.66025" lon="3.03768">
        <ele>21.5</ele>
        <time>2020-06-23T16:50:03Z</time>
      </trkpt>
      <trkpt lat="50.66019" lon="3.03774">
        <ele>21.6</ele>
        <time>2020-06-23T16:50:04Z</time>
      </trkpt>
      <trkpt lat="50.66013" lon="3.0378">
        <ele>21.5</ele>
        <time>2020-06-23T16:50:05Z</time>
      </trkpt>
      <trkpt lat="50.66007" lon="3.03785">
        <ele>21.5</ele>
        <time>2020-06-23T16:50:06Z</time>
      </trkpt>
      <trkpt lat="50.66002" lon="3.03791">
        <ele>21.5</ele>
        <time>2020-06-23T16:50:07Z</time>
      </trkpt>
      <trkpt lat="50.65996" lon="3.03797">
        <ele>21.5</ele>
        <time>2020-06-23T16:50:08Z</time>
      </trkpt>
      <trkpt lat="50.65991" lon="3.03803">
        <ele>21.5</ele>
        <time>2020-06-23T16:50:09Z</time>
      </trkpt>
      <trkpt lat="50.65986" lon="3.03808">
        <ele>21.5</ele>
        <time>2020-06-23T16:50:10Z</time>
      </trkpt>
      <trkpt lat="50.6598" lon="3.03815">
        <ele>21.5</ele>
        <time>2020-06-23T16:50:11Z</time>
      </trkpt>
      <trkpt lat="50.65974" lon="3.0382">
        <ele>21.5</ele>
        <time>2020-06-23T16:50:12Z</time>
      </trkpt>
      <trkpt lat="50.65969" lon="3.03826">
        <ele>21.5</ele>
        <time>2020-06-23T16:50:13Z</time>
      </trkpt>
      <trkpt lat="50.65963" lon="3.03832">
        <ele>21.6</ele>
        <time>2020-06-23T16:50:14Z</time>
      </trkpt>
      <trkpt lat="50.65958" lon="3.0384">
        <ele>21.6</ele>
        <time>2020-06-23T16:50:15Z</time>
      </trkpt>
      <trkpt lat="50.65953" lon="3.03846">
        <ele>21.6</ele>
        <time>2020-06-23T16:50:16Z</time>
      </trkpt>
      <trkpt lat="50.65948" lon="3.03852">
        <ele>21.7</ele>
        <time>2020-06-23T16:50:17Z</time>
      </trkpt>
      <trkpt lat="50.65942" lon="3.03858">
        <ele>21.7</ele>
        <time>2020-06-23T16:50:18Z</time>
      </trkpt>
      <trkpt lat="50.65936" lon="3.03864">
        <ele>21.7</ele>
        <time>2020-06-23T16:50:19Z</time>
      </trkpt>
      <trkpt lat="50.6593" lon="3.0387">
        <ele>21.7</ele>
        <time>2020-06-23T16:50:20Z</time>
      </trkpt>
      <trkpt lat="50.65924" lon="3.03876">
        <ele>21.7</ele>
        <time>2020-06-23T16:50:21Z</time>
      </trkpt>
      <trkpt lat="50.65918" lon="3.03882">
        <ele>21.7</ele>
        <time>2020-06-23T16:50:22Z</time>
      </trkpt>
      <trkpt lat="50.65913" lon="3.03889">
        <ele>21.7</ele>
        <time>2020-06-23T16:50:23Z</time>
      </trkpt>
      <trkpt lat="50.65908" lon="3.03896">
        <ele>21.7</ele>
        <time>2020-06-23T16:50:24Z</time>
      </trkpt>
      <trkpt lat="50.65903" lon="3.03902">
        <ele>21.7</ele>
        <time>2020-06-23T16:50:25Z</time>
      </trkpt>
      <trkpt lat="50.65897" lon="3.03908">
        <ele>21.7</ele>
        <time>2020-06-23T16:50:26Z</time>
      </trkpt>
      <trkpt lat="50.65891" lon="3.03914">
        <ele>21.7</ele>
        <time>2020-06-23T16:50:27Z</time>
      </trkpt>
      <trkpt lat="50.65885" lon="3.03919">
        <ele>21.7</ele>
        <time>2020-06-23T16:50:28Z</time>
      </trkpt>
      <trkpt lat="50.65879" lon="3.03924">
        <ele>21.7</ele>
        <time>2020-06-23T16:50:29Z</time>
      </trkpt>
      <trkpt lat="50.65872" lon="3.03931">
        <ele>21.6</ele>
        <time>2020-06-23T16:50:30Z</time>
      </trkpt>
      <trkpt lat="50.65866" lon="3.03937">
        <ele>21.5</ele>
        <time>2020-06-23T16:50:31Z</time>
      </trkpt>
      <trkpt lat="50.6586" lon="3.03944">
        <ele>21.4</ele>
        <time>2020-06-23T16:50:32Z</time>
      </trkpt>
      <trkpt lat="50.65855" lon="3.03952">
        <ele>21.4</ele>
        <time>2020-06-23T16:50:33Z</time>
      </trkpt>
      <trkpt lat="50.6585" lon="3.03959">
        <ele>21.4</ele>
        <time>2020-06-23T16:50:34Z</time>
      </trkpt>
      <trkpt lat="50.65845" lon="3.03966">
        <ele>21.4</ele>
        <time>2020-06-23T16:50:35Z</time>
      </trkpt>
      <trkpt lat="50.65839" lon="3.03973">
        <ele>21.4</ele>
        <time>2020-06-23T16:50:36Z</time>
      </trkpt>
      <trkpt lat="50.65835" lon="3.03981">
        <ele>21.5</ele>
        <time>2020-06-23T16:50:37Z</time>
      </trkpt>
      <trkpt lat="50.65829" lon="3.03987">
        <ele>21.5</ele>
        <time>2020-06-23T16:50:38Z</time>
      </trkpt>
      <trkpt lat="50.65823" lon="3.03993">
        <ele>21.5</ele>
        <time>2020-06-23T16:50:39Z</time>
      </trkpt>
      <trkpt lat="50.65818" lon="3.03999">
        <ele>21.6</ele>
        <time>2020-06-23T16:50:40Z</time>
      </trkpt>
      <trkpt lat="50.65813" lon="3.04006">
        <ele>21.6</ele>
        <time>2020-06-23T16:50:41Z</time>
      </trkpt>
      <trkpt lat="50.65808" lon="3.0401">
        <ele>21.6</ele>
        <time>2020-06-23T16:50:42Z</time>
      </trkpt>
      <trkpt lat="50.65803" lon="3.04014">
        <ele>21.7</ele>
        <time>2020-06-23T16:50:43Z</time>
      </trkpt>
      <trkpt lat="50.658" lon="3.04016">
        <ele>21.7</ele>
        <time>2020-06-23T16:50:44Z</time>
      </trkpt>
      <trkpt lat="50.65797" lon="3.04018">
        <ele>21.7</ele>
        <time>2020-06-23T16:50:45Z</time>
      </trkpt>
      <trkpt lat="50.65795" lon="3.04022">
        <ele>21.8</ele>
        <time>2020-06-23T16:50:46Z</time>
      </trkpt>
      <trkpt lat="50.65792" lon="3.04024">
        <ele>21.8</ele>
        <time>2020-06-23T16:50:47Z</time>
      </trkpt>
      <trkpt lat="50.65789" lon="3.04025">
        <ele>21.8</ele>
        <time>2020-06-23T16:50:48Z</time>
      </trkpt>
      <trkpt lat="50.65785" lon="3.04025">
        <ele>21.8</ele>
        <time>2020-06-23T16:50:49Z</time>
      </trkpt>
      <trkpt lat="50.65781" lon="3.04026">
        <ele>21.8</ele>
        <time>2020-06-23T16:50:50Z</time>
      </trkpt>
      <trkpt lat="50.65777" lon="3.04027">
        <ele>21.9</ele>
        <time>2020-06-23T16:50:51Z</time>
      </trkpt>
      <trkpt lat="50.65774" lon="3.04028">
        <ele>21.9</ele>
        <time>2020-06-23T16:50:52Z</time>
      </trkpt>
      <trkpt lat="50.6577" lon="3.0403">
        <ele>21.9</ele>
        <time>2020-06-23T16:50:53Z</time>
      </trkpt>
      <trkpt lat="50.65766" lon="3.04032">
        <ele>22</ele>
        <time>2020-06-23T16:50:54Z</time>
      </trkpt>
      <trkpt lat="50.65762" lon="3.04034">
        <ele>21.9</ele>
        <time>2020-06-23T16:50:55Z</time>
      </trkpt>
      <trkpt lat="50.65756" lon="3.04038">
        <ele>21.9</ele>
        <time>2020-06-23T16:50:56Z</time>
      </trkpt>
      <trkpt lat="50.6575" lon="3.04042">
        <ele>21.9</ele>
        <time>2020-06-23T16:50:57Z</time>
      </trkpt>
      <trkpt lat="50.65744" lon="3.04045">
        <ele>21.9</ele>
        <time>2020-06-23T16:50:58Z</time>
      </trkpt>
      <trkpt lat="50.65738" lon="3.04049">
        <ele>21.9</ele>
        <time>2020-06-23T16:50:59Z</time>
      </trkpt>
      <trkpt lat="50.65731" lon="3.0405">
        <ele>21.9</ele>
        <time>2020-06-23T16:51:00Z</time>
      </trkpt>
      <trkpt lat="50.65725" lon="3.04052">
        <ele>21.9</ele>
        <time>2020-06-23T16:51:01Z</time>
      </trkpt>
      <trkpt lat="50.65719" lon="3.04055">
        <ele>21.9</ele>
        <time>2020-06-23T16:51:02Z</time>
      </trkpt>
      <trkpt lat="50.65713" lon="3.0406">
        <ele>21.9</ele>
        <time>2020-06-23T16:51:03Z</time>
      </trkpt>
      <trkpt lat="50.65707" lon="3.04063">
        <ele>21.9</ele>
        <time>2020-06-23T16:51:04Z</time>
      </trkpt>
      <trkpt lat="50.65701" lon="3.04066">
        <ele>21.9</ele>
        <time>2020-06-23T16:51:05Z</time>
      </trkpt>
      <trkpt lat="50.65694" lon="3.0407">
        <ele>22</ele>
        <time>2020-06-23T16:51:06Z</time>
      </trkpt>
      <trkpt lat="50.65687" lon="3.04073">
        <ele>21.9</ele>
        <time>2020-06-23T16:51:07Z</time>
      </trkpt>
      <trkpt lat="50.6568" lon="3.04077">
        <ele>21.8</ele>
        <time>2020-06-23T16:51:08Z</time>
      </trkpt>
      <trkpt lat="50.65672" lon="3.04084">
        <ele>21.6</ele>
        <time>2020-06-23T16:51:09Z</time>
      </trkpt>
      <trkpt lat="50.65665" lon="3.04088">
        <ele>21.5</ele>
        <time>2020-06-23T16:51:10Z</time>
      </trkpt>
      <trkpt lat="50.65657" lon="3.04096">
        <ele>21.4</ele>
        <time>2020-06-23T16:51:11Z</time>
      </trkpt>
      <trkpt lat="50.65648" lon="3.04103">
        <ele>21.3</ele>
        <time>2020-06-23T16:51:12Z</time>
      </trkpt>
      <trkpt lat="50.65639" lon="3.04109">
        <ele>21.3</ele>
        <time>2020-06-23T16:51:13Z</time>
      </trkpt>
      <trkpt lat="50.65632" lon="3.04116">
        <ele>21.3</ele>
        <time>2020-06-23T16:51:14Z</time>
      </trkpt>
      <trkpt lat="50.65626" lon="3.04124">
        <ele>21.3</ele>
        <time>2020-06-23T16:51:15Z</time>
      </trkpt>
      <trkpt lat="50.65621" lon="3.04133">
        <ele>21.3</ele>
        <time>2020-06-23T16:51:16Z</time>
      </trkpt>
      <trkpt lat="50.65617" lon="3.04143">
        <ele>21.3</ele>
        <time>2020-06-23T16:51:17Z</time>
      </trkpt>
      <trkpt lat="50.65613" lon="3.04153">
        <ele>21.3</ele>
        <time>2020-06-23T16:51:18Z</time>
      </trkpt>
      <trkpt lat="50.6561" lon="3.04164">
        <ele>21.3</ele>
        <time>2020-06-23T16:51:19Z</time>
      </trkpt>
      <trkpt lat="50.65605" lon="3.04174">
        <ele>21.3</ele>
        <time>2020-06-23T16:51:20Z</time>
      </trkpt>
      <trkpt lat="50.65601" lon="3.04185">
        <ele>21.3</ele>
        <time>2020-06-23T16:51:21Z</time>
      </trkpt>
      <trkpt lat="50.65597" lon="3.04195">
        <ele>21.3</ele>
        <time>2020-06-23T16:51:22Z</time>
      </trkpt>
      <trkpt lat="50.65593" lon="3.04205">
        <ele>21.4</ele>
        <time>2020-06-23T16:51:23Z</time>
      </trkpt>
      <trkpt lat="50.65589" lon="3.04214">
        <ele>21.4</ele>
        <time>2020-06-23T16:51:24Z</time>
      </trkpt>
      <trkpt lat="50.65585" lon="3.04223">
        <ele>21.4</ele>
        <time>2020-06-23T16:51:25Z</time>
      </trkpt>
      <trkpt lat="50.65582" lon="3.04233">
        <ele>21.3</ele>
        <time>2020-06-23T16:51:26Z</time>
      </trkpt>
      <trkpt lat="50.65577" lon="3.04242">
        <ele>21.3</ele>
        <time>2020-06-23T16:51:27Z</time>
      </trkpt>
      <trkpt lat="50.65573" lon="3.04252">
        <ele>21.3</ele>
        <time>2020-06-23T16:51:28Z</time>
      </trkpt>
      <trkpt lat="50.65569" lon="3.04262">
        <ele>21.3</ele>
        <time>2020-06-23T16:51:29Z</time>
      </trkpt>
      <trkpt lat="50.65565" lon="3.04272">
        <ele>21.3</ele>
        <time>2020-06-23T16:51:30Z</time>
      </trkpt>
      <trkpt lat="50.65561" lon="3.04283">
        <ele>21.3</ele>
        <time>2020-06-23T16:51:31Z</time>
      </trkpt>
      <trkpt lat="50.65557" lon="3.04292">
        <ele>21.3</ele>
        <time>2020-06-23T16:51:32Z</time>
      </trkpt>
      <trkpt lat="50.65553" lon="3.04301">
        <ele>21.2</ele>
        <time>2020-06-23T16:51:33Z</time>
      </trkpt>
      <trkpt lat="50.65549" lon="3.0431">
        <ele>21.2</ele>
        <time>2020-06-23T16:51:34Z</time>
      </trkpt>
      <trkpt lat="50.65545" lon="3.0432">
        <ele>21.2</ele>
        <time>2020-06-23T16:51:35Z</time>
      </trkpt>
      <trkpt lat="50.65541" lon="3.04329">
        <ele>21.2</ele>
        <time>2020-06-23T16:51:36Z</time>
      </trkpt>
      <trkpt lat="50.65537" lon="3.04338">
        <ele>21.3</ele>
        <time>2020-06-23T16:51:37Z</time>
      </trkpt>
      <trkpt lat="50.65532" lon="3.04349">
        <ele>21.3</ele>
        <time>2020-06-23T16:51:38Z</time>
      </trkpt>
      <trkpt lat="50.65528" lon="3.04357">
        <ele>21.4</ele>
        <time>2020-06-23T16:51:39Z</time>
      </trkpt>
      <trkpt lat="50.65523" lon="3.04367">
        <ele>21.4</ele>
        <time>2020-06-23T16:51:40Z</time>
      </trkpt>
      <trkpt lat="50.65519" lon="3.04376">
        <ele>21.3</ele>
        <time>2020-06-23T16:51:41Z</time>
      </trkpt>
      <trkpt lat="50.65515" lon="3.04386">
        <ele>21.3</ele>
        <time>2020-06-23T16:51:42Z</time>
      </trkpt>
      <trkpt lat="50.65511" lon="3.04396">
        <ele>21.2</ele>
        <time>2020-06-23T16:51:43Z</time>
      </trkpt>
      <trkpt lat="50.65507" lon="3.04407">
        <ele>21.1</ele>
        <time>2020-06-23T16:51:44Z</time>
      </trkpt>
      <trkpt lat="50.65503" lon="3.04417">
        <ele>21</ele>
        <time>2020-06-23T16:51:45Z</time>
      </trkpt>
      <trkpt lat="50.65499" lon="3.04427">
        <ele>20.9</ele>
        <time>2020-06-23T16:51:46Z</time>
      </trkpt>
      <trkpt lat="50.65496" lon="3.04438">
        <ele>20.8</ele>
        <time>2020-06-23T16:51:47Z</time>
      </trkpt>
      <trkpt lat="50.65492" lon="3.04447">
        <ele>20.6</ele>
        <time>2020-06-23T16:51:48Z</time>
      </trkpt>
      <trkpt lat="50.65488" lon="3.04456">
        <ele>20.5</ele>
        <time>2020-06-23T16:51:49Z</time>
      </trkpt>
      <trkpt lat="50.65483" lon="3.04465">
        <ele>20.3</ele>
        <time>2020-06-23T16:51:50Z</time>
      </trkpt>
      <trkpt lat="50.65479" lon="3.04475">
        <ele>20.1</ele>
        <time>2020-06-23T16:51:51Z</time>
      </trkpt>
      <trkpt lat="50.65476" lon="3.04484">
        <ele>19.9</ele>
        <time>2020-06-23T16:51:52Z</time>
      </trkpt>
      <trkpt lat="50.65473" lon="3.04494">
        <ele>19.7</ele>
        <time>2020-06-23T16:51:53Z</time>
      </trkpt>
      <trkpt lat="50.6547" lon="3.04505">
        <ele>19.5</ele>
        <time>2020-06-23T16:51:54Z</time>
      </trkpt>
      <trkpt lat="50.65469" lon="3.04517">
        <ele>19.5</ele>
        <time>2020-06-23T16:51:55Z</time>
      </trkpt>
      <trkpt lat="50.65467" lon="3.04529">
        <ele>19.5</ele>
        <time>2020-06-23T16:51:56Z</time>
      </trkpt>
      <trkpt lat="50.65466" lon="3.04541">
        <ele>19.5</ele>
        <time>2020-06-23T16:51:57Z</time>
      </trkpt>
      <trkpt lat="50.65466" lon="3.04554">
        <ele>19.6</ele>
        <time>2020-06-23T16:51:58Z</time>
      </trkpt>
      <trkpt lat="50.65468" lon="3.04567">
        <ele>19.8</ele>
        <time>2020-06-23T16:51:59Z</time>
      </trkpt>
      <trkpt lat="50.6547" lon="3.04579">
        <ele>19.9</ele>
        <time>2020-06-23T16:52:00Z</time>
      </trkpt>
      <trkpt lat="50.65471" lon="3.04592">
        <ele>20</ele>
        <time>2020-06-23T16:52:01Z</time>
      </trkpt>
      <trkpt lat="50.65473" lon="3.04605">
        <ele>20.1</ele>
        <time>2020-06-23T16:52:02Z</time>
      </trkpt>
      <trkpt lat="50.65474" lon="3.04617">
        <ele>20.3</ele>
        <time>2020-06-23T16:52:03Z</time>
      </trkpt>
      <trkpt lat="50.65476" lon="3.04629">
        <ele>20.4</ele>
        <time>2020-06-23T16:52:04Z</time>
      </trkpt>
      <trkpt lat="50.65477" lon="3.04641">
        <ele>20.5</ele>
        <time>2020-06-23T16:52:05Z</time>
      </trkpt>
      <trkpt lat="50.65478" lon="3.04653">
        <ele>20.5</ele>
        <time>2020-06-23T16:52:06Z</time>
      </trkpt>
      <trkpt lat="50.65479" lon="3.04665">
        <ele>20.5</ele>
        <time>2020-06-23T16:52:07Z</time>
      </trkpt>
      <trkpt lat="50.6548" lon="3.04677">
        <ele>20.6</ele>
        <time>2020-06-23T16:52:08Z</time>
      </trkpt>
      <trkpt lat="50.65481" lon="3.04688">
        <ele>20.6</ele>
        <time>2020-06-23T16:52:09Z</time>
      </trkpt>
      <trkpt lat="50.65482" lon="3.047">
        <ele>20.7</ele>
        <time>2020-06-23T16:52:10Z</time>
      </trkpt>
      <trkpt lat="50.65484" lon="3.04712">
        <ele>20.9</ele>
        <time>2020-06-23T16:52:11Z</time>
      </trkpt>
      <trkpt lat="50.65485" lon="3.04723">
        <ele>21</ele>
        <time>2020-06-23T16:52:12Z</time>
      </trkpt>
      <trkpt lat="50.65486" lon="3.04734">
        <ele>21.1</ele>
        <time>2020-06-23T16:52:13Z</time>
      </trkpt>
      <trkpt lat="50.65487" lon="3.04744">
        <ele>21.2</ele>
        <time>2020-06-23T16:52:14Z</time>
      </trkpt>
      <trkpt lat="50.65488" lon="3.04755">
        <ele>21.3</ele>
        <time>2020-06-23T16:52:15Z</time>
      </trkpt>
      <trkpt lat="50.6549" lon="3.04766">
        <ele>21.5</ele>
        <time>2020-06-23T16:52:16Z</time>
      </trkpt>
      <trkpt lat="50.65492" lon="3.04776">
        <ele>21.6</ele>
        <time>2020-06-23T16:52:17Z</time>
      </trkpt>
      <trkpt lat="50.65494" lon="3.04787">
        <ele>21.7</ele>
        <time>2020-06-23T16:52:18Z</time>
      </trkpt>
      <trkpt lat="50.65496" lon="3.04797">
        <ele>21.8</ele>
        <time>2020-06-23T16:52:19Z</time>
      </trkpt>
      <trkpt lat="50.65498" lon="3.04806">
        <ele>22</ele>
        <time>2020-06-23T16:52:20Z</time>
      </trkpt>
      <trkpt lat="50.65501" lon="3.04815">
        <ele>22.1</ele>
        <time>2020-06-23T16:52:21Z</time>
      </trkpt>
      <trkpt lat="50.65504" lon="3.04824">
        <ele>22.2</ele>
        <time>2020-06-23T16:52:22Z</time>
      </trkpt>
      <trkpt lat="50.65507" lon="3.04832">
        <ele>22.4</ele>
        <time>2020-06-23T16:52:23Z</time>
      </trkpt>
      <trkpt lat="50.6551" lon="3.0484">
        <ele>22.5</ele>
        <time>2020-06-23T16:52:24Z</time>
      </trkpt>
      <trkpt lat="50.65513" lon="3.04848">
        <ele>22.6</ele>
        <time>2020-06-23T16:52:25Z</time>
      </trkpt>
      <trkpt lat="50.65516" lon="3.04856">
        <ele>22.7</ele>
        <time>2020-06-23T16:52:26Z</time>
      </trkpt>
      <trkpt lat="50.6552" lon="3.04862">
        <ele>22.8</ele>
        <time>2020-06-23T16:52:27Z</time>
      </trkpt>
      <trkpt lat="50.65525" lon="3.04868">
        <ele>22.9</ele>
        <time>2020-06-23T16:52:28Z</time>
      </trkpt>
      <trkpt lat="50.65529" lon="3.04875">
        <ele>23</ele>
        <time>2020-06-23T16:52:29Z</time>
      </trkpt>
      <trkpt lat="50.65532" lon="3.04883">
        <ele>23.1</ele>
        <time>2020-06-23T16:52:30Z</time>
      </trkpt>
      <trkpt lat="50.65536" lon="3.04891">
        <ele>23.2</ele>
        <time>2020-06-23T16:52:31Z</time>
      </trkpt>
      <trkpt lat="50.65539" lon="3.04898">
        <ele>23.3</ele>
        <time>2020-06-23T16:52:32Z</time>
      </trkpt>
      <trkpt lat="50.65543" lon="3.04905">
        <ele>23.4</ele>
        <time>2020-06-23T16:52:33Z</time>
      </trkpt>
      <trkpt lat="50.65547" lon="3.04911">
        <ele>23.5</ele>
        <time>2020-06-23T16:52:34Z</time>
      </trkpt>
      <trkpt lat="50.65551" lon="3.04918">
        <ele>23.6</ele>
        <time>2020-06-23T16:52:35Z</time>
      </trkpt>
      <trkpt lat="50.65555" lon="3.04924">
        <ele>23.8</ele>
        <time>2020-06-23T16:52:36Z</time>
      </trkpt>
      <trkpt lat="50.65558" lon="3.04931">
        <ele>24.1</ele>
        <time>2020-06-23T16:52:37Z</time>
      </trkpt>
      <trkpt lat="50.65562" lon="3.04937">
        <ele>24.4</ele>
        <time>2020-06-23T16:52:38Z</time>
      </trkpt>
      <trkpt lat="50.65565" lon="3.04943">
        <ele>24.6</ele>
        <time>2020-06-23T16:52:39Z</time>
      </trkpt>
      <trkpt lat="50.65568" lon="3.04947">
        <ele>25</ele>
        <time>2020-06-23T16:52:40Z</time>
      </trkpt>
      <trkpt lat="50.6557" lon="3.04954">
        <ele>25</ele>
        <time>2020-06-23T16:52:41Z</time>
      </trkpt>
      <trkpt lat="50.6557" lon="3.04957">
        <ele>25</ele>
        <time>2020-06-23T16:52:42Z</time>
      </trkpt>
      <trkpt lat="50.65569" lon="3.04958">
        <ele>25</ele>
        <time>2020-06-23T16:52:43Z</time>
      </trkpt>
      <trkpt lat="50.65565" lon="3.04961">
        <ele>25</ele>
        <time>2020-06-23T16:52:44Z</time>
      </trkpt>
      <trkpt lat="50.65564" lon="3.04962">
        <ele>25</ele>
        <time>2020-06-23T16:52:45Z</time>
      </trkpt>
      <trkpt lat="50.65562" lon="3.04965">
        <ele>25</ele>
        <time>2020-06-23T16:52:46Z</time>
      </trkpt>
      <trkpt lat="50.65559" lon="3.04969">
        <ele>25.1</ele>
        <time>2020-06-23T16:52:47Z</time>
      </trkpt>
      <trkpt lat="50.65555" lon="3.04974">
        <ele>25.2</ele>
        <time>2020-06-23T16:52:48Z</time>
      </trkpt>
      <trkpt lat="50.65551" lon="3.04978">
        <ele>25.3</ele>
        <time>2020-06-23T16:52:49Z</time>
      </trkpt>
      <trkpt lat="50.65546" lon="3.04984">
        <ele>25.3</ele>
        <time>2020-06-23T16:52:50Z</time>
      </trkpt>
      <trkpt lat="50.65542" lon="3.04988">
        <ele>25.4</ele>
        <time>2020-06-23T16:52:51Z</time>
      </trkpt>
      <trkpt lat="50.65539" lon="3.04991">
        <ele>25.3</ele>
        <time>2020-06-23T16:52:52Z</time>
      </trkpt>
      <trkpt lat="50.65536" lon="3.04994">
        <ele>25.3</ele>
        <time>2020-06-23T16:52:53Z</time>
      </trkpt>
      <trkpt lat="50.65534" lon="3.04998">
        <ele>25.3</ele>
        <time>2020-06-23T16:52:54Z</time>
      </trkpt>
      <trkpt lat="50.65531" lon="3.05001">
        <ele>25.2</ele>
        <time>2020-06-23T16:52:55Z</time>
      </trkpt>
      <trkpt lat="50.65528" lon="3.05005">
        <ele>25.2</ele>
        <time>2020-06-23T16:52:56Z</time>
      </trkpt>
      <trkpt lat="50.65524" lon="3.0501">
        <ele>25.2</ele>
        <time>2020-06-23T16:52:57Z</time>
      </trkpt>
      <trkpt lat="50.65521" lon="3.05015">
        <ele>25.1</ele>
        <time>2020-06-23T16:52:58Z</time>
      </trkpt>
      <trkpt lat="50.65518" lon="3.05018">
        <ele>25.1</ele>
        <time>2020-06-23T16:52:59Z</time>
      </trkpt>
      <trkpt lat="50.65515" lon="3.0502">
        <ele>25.1</ele>
        <time>2020-06-23T16:53:00Z</time>
      </trkpt>
      <trkpt lat="50.65513" lon="3.05023">
        <ele>25.1</ele>
        <time>2020-06-23T16:53:01Z</time>
      </trkpt>
      <trkpt lat="50.65512" lon="3.05025">
        <ele>25.1</ele>
        <time>2020-06-23T16:53:02Z</time>
      </trkpt>
      <trkpt lat="50.65511" lon="3.05032">
        <ele>25.1</ele>
        <time>2020-06-23T16:53:03Z</time>
      </trkpt>
      <trkpt lat="50.6551" lon="3.05036">
        <ele>25.1</ele>
        <time>2020-06-23T16:53:04Z</time>
      </trkpt>
      <trkpt lat="50.6551" lon="3.05042">
        <ele>25.1</ele>
        <time>2020-06-23T16:53:05Z</time>
      </trkpt>
      <trkpt lat="50.65511" lon="3.05047">
        <ele>25.1</ele>
        <time>2020-06-23T16:53:06Z</time>
      </trkpt>
      <trkpt lat="50.65511" lon="3.05053">
        <ele>25</ele>
        <time>2020-06-23T16:53:07Z</time>
      </trkpt>
      <trkpt lat="50.6551" lon="3.05061">
        <ele>24.9</ele>
        <time>2020-06-23T16:53:08Z</time>
      </trkpt>
      <trkpt lat="50.65509" lon="3.05068">
        <ele>24.7</ele>
        <time>2020-06-23T16:53:09Z</time>
      </trkpt>
      <trkpt lat="50.65509" lon="3.05075">
        <ele>24.6</ele>
        <time>2020-06-23T16:53:10Z</time>
      </trkpt>
      <trkpt lat="50.65507" lon="3.05081">
        <ele>24.5</ele>
        <time>2020-06-23T16:53:11Z</time>
      </trkpt>
      <trkpt lat="50.65504" lon="3.05084">
        <ele>24.4</ele>
        <time>2020-06-23T16:53:12Z</time>
      </trkpt>
      <trkpt lat="50.655" lon="3.05087">
        <ele>24.2</ele>
        <time>2020-06-23T16:53:13Z</time>
      </trkpt>
      <trkpt lat="50.65496" lon="3.05094">
        <ele>24.1</ele>
        <time>2020-06-23T16:53:14Z</time>
      </trkpt>
      <trkpt lat="50.65492" lon="3.05099">
        <ele>24</ele>
        <time>2020-06-23T16:53:15Z</time>
      </trkpt>
      <trkpt lat="50.65487" lon="3.05105">
        <ele>23.8</ele>
        <time>2020-06-23T16:53:16Z</time>
      </trkpt>
      <trkpt lat="50.65483" lon="3.05111">
        <ele>23.7</ele>
        <time>2020-06-23T16:53:17Z</time>
      </trkpt>
      <trkpt lat="50.65478" lon="3.05117">
        <ele>23.5</ele>
        <time>2020-06-23T16:53:18Z</time>
      </trkpt>
      <trkpt lat="50.65474" lon="3.05124">
        <ele>23.4</ele>
        <time>2020-06-23T16:53:19Z</time>
      </trkpt>
      <trkpt lat="50.65469" lon="3.05131">
        <ele>23.2</ele>
        <time>2020-06-23T16:53:20Z</time>
      </trkpt>
      <trkpt lat="50.65465" lon="3.05138">
        <ele>23</ele>
        <time>2020-06-23T16:53:21Z</time>
      </trkpt>
      <trkpt lat="50.6546" lon="3.05143">
        <ele>22.9</ele>
        <time>2020-06-23T16:53:22Z</time>
      </trkpt>
      <trkpt lat="50.65455" lon="3.05149">
        <ele>22.7</ele>
        <time>2020-06-23T16:53:23Z</time>
      </trkpt>
      <trkpt lat="50.6545" lon="3.05156">
        <ele>22.6</ele>
        <time>2020-06-23T16:53:24Z</time>
      </trkpt>
      <trkpt lat="50.65446" lon="3.05163">
        <ele>22.4</ele>
        <time>2020-06-23T16:53:25Z</time>
      </trkpt>
      <trkpt lat="50.65442" lon="3.05169">
        <ele>22.3</ele>
        <time>2020-06-23T16:53:26Z</time>
      </trkpt>
      <trkpt lat="50.65439" lon="3.05174">
        <ele>22.2</ele>
        <time>2020-06-23T16:53:27Z</time>
      </trkpt>
      <trkpt lat="50.65436" lon="3.05179">
        <ele>22.1</ele>
        <time>2020-06-23T16:53:28Z</time>
      </trkpt>
      <trkpt lat="50.65433" lon="3.05184">
        <ele>22</ele>
        <time>2020-06-23T16:53:29Z</time>
      </trkpt>
      <trkpt lat="50.6543" lon="3.0519">
        <ele>21.9</ele>
        <time>2020-06-23T16:53:30Z</time>
      </trkpt>
      <trkpt lat="50.65427" lon="3.05194">
        <ele>21.8</ele>
        <time>2020-06-23T16:53:31Z</time>
      </trkpt>
      <trkpt lat="50.65424" lon="3.05199">
        <ele>21.7</ele>
        <time>2020-06-23T16:53:32Z</time>
      </trkpt>
      <trkpt lat="50.65421" lon="3.05202">
        <ele>21.6</ele>
        <time>2020-06-23T16:53:33Z</time>
      </trkpt>
      <trkpt lat="50.65418" lon="3.05207">
        <ele>21.5</ele>
        <time>2020-06-23T16:53:34Z</time>
      </trkpt>
      <trkpt lat="50.65415" lon="3.05211">
        <ele>21.4</ele>
        <time>2020-06-23T16:53:35Z</time>
      </trkpt>
      <trkpt lat="50.65412" lon="3.05214">
        <ele>21.3</ele>
        <time>2020-06-23T16:53:36Z</time>
      </trkpt>
      <trkpt lat="50.6541" lon="3.05218">
        <ele>21.3</ele>
        <time>2020-06-23T16:53:37Z</time>
      </trkpt>
      <trkpt lat="50.65407" lon="3.05221">
        <ele>21.2</ele>
        <time>2020-06-23T16:53:38Z</time>
      </trkpt>
      <trkpt lat="50.65406" lon="3.05221">
        <ele>21.2</ele>
        <time>2020-06-23T16:53:39Z</time>
      </trkpt>
      <trkpt lat="50.65406" lon="3.05225">
        <ele>21.2</ele>
        <time>2020-06-23T16:53:40Z</time>
      </trkpt>
      <trkpt lat="50.65407" lon="3.05225">
        <ele>21.2</ele>
        <time>2020-06-23T16:53:41Z</time>
      </trkpt>
      <trkpt lat="50.65407" lon="3.05226">
        <ele>21.2</ele>
        <time>2020-06-23T16:53:42Z</time>
      </trkpt>
      <trkpt lat="50.65407" lon="3.05226">
        <ele>21.2</ele>
        <time>2020-06-23T16:53:43Z</time>
      </trkpt>
      <trkpt lat="50.65407" lon="3.05227">
        <ele>21.2</ele>
        <time>2020-06-23T16:53:44Z</time>
      </trkpt>
      <trkpt lat="50.65407" lon="3.05227">
        <ele>21.2</ele>
        <time>2020-06-23T16:53:45Z</time>
      </trkpt>
      <trkpt lat="50.65408" lon="3.05228">
        <ele>21.2</ele>
        <time>2020-06-23T16:53:46Z</time>
      </trkpt>
      <trkpt lat="50.65408" lon="3.05231">
        <ele>21.2</ele>
        <time>2020-06-23T16:53:47Z</time>
      </trkpt>
      <trkpt lat="50.65409" lon="3.05233">
        <ele>21.2</ele>
        <time>2020-06-23T16:53:48Z</time>
      </trkpt>
      <trkpt lat="50.65409" lon="3.05235">
        <ele>21.3</ele>
        <time>2020-06-23T16:53:49Z</time>
      </trkpt>
      <trkpt lat="50.6541" lon="3.05239">
        <ele>21</ele>
        <time>2020-06-23T16:53:50Z</time>
      </trkpt>
      <trkpt lat="50.65412" lon="3.05245">
        <ele>20.9</ele>
        <time>2020-06-23T16:53:51Z</time>
      </trkpt>
      <trkpt lat="50.65415" lon="3.0525">
        <ele>20.9</ele>
        <time>2020-06-23T16:53:52Z</time>
      </trkpt>
      <trkpt lat="50.65417" lon="3.05256">
        <ele>20.9</ele>
        <time>2020-06-23T16:53:53Z</time>
      </trkpt>
      <trkpt lat="50.6542" lon="3.05263">
        <ele>20.9</ele>
        <time>2020-06-23T16:53:54Z</time>
      </trkpt>
      <trkpt lat="50.65423" lon="3.05269">
        <ele>20.9</ele>
        <time>2020-06-23T16:53:55Z</time>
      </trkpt>
      <trkpt lat="50.65426" lon="3.05277">
        <ele>20.9</ele>
        <time>2020-06-23T16:53:56Z</time>
      </trkpt>
      <trkpt lat="50.65428" lon="3.05284">
        <ele>20.9</ele>
        <time>2020-06-23T16:53:57Z</time>
      </trkpt>
      <trkpt lat="50.6543" lon="3.05292">
        <ele>21</ele>
        <time>2020-06-23T16:53:58Z</time>
      </trkpt>
      <trkpt lat="50.65433" lon="3.05301">
        <ele>21</ele>
        <time>2020-06-23T16:53:59Z</time>
      </trkpt>
      <trkpt lat="50.65436" lon="3.05311">
        <ele>21.1</ele>
        <time>2020-06-23T16:54:00Z</time>
      </trkpt>
      <trkpt lat="50.65437" lon="3.05319">
        <ele>21.2</ele>
        <time>2020-06-23T16:54:01Z</time>
      </trkpt>
      <trkpt lat="50.65438" lon="3.05329">
        <ele>21.3</ele>
        <time>2020-06-23T16:54:02Z</time>
      </trkpt>
      <trkpt lat="50.65438" lon="3.05339">
        <ele>21.5</ele>
        <time>2020-06-23T16:54:03Z</time>
      </trkpt>
      <trkpt lat="50.65437" lon="3.0535">
        <ele>21.6</ele>
        <time>2020-06-23T16:54:04Z</time>
      </trkpt>
      <trkpt lat="50.65437" lon="3.0536">
        <ele>21.8</ele>
        <time>2020-06-23T16:54:05Z</time>
      </trkpt>
      <trkpt lat="50.65437" lon="3.0537">
        <ele>22.1</ele>
        <time>2020-06-23T16:54:06Z</time>
      </trkpt>
      <trkpt lat="50.65437" lon="3.0538">
        <ele>22.3</ele>
        <time>2020-06-23T16:54:07Z</time>
      </trkpt>
      <trkpt lat="50.65436" lon="3.05388">
        <ele>22.5</ele>
        <time>2020-06-23T16:54:08Z</time>
      </trkpt>
      <trkpt lat="50.65435" lon="3.05396">
        <ele>22.7</ele>
        <time>2020-06-23T16:54:09Z</time>
      </trkpt>
      <trkpt lat="50.65433" lon="3.05407">
        <ele>22.9</ele>
        <time>2020-06-23T16:54:10Z</time>
      </trkpt>
      <trkpt lat="50.65432" lon="3.05415">
        <ele>23.1</ele>
        <time>2020-06-23T16:54:11Z</time>
      </trkpt>
      <trkpt lat="50.6543" lon="3.05425">
        <ele>23.3</ele>
        <time>2020-06-23T16:54:12Z</time>
      </trkpt>
      <trkpt lat="50.65429" lon="3.05434">
        <ele>23.5</ele>
        <time>2020-06-23T16:54:13Z</time>
      </trkpt>
      <trkpt lat="50.65428" lon="3.05443">
        <ele>23.7</ele>
        <time>2020-06-23T16:54:14Z</time>
      </trkpt>
      <trkpt lat="50.65428" lon="3.05453">
        <ele>23.9</ele>
        <time>2020-06-23T16:54:15Z</time>
      </trkpt>
      <trkpt lat="50.65427" lon="3.05461">
        <ele>24</ele>
        <time>2020-06-23T16:54:16Z</time>
      </trkpt>
      <trkpt lat="50.65426" lon="3.05468">
        <ele>24.1</ele>
        <time>2020-06-23T16:54:17Z</time>
      </trkpt>
      <trkpt lat="50.65425" lon="3.05473">
        <ele>24.2</ele>
        <time>2020-06-23T16:54:18Z</time>
      </trkpt>
      <trkpt lat="50.65425" lon="3.05481">
        <ele>24.2</ele>
        <time>2020-06-23T16:54:19Z</time>
      </trkpt>
      <trkpt lat="50.65425" lon="3.05488">
        <ele>24.3</ele>
        <time>2020-06-23T16:54:20Z</time>
      </trkpt>
      <trkpt lat="50.65426" lon="3.05495">
        <ele>24.3</ele>
        <time>2020-06-23T16:54:21Z</time>
      </trkpt>
      <trkpt lat="50.65426" lon="3.05504">
        <ele>24.2</ele>
        <time>2020-06-23T16:54:22Z</time>
      </trkpt>
      <trkpt lat="50.65427" lon="3.05514">
        <ele>24.2</ele>
        <time>2020-06-23T16:54:23Z</time>
      </trkpt>
      <trkpt lat="50.65427" lon="3.05523">
        <ele>24.1</ele>
        <time>2020-06-23T16:54:24Z</time>
      </trkpt>
      <trkpt lat="50.65428" lon="3.05531">
        <ele>24</ele>
        <time>2020-06-23T16:54:25Z</time>
      </trkpt>
      <trkpt lat="50.65429" lon="3.05539">
        <ele>23.9</ele>
        <time>2020-06-23T16:54:26Z</time>
      </trkpt>
      <trkpt lat="50.65429" lon="3.05548">
        <ele>23.8</ele>
        <time>2020-06-23T16:54:27Z</time>
      </trkpt>
      <trkpt lat="50.65429" lon="3.05556">
        <ele>23.6</ele>
        <time>2020-06-23T16:54:28Z</time>
      </trkpt>
      <trkpt lat="50.65429" lon="3.05564">
        <ele>23.5</ele>
        <time>2020-06-23T16:54:29Z</time>
      </trkpt>
      <trkpt lat="50.65429" lon="3.05573">
        <ele>23.3</ele>
        <time>2020-06-23T16:54:30Z</time>
      </trkpt>
      <trkpt lat="50.6543" lon="3.05583">
        <ele>23.1</ele>
        <time>2020-06-23T16:54:31Z</time>
      </trkpt>
      <trkpt lat="50.6543" lon="3.05593">
        <ele>22.8</ele>
        <time>2020-06-23T16:54:32Z</time>
      </trkpt>
      <trkpt lat="50.6543" lon="3.05602">
        <ele>22.4</ele>
        <time>2020-06-23T16:54:33Z</time>
      </trkpt>
      <trkpt lat="50.6543" lon="3.05612">
        <ele>22.3</ele>
        <time>2020-06-23T16:54:34Z</time>
      </trkpt>
      <trkpt lat="50.6543" lon="3.05622">
        <ele>21.8</ele>
        <time>2020-06-23T16:54:35Z</time>
      </trkpt>
      <trkpt lat="50.65428" lon="3.05632">
        <ele>21.5</ele>
        <time>2020-06-23T16:54:36Z</time>
      </trkpt>
      <trkpt lat="50.65425" lon="3.05642">
        <ele>21.2</ele>
        <time>2020-06-23T16:54:37Z</time>
      </trkpt>
      <trkpt lat="50.65419" lon="3.05649">
        <ele>20.9</ele>
        <time>2020-06-23T16:54:38Z</time>
      </trkpt>
      <trkpt lat="50.65412" lon="3.05652">
        <ele>20.6</ele>
        <time>2020-06-23T16:54:39Z</time>
      </trkpt>
      <trkpt lat="50.65405" lon="3.05651">
        <ele>20.3</ele>
        <time>2020-06-23T16:54:40Z</time>
      </trkpt>
      <trkpt lat="50.65397" lon="3.0565">
        <ele>20</ele>
        <time>2020-06-23T16:54:41Z</time>
      </trkpt>
      <trkpt lat="50.65389" lon="3.0565">
        <ele>19.4</ele>
        <time>2020-06-23T16:54:42Z</time>
      </trkpt>
      <trkpt lat="50.65381" lon="3.0565">
        <ele>19.2</ele>
        <time>2020-06-23T16:54:43Z</time>
      </trkpt>
      <trkpt lat="50.65373" lon="3.0565">
        <ele>18.9</ele>
        <time>2020-06-23T16:54:44Z</time>
      </trkpt>
      <trkpt lat="50.65364" lon="3.0565">
        <ele>18.6</ele>
        <time>2020-06-23T16:54:45Z</time>
      </trkpt>
      <trkpt lat="50.65356" lon="3.0565">
        <ele>18.4</ele>
        <time>2020-06-23T16:54:46Z</time>
      </trkpt>
      <trkpt lat="50.65348" lon="3.0565">
        <ele>18.2</ele>
        <time>2020-06-23T16:54:47Z</time>
      </trkpt>
      <trkpt lat="50.6534" lon="3.0565">
        <ele>18.1</ele>
        <time>2020-06-23T16:54:48Z</time>
      </trkpt>
      <trkpt lat="50.65332" lon="3.05651">
        <ele>18</ele>
        <time>2020-06-23T16:54:49Z</time>
      </trkpt>
      <trkpt lat="50.65325" lon="3.05653">
        <ele>17.9</ele>
        <time>2020-06-23T16:54:50Z</time>
      </trkpt>
      <trkpt lat="50.65318" lon="3.05656">
        <ele>17.9</ele>
        <time>2020-06-23T16:54:51Z</time>
      </trkpt>
      <trkpt lat="50.6531" lon="3.05657">
        <ele>17.8</ele>
        <time>2020-06-23T16:54:52Z</time>
      </trkpt>
      <trkpt lat="50.65303" lon="3.0566">
        <ele>17.8</ele>
        <time>2020-06-23T16:54:53Z</time>
      </trkpt>
      <trkpt lat="50.65296" lon="3.05662">
        <ele>17.7</ele>
        <time>2020-06-23T16:54:54Z</time>
      </trkpt>
      <trkpt lat="50.65291" lon="3.05667">
        <ele>17.7</ele>
        <time>2020-06-23T16:54:55Z</time>
      </trkpt>
      <trkpt lat="50.65286" lon="3.05673">
        <ele>17.7</ele>
        <time>2020-06-23T16:54:56Z</time>
      </trkpt>
      <trkpt lat="50.65281" lon="3.05679">
        <ele>17.8</ele>
        <time>2020-06-23T16:54:57Z</time>
      </trkpt>
      <trkpt lat="50.65276" lon="3.05685">
        <ele>17.8</ele>
        <time>2020-06-23T16:54:58Z</time>
      </trkpt>
      <trkpt lat="50.65271" lon="3.05691">
        <ele>17.8</ele>
        <time>2020-06-23T16:54:59Z</time>
      </trkpt>
      <trkpt lat="50.65266" lon="3.05697">
        <ele>17.9</ele>
        <time>2020-06-23T16:55:00Z</time>
      </trkpt>
      <trkpt lat="50.6526" lon="3.05703">
        <ele>18</ele>
        <time>2020-06-23T16:55:01Z</time>
      </trkpt>
      <trkpt lat="50.65255" lon="3.05709">
        <ele>18.1</ele>
        <time>2020-06-23T16:55:02Z</time>
      </trkpt>
      <trkpt lat="50.65251" lon="3.05716">
        <ele>18.3</ele>
        <time>2020-06-23T16:55:03Z</time>
      </trkpt>
      <trkpt lat="50.65247" lon="3.05722">
        <ele>18.4</ele>
        <time>2020-06-23T16:55:04Z</time>
      </trkpt>
      <trkpt lat="50.65242" lon="3.05729">
        <ele>18.5</ele>
        <time>2020-06-23T16:55:05Z</time>
      </trkpt>
      <trkpt lat="50.65238" lon="3.05736">
        <ele>18.7</ele>
        <time>2020-06-23T16:55:06Z</time>
      </trkpt>
      <trkpt lat="50.65234" lon="3.05741">
        <ele>18.8</ele>
        <time>2020-06-23T16:55:07Z</time>
      </trkpt>
      <trkpt lat="50.6523" lon="3.05747">
        <ele>18.9</ele>
        <time>2020-06-23T16:55:08Z</time>
      </trkpt>
      <trkpt lat="50.65227" lon="3.05753">
        <ele>19</ele>
        <time>2020-06-23T16:55:09Z</time>
      </trkpt>
      <trkpt lat="50.65224" lon="3.05759">
        <ele>19.1</ele>
        <time>2020-06-23T16:55:10Z</time>
      </trkpt>
      <trkpt lat="50.65221" lon="3.05764">
        <ele>19.6</ele>
        <time>2020-06-23T16:55:11Z</time>
      </trkpt>
      <trkpt lat="50.65221" lon="3.05771">
        <ele>19.8</ele>
        <time>2020-06-23T16:55:12Z</time>
      </trkpt>
      <trkpt lat="50.65219" lon="3.05777">
        <ele>20</ele>
        <time>2020-06-23T16:55:13Z</time>
      </trkpt>
      <trkpt lat="50.65219" lon="3.05785">
        <ele>20.3</ele>
        <time>2020-06-23T16:55:14Z</time>
      </trkpt>
      <trkpt lat="50.6522" lon="3.05792">
        <ele>20.5</ele>
        <time>2020-06-23T16:55:15Z</time>
      </trkpt>
      <trkpt lat="50.6522" lon="3.05799">
        <ele>20.7</ele>
        <time>2020-06-23T16:55:16Z</time>
      </trkpt>
      <trkpt lat="50.65221" lon="3.05806">
        <ele>20.9</ele>
        <time>2020-06-23T16:55:17Z</time>
      </trkpt>
      <trkpt lat="50.65222" lon="3.05812">
        <ele>21</ele>
        <time>2020-06-23T16:55:18Z</time>
      </trkpt>
      <trkpt lat="50.65222" lon="3.05819">
        <ele>21.2</ele>
        <time>2020-06-23T16:55:19Z</time>
      </trkpt>
      <trkpt lat="50.65222" lon="3.05825">
        <ele>21.3</ele>
        <time>2020-06-23T16:55:20Z</time>
      </trkpt>
      <trkpt lat="50.65222" lon="3.05832">
        <ele>21.4</ele>
        <time>2020-06-23T16:55:21Z</time>
      </trkpt>
      <trkpt lat="50.65223" lon="3.05838">
        <ele>21.5</ele>
        <time>2020-06-23T16:55:22Z</time>
      </trkpt>
      <trkpt lat="50.65223" lon="3.05843">
        <ele>21.6</ele>
        <time>2020-06-23T16:55:23Z</time>
      </trkpt>
      <trkpt lat="50.65223" lon="3.05848">
        <ele>21.7</ele>
        <time>2020-06-23T16:55:24Z</time>
      </trkpt>
      <trkpt lat="50.65223" lon="3.05853">
        <ele>21.8</ele>
        <time>2020-06-23T16:55:25Z</time>
      </trkpt>
      <trkpt lat="50.65223" lon="3.05858">
        <ele>21.9</ele>
        <time>2020-06-23T16:55:26Z</time>
      </trkpt>
      <trkpt lat="50.65224" lon="3.05864">
        <ele>22</ele>
        <time>2020-06-23T16:55:27Z</time>
      </trkpt>
      <trkpt lat="50.65224" lon="3.0587">
        <ele>22.2</ele>
        <time>2020-06-23T16:55:28Z</time>
      </trkpt>
      <trkpt lat="50.65225" lon="3.05876">
        <ele>22.4</ele>
        <time>2020-06-23T16:55:29Z</time>
      </trkpt>
      <trkpt lat="50.65226" lon="3.05881">
        <ele>22.5</ele>
        <time>2020-06-23T16:55:30Z</time>
      </trkpt>
      <trkpt lat="50.65228" lon="3.05889">
        <ele>22.7</ele>
        <time>2020-06-23T16:55:31Z</time>
      </trkpt>
      <trkpt lat="50.65231" lon="3.05897">
        <ele>22.9</ele>
        <time>2020-06-23T16:55:32Z</time>
      </trkpt>
      <trkpt lat="50.65231" lon="3.05904">
        <ele>23.1</ele>
        <time>2020-06-23T16:55:33Z</time>
      </trkpt>
      <trkpt lat="50.65232" lon="3.05911">
        <ele>23.3</ele>
        <time>2020-06-23T16:55:34Z</time>
      </trkpt>
      <trkpt lat="50.65234" lon="3.05916">
        <ele>23.4</ele>
        <time>2020-06-23T16:55:35Z</time>
      </trkpt>
      <trkpt lat="50.65234" lon="3.05919">
        <ele>23.4</ele>
        <time>2020-06-23T16:55:36Z</time>
      </trkpt>
      <trkpt lat="50.65236" lon="3.05924">
        <ele>23.5</ele>
        <time>2020-06-23T16:55:37Z</time>
      </trkpt>
      <trkpt lat="50.65239" lon="3.05931">
        <ele>23.7</ele>
        <time>2020-06-23T16:55:38Z</time>
      </trkpt>
      <trkpt lat="50.65241" lon="3.05937">
        <ele>23.8</ele>
        <time>2020-06-23T16:55:39Z</time>
      </trkpt>
      <trkpt lat="50.65243" lon="3.05944">
        <ele>24</ele>
        <time>2020-06-23T16:55:40Z</time>
      </trkpt>
      <trkpt lat="50.65245" lon="3.05952">
        <ele>24.2</ele>
        <time>2020-06-23T16:55:41Z</time>
      </trkpt>
      <trkpt lat="50.65246" lon="3.05959">
        <ele>24.3</ele>
        <time>2020-06-23T16:55:42Z</time>
      </trkpt>
      <trkpt lat="50.65248" lon="3.05966">
        <ele>24.5</ele>
        <time>2020-06-23T16:55:43Z</time>
      </trkpt>
      <trkpt lat="50.65251" lon="3.05973">
        <ele>24.6</ele>
        <time>2020-06-23T16:55:44Z</time>
      </trkpt>
      <trkpt lat="50.65252" lon="3.05981">
        <ele>24.6</ele>
        <time>2020-06-23T16:55:45Z</time>
      </trkpt>
      <trkpt lat="50.65253" lon="3.05989">
        <ele>24.7</ele>
        <time>2020-06-23T16:55:46Z</time>
      </trkpt>
      <trkpt lat="50.65254" lon="3.05996">
        <ele>24.7</ele>
        <time>2020-06-23T16:55:47Z</time>
      </trkpt>
      <trkpt lat="50.65256" lon="3.06003">
        <ele>24.8</ele>
        <time>2020-06-23T16:55:48Z</time>
      </trkpt>
      <trkpt lat="50.65258" lon="3.06009">
        <ele>24.8</ele>
        <time>2020-06-23T16:55:49Z</time>
      </trkpt>
      <trkpt lat="50.6526" lon="3.06016">
        <ele>24.9</ele>
        <time>2020-06-23T16:55:50Z</time>
      </trkpt>
      <trkpt lat="50.65261" lon="3.06023">
        <ele>25</ele>
        <time>2020-06-23T16:55:51Z</time>
      </trkpt>
      <trkpt lat="50.65263" lon="3.06029">
        <ele>25.1</ele>
        <time>2020-06-23T16:55:52Z</time>
      </trkpt>
      <trkpt lat="50.65265" lon="3.06036">
        <ele>25.2</ele>
        <time>2020-06-23T16:55:53Z</time>
      </trkpt>
      <trkpt lat="50.65266" lon="3.06042">
        <ele>25.3</ele>
        <time>2020-06-23T16:55:54Z</time>
      </trkpt>
      <trkpt lat="50.65268" lon="3.06049">
        <ele>25.4</ele>
        <time>2020-06-23T16:55:55Z</time>
      </trkpt>
      <trkpt lat="50.65268" lon="3.06056">
        <ele>25.5</ele>
        <time>2020-06-23T16:55:56Z</time>
      </trkpt>
      <trkpt lat="50.65267" lon="3.06063">
        <ele>25.6</ele>
        <time>2020-06-23T16:55:57Z</time>
      </trkpt>
      <trkpt lat="50.65265" lon="3.06069">
        <ele>25.7</ele>
        <time>2020-06-23T16:55:58Z</time>
      </trkpt>
      <trkpt lat="50.6526" lon="3.06072">
        <ele>25.6</ele>
        <time>2020-06-23T16:55:59Z</time>
      </trkpt>
      <trkpt lat="50.65254" lon="3.06075">
        <ele>25.6</ele>
        <time>2020-06-23T16:56:00Z</time>
      </trkpt>
      <trkpt lat="50.65249" lon="3.06077">
        <ele>25.6</ele>
        <time>2020-06-23T16:56:01Z</time>
      </trkpt>
      <trkpt lat="50.65243" lon="3.06078">
        <ele>25.6</ele>
        <time>2020-06-23T16:56:02Z</time>
      </trkpt>
      <trkpt lat="50.65238" lon="3.06079">
        <ele>25.7</ele>
        <time>2020-06-23T16:56:03Z</time>
      </trkpt>
      <trkpt lat="50.65232" lon="3.06081">
        <ele>25.7</ele>
        <time>2020-06-23T16:56:04Z</time>
      </trkpt>
      <trkpt lat="50.65226" lon="3.06084">
        <ele>25.8</ele>
        <time>2020-06-23T16:56:05Z</time>
      </trkpt>
      <trkpt lat="50.65221" lon="3.06086">
        <ele>25.9</ele>
        <time>2020-06-23T16:56:06Z</time>
      </trkpt>
      <trkpt lat="50.65216" lon="3.06088">
        <ele>25.9</ele>
        <time>2020-06-23T16:56:07Z</time>
      </trkpt>
      <trkpt lat="50.65212" lon="3.06091">
        <ele>26</ele>
        <time>2020-06-23T16:56:08Z</time>
      </trkpt>
      <trkpt lat="50.65206" lon="3.06093">
        <ele>26</ele>
        <time>2020-06-23T16:56:09Z</time>
      </trkpt>
      <trkpt lat="50.652" lon="3.06094">
        <ele>26.1</ele>
        <time>2020-06-23T16:56:10Z</time>
      </trkpt>
      <trkpt lat="50.65196" lon="3.06095">
        <ele>26.2</ele>
        <time>2020-06-23T16:56:11Z</time>
      </trkpt>
      <trkpt lat="50.65192" lon="3.06098">
        <ele>26.2</ele>
        <time>2020-06-23T16:56:12Z</time>
      </trkpt>
      <trkpt lat="50.65185" lon="3.061">
        <ele>26.3</ele>
        <time>2020-06-23T16:56:13Z</time>
      </trkpt>
      <trkpt lat="50.65179" lon="3.06101">
        <ele>26.4</ele>
        <time>2020-06-23T16:56:14Z</time>
      </trkpt>
      <trkpt lat="50.65173" lon="3.06103">
        <ele>26.5</ele>
        <time>2020-06-23T16:56:15Z</time>
      </trkpt>
      <trkpt lat="50.65168" lon="3.06105">
        <ele>26.6</ele>
        <time>2020-06-23T16:56:16Z</time>
      </trkpt>
      <trkpt lat="50.65161" lon="3.06106">
        <ele>26.8</ele>
        <time>2020-06-23T16:56:17Z</time>
      </trkpt>
      <trkpt lat="50.65157" lon="3.06108">
        <ele>26.9</ele>
        <time>2020-06-23T16:56:18Z</time>
      </trkpt>
      <trkpt lat="50.65152" lon="3.0611">
        <ele>27</ele>
        <time>2020-06-23T16:56:19Z</time>
      </trkpt>
      <trkpt lat="50.65146" lon="3.06111">
        <ele>27.1</ele>
        <time>2020-06-23T16:56:20Z</time>
      </trkpt>
      <trkpt lat="50.6514" lon="3.06112">
        <ele>27.2</ele>
        <time>2020-06-23T16:56:21Z</time>
      </trkpt>
      <trkpt lat="50.65136" lon="3.06113">
        <ele>27.3</ele>
        <time>2020-06-23T16:56:22Z</time>
      </trkpt>
      <trkpt lat="50.65131" lon="3.06115">
        <ele>27.3</ele>
        <time>2020-06-23T16:56:23Z</time>
      </trkpt>
      <trkpt lat="50.65126" lon="3.06116">
        <ele>27.4</ele>
        <time>2020-06-23T16:56:24Z</time>
      </trkpt>
      <trkpt lat="50.65121" lon="3.06116">
        <ele>27.5</ele>
        <time>2020-06-23T16:56:25Z</time>
      </trkpt>
      <trkpt lat="50.65115" lon="3.06118">
        <ele>27.6</ele>
        <time>2020-06-23T16:56:26Z</time>
      </trkpt>
      <trkpt lat="50.6511" lon="3.06118">
        <ele>27.7</ele>
        <time>2020-06-23T16:56:27Z</time>
      </trkpt>
      <trkpt lat="50.65105" lon="3.06118">
        <ele>27.7</ele>
        <time>2020-06-23T16:56:28Z</time>
      </trkpt>
      <trkpt lat="50.65099" lon="3.0612">
        <ele>27.7</ele>
        <time>2020-06-23T16:56:29Z</time>
      </trkpt>
      <trkpt lat="50.65092" lon="3.06121">
        <ele>27.8</ele>
        <time>2020-06-23T16:56:30Z</time>
      </trkpt>
      <trkpt lat="50.65087" lon="3.06123">
        <ele>27.8</ele>
        <time>2020-06-23T16:56:31Z</time>
      </trkpt>
      <trkpt lat="50.65081" lon="3.06124">
        <ele>27.8</ele>
        <time>2020-06-23T16:56:32Z</time>
      </trkpt>
      <trkpt lat="50.65076" lon="3.06125">
        <ele>27.9</ele>
        <time>2020-06-23T16:56:33Z</time>
      </trkpt>
      <trkpt lat="50.65071" lon="3.06126">
        <ele>27.9</ele>
        <time>2020-06-23T16:56:34Z</time>
      </trkpt>
      <trkpt lat="50.65066" lon="3.06127">
        <ele>27.9</ele>
        <time>2020-06-23T16:56:35Z</time>
      </trkpt>
      <trkpt lat="50.65061" lon="3.06129">
        <ele>27.8</ele>
        <time>2020-06-23T16:56:36Z</time>
      </trkpt>
      <trkpt lat="50.65056" lon="3.0613">
        <ele>27.7</ele>
        <time>2020-06-23T16:56:37Z</time>
      </trkpt>
      <trkpt lat="50.65052" lon="3.0613">
        <ele>27.6</ele>
        <time>2020-06-23T16:56:38Z</time>
      </trkpt>
      <trkpt lat="50.65048" lon="3.06131">
        <ele>27.5</ele>
        <time>2020-06-23T16:56:39Z</time>
      </trkpt>
      <trkpt lat="50.65045" lon="3.06132">
        <ele>27.4</ele>
        <time>2020-06-23T16:56:40Z</time>
      </trkpt>
      <trkpt lat="50.65039" lon="3.06133">
        <ele>27.3</ele>
        <time>2020-06-23T16:56:41Z</time>
      </trkpt>
      <trkpt lat="50.65035" lon="3.06134">
        <ele>27.2</ele>
        <time>2020-06-23T16:56:42Z</time>
      </trkpt>
      <trkpt lat="50.6503" lon="3.06134">
        <ele>27</ele>
        <time>2020-06-23T16:56:43Z</time>
      </trkpt>
      <trkpt lat="50.65024" lon="3.06136">
        <ele>26.9</ele>
        <time>2020-06-23T16:56:44Z</time>
      </trkpt>
      <trkpt lat="50.6502" lon="3.06138">
        <ele>26.7</ele>
        <time>2020-06-23T16:56:45Z</time>
      </trkpt>
      <trkpt lat="50.65013" lon="3.06138">
        <ele>26.4</ele>
        <time>2020-06-23T16:56:46Z</time>
      </trkpt>
      <trkpt lat="50.65006" lon="3.06137">
        <ele>26.2</ele>
        <time>2020-06-23T16:56:47Z</time>
      </trkpt>
      <trkpt lat="50.65001" lon="3.06136">
        <ele>26</ele>
        <time>2020-06-23T16:56:48Z</time>
      </trkpt>
      <trkpt lat="50.64995" lon="3.06136">
        <ele>25.8</ele>
        <time>2020-06-23T16:56:49Z</time>
      </trkpt>
      <trkpt lat="50.64989" lon="3.06135">
        <ele>25.6</ele>
        <time>2020-06-23T16:56:50Z</time>
      </trkpt>
      <trkpt lat="50.64985" lon="3.06134">
        <ele>25.5</ele>
        <time>2020-06-23T16:56:51Z</time>
      </trkpt>
      <trkpt lat="50.64979" lon="3.06135">
        <ele>25.2</ele>
        <time>2020-06-23T16:56:52Z</time>
      </trkpt>
      <trkpt lat="50.64975" lon="3.06135">
        <ele>25.1</ele>
        <time>2020-06-23T16:56:53Z</time>
      </trkpt>
      <trkpt lat="50.64969" lon="3.06136">
        <ele>24.9</ele>
        <time>2020-06-23T16:56:54Z</time>
      </trkpt>
      <trkpt lat="50.64963" lon="3.06136">
        <ele>24.6</ele>
        <time>2020-06-23T16:56:55Z</time>
      </trkpt>
      <trkpt lat="50.64957" lon="3.06136">
        <ele>24.4</ele>
        <time>2020-06-23T16:56:56Z</time>
      </trkpt>
      <trkpt lat="50.64949" lon="3.06138">
        <ele>24.1</ele>
        <time>2020-06-23T16:56:57Z</time>
      </trkpt>
      <trkpt lat="50.64943" lon="3.06138">
        <ele>24</ele>
        <time>2020-06-23T16:56:58Z</time>
      </trkpt>
      <trkpt lat="50.64935" lon="3.06139">
        <ele>23.7</ele>
        <time>2020-06-23T16:56:59Z</time>
      </trkpt>
      <trkpt lat="50.64929" lon="3.06141">
        <ele>23.6</ele>
        <time>2020-06-23T16:57:00Z</time>
      </trkpt>
      <trkpt lat="50.64922" lon="3.06142">
        <ele>23.4</ele>
        <time>2020-06-23T16:57:01Z</time>
      </trkpt>
      <trkpt lat="50.64915" lon="3.06142">
        <ele>23.2</ele>
        <time>2020-06-23T16:57:02Z</time>
      </trkpt>
      <trkpt lat="50.64908" lon="3.06142">
        <ele>23</ele>
        <time>2020-06-23T16:57:03Z</time>
      </trkpt>
      <trkpt lat="50.64902" lon="3.06142">
        <ele>22.8</ele>
        <time>2020-06-23T16:57:04Z</time>
      </trkpt>
      <trkpt lat="50.64895" lon="3.06141">
        <ele>22.6</ele>
        <time>2020-06-23T16:57:05Z</time>
      </trkpt>
      <trkpt lat="50.64888" lon="3.06141">
        <ele>22.4</ele>
        <time>2020-06-23T16:57:06Z</time>
      </trkpt>
      <trkpt lat="50.64882" lon="3.06141">
        <ele>22.2</ele>
        <time>2020-06-23T16:57:07Z</time>
      </trkpt>
      <trkpt lat="50.64876" lon="3.06141">
        <ele>22.1</ele>
        <time>2020-06-23T16:57:08Z</time>
      </trkpt>
      <trkpt lat="50.6487" lon="3.06141">
        <ele>22</ele>
        <time>2020-06-23T16:57:09Z</time>
      </trkpt>
      <trkpt lat="50.64862" lon="3.0614">
        <ele>21.9</ele>
        <time>2020-06-23T16:57:10Z</time>
      </trkpt>
      <trkpt lat="50.64856" lon="3.0614">
        <ele>21.8</ele>
        <time>2020-06-23T16:57:11Z</time>
      </trkpt>
      <trkpt lat="50.6485" lon="3.06139">
        <ele>21.8</ele>
        <time>2020-06-23T16:57:12Z</time>
      </trkpt>
      <trkpt lat="50.64845" lon="3.06139">
        <ele>21.7</ele>
        <time>2020-06-23T16:57:13Z</time>
      </trkpt>
      <trkpt lat="50.64841" lon="3.06139">
        <ele>21.7</ele>
        <time>2020-06-23T16:57:14Z</time>
      </trkpt>
      <trkpt lat="50.64838" lon="3.06139">
        <ele>21.7</ele>
        <time>2020-06-23T16:57:15Z</time>
      </trkpt>
      <trkpt lat="50.64835" lon="3.06143">
        <ele>21.7</ele>
        <time>2020-06-23T16:57:16Z</time>
      </trkpt>
      <trkpt lat="50.64835" lon="3.06147">
        <ele>21.6</ele>
        <time>2020-06-23T16:57:17Z</time>
      </trkpt>
      <trkpt lat="50.64835" lon="3.06148">
        <ele>21.6</ele>
        <time>2020-06-23T16:57:18Z</time>
      </trkpt>
      <trkpt lat="50.64835" lon="3.06148">
        <ele>21.6</ele>
        <time>2020-06-23T16:57:19Z</time>
      </trkpt>
      <trkpt lat="50.64836" lon="3.06147">
        <ele>21.6</ele>
        <time>2020-06-23T16:57:20Z</time>
      </trkpt>
      <trkpt lat="50.64837" lon="3.06146">
        <ele>21.7</ele>
        <time>2020-06-23T16:57:21Z</time>
      </trkpt>
      <trkpt lat="50.64837" lon="3.06146">
        <ele>21.7</ele>
        <time>2020-06-23T16:57:22Z</time>
      </trkpt>
      <trkpt lat="50.64837" lon="3.06146">
        <ele>21.7</ele>
        <time>2020-06-23T16:57:23Z</time>
      </trkpt>
      <trkpt lat="50.64837" lon="3.06147">
        <ele>21.7</ele>
        <time>2020-06-23T16:57:24Z</time>
      </trkpt>
      <trkpt lat="50.64837" lon="3.06147">
        <ele>21.6</ele>
        <time>2020-06-23T16:57:25Z</time>
      </trkpt>
      <trkpt lat="50.64836" lon="3.06148">
        <ele>21.7</ele>
        <time>2020-06-23T16:57:26Z</time>
      </trkpt>
      <trkpt lat="50.64837" lon="3.06149">
        <ele>21.7</ele>
        <time>2020-06-23T16:57:27Z</time>
      </trkpt>
      <trkpt lat="50.64837" lon="3.06149">
        <ele>21.7</ele>
        <time>2020-06-23T16:57:28Z</time>
      </trkpt>
      <trkpt lat="50.64838" lon="3.06149">
        <ele>21.7</ele>
        <time>2020-06-23T16:57:29Z</time>
      </trkpt>
      <trkpt lat="50.64837" lon="3.0615">
        <ele>21.7</ele>
        <time>2020-06-23T16:57:30Z</time>
      </trkpt>
      <trkpt lat="50.64836" lon="3.06151">
        <ele>21.7</ele>
        <time>2020-06-23T16:57:31Z</time>
      </trkpt>
      <trkpt lat="50.64836" lon="3.06154">
        <ele>21.8</ele>
        <time>2020-06-23T16:57:32Z</time>
      </trkpt>
      <trkpt lat="50.64835" lon="3.06158">
        <ele>21.9</ele>
        <time>2020-06-23T16:57:33Z</time>
      </trkpt>
      <trkpt lat="50.64834" lon="3.0616">
        <ele>21.9</ele>
        <time>2020-06-23T16:57:34Z</time>
      </trkpt>
      <trkpt lat="50.64833" lon="3.06166">
        <ele>22</ele>
        <time>2020-06-23T16:57:35Z</time>
      </trkpt>
      <trkpt lat="50.64832" lon="3.06167">
        <ele>22.1</ele>
        <time>2020-06-23T16:57:36Z</time>
      </trkpt>
      <trkpt lat="50.6483" lon="3.06174">
        <ele>22.2</ele>
        <time>2020-06-23T16:57:37Z</time>
      </trkpt>
      <trkpt lat="50.64829" lon="3.06179">
        <ele>22.3</ele>
        <time>2020-06-23T16:57:38Z</time>
      </trkpt>
      <trkpt lat="50.64828" lon="3.06187">
        <ele>22.4</ele>
        <time>2020-06-23T16:57:39Z</time>
      </trkpt>
      <trkpt lat="50.64827" lon="3.06193">
        <ele>22.7</ele>
        <time>2020-06-23T16:57:40Z</time>
      </trkpt>
      <trkpt lat="50.64827" lon="3.062">
        <ele>22.7</ele>
        <time>2020-06-23T16:57:41Z</time>
      </trkpt>
      <trkpt lat="50.64827" lon="3.06207">
        <ele>22.7</ele>
        <time>2020-06-23T16:57:42Z</time>
      </trkpt>
      <trkpt lat="50.64827" lon="3.06215">
        <ele>22.7</ele>
        <time>2020-06-23T16:57:43Z</time>
      </trkpt>
      <trkpt lat="50.64827" lon="3.06223">
        <ele>22.8</ele>
        <time>2020-06-23T16:57:44Z</time>
      </trkpt>
      <trkpt lat="50.64826" lon="3.06231">
        <ele>22.8</ele>
        <time>2020-06-23T16:57:45Z</time>
      </trkpt>
      <trkpt lat="50.64824" lon="3.0624">
        <ele>22.9</ele>
        <time>2020-06-23T16:57:46Z</time>
      </trkpt>
      <trkpt lat="50.64823" lon="3.06247">
        <ele>22.9</ele>
        <time>2020-06-23T16:57:47Z</time>
      </trkpt>
      <trkpt lat="50.64822" lon="3.06252">
        <ele>23</ele>
        <time>2020-06-23T16:57:48Z</time>
      </trkpt>
      <trkpt lat="50.64821" lon="3.06255">
        <ele>23</ele>
        <time>2020-06-23T16:57:49Z</time>
      </trkpt>
      <trkpt lat="50.64821" lon="3.0626">
        <ele>23</ele>
        <time>2020-06-23T16:57:50Z</time>
      </trkpt>
      <trkpt lat="50.6482" lon="3.06262">
        <ele>23.1</ele>
        <time>2020-06-23T16:57:51Z</time>
      </trkpt>
      <trkpt lat="50.6482" lon="3.06268">
        <ele>23.1</ele>
        <time>2020-06-23T16:57:52Z</time>
      </trkpt>
      <trkpt lat="50.64819" lon="3.06274">
        <ele>23.2</ele>
        <time>2020-06-23T16:57:53Z</time>
      </trkpt>
      <trkpt lat="50.64819" lon="3.06279">
        <ele>23.3</ele>
        <time>2020-06-23T16:57:54Z</time>
      </trkpt>
      <trkpt lat="50.64817" lon="3.06286">
        <ele>23.4</ele>
        <time>2020-06-23T16:57:55Z</time>
      </trkpt>
      <trkpt lat="50.64814" lon="3.06293">
        <ele>23.5</ele>
        <time>2020-06-23T16:57:56Z</time>
      </trkpt>
      <trkpt lat="50.64812" lon="3.06299">
        <ele>23.6</ele>
        <time>2020-06-23T16:57:57Z</time>
      </trkpt>
      <trkpt lat="50.64809" lon="3.06305">
        <ele>23.7</ele>
        <time>2020-06-23T16:57:58Z</time>
      </trkpt>
      <trkpt lat="50.64806" lon="3.06313">
        <ele>23.8</ele>
        <time>2020-06-23T16:57:59Z</time>
      </trkpt>
      <trkpt lat="50.64801" lon="3.06319">
        <ele>23.9</ele>
        <time>2020-06-23T16:58:00Z</time>
      </trkpt>
      <trkpt lat="50.64798" lon="3.06325">
        <ele>24</ele>
        <time>2020-06-23T16:58:01Z</time>
      </trkpt>
      <trkpt lat="50.64795" lon="3.06331">
        <ele>24.1</ele>
        <time>2020-06-23T16:58:02Z</time>
      </trkpt>
      <trkpt lat="50.64792" lon="3.06335">
        <ele>24.1</ele>
        <time>2020-06-23T16:58:03Z</time>
      </trkpt>
      <trkpt lat="50.64789" lon="3.06339">
        <ele>24.2</ele>
        <time>2020-06-23T16:58:04Z</time>
      </trkpt>
      <trkpt lat="50.64787" lon="3.06344">
        <ele>24.2</ele>
        <time>2020-06-23T16:58:05Z</time>
      </trkpt>
      <trkpt lat="50.64784" lon="3.0635">
        <ele>24.3</ele>
        <time>2020-06-23T16:58:06Z</time>
      </trkpt>
      <trkpt lat="50.64781" lon="3.06354">
        <ele>24.3</ele>
        <time>2020-06-23T16:58:07Z</time>
      </trkpt>
      <trkpt lat="50.64777" lon="3.06356">
        <ele>24.3</ele>
        <time>2020-06-23T16:58:08Z</time>
      </trkpt>
      <trkpt lat="50.64774" lon="3.06361">
        <ele>24.4</ele>
        <time>2020-06-23T16:58:09Z</time>
      </trkpt>
      <trkpt lat="50.64772" lon="3.06365">
        <ele>24.4</ele>
        <time>2020-06-23T16:58:10Z</time>
      </trkpt>
      <trkpt lat="50.64768" lon="3.06367">
        <ele>24.5</ele>
        <time>2020-06-23T16:58:11Z</time>
      </trkpt>
      <trkpt lat="50.64765" lon="3.0637">
        <ele>24.5</ele>
        <time>2020-06-23T16:58:12Z</time>
      </trkpt>
      <trkpt lat="50.64762" lon="3.06374">
        <ele>24.5</ele>
        <time>2020-06-23T16:58:13Z</time>
      </trkpt>
      <trkpt lat="50.64759" lon="3.06376">
        <ele>24.6</ele>
        <time>2020-06-23T16:58:14Z</time>
      </trkpt>
      <trkpt lat="50.64757" lon="3.06378">
        <ele>24.6</ele>
        <time>2020-06-23T16:58:15Z</time>
      </trkpt>
      <trkpt lat="50.64754" lon="3.06381">
        <ele>24.6</ele>
        <time>2020-06-23T16:58:16Z</time>
      </trkpt>
      <trkpt lat="50.64751" lon="3.06384">
        <ele>24.6</ele>
        <time>2020-06-23T16:58:17Z</time>
      </trkpt>
      <trkpt lat="50.64748" lon="3.06385">
        <ele>24.7</ele>
        <time>2020-06-23T16:58:18Z</time>
      </trkpt>
      <trkpt lat="50.64745" lon="3.06388">
        <ele>24.7</ele>
        <time>2020-06-23T16:58:19Z</time>
      </trkpt>
      <trkpt lat="50.64741" lon="3.0639">
        <ele>24.7</ele>
        <time>2020-06-23T16:58:20Z</time>
      </trkpt>
      <trkpt lat="50.64737" lon="3.06392">
        <ele>24.8</ele>
        <time>2020-06-23T16:58:21Z</time>
      </trkpt>
      <trkpt lat="50.64735" lon="3.06394">
        <ele>24.8</ele>
        <time>2020-06-23T16:58:22Z</time>
      </trkpt>
      <trkpt lat="50.64732" lon="3.06397">
        <ele>24.8</ele>
        <time>2020-06-23T16:58:23Z</time>
      </trkpt>
      <trkpt lat="50.64729" lon="3.064">
        <ele>24.8</ele>
        <time>2020-06-23T16:58:24Z</time>
      </trkpt>
      <trkpt lat="50.64726" lon="3.06404">
        <ele>24.8</ele>
        <time>2020-06-23T16:58:25Z</time>
      </trkpt>
      <trkpt lat="50.64722" lon="3.06406">
        <ele>24.9</ele>
        <time>2020-06-23T16:58:26Z</time>
      </trkpt>
      <trkpt lat="50.64719" lon="3.06409">
        <ele>24.9</ele>
        <time>2020-06-23T16:58:27Z</time>
      </trkpt>
      <trkpt lat="50.64716" lon="3.06412">
        <ele>24.9</ele>
        <time>2020-06-23T16:58:28Z</time>
      </trkpt>
      <trkpt lat="50.64712" lon="3.06416">
        <ele>24.9</ele>
        <time>2020-06-23T16:58:29Z</time>
      </trkpt>
      <trkpt lat="50.64709" lon="3.06421">
        <ele>24.8</ele>
        <time>2020-06-23T16:58:30Z</time>
      </trkpt>
      <trkpt lat="50.64706" lon="3.06425">
        <ele>24.8</ele>
        <time>2020-06-23T16:58:31Z</time>
      </trkpt>
      <trkpt lat="50.64701" lon="3.06427">
        <ele>24.8</ele>
        <time>2020-06-23T16:58:32Z</time>
      </trkpt>
      <trkpt lat="50.64698" lon="3.0643">
        <ele>24.8</ele>
        <time>2020-06-23T16:58:33Z</time>
      </trkpt>
      <trkpt lat="50.64695" lon="3.06433">
        <ele>24.8</ele>
        <time>2020-06-23T16:58:34Z</time>
      </trkpt>
      <trkpt lat="50.64691" lon="3.06435">
        <ele>24.8</ele>
        <time>2020-06-23T16:58:35Z</time>
      </trkpt>
      <trkpt lat="50.64688" lon="3.06437">
        <ele>24.7</ele>
        <time>2020-06-23T16:58:36Z</time>
      </trkpt>
      <trkpt lat="50.64685" lon="3.0644">
        <ele>24.7</ele>
        <time>2020-06-23T16:58:37Z</time>
      </trkpt>
      <trkpt lat="50.64683" lon="3.06442">
        <ele>24.7</ele>
        <time>2020-06-23T16:58:38Z</time>
      </trkpt>
      <trkpt lat="50.6468" lon="3.06443">
        <ele>24.7</ele>
        <time>2020-06-23T16:58:39Z</time>
      </trkpt>
      <trkpt lat="50.64677" lon="3.06446">
        <ele>24.7</ele>
        <time>2020-06-23T16:58:40Z</time>
      </trkpt>
      <trkpt lat="50.64674" lon="3.06449">
        <ele>24.7</ele>
        <time>2020-06-23T16:58:41Z</time>
      </trkpt>
      <trkpt lat="50.6467" lon="3.06451">
        <ele>24.7</ele>
        <time>2020-06-23T16:58:42Z</time>
      </trkpt>
      <trkpt lat="50.64667" lon="3.06454">
        <ele>24.6</ele>
        <time>2020-06-23T16:58:43Z</time>
      </trkpt>
      <trkpt lat="50.64662" lon="3.06458">
        <ele>24.6</ele>
        <time>2020-06-23T16:58:44Z</time>
      </trkpt>
      <trkpt lat="50.64659" lon="3.06462">
        <ele>24.6</ele>
        <time>2020-06-23T16:58:45Z</time>
      </trkpt>
      <trkpt lat="50.64656" lon="3.06464">
        <ele>24.5</ele>
        <time>2020-06-23T16:58:46Z</time>
      </trkpt>
      <trkpt lat="50.64652" lon="3.06466">
        <ele>24.5</ele>
        <time>2020-06-23T16:58:47Z</time>
      </trkpt>
      <trkpt lat="50.64648" lon="3.06469">
        <ele>24.5</ele>
        <time>2020-06-23T16:58:48Z</time>
      </trkpt>
      <trkpt lat="50.64644" lon="3.06472">
        <ele>24.5</ele>
        <time>2020-06-23T16:58:49Z</time>
      </trkpt>
      <trkpt lat="50.64643" lon="3.06473">
        <ele>24.5</ele>
        <time>2020-06-23T16:58:50Z</time>
      </trkpt>
      <trkpt lat="50.6464" lon="3.06477">
        <ele>24.5</ele>
        <time>2020-06-23T16:58:51Z</time>
      </trkpt>
      <trkpt lat="50.64639" lon="3.06477">
        <ele>24.5</ele>
        <time>2020-06-23T16:58:52Z</time>
      </trkpt>
      <trkpt lat="50.64638" lon="3.06478">
        <ele>24.5</ele>
        <time>2020-06-23T16:58:53Z</time>
      </trkpt>
      <trkpt lat="50.64636" lon="3.0648">
        <ele>24.5</ele>
        <time>2020-06-23T16:58:54Z</time>
      </trkpt>
      <trkpt lat="50.64635" lon="3.06482">
        <ele>24.5</ele>
        <time>2020-06-23T16:58:55Z</time>
      </trkpt>
      <trkpt lat="50.64636" lon="3.06482">
        <ele>24.5</ele>
        <time>2020-06-23T16:58:56Z</time>
      </trkpt>
      <trkpt lat="50.64636" lon="3.06482">
        <ele>24.5</ele>
        <time>2020-06-23T16:58:57Z</time>
      </trkpt>
      <trkpt lat="50.64635" lon="3.06482">
        <ele>24.5</ele>
        <time>2020-06-23T16:58:58Z</time>
      </trkpt>
      <trkpt lat="50.64635" lon="3.06482">
        <ele>24.5</ele>
        <time>2020-06-23T16:58:59Z</time>
      </trkpt>
      <trkpt lat="50.64635" lon="3.06483">
        <ele>24.5</ele>
        <time>2020-06-23T16:59:00Z</time>
      </trkpt>
      <trkpt lat="50.64635" lon="3.06483">
        <ele>24.5</ele>
        <time>2020-06-23T16:59:01Z</time>
      </trkpt>
      <trkpt lat="50.64636" lon="3.06482">
        <ele>24.5</ele>
        <time>2020-06-23T16:59:02Z</time>
      </trkpt>
      <trkpt lat="50.64636" lon="3.06482">
        <ele>24.5</ele>
        <time>2020-06-23T16:59:03Z</time>
      </trkpt>
      <trkpt lat="50.64637" lon="3.06482">
        <ele>24.5</ele>
        <time>2020-06-23T16:59:04Z</time>
      </trkpt>
      <trkpt lat="50.64638" lon="3.06483">
        <ele>24.5</ele>
        <time>2020-06-23T16:59:05Z</time>
      </trkpt>
      <trkpt lat="50.64639" lon="3.06483">
        <ele>24.4</ele>
        <time>2020-06-23T16:59:06Z</time>
      </trkpt>
      <trkpt lat="50.64636" lon="3.06478">
        <ele>24.4</ele>
        <time>2020-06-23T16:59:10Z</time>
      </trkpt>
      <trkpt lat="50.64635" lon="3.06477">
        <ele>24.4</ele>
        <time>2020-06-23T16:59:11Z</time>
      </trkpt>
      <trkpt lat="50.64633" lon="3.06473">
        <ele>24.4</ele>
        <time>2020-06-23T16:59:12Z</time>
      </trkpt>
      <trkpt lat="50.6463" lon="3.06468">
        <ele>24.3</ele>
        <time>2020-06-23T16:59:13Z</time>
      </trkpt>
      <trkpt lat="50.64629" lon="3.06462">
        <ele>24.3</ele>
        <time>2020-06-23T16:59:14Z</time>
      </trkpt>
      <trkpt lat="50.64627" lon="3.06453">
        <ele>24.3</ele>
        <time>2020-06-23T16:59:15Z</time>
      </trkpt>
      <trkpt lat="50.64625" lon="3.06447">
        <ele>24.2</ele>
        <time>2020-06-23T16:59:16Z</time>
      </trkpt>
      <trkpt lat="50.64622" lon="3.0644">
        <ele>24.1</ele>
        <time>2020-06-23T16:59:17Z</time>
      </trkpt>
      <trkpt lat="50.64619" lon="3.06433">
        <ele>24.1</ele>
        <time>2020-06-23T16:59:18Z</time>
      </trkpt>
      <trkpt lat="50.64616" lon="3.06425">
        <ele>24</ele>
        <time>2020-06-23T16:59:19Z</time>
      </trkpt>
      <trkpt lat="50.64613" lon="3.06419">
        <ele>24</ele>
        <time>2020-06-23T16:59:20Z</time>
      </trkpt>
      <trkpt lat="50.6461" lon="3.0641">
        <ele>24</ele>
        <time>2020-06-23T16:59:21Z</time>
      </trkpt>
      <trkpt lat="50.64607" lon="3.06402">
        <ele>24.4</ele>
        <time>2020-06-23T16:59:22Z</time>
      </trkpt>
      <trkpt lat="50.64604" lon="3.06394">
        <ele>24.4</ele>
        <time>2020-06-23T16:59:23Z</time>
      </trkpt>
      <trkpt lat="50.646" lon="3.06386">
        <ele>24.3</ele>
        <time>2020-06-23T16:59:24Z</time>
      </trkpt>
      <trkpt lat="50.64598" lon="3.06379">
        <ele>24.2</ele>
        <time>2020-06-23T16:59:25Z</time>
      </trkpt>
      <trkpt lat="50.64597" lon="3.06373">
        <ele>24.1</ele>
        <time>2020-06-23T16:59:26Z</time>
      </trkpt>
      <trkpt lat="50.64594" lon="3.06369">
        <ele>24</ele>
        <time>2020-06-23T16:59:27Z</time>
      </trkpt>
      <trkpt lat="50.64592" lon="3.06364">
        <ele>23.9</ele>
        <time>2020-06-23T16:59:28Z</time>
      </trkpt>
      <trkpt lat="50.64591" lon="3.06362">
        <ele>23.9</ele>
        <time>2020-06-23T16:59:29Z</time>
      </trkpt>
      <trkpt lat="50.64589" lon="3.06358">
        <ele>23.8</ele>
        <time>2020-06-23T16:59:30Z</time>
      </trkpt>
      <trkpt lat="50.64588" lon="3.06357">
        <ele>23.8</ele>
        <time>2020-06-23T16:59:31Z</time>
      </trkpt>
      <trkpt lat="50.64587" lon="3.06355">
        <ele>23.7</ele>
        <time>2020-06-23T16:59:32Z</time>
      </trkpt>
      <trkpt lat="50.64585" lon="3.06355">
        <ele>23.7</ele>
        <time>2020-06-23T16:59:33Z</time>
      </trkpt>
      <trkpt lat="50.64585" lon="3.06353">
        <ele>23.6</ele>
        <time>2020-06-23T16:59:34Z</time>
      </trkpt>
      <trkpt lat="50.64584" lon="3.06354">
        <ele>23.6</ele>
        <time>2020-06-23T16:59:35Z</time>
      </trkpt>
      <trkpt lat="50.64584" lon="3.06351">
        <ele>23.6</ele>
        <time>2020-06-23T16:59:36Z</time>
      </trkpt>
      <trkpt lat="50.64583" lon="3.06348">
        <ele>23.6</ele>
        <time>2020-06-23T16:59:37Z</time>
      </trkpt>
      <trkpt lat="50.64583" lon="3.06347">
        <ele>23.5</ele>
        <time>2020-06-23T16:59:38Z</time>
      </trkpt>
      <trkpt lat="50.64582" lon="3.06346">
        <ele>23.5</ele>
        <time>2020-06-23T16:59:39Z</time>
      </trkpt>
      <trkpt lat="50.64581" lon="3.06345">
        <ele>23.5</ele>
        <time>2020-06-23T16:59:40Z</time>
      </trkpt>
      <trkpt lat="50.6458" lon="3.06342">
        <ele>23.5</ele>
        <time>2020-06-23T16:59:41Z</time>
      </trkpt>
      <trkpt lat="50.64578" lon="3.06337">
        <ele>23.4</ele>
        <time>2020-06-23T16:59:42Z</time>
      </trkpt>
      <trkpt lat="50.64576" lon="3.06331">
        <ele>23.3</ele>
        <time>2020-06-23T16:59:43Z</time>
      </trkpt>
      <trkpt lat="50.64573" lon="3.06326">
        <ele>23.2</ele>
        <time>2020-06-23T16:59:44Z</time>
      </trkpt>
      <trkpt lat="50.64571" lon="3.0632">
        <ele>23.1</ele>
        <time>2020-06-23T16:59:45Z</time>
      </trkpt>
      <trkpt lat="50.64568" lon="3.06313">
        <ele>23</ele>
        <time>2020-06-23T16:59:46Z</time>
      </trkpt>
      <trkpt lat="50.64565" lon="3.06307">
        <ele>22.9</ele>
        <time>2020-06-23T16:59:47Z</time>
      </trkpt>
      <trkpt lat="50.64561" lon="3.06301">
        <ele>22.7</ele>
        <time>2020-06-23T16:59:48Z</time>
      </trkpt>
      <trkpt lat="50.64558" lon="3.06292">
        <ele>22.5</ele>
        <time>2020-06-23T16:59:49Z</time>
      </trkpt>
      <trkpt lat="50.64555" lon="3.06283">
        <ele>22.4</ele>
        <time>2020-06-23T16:59:50Z</time>
      </trkpt>
      <trkpt lat="50.64554" lon="3.06274">
        <ele>22.4</ele>
        <time>2020-06-23T16:59:51Z</time>
      </trkpt>
      <trkpt lat="50.6455" lon="3.06267">
        <ele>22.3</ele>
        <time>2020-06-23T16:59:52Z</time>
      </trkpt>
      <trkpt lat="50.64547" lon="3.06261">
        <ele>22.2</ele>
        <time>2020-06-23T16:59:53Z</time>
      </trkpt>
      <trkpt lat="50.64545" lon="3.06254">
        <ele>22.1</ele>
        <time>2020-06-23T16:59:54Z</time>
      </trkpt>
      <trkpt lat="50.64544" lon="3.06248">
        <ele>22.1</ele>
        <time>2020-06-23T16:59:55Z</time>
      </trkpt>
      <trkpt lat="50.64542" lon="3.06242">
        <ele>22</ele>
        <time>2020-06-23T16:59:56Z</time>
      </trkpt>
      <trkpt lat="50.6454" lon="3.06238">
        <ele>21.9</ele>
        <time>2020-06-23T16:59:57Z</time>
      </trkpt>
      <trkpt lat="50.64538" lon="3.06234">
        <ele>21.9</ele>
        <time>2020-06-23T16:59:58Z</time>
      </trkpt>
      <trkpt lat="50.64537" lon="3.0623">
        <ele>21.9</ele>
        <time>2020-06-23T16:59:59Z</time>
      </trkpt>
      <trkpt lat="50.64535" lon="3.06226">
        <ele>21.8</ele>
        <time>2020-06-23T17:00:00Z</time>
      </trkpt>
      <trkpt lat="50.64534" lon="3.06226">
        <ele>21.8</ele>
        <time>2020-06-23T17:00:01Z</time>
      </trkpt>
      <trkpt lat="50.64534" lon="3.06225">
        <ele>21.8</ele>
        <time>2020-06-23T17:00:02Z</time>
      </trkpt>
      <trkpt lat="50.64533" lon="3.06224">
        <ele>21.8</ele>
        <time>2020-06-23T17:00:03Z</time>
      </trkpt>
      <trkpt lat="50.64535" lon="3.06222">
        <ele>21.8</ele>
        <time>2020-06-23T17:00:04Z</time>
      </trkpt>
      <trkpt lat="50.64535" lon="3.06222">
        <ele>21.8</ele>
        <time>2020-06-23T17:00:05Z</time>
      </trkpt>
      <trkpt lat="50.64535" lon="3.06221">
        <ele>21.8</ele>
        <time>2020-06-23T17:00:06Z</time>
      </trkpt>
      <trkpt lat="50.64535" lon="3.06222">
        <ele>21.8</ele>
        <time>2020-06-23T17:00:07Z</time>
      </trkpt>
      <trkpt lat="50.64535" lon="3.06222">
        <ele>21.8</ele>
        <time>2020-06-23T17:00:08Z</time>
      </trkpt>
      <trkpt lat="50.64535" lon="3.06221">
        <ele>21.8</ele>
        <time>2020-06-23T17:00:09Z</time>
      </trkpt>
      <trkpt lat="50.64535" lon="3.06218">
        <ele>21.8</ele>
        <time>2020-06-23T17:00:10Z</time>
      </trkpt>
      <trkpt lat="50.64534" lon="3.06217">
        <ele>21.8</ele>
        <time>2020-06-23T17:00:11Z</time>
      </trkpt>
      <trkpt lat="50.64534" lon="3.06216">
        <ele>21.8</ele>
        <time>2020-06-23T17:00:12Z</time>
      </trkpt>
      <trkpt lat="50.64533" lon="3.06215">
        <ele>21.8</ele>
        <time>2020-06-23T17:00:13Z</time>
      </trkpt>
      <trkpt lat="50.64532" lon="3.06214">
        <ele>21.7</ele>
        <time>2020-06-23T17:00:14Z</time>
      </trkpt>
      <trkpt lat="50.6453" lon="3.06213">
        <ele>21.7</ele>
        <time>2020-06-23T17:00:15Z</time>
      </trkpt>
      <trkpt lat="50.64527" lon="3.06212">
        <ele>21.7</ele>
        <time>2020-06-23T17:00:16Z</time>
      </trkpt>
      <trkpt lat="50.64525" lon="3.06212">
        <ele>21.7</ele>
        <time>2020-06-23T17:00:17Z</time>
      </trkpt>
      <trkpt lat="50.64523" lon="3.06211">
        <ele>21.7</ele>
        <time>2020-06-23T17:00:18Z</time>
      </trkpt>
      <trkpt lat="50.6452" lon="3.06212">
        <ele>21.7</ele>
        <time>2020-06-23T17:00:19Z</time>
      </trkpt>
      <trkpt lat="50.64517" lon="3.06213">
        <ele>21.7</ele>
        <time>2020-06-23T17:00:20Z</time>
      </trkpt>
      <trkpt lat="50.64514" lon="3.06213">
        <ele>21.6</ele>
        <time>2020-06-23T17:00:21Z</time>
      </trkpt>
      <trkpt lat="50.6451" lon="3.06215">
        <ele>21.6</ele>
        <time>2020-06-23T17:00:22Z</time>
      </trkpt>
      <trkpt lat="50.64506" lon="3.06216">
        <ele>21.6</ele>
        <time>2020-06-23T17:00:23Z</time>
      </trkpt>
      <trkpt lat="50.64503" lon="3.06218">
        <ele>21.5</ele>
        <time>2020-06-23T17:00:24Z</time>
      </trkpt>
      <trkpt lat="50.64502" lon="3.06219">
        <ele>21.5</ele>
        <time>2020-06-23T17:00:25Z</time>
      </trkpt>
      <trkpt lat="50.64499" lon="3.0622">
        <ele>21.5</ele>
        <time>2020-06-23T17:00:26Z</time>
      </trkpt>
      <trkpt lat="50.64496" lon="3.06218">
        <ele>21.5</ele>
        <time>2020-06-23T17:00:27Z</time>
      </trkpt>
      <trkpt lat="50.64492" lon="3.06219">
        <ele>21.5</ele>
        <time>2020-06-23T17:00:28Z</time>
      </trkpt>
      <trkpt lat="50.64487" lon="3.06221">
        <ele>21.5</ele>
        <time>2020-06-23T17:00:29Z</time>
      </trkpt>
      <trkpt lat="50.64483" lon="3.06223">
        <ele>21.5</ele>
        <time>2020-06-23T17:00:30Z</time>
      </trkpt>
      <trkpt lat="50.64476" lon="3.06224">
        <ele>21.6</ele>
        <time>2020-06-23T17:00:31Z</time>
      </trkpt>
      <trkpt lat="50.64471" lon="3.06227">
        <ele>21.7</ele>
        <time>2020-06-23T17:00:32Z</time>
      </trkpt>
      <trkpt lat="50.64467" lon="3.06229">
        <ele>21.8</ele>
        <time>2020-06-23T17:00:33Z</time>
      </trkpt>
      <trkpt lat="50.64461" lon="3.06227">
        <ele>21.9</ele>
        <time>2020-06-23T17:00:34Z</time>
      </trkpt>
      <trkpt lat="50.64456" lon="3.06229">
        <ele>22</ele>
        <time>2020-06-23T17:00:35Z</time>
      </trkpt>
      <trkpt lat="50.64451" lon="3.06231">
        <ele>22.2</ele>
        <time>2020-06-23T17:00:36Z</time>
      </trkpt>
      <trkpt lat="50.64445" lon="3.06233">
        <ele>22.3</ele>
        <time>2020-06-23T17:00:37Z</time>
      </trkpt>
      <trkpt lat="50.6444" lon="3.06235">
        <ele>22.5</ele>
        <time>2020-06-23T17:00:38Z</time>
      </trkpt>
      <trkpt lat="50.64435" lon="3.06238">
        <ele>22.6</ele>
        <time>2020-06-23T17:00:39Z</time>
      </trkpt>
      <trkpt lat="50.6443" lon="3.06238">
        <ele>22.8</ele>
        <time>2020-06-23T17:00:40Z</time>
      </trkpt>
      <trkpt lat="50.64425" lon="3.06239">
        <ele>23</ele>
        <time>2020-06-23T17:00:41Z</time>
      </trkpt>
      <trkpt lat="50.6442" lon="3.0624">
        <ele>23.1</ele>
        <time>2020-06-23T17:00:42Z</time>
      </trkpt>
      <trkpt lat="50.64414" lon="3.06239">
        <ele>23.2</ele>
        <time>2020-06-23T17:00:43Z</time>
      </trkpt>
      <trkpt lat="50.6441" lon="3.06239">
        <ele>23.3</ele>
        <time>2020-06-23T17:00:44Z</time>
      </trkpt>
      <trkpt lat="50.64406" lon="3.06237">
        <ele>23.3</ele>
        <time>2020-06-23T17:00:45Z</time>
      </trkpt>
      <trkpt lat="50.64403" lon="3.06233">
        <ele>23.4</ele>
        <time>2020-06-23T17:00:46Z</time>
      </trkpt>
      <trkpt lat="50.64403" lon="3.06226">
        <ele>23.4</ele>
        <time>2020-06-23T17:00:47Z</time>
      </trkpt>
      <trkpt lat="50.64402" lon="3.0622">
        <ele>23.4</ele>
        <time>2020-06-23T17:00:48Z</time>
      </trkpt>
      <trkpt lat="50.644" lon="3.06214">
        <ele>23.3</ele>
        <time>2020-06-23T17:00:49Z</time>
      </trkpt>
      <trkpt lat="50.64397" lon="3.06209">
        <ele>23.3</ele>
        <time>2020-06-23T17:00:50Z</time>
      </trkpt>
      <trkpt lat="50.64394" lon="3.06204">
        <ele>23.3</ele>
        <time>2020-06-23T17:00:51Z</time>
      </trkpt>
      <trkpt lat="50.64391" lon="3.062">
        <ele>23.2</ele>
        <time>2020-06-23T17:00:52Z</time>
      </trkpt>
      <trkpt lat="50.64388" lon="3.06197">
        <ele>23.1</ele>
        <time>2020-06-23T17:00:53Z</time>
      </trkpt>
      <trkpt lat="50.64385" lon="3.06197">
        <ele>23</ele>
        <time>2020-06-23T17:00:54Z</time>
      </trkpt>
      <trkpt lat="50.64381" lon="3.06199">
        <ele>22.9</ele>
        <time>2020-06-23T17:00:55Z</time>
      </trkpt>
      <trkpt lat="50.64377" lon="3.06203">
        <ele>22.7</ele>
        <time>2020-06-23T17:00:56Z</time>
      </trkpt>
      <trkpt lat="50.64372" lon="3.06208">
        <ele>22.5</ele>
        <time>2020-06-23T17:00:57Z</time>
      </trkpt>
      <trkpt lat="50.64368" lon="3.06212">
        <ele>22.4</ele>
        <time>2020-06-23T17:00:58Z</time>
      </trkpt>
      <trkpt lat="50.64364" lon="3.06219">
        <ele>22.2</ele>
        <time>2020-06-23T17:00:59Z</time>
      </trkpt>
      <trkpt lat="50.6436" lon="3.06223">
        <ele>22</ele>
        <time>2020-06-23T17:01:00Z</time>
      </trkpt>
      <trkpt lat="50.64355" lon="3.06229">
        <ele>21.8</ele>
        <time>2020-06-23T17:01:01Z</time>
      </trkpt>
      <trkpt lat="50.6435" lon="3.06235">
        <ele>21.5</ele>
        <time>2020-06-23T17:01:02Z</time>
      </trkpt>
      <trkpt lat="50.64345" lon="3.0624">
        <ele>21.3</ele>
        <time>2020-06-23T17:01:03Z</time>
      </trkpt>
      <trkpt lat="50.6434" lon="3.06245">
        <ele>21.2</ele>
        <time>2020-06-23T17:01:04Z</time>
      </trkpt>
      <trkpt lat="50.64334" lon="3.0625">
        <ele>21</ele>
        <time>2020-06-23T17:01:05Z</time>
      </trkpt>
      <trkpt lat="50.64328" lon="3.06256">
        <ele>20.8</ele>
        <time>2020-06-23T17:01:06Z</time>
      </trkpt>
      <trkpt lat="50.64323" lon="3.06262">
        <ele>20.6</ele>
        <time>2020-06-23T17:01:07Z</time>
      </trkpt>
      <trkpt lat="50.64317" lon="3.06267">
        <ele>20.6</ele>
        <time>2020-06-23T17:01:08Z</time>
      </trkpt>
      <trkpt lat="50.64312" lon="3.06272">
        <ele>20.5</ele>
        <time>2020-06-23T17:01:09Z</time>
      </trkpt>
      <trkpt lat="50.64303" lon="3.06274">
        <ele>20.4</ele>
        <time>2020-06-23T17:01:10Z</time>
      </trkpt>
      <trkpt lat="50.64297" lon="3.06277">
        <ele>20.3</ele>
        <time>2020-06-23T17:01:11Z</time>
      </trkpt>
      <trkpt lat="50.6429" lon="3.06279">
        <ele>20.5</ele>
        <time>2020-06-23T17:01:12Z</time>
      </trkpt>
      <trkpt lat="50.64284" lon="3.06281">
        <ele>20.7</ele>
        <time>2020-06-23T17:01:13Z</time>
      </trkpt>
      <trkpt lat="50.64279" lon="3.06284">
        <ele>20.7</ele>
        <time>2020-06-23T17:01:14Z</time>
      </trkpt>
      <trkpt lat="50.64274" lon="3.06288">
        <ele>20.8</ele>
        <time>2020-06-23T17:01:15Z</time>
      </trkpt>
      <trkpt lat="50.64269" lon="3.06291">
        <ele>20.9</ele>
        <time>2020-06-23T17:01:16Z</time>
      </trkpt>
      <trkpt lat="50.64264" lon="3.06295">
        <ele>21</ele>
        <time>2020-06-23T17:01:17Z</time>
      </trkpt>
      <trkpt lat="50.64259" lon="3.06299">
        <ele>21</ele>
        <time>2020-06-23T17:01:18Z</time>
      </trkpt>
      <trkpt lat="50.64256" lon="3.06302">
        <ele>21.1</ele>
        <time>2020-06-23T17:01:19Z</time>
      </trkpt>
      <trkpt lat="50.64252" lon="3.06306">
        <ele>21.2</ele>
        <time>2020-06-23T17:01:20Z</time>
      </trkpt>
      <trkpt lat="50.64247" lon="3.0631">
        <ele>21.3</ele>
        <time>2020-06-23T17:01:21Z</time>
      </trkpt>
      <trkpt lat="50.64244" lon="3.06314">
        <ele>21.3</ele>
        <time>2020-06-23T17:01:22Z</time>
      </trkpt>
      <trkpt lat="50.6424" lon="3.06317">
        <ele>21.2</ele>
        <time>2020-06-23T17:01:23Z</time>
      </trkpt>
      <trkpt lat="50.64236" lon="3.06321">
        <ele>21.2</ele>
        <time>2020-06-23T17:01:24Z</time>
      </trkpt>
      <trkpt lat="50.64232" lon="3.06326">
        <ele>21.2</ele>
        <time>2020-06-23T17:01:25Z</time>
      </trkpt>
      <trkpt lat="50.64229" lon="3.06328">
        <ele>21.2</ele>
        <time>2020-06-23T17:01:26Z</time>
      </trkpt>
      <trkpt lat="50.64225" lon="3.0633">
        <ele>21.2</ele>
        <time>2020-06-23T17:01:27Z</time>
      </trkpt>
      <trkpt lat="50.64221" lon="3.06334">
        <ele>21.2</ele>
        <time>2020-06-23T17:01:28Z</time>
      </trkpt>
      <trkpt lat="50.64218" lon="3.06338">
        <ele>21.2</ele>
        <time>2020-06-23T17:01:29Z</time>
      </trkpt>
      <trkpt lat="50.64212" lon="3.06343">
        <ele>21.2</ele>
        <time>2020-06-23T17:01:30Z</time>
      </trkpt>
      <trkpt lat="50.64207" lon="3.06347">
        <ele>21.2</ele>
        <time>2020-06-23T17:01:31Z</time>
      </trkpt>
      <trkpt lat="50.64201" lon="3.06354">
        <ele>21.2</ele>
        <time>2020-06-23T17:01:32Z</time>
      </trkpt>
      <trkpt lat="50.64194" lon="3.06359">
        <ele>21.3</ele>
        <time>2020-06-23T17:01:33Z</time>
      </trkpt>
      <trkpt lat="50.64188" lon="3.06363">
        <ele>21.3</ele>
        <time>2020-06-23T17:01:34Z</time>
      </trkpt>
      <trkpt lat="50.64182" lon="3.0637">
        <ele>21.4</ele>
        <time>2020-06-23T17:01:35Z</time>
      </trkpt>
      <trkpt lat="50.64176" lon="3.06375">
        <ele>21.4</ele>
        <time>2020-06-23T17:01:36Z</time>
      </trkpt>
      <trkpt lat="50.64169" lon="3.06381">
        <ele>21.8</ele>
        <time>2020-06-23T17:01:37Z</time>
      </trkpt>
      <trkpt lat="50.64164" lon="3.06387">
        <ele>21.9</ele>
        <time>2020-06-23T17:01:38Z</time>
      </trkpt>
      <trkpt lat="50.64159" lon="3.06391">
        <ele>22</ele>
        <time>2020-06-23T17:01:39Z</time>
      </trkpt>
      <trkpt lat="50.64154" lon="3.06395">
        <ele>22.2</ele>
        <time>2020-06-23T17:01:40Z</time>
      </trkpt>
      <trkpt lat="50.64149" lon="3.06401">
        <ele>22.3</ele>
        <time>2020-06-23T17:01:41Z</time>
      </trkpt>
      <trkpt lat="50.64144" lon="3.06406">
        <ele>22.4</ele>
        <time>2020-06-23T17:01:42Z</time>
      </trkpt>
      <trkpt lat="50.6414" lon="3.06411">
        <ele>22.5</ele>
        <time>2020-06-23T17:01:43Z</time>
      </trkpt>
      <trkpt lat="50.64136" lon="3.0642">
        <ele>22.7</ele>
        <time>2020-06-23T17:01:44Z</time>
      </trkpt>
      <trkpt lat="50.64133" lon="3.06427">
        <ele>22.7</ele>
        <time>2020-06-23T17:01:45Z</time>
      </trkpt>
      <trkpt lat="50.64131" lon="3.06433">
        <ele>22.7</ele>
        <time>2020-06-23T17:01:46Z</time>
      </trkpt>
      <trkpt lat="50.64129" lon="3.06436">
        <ele>22.7</ele>
        <time>2020-06-23T17:01:47Z</time>
      </trkpt>
      <trkpt lat="50.64129" lon="3.06441">
        <ele>22.8</ele>
        <time>2020-06-23T17:01:48Z</time>
      </trkpt>
      <trkpt lat="50.64127" lon="3.06445">
        <ele>22.8</ele>
        <time>2020-06-23T17:01:49Z</time>
      </trkpt>
      <trkpt lat="50.64125" lon="3.06449">
        <ele>22.9</ele>
        <time>2020-06-23T17:01:50Z</time>
      </trkpt>
      <trkpt lat="50.64123" lon="3.06453">
        <ele>22.9</ele>
        <time>2020-06-23T17:01:51Z</time>
      </trkpt>
      <trkpt lat="50.6412" lon="3.06459">
        <ele>23</ele>
        <time>2020-06-23T17:01:52Z</time>
      </trkpt>
      <trkpt lat="50.64119" lon="3.06465">
        <ele>23.1</ele>
        <time>2020-06-23T17:01:53Z</time>
      </trkpt>
      <trkpt lat="50.64116" lon="3.0647">
        <ele>23.1</ele>
        <time>2020-06-23T17:01:54Z</time>
      </trkpt>
      <trkpt lat="50.64114" lon="3.06474">
        <ele>23.2</ele>
        <time>2020-06-23T17:01:55Z</time>
      </trkpt>
      <trkpt lat="50.64111" lon="3.06478">
        <ele>23.3</ele>
        <time>2020-06-23T17:01:56Z</time>
      </trkpt>
      <trkpt lat="50.64108" lon="3.06481">
        <ele>23.3</ele>
        <time>2020-06-23T17:01:57Z</time>
      </trkpt>
      <trkpt lat="50.64105" lon="3.06486">
        <ele>23.5</ele>
        <time>2020-06-23T17:01:58Z</time>
      </trkpt>
      <trkpt lat="50.64103" lon="3.0649">
        <ele>23.5</ele>
        <time>2020-06-23T17:01:59Z</time>
      </trkpt>
      <trkpt lat="50.64101" lon="3.06495">
        <ele>23.6</ele>
        <time>2020-06-23T17:02:00Z</time>
      </trkpt>
      <trkpt lat="50.641" lon="3.06501">
        <ele>23.6</ele>
        <time>2020-06-23T17:02:01Z</time>
      </trkpt>
      <trkpt lat="50.64099" lon="3.06507">
        <ele>23.7</ele>
        <time>2020-06-23T17:02:02Z</time>
      </trkpt>
      <trkpt lat="50.64104" lon="3.06507">
        <ele>23.7</ele>
        <time>2020-06-23T17:02:03Z</time>
      </trkpt>
      <trkpt lat="50.64108" lon="3.06513">
        <ele>23.8</ele>
        <time>2020-06-23T17:02:04Z</time>
      </trkpt>
      <trkpt lat="50.64111" lon="3.06518">
        <ele>23.9</ele>
        <time>2020-06-23T17:02:05Z</time>
      </trkpt>
      <trkpt lat="50.64114" lon="3.06521">
        <ele>23.9</ele>
        <time>2020-06-23T17:02:06Z</time>
      </trkpt>
      <trkpt lat="50.64118" lon="3.06526">
        <ele>24</ele>
        <time>2020-06-23T17:02:07Z</time>
      </trkpt>
      <trkpt lat="50.64122" lon="3.06531">
        <ele>24.1</ele>
        <time>2020-06-23T17:02:08Z</time>
      </trkpt>
      <trkpt lat="50.64125" lon="3.06531">
        <ele>24.2</ele>
        <time>2020-06-23T17:02:09Z</time>
      </trkpt>
      <trkpt lat="50.64127" lon="3.06534">
        <ele>24.2</ele>
        <time>2020-06-23T17:02:10Z</time>
      </trkpt>
      <trkpt lat="50.6413" lon="3.06537">
        <ele>24.2</ele>
        <time>2020-06-23T17:02:11Z</time>
      </trkpt>
      <trkpt lat="50.64131" lon="3.06538">
        <ele>24.2</ele>
        <time>2020-06-23T17:02:12Z</time>
      </trkpt>
      <trkpt lat="50.6413" lon="3.06542">
        <ele>24.2</ele>
        <time>2020-06-23T17:02:13Z</time>
      </trkpt>
      <trkpt lat="50.64127" lon="3.06545">
        <ele>24.4</ele>
        <time>2020-06-23T17:02:14Z</time>
      </trkpt>
      <trkpt lat="50.64125" lon="3.06546">
        <ele>24.4</ele>
        <time>2020-06-23T17:02:15Z</time>
      </trkpt>
      <trkpt lat="50.64123" lon="3.06549">
        <ele>24.5</ele>
        <time>2020-06-23T17:02:16Z</time>
      </trkpt>
      <trkpt lat="50.6412" lon="3.06553">
        <ele>24.6</ele>
        <time>2020-06-23T17:02:17Z</time>
      </trkpt>
      <trkpt lat="50.64119" lon="3.06554">
        <ele>24.6</ele>
        <time>2020-06-23T17:02:18Z</time>
      </trkpt>
      <trkpt lat="50.64117" lon="3.06557">
        <ele>24.7</ele>
        <time>2020-06-23T17:02:19Z</time>
      </trkpt>
      <trkpt lat="50.64117" lon="3.06559">
        <ele>24.7</ele>
        <time>2020-06-23T17:02:20Z</time>
      </trkpt>
      <trkpt lat="50.64114" lon="3.06562">
        <ele>24.8</ele>
        <time>2020-06-23T17:02:21Z</time>
      </trkpt>
      <trkpt lat="50.64112" lon="3.06567">
        <ele>24.9</ele>
        <time>2020-06-23T17:02:22Z</time>
      </trkpt>
      <trkpt lat="50.6411" lon="3.06571">
        <ele>24.9</ele>
        <time>2020-06-23T17:02:23Z</time>
      </trkpt>
      <trkpt lat="50.64109" lon="3.06575">
        <ele>25</ele>
        <time>2020-06-23T17:02:24Z</time>
      </trkpt>
      <trkpt lat="50.64108" lon="3.0658">
        <ele>25.1</ele>
        <time>2020-06-23T17:02:25Z</time>
      </trkpt>
      <trkpt lat="50.64107" lon="3.06581">
        <ele>25.1</ele>
        <time>2020-06-23T17:02:26Z</time>
      </trkpt>
      <trkpt lat="50.64105" lon="3.06584">
        <ele>25.2</ele>
        <time>2020-06-23T17:02:27Z</time>
      </trkpt>
      <trkpt lat="50.64104" lon="3.06585">
        <ele>25.2</ele>
        <time>2020-06-23T17:02:28Z</time>
      </trkpt>
      <trkpt lat="50.641" lon="3.06584">
        <ele>25</ele>
        <time>2020-06-23T17:02:29Z</time>
      </trkpt>
      <trkpt lat="50.64098" lon="3.06584">
        <ele>24.9</ele>
        <time>2020-06-23T17:02:30Z</time>
      </trkpt>
      <trkpt lat="50.64093" lon="3.06582">
        <ele>24.7</ele>
        <time>2020-06-23T17:02:31Z</time>
      </trkpt>
      <trkpt lat="50.64088" lon="3.06582">
        <ele>24.5</ele>
        <time>2020-06-23T17:02:32Z</time>
      </trkpt>
      <trkpt lat="50.64083" lon="3.06583">
        <ele>24.3</ele>
        <time>2020-06-23T17:02:33Z</time>
      </trkpt>
      <trkpt lat="50.64078" lon="3.06583">
        <ele>24.2</ele>
        <time>2020-06-23T17:02:34Z</time>
      </trkpt>
      <trkpt lat="50.64073" lon="3.06584">
        <ele>24</ele>
        <time>2020-06-23T17:02:35Z</time>
      </trkpt>
      <trkpt lat="50.64068" lon="3.06587">
        <ele>23.9</ele>
        <time>2020-06-23T17:02:36Z</time>
      </trkpt>
      <trkpt lat="50.64063" lon="3.06588">
        <ele>23.7</ele>
        <time>2020-06-23T17:02:37Z</time>
      </trkpt>
      <trkpt lat="50.64058" lon="3.06589">
        <ele>23.3</ele>
        <time>2020-06-23T17:02:38Z</time>
      </trkpt>
      <trkpt lat="50.64056" lon="3.06595">
        <ele>23.2</ele>
        <time>2020-06-23T17:02:39Z</time>
      </trkpt>
      <trkpt lat="50.64055" lon="3.06602">
        <ele>23.2</ele>
        <time>2020-06-23T17:02:40Z</time>
      </trkpt>
      <trkpt lat="50.64056" lon="3.06609">
        <ele>23.2</ele>
        <time>2020-06-23T17:02:41Z</time>
      </trkpt>
      <trkpt lat="50.64058" lon="3.06618">
        <ele>23.1</ele>
        <time>2020-06-23T17:02:42Z</time>
      </trkpt>
      <trkpt lat="50.64059" lon="3.06628">
        <ele>23</ele>
        <time>2020-06-23T17:02:43Z</time>
      </trkpt>
      <trkpt lat="50.64061" lon="3.06636">
        <ele>23</ele>
        <time>2020-06-23T17:02:44Z</time>
      </trkpt>
      <trkpt lat="50.64062" lon="3.06646">
        <ele>23</ele>
        <time>2020-06-23T17:02:45Z</time>
      </trkpt>
      <trkpt lat="50.64063" lon="3.06655">
        <ele>22.9</ele>
        <time>2020-06-23T17:02:46Z</time>
      </trkpt>
      <trkpt lat="50.64064" lon="3.06663">
        <ele>22.9</ele>
        <time>2020-06-23T17:02:47Z</time>
      </trkpt>
      <trkpt lat="50.64064" lon="3.06672">
        <ele>22.9</ele>
        <time>2020-06-23T17:02:48Z</time>
      </trkpt>
      <trkpt lat="50.64065" lon="3.06682">
        <ele>23</ele>
        <time>2020-06-23T17:02:49Z</time>
      </trkpt>
      <trkpt lat="50.64066" lon="3.0669">
        <ele>23</ele>
        <time>2020-06-23T17:02:50Z</time>
      </trkpt>
      <trkpt lat="50.64067" lon="3.06699">
        <ele>23</ele>
        <time>2020-06-23T17:02:51Z</time>
      </trkpt>
      <trkpt lat="50.64068" lon="3.06707">
        <ele>23.1</ele>
        <time>2020-06-23T17:02:52Z</time>
      </trkpt>
      <trkpt lat="50.64069" lon="3.06714">
        <ele>23.1</ele>
        <time>2020-06-23T17:02:53Z</time>
      </trkpt>
      <trkpt lat="50.6407" lon="3.0672">
        <ele>23.2</ele>
        <time>2020-06-23T17:02:54Z</time>
      </trkpt>
      <trkpt lat="50.64068" lon="3.06725">
        <ele>23.3</ele>
        <time>2020-06-23T17:02:55Z</time>
      </trkpt>
      <trkpt lat="50.64066" lon="3.06726">
        <ele>23.3</ele>
        <time>2020-06-23T17:02:56Z</time>
      </trkpt>
      <trkpt lat="50.64064" lon="3.06729">
        <ele>23.2</ele>
        <time>2020-06-23T17:02:57Z</time>
      </trkpt>
      <trkpt lat="50.6406" lon="3.06731">
        <ele>23.2</ele>
        <time>2020-06-23T17:02:58Z</time>
      </trkpt>
      <trkpt lat="50.64055" lon="3.06734">
        <ele>23.2</ele>
        <time>2020-06-23T17:02:59Z</time>
      </trkpt>
      <trkpt lat="50.6405" lon="3.06738">
        <ele>23.1</ele>
        <time>2020-06-23T17:03:00Z</time>
      </trkpt>
      <trkpt lat="50.64044" lon="3.06741">
        <ele>23.1</ele>
        <time>2020-06-23T17:03:01Z</time>
      </trkpt>
      <trkpt lat="50.64039" lon="3.06743">
        <ele>23</ele>
        <time>2020-06-23T17:03:02Z</time>
      </trkpt>
      <trkpt lat="50.64033" lon="3.06746">
        <ele>23</ele>
        <time>2020-06-23T17:03:03Z</time>
      </trkpt>
      <trkpt lat="50.64027" lon="3.06749">
        <ele>22.9</ele>
        <time>2020-06-23T17:03:04Z</time>
      </trkpt>
      <trkpt lat="50.64023" lon="3.06753">
        <ele>22.9</ele>
        <time>2020-06-23T17:03:05Z</time>
      </trkpt>
      <trkpt lat="50.64018" lon="3.06756">
        <ele>22.9</ele>
        <time>2020-06-23T17:03:06Z</time>
      </trkpt>
      <trkpt lat="50.64013" lon="3.06758">
        <ele>22.8</ele>
        <time>2020-06-23T17:03:07Z</time>
      </trkpt>
      <trkpt lat="50.64009" lon="3.06761">
        <ele>22.8</ele>
        <time>2020-06-23T17:03:08Z</time>
      </trkpt>
      <trkpt lat="50.64005" lon="3.06765">
        <ele>22.8</ele>
        <time>2020-06-23T17:03:09Z</time>
      </trkpt>
      <trkpt lat="50.64001" lon="3.06767">
        <ele>22.8</ele>
        <time>2020-06-23T17:03:10Z</time>
      </trkpt>
      <trkpt lat="50.63997" lon="3.06768">
        <ele>22.8</ele>
        <time>2020-06-23T17:03:11Z</time>
      </trkpt>
      <trkpt lat="50.63994" lon="3.06769">
        <ele>22.8</ele>
        <time>2020-06-23T17:03:12Z</time>
      </trkpt>
      <trkpt lat="50.6399" lon="3.06771">
        <ele>22.8</ele>
        <time>2020-06-23T17:03:13Z</time>
      </trkpt>
      <trkpt lat="50.63987" lon="3.06773">
        <ele>22.8</ele>
        <time>2020-06-23T17:03:14Z</time>
      </trkpt>
      <trkpt lat="50.63985" lon="3.06774">
        <ele>22.8</ele>
        <time>2020-06-23T17:03:15Z</time>
      </trkpt>
      <trkpt lat="50.63983" lon="3.06775">
        <ele>22.8</ele>
        <time>2020-06-23T17:03:16Z</time>
      </trkpt>
      <trkpt lat="50.63979" lon="3.06778">
        <ele>22.7</ele>
        <time>2020-06-23T17:03:17Z</time>
      </trkpt>
      <trkpt lat="50.63977" lon="3.06779">
        <ele>22.7</ele>
        <time>2020-06-23T17:03:18Z</time>
      </trkpt>
      <trkpt lat="50.63974" lon="3.06781">
        <ele>22.7</ele>
        <time>2020-06-23T17:03:19Z</time>
      </trkpt>
      <trkpt lat="50.6397" lon="3.06784">
        <ele>22.7</ele>
        <time>2020-06-23T17:03:20Z</time>
      </trkpt>
      <trkpt lat="50.63965" lon="3.06789">
        <ele>22.7</ele>
        <time>2020-06-23T17:03:21Z</time>
      </trkpt>
      <trkpt lat="50.63961" lon="3.06792">
        <ele>22.7</ele>
        <time>2020-06-23T17:03:22Z</time>
      </trkpt>
      <trkpt lat="50.63959" lon="3.06793">
        <ele>22.7</ele>
        <time>2020-06-23T17:03:23Z</time>
      </trkpt>
      <trkpt lat="50.63956" lon="3.06794">
        <ele>22.8</ele>
        <time>2020-06-23T17:03:24Z</time>
      </trkpt>
      <trkpt lat="50.63952" lon="3.06799">
        <ele>23.1</ele>
        <time>2020-06-23T17:03:25Z</time>
      </trkpt>
      <trkpt lat="50.63948" lon="3.06801">
        <ele>23.1</ele>
        <time>2020-06-23T17:03:26Z</time>
      </trkpt>
      <trkpt lat="50.63942" lon="3.06806">
        <ele>23</ele>
        <time>2020-06-23T17:03:27Z</time>
      </trkpt>
      <trkpt lat="50.63937" lon="3.0681">
        <ele>23</ele>
        <time>2020-06-23T17:03:28Z</time>
      </trkpt>
      <trkpt lat="50.63931" lon="3.06815">
        <ele>22.9</ele>
        <time>2020-06-23T17:03:29Z</time>
      </trkpt>
      <trkpt lat="50.63925" lon="3.06819">
        <ele>22.9</ele>
        <time>2020-06-23T17:03:30Z</time>
      </trkpt>
      <trkpt lat="50.63919" lon="3.06823">
        <ele>22.9</ele>
        <time>2020-06-23T17:03:31Z</time>
      </trkpt>
      <trkpt lat="50.63912" lon="3.06827">
        <ele>22.9</ele>
        <time>2020-06-23T17:03:32Z</time>
      </trkpt>
      <trkpt lat="50.63906" lon="3.06832">
        <ele>22.9</ele>
        <time>2020-06-23T17:03:33Z</time>
      </trkpt>
      <trkpt lat="50.639" lon="3.06832">
        <ele>22.9</ele>
        <time>2020-06-23T17:03:34Z</time>
      </trkpt>
      <trkpt lat="50.63895" lon="3.06836">
        <ele>22.9</ele>
        <time>2020-06-23T17:03:35Z</time>
      </trkpt>
      <trkpt lat="50.63888" lon="3.0684">
        <ele>22.9</ele>
        <time>2020-06-23T17:03:36Z</time>
      </trkpt>
      <trkpt lat="50.63882" lon="3.06844">
        <ele>22.9</ele>
        <time>2020-06-23T17:03:37Z</time>
      </trkpt>
      <trkpt lat="50.63875" lon="3.06848">
        <ele>23</ele>
        <time>2020-06-23T17:03:38Z</time>
      </trkpt>
      <trkpt lat="50.63869" lon="3.06852">
        <ele>23</ele>
        <time>2020-06-23T17:03:39Z</time>
      </trkpt>
      <trkpt lat="50.63863" lon="3.06856">
        <ele>23.1</ele>
        <time>2020-06-23T17:03:40Z</time>
      </trkpt>
      <trkpt lat="50.63857" lon="3.0686">
        <ele>23.2</ele>
        <time>2020-06-23T17:03:41Z</time>
      </trkpt>
      <trkpt lat="50.63853" lon="3.06862">
        <ele>23.2</ele>
        <time>2020-06-23T17:03:42Z</time>
      </trkpt>
      <trkpt lat="50.63849" lon="3.06864">
        <ele>23.3</ele>
        <time>2020-06-23T17:03:43Z</time>
      </trkpt>
      <trkpt lat="50.63844" lon="3.06866">
        <ele>23.3</ele>
        <time>2020-06-23T17:03:44Z</time>
      </trkpt>
      <trkpt lat="50.63842" lon="3.06869">
        <ele>23.3</ele>
        <time>2020-06-23T17:03:45Z</time>
      </trkpt>
      <trkpt lat="50.63845" lon="3.0687">
        <ele>23.3</ele>
        <time>2020-06-23T17:03:46Z</time>
      </trkpt>
      <trkpt lat="50.63842" lon="3.06869">
        <ele>23.3</ele>
        <time>2020-06-23T17:03:47Z</time>
      </trkpt>
      <trkpt lat="50.63839" lon="3.06863">
        <ele>23.4</ele>
        <time>2020-06-23T17:03:48Z</time>
      </trkpt>
      <trkpt lat="50.63834" lon="3.06855">
        <ele>23.4</ele>
        <time>2020-06-23T17:03:49Z</time>
      </trkpt>
      <trkpt lat="50.6383" lon="3.06848">
        <ele>23.5</ele>
        <time>2020-06-23T17:03:50Z</time>
      </trkpt>
      <trkpt lat="50.63827" lon="3.06842">
        <ele>23.5</ele>
        <time>2020-06-23T17:03:51Z</time>
      </trkpt>
      <trkpt lat="50.63823" lon="3.06835">
        <ele>23.6</ele>
        <time>2020-06-23T17:03:52Z</time>
      </trkpt>
      <trkpt lat="50.63819" lon="3.06828">
        <ele>23.6</ele>
        <time>2020-06-23T17:03:53Z</time>
      </trkpt>
      <trkpt lat="50.63815" lon="3.06824">
        <ele>23.7</ele>
        <time>2020-06-23T17:03:54Z</time>
      </trkpt>
      <trkpt lat="50.6381" lon="3.06817">
        <ele>23.8</ele>
        <time>2020-06-23T17:03:55Z</time>
      </trkpt>
      <trkpt lat="50.63805" lon="3.06811">
        <ele>23.9</ele>
        <time>2020-06-23T17:03:56Z</time>
      </trkpt>
      <trkpt lat="50.638" lon="3.068">
        <ele>24.2</ele>
        <time>2020-06-23T17:03:57Z</time>
      </trkpt>
      <trkpt lat="50.63796" lon="3.06791">
        <ele>24.2</ele>
        <time>2020-06-23T17:03:58Z</time>
      </trkpt>
      <trkpt lat="50.63793" lon="3.06786">
        <ele>24.2</ele>
        <time>2020-06-23T17:03:59Z</time>
      </trkpt>
      <trkpt lat="50.63789" lon="3.06781">
        <ele>24.3</ele>
        <time>2020-06-23T17:04:00Z</time>
      </trkpt>
      <trkpt lat="50.63786" lon="3.06776">
        <ele>24.3</ele>
        <time>2020-06-23T17:04:01Z</time>
      </trkpt>
      <trkpt lat="50.63783" lon="3.0677">
        <ele>24.4</ele>
        <time>2020-06-23T17:04:02Z</time>
      </trkpt>
      <trkpt lat="50.63779" lon="3.06762">
        <ele>24.5</ele>
        <time>2020-06-23T17:04:03Z</time>
      </trkpt>
      <trkpt lat="50.63776" lon="3.06754">
        <ele>24.6</ele>
        <time>2020-06-23T17:04:04Z</time>
      </trkpt>
      <trkpt lat="50.63773" lon="3.06747">
        <ele>24.7</ele>
        <time>2020-06-23T17:04:05Z</time>
      </trkpt>
      <trkpt lat="50.6377" lon="3.0674">
        <ele>24.8</ele>
        <time>2020-06-23T17:04:06Z</time>
      </trkpt>
      <trkpt lat="50.63769" lon="3.06733">
        <ele>24.8</ele>
        <time>2020-06-23T17:04:07Z</time>
      </trkpt>
      <trkpt lat="50.63769" lon="3.06728">
        <ele>24.9</ele>
        <time>2020-06-23T17:04:08Z</time>
      </trkpt>
      <trkpt lat="50.63772" lon="3.06723">
        <ele>24.8</ele>
        <time>2020-06-23T17:04:09Z</time>
      </trkpt>
      <trkpt lat="50.63774" lon="3.06717">
        <ele>24.8</ele>
        <time>2020-06-23T17:04:10Z</time>
      </trkpt>
      <trkpt lat="50.63775" lon="3.06715">
        <ele>24.8</ele>
        <time>2020-06-23T17:04:11Z</time>
      </trkpt>
      <trkpt lat="50.63778" lon="3.06712">
        <ele>24.8</ele>
        <time>2020-06-23T17:04:12Z</time>
      </trkpt>
      <trkpt lat="50.63778" lon="3.06712">
        <ele>24.8</ele>
        <time>2020-06-23T17:04:13Z</time>
      </trkpt>
      <trkpt lat="50.63779" lon="3.0671">
        <ele>24.8</ele>
        <time>2020-06-23T17:04:14Z</time>
      </trkpt>
      <trkpt lat="50.63781" lon="3.06708">
        <ele>24.7</ele>
        <time>2020-06-23T17:04:15Z</time>
      </trkpt>
      <trkpt lat="50.63783" lon="3.06705">
        <ele>24.7</ele>
        <time>2020-06-23T17:04:16Z</time>
      </trkpt>
      <trkpt lat="50.63786" lon="3.06701">
        <ele>24.7</ele>
        <time>2020-06-23T17:04:17Z</time>
      </trkpt>
      <trkpt lat="50.63788" lon="3.06699">
        <ele>24.7</ele>
        <time>2020-06-23T17:04:18Z</time>
      </trkpt>
      <trkpt lat="50.6379" lon="3.06696">
        <ele>24.7</ele>
        <time>2020-06-23T17:04:19Z</time>
      </trkpt>
      <trkpt lat="50.63793" lon="3.06693">
        <ele>24.7</ele>
        <time>2020-06-23T17:04:20Z</time>
      </trkpt>
      <trkpt lat="50.63795" lon="3.06689">
        <ele>24.6</ele>
        <time>2020-06-23T17:04:21Z</time>
      </trkpt>
      <trkpt lat="50.63799" lon="3.06685">
        <ele>24.6</ele>
        <time>2020-06-23T17:04:22Z</time>
      </trkpt>
      <trkpt lat="50.63802" lon="3.06682">
        <ele>24.6</ele>
        <time>2020-06-23T17:04:23Z</time>
      </trkpt>
      <trkpt lat="50.63802" lon="3.0668">
        <ele>24.6</ele>
        <time>2020-06-23T17:04:24Z</time>
      </trkpt>
      <trkpt lat="50.63805" lon="3.06678">
        <ele>24.6</ele>
        <time>2020-06-23T17:04:25Z</time>
      </trkpt>
      <trkpt lat="50.63807" lon="3.06675">
        <ele>24.5</ele>
        <time>2020-06-23T17:04:26Z</time>
      </trkpt>
      <trkpt lat="50.6381" lon="3.06672">
        <ele>24.5</ele>
        <time>2020-06-23T17:04:27Z</time>
      </trkpt>
      <trkpt lat="50.63811" lon="3.06671">
        <ele>24.5</ele>
        <time>2020-06-23T17:04:28Z</time>
      </trkpt>
      <trkpt lat="50.63812" lon="3.0667">
        <ele>24.5</ele>
        <time>2020-06-23T17:04:29Z</time>
      </trkpt>
      <trkpt lat="50.63814" lon="3.06669">
        <ele>24.5</ele>
        <time>2020-06-23T17:04:30Z</time>
      </trkpt>
      <trkpt lat="50.63813" lon="3.06667">
        <ele>24.5</ele>
        <time>2020-06-23T17:04:31Z</time>
      </trkpt>
      <trkpt lat="50.63813" lon="3.06666">
        <ele>24.5</ele>
        <time>2020-06-23T17:04:32Z</time>
      </trkpt>
      <trkpt lat="50.63813" lon="3.06666">
        <ele>24.5</ele>
        <time>2020-06-23T17:04:33Z</time>
      </trkpt>
      <trkpt lat="50.63811" lon="3.06668">
        <ele>24.5</ele>
        <time>2020-06-23T17:04:34Z</time>
      </trkpt>
      <trkpt lat="50.63811" lon="3.06668">
        <ele>24.5</ele>
        <time>2020-06-23T17:04:35Z</time>
      </trkpt>
      <trkpt lat="50.63811" lon="3.06667">
        <ele>24.5</ele>
        <time>2020-06-23T17:04:36Z</time>
      </trkpt>
      <trkpt lat="50.63811" lon="3.06666">
        <ele>24.5</ele>
        <time>2020-06-23T17:04:37Z</time>
      </trkpt>
      <trkpt lat="50.63812" lon="3.06666">
        <ele>24.5</ele>
        <time>2020-06-23T17:04:38Z</time>
      </trkpt>
      <trkpt lat="50.63812" lon="3.06665">
        <ele>24.5</ele>
        <time>2020-06-23T17:04:39Z</time>
      </trkpt>
      <trkpt lat="50.63812" lon="3.06664">
        <ele>24.5</ele>
        <time>2020-06-23T17:05:24Z</time>
      </trkpt>
      <trkpt lat="50.63813" lon="3.06664">
        <ele>24.4</ele>
        <time>2020-06-23T17:05:25Z</time>
      </trkpt>
      <trkpt lat="50.63813" lon="3.06663">
        <ele>24.4</ele>
        <time>2020-06-23T17:05:26Z</time>
      </trkpt>
      <trkpt lat="50.63813" lon="3.06662">
        <ele>24.4</ele>
        <time>2020-06-23T17:05:27Z</time>
      </trkpt>
      <trkpt lat="50.63814" lon="3.06662">
        <ele>24.4</ele>
        <time>2020-06-23T17:05:28Z</time>
      </trkpt>
      <trkpt lat="50.63814" lon="3.06661">
        <ele>24.4</ele>
        <time>2020-06-23T17:05:29Z</time>
      </trkpt>
      <trkpt lat="50.63814" lon="3.0666">
        <ele>24.4</ele>
        <time>2020-06-23T17:05:30Z</time>
      </trkpt>
      <trkpt lat="50.63815" lon="3.0666">
        <ele>24.4</ele>
        <time>2020-06-23T17:05:31Z</time>
      </trkpt>
      <trkpt lat="50.63814" lon="3.06659">
        <ele>24.4</ele>
        <time>2020-06-23T17:05:32Z</time>
      </trkpt>
      <trkpt lat="50.63815" lon="3.06659">
        <ele>24.4</ele>
        <time>2020-06-23T17:05:33Z</time>
      </trkpt>
      <trkpt lat="50.63814" lon="3.06658">
        <ele>24.4</ele>
        <time>2020-06-23T17:05:34Z</time>
      </trkpt>
      <trkpt lat="50.63814" lon="3.06658">
        <ele>24.4</ele>
        <time>2020-06-23T17:05:35Z</time>
      </trkpt>
      <trkpt lat="50.63815" lon="3.06657">
        <ele>24.4</ele>
        <time>2020-06-23T17:05:36Z</time>
      </trkpt>
      <trkpt lat="50.63816" lon="3.06655">
        <ele>24.4</ele>
        <time>2020-06-23T17:05:37Z</time>
      </trkpt>
      <trkpt lat="50.63816" lon="3.06653">
        <ele>24.4</ele>
        <time>2020-06-23T17:05:38Z</time>
      </trkpt>
      <trkpt lat="50.63817" lon="3.06654">
        <ele>24.4</ele>
        <time>2020-06-23T17:05:39Z</time>
      </trkpt>
      <trkpt lat="50.63818" lon="3.06656">
        <ele>24.4</ele>
        <time>2020-06-23T17:05:40Z</time>
      </trkpt>
      <trkpt lat="50.63818" lon="3.06655">
        <ele>24.4</ele>
        <time>2020-06-23T17:05:41Z</time>
      </trkpt>
      <trkpt lat="50.63816" lon="3.06656">
        <ele>24.4</ele>
        <time>2020-06-23T17:05:42Z</time>
      </trkpt>
      <trkpt lat="50.63817" lon="3.06655">
        <ele>24.4</ele>
        <time>2020-06-23T17:05:43Z</time>
      </trkpt>
      <trkpt lat="50.63817" lon="3.06654">
        <ele>24.4</ele>
        <time>2020-06-23T17:05:44Z</time>
      </trkpt>
      <trkpt lat="50.63818" lon="3.06654">
        <ele>24.4</ele>
        <time>2020-06-23T17:05:45Z</time>
      </trkpt>
      <trkpt lat="50.63818" lon="3.06653">
        <ele>24.4</ele>
        <time>2020-06-23T17:05:46Z</time>
      </trkpt>
      <trkpt lat="50.63818" lon="3.06653">
        <ele>24.4</ele>
        <time>2020-06-23T17:05:47Z</time>
      </trkpt>
      <trkpt lat="50.63818" lon="3.06653">
        <ele>24.4</ele>
        <time>2020-06-23T17:05:48Z</time>
      </trkpt>
      <trkpt lat="50.63818" lon="3.06653">
        <ele>24.4</ele>
        <time>2020-06-23T17:05:49Z</time>
      </trkpt>
      <trkpt lat="50.63818" lon="3.06652">
        <ele>24.4</ele>
        <time>2020-06-23T17:05:50Z</time>
      </trkpt>
      <trkpt lat="50.63819" lon="3.0665">
        <ele>24.4</ele>
        <time>2020-06-23T17:05:51Z</time>
      </trkpt>
      <trkpt lat="50.63819" lon="3.06649">
        <ele>24.4</ele>
        <time>2020-06-23T17:05:52Z</time>
      </trkpt>
      <trkpt lat="50.63819" lon="3.06647">
        <ele>24.4</ele>
        <time>2020-06-23T17:05:53Z</time>
      </trkpt>
      <trkpt lat="50.63819" lon="3.06646">
        <ele>24.4</ele>
        <time>2020-06-23T17:05:54Z</time>
      </trkpt>
      <trkpt lat="50.63819" lon="3.06645">
        <ele>24.4</ele>
        <time>2020-06-23T17:05:55Z</time>
      </trkpt>
      <trkpt lat="50.63819" lon="3.06643">
        <ele>24.4</ele>
        <time>2020-06-23T17:05:56Z</time>
      </trkpt>
      <trkpt lat="50.63819" lon="3.06642">
        <ele>24.3</ele>
        <time>2020-06-23T17:05:57Z</time>
      </trkpt>
      <trkpt lat="50.63819" lon="3.06641">
        <ele>24.3</ele>
        <time>2020-06-23T17:05:58Z</time>
      </trkpt>
      <trkpt lat="50.63819" lon="3.0664">
        <ele>24.3</ele>
        <time>2020-06-23T17:05:59Z</time>
      </trkpt>
      <trkpt lat="50.63819" lon="3.06638">
        <ele>24.3</ele>
        <time>2020-06-23T17:06:00Z</time>
      </trkpt>
      <trkpt lat="50.63819" lon="3.06636">
        <ele>24.3</ele>
        <time>2020-06-23T17:06:01Z</time>
      </trkpt>
      <trkpt lat="50.63818" lon="3.0663">
        <ele>24.3</ele>
        <time>2020-06-23T17:06:02Z</time>
      </trkpt>
      <trkpt lat="50.63818" lon="3.06628">
        <ele>24.3</ele>
        <time>2020-06-23T17:06:03Z</time>
      </trkpt>
      <trkpt lat="50.63818" lon="3.06626">
        <ele>24.3</ele>
        <time>2020-06-23T17:06:04Z</time>
      </trkpt>
      <trkpt lat="50.63818" lon="3.06623">
        <ele>24.3</ele>
        <time>2020-06-23T17:06:05Z</time>
      </trkpt>
      <trkpt lat="50.63818" lon="3.06621">
        <ele>24.3</ele>
        <time>2020-06-23T17:06:06Z</time>
      </trkpt>
      <trkpt lat="50.63818" lon="3.06617">
        <ele>24.3</ele>
        <time>2020-06-23T17:06:07Z</time>
      </trkpt>
      <trkpt lat="50.63818" lon="3.06612">
        <ele>24.3</ele>
        <time>2020-06-23T17:06:08Z</time>
      </trkpt>
      <trkpt lat="50.63818" lon="3.0661">
        <ele>24.3</ele>
        <time>2020-06-23T17:06:09Z</time>
      </trkpt>
      <trkpt lat="50.63817" lon="3.06609">
        <ele>24.3</ele>
        <time>2020-06-23T17:06:10Z</time>
      </trkpt>
      <trkpt lat="50.63817" lon="3.06608">
        <ele>24.3</ele>
        <time>2020-06-23T17:06:11Z</time>
      </trkpt>
      <trkpt lat="50.63817" lon="3.06607">
        <ele>24.3</ele>
        <time>2020-06-23T17:06:12Z</time>
      </trkpt>
      <trkpt lat="50.63817" lon="3.06605">
        <ele>24.3</ele>
        <time>2020-06-23T17:06:13Z</time>
      </trkpt>
      <trkpt lat="50.63817" lon="3.06604">
        <ele>24.3</ele>
        <time>2020-06-23T17:06:14Z</time>
      </trkpt>
      <trkpt lat="50.63817" lon="3.06603">
        <ele>24.3</ele>
        <time>2020-06-23T17:06:15Z</time>
      </trkpt>
      <trkpt lat="50.63817" lon="3.06602">
        <ele>24.3</ele>
        <time>2020-06-23T17:06:16Z</time>
      </trkpt>
      <trkpt lat="50.63816" lon="3.06601">
        <ele>24.3</ele>
        <time>2020-06-23T17:06:17Z</time>
      </trkpt>
      <trkpt lat="50.63816" lon="3.066">
        <ele>24.3</ele>
        <time>2020-06-23T17:06:18Z</time>
      </trkpt>
      <trkpt lat="50.63816" lon="3.06599">
        <ele>24.3</ele>
        <time>2020-06-23T17:06:19Z</time>
      </trkpt>
      <trkpt lat="50.63816" lon="3.06599">
        <ele>24.3</ele>
        <time>2020-06-23T17:06:20Z</time>
      </trkpt>
      <trkpt lat="50.63816" lon="3.06598">
        <ele>24.3</ele>
        <time>2020-06-23T17:06:21Z</time>
      </trkpt>
      <trkpt lat="50.63816" lon="3.06597">
        <ele>24.3</ele>
        <time>2020-06-23T17:06:22Z</time>
      </trkpt>
      <trkpt lat="50.63816" lon="3.06597">
        <ele>24.3</ele>
        <time>2020-06-23T17:06:23Z</time>
      </trkpt>
      <trkpt lat="50.63816" lon="3.06596">
        <ele>24.3</ele>
        <time>2020-06-23T17:06:24Z</time>
      </trkpt>
      <trkpt lat="50.63813" lon="3.066">
        <ele>24.3</ele>
        <time>2020-06-23T17:06:46Z</time>
      </trkpt>
      <trkpt lat="50.63813" lon="3.06598">
        <ele>24.3</ele>
        <time>2020-06-23T17:06:47Z</time>
      </trkpt>
      <trkpt lat="50.63811" lon="3.06595">
        <ele>24.3</ele>
        <time>2020-06-23T17:06:48Z</time>
      </trkpt>
      <trkpt lat="50.63812" lon="3.06593">
        <ele>24.4</ele>
        <time>2020-06-23T17:06:49Z</time>
      </trkpt>
      <trkpt lat="50.63812" lon="3.0659">
        <ele>24.4</ele>
        <time>2020-06-23T17:06:50Z</time>
      </trkpt>
      <trkpt lat="50.63812" lon="3.06587">
        <ele>24.4</ele>
        <time>2020-06-23T17:06:51Z</time>
      </trkpt>
      <trkpt lat="50.63811" lon="3.06586">
        <ele>24.4</ele>
        <time>2020-06-23T17:06:52Z</time>
      </trkpt>
      <trkpt lat="50.63811" lon="3.06585">
        <ele>24.4</ele>
        <time>2020-06-23T17:06:53Z</time>
      </trkpt>
      <trkpt lat="50.63811" lon="3.06586">
        <ele>24.4</ele>
        <time>2020-06-23T17:06:54Z</time>
      </trkpt>
      <trkpt lat="50.63811" lon="3.06587">
        <ele>24.4</ele>
        <time>2020-06-23T17:06:55Z</time>
      </trkpt>
      <trkpt lat="50.63811" lon="3.06587">
        <ele>24.4</ele>
        <time>2020-06-23T17:06:56Z</time>
      </trkpt>
      <trkpt lat="50.63811" lon="3.06585">
        <ele>24.4</ele>
        <time>2020-06-23T17:06:57Z</time>
      </trkpt>
      <trkpt lat="50.63811" lon="3.06585">
        <ele>24.4</ele>
        <time>2020-06-23T17:06:58Z</time>
      </trkpt>
      <trkpt lat="50.63811" lon="3.06584">
        <ele>24.4</ele>
        <time>2020-06-23T17:06:59Z</time>
      </trkpt>
      <trkpt lat="50.63811" lon="3.06584">
        <ele>24.4</ele>
        <time>2020-06-23T17:07:00Z</time>
      </trkpt>
      <trkpt lat="50.63811" lon="3.06584">
        <ele>24.4</ele>
        <time>2020-06-23T17:07:01Z</time>
      </trkpt>
      <trkpt lat="50.63811" lon="3.06583">
        <ele>24.4</ele>
        <time>2020-06-23T17:07:02Z</time>
      </trkpt>
      <trkpt lat="50.63811" lon="3.06583">
        <ele>24.4</ele>
        <time>2020-06-23T17:07:03Z</time>
      </trkpt>
      <trkpt lat="50.63815" lon="3.06594">
        <ele>24.3</ele>
        <time>2020-06-23T17:15:46Z</time>
      </trkpt>
      <trkpt lat="50.63815" lon="3.06593">
        <ele>24.3</ele>
        <time>2020-06-23T17:15:47Z</time>
      </trkpt>
      <trkpt lat="50.63816" lon="3.06592">
        <ele>24.3</ele>
        <time>2020-06-23T17:15:48Z</time>
      </trkpt>
      <trkpt lat="50.63816" lon="3.06591">
        <ele>24.3</ele>
        <time>2020-06-23T17:15:49Z</time>
      </trkpt>
      <trkpt lat="50.63816" lon="3.06591">
        <ele>24.3</ele>
        <time>2020-06-23T17:15:50Z</time>
      </trkpt>
      <trkpt lat="50.63817" lon="3.06592">
        <ele>24.3</ele>
        <time>2020-06-23T17:15:51Z</time>
      </trkpt>
      <trkpt lat="50.63817" lon="3.06592">
        <ele>24.3</ele>
        <time>2020-06-23T17:15:52Z</time>
      </trkpt>
      <trkpt lat="50.63817" lon="3.06593">
        <ele>24.3</ele>
        <time>2020-06-23T17:15:53Z</time>
      </trkpt>
      <trkpt lat="50.63817" lon="3.06594">
        <ele>24.3</ele>
        <time>2020-06-23T17:15:54Z</time>
      </trkpt>
      <trkpt lat="50.63818" lon="3.06594">
        <ele>24.3</ele>
        <time>2020-06-23T17:15:55Z</time>
      </trkpt>
      <trkpt lat="50.63818" lon="3.06594">
        <ele>24.3</ele>
        <time>2020-06-23T17:15:56Z</time>
      </trkpt>
      <trkpt lat="50.63818" lon="3.06595">
        <ele>24.3</ele>
        <time>2020-06-23T17:15:57Z</time>
      </trkpt>
      <trkpt lat="50.63818" lon="3.06595">
        <ele>24.3</ele>
        <time>2020-06-23T17:15:58Z</time>
      </trkpt>
      <trkpt lat="50.63818" lon="3.06595">
        <ele>24.3</ele>
        <time>2020-06-23T17:15:59Z</time>
      </trkpt>
      <trkpt lat="50.63818" lon="3.06596">
        <ele>24.3</ele>
        <time>2020-06-23T17:16:00Z</time>
      </trkpt>
      <trkpt lat="50.63818" lon="3.06597">
        <ele>24.3</ele>
        <time>2020-06-23T17:16:01Z</time>
      </trkpt>
      <trkpt lat="50.63818" lon="3.06598">
        <ele>24.3</ele>
        <time>2020-06-23T17:16:02Z</time>
      </trkpt>
      <trkpt lat="50.63818" lon="3.06599">
        <ele>24.3</ele>
        <time>2020-06-23T17:16:03Z</time>
      </trkpt>
      <trkpt lat="50.63818" lon="3.06599">
        <ele>24.3</ele>
        <time>2020-06-23T17:16:04Z</time>
      </trkpt>
      <trkpt lat="50.63818" lon="3.06599">
        <ele>24.3</ele>
        <time>2020-06-23T17:16:05Z</time>
      </trkpt>
      <trkpt lat="50.63818" lon="3.066">
        <ele>24.3</ele>
        <time>2020-06-23T17:16:06Z</time>
      </trkpt>
      <trkpt lat="50.63818" lon="3.066">
        <ele>24.3</ele>
        <time>2020-06-23T17:16:07Z</time>
      </trkpt>
      <trkpt lat="50.63818" lon="3.06601">
        <ele>24.3</ele>
        <time>2020-06-23T17:16:08Z</time>
      </trkpt>
      <trkpt lat="50.63818" lon="3.06601">
        <ele>24.3</ele>
        <time>2020-06-23T17:16:09Z</time>
      </trkpt>
      <trkpt lat="50.63818" lon="3.06602">
        <ele>24.3</ele>
        <time>2020-06-23T17:16:10Z</time>
      </trkpt>
      <trkpt lat="50.63818" lon="3.06602">
        <ele>24.3</ele>
        <time>2020-06-23T17:16:11Z</time>
      </trkpt>
      <trkpt lat="50.63818" lon="3.06603">
        <ele>24.3</ele>
        <time>2020-06-23T17:16:12Z</time>
      </trkpt>
      <trkpt lat="50.63818" lon="3.06603">
        <ele>24.3</ele>
        <time>2020-06-23T17:16:13Z</time>
      </trkpt>
      <trkpt lat="50.63818" lon="3.06604">
        <ele>24.3</ele>
        <time>2020-06-23T17:16:14Z</time>
      </trkpt>
      <trkpt lat="50.63818" lon="3.06604">
        <ele>24.3</ele>
        <time>2020-06-23T17:16:21Z</time>
      </trkpt>
      <trkpt lat="50.63818" lon="3.06605">
        <ele>24.3</ele>
        <time>2020-06-23T17:16:22Z</time>
      </trkpt>
      <trkpt lat="50.63818" lon="3.06605">
        <ele>24.3</ele>
        <time>2020-06-23T17:16:23Z</time>
      </trkpt>
      <trkpt lat="50.63818" lon="3.06606">
        <ele>24.3</ele>
        <time>2020-06-23T17:16:24Z</time>
      </trkpt>
      <trkpt lat="50.63818" lon="3.06606">
        <ele>24.3</ele>
        <time>2020-06-23T17:16:25Z</time>
      </trkpt>
      <trkpt lat="50.63818" lon="3.06607">
        <ele>24.3</ele>
        <time>2020-06-23T17:16:26Z</time>
      </trkpt>
      <trkpt lat="50.63818" lon="3.06607">
        <ele>24.3</ele>
        <time>2020-06-23T17:16:27Z</time>
      </trkpt>
      <trkpt lat="50.63818" lon="3.06608">
        <ele>24.3</ele>
        <time>2020-06-23T17:16:28Z</time>
      </trkpt>
      <trkpt lat="50.63818" lon="3.06609">
        <ele>24.3</ele>
        <time>2020-06-23T17:16:29Z</time>
      </trkpt>
      <trkpt lat="50.63818" lon="3.0661">
        <ele>24.3</ele>
        <time>2020-06-23T17:16:30Z</time>
      </trkpt>
      <trkpt lat="50.63819" lon="3.0661">
        <ele>24.3</ele>
        <time>2020-06-23T17:16:31Z</time>
      </trkpt>
      <trkpt lat="50.63819" lon="3.06611">
        <ele>24.3</ele>
        <time>2020-06-23T17:16:32Z</time>
      </trkpt>
      <trkpt lat="50.63819" lon="3.06612">
        <ele>24.3</ele>
        <time>2020-06-23T17:16:33Z</time>
      </trkpt>
      <trkpt lat="50.63819" lon="3.06614">
        <ele>24.3</ele>
        <time>2020-06-23T17:16:34Z</time>
      </trkpt>
      <trkpt lat="50.6382" lon="3.06616">
        <ele>24.3</ele>
        <time>2020-06-23T17:16:35Z</time>
      </trkpt>
      <trkpt lat="50.6382" lon="3.06618">
        <ele>24.3</ele>
        <time>2020-06-23T17:16:36Z</time>
      </trkpt>
      <trkpt lat="50.6382" lon="3.06619">
        <ele>24.3</ele>
        <time>2020-06-23T17:16:37Z</time>
      </trkpt>
      <trkpt lat="50.63819" lon="3.06619">
        <ele>24.3</ele>
        <time>2020-06-23T17:16:38Z</time>
      </trkpt>
      <trkpt lat="50.6382" lon="3.0662">
        <ele>24.3</ele>
        <time>2020-06-23T17:16:39Z</time>
      </trkpt>
      <trkpt lat="50.6382" lon="3.06621">
        <ele>24.3</ele>
        <time>2020-06-23T17:16:40Z</time>
      </trkpt>
      <trkpt lat="50.63821" lon="3.06622">
        <ele>24.3</ele>
        <time>2020-06-23T17:16:41Z</time>
      </trkpt>
      <trkpt lat="50.63821" lon="3.06622">
        <ele>24.3</ele>
        <time>2020-06-23T17:16:42Z</time>
      </trkpt>
      <trkpt lat="50.63822" lon="3.06622">
        <ele>24.3</ele>
        <time>2020-06-23T17:16:43Z</time>
      </trkpt>
      <trkpt lat="50.63822" lon="3.06622">
        <ele>24.3</ele>
        <time>2020-06-23T17:16:44Z</time>
      </trkpt>
      <trkpt lat="50.63822" lon="3.06621">
        <ele>24.3</ele>
        <time>2020-06-23T17:16:45Z</time>
      </trkpt>
      <trkpt lat="50.63822" lon="3.06621">
        <ele>24.3</ele>
        <time>2020-06-23T17:16:46Z</time>
      </trkpt>
      <trkpt lat="50.63822" lon="3.0662">
        <ele>24.3</ele>
        <time>2020-06-23T17:16:47Z</time>
      </trkpt>
      <trkpt lat="50.63823" lon="3.06619">
        <ele>24.3</ele>
        <time>2020-06-23T17:16:48Z</time>
      </trkpt>
      <trkpt lat="50.63823" lon="3.06617">
        <ele>24.3</ele>
        <time>2020-06-23T17:16:49Z</time>
      </trkpt>
      <trkpt lat="50.63823" lon="3.06616">
        <ele>24.3</ele>
        <time>2020-06-23T17:16:50Z</time>
      </trkpt>
      <trkpt lat="50.63823" lon="3.06616">
        <ele>24.3</ele>
        <time>2020-06-23T17:16:51Z</time>
      </trkpt>
      <trkpt lat="50.63823" lon="3.06617">
        <ele>24.3</ele>
        <time>2020-06-23T17:16:52Z</time>
      </trkpt>
      <trkpt lat="50.63823" lon="3.06615">
        <ele>24.3</ele>
        <time>2020-06-23T17:16:53Z</time>
      </trkpt>
      <trkpt lat="50.63823" lon="3.06614">
        <ele>24.3</ele>
        <time>2020-06-23T17:16:54Z</time>
      </trkpt>
      <trkpt lat="50.63823" lon="3.06614">
        <ele>24.3</ele>
        <time>2020-06-23T17:16:55Z</time>
      </trkpt>
      <trkpt lat="50.63823" lon="3.06615">
        <ele>24.3</ele>
        <time>2020-06-23T17:16:56Z</time>
      </trkpt>
      <trkpt lat="50.63823" lon="3.06615">
        <ele>24.3</ele>
        <time>2020-06-23T17:16:57Z</time>
      </trkpt>
      <trkpt lat="50.63823" lon="3.06616">
        <ele>24.3</ele>
        <time>2020-06-23T17:16:58Z</time>
      </trkpt>
      <trkpt lat="50.63823" lon="3.06616">
        <ele>24.3</ele>
        <time>2020-06-23T17:16:59Z</time>
      </trkpt>
      <trkpt lat="50.63823" lon="3.06615">
        <ele>24.3</ele>
        <time>2020-06-23T17:17:00Z</time>
      </trkpt>
      <trkpt lat="50.63823" lon="3.06616">
        <ele>24.3</ele>
        <time>2020-06-23T17:17:01Z</time>
      </trkpt>
      <trkpt lat="50.63823" lon="3.06616">
        <ele>24.3</ele>
        <time>2020-06-23T17:17:02Z</time>
      </trkpt>
      <trkpt lat="50.63823" lon="3.06617">
        <ele>24.3</ele>
        <time>2020-06-23T17:17:03Z</time>
      </trkpt>
      <trkpt lat="50.63823" lon="3.06617">
        <ele>24.3</ele>
        <time>2020-06-23T17:17:04Z</time>
      </trkpt>
      <trkpt lat="50.63823" lon="3.06618">
        <ele>24.3</ele>
        <time>2020-06-23T17:17:05Z</time>
      </trkpt>
      <trkpt lat="50.63822" lon="3.06618">
        <ele>24.3</ele>
        <time>2020-06-23T17:17:06Z</time>
      </trkpt>
      <trkpt lat="50.63822" lon="3.06619">
        <ele>24.3</ele>
        <time>2020-06-23T17:17:07Z</time>
      </trkpt>
      <trkpt lat="50.63822" lon="3.06619">
        <ele>24.3</ele>
        <time>2020-06-23T17:17:08Z</time>
      </trkpt>
      <trkpt lat="50.63822" lon="3.06619">
        <ele>24.3</ele>
        <time>2020-06-23T17:17:09Z</time>
      </trkpt>
      <trkpt lat="50.63822" lon="3.0662">
        <ele>24.3</ele>
        <time>2020-06-23T17:17:10Z</time>
      </trkpt>
      <trkpt lat="50.63823" lon="3.0662">
        <ele>24.3</ele>
        <time>2020-06-23T17:17:11Z</time>
      </trkpt>
      <trkpt lat="50.63823" lon="3.06621">
        <ele>24.3</ele>
        <time>2020-06-23T17:17:12Z</time>
      </trkpt>
      <trkpt lat="50.63823" lon="3.06621">
        <ele>24.3</ele>
        <time>2020-06-23T17:17:13Z</time>
      </trkpt>
      <trkpt lat="50.63823" lon="3.06622">
        <ele>24.3</ele>
        <time>2020-06-23T17:17:14Z</time>
      </trkpt>
      <trkpt lat="50.63822" lon="3.06622">
        <ele>24.3</ele>
        <time>2020-06-23T17:17:15Z</time>
      </trkpt>
      <trkpt lat="50.63823" lon="3.06622">
        <ele>24.3</ele>
        <time>2020-06-23T17:17:16Z</time>
      </trkpt>
      <trkpt lat="50.63822" lon="3.06619">
        <ele>24.3</ele>
        <time>2020-06-23T17:17:17Z</time>
      </trkpt>
      <trkpt lat="50.63821" lon="3.06616">
        <ele>24.3</ele>
        <time>2020-06-23T17:17:18Z</time>
      </trkpt>
      <trkpt lat="50.63821" lon="3.06614">
        <ele>24.3</ele>
        <time>2020-06-23T17:17:19Z</time>
      </trkpt>
      <trkpt lat="50.63822" lon="3.06613">
        <ele>24.3</ele>
        <time>2020-06-23T17:17:20Z</time>
      </trkpt>
      <trkpt lat="50.63822" lon="3.06611">
        <ele>24.3</ele>
        <time>2020-06-23T17:17:21Z</time>
      </trkpt>
      <trkpt lat="50.63822" lon="3.0661">
        <ele>24.3</ele>
        <time>2020-06-23T17:17:22Z</time>
      </trkpt>
      <trkpt lat="50.63821" lon="3.0661">
        <ele>24.3</ele>
        <time>2020-06-23T17:17:23Z</time>
      </trkpt>
      <trkpt lat="50.63822" lon="3.06609">
        <ele>24.3</ele>
        <time>2020-06-23T17:17:24Z</time>
      </trkpt>
      <trkpt lat="50.63821" lon="3.06608">
        <ele>24.3</ele>
        <time>2020-06-23T17:17:25Z</time>
      </trkpt>
      <trkpt lat="50.63822" lon="3.06608">
        <ele>24.3</ele>
        <time>2020-06-23T17:17:26Z</time>
      </trkpt>
      <trkpt lat="50.63822" lon="3.06606">
        <ele>24.3</ele>
        <time>2020-06-23T17:17:27Z</time>
      </trkpt>
      <trkpt lat="50.63822" lon="3.06606">
        <ele>24.3</ele>
        <time>2020-06-23T17:17:28Z</time>
      </trkpt>
      <trkpt lat="50.63823" lon="3.0661">
        <ele>24.3</ele>
        <time>2020-06-23T17:18:43Z</time>
      </trkpt>
      <trkpt lat="50.63824" lon="3.0661">
        <ele>24.3</ele>
        <time>2020-06-23T17:18:44Z</time>
      </trkpt>
      <trkpt lat="50.63824" lon="3.06611">
        <ele>24.3</ele>
        <time>2020-06-23T17:18:45Z</time>
      </trkpt>
      <trkpt lat="50.63824" lon="3.06611">
        <ele>24.3</ele>
        <time>2020-06-23T17:18:46Z</time>
      </trkpt>
      <trkpt lat="50.63824" lon="3.06612">
        <ele>24.3</ele>
        <time>2020-06-23T17:18:47Z</time>
      </trkpt>
      <trkpt lat="50.63824" lon="3.06613">
        <ele>24.3</ele>
        <time>2020-06-23T17:18:48Z</time>
      </trkpt>
      <trkpt lat="50.63825" lon="3.06613">
        <ele>24.3</ele>
        <time>2020-06-23T17:18:49Z</time>
      </trkpt>
      <trkpt lat="50.63825" lon="3.06612">
        <ele>24.3</ele>
        <time>2020-06-23T17:18:50Z</time>
      </trkpt>
      <trkpt lat="50.63825" lon="3.06611">
        <ele>24.3</ele>
        <time>2020-06-23T17:18:51Z</time>
      </trkpt>
      <trkpt lat="50.63825" lon="3.0661">
        <ele>24.3</ele>
        <time>2020-06-23T17:18:52Z</time>
      </trkpt>
      <trkpt lat="50.63825" lon="3.06609">
        <ele>24.3</ele>
        <time>2020-06-23T17:18:53Z</time>
      </trkpt>
      <trkpt lat="50.63825" lon="3.06607">
        <ele>24.3</ele>
        <time>2020-06-23T17:18:54Z</time>
      </trkpt>
      <trkpt lat="50.63825" lon="3.06607">
        <ele>24.3</ele>
        <time>2020-06-23T17:18:55Z</time>
      </trkpt>
      <trkpt lat="50.63825" lon="3.06606">
        <ele>24.3</ele>
        <time>2020-06-23T17:18:56Z</time>
      </trkpt>
      <trkpt lat="50.63825" lon="3.06606">
        <ele>24.3</ele>
        <time>2020-06-23T17:18:57Z</time>
      </trkpt>
      <trkpt lat="50.63825" lon="3.06608">
        <ele>24.3</ele>
        <time>2020-06-23T17:18:58Z</time>
      </trkpt>
      <trkpt lat="50.63826" lon="3.06609">
        <ele>24.3</ele>
        <time>2020-06-23T17:18:59Z</time>
      </trkpt>
      <trkpt lat="50.63826" lon="3.06609">
        <ele>24.3</ele>
        <time>2020-06-23T17:19:00Z</time>
      </trkpt>
      <trkpt lat="50.63827" lon="3.0661">
        <ele>24.3</ele>
        <time>2020-06-23T17:19:01Z</time>
      </trkpt>
      <trkpt lat="50.63827" lon="3.0661">
        <ele>24.3</ele>
        <time>2020-06-23T17:19:02Z</time>
      </trkpt>
      <trkpt lat="50.63827" lon="3.06609">
        <ele>24.3</ele>
        <time>2020-06-23T17:19:03Z</time>
      </trkpt>
      <trkpt lat="50.63827" lon="3.06608">
        <ele>24.3</ele>
        <time>2020-06-23T17:19:04Z</time>
      </trkpt>
      <trkpt lat="50.63827" lon="3.06607">
        <ele>24.3</ele>
        <time>2020-06-23T17:19:05Z</time>
      </trkpt>
      <trkpt lat="50.63827" lon="3.06606">
        <ele>24.3</ele>
        <time>2020-06-23T17:19:06Z</time>
      </trkpt>
      <trkpt lat="50.63827" lon="3.06606">
        <ele>24.3</ele>
        <time>2020-06-23T17:19:07Z</time>
      </trkpt>
      <trkpt lat="50.63828" lon="3.06606">
        <ele>24.3</ele>
        <time>2020-06-23T17:19:08Z</time>
      </trkpt>
      <trkpt lat="50.63828" lon="3.06607">
        <ele>24.3</ele>
        <time>2020-06-23T17:19:09Z</time>
      </trkpt>
    </trkseg>
  </trk>
</gpx>